
<gpx xmlns="http://www.topografix.com/GPX/1/1" xmlns:gpxx="http://www.garmin.com/xmlschemas/GpxExtensions/v3" xmlns:xsi="http://www.w3.org/2001/XMLSchema-instance" version="1.1" creator="Adze - https://getadze.com/" xsi:schemaLocation="http://www.topografix.com/GPX/1/1 http://www.topografix.com/GPX/1/1/gpx.xsd http://www.garmin.com/xmlschemas/GpxExtensions/v3 http://www.garmin.com/xmlschemas/GpxExtensionsv3.xsd">
    <metadata>
        <name>Untitled Document</name>
        <link href="http://e-ivanov.ru/projects/strava-export-gpx/"></link>
        <time>2018-10-30T00:03:38.463Z</time>
    </metadata>
    <wpt lon="101.205549" lat="14.341010">
        <name>Rabiangprai Resort</name>
    </wpt>
    <trk>
        <name>October 2018 - Sunday</name>
        <extensions>
            <gpxx:TrackExtension>
                <gpxx:DisplayColor>DarkMagenta</gpxx:DisplayColor>
            </gpxx:TrackExtension>
        </extensions>
        <trkseg>
            <trkpt lon="101.205474" lat="14.341111">
                <ele>92.100000</ele>
                <time>2018-10-21T01:59:00Z</time>
            </trkpt>
            <trkpt lon="101.205488" lat="14.341085">
                <ele>91.800000</ele>
                <time>2018-10-21T01:59:02Z</time>
            </trkpt>
            <trkpt lon="101.205446" lat="14.341067">
                <ele>91.800000</ele>
                <time>2018-10-21T02:01:17Z</time>
            </trkpt>
            <trkpt lon="101.205479" lat="14.341052">
                <ele>91.600000</ele>
                <time>2018-10-21T02:01:21Z</time>
            </trkpt>
            <trkpt lon="101.205512" lat="14.341057">
                <ele>92.000000</ele>
                <time>2018-10-21T02:01:27Z</time>
            </trkpt>
            <trkpt lon="101.205541" lat="14.341073">
                <ele>92.500000</ele>
                <time>2018-10-21T02:03:42Z</time>
            </trkpt>
            <trkpt lon="101.205574" lat="14.341076">
                <ele>92.500000</ele>
                <time>2018-10-21T02:03:52Z</time>
            </trkpt>
            <trkpt lon="101.205600" lat="14.341057">
                <ele>92.800000</ele>
                <time>2018-10-21T02:03:55Z</time>
            </trkpt>
            <trkpt lon="101.205629" lat="14.341046">
                <ele>93.200000</ele>
                <time>2018-10-21T02:03:58Z</time>
            </trkpt>
            <trkpt lon="101.205651" lat="14.341029">
                <ele>93.200000</ele>
                <time>2018-10-21T02:04:11Z</time>
            </trkpt>
            <trkpt lon="101.205628" lat="14.341013">
                <ele>93.200000</ele>
                <time>2018-10-21T02:04:21Z</time>
            </trkpt>
            <trkpt lon="101.205598" lat="14.340997">
                <ele>92.700000</ele>
                <time>2018-10-21T02:04:23Z</time>
            </trkpt>
            <trkpt lon="101.205565" lat="14.340961">
                <ele>92.200000</ele>
                <time>2018-10-21T02:04:25Z</time>
            </trkpt>
            <trkpt lon="101.205549" lat="14.340936">
                <ele>92.200000</ele>
                <time>2018-10-21T02:04:26Z</time>
            </trkpt>
            <trkpt lon="101.205555" lat="14.340875">
                <ele>92.200000</ele>
                <time>2018-10-21T02:04:28Z</time>
            </trkpt>
            <trkpt lon="101.205576" lat="14.340840">
                <ele>92.200000</ele>
                <time>2018-10-21T02:04:30Z</time>
            </trkpt>
            <trkpt lon="101.205586" lat="14.340810">
                <ele>92.600000</ele>
                <time>2018-10-21T02:04:31Z</time>
            </trkpt>
            <trkpt lon="101.205603" lat="14.340776">
                <ele>92.600000</ele>
                <time>2018-10-21T02:04:32Z</time>
            </trkpt>
            <trkpt lon="101.205626" lat="14.340744">
                <ele>92.900000</ele>
                <time>2018-10-21T02:04:33Z</time>
            </trkpt>
            <trkpt lon="101.205640" lat="14.340707">
                <ele>92.700000</ele>
                <time>2018-10-21T02:04:34Z</time>
            </trkpt>
            <trkpt lon="101.205657" lat="14.340673">
                <ele>92.400000</ele>
                <time>2018-10-21T02:04:35Z</time>
            </trkpt>
            <trkpt lon="101.205679" lat="14.340640">
                <ele>93.000000</ele>
                <time>2018-10-21T02:04:36Z</time>
            </trkpt>
            <trkpt lon="101.205700" lat="14.340608">
                <ele>93.000000</ele>
                <time>2018-10-21T02:04:37Z</time>
            </trkpt>
            <trkpt lon="101.205719" lat="14.340578">
                <ele>93.800000</ele>
                <time>2018-10-21T02:04:38Z</time>
            </trkpt>
            <trkpt lon="101.205726" lat="14.340548">
                <ele>93.800000</ele>
                <time>2018-10-21T02:04:39Z</time>
            </trkpt>
            <trkpt lon="101.205728" lat="14.340517">
                <ele>93.800000</ele>
                <time>2018-10-21T02:04:40Z</time>
            </trkpt>
            <trkpt lon="101.205722" lat="14.340478">
                <ele>93.800000</ele>
                <time>2018-10-21T02:04:41Z</time>
            </trkpt>
            <trkpt lon="101.205715" lat="14.340427">
                <ele>93.900000</ele>
                <time>2018-10-21T02:04:42Z</time>
            </trkpt>
            <trkpt lon="101.205707" lat="14.340388">
                <ele>93.400000</ele>
                <time>2018-10-21T02:04:43Z</time>
            </trkpt>
            <trkpt lon="101.205712" lat="14.340358">
                <ele>94.100000</ele>
                <time>2018-10-21T02:04:44Z</time>
            </trkpt>
            <trkpt lon="101.205723" lat="14.340332">
                <ele>94.100000</ele>
                <time>2018-10-21T02:04:45Z</time>
            </trkpt>
            <trkpt lon="101.205730" lat="14.340302">
                <ele>94.200000</ele>
                <time>2018-10-21T02:04:46Z</time>
            </trkpt>
            <trkpt lon="101.205729" lat="14.340271">
                <ele>94.100000</ele>
                <time>2018-10-21T02:04:47Z</time>
            </trkpt>
            <trkpt lon="101.205724" lat="14.340236">
                <ele>94.100000</ele>
                <time>2018-10-21T02:04:48Z</time>
            </trkpt>
            <trkpt lon="101.205726" lat="14.340193">
                <ele>93.900000</ele>
                <time>2018-10-21T02:04:50Z</time>
            </trkpt>
            <trkpt lon="101.205736" lat="14.340157">
                <ele>93.800000</ele>
                <time>2018-10-21T02:04:53Z</time>
            </trkpt>
            <trkpt lon="101.205747" lat="14.340129">
                <ele>93.700000</ele>
                <time>2018-10-21T02:04:55Z</time>
            </trkpt>
            <trkpt lon="101.205760" lat="14.340103">
                <ele>94.200000</ele>
                <time>2018-10-21T02:04:56Z</time>
            </trkpt>
            <trkpt lon="101.205779" lat="14.340074">
                <ele>94.200000</ele>
                <time>2018-10-21T02:04:57Z</time>
            </trkpt>
            <trkpt lon="101.205805" lat="14.340034">
                <ele>94.700000</ele>
                <time>2018-10-21T02:04:59Z</time>
            </trkpt>
            <trkpt lon="101.205817" lat="14.340002">
                <ele>94.500000</ele>
                <time>2018-10-21T02:05:01Z</time>
            </trkpt>
            <trkpt lon="101.205842" lat="14.339976">
                <ele>95.400000</ele>
                <time>2018-10-21T02:05:04Z</time>
            </trkpt>
            <trkpt lon="101.205849" lat="14.339939">
                <ele>95.700000</ele>
                <time>2018-10-21T02:05:06Z</time>
            </trkpt>
            <trkpt lon="101.205846" lat="14.339895">
                <ele>96.100000</ele>
                <time>2018-10-21T02:05:08Z</time>
            </trkpt>
            <trkpt lon="101.205843" lat="14.339857">
                <ele>96.400000</ele>
                <time>2018-10-21T02:05:10Z</time>
            </trkpt>
            <trkpt lon="101.205844" lat="14.339829">
                <ele>96.400000</ele>
                <time>2018-10-21T02:05:12Z</time>
            </trkpt>
            <trkpt lon="101.205843" lat="14.339797">
                <ele>96.700000</ele>
                <time>2018-10-21T02:05:24Z</time>
            </trkpt>
            <trkpt lon="101.205842" lat="14.339763">
                <ele>96.900000</ele>
                <time>2018-10-21T02:05:31Z</time>
            </trkpt>
            <trkpt lon="101.205807" lat="14.339773">
                <ele>96.900000</ele>
                <time>2018-10-21T02:05:35Z</time>
            </trkpt>
            <trkpt lon="101.205833" lat="14.339760">
                <ele>96.900000</ele>
                <time>2018-10-21T02:05:53Z</time>
            </trkpt>
            <trkpt lon="101.205836" lat="14.339722">
                <ele>96.900000</ele>
                <time>2018-10-21T02:06:08Z</time>
            </trkpt>
            <trkpt lon="101.205851" lat="14.339697">
                <ele>96.900000</ele>
                <time>2018-10-21T02:06:14Z</time>
            </trkpt>
            <trkpt lon="101.205880" lat="14.339680">
                <ele>96.800000</ele>
                <time>2018-10-21T02:06:16Z</time>
            </trkpt>
            <trkpt lon="101.205919" lat="14.339661">
                <ele>96.800000</ele>
                <time>2018-10-21T02:06:18Z</time>
            </trkpt>
            <trkpt lon="101.205948" lat="14.339651">
                <ele>96.700000</ele>
                <time>2018-10-21T02:06:19Z</time>
            </trkpt>
            <trkpt lon="101.205997" lat="14.339622">
                <ele>96.700000</ele>
                <time>2018-10-21T02:06:21Z</time>
            </trkpt>
            <trkpt lon="101.206018" lat="14.339601">
                <ele>96.700000</ele>
                <time>2018-10-21T02:06:22Z</time>
            </trkpt>
            <trkpt lon="101.206038" lat="14.339580">
                <ele>96.600000</ele>
                <time>2018-10-21T02:06:23Z</time>
            </trkpt>
            <trkpt lon="101.206058" lat="14.339558">
                <ele>96.600000</ele>
                <time>2018-10-21T02:06:24Z</time>
            </trkpt>
            <trkpt lon="101.206079" lat="14.339535">
                <ele>96.600000</ele>
                <time>2018-10-21T02:06:25Z</time>
            </trkpt>
            <trkpt lon="101.206102" lat="14.339508">
                <ele>96.600000</ele>
                <time>2018-10-21T02:06:26Z</time>
            </trkpt>
            <trkpt lon="101.206125" lat="14.339482">
                <ele>96.600000</ele>
                <time>2018-10-21T02:06:27Z</time>
            </trkpt>
            <trkpt lon="101.206149" lat="14.339461">
                <ele>96.600000</ele>
                <time>2018-10-21T02:06:28Z</time>
            </trkpt>
            <trkpt lon="101.206170" lat="14.339439">
                <ele>96.600000</ele>
                <time>2018-10-21T02:06:29Z</time>
            </trkpt>
            <trkpt lon="101.206192" lat="14.339413">
                <ele>96.700000</ele>
                <time>2018-10-21T02:06:30Z</time>
            </trkpt>
            <trkpt lon="101.206214" lat="14.339385">
                <ele>96.700000</ele>
                <time>2018-10-21T02:06:31Z</time>
            </trkpt>
            <trkpt lon="101.206247" lat="14.339343">
                <ele>96.800000</ele>
                <time>2018-10-21T02:06:33Z</time>
            </trkpt>
            <trkpt lon="101.206279" lat="14.339298">
                <ele>97.000000</ele>
                <time>2018-10-21T02:06:35Z</time>
            </trkpt>
            <trkpt lon="101.206302" lat="14.339276">
                <ele>97.100000</ele>
                <time>2018-10-21T02:06:36Z</time>
            </trkpt>
            <trkpt lon="101.206323" lat="14.339255">
                <ele>97.200000</ele>
                <time>2018-10-21T02:06:37Z</time>
            </trkpt>
            <trkpt lon="101.206342" lat="14.339232">
                <ele>97.300000</ele>
                <time>2018-10-21T02:06:38Z</time>
            </trkpt>
            <trkpt lon="101.206358" lat="14.339204">
                <ele>97.400000</ele>
                <time>2018-10-21T02:06:39Z</time>
            </trkpt>
            <trkpt lon="101.206373" lat="14.339174">
                <ele>97.500000</ele>
                <time>2018-10-21T02:06:40Z</time>
            </trkpt>
            <trkpt lon="101.206390" lat="14.339144">
                <ele>97.600000</ele>
                <time>2018-10-21T02:06:41Z</time>
            </trkpt>
            <trkpt lon="101.206403" lat="14.339114">
                <ele>97.700000</ele>
                <time>2018-10-21T02:06:42Z</time>
            </trkpt>
            <trkpt lon="101.206411" lat="14.339086">
                <ele>97.800000</ele>
                <time>2018-10-21T02:06:43Z</time>
            </trkpt>
            <trkpt lon="101.206416" lat="14.339054">
                <ele>97.800000</ele>
                <time>2018-10-21T02:06:44Z</time>
            </trkpt>
            <trkpt lon="101.206421" lat="14.339023">
                <ele>97.900000</ele>
                <time>2018-10-21T02:06:45Z</time>
            </trkpt>
            <trkpt lon="101.206427" lat="14.338991">
                <ele>97.900000</ele>
                <time>2018-10-21T02:06:46Z</time>
            </trkpt>
            <trkpt lon="101.206431" lat="14.338957">
                <ele>98.000000</ele>
                <time>2018-10-21T02:06:47Z</time>
            </trkpt>
            <trkpt lon="101.206432" lat="14.338924">
                <ele>98.100000</ele>
                <time>2018-10-21T02:06:48Z</time>
            </trkpt>
            <trkpt lon="101.206430" lat="14.338885">
                <ele>98.100000</ele>
                <time>2018-10-21T02:06:49Z</time>
            </trkpt>
            <trkpt lon="101.206433" lat="14.338841">
                <ele>98.100000</ele>
                <time>2018-10-21T02:06:50Z</time>
            </trkpt>
            <trkpt lon="101.206442" lat="14.338803">
                <ele>98.200000</ele>
                <time>2018-10-21T02:06:51Z</time>
            </trkpt>
            <trkpt lon="101.206444" lat="14.338762">
                <ele>98.200000</ele>
                <time>2018-10-21T02:06:52Z</time>
            </trkpt>
            <trkpt lon="101.206441" lat="14.338721">
                <ele>98.200000</ele>
                <time>2018-10-21T02:06:53Z</time>
            </trkpt>
            <trkpt lon="101.206437" lat="14.338683">
                <ele>98.200000</ele>
                <time>2018-10-21T02:06:54Z</time>
            </trkpt>
            <trkpt lon="101.206433" lat="14.338649">
                <ele>98.200000</ele>
                <time>2018-10-21T02:06:55Z</time>
            </trkpt>
            <trkpt lon="101.206429" lat="14.338615">
                <ele>98.200000</ele>
                <time>2018-10-21T02:06:56Z</time>
            </trkpt>
            <trkpt lon="101.206426" lat="14.338581">
                <ele>98.200000</ele>
                <time>2018-10-21T02:06:57Z</time>
            </trkpt>
            <trkpt lon="101.206421" lat="14.338547">
                <ele>98.200000</ele>
                <time>2018-10-21T02:06:58Z</time>
            </trkpt>
            <trkpt lon="101.206424" lat="14.338512">
                <ele>98.200000</ele>
                <time>2018-10-21T02:06:59Z</time>
            </trkpt>
            <trkpt lon="101.206424" lat="14.338479">
                <ele>98.200000</ele>
                <time>2018-10-21T02:07:00Z</time>
            </trkpt>
            <trkpt lon="101.206420" lat="14.338449">
                <ele>98.200000</ele>
                <time>2018-10-21T02:07:01Z</time>
            </trkpt>
            <trkpt lon="101.206412" lat="14.338413">
                <ele>98.200000</ele>
                <time>2018-10-21T02:07:02Z</time>
            </trkpt>
            <trkpt lon="101.206404" lat="14.338380">
                <ele>98.300000</ele>
                <time>2018-10-21T02:07:03Z</time>
            </trkpt>
            <trkpt lon="101.206399" lat="14.338352">
                <ele>98.300000</ele>
                <time>2018-10-21T02:07:04Z</time>
            </trkpt>
            <trkpt lon="101.206396" lat="14.338321">
                <ele>98.300000</ele>
                <time>2018-10-21T02:07:05Z</time>
            </trkpt>
            <trkpt lon="101.206389" lat="14.338292">
                <ele>98.300000</ele>
                <time>2018-10-21T02:07:06Z</time>
            </trkpt>
            <trkpt lon="101.206385" lat="14.338263">
                <ele>98.300000</ele>
                <time>2018-10-21T02:07:07Z</time>
            </trkpt>
            <trkpt lon="101.206383" lat="14.338232">
                <ele>98.400000</ele>
                <time>2018-10-21T02:07:08Z</time>
            </trkpt>
            <trkpt lon="101.206378" lat="14.338199">
                <ele>98.400000</ele>
                <time>2018-10-21T02:07:09Z</time>
            </trkpt>
            <trkpt lon="101.206374" lat="14.338168">
                <ele>98.400000</ele>
                <time>2018-10-21T02:07:10Z</time>
            </trkpt>
            <trkpt lon="101.206369" lat="14.338137">
                <ele>98.500000</ele>
                <time>2018-10-21T02:07:11Z</time>
            </trkpt>
            <trkpt lon="101.206363" lat="14.338107">
                <ele>98.500000</ele>
                <time>2018-10-21T02:07:12Z</time>
            </trkpt>
            <trkpt lon="101.206361" lat="14.338075">
                <ele>98.500000</ele>
                <time>2018-10-21T02:07:13Z</time>
            </trkpt>
            <trkpt lon="101.206365" lat="14.338043">
                <ele>98.500000</ele>
                <time>2018-10-21T02:07:14Z</time>
            </trkpt>
            <trkpt lon="101.206369" lat="14.338011">
                <ele>98.500000</ele>
                <time>2018-10-21T02:07:15Z</time>
            </trkpt>
            <trkpt lon="101.206374" lat="14.337977">
                <ele>98.500000</ele>
                <time>2018-10-21T02:07:16Z</time>
            </trkpt>
            <trkpt lon="101.206382" lat="14.337944">
                <ele>98.500000</ele>
                <time>2018-10-21T02:07:17Z</time>
            </trkpt>
            <trkpt lon="101.206393" lat="14.337908">
                <ele>98.500000</ele>
                <time>2018-10-21T02:07:18Z</time>
            </trkpt>
            <trkpt lon="101.206406" lat="14.337875">
                <ele>98.500000</ele>
                <time>2018-10-21T02:07:19Z</time>
            </trkpt>
            <trkpt lon="101.206416" lat="14.337835">
                <ele>98.400000</ele>
                <time>2018-10-21T02:07:20Z</time>
            </trkpt>
            <trkpt lon="101.206422" lat="14.337798">
                <ele>98.400000</ele>
                <time>2018-10-21T02:07:21Z</time>
            </trkpt>
            <trkpt lon="101.206427" lat="14.337764">
                <ele>98.300000</ele>
                <time>2018-10-21T02:07:22Z</time>
            </trkpt>
            <trkpt lon="101.206434" lat="14.337725">
                <ele>98.300000</ele>
                <time>2018-10-21T02:07:23Z</time>
            </trkpt>
            <trkpt lon="101.206443" lat="14.337689">
                <ele>98.200000</ele>
                <time>2018-10-21T02:07:24Z</time>
            </trkpt>
            <trkpt lon="101.206454" lat="14.337656">
                <ele>98.200000</ele>
                <time>2018-10-21T02:07:25Z</time>
            </trkpt>
            <trkpt lon="101.206467" lat="14.337626">
                <ele>98.100000</ele>
                <time>2018-10-21T02:07:26Z</time>
            </trkpt>
            <trkpt lon="101.206481" lat="14.337595">
                <ele>98.100000</ele>
                <time>2018-10-21T02:07:27Z</time>
            </trkpt>
            <trkpt lon="101.206498" lat="14.337562">
                <ele>98.100000</ele>
                <time>2018-10-21T02:07:28Z</time>
            </trkpt>
            <trkpt lon="101.206516" lat="14.337530">
                <ele>98.000000</ele>
                <time>2018-10-21T02:07:29Z</time>
            </trkpt>
            <trkpt lon="101.206536" lat="14.337503">
                <ele>98.000000</ele>
                <time>2018-10-21T02:07:30Z</time>
            </trkpt>
            <trkpt lon="101.206562" lat="14.337478">
                <ele>98.000000</ele>
                <time>2018-10-21T02:07:31Z</time>
            </trkpt>
            <trkpt lon="101.206592" lat="14.337458">
                <ele>97.900000</ele>
                <time>2018-10-21T02:07:32Z</time>
            </trkpt>
            <trkpt lon="101.206620" lat="14.337434">
                <ele>98.000000</ele>
                <time>2018-10-21T02:07:33Z</time>
            </trkpt>
            <trkpt lon="101.206653" lat="14.337411">
                <ele>98.000000</ele>
                <time>2018-10-21T02:07:34Z</time>
            </trkpt>
            <trkpt lon="101.206682" lat="14.337392">
                <ele>98.000000</ele>
                <time>2018-10-21T02:07:35Z</time>
            </trkpt>
            <trkpt lon="101.206708" lat="14.337371">
                <ele>98.000000</ele>
                <time>2018-10-21T02:07:36Z</time>
            </trkpt>
            <trkpt lon="101.206733" lat="14.337348">
                <ele>98.100000</ele>
                <time>2018-10-21T02:07:37Z</time>
            </trkpt>
            <trkpt lon="101.206758" lat="14.337324">
                <ele>98.100000</ele>
                <time>2018-10-21T02:07:38Z</time>
            </trkpt>
            <trkpt lon="101.206782" lat="14.337299">
                <ele>98.200000</ele>
                <time>2018-10-21T02:07:39Z</time>
            </trkpt>
            <trkpt lon="101.206808" lat="14.337274">
                <ele>98.200000</ele>
                <time>2018-10-21T02:07:40Z</time>
            </trkpt>
            <trkpt lon="101.206834" lat="14.337253">
                <ele>98.300000</ele>
                <time>2018-10-21T02:07:41Z</time>
            </trkpt>
            <trkpt lon="101.206860" lat="14.337229">
                <ele>98.400000</ele>
                <time>2018-10-21T02:07:42Z</time>
            </trkpt>
            <trkpt lon="101.206889" lat="14.337211">
                <ele>98.400000</ele>
                <time>2018-10-21T02:07:43Z</time>
            </trkpt>
            <trkpt lon="101.206921" lat="14.337188">
                <ele>98.500000</ele>
                <time>2018-10-21T02:07:44Z</time>
            </trkpt>
            <trkpt lon="101.206950" lat="14.337169">
                <ele>98.600000</ele>
                <time>2018-10-21T02:07:45Z</time>
            </trkpt>
            <trkpt lon="101.206982" lat="14.337150">
                <ele>98.600000</ele>
                <time>2018-10-21T02:07:46Z</time>
            </trkpt>
            <trkpt lon="101.207013" lat="14.337131">
                <ele>98.600000</ele>
                <time>2018-10-21T02:07:47Z</time>
            </trkpt>
            <trkpt lon="101.207047" lat="14.337112">
                <ele>98.600000</ele>
                <time>2018-10-21T02:07:48Z</time>
            </trkpt>
            <trkpt lon="101.207080" lat="14.337093">
                <ele>98.600000</ele>
                <time>2018-10-21T02:07:49Z</time>
            </trkpt>
            <trkpt lon="101.207113" lat="14.337078">
                <ele>98.500000</ele>
                <time>2018-10-21T02:07:50Z</time>
            </trkpt>
            <trkpt lon="101.207151" lat="14.337059">
                <ele>98.400000</ele>
                <time>2018-10-21T02:07:51Z</time>
            </trkpt>
            <trkpt lon="101.207183" lat="14.337044">
                <ele>98.400000</ele>
                <time>2018-10-21T02:07:52Z</time>
            </trkpt>
            <trkpt lon="101.207218" lat="14.337032">
                <ele>98.300000</ele>
                <time>2018-10-21T02:07:53Z</time>
            </trkpt>
            <trkpt lon="101.207259" lat="14.337023">
                <ele>98.200000</ele>
                <time>2018-10-21T02:07:54Z</time>
            </trkpt>
            <trkpt lon="101.207297" lat="14.337012">
                <ele>98.100000</ele>
                <time>2018-10-21T02:07:55Z</time>
            </trkpt>
            <trkpt lon="101.207336" lat="14.336991">
                <ele>98.000000</ele>
                <time>2018-10-21T02:07:56Z</time>
            </trkpt>
            <trkpt lon="101.207375" lat="14.336972">
                <ele>97.900000</ele>
                <time>2018-10-21T02:07:57Z</time>
            </trkpt>
            <trkpt lon="101.207416" lat="14.336962">
                <ele>97.900000</ele>
                <time>2018-10-21T02:07:58Z</time>
            </trkpt>
            <trkpt lon="101.207455" lat="14.336957">
                <ele>97.800000</ele>
                <time>2018-10-21T02:07:59Z</time>
            </trkpt>
            <trkpt lon="101.207490" lat="14.336948">
                <ele>97.800000</ele>
                <time>2018-10-21T02:08:00Z</time>
            </trkpt>
            <trkpt lon="101.207527" lat="14.336941">
                <ele>97.800000</ele>
                <time>2018-10-21T02:08:01Z</time>
            </trkpt>
            <trkpt lon="101.207566" lat="14.336933">
                <ele>97.800000</ele>
                <time>2018-10-21T02:08:02Z</time>
            </trkpt>
            <trkpt lon="101.207607" lat="14.336924">
                <ele>97.700000</ele>
                <time>2018-10-21T02:08:03Z</time>
            </trkpt>
            <trkpt lon="101.207647" lat="14.336913">
                <ele>97.700000</ele>
                <time>2018-10-21T02:08:04Z</time>
            </trkpt>
            <trkpt lon="101.207687" lat="14.336893">
                <ele>97.700000</ele>
                <time>2018-10-21T02:08:05Z</time>
            </trkpt>
            <trkpt lon="101.207729" lat="14.336863">
                <ele>97.700000</ele>
                <time>2018-10-21T02:08:06Z</time>
            </trkpt>
            <trkpt lon="101.207773" lat="14.336832">
                <ele>97.600000</ele>
                <time>2018-10-21T02:08:07Z</time>
            </trkpt>
            <trkpt lon="101.207814" lat="14.336812">
                <ele>97.600000</ele>
                <time>2018-10-21T02:08:08Z</time>
            </trkpt>
            <trkpt lon="101.207853" lat="14.336789">
                <ele>97.500000</ele>
                <time>2018-10-21T02:08:09Z</time>
            </trkpt>
            <trkpt lon="101.207888" lat="14.336764">
                <ele>97.500000</ele>
                <time>2018-10-21T02:08:10Z</time>
            </trkpt>
            <trkpt lon="101.207920" lat="14.336740">
                <ele>97.400000</ele>
                <time>2018-10-21T02:08:11Z</time>
            </trkpt>
            <trkpt lon="101.207949" lat="14.336708">
                <ele>97.400000</ele>
                <time>2018-10-21T02:08:12Z</time>
            </trkpt>
            <trkpt lon="101.207975" lat="14.336682">
                <ele>97.300000</ele>
                <time>2018-10-21T02:08:13Z</time>
            </trkpt>
            <trkpt lon="101.208000" lat="14.336657">
                <ele>97.300000</ele>
                <time>2018-10-21T02:08:14Z</time>
            </trkpt>
            <trkpt lon="101.208021" lat="14.336635">
                <ele>97.300000</ele>
                <time>2018-10-21T02:08:15Z</time>
            </trkpt>
            <trkpt lon="101.208042" lat="14.336616">
                <ele>97.300000</ele>
                <time>2018-10-21T02:08:16Z</time>
            </trkpt>
            <trkpt lon="101.208081" lat="14.336588">
                <ele>97.400000</ele>
                <time>2018-10-21T02:08:18Z</time>
            </trkpt>
            <trkpt lon="101.208106" lat="14.336573">
                <ele>97.400000</ele>
                <time>2018-10-21T02:08:19Z</time>
            </trkpt>
            <trkpt lon="101.208133" lat="14.336558">
                <ele>97.400000</ele>
                <time>2018-10-21T02:08:20Z</time>
            </trkpt>
            <trkpt lon="101.208160" lat="14.336545">
                <ele>97.400000</ele>
                <time>2018-10-21T02:08:21Z</time>
            </trkpt>
            <trkpt lon="101.208212" lat="14.336531">
                <ele>97.500000</ele>
                <time>2018-10-21T02:08:23Z</time>
            </trkpt>
            <trkpt lon="101.208245" lat="14.336529">
                <ele>97.600000</ele>
                <time>2018-10-21T02:08:24Z</time>
            </trkpt>
            <trkpt lon="101.208275" lat="14.336530">
                <ele>97.700000</ele>
                <time>2018-10-21T02:08:25Z</time>
            </trkpt>
            <trkpt lon="101.208308" lat="14.336536">
                <ele>97.800000</ele>
                <time>2018-10-21T02:08:26Z</time>
            </trkpt>
            <trkpt lon="101.208340" lat="14.336550">
                <ele>97.900000</ele>
                <time>2018-10-21T02:08:27Z</time>
            </trkpt>
            <trkpt lon="101.208371" lat="14.336563">
                <ele>98.100000</ele>
                <time>2018-10-21T02:08:28Z</time>
            </trkpt>
            <trkpt lon="101.208406" lat="14.336578">
                <ele>98.200000</ele>
                <time>2018-10-21T02:08:29Z</time>
            </trkpt>
            <trkpt lon="101.208444" lat="14.336593">
                <ele>98.300000</ele>
                <time>2018-10-21T02:08:30Z</time>
            </trkpt>
            <trkpt lon="101.208485" lat="14.336607">
                <ele>98.400000</ele>
                <time>2018-10-21T02:08:31Z</time>
            </trkpt>
            <trkpt lon="101.208529" lat="14.336620">
                <ele>98.500000</ele>
                <time>2018-10-21T02:08:32Z</time>
            </trkpt>
            <trkpt lon="101.208570" lat="14.336635">
                <ele>98.500000</ele>
                <time>2018-10-21T02:08:33Z</time>
            </trkpt>
            <trkpt lon="101.208612" lat="14.336649">
                <ele>98.500000</ele>
                <time>2018-10-21T02:08:34Z</time>
            </trkpt>
            <trkpt lon="101.208657" lat="14.336668">
                <ele>98.500000</ele>
                <time>2018-10-21T02:08:35Z</time>
            </trkpt>
            <trkpt lon="101.208700" lat="14.336690">
                <ele>98.400000</ele>
                <time>2018-10-21T02:08:36Z</time>
            </trkpt>
            <trkpt lon="101.208741" lat="14.336716">
                <ele>98.400000</ele>
                <time>2018-10-21T02:08:37Z</time>
            </trkpt>
            <trkpt lon="101.208781" lat="14.336733">
                <ele>98.400000</ele>
                <time>2018-10-21T02:08:38Z</time>
            </trkpt>
            <trkpt lon="101.208820" lat="14.336742">
                <ele>98.300000</ele>
                <time>2018-10-21T02:08:39Z</time>
            </trkpt>
            <trkpt lon="101.208858" lat="14.336749">
                <ele>98.200000</ele>
                <time>2018-10-21T02:08:40Z</time>
            </trkpt>
            <trkpt lon="101.208890" lat="14.336757">
                <ele>98.200000</ele>
                <time>2018-10-21T02:08:41Z</time>
            </trkpt>
            <trkpt lon="101.208921" lat="14.336764">
                <ele>98.100000</ele>
                <time>2018-10-21T02:08:42Z</time>
            </trkpt>
            <trkpt lon="101.208949" lat="14.336769">
                <ele>98.000000</ele>
                <time>2018-10-21T02:08:43Z</time>
            </trkpt>
            <trkpt lon="101.208996" lat="14.336780">
                <ele>97.900000</ele>
                <time>2018-10-21T02:08:45Z</time>
            </trkpt>
            <trkpt lon="101.209025" lat="14.336786">
                <ele>97.900000</ele>
                <time>2018-10-21T02:08:46Z</time>
            </trkpt>
            <trkpt lon="101.209060" lat="14.336790">
                <ele>97.800000</ele>
                <time>2018-10-21T02:08:47Z</time>
            </trkpt>
            <trkpt lon="101.209095" lat="14.336792">
                <ele>97.700000</ele>
                <time>2018-10-21T02:08:48Z</time>
            </trkpt>
            <trkpt lon="101.209131" lat="14.336793">
                <ele>97.600000</ele>
                <time>2018-10-21T02:08:49Z</time>
            </trkpt>
            <trkpt lon="101.209160" lat="14.336790">
                <ele>97.500000</ele>
                <time>2018-10-21T02:08:50Z</time>
            </trkpt>
            <trkpt lon="101.209215" lat="14.336784">
                <ele>97.500000</ele>
                <time>2018-10-21T02:08:52Z</time>
            </trkpt>
            <trkpt lon="101.209270" lat="14.336778">
                <ele>97.400000</ele>
                <time>2018-10-21T02:08:54Z</time>
            </trkpt>
            <trkpt lon="101.209299" lat="14.336773">
                <ele>97.400000</ele>
                <time>2018-10-21T02:08:55Z</time>
            </trkpt>
            <trkpt lon="101.209327" lat="14.336768">
                <ele>97.400000</ele>
                <time>2018-10-21T02:08:56Z</time>
            </trkpt>
            <trkpt lon="101.209355" lat="14.336759">
                <ele>97.400000</ele>
                <time>2018-10-21T02:08:57Z</time>
            </trkpt>
            <trkpt lon="101.209407" lat="14.336740">
                <ele>97.400000</ele>
                <time>2018-10-21T02:08:59Z</time>
            </trkpt>
            <trkpt lon="101.209434" lat="14.336730">
                <ele>97.400000</ele>
                <time>2018-10-21T02:09:00Z</time>
            </trkpt>
            <trkpt lon="101.209462" lat="14.336720">
                <ele>97.400000</ele>
                <time>2018-10-21T02:09:01Z</time>
            </trkpt>
            <trkpt lon="101.209509" lat="14.336707">
                <ele>97.400000</ele>
                <time>2018-10-21T02:09:03Z</time>
            </trkpt>
            <trkpt lon="101.209535" lat="14.336697">
                <ele>97.400000</ele>
                <time>2018-10-21T02:09:04Z</time>
            </trkpt>
            <trkpt lon="101.209564" lat="14.336683">
                <ele>97.500000</ele>
                <time>2018-10-21T02:09:05Z</time>
            </trkpt>
            <trkpt lon="101.209594" lat="14.336670">
                <ele>97.500000</ele>
                <time>2018-10-21T02:09:06Z</time>
            </trkpt>
            <trkpt lon="101.209625" lat="14.336657">
                <ele>97.600000</ele>
                <time>2018-10-21T02:09:07Z</time>
            </trkpt>
            <trkpt lon="101.209660" lat="14.336643">
                <ele>97.600000</ele>
                <time>2018-10-21T02:09:08Z</time>
            </trkpt>
            <trkpt lon="101.209695" lat="14.336622">
                <ele>97.700000</ele>
                <time>2018-10-21T02:09:09Z</time>
            </trkpt>
            <trkpt lon="101.209731" lat="14.336595">
                <ele>97.800000</ele>
                <time>2018-10-21T02:09:10Z</time>
            </trkpt>
            <trkpt lon="101.209762" lat="14.336566">
                <ele>97.900000</ele>
                <time>2018-10-21T02:09:11Z</time>
            </trkpt>
            <trkpt lon="101.209790" lat="14.336532">
                <ele>98.000000</ele>
                <time>2018-10-21T02:09:12Z</time>
            </trkpt>
            <trkpt lon="101.209817" lat="14.336502">
                <ele>98.000000</ele>
                <time>2018-10-21T02:09:13Z</time>
            </trkpt>
            <trkpt lon="101.209842" lat="14.336470">
                <ele>98.000000</ele>
                <time>2018-10-21T02:09:14Z</time>
            </trkpt>
            <trkpt lon="101.209859" lat="14.336446">
                <ele>98.000000</ele>
                <time>2018-10-21T02:09:15Z</time>
            </trkpt>
            <trkpt lon="101.209880" lat="14.336405">
                <ele>98.000000</ele>
                <time>2018-10-21T02:09:17Z</time>
            </trkpt>
            <trkpt lon="101.209881" lat="14.336342">
                <ele>98.000000</ele>
                <time>2018-10-21T02:09:19Z</time>
            </trkpt>
            <trkpt lon="101.209873" lat="14.336305">
                <ele>98.000000</ele>
                <time>2018-10-21T02:09:20Z</time>
            </trkpt>
            <trkpt lon="101.209867" lat="14.336265">
                <ele>98.000000</ele>
                <time>2018-10-21T02:09:21Z</time>
            </trkpt>
            <trkpt lon="101.209861" lat="14.336225">
                <ele>97.900000</ele>
                <time>2018-10-21T02:09:22Z</time>
            </trkpt>
            <trkpt lon="101.209852" lat="14.336185">
                <ele>97.900000</ele>
                <time>2018-10-21T02:09:23Z</time>
            </trkpt>
            <trkpt lon="101.209833" lat="14.336154">
                <ele>98.500000</ele>
                <time>2018-10-21T02:09:24Z</time>
            </trkpt>
            <trkpt lon="101.209814" lat="14.336127">
                <ele>98.800000</ele>
                <time>2018-10-21T02:09:25Z</time>
            </trkpt>
            <trkpt lon="101.209792" lat="14.336094">
                <ele>99.000000</ele>
                <time>2018-10-21T02:09:26Z</time>
            </trkpt>
            <trkpt lon="101.209772" lat="14.336060">
                <ele>99.200000</ele>
                <time>2018-10-21T02:09:27Z</time>
            </trkpt>
            <trkpt lon="101.209749" lat="14.336029">
                <ele>99.400000</ele>
                <time>2018-10-21T02:09:28Z</time>
            </trkpt>
            <trkpt lon="101.209724" lat="14.336000">
                <ele>99.500000</ele>
                <time>2018-10-21T02:09:29Z</time>
            </trkpt>
            <trkpt lon="101.209700" lat="14.335978">
                <ele>99.500000</ele>
                <time>2018-10-21T02:09:30Z</time>
            </trkpt>
            <trkpt lon="101.209671" lat="14.335957">
                <ele>99.500000</ele>
                <time>2018-10-21T02:09:31Z</time>
            </trkpt>
            <trkpt lon="101.209640" lat="14.335932">
                <ele>99.500000</ele>
                <time>2018-10-21T02:09:32Z</time>
            </trkpt>
            <trkpt lon="101.209606" lat="14.335910">
                <ele>99.400000</ele>
                <time>2018-10-21T02:09:33Z</time>
            </trkpt>
            <trkpt lon="101.209574" lat="14.335884">
                <ele>99.400000</ele>
                <time>2018-10-21T02:09:34Z</time>
            </trkpt>
            <trkpt lon="101.209541" lat="14.335860">
                <ele>99.300000</ele>
                <time>2018-10-21T02:09:35Z</time>
            </trkpt>
            <trkpt lon="101.209509" lat="14.335834">
                <ele>99.300000</ele>
                <time>2018-10-21T02:09:36Z</time>
            </trkpt>
            <trkpt lon="101.209479" lat="14.335807">
                <ele>99.200000</ele>
                <time>2018-10-21T02:09:37Z</time>
            </trkpt>
            <trkpt lon="101.209447" lat="14.335771">
                <ele>99.100000</ele>
                <time>2018-10-21T02:09:38Z</time>
            </trkpt>
            <trkpt lon="101.209414" lat="14.335729">
                <ele>98.900000</ele>
                <time>2018-10-21T02:09:39Z</time>
            </trkpt>
            <trkpt lon="101.209385" lat="14.335683">
                <ele>98.700000</ele>
                <time>2018-10-21T02:09:40Z</time>
            </trkpt>
            <trkpt lon="101.209350" lat="14.335639">
                <ele>98.500000</ele>
                <time>2018-10-21T02:09:41Z</time>
            </trkpt>
            <trkpt lon="101.209312" lat="14.335597">
                <ele>98.400000</ele>
                <time>2018-10-21T02:09:42Z</time>
            </trkpt>
            <trkpt lon="101.209272" lat="14.335552">
                <ele>98.300000</ele>
                <time>2018-10-21T02:09:43Z</time>
            </trkpt>
            <trkpt lon="101.209237" lat="14.335513">
                <ele>98.200000</ele>
                <time>2018-10-21T02:09:44Z</time>
            </trkpt>
            <trkpt lon="101.209191" lat="14.335467">
                <ele>98.200000</ele>
                <time>2018-10-21T02:09:45Z</time>
            </trkpt>
            <trkpt lon="101.209150" lat="14.335412">
                <ele>98.200000</ele>
                <time>2018-10-21T02:09:46Z</time>
            </trkpt>
            <trkpt lon="101.209116" lat="14.335361">
                <ele>98.200000</ele>
                <time>2018-10-21T02:09:47Z</time>
            </trkpt>
            <trkpt lon="101.209074" lat="14.335312">
                <ele>98.300000</ele>
                <time>2018-10-21T02:09:48Z</time>
            </trkpt>
            <trkpt lon="101.209038" lat="14.335264">
                <ele>98.500000</ele>
                <time>2018-10-21T02:09:49Z</time>
            </trkpt>
            <trkpt lon="101.209001" lat="14.335218">
                <ele>98.800000</ele>
                <time>2018-10-21T02:09:50Z</time>
            </trkpt>
            <trkpt lon="101.208967" lat="14.335176">
                <ele>99.000000</ele>
                <time>2018-10-21T02:09:51Z</time>
            </trkpt>
            <trkpt lon="101.208933" lat="14.335137">
                <ele>99.200000</ele>
                <time>2018-10-21T02:09:52Z</time>
            </trkpt>
            <trkpt lon="101.208902" lat="14.335105">
                <ele>99.400000</ele>
                <time>2018-10-21T02:09:53Z</time>
            </trkpt>
            <trkpt lon="101.208875" lat="14.335078">
                <ele>99.500000</ele>
                <time>2018-10-21T02:09:54Z</time>
            </trkpt>
            <trkpt lon="101.208850" lat="14.335046">
                <ele>99.700000</ele>
                <time>2018-10-21T02:09:55Z</time>
            </trkpt>
            <trkpt lon="101.208829" lat="14.335016">
                <ele>99.800000</ele>
                <time>2018-10-21T02:09:56Z</time>
            </trkpt>
            <trkpt lon="101.208807" lat="14.334979">
                <ele>99.900000</ele>
                <time>2018-10-21T02:09:57Z</time>
            </trkpt>
            <trkpt lon="101.208787" lat="14.334946">
                <ele>100.000000</ele>
                <time>2018-10-21T02:09:58Z</time>
            </trkpt>
            <trkpt lon="101.208766" lat="14.334915">
                <ele>100.100000</ele>
                <time>2018-10-21T02:09:59Z</time>
            </trkpt>
            <trkpt lon="101.208746" lat="14.334884">
                <ele>100.100000</ele>
                <time>2018-10-21T02:10:00Z</time>
            </trkpt>
            <trkpt lon="101.208721" lat="14.334852">
                <ele>100.100000</ele>
                <time>2018-10-21T02:10:01Z</time>
            </trkpt>
            <trkpt lon="101.208697" lat="14.334819">
                <ele>100.100000</ele>
                <time>2018-10-21T02:10:02Z</time>
            </trkpt>
            <trkpt lon="101.208670" lat="14.334784">
                <ele>100.100000</ele>
                <time>2018-10-21T02:10:03Z</time>
            </trkpt>
            <trkpt lon="101.208646" lat="14.334746">
                <ele>100.100000</ele>
                <time>2018-10-21T02:10:04Z</time>
            </trkpt>
            <trkpt lon="101.208619" lat="14.334705">
                <ele>100.000000</ele>
                <time>2018-10-21T02:10:05Z</time>
            </trkpt>
            <trkpt lon="101.208594" lat="14.334665">
                <ele>100.000000</ele>
                <time>2018-10-21T02:10:06Z</time>
            </trkpt>
            <trkpt lon="101.208569" lat="14.334630">
                <ele>99.900000</ele>
                <time>2018-10-21T02:10:07Z</time>
            </trkpt>
            <trkpt lon="101.208539" lat="14.334595">
                <ele>99.900000</ele>
                <time>2018-10-21T02:10:08Z</time>
            </trkpt>
            <trkpt lon="101.208507" lat="14.334558">
                <ele>99.800000</ele>
                <time>2018-10-21T02:10:09Z</time>
            </trkpt>
            <trkpt lon="101.208473" lat="14.334512">
                <ele>99.700000</ele>
                <time>2018-10-21T02:10:10Z</time>
            </trkpt>
            <trkpt lon="101.208449" lat="14.334464">
                <ele>99.600000</ele>
                <time>2018-10-21T02:10:11Z</time>
            </trkpt>
            <trkpt lon="101.208420" lat="14.334419">
                <ele>99.500000</ele>
                <time>2018-10-21T02:10:12Z</time>
            </trkpt>
            <trkpt lon="101.208395" lat="14.334379">
                <ele>99.400000</ele>
                <time>2018-10-21T02:10:13Z</time>
            </trkpt>
            <trkpt lon="101.208367" lat="14.334335">
                <ele>99.200000</ele>
                <time>2018-10-21T02:10:14Z</time>
            </trkpt>
            <trkpt lon="101.208340" lat="14.334282">
                <ele>99.100000</ele>
                <time>2018-10-21T02:10:15Z</time>
            </trkpt>
            <trkpt lon="101.208313" lat="14.334234">
                <ele>98.900000</ele>
                <time>2018-10-21T02:10:16Z</time>
            </trkpt>
            <trkpt lon="101.208281" lat="14.334190">
                <ele>98.800000</ele>
                <time>2018-10-21T02:10:17Z</time>
            </trkpt>
            <trkpt lon="101.208247" lat="14.334145">
                <ele>98.600000</ele>
                <time>2018-10-21T02:10:18Z</time>
            </trkpt>
            <trkpt lon="101.208211" lat="14.334096">
                <ele>98.600000</ele>
                <time>2018-10-21T02:10:19Z</time>
            </trkpt>
            <trkpt lon="101.208170" lat="14.334043">
                <ele>98.500000</ele>
                <time>2018-10-21T02:10:20Z</time>
            </trkpt>
            <trkpt lon="101.208128" lat="14.333993">
                <ele>98.500000</ele>
                <time>2018-10-21T02:10:21Z</time>
            </trkpt>
            <trkpt lon="101.208085" lat="14.333943">
                <ele>98.500000</ele>
                <time>2018-10-21T02:10:22Z</time>
            </trkpt>
            <trkpt lon="101.208043" lat="14.333906">
                <ele>98.600000</ele>
                <time>2018-10-21T02:10:23Z</time>
            </trkpt>
            <trkpt lon="101.208003" lat="14.333873">
                <ele>98.600000</ele>
                <time>2018-10-21T02:10:24Z</time>
            </trkpt>
            <trkpt lon="101.207967" lat="14.333838">
                <ele>98.700000</ele>
                <time>2018-10-21T02:10:25Z</time>
            </trkpt>
            <trkpt lon="101.207926" lat="14.333804">
                <ele>98.800000</ele>
                <time>2018-10-21T02:10:26Z</time>
            </trkpt>
            <trkpt lon="101.207882" lat="14.333766">
                <ele>98.800000</ele>
                <time>2018-10-21T02:10:27Z</time>
            </trkpt>
            <trkpt lon="101.207840" lat="14.333726">
                <ele>98.900000</ele>
                <time>2018-10-21T02:10:28Z</time>
            </trkpt>
            <trkpt lon="101.207800" lat="14.333696">
                <ele>98.900000</ele>
                <time>2018-10-21T02:10:29Z</time>
            </trkpt>
            <trkpt lon="101.207763" lat="14.333666">
                <ele>99.000000</ele>
                <time>2018-10-21T02:10:30Z</time>
            </trkpt>
            <trkpt lon="101.207726" lat="14.333632">
                <ele>99.100000</ele>
                <time>2018-10-21T02:10:31Z</time>
            </trkpt>
            <trkpt lon="101.207687" lat="14.333591">
                <ele>99.200000</ele>
                <time>2018-10-21T02:10:32Z</time>
            </trkpt>
            <trkpt lon="101.207644" lat="14.333545">
                <ele>99.400000</ele>
                <time>2018-10-21T02:10:33Z</time>
            </trkpt>
            <trkpt lon="101.207606" lat="14.333499">
                <ele>99.500000</ele>
                <time>2018-10-21T02:10:34Z</time>
            </trkpt>
            <trkpt lon="101.207577" lat="14.333449">
                <ele>99.700000</ele>
                <time>2018-10-21T02:10:35Z</time>
            </trkpt>
            <trkpt lon="101.207553" lat="14.333401">
                <ele>99.900000</ele>
                <time>2018-10-21T02:10:36Z</time>
            </trkpt>
            <trkpt lon="101.207533" lat="14.333351">
                <ele>100.100000</ele>
                <time>2018-10-21T02:10:37Z</time>
            </trkpt>
            <trkpt lon="101.207519" lat="14.333303">
                <ele>100.300000</ele>
                <time>2018-10-21T02:10:38Z</time>
            </trkpt>
            <trkpt lon="101.207503" lat="14.333257">
                <ele>100.600000</ele>
                <time>2018-10-21T02:10:39Z</time>
            </trkpt>
            <trkpt lon="101.207492" lat="14.333221">
                <ele>100.900000</ele>
                <time>2018-10-21T02:10:40Z</time>
            </trkpt>
            <trkpt lon="101.207483" lat="14.333187">
                <ele>101.200000</ele>
                <time>2018-10-21T02:10:41Z</time>
            </trkpt>
            <trkpt lon="101.207474" lat="14.333156">
                <ele>101.400000</ele>
                <time>2018-10-21T02:10:42Z</time>
            </trkpt>
            <trkpt lon="101.207464" lat="14.333124">
                <ele>101.600000</ele>
                <time>2018-10-21T02:10:43Z</time>
            </trkpt>
            <trkpt lon="101.207451" lat="14.333091">
                <ele>101.800000</ele>
                <time>2018-10-21T02:10:44Z</time>
            </trkpt>
            <trkpt lon="101.207436" lat="14.333059">
                <ele>102.000000</ele>
                <time>2018-10-21T02:10:45Z</time>
            </trkpt>
            <trkpt lon="101.207419" lat="14.333016">
                <ele>102.100000</ele>
                <time>2018-10-21T02:10:46Z</time>
            </trkpt>
            <trkpt lon="101.207401" lat="14.332971">
                <ele>102.200000</ele>
                <time>2018-10-21T02:10:47Z</time>
            </trkpt>
            <trkpt lon="101.207373" lat="14.332927">
                <ele>102.300000</ele>
                <time>2018-10-21T02:10:48Z</time>
            </trkpt>
            <trkpt lon="101.207345" lat="14.332892">
                <ele>102.300000</ele>
                <time>2018-10-21T02:10:49Z</time>
            </trkpt>
            <trkpt lon="101.207321" lat="14.332860">
                <ele>102.300000</ele>
                <time>2018-10-21T02:10:50Z</time>
            </trkpt>
            <trkpt lon="101.207295" lat="14.332832">
                <ele>102.300000</ele>
                <time>2018-10-21T02:10:51Z</time>
            </trkpt>
            <trkpt lon="101.207273" lat="14.332798">
                <ele>102.300000</ele>
                <time>2018-10-21T02:10:52Z</time>
            </trkpt>
            <trkpt lon="101.207249" lat="14.332766">
                <ele>102.100000</ele>
                <time>2018-10-21T02:10:53Z</time>
            </trkpt>
            <trkpt lon="101.207220" lat="14.332734">
                <ele>102.000000</ele>
                <time>2018-10-21T02:10:54Z</time>
            </trkpt>
            <trkpt lon="101.207189" lat="14.332700">
                <ele>101.700000</ele>
                <time>2018-10-21T02:10:55Z</time>
            </trkpt>
            <trkpt lon="101.207159" lat="14.332669">
                <ele>101.400000</ele>
                <time>2018-10-21T02:10:56Z</time>
            </trkpt>
            <trkpt lon="101.207134" lat="14.332623">
                <ele>101.100000</ele>
                <time>2018-10-21T02:10:57Z</time>
            </trkpt>
            <trkpt lon="101.207112" lat="14.332569">
                <ele>100.700000</ele>
                <time>2018-10-21T02:10:58Z</time>
            </trkpt>
            <trkpt lon="101.207099" lat="14.332506">
                <ele>100.100000</ele>
                <time>2018-10-21T02:10:59Z</time>
            </trkpt>
            <trkpt lon="101.207088" lat="14.332433">
                <ele>99.600000</ele>
                <time>2018-10-21T02:11:00Z</time>
            </trkpt>
            <trkpt lon="101.207076" lat="14.332358">
                <ele>99.100000</ele>
                <time>2018-10-21T02:11:01Z</time>
            </trkpt>
            <trkpt lon="101.207058" lat="14.332281">
                <ele>98.800000</ele>
                <time>2018-10-21T02:11:02Z</time>
            </trkpt>
            <trkpt lon="101.207026" lat="14.332212">
                <ele>98.800000</ele>
                <time>2018-10-21T02:11:03Z</time>
            </trkpt>
            <trkpt lon="101.206979" lat="14.332160">
                <ele>98.700000</ele>
                <time>2018-10-21T02:11:04Z</time>
            </trkpt>
            <trkpt lon="101.206919" lat="14.332120">
                <ele>98.700000</ele>
                <time>2018-10-21T02:11:05Z</time>
            </trkpt>
            <trkpt lon="101.206862" lat="14.332086">
                <ele>98.700000</ele>
                <time>2018-10-21T02:11:06Z</time>
            </trkpt>
            <trkpt lon="101.206811" lat="14.332052">
                <ele>98.700000</ele>
                <time>2018-10-21T02:11:07Z</time>
            </trkpt>
            <trkpt lon="101.206773" lat="14.332009">
                <ele>98.700000</ele>
                <time>2018-10-21T02:11:08Z</time>
            </trkpt>
            <trkpt lon="101.206746" lat="14.331957">
                <ele>98.800000</ele>
                <time>2018-10-21T02:11:09Z</time>
            </trkpt>
            <trkpt lon="101.206731" lat="14.331902">
                <ele>98.800000</ele>
                <time>2018-10-21T02:11:10Z</time>
            </trkpt>
            <trkpt lon="101.206727" lat="14.331843">
                <ele>98.800000</ele>
                <time>2018-10-21T02:11:11Z</time>
            </trkpt>
            <trkpt lon="101.206730" lat="14.331783">
                <ele>98.800000</ele>
                <time>2018-10-21T02:11:12Z</time>
            </trkpt>
            <trkpt lon="101.206734" lat="14.331729">
                <ele>98.800000</ele>
                <time>2018-10-21T02:11:13Z</time>
            </trkpt>
            <trkpt lon="101.206735" lat="14.331674">
                <ele>98.800000</ele>
                <time>2018-10-21T02:11:14Z</time>
            </trkpt>
            <trkpt lon="101.206732" lat="14.331616">
                <ele>98.800000</ele>
                <time>2018-10-21T02:11:15Z</time>
            </trkpt>
            <trkpt lon="101.206722" lat="14.331560">
                <ele>98.700000</ele>
                <time>2018-10-21T02:11:16Z</time>
            </trkpt>
            <trkpt lon="101.206702" lat="14.331507">
                <ele>98.700000</ele>
                <time>2018-10-21T02:11:17Z</time>
            </trkpt>
            <trkpt lon="101.206671" lat="14.331464">
                <ele>98.700000</ele>
                <time>2018-10-21T02:11:18Z</time>
            </trkpt>
            <trkpt lon="101.206630" lat="14.331425">
                <ele>98.700000</ele>
                <time>2018-10-21T02:11:19Z</time>
            </trkpt>
            <trkpt lon="101.206578" lat="14.331395">
                <ele>98.700000</ele>
                <time>2018-10-21T02:11:20Z</time>
            </trkpt>
            <trkpt lon="101.206521" lat="14.331378">
                <ele>98.800000</ele>
                <time>2018-10-21T02:11:21Z</time>
            </trkpt>
            <trkpt lon="101.206464" lat="14.331381">
                <ele>98.900000</ele>
                <time>2018-10-21T02:11:22Z</time>
            </trkpt>
            <trkpt lon="101.206408" lat="14.331394">
                <ele>99.000000</ele>
                <time>2018-10-21T02:11:23Z</time>
            </trkpt>
            <trkpt lon="101.206361" lat="14.331420">
                <ele>99.100000</ele>
                <time>2018-10-21T02:11:24Z</time>
            </trkpt>
            <trkpt lon="101.206321" lat="14.331447">
                <ele>99.300000</ele>
                <time>2018-10-21T02:11:25Z</time>
            </trkpt>
            <trkpt lon="101.206284" lat="14.331473">
                <ele>99.400000</ele>
                <time>2018-10-21T02:11:26Z</time>
            </trkpt>
            <trkpt lon="101.206247" lat="14.331497">
                <ele>99.600000</ele>
                <time>2018-10-21T02:11:27Z</time>
            </trkpt>
            <trkpt lon="101.206209" lat="14.331526">
                <ele>99.700000</ele>
                <time>2018-10-21T02:11:28Z</time>
            </trkpt>
            <trkpt lon="101.206170" lat="14.331553">
                <ele>99.800000</ele>
                <time>2018-10-21T02:11:29Z</time>
            </trkpt>
            <trkpt lon="101.206133" lat="14.331582">
                <ele>99.900000</ele>
                <time>2018-10-21T02:11:30Z</time>
            </trkpt>
            <trkpt lon="101.206094" lat="14.331607">
                <ele>100.000000</ele>
                <time>2018-10-21T02:11:31Z</time>
            </trkpt>
            <trkpt lon="101.206059" lat="14.331630">
                <ele>100.000000</ele>
                <time>2018-10-21T02:11:32Z</time>
            </trkpt>
            <trkpt lon="101.206019" lat="14.331639">
                <ele>100.000000</ele>
                <time>2018-10-21T02:11:33Z</time>
            </trkpt>
            <trkpt lon="101.205977" lat="14.331653">
                <ele>99.900000</ele>
                <time>2018-10-21T02:11:34Z</time>
            </trkpt>
            <trkpt lon="101.205927" lat="14.331668">
                <ele>99.900000</ele>
                <time>2018-10-21T02:11:35Z</time>
            </trkpt>
            <trkpt lon="101.205879" lat="14.331673">
                <ele>99.900000</ele>
                <time>2018-10-21T02:11:36Z</time>
            </trkpt>
            <trkpt lon="101.205830" lat="14.331672">
                <ele>99.900000</ele>
                <time>2018-10-21T02:11:37Z</time>
            </trkpt>
            <trkpt lon="101.205788" lat="14.331665">
                <ele>99.800000</ele>
                <time>2018-10-21T02:11:38Z</time>
            </trkpt>
            <trkpt lon="101.205745" lat="14.331655">
                <ele>99.800000</ele>
                <time>2018-10-21T02:11:39Z</time>
            </trkpt>
            <trkpt lon="101.205703" lat="14.331643">
                <ele>99.600000</ele>
                <time>2018-10-21T02:11:40Z</time>
            </trkpt>
            <trkpt lon="101.205656" lat="14.331632">
                <ele>99.500000</ele>
                <time>2018-10-21T02:11:41Z</time>
            </trkpt>
            <trkpt lon="101.205607" lat="14.331614">
                <ele>99.300000</ele>
                <time>2018-10-21T02:11:42Z</time>
            </trkpt>
            <trkpt lon="101.205559" lat="14.331599">
                <ele>99.100000</ele>
                <time>2018-10-21T02:11:43Z</time>
            </trkpt>
            <trkpt lon="101.205513" lat="14.331586">
                <ele>98.800000</ele>
                <time>2018-10-21T02:11:44Z</time>
            </trkpt>
            <trkpt lon="101.205466" lat="14.331569">
                <ele>98.400000</ele>
                <time>2018-10-21T02:11:45Z</time>
            </trkpt>
            <trkpt lon="101.205419" lat="14.331552">
                <ele>98.000000</ele>
                <time>2018-10-21T02:11:46Z</time>
            </trkpt>
            <trkpt lon="101.205372" lat="14.331532">
                <ele>97.600000</ele>
                <time>2018-10-21T02:11:47Z</time>
            </trkpt>
            <trkpt lon="101.205325" lat="14.331510">
                <ele>97.200000</ele>
                <time>2018-10-21T02:11:48Z</time>
            </trkpt>
            <trkpt lon="101.205274" lat="14.331480">
                <ele>96.800000</ele>
                <time>2018-10-21T02:11:49Z</time>
            </trkpt>
            <trkpt lon="101.205220" lat="14.331439">
                <ele>96.500000</ele>
                <time>2018-10-21T02:11:50Z</time>
            </trkpt>
            <trkpt lon="101.205163" lat="14.331393">
                <ele>96.200000</ele>
                <time>2018-10-21T02:11:51Z</time>
            </trkpt>
            <trkpt lon="101.205103" lat="14.331346">
                <ele>96.000000</ele>
                <time>2018-10-21T02:11:52Z</time>
            </trkpt>
            <trkpt lon="101.205038" lat="14.331307">
                <ele>95.800000</ele>
                <time>2018-10-21T02:11:53Z</time>
            </trkpt>
            <trkpt lon="101.204976" lat="14.331266">
                <ele>95.500000</ele>
                <time>2018-10-21T02:11:54Z</time>
            </trkpt>
            <trkpt lon="101.204915" lat="14.331232">
                <ele>95.300000</ele>
                <time>2018-10-21T02:11:55Z</time>
            </trkpt>
            <trkpt lon="101.204853" lat="14.331210">
                <ele>95.100000</ele>
                <time>2018-10-21T02:11:56Z</time>
            </trkpt>
            <trkpt lon="101.204788" lat="14.331190">
                <ele>94.900000</ele>
                <time>2018-10-21T02:11:57Z</time>
            </trkpt>
            <trkpt lon="101.204725" lat="14.331174">
                <ele>94.700000</ele>
                <time>2018-10-21T02:11:58Z</time>
            </trkpt>
            <trkpt lon="101.204667" lat="14.331159">
                <ele>94.600000</ele>
                <time>2018-10-21T02:11:59Z</time>
            </trkpt>
            <trkpt lon="101.204619" lat="14.331148">
                <ele>94.400000</ele>
                <time>2018-10-21T02:12:00Z</time>
            </trkpt>
            <trkpt lon="101.204576" lat="14.331144">
                <ele>94.300000</ele>
                <time>2018-10-21T02:12:01Z</time>
            </trkpt>
            <trkpt lon="101.204537" lat="14.331130">
                <ele>94.200000</ele>
                <time>2018-10-21T02:12:02Z</time>
            </trkpt>
            <trkpt lon="101.204508" lat="14.331129">
                <ele>94.100000</ele>
                <time>2018-10-21T02:12:03Z</time>
            </trkpt>
            <trkpt lon="101.204463" lat="14.331127">
                <ele>94.000000</ele>
                <time>2018-10-21T02:12:05Z</time>
            </trkpt>
            <trkpt lon="101.204423" lat="14.331138">
                <ele>94.000000</ele>
                <time>2018-10-21T02:12:07Z</time>
            </trkpt>
            <trkpt lon="101.204369" lat="14.331126">
                <ele>93.900000</ele>
                <time>2018-10-21T02:12:09Z</time>
            </trkpt>
            <trkpt lon="101.204335" lat="14.331122">
                <ele>93.900000</ele>
                <time>2018-10-21T02:12:10Z</time>
            </trkpt>
            <trkpt lon="101.204304" lat="14.331116">
                <ele>94.000000</ele>
                <time>2018-10-21T02:12:11Z</time>
            </trkpt>
            <trkpt lon="101.204275" lat="14.331108">
                <ele>94.100000</ele>
                <time>2018-10-21T02:12:12Z</time>
            </trkpt>
            <trkpt lon="101.204248" lat="14.331099">
                <ele>94.200000</ele>
                <time>2018-10-21T02:12:13Z</time>
            </trkpt>
            <trkpt lon="101.204200" lat="14.331083">
                <ele>94.500000</ele>
                <time>2018-10-21T02:12:15Z</time>
            </trkpt>
            <trkpt lon="101.204161" lat="14.331062">
                <ele>94.700000</ele>
                <time>2018-10-21T02:12:17Z</time>
            </trkpt>
            <trkpt lon="101.204134" lat="14.331040">
                <ele>94.800000</ele>
                <time>2018-10-21T02:12:18Z</time>
            </trkpt>
            <trkpt lon="101.204105" lat="14.331008">
                <ele>95.000000</ele>
                <time>2018-10-21T02:12:19Z</time>
            </trkpt>
            <trkpt lon="101.204067" lat="14.330977">
                <ele>95.100000</ele>
                <time>2018-10-21T02:12:20Z</time>
            </trkpt>
            <trkpt lon="101.204030" lat="14.330940">
                <ele>95.100000</ele>
                <time>2018-10-21T02:12:21Z</time>
            </trkpt>
            <trkpt lon="101.203983" lat="14.330906">
                <ele>95.000000</ele>
                <time>2018-10-21T02:12:22Z</time>
            </trkpt>
            <trkpt lon="101.203922" lat="14.330892">
                <ele>94.900000</ele>
                <time>2018-10-21T02:12:23Z</time>
            </trkpt>
            <trkpt lon="101.203859" lat="14.330898">
                <ele>94.800000</ele>
                <time>2018-10-21T02:12:24Z</time>
            </trkpt>
            <trkpt lon="101.203796" lat="14.330914">
                <ele>94.600000</ele>
                <time>2018-10-21T02:12:25Z</time>
            </trkpt>
            <trkpt lon="101.203736" lat="14.330930">
                <ele>94.500000</ele>
                <time>2018-10-21T02:12:26Z</time>
            </trkpt>
            <trkpt lon="101.203676" lat="14.330941">
                <ele>94.500000</ele>
                <time>2018-10-21T02:12:27Z</time>
            </trkpt>
            <trkpt lon="101.203617" lat="14.330950">
                <ele>94.600000</ele>
                <time>2018-10-21T02:12:28Z</time>
            </trkpt>
            <trkpt lon="101.203553" lat="14.330944">
                <ele>95.000000</ele>
                <time>2018-10-21T02:12:29Z</time>
            </trkpt>
            <trkpt lon="101.203493" lat="14.330938">
                <ele>95.500000</ele>
                <time>2018-10-21T02:12:30Z</time>
            </trkpt>
            <trkpt lon="101.203430" lat="14.330923">
                <ele>96.100000</ele>
                <time>2018-10-21T02:12:31Z</time>
            </trkpt>
            <trkpt lon="101.203371" lat="14.330892">
                <ele>95.600000</ele>
                <time>2018-10-21T02:12:32Z</time>
            </trkpt>
            <trkpt lon="101.203316" lat="14.330854">
                <ele>94.800000</ele>
                <time>2018-10-21T02:12:33Z</time>
            </trkpt>
            <trkpt lon="101.203253" lat="14.330807">
                <ele>93.900000</ele>
                <time>2018-10-21T02:12:34Z</time>
            </trkpt>
            <trkpt lon="101.203188" lat="14.330746">
                <ele>92.800000</ele>
                <time>2018-10-21T02:12:35Z</time>
            </trkpt>
            <trkpt lon="101.203121" lat="14.330682">
                <ele>91.800000</ele>
                <time>2018-10-21T02:12:36Z</time>
            </trkpt>
            <trkpt lon="101.203053" lat="14.330613">
                <ele>90.700000</ele>
                <time>2018-10-21T02:12:37Z</time>
            </trkpt>
            <trkpt lon="101.202983" lat="14.330547">
                <ele>89.500000</ele>
                <time>2018-10-21T02:12:38Z</time>
            </trkpt>
            <trkpt lon="101.202908" lat="14.330481">
                <ele>88.300000</ele>
                <time>2018-10-21T02:12:39Z</time>
            </trkpt>
            <trkpt lon="101.202841" lat="14.330416">
                <ele>87.200000</ele>
                <time>2018-10-21T02:12:40Z</time>
            </trkpt>
            <trkpt lon="101.202778" lat="14.330353">
                <ele>86.200000</ele>
                <time>2018-10-21T02:12:41Z</time>
            </trkpt>
            <trkpt lon="101.202718" lat="14.330291">
                <ele>85.200000</ele>
                <time>2018-10-21T02:12:42Z</time>
            </trkpt>
            <trkpt lon="101.202659" lat="14.330232">
                <ele>84.300000</ele>
                <time>2018-10-21T02:12:43Z</time>
            </trkpt>
            <trkpt lon="101.202599" lat="14.330185">
                <ele>83.300000</ele>
                <time>2018-10-21T02:12:44Z</time>
            </trkpt>
            <trkpt lon="101.202535" lat="14.330151">
                <ele>82.400000</ele>
                <time>2018-10-21T02:12:45Z</time>
            </trkpt>
            <trkpt lon="101.202456" lat="14.330128">
                <ele>81.500000</ele>
                <time>2018-10-21T02:12:46Z</time>
            </trkpt>
            <trkpt lon="101.202370" lat="14.330106">
                <ele>80.500000</ele>
                <time>2018-10-21T02:12:47Z</time>
            </trkpt>
            <trkpt lon="101.202269" lat="14.330088">
                <ele>79.300000</ele>
                <time>2018-10-21T02:12:48Z</time>
            </trkpt>
            <trkpt lon="101.202156" lat="14.330083">
                <ele>78.000000</ele>
                <time>2018-10-21T02:12:49Z</time>
            </trkpt>
            <trkpt lon="101.202052" lat="14.330083">
                <ele>76.800000</ele>
                <time>2018-10-21T02:12:50Z</time>
            </trkpt>
            <trkpt lon="101.201946" lat="14.330077">
                <ele>75.600000</ele>
                <time>2018-10-21T02:12:51Z</time>
            </trkpt>
            <trkpt lon="101.201833" lat="14.330076">
                <ele>74.300000</ele>
                <time>2018-10-21T02:12:52Z</time>
            </trkpt>
            <trkpt lon="101.201730" lat="14.330080">
                <ele>73.100000</ele>
                <time>2018-10-21T02:12:53Z</time>
            </trkpt>
            <trkpt lon="101.201628" lat="14.330082">
                <ele>71.900000</ele>
                <time>2018-10-21T02:12:54Z</time>
            </trkpt>
            <trkpt lon="101.201529" lat="14.330068">
                <ele>71.900000</ele>
                <time>2018-10-21T02:12:55Z</time>
            </trkpt>
            <trkpt lon="101.201437" lat="14.330048">
                <ele>72.400000</ele>
                <time>2018-10-21T02:12:56Z</time>
            </trkpt>
            <trkpt lon="101.201351" lat="14.330035">
                <ele>72.800000</ele>
                <time>2018-10-21T02:12:57Z</time>
            </trkpt>
            <trkpt lon="101.201265" lat="14.330025">
                <ele>73.100000</ele>
                <time>2018-10-21T02:12:58Z</time>
            </trkpt>
            <trkpt lon="101.201183" lat="14.330017">
                <ele>73.400000</ele>
                <time>2018-10-21T02:12:59Z</time>
            </trkpt>
            <trkpt lon="101.201105" lat="14.330003">
                <ele>73.600000</ele>
                <time>2018-10-21T02:13:00Z</time>
            </trkpt>
            <trkpt lon="101.201030" lat="14.329988">
                <ele>73.700000</ele>
                <time>2018-10-21T02:13:01Z</time>
            </trkpt>
            <trkpt lon="101.200960" lat="14.329979">
                <ele>73.800000</ele>
                <time>2018-10-21T02:13:02Z</time>
            </trkpt>
            <trkpt lon="101.200893" lat="14.329962">
                <ele>73.900000</ele>
                <time>2018-10-21T02:13:03Z</time>
            </trkpt>
            <trkpt lon="101.200826" lat="14.329945">
                <ele>73.900000</ele>
                <time>2018-10-21T02:13:04Z</time>
            </trkpt>
            <trkpt lon="101.200760" lat="14.329924">
                <ele>73.800000</ele>
                <time>2018-10-21T02:13:05Z</time>
            </trkpt>
            <trkpt lon="101.200694" lat="14.329902">
                <ele>73.700000</ele>
                <time>2018-10-21T02:13:06Z</time>
            </trkpt>
            <trkpt lon="101.200627" lat="14.329878">
                <ele>73.500000</ele>
                <time>2018-10-21T02:13:07Z</time>
            </trkpt>
            <trkpt lon="101.200560" lat="14.329855">
                <ele>73.200000</ele>
                <time>2018-10-21T02:13:08Z</time>
            </trkpt>
            <trkpt lon="101.200495" lat="14.329837">
                <ele>72.900000</ele>
                <time>2018-10-21T02:13:09Z</time>
            </trkpt>
            <trkpt lon="101.200425" lat="14.329818">
                <ele>72.600000</ele>
                <time>2018-10-21T02:13:10Z</time>
            </trkpt>
            <trkpt lon="101.200357" lat="14.329797">
                <ele>72.300000</ele>
                <time>2018-10-21T02:13:11Z</time>
            </trkpt>
            <trkpt lon="101.200288" lat="14.329776">
                <ele>72.100000</ele>
                <time>2018-10-21T02:13:12Z</time>
            </trkpt>
            <trkpt lon="101.200214" lat="14.329753">
                <ele>71.900000</ele>
                <time>2018-10-21T02:13:13Z</time>
            </trkpt>
            <trkpt lon="101.200135" lat="14.329724">
                <ele>71.700000</ele>
                <time>2018-10-21T02:13:14Z</time>
            </trkpt>
            <trkpt lon="101.200065" lat="14.329705">
                <ele>71.500000</ele>
                <time>2018-10-21T02:13:15Z</time>
            </trkpt>
            <trkpt lon="101.200000" lat="14.329685">
                <ele>71.300000</ele>
                <time>2018-10-21T02:13:16Z</time>
            </trkpt>
            <trkpt lon="101.199936" lat="14.329672">
                <ele>71.100000</ele>
                <time>2018-10-21T02:13:17Z</time>
            </trkpt>
            <trkpt lon="101.199872" lat="14.329661">
                <ele>70.900000</ele>
                <time>2018-10-21T02:13:18Z</time>
            </trkpt>
            <trkpt lon="101.199803" lat="14.329651">
                <ele>70.800000</ele>
                <time>2018-10-21T02:13:19Z</time>
            </trkpt>
            <trkpt lon="101.199732" lat="14.329643">
                <ele>70.500000</ele>
                <time>2018-10-21T02:13:20Z</time>
            </trkpt>
            <trkpt lon="101.199662" lat="14.329640">
                <ele>70.300000</ele>
                <time>2018-10-21T02:13:21Z</time>
            </trkpt>
            <trkpt lon="101.199594" lat="14.329637">
                <ele>69.900000</ele>
                <time>2018-10-21T02:13:22Z</time>
            </trkpt>
            <trkpt lon="101.199524" lat="14.329630">
                <ele>69.500000</ele>
                <time>2018-10-21T02:13:23Z</time>
            </trkpt>
            <trkpt lon="101.199455" lat="14.329624">
                <ele>69.100000</ele>
                <time>2018-10-21T02:13:24Z</time>
            </trkpt>
            <trkpt lon="101.199388" lat="14.329623">
                <ele>68.700000</ele>
                <time>2018-10-21T02:13:25Z</time>
            </trkpt>
            <trkpt lon="101.199323" lat="14.329613">
                <ele>68.300000</ele>
                <time>2018-10-21T02:13:26Z</time>
            </trkpt>
            <trkpt lon="101.199258" lat="14.329598">
                <ele>68.000000</ele>
                <time>2018-10-21T02:13:27Z</time>
            </trkpt>
            <trkpt lon="101.199191" lat="14.329581">
                <ele>67.700000</ele>
                <time>2018-10-21T02:13:28Z</time>
            </trkpt>
            <trkpt lon="101.199122" lat="14.329561">
                <ele>67.400000</ele>
                <time>2018-10-21T02:13:29Z</time>
            </trkpt>
            <trkpt lon="101.199058" lat="14.329536">
                <ele>67.200000</ele>
                <time>2018-10-21T02:13:30Z</time>
            </trkpt>
            <trkpt lon="101.198995" lat="14.329511">
                <ele>67.100000</ele>
                <time>2018-10-21T02:13:31Z</time>
            </trkpt>
            <trkpt lon="101.198935" lat="14.329477">
                <ele>66.900000</ele>
                <time>2018-10-21T02:13:32Z</time>
            </trkpt>
            <trkpt lon="101.198879" lat="14.329440">
                <ele>66.700000</ele>
                <time>2018-10-21T02:13:33Z</time>
            </trkpt>
            <trkpt lon="101.198827" lat="14.329394">
                <ele>66.600000</ele>
                <time>2018-10-21T02:13:34Z</time>
            </trkpt>
            <trkpt lon="101.198780" lat="14.329339">
                <ele>66.400000</ele>
                <time>2018-10-21T02:13:35Z</time>
            </trkpt>
            <trkpt lon="101.198733" lat="14.329291">
                <ele>66.100000</ele>
                <time>2018-10-21T02:13:36Z</time>
            </trkpt>
            <trkpt lon="101.198692" lat="14.329256">
                <ele>66.000000</ele>
                <time>2018-10-21T02:13:37Z</time>
            </trkpt>
            <trkpt lon="101.198657" lat="14.329222">
                <ele>65.800000</ele>
                <time>2018-10-21T02:13:38Z</time>
            </trkpt>
            <trkpt lon="101.198631" lat="14.329179">
                <ele>65.600000</ele>
                <time>2018-10-21T02:13:39Z</time>
            </trkpt>
            <trkpt lon="101.198615" lat="14.329144">
                <ele>65.500000</ele>
                <time>2018-10-21T02:13:40Z</time>
            </trkpt>
            <trkpt lon="101.198609" lat="14.329100">
                <ele>64.800000</ele>
                <time>2018-10-21T02:13:42Z</time>
            </trkpt>
            <trkpt lon="101.198621" lat="14.329075">
                <ele>64.800000</ele>
                <time>2018-10-21T02:13:43Z</time>
            </trkpt>
            <trkpt lon="101.198647" lat="14.329046">
                <ele>64.700000</ele>
                <time>2018-10-21T02:13:44Z</time>
            </trkpt>
            <trkpt lon="101.198675" lat="14.329017">
                <ele>64.600000</ele>
                <time>2018-10-21T02:13:45Z</time>
            </trkpt>
            <trkpt lon="101.198702" lat="14.328989">
                <ele>64.500000</ele>
                <time>2018-10-21T02:13:46Z</time>
            </trkpt>
            <trkpt lon="101.198727" lat="14.328952">
                <ele>64.500000</ele>
                <time>2018-10-21T02:13:47Z</time>
            </trkpt>
            <trkpt lon="101.198758" lat="14.328915">
                <ele>64.500000</ele>
                <time>2018-10-21T02:13:48Z</time>
            </trkpt>
            <trkpt lon="101.198791" lat="14.328882">
                <ele>64.600000</ele>
                <time>2018-10-21T02:13:49Z</time>
            </trkpt>
            <trkpt lon="101.198825" lat="14.328848">
                <ele>64.700000</ele>
                <time>2018-10-21T02:13:50Z</time>
            </trkpt>
            <trkpt lon="101.198858" lat="14.328810">
                <ele>64.800000</ele>
                <time>2018-10-21T02:13:51Z</time>
            </trkpt>
            <trkpt lon="101.198895" lat="14.328775">
                <ele>64.900000</ele>
                <time>2018-10-21T02:13:52Z</time>
            </trkpt>
            <trkpt lon="101.198930" lat="14.328735">
                <ele>65.100000</ele>
                <time>2018-10-21T02:13:53Z</time>
            </trkpt>
            <trkpt lon="101.198966" lat="14.328697">
                <ele>65.100000</ele>
                <time>2018-10-21T02:13:54Z</time>
            </trkpt>
            <trkpt lon="101.198999" lat="14.328658">
                <ele>65.100000</ele>
                <time>2018-10-21T02:13:55Z</time>
            </trkpt>
            <trkpt lon="101.199034" lat="14.328622">
                <ele>65.100000</ele>
                <time>2018-10-21T02:13:56Z</time>
            </trkpt>
            <trkpt lon="101.199071" lat="14.328582">
                <ele>64.900000</ele>
                <time>2018-10-21T02:13:57Z</time>
            </trkpt>
            <trkpt lon="101.199106" lat="14.328541">
                <ele>64.700000</ele>
                <time>2018-10-21T02:13:58Z</time>
            </trkpt>
            <trkpt lon="101.199144" lat="14.328500">
                <ele>64.400000</ele>
                <time>2018-10-21T02:13:59Z</time>
            </trkpt>
            <trkpt lon="101.199188" lat="14.328458">
                <ele>64.100000</ele>
                <time>2018-10-21T02:14:00Z</time>
            </trkpt>
            <trkpt lon="101.199232" lat="14.328418">
                <ele>63.600000</ele>
                <time>2018-10-21T02:14:01Z</time>
            </trkpt>
            <trkpt lon="101.199267" lat="14.328373">
                <ele>63.100000</ele>
                <time>2018-10-21T02:14:02Z</time>
            </trkpt>
            <trkpt lon="101.199301" lat="14.328324">
                <ele>62.500000</ele>
                <time>2018-10-21T02:14:03Z</time>
            </trkpt>
            <trkpt lon="101.199339" lat="14.328280">
                <ele>62.300000</ele>
                <time>2018-10-21T02:14:04Z</time>
            </trkpt>
            <trkpt lon="101.199379" lat="14.328234">
                <ele>62.100000</ele>
                <time>2018-10-21T02:14:05Z</time>
            </trkpt>
            <trkpt lon="101.199413" lat="14.328191">
                <ele>62.000000</ele>
                <time>2018-10-21T02:14:06Z</time>
            </trkpt>
            <trkpt lon="101.199444" lat="14.328144">
                <ele>61.800000</ele>
                <time>2018-10-21T02:14:07Z</time>
            </trkpt>
            <trkpt lon="101.199479" lat="14.328100">
                <ele>61.700000</ele>
                <time>2018-10-21T02:14:08Z</time>
            </trkpt>
            <trkpt lon="101.199517" lat="14.328058">
                <ele>61.700000</ele>
                <time>2018-10-21T02:14:09Z</time>
            </trkpt>
            <trkpt lon="101.199559" lat="14.328019">
                <ele>61.700000</ele>
                <time>2018-10-21T02:14:10Z</time>
            </trkpt>
            <trkpt lon="101.199600" lat="14.327976">
                <ele>61.700000</ele>
                <time>2018-10-21T02:14:11Z</time>
            </trkpt>
            <trkpt lon="101.199639" lat="14.327929">
                <ele>61.700000</ele>
                <time>2018-10-21T02:14:12Z</time>
            </trkpt>
            <trkpt lon="101.199678" lat="14.327883">
                <ele>61.800000</ele>
                <time>2018-10-21T02:14:13Z</time>
            </trkpt>
            <trkpt lon="101.199717" lat="14.327836">
                <ele>61.900000</ele>
                <time>2018-10-21T02:14:14Z</time>
            </trkpt>
            <trkpt lon="101.199751" lat="14.327790">
                <ele>62.000000</ele>
                <time>2018-10-21T02:14:15Z</time>
            </trkpt>
            <trkpt lon="101.199787" lat="14.327741">
                <ele>62.000000</ele>
                <time>2018-10-21T02:14:16Z</time>
            </trkpt>
            <trkpt lon="101.199822" lat="14.327692">
                <ele>62.100000</ele>
                <time>2018-10-21T02:14:17Z</time>
            </trkpt>
            <trkpt lon="101.199859" lat="14.327645">
                <ele>62.200000</ele>
                <time>2018-10-21T02:14:18Z</time>
            </trkpt>
            <trkpt lon="101.199898" lat="14.327602">
                <ele>62.200000</ele>
                <time>2018-10-21T02:14:19Z</time>
            </trkpt>
            <trkpt lon="101.199934" lat="14.327559">
                <ele>62.200000</ele>
                <time>2018-10-21T02:14:20Z</time>
            </trkpt>
            <trkpt lon="101.199969" lat="14.327516">
                <ele>62.300000</ele>
                <time>2018-10-21T02:14:21Z</time>
            </trkpt>
            <trkpt lon="101.200005" lat="14.327475">
                <ele>62.200000</ele>
                <time>2018-10-21T02:14:22Z</time>
            </trkpt>
            <trkpt lon="101.200041" lat="14.327433">
                <ele>62.200000</ele>
                <time>2018-10-21T02:14:23Z</time>
            </trkpt>
            <trkpt lon="101.200078" lat="14.327389">
                <ele>62.200000</ele>
                <time>2018-10-21T02:14:24Z</time>
            </trkpt>
            <trkpt lon="101.200118" lat="14.327346">
                <ele>62.200000</ele>
                <time>2018-10-21T02:14:25Z</time>
            </trkpt>
            <trkpt lon="101.200160" lat="14.327301">
                <ele>62.100000</ele>
                <time>2018-10-21T02:14:26Z</time>
            </trkpt>
            <trkpt lon="101.200198" lat="14.327259">
                <ele>62.100000</ele>
                <time>2018-10-21T02:14:27Z</time>
            </trkpt>
            <trkpt lon="101.200240" lat="14.327214">
                <ele>62.000000</ele>
                <time>2018-10-21T02:14:28Z</time>
            </trkpt>
            <trkpt lon="101.200278" lat="14.327169">
                <ele>62.000000</ele>
                <time>2018-10-21T02:14:29Z</time>
            </trkpt>
            <trkpt lon="101.200320" lat="14.327122">
                <ele>61.900000</ele>
                <time>2018-10-21T02:14:30Z</time>
            </trkpt>
            <trkpt lon="101.200364" lat="14.327080">
                <ele>61.800000</ele>
                <time>2018-10-21T02:14:31Z</time>
            </trkpt>
            <trkpt lon="101.200407" lat="14.327036">
                <ele>61.800000</ele>
                <time>2018-10-21T02:14:32Z</time>
            </trkpt>
            <trkpt lon="101.200447" lat="14.326988">
                <ele>61.700000</ele>
                <time>2018-10-21T02:14:33Z</time>
            </trkpt>
            <trkpt lon="101.200488" lat="14.326941">
                <ele>61.500000</ele>
                <time>2018-10-21T02:14:34Z</time>
            </trkpt>
            <trkpt lon="101.200531" lat="14.326896">
                <ele>61.400000</ele>
                <time>2018-10-21T02:14:35Z</time>
            </trkpt>
            <trkpt lon="101.200574" lat="14.326851">
                <ele>61.300000</ele>
                <time>2018-10-21T02:14:36Z</time>
            </trkpt>
            <trkpt lon="101.200614" lat="14.326804">
                <ele>61.200000</ele>
                <time>2018-10-21T02:14:37Z</time>
            </trkpt>
            <trkpt lon="101.200652" lat="14.326756">
                <ele>61.100000</ele>
                <time>2018-10-21T02:14:38Z</time>
            </trkpt>
            <trkpt lon="101.200694" lat="14.326706">
                <ele>61.000000</ele>
                <time>2018-10-21T02:14:39Z</time>
            </trkpt>
            <trkpt lon="101.200735" lat="14.326657">
                <ele>60.900000</ele>
                <time>2018-10-21T02:14:40Z</time>
            </trkpt>
            <trkpt lon="101.200775" lat="14.326610">
                <ele>60.800000</ele>
                <time>2018-10-21T02:14:41Z</time>
            </trkpt>
            <trkpt lon="101.200818" lat="14.326564">
                <ele>60.800000</ele>
                <time>2018-10-21T02:14:42Z</time>
            </trkpt>
            <trkpt lon="101.200860" lat="14.326519">
                <ele>60.700000</ele>
                <time>2018-10-21T02:14:43Z</time>
            </trkpt>
            <trkpt lon="101.200903" lat="14.326473">
                <ele>60.700000</ele>
                <time>2018-10-21T02:14:44Z</time>
            </trkpt>
            <trkpt lon="101.200946" lat="14.326426">
                <ele>60.700000</ele>
                <time>2018-10-21T02:14:45Z</time>
            </trkpt>
            <trkpt lon="101.200991" lat="14.326380">
                <ele>60.600000</ele>
                <time>2018-10-21T02:14:46Z</time>
            </trkpt>
            <trkpt lon="101.201033" lat="14.326336">
                <ele>60.400000</ele>
                <time>2018-10-21T02:14:47Z</time>
            </trkpt>
            <trkpt lon="101.201074" lat="14.326291">
                <ele>60.300000</ele>
                <time>2018-10-21T02:14:48Z</time>
            </trkpt>
            <trkpt lon="101.201115" lat="14.326245">
                <ele>60.100000</ele>
                <time>2018-10-21T02:14:49Z</time>
            </trkpt>
            <trkpt lon="101.201159" lat="14.326200">
                <ele>59.900000</ele>
                <time>2018-10-21T02:14:50Z</time>
            </trkpt>
            <trkpt lon="101.201198" lat="14.326151">
                <ele>59.600000</ele>
                <time>2018-10-21T02:14:51Z</time>
            </trkpt>
            <trkpt lon="101.201237" lat="14.326098">
                <ele>59.300000</ele>
                <time>2018-10-21T02:14:52Z</time>
            </trkpt>
            <trkpt lon="101.201276" lat="14.326044">
                <ele>58.900000</ele>
                <time>2018-10-21T02:14:53Z</time>
            </trkpt>
            <trkpt lon="101.201316" lat="14.325993">
                <ele>58.400000</ele>
                <time>2018-10-21T02:14:54Z</time>
            </trkpt>
            <trkpt lon="101.201356" lat="14.325945">
                <ele>57.800000</ele>
                <time>2018-10-21T02:14:55Z</time>
            </trkpt>
            <trkpt lon="101.201398" lat="14.325897">
                <ele>57.200000</ele>
                <time>2018-10-21T02:14:56Z</time>
            </trkpt>
            <trkpt lon="101.201440" lat="14.325847">
                <ele>56.900000</ele>
                <time>2018-10-21T02:14:57Z</time>
            </trkpt>
            <trkpt lon="101.201479" lat="14.325799">
                <ele>56.700000</ele>
                <time>2018-10-21T02:14:58Z</time>
            </trkpt>
            <trkpt lon="101.201520" lat="14.325752">
                <ele>56.400000</ele>
                <time>2018-10-21T02:14:59Z</time>
            </trkpt>
            <trkpt lon="101.201559" lat="14.325707">
                <ele>55.900000</ele>
                <time>2018-10-21T02:15:00Z</time>
            </trkpt>
            <trkpt lon="101.201601" lat="14.325663">
                <ele>55.600000</ele>
                <time>2018-10-21T02:15:01Z</time>
            </trkpt>
            <trkpt lon="101.201642" lat="14.325615">
                <ele>55.300000</ele>
                <time>2018-10-21T02:15:02Z</time>
            </trkpt>
            <trkpt lon="101.201681" lat="14.325566">
                <ele>55.200000</ele>
                <time>2018-10-21T02:15:03Z</time>
            </trkpt>
            <trkpt lon="101.201723" lat="14.325518">
                <ele>55.300000</ele>
                <time>2018-10-21T02:15:04Z</time>
            </trkpt>
            <trkpt lon="101.201764" lat="14.325472">
                <ele>55.500000</ele>
                <time>2018-10-21T02:15:05Z</time>
            </trkpt>
            <trkpt lon="101.201801" lat="14.325423">
                <ele>55.900000</ele>
                <time>2018-10-21T02:15:06Z</time>
            </trkpt>
            <trkpt lon="101.201842" lat="14.325372">
                <ele>56.000000</ele>
                <time>2018-10-21T02:15:07Z</time>
            </trkpt>
            <trkpt lon="101.201883" lat="14.325323">
                <ele>56.000000</ele>
                <time>2018-10-21T02:15:08Z</time>
            </trkpt>
            <trkpt lon="101.201923" lat="14.325272">
                <ele>56.000000</ele>
                <time>2018-10-21T02:15:09Z</time>
            </trkpt>
            <trkpt lon="101.201965" lat="14.325222">
                <ele>56.000000</ele>
                <time>2018-10-21T02:15:10Z</time>
            </trkpt>
            <trkpt lon="101.202007" lat="14.325172">
                <ele>56.100000</ele>
                <time>2018-10-21T02:15:11Z</time>
            </trkpt>
            <trkpt lon="101.202051" lat="14.325124">
                <ele>56.100000</ele>
                <time>2018-10-21T02:15:12Z</time>
            </trkpt>
            <trkpt lon="101.202094" lat="14.325077">
                <ele>56.100000</ele>
                <time>2018-10-21T02:15:13Z</time>
            </trkpt>
            <trkpt lon="101.202137" lat="14.325029">
                <ele>56.300000</ele>
                <time>2018-10-21T02:15:14Z</time>
            </trkpt>
            <trkpt lon="101.202180" lat="14.324981">
                <ele>56.500000</ele>
                <time>2018-10-21T02:15:15Z</time>
            </trkpt>
            <trkpt lon="101.202224" lat="14.324931">
                <ele>56.600000</ele>
                <time>2018-10-21T02:15:16Z</time>
            </trkpt>
            <trkpt lon="101.202263" lat="14.324879">
                <ele>57.100000</ele>
                <time>2018-10-21T02:15:17Z</time>
            </trkpt>
            <trkpt lon="101.202300" lat="14.324829">
                <ele>57.500000</ele>
                <time>2018-10-21T02:15:18Z</time>
            </trkpt>
            <trkpt lon="101.202339" lat="14.324774">
                <ele>58.100000</ele>
                <time>2018-10-21T02:15:19Z</time>
            </trkpt>
            <trkpt lon="101.202375" lat="14.324721">
                <ele>58.500000</ele>
                <time>2018-10-21T02:15:20Z</time>
            </trkpt>
            <trkpt lon="101.202413" lat="14.324670">
                <ele>58.800000</ele>
                <time>2018-10-21T02:15:21Z</time>
            </trkpt>
            <trkpt lon="101.202451" lat="14.324616">
                <ele>59.000000</ele>
                <time>2018-10-21T02:15:22Z</time>
            </trkpt>
            <trkpt lon="101.202492" lat="14.324564">
                <ele>59.000000</ele>
                <time>2018-10-21T02:15:23Z</time>
            </trkpt>
            <trkpt lon="101.202531" lat="14.324510">
                <ele>58.900000</ele>
                <time>2018-10-21T02:15:24Z</time>
            </trkpt>
            <trkpt lon="101.202571" lat="14.324458">
                <ele>58.800000</ele>
                <time>2018-10-21T02:15:25Z</time>
            </trkpt>
            <trkpt lon="101.202612" lat="14.324405">
                <ele>58.800000</ele>
                <time>2018-10-21T02:15:26Z</time>
            </trkpt>
            <trkpt lon="101.202655" lat="14.324350">
                <ele>58.800000</ele>
                <time>2018-10-21T02:15:27Z</time>
            </trkpt>
            <trkpt lon="101.202698" lat="14.324295">
                <ele>58.900000</ele>
                <time>2018-10-21T02:15:28Z</time>
            </trkpt>
            <trkpt lon="101.202737" lat="14.324241">
                <ele>59.000000</ele>
                <time>2018-10-21T02:15:29Z</time>
            </trkpt>
            <trkpt lon="101.202773" lat="14.324187">
                <ele>59.100000</ele>
                <time>2018-10-21T02:15:30Z</time>
            </trkpt>
            <trkpt lon="101.202806" lat="14.324135">
                <ele>59.200000</ele>
                <time>2018-10-21T02:15:31Z</time>
            </trkpt>
            <trkpt lon="101.202845" lat="14.324093">
                <ele>59.200000</ele>
                <time>2018-10-21T02:15:32Z</time>
            </trkpt>
            <trkpt lon="101.202899" lat="14.324079">
                <ele>59.300000</ele>
                <time>2018-10-21T02:15:33Z</time>
            </trkpt>
            <trkpt lon="101.202961" lat="14.324079">
                <ele>59.600000</ele>
                <time>2018-10-21T02:15:34Z</time>
            </trkpt>
            <trkpt lon="101.203019" lat="14.324091">
                <ele>60.100000</ele>
                <time>2018-10-21T02:15:35Z</time>
            </trkpt>
            <trkpt lon="101.203079" lat="14.324088">
                <ele>60.300000</ele>
                <time>2018-10-21T02:15:36Z</time>
            </trkpt>
            <trkpt lon="101.203136" lat="14.324077">
                <ele>60.300000</ele>
                <time>2018-10-21T02:15:37Z</time>
            </trkpt>
            <trkpt lon="101.203194" lat="14.324066">
                <ele>60.300000</ele>
                <time>2018-10-21T02:15:38Z</time>
            </trkpt>
            <trkpt lon="101.203247" lat="14.324054">
                <ele>60.000000</ele>
                <time>2018-10-21T02:15:39Z</time>
            </trkpt>
            <trkpt lon="101.203301" lat="14.324041">
                <ele>60.000000</ele>
                <time>2018-10-21T02:15:40Z</time>
            </trkpt>
            <trkpt lon="101.203353" lat="14.324030">
                <ele>60.100000</ele>
                <time>2018-10-21T02:15:41Z</time>
            </trkpt>
            <trkpt lon="101.203407" lat="14.324018">
                <ele>59.600000</ele>
                <time>2018-10-21T02:15:42Z</time>
            </trkpt>
            <trkpt lon="101.203462" lat="14.324005">
                <ele>59.400000</ele>
                <time>2018-10-21T02:15:43Z</time>
            </trkpt>
            <trkpt lon="101.203514" lat="14.323994">
                <ele>59.200000</ele>
                <time>2018-10-21T02:15:44Z</time>
            </trkpt>
            <trkpt lon="101.203565" lat="14.323985">
                <ele>59.000000</ele>
                <time>2018-10-21T02:15:45Z</time>
            </trkpt>
            <trkpt lon="101.203619" lat="14.323980">
                <ele>58.800000</ele>
                <time>2018-10-21T02:15:46Z</time>
            </trkpt>
            <trkpt lon="101.203671" lat="14.323970">
                <ele>58.600000</ele>
                <time>2018-10-21T02:15:47Z</time>
            </trkpt>
            <trkpt lon="101.203722" lat="14.323963">
                <ele>58.600000</ele>
                <time>2018-10-21T02:15:48Z</time>
            </trkpt>
            <trkpt lon="101.203770" lat="14.323956">
                <ele>58.600000</ele>
                <time>2018-10-21T02:15:49Z</time>
            </trkpt>
            <trkpt lon="101.203822" lat="14.323950">
                <ele>58.800000</ele>
                <time>2018-10-21T02:15:50Z</time>
            </trkpt>
            <trkpt lon="101.203869" lat="14.323940">
                <ele>59.000000</ele>
                <time>2018-10-21T02:15:51Z</time>
            </trkpt>
            <trkpt lon="101.203912" lat="14.323929">
                <ele>59.100000</ele>
                <time>2018-10-21T02:15:52Z</time>
            </trkpt>
            <trkpt lon="101.203958" lat="14.323918">
                <ele>59.400000</ele>
                <time>2018-10-21T02:15:53Z</time>
            </trkpt>
            <trkpt lon="101.204004" lat="14.323910">
                <ele>59.600000</ele>
                <time>2018-10-21T02:15:54Z</time>
            </trkpt>
            <trkpt lon="101.204047" lat="14.323907">
                <ele>59.900000</ele>
                <time>2018-10-21T02:15:55Z</time>
            </trkpt>
            <trkpt lon="101.204091" lat="14.323902">
                <ele>60.000000</ele>
                <time>2018-10-21T02:15:56Z</time>
            </trkpt>
            <trkpt lon="101.204135" lat="14.323898">
                <ele>60.000000</ele>
                <time>2018-10-21T02:15:57Z</time>
            </trkpt>
            <trkpt lon="101.204174" lat="14.323889">
                <ele>60.000000</ele>
                <time>2018-10-21T02:15:58Z</time>
            </trkpt>
            <trkpt lon="101.204212" lat="14.323883">
                <ele>60.000000</ele>
                <time>2018-10-21T02:15:59Z</time>
            </trkpt>
            <trkpt lon="101.204248" lat="14.323878">
                <ele>60.000000</ele>
                <time>2018-10-21T02:16:00Z</time>
            </trkpt>
            <trkpt lon="101.204286" lat="14.323874">
                <ele>59.800000</ele>
                <time>2018-10-21T02:16:01Z</time>
            </trkpt>
            <trkpt lon="101.204326" lat="14.323869">
                <ele>59.400000</ele>
                <time>2018-10-21T02:16:02Z</time>
            </trkpt>
            <trkpt lon="101.204363" lat="14.323863">
                <ele>58.900000</ele>
                <time>2018-10-21T02:16:03Z</time>
            </trkpt>
            <trkpt lon="101.204400" lat="14.323854">
                <ele>58.500000</ele>
                <time>2018-10-21T02:16:04Z</time>
            </trkpt>
            <trkpt lon="101.204437" lat="14.323844">
                <ele>58.100000</ele>
                <time>2018-10-21T02:16:05Z</time>
            </trkpt>
            <trkpt lon="101.204477" lat="14.323835">
                <ele>57.800000</ele>
                <time>2018-10-21T02:16:06Z</time>
            </trkpt>
            <trkpt lon="101.204521" lat="14.323829">
                <ele>57.500000</ele>
                <time>2018-10-21T02:16:07Z</time>
            </trkpt>
            <trkpt lon="101.204560" lat="14.323822">
                <ele>57.200000</ele>
                <time>2018-10-21T02:16:08Z</time>
            </trkpt>
            <trkpt lon="101.204599" lat="14.323814">
                <ele>57.000000</ele>
                <time>2018-10-21T02:16:09Z</time>
            </trkpt>
            <trkpt lon="101.204638" lat="14.323807">
                <ele>56.700000</ele>
                <time>2018-10-21T02:16:10Z</time>
            </trkpt>
            <trkpt lon="101.204674" lat="14.323800">
                <ele>56.600000</ele>
                <time>2018-10-21T02:16:11Z</time>
            </trkpt>
            <trkpt lon="101.204710" lat="14.323797">
                <ele>56.500000</ele>
                <time>2018-10-21T02:16:12Z</time>
            </trkpt>
            <trkpt lon="101.204743" lat="14.323795">
                <ele>56.300000</ele>
                <time>2018-10-21T02:16:13Z</time>
            </trkpt>
            <trkpt lon="101.204773" lat="14.323795">
                <ele>56.300000</ele>
                <time>2018-10-21T02:16:14Z</time>
            </trkpt>
            <trkpt lon="101.204822" lat="14.323790">
                <ele>56.500000</ele>
                <time>2018-10-21T02:16:16Z</time>
            </trkpt>
            <trkpt lon="101.204869" lat="14.323788">
                <ele>56.800000</ele>
                <time>2018-10-21T02:16:18Z</time>
            </trkpt>
            <trkpt lon="101.204916" lat="14.323780">
                <ele>57.000000</ele>
                <time>2018-10-21T02:16:20Z</time>
            </trkpt>
            <trkpt lon="101.204942" lat="14.323754">
                <ele>57.400000</ele>
                <time>2018-10-21T02:16:22Z</time>
            </trkpt>
            <trkpt lon="101.204947" lat="14.323705">
                <ele>57.400000</ele>
                <time>2018-10-21T02:16:24Z</time>
            </trkpt>
            <trkpt lon="101.204954" lat="14.323656">
                <ele>57.600000</ele>
                <time>2018-10-21T02:16:26Z</time>
            </trkpt>
            <trkpt lon="101.204955" lat="14.323628">
                <ele>57.800000</ele>
                <time>2018-10-21T02:16:27Z</time>
            </trkpt>
            <trkpt lon="101.204954" lat="14.323598">
                <ele>58.100000</ele>
                <time>2018-10-21T02:16:28Z</time>
            </trkpt>
            <trkpt lon="101.204945" lat="14.323565">
                <ele>58.100000</ele>
                <time>2018-10-21T02:16:29Z</time>
            </trkpt>
            <trkpt lon="101.204934" lat="14.323532">
                <ele>57.800000</ele>
                <time>2018-10-21T02:16:30Z</time>
            </trkpt>
            <trkpt lon="101.204925" lat="14.323500">
                <ele>58.100000</ele>
                <time>2018-10-21T02:16:31Z</time>
            </trkpt>
            <trkpt lon="101.204918" lat="14.323470">
                <ele>58.300000</ele>
                <time>2018-10-21T02:16:32Z</time>
            </trkpt>
            <trkpt lon="101.204913" lat="14.323442">
                <ele>58.300000</ele>
                <time>2018-10-21T02:16:33Z</time>
            </trkpt>
            <trkpt lon="101.204905" lat="14.323414">
                <ele>58.600000</ele>
                <time>2018-10-21T02:16:34Z</time>
            </trkpt>
            <trkpt lon="101.204900" lat="14.323383">
                <ele>58.800000</ele>
                <time>2018-10-21T02:16:35Z</time>
            </trkpt>
            <trkpt lon="101.204898" lat="14.323350">
                <ele>59.000000</ele>
                <time>2018-10-21T02:16:36Z</time>
            </trkpt>
            <trkpt lon="101.204894" lat="14.323321">
                <ele>58.500000</ele>
                <time>2018-10-21T02:16:37Z</time>
            </trkpt>
            <trkpt lon="101.204893" lat="14.323293">
                <ele>58.500000</ele>
                <time>2018-10-21T02:16:38Z</time>
            </trkpt>
            <trkpt lon="101.204892" lat="14.323264">
                <ele>58.500000</ele>
                <time>2018-10-21T02:16:39Z</time>
            </trkpt>
            <trkpt lon="101.204892" lat="14.323235">
                <ele>58.500000</ele>
                <time>2018-10-21T02:16:40Z</time>
            </trkpt>
            <trkpt lon="101.204896" lat="14.323208">
                <ele>59.000000</ele>
                <time>2018-10-21T02:16:41Z</time>
            </trkpt>
            <trkpt lon="101.204906" lat="14.323161">
                <ele>59.000000</ele>
                <time>2018-10-21T02:16:43Z</time>
            </trkpt>
            <trkpt lon="101.204908" lat="14.323116">
                <ele>58.900000</ele>
                <time>2018-10-21T02:16:45Z</time>
            </trkpt>
            <trkpt lon="101.204919" lat="14.323073">
                <ele>58.900000</ele>
                <time>2018-10-21T02:16:47Z</time>
            </trkpt>
            <trkpt lon="101.204927" lat="14.323036">
                <ele>58.900000</ele>
                <time>2018-10-21T02:16:49Z</time>
            </trkpt>
            <trkpt lon="101.204937" lat="14.322996">
                <ele>59.000000</ele>
                <time>2018-10-21T02:16:51Z</time>
            </trkpt>
            <trkpt lon="101.204943" lat="14.322964">
                <ele>60.000000</ele>
                <time>2018-10-21T02:16:53Z</time>
            </trkpt>
            <trkpt lon="101.204948" lat="14.322923">
                <ele>60.300000</ele>
                <time>2018-10-21T02:16:55Z</time>
            </trkpt>
            <trkpt lon="101.204950" lat="14.322879">
                <ele>60.600000</ele>
                <time>2018-10-21T02:16:57Z</time>
            </trkpt>
            <trkpt lon="101.204952" lat="14.322844">
                <ele>60.800000</ele>
                <time>2018-10-21T02:16:59Z</time>
            </trkpt>
            <trkpt lon="101.204953" lat="14.322813">
                <ele>60.800000</ele>
                <time>2018-10-21T02:17:01Z</time>
            </trkpt>
            <trkpt lon="101.204947" lat="14.322783">
                <ele>61.100000</ele>
                <time>2018-10-21T02:17:03Z</time>
            </trkpt>
            <trkpt lon="101.204941" lat="14.322755">
                <ele>61.300000</ele>
                <time>2018-10-21T02:17:05Z</time>
            </trkpt>
            <trkpt lon="101.204926" lat="14.322732">
                <ele>60.500000</ele>
                <time>2018-10-21T02:17:07Z</time>
            </trkpt>
            <trkpt lon="101.204895" lat="14.322741">
                <ele>59.600000</ele>
                <time>2018-10-21T02:17:10Z</time>
            </trkpt>
            <trkpt lon="101.204860" lat="14.322746">
                <ele>59.600000</ele>
                <time>2018-10-21T02:17:15Z</time>
            </trkpt>
            <trkpt lon="101.204827" lat="14.322743">
                <ele>58.800000</ele>
                <time>2018-10-21T02:17:18Z</time>
            </trkpt>
            <trkpt lon="101.204803" lat="14.322717">
                <ele>58.500000</ele>
                <time>2018-10-21T02:17:24Z</time>
            </trkpt>
            <trkpt lon="101.204810" lat="14.322676">
                <ele>58.900000</ele>
                <time>2018-10-21T02:17:26Z</time>
            </trkpt>
            <trkpt lon="101.204813" lat="14.322637">
                <ele>60.100000</ele>
                <time>2018-10-21T02:17:28Z</time>
            </trkpt>
            <trkpt lon="101.204809" lat="14.322595">
                <ele>59.900000</ele>
                <time>2018-10-21T02:17:30Z</time>
            </trkpt>
            <trkpt lon="101.204791" lat="14.322552">
                <ele>60.400000</ele>
                <time>2018-10-21T02:17:32Z</time>
            </trkpt>
            <trkpt lon="101.204753" lat="14.322525">
                <ele>59.700000</ele>
                <time>2018-10-21T02:17:34Z</time>
            </trkpt>
            <trkpt lon="101.204723" lat="14.322517">
                <ele>59.200000</ele>
                <time>2018-10-21T02:17:35Z</time>
            </trkpt>
            <trkpt lon="101.204693" lat="14.322514">
                <ele>59.200000</ele>
                <time>2018-10-21T02:17:36Z</time>
            </trkpt>
            <trkpt lon="101.204637" lat="14.322509">
                <ele>57.900000</ele>
                <time>2018-10-21T02:17:38Z</time>
            </trkpt>
            <trkpt lon="101.204605" lat="14.322507">
                <ele>57.900000</ele>
                <time>2018-10-21T02:17:39Z</time>
            </trkpt>
            <trkpt lon="101.204572" lat="14.322505">
                <ele>57.300000</ele>
                <time>2018-10-21T02:17:40Z</time>
            </trkpt>
            <trkpt lon="101.204539" lat="14.322504">
                <ele>56.800000</ele>
                <time>2018-10-21T02:17:41Z</time>
            </trkpt>
            <trkpt lon="101.204508" lat="14.322503">
                <ele>56.400000</ele>
                <time>2018-10-21T02:17:42Z</time>
            </trkpt>
            <trkpt lon="101.204472" lat="14.322501">
                <ele>56.400000</ele>
                <time>2018-10-21T02:17:43Z</time>
            </trkpt>
            <trkpt lon="101.204436" lat="14.322499">
                <ele>55.900000</ele>
                <time>2018-10-21T02:17:44Z</time>
            </trkpt>
            <trkpt lon="101.204401" lat="14.322498">
                <ele>55.700000</ele>
                <time>2018-10-21T02:17:45Z</time>
            </trkpt>
            <trkpt lon="101.204366" lat="14.322495">
                <ele>55.700000</ele>
                <time>2018-10-21T02:17:46Z</time>
            </trkpt>
            <trkpt lon="101.204329" lat="14.322489">
                <ele>55.700000</ele>
                <time>2018-10-21T02:17:47Z</time>
            </trkpt>
            <trkpt lon="101.204291" lat="14.322482">
                <ele>55.800000</ele>
                <time>2018-10-21T02:17:48Z</time>
            </trkpt>
            <trkpt lon="101.204255" lat="14.322475">
                <ele>56.000000</ele>
                <time>2018-10-21T02:17:49Z</time>
            </trkpt>
            <trkpt lon="101.204222" lat="14.322470">
                <ele>56.000000</ele>
                <time>2018-10-21T02:17:50Z</time>
            </trkpt>
            <trkpt lon="101.204186" lat="14.322470">
                <ele>55.900000</ele>
                <time>2018-10-21T02:17:51Z</time>
            </trkpt>
            <trkpt lon="101.204149" lat="14.322466">
                <ele>55.800000</ele>
                <time>2018-10-21T02:17:52Z</time>
            </trkpt>
            <trkpt lon="101.204115" lat="14.322456">
                <ele>55.700000</ele>
                <time>2018-10-21T02:17:53Z</time>
            </trkpt>
            <trkpt lon="101.204086" lat="14.322439">
                <ele>55.700000</ele>
                <time>2018-10-21T02:17:54Z</time>
            </trkpt>
            <trkpt lon="101.204067" lat="14.322415">
                <ele>55.600000</ele>
                <time>2018-10-21T02:17:55Z</time>
            </trkpt>
            <trkpt lon="101.204059" lat="14.322387">
                <ele>55.700000</ele>
                <time>2018-10-21T02:17:56Z</time>
            </trkpt>
            <trkpt lon="101.204065" lat="14.322353">
                <ele>55.800000</ele>
                <time>2018-10-21T02:17:57Z</time>
            </trkpt>
            <trkpt lon="101.204084" lat="14.322320">
                <ele>55.700000</ele>
                <time>2018-10-21T02:17:58Z</time>
            </trkpt>
            <trkpt lon="101.204115" lat="14.322285">
                <ele>55.700000</ele>
                <time>2018-10-21T02:17:59Z</time>
            </trkpt>
            <trkpt lon="101.204150" lat="14.322253">
                <ele>55.600000</ele>
                <time>2018-10-21T02:18:00Z</time>
            </trkpt>
            <trkpt lon="101.204181" lat="14.322221">
                <ele>55.500000</ele>
                <time>2018-10-21T02:18:01Z</time>
            </trkpt>
            <trkpt lon="101.204215" lat="14.322189">
                <ele>55.400000</ele>
                <time>2018-10-21T02:18:02Z</time>
            </trkpt>
            <trkpt lon="101.204242" lat="14.322152">
                <ele>55.300000</ele>
                <time>2018-10-21T02:18:03Z</time>
            </trkpt>
            <trkpt lon="101.204270" lat="14.322112">
                <ele>55.300000</ele>
                <time>2018-10-21T02:18:04Z</time>
            </trkpt>
            <trkpt lon="101.204300" lat="14.322073">
                <ele>55.200000</ele>
                <time>2018-10-21T02:18:05Z</time>
            </trkpt>
            <trkpt lon="101.204331" lat="14.322033">
                <ele>55.100000</ele>
                <time>2018-10-21T02:18:06Z</time>
            </trkpt>
            <trkpt lon="101.204362" lat="14.321989">
                <ele>55.000000</ele>
                <time>2018-10-21T02:18:07Z</time>
            </trkpt>
            <trkpt lon="101.204390" lat="14.321946">
                <ele>54.900000</ele>
                <time>2018-10-21T02:18:08Z</time>
            </trkpt>
            <trkpt lon="101.204419" lat="14.321905">
                <ele>54.800000</ele>
                <time>2018-10-21T02:18:09Z</time>
            </trkpt>
            <trkpt lon="101.204449" lat="14.321865">
                <ele>54.700000</ele>
                <time>2018-10-21T02:18:10Z</time>
            </trkpt>
            <trkpt lon="101.204476" lat="14.321823">
                <ele>54.700000</ele>
                <time>2018-10-21T02:18:11Z</time>
            </trkpt>
            <trkpt lon="101.204506" lat="14.321782">
                <ele>54.600000</ele>
                <time>2018-10-21T02:18:12Z</time>
            </trkpt>
            <trkpt lon="101.204537" lat="14.321737">
                <ele>54.500000</ele>
                <time>2018-10-21T02:18:13Z</time>
            </trkpt>
            <trkpt lon="101.204563" lat="14.321694">
                <ele>54.400000</ele>
                <time>2018-10-21T02:18:14Z</time>
            </trkpt>
            <trkpt lon="101.204592" lat="14.321651">
                <ele>54.300000</ele>
                <time>2018-10-21T02:18:15Z</time>
            </trkpt>
            <trkpt lon="101.204624" lat="14.321608">
                <ele>54.200000</ele>
                <time>2018-10-21T02:18:16Z</time>
            </trkpt>
            <trkpt lon="101.204657" lat="14.321565">
                <ele>54.100000</ele>
                <time>2018-10-21T02:18:17Z</time>
            </trkpt>
            <trkpt lon="101.204688" lat="14.321520">
                <ele>54.000000</ele>
                <time>2018-10-21T02:18:18Z</time>
            </trkpt>
            <trkpt lon="101.204720" lat="14.321475">
                <ele>53.900000</ele>
                <time>2018-10-21T02:18:19Z</time>
            </trkpt>
            <trkpt lon="101.204750" lat="14.321428">
                <ele>53.800000</ele>
                <time>2018-10-21T02:18:20Z</time>
            </trkpt>
            <trkpt lon="101.204781" lat="14.321382">
                <ele>53.800000</ele>
                <time>2018-10-21T02:18:21Z</time>
            </trkpt>
            <trkpt lon="101.204813" lat="14.321338">
                <ele>53.700000</ele>
                <time>2018-10-21T02:18:22Z</time>
            </trkpt>
            <trkpt lon="101.204844" lat="14.321295">
                <ele>53.600000</ele>
                <time>2018-10-21T02:18:23Z</time>
            </trkpt>
            <trkpt lon="101.204875" lat="14.321249">
                <ele>53.500000</ele>
                <time>2018-10-21T02:18:24Z</time>
            </trkpt>
            <trkpt lon="101.204907" lat="14.321203">
                <ele>53.400000</ele>
                <time>2018-10-21T02:18:25Z</time>
            </trkpt>
            <trkpt lon="101.204942" lat="14.321158">
                <ele>53.300000</ele>
                <time>2018-10-21T02:18:26Z</time>
            </trkpt>
            <trkpt lon="101.204976" lat="14.321113">
                <ele>53.200000</ele>
                <time>2018-10-21T02:18:27Z</time>
            </trkpt>
            <trkpt lon="101.205007" lat="14.321066">
                <ele>53.100000</ele>
                <time>2018-10-21T02:18:28Z</time>
            </trkpt>
            <trkpt lon="101.205040" lat="14.321020">
                <ele>53.000000</ele>
                <time>2018-10-21T02:18:29Z</time>
            </trkpt>
            <trkpt lon="101.205072" lat="14.320973">
                <ele>52.900000</ele>
                <time>2018-10-21T02:18:30Z</time>
            </trkpt>
            <trkpt lon="101.205107" lat="14.320927">
                <ele>52.800000</ele>
                <time>2018-10-21T02:18:31Z</time>
            </trkpt>
            <trkpt lon="101.205139" lat="14.320879">
                <ele>52.700000</ele>
                <time>2018-10-21T02:18:32Z</time>
            </trkpt>
            <trkpt lon="101.205170" lat="14.320829">
                <ele>52.600000</ele>
                <time>2018-10-21T02:18:33Z</time>
            </trkpt>
            <trkpt lon="101.205204" lat="14.320781">
                <ele>52.500000</ele>
                <time>2018-10-21T02:18:34Z</time>
            </trkpt>
            <trkpt lon="101.205245" lat="14.320734">
                <ele>52.400000</ele>
                <time>2018-10-21T02:18:35Z</time>
            </trkpt>
            <trkpt lon="101.205281" lat="14.320686">
                <ele>52.300000</ele>
                <time>2018-10-21T02:18:36Z</time>
            </trkpt>
            <trkpt lon="101.205317" lat="14.320635">
                <ele>52.200000</ele>
                <time>2018-10-21T02:18:37Z</time>
            </trkpt>
            <trkpt lon="101.205350" lat="14.320580">
                <ele>52.100000</ele>
                <time>2018-10-21T02:18:38Z</time>
            </trkpt>
            <trkpt lon="101.205381" lat="14.320527">
                <ele>52.000000</ele>
                <time>2018-10-21T02:18:39Z</time>
            </trkpt>
            <trkpt lon="101.205417" lat="14.320476">
                <ele>51.900000</ele>
                <time>2018-10-21T02:18:40Z</time>
            </trkpt>
            <trkpt lon="101.205458" lat="14.320424">
                <ele>51.800000</ele>
                <time>2018-10-21T02:18:41Z</time>
            </trkpt>
            <trkpt lon="101.205493" lat="14.320372">
                <ele>51.700000</ele>
                <time>2018-10-21T02:18:42Z</time>
            </trkpt>
            <trkpt lon="101.205526" lat="14.320317">
                <ele>51.500000</ele>
                <time>2018-10-21T02:18:43Z</time>
            </trkpt>
            <trkpt lon="101.205561" lat="14.320260">
                <ele>51.400000</ele>
                <time>2018-10-21T02:18:44Z</time>
            </trkpt>
            <trkpt lon="101.205598" lat="14.320201">
                <ele>51.300000</ele>
                <time>2018-10-21T02:18:45Z</time>
            </trkpt>
            <trkpt lon="101.205629" lat="14.320142">
                <ele>51.200000</ele>
                <time>2018-10-21T02:18:46Z</time>
            </trkpt>
            <trkpt lon="101.205660" lat="14.320084">
                <ele>51.100000</ele>
                <time>2018-10-21T02:18:47Z</time>
            </trkpt>
            <trkpt lon="101.205694" lat="14.320028">
                <ele>51.000000</ele>
                <time>2018-10-21T02:18:48Z</time>
            </trkpt>
            <trkpt lon="101.205732" lat="14.319970">
                <ele>50.900000</ele>
                <time>2018-10-21T02:18:49Z</time>
            </trkpt>
            <trkpt lon="101.205773" lat="14.319913">
                <ele>50.700000</ele>
                <time>2018-10-21T02:18:50Z</time>
            </trkpt>
            <trkpt lon="101.205809" lat="14.319851">
                <ele>50.600000</ele>
                <time>2018-10-21T02:18:51Z</time>
            </trkpt>
            <trkpt lon="101.205848" lat="14.319791">
                <ele>50.500000</ele>
                <time>2018-10-21T02:18:52Z</time>
            </trkpt>
            <trkpt lon="101.205887" lat="14.319732">
                <ele>50.400000</ele>
                <time>2018-10-21T02:18:53Z</time>
            </trkpt>
            <trkpt lon="101.205921" lat="14.319673">
                <ele>50.300000</ele>
                <time>2018-10-21T02:18:54Z</time>
            </trkpt>
            <trkpt lon="101.205961" lat="14.319613">
                <ele>50.000000</ele>
                <time>2018-10-21T02:18:55Z</time>
            </trkpt>
            <trkpt lon="101.206001" lat="14.319553">
                <ele>49.700000</ele>
                <time>2018-10-21T02:18:56Z</time>
            </trkpt>
            <trkpt lon="101.206036" lat="14.319492">
                <ele>49.400000</ele>
                <time>2018-10-21T02:18:57Z</time>
            </trkpt>
            <trkpt lon="101.206071" lat="14.319430">
                <ele>49.000000</ele>
                <time>2018-10-21T02:18:58Z</time>
            </trkpt>
            <trkpt lon="101.206104" lat="14.319369">
                <ele>48.700000</ele>
                <time>2018-10-21T02:18:59Z</time>
            </trkpt>
            <trkpt lon="101.206137" lat="14.319307">
                <ele>48.400000</ele>
                <time>2018-10-21T02:19:00Z</time>
            </trkpt>
            <trkpt lon="101.206171" lat="14.319246">
                <ele>48.100000</ele>
                <time>2018-10-21T02:19:01Z</time>
            </trkpt>
            <trkpt lon="101.206209" lat="14.319183">
                <ele>47.800000</ele>
                <time>2018-10-21T02:19:02Z</time>
            </trkpt>
            <trkpt lon="101.206255" lat="14.319118">
                <ele>47.600000</ele>
                <time>2018-10-21T02:19:03Z</time>
            </trkpt>
            <trkpt lon="101.206297" lat="14.319052">
                <ele>47.400000</ele>
                <time>2018-10-21T02:19:04Z</time>
            </trkpt>
            <trkpt lon="101.206333" lat="14.318983">
                <ele>47.300000</ele>
                <time>2018-10-21T02:19:05Z</time>
            </trkpt>
            <trkpt lon="101.206371" lat="14.318913">
                <ele>47.200000</ele>
                <time>2018-10-21T02:19:06Z</time>
            </trkpt>
            <trkpt lon="101.206407" lat="14.318843">
                <ele>47.100000</ele>
                <time>2018-10-21T02:19:07Z</time>
            </trkpt>
            <trkpt lon="101.206447" lat="14.318773">
                <ele>47.000000</ele>
                <time>2018-10-21T02:19:08Z</time>
            </trkpt>
            <trkpt lon="101.206487" lat="14.318706">
                <ele>47.000000</ele>
                <time>2018-10-21T02:19:09Z</time>
            </trkpt>
            <trkpt lon="101.206527" lat="14.318639">
                <ele>46.900000</ele>
                <time>2018-10-21T02:19:10Z</time>
            </trkpt>
            <trkpt lon="101.206568" lat="14.318570">
                <ele>46.700000</ele>
                <time>2018-10-21T02:19:11Z</time>
            </trkpt>
            <trkpt lon="101.206608" lat="14.318503">
                <ele>46.500000</ele>
                <time>2018-10-21T02:19:12Z</time>
            </trkpt>
            <trkpt lon="101.206654" lat="14.318436">
                <ele>46.200000</ele>
                <time>2018-10-21T02:19:13Z</time>
            </trkpt>
            <trkpt lon="101.206695" lat="14.318365">
                <ele>45.900000</ele>
                <time>2018-10-21T02:19:14Z</time>
            </trkpt>
            <trkpt lon="101.206734" lat="14.318296">
                <ele>45.600000</ele>
                <time>2018-10-21T02:19:15Z</time>
            </trkpt>
            <trkpt lon="101.206773" lat="14.318227">
                <ele>45.300000</ele>
                <time>2018-10-21T02:19:16Z</time>
            </trkpt>
            <trkpt lon="101.206821" lat="14.318159">
                <ele>44.900000</ele>
                <time>2018-10-21T02:19:17Z</time>
            </trkpt>
            <trkpt lon="101.206866" lat="14.318095">
                <ele>44.600000</ele>
                <time>2018-10-21T02:19:18Z</time>
            </trkpt>
            <trkpt lon="101.206910" lat="14.318032">
                <ele>44.200000</ele>
                <time>2018-10-21T02:19:19Z</time>
            </trkpt>
            <trkpt lon="101.206956" lat="14.317967">
                <ele>43.900000</ele>
                <time>2018-10-21T02:19:20Z</time>
            </trkpt>
            <trkpt lon="101.207003" lat="14.317897">
                <ele>43.700000</ele>
                <time>2018-10-21T02:19:21Z</time>
            </trkpt>
            <trkpt lon="101.207044" lat="14.317830">
                <ele>43.600000</ele>
                <time>2018-10-21T02:19:22Z</time>
            </trkpt>
            <trkpt lon="101.207091" lat="14.317760">
                <ele>43.700000</ele>
                <time>2018-10-21T02:19:23Z</time>
            </trkpt>
            <trkpt lon="101.207134" lat="14.317690">
                <ele>43.800000</ele>
                <time>2018-10-21T02:19:24Z</time>
            </trkpt>
            <trkpt lon="101.207178" lat="14.317622">
                <ele>44.000000</ele>
                <time>2018-10-21T02:19:25Z</time>
            </trkpt>
            <trkpt lon="101.207214" lat="14.317551">
                <ele>43.900000</ele>
                <time>2018-10-21T02:19:26Z</time>
            </trkpt>
            <trkpt lon="101.207259" lat="14.317481">
                <ele>43.700000</ele>
                <time>2018-10-21T02:19:27Z</time>
            </trkpt>
            <trkpt lon="101.207301" lat="14.317416">
                <ele>43.500000</ele>
                <time>2018-10-21T02:19:28Z</time>
            </trkpt>
            <trkpt lon="101.207345" lat="14.317348">
                <ele>43.200000</ele>
                <time>2018-10-21T02:19:29Z</time>
            </trkpt>
            <trkpt lon="101.207383" lat="14.317277">
                <ele>42.800000</ele>
                <time>2018-10-21T02:19:30Z</time>
            </trkpt>
            <trkpt lon="101.207427" lat="14.317208">
                <ele>42.500000</ele>
                <time>2018-10-21T02:19:31Z</time>
            </trkpt>
            <trkpt lon="101.207469" lat="14.317139">
                <ele>42.100000</ele>
                <time>2018-10-21T02:19:32Z</time>
            </trkpt>
            <trkpt lon="101.207511" lat="14.317070">
                <ele>41.700000</ele>
                <time>2018-10-21T02:19:33Z</time>
            </trkpt>
            <trkpt lon="101.207551" lat="14.317002">
                <ele>41.400000</ele>
                <time>2018-10-21T02:19:34Z</time>
            </trkpt>
            <trkpt lon="101.207593" lat="14.316929">
                <ele>41.000000</ele>
                <time>2018-10-21T02:19:35Z</time>
            </trkpt>
            <trkpt lon="101.207639" lat="14.316860">
                <ele>40.800000</ele>
                <time>2018-10-21T02:19:36Z</time>
            </trkpt>
            <trkpt lon="101.207685" lat="14.316791">
                <ele>40.700000</ele>
                <time>2018-10-21T02:19:37Z</time>
            </trkpt>
            <trkpt lon="101.207729" lat="14.316725">
                <ele>40.900000</ele>
                <time>2018-10-21T02:19:38Z</time>
            </trkpt>
            <trkpt lon="101.207772" lat="14.316659">
                <ele>41.300000</ele>
                <time>2018-10-21T02:19:39Z</time>
            </trkpt>
            <trkpt lon="101.207811" lat="14.316592">
                <ele>41.700000</ele>
                <time>2018-10-21T02:19:40Z</time>
            </trkpt>
            <trkpt lon="101.207851" lat="14.316524">
                <ele>41.700000</ele>
                <time>2018-10-21T02:19:41Z</time>
            </trkpt>
            <trkpt lon="101.207893" lat="14.316454">
                <ele>41.600000</ele>
                <time>2018-10-21T02:19:42Z</time>
            </trkpt>
            <trkpt lon="101.207934" lat="14.316381">
                <ele>41.200000</ele>
                <time>2018-10-21T02:19:43Z</time>
            </trkpt>
            <trkpt lon="101.207975" lat="14.316307">
                <ele>40.700000</ele>
                <time>2018-10-21T02:19:44Z</time>
            </trkpt>
            <trkpt lon="101.208020" lat="14.316233">
                <ele>39.900000</ele>
                <time>2018-10-21T02:19:45Z</time>
            </trkpt>
            <trkpt lon="101.208068" lat="14.316161">
                <ele>39.100000</ele>
                <time>2018-10-21T02:19:46Z</time>
            </trkpt>
            <trkpt lon="101.208112" lat="14.316087">
                <ele>38.300000</ele>
                <time>2018-10-21T02:19:47Z</time>
            </trkpt>
            <trkpt lon="101.208156" lat="14.316014">
                <ele>37.600000</ele>
                <time>2018-10-21T02:19:48Z</time>
            </trkpt>
            <trkpt lon="101.208198" lat="14.315943">
                <ele>37.200000</ele>
                <time>2018-10-21T02:19:49Z</time>
            </trkpt>
            <trkpt lon="101.208240" lat="14.315873">
                <ele>36.700000</ele>
                <time>2018-10-21T02:19:50Z</time>
            </trkpt>
            <trkpt lon="101.208284" lat="14.315804">
                <ele>36.400000</ele>
                <time>2018-10-21T02:19:51Z</time>
            </trkpt>
            <trkpt lon="101.208328" lat="14.315734">
                <ele>36.000000</ele>
                <time>2018-10-21T02:19:52Z</time>
            </trkpt>
            <trkpt lon="101.208377" lat="14.315665">
                <ele>35.700000</ele>
                <time>2018-10-21T02:19:53Z</time>
            </trkpt>
            <trkpt lon="101.208422" lat="14.315598">
                <ele>35.300000</ele>
                <time>2018-10-21T02:19:54Z</time>
            </trkpt>
            <trkpt lon="101.208466" lat="14.315530">
                <ele>34.700000</ele>
                <time>2018-10-21T02:19:55Z</time>
            </trkpt>
            <trkpt lon="101.208508" lat="14.315462">
                <ele>34.000000</ele>
                <time>2018-10-21T02:19:56Z</time>
            </trkpt>
            <trkpt lon="101.208558" lat="14.315394">
                <ele>33.400000</ele>
                <time>2018-10-21T02:19:57Z</time>
            </trkpt>
            <trkpt lon="101.208605" lat="14.315329">
                <ele>33.000000</ele>
                <time>2018-10-21T02:19:58Z</time>
            </trkpt>
            <trkpt lon="101.208654" lat="14.315265">
                <ele>33.000000</ele>
                <time>2018-10-21T02:19:59Z</time>
            </trkpt>
            <trkpt lon="101.208695" lat="14.315199">
                <ele>33.700000</ele>
                <time>2018-10-21T02:20:00Z</time>
            </trkpt>
            <trkpt lon="101.208742" lat="14.315134">
                <ele>34.800000</ele>
                <time>2018-10-21T02:20:01Z</time>
            </trkpt>
            <trkpt lon="101.208789" lat="14.315070">
                <ele>36.200000</ele>
                <time>2018-10-21T02:20:02Z</time>
            </trkpt>
            <trkpt lon="101.208846" lat="14.315008">
                <ele>37.600000</ele>
                <time>2018-10-21T02:20:03Z</time>
            </trkpt>
            <trkpt lon="101.208899" lat="14.314949">
                <ele>39.100000</ele>
                <time>2018-10-21T02:20:04Z</time>
            </trkpt>
            <trkpt lon="101.208952" lat="14.314887">
                <ele>38.800000</ele>
                <time>2018-10-21T02:20:05Z</time>
            </trkpt>
            <trkpt lon="101.209004" lat="14.314817">
                <ele>38.400000</ele>
                <time>2018-10-21T02:20:06Z</time>
            </trkpt>
            <trkpt lon="101.209049" lat="14.314747">
                <ele>38.200000</ele>
                <time>2018-10-21T02:20:07Z</time>
            </trkpt>
            <trkpt lon="101.209095" lat="14.314677">
                <ele>37.900000</ele>
                <time>2018-10-21T02:20:08Z</time>
            </trkpt>
            <trkpt lon="101.209142" lat="14.314604">
                <ele>37.700000</ele>
                <time>2018-10-21T02:20:09Z</time>
            </trkpt>
            <trkpt lon="101.209188" lat="14.314538">
                <ele>37.500000</ele>
                <time>2018-10-21T02:20:10Z</time>
            </trkpt>
            <trkpt lon="101.209232" lat="14.314470">
                <ele>37.400000</ele>
                <time>2018-10-21T02:20:11Z</time>
            </trkpt>
            <trkpt lon="101.209273" lat="14.314402">
                <ele>37.300000</ele>
                <time>2018-10-21T02:20:12Z</time>
            </trkpt>
            <trkpt lon="101.209319" lat="14.314336">
                <ele>37.300000</ele>
                <time>2018-10-21T02:20:13Z</time>
            </trkpt>
            <trkpt lon="101.209357" lat="14.314269">
                <ele>37.300000</ele>
                <time>2018-10-21T02:20:14Z</time>
            </trkpt>
            <trkpt lon="101.209395" lat="14.314201">
                <ele>37.400000</ele>
                <time>2018-10-21T02:20:15Z</time>
            </trkpt>
            <trkpt lon="101.209429" lat="14.314126">
                <ele>37.400000</ele>
                <time>2018-10-21T02:20:16Z</time>
            </trkpt>
            <trkpt lon="101.209462" lat="14.314053">
                <ele>37.500000</ele>
                <time>2018-10-21T02:20:17Z</time>
            </trkpt>
            <trkpt lon="101.209493" lat="14.313979">
                <ele>37.600000</ele>
                <time>2018-10-21T02:20:18Z</time>
            </trkpt>
            <trkpt lon="101.209524" lat="14.313905">
                <ele>37.600000</ele>
                <time>2018-10-21T02:20:19Z</time>
            </trkpt>
            <trkpt lon="101.209557" lat="14.313833">
                <ele>37.600000</ele>
                <time>2018-10-21T02:20:20Z</time>
            </trkpt>
            <trkpt lon="101.209593" lat="14.313763">
                <ele>37.500000</ele>
                <time>2018-10-21T02:20:21Z</time>
            </trkpt>
            <trkpt lon="101.209629" lat="14.313691">
                <ele>37.400000</ele>
                <time>2018-10-21T02:20:22Z</time>
            </trkpt>
            <trkpt lon="101.209661" lat="14.313623">
                <ele>37.200000</ele>
                <time>2018-10-21T02:20:23Z</time>
            </trkpt>
            <trkpt lon="101.209690" lat="14.313552">
                <ele>37.100000</ele>
                <time>2018-10-21T02:20:24Z</time>
            </trkpt>
            <trkpt lon="101.209726" lat="14.313486">
                <ele>37.000000</ele>
                <time>2018-10-21T02:20:25Z</time>
            </trkpt>
            <trkpt lon="101.209759" lat="14.313419">
                <ele>36.900000</ele>
                <time>2018-10-21T02:20:26Z</time>
            </trkpt>
            <trkpt lon="101.209794" lat="14.313346">
                <ele>36.800000</ele>
                <time>2018-10-21T02:20:27Z</time>
            </trkpt>
            <trkpt lon="101.209832" lat="14.313272">
                <ele>36.800000</ele>
                <time>2018-10-21T02:20:28Z</time>
            </trkpt>
            <trkpt lon="101.209866" lat="14.313198">
                <ele>36.700000</ele>
                <time>2018-10-21T02:20:29Z</time>
            </trkpt>
            <trkpt lon="101.209897" lat="14.313125">
                <ele>36.700000</ele>
                <time>2018-10-21T02:20:30Z</time>
            </trkpt>
            <trkpt lon="101.209931" lat="14.313056">
                <ele>36.700000</ele>
                <time>2018-10-21T02:20:31Z</time>
            </trkpt>
            <trkpt lon="101.209968" lat="14.312988">
                <ele>36.700000</ele>
                <time>2018-10-21T02:20:32Z</time>
            </trkpt>
            <trkpt lon="101.210002" lat="14.312918">
                <ele>36.700000</ele>
                <time>2018-10-21T02:20:33Z</time>
            </trkpt>
            <trkpt lon="101.210032" lat="14.312841">
                <ele>36.700000</ele>
                <time>2018-10-21T02:20:34Z</time>
            </trkpt>
            <trkpt lon="101.210068" lat="14.312766">
                <ele>36.600000</ele>
                <time>2018-10-21T02:20:35Z</time>
            </trkpt>
            <trkpt lon="101.210099" lat="14.312691">
                <ele>36.600000</ele>
                <time>2018-10-21T02:20:36Z</time>
            </trkpt>
            <trkpt lon="101.210126" lat="14.312618">
                <ele>36.500000</ele>
                <time>2018-10-21T02:20:37Z</time>
            </trkpt>
            <trkpt lon="101.210158" lat="14.312542">
                <ele>36.400000</ele>
                <time>2018-10-21T02:20:38Z</time>
            </trkpt>
            <trkpt lon="101.210193" lat="14.312469">
                <ele>36.400000</ele>
                <time>2018-10-21T02:20:39Z</time>
            </trkpt>
            <trkpt lon="101.210227" lat="14.312396">
                <ele>36.300000</ele>
                <time>2018-10-21T02:20:40Z</time>
            </trkpt>
            <trkpt lon="101.210259" lat="14.312321">
                <ele>36.300000</ele>
                <time>2018-10-21T02:20:41Z</time>
            </trkpt>
            <trkpt lon="101.210295" lat="14.312245">
                <ele>36.300000</ele>
                <time>2018-10-21T02:20:42Z</time>
            </trkpt>
            <trkpt lon="101.210327" lat="14.312175">
                <ele>36.400000</ele>
                <time>2018-10-21T02:20:43Z</time>
            </trkpt>
            <trkpt lon="101.210362" lat="14.312103">
                <ele>36.500000</ele>
                <time>2018-10-21T02:20:44Z</time>
            </trkpt>
            <trkpt lon="101.210396" lat="14.312031">
                <ele>36.700000</ele>
                <time>2018-10-21T02:20:45Z</time>
            </trkpt>
            <trkpt lon="101.210433" lat="14.311957">
                <ele>37.000000</ele>
                <time>2018-10-21T02:20:46Z</time>
            </trkpt>
            <trkpt lon="101.210471" lat="14.311888">
                <ele>37.200000</ele>
                <time>2018-10-21T02:20:47Z</time>
            </trkpt>
            <trkpt lon="101.210506" lat="14.311814">
                <ele>37.400000</ele>
                <time>2018-10-21T02:20:48Z</time>
            </trkpt>
            <trkpt lon="101.210539" lat="14.311738">
                <ele>37.500000</ele>
                <time>2018-10-21T02:20:49Z</time>
            </trkpt>
            <trkpt lon="101.210579" lat="14.311673">
                <ele>37.700000</ele>
                <time>2018-10-21T02:20:50Z</time>
            </trkpt>
            <trkpt lon="101.210615" lat="14.311601">
                <ele>37.800000</ele>
                <time>2018-10-21T02:20:51Z</time>
            </trkpt>
            <trkpt lon="101.210651" lat="14.311531">
                <ele>37.600000</ele>
                <time>2018-10-21T02:20:52Z</time>
            </trkpt>
            <trkpt lon="101.210678" lat="14.311460">
                <ele>37.400000</ele>
                <time>2018-10-21T02:20:53Z</time>
            </trkpt>
            <trkpt lon="101.210707" lat="14.311386">
                <ele>37.300000</ele>
                <time>2018-10-21T02:20:54Z</time>
            </trkpt>
            <trkpt lon="101.210742" lat="14.311314">
                <ele>37.100000</ele>
                <time>2018-10-21T02:20:55Z</time>
            </trkpt>
            <trkpt lon="101.210774" lat="14.311246">
                <ele>37.000000</ele>
                <time>2018-10-21T02:20:56Z</time>
            </trkpt>
            <trkpt lon="101.210808" lat="14.311176">
                <ele>36.800000</ele>
                <time>2018-10-21T02:20:57Z</time>
            </trkpt>
            <trkpt lon="101.210841" lat="14.311106">
                <ele>36.600000</ele>
                <time>2018-10-21T02:20:58Z</time>
            </trkpt>
            <trkpt lon="101.210876" lat="14.311036">
                <ele>36.600000</ele>
                <time>2018-10-21T02:20:59Z</time>
            </trkpt>
            <trkpt lon="101.210913" lat="14.310967">
                <ele>36.600000</ele>
                <time>2018-10-21T02:21:00Z</time>
            </trkpt>
            <trkpt lon="101.210948" lat="14.310895">
                <ele>36.600000</ele>
                <time>2018-10-21T02:21:01Z</time>
            </trkpt>
            <trkpt lon="101.210984" lat="14.310828">
                <ele>36.600000</ele>
                <time>2018-10-21T02:21:02Z</time>
            </trkpt>
            <trkpt lon="101.211017" lat="14.310756">
                <ele>36.500000</ele>
                <time>2018-10-21T02:21:03Z</time>
            </trkpt>
            <trkpt lon="101.211048" lat="14.310685">
                <ele>36.300000</ele>
                <time>2018-10-21T02:21:04Z</time>
            </trkpt>
            <trkpt lon="101.211083" lat="14.310608">
                <ele>36.100000</ele>
                <time>2018-10-21T02:21:05Z</time>
            </trkpt>
            <trkpt lon="101.211118" lat="14.310534">
                <ele>35.900000</ele>
                <time>2018-10-21T02:21:06Z</time>
            </trkpt>
            <trkpt lon="101.211157" lat="14.310462">
                <ele>35.700000</ele>
                <time>2018-10-21T02:21:07Z</time>
            </trkpt>
            <trkpt lon="101.211195" lat="14.310393">
                <ele>35.600000</ele>
                <time>2018-10-21T02:21:08Z</time>
            </trkpt>
            <trkpt lon="101.211229" lat="14.310323">
                <ele>35.400000</ele>
                <time>2018-10-21T02:21:09Z</time>
            </trkpt>
            <trkpt lon="101.211259" lat="14.310250">
                <ele>35.100000</ele>
                <time>2018-10-21T02:21:10Z</time>
            </trkpt>
            <trkpt lon="101.211293" lat="14.310176">
                <ele>34.700000</ele>
                <time>2018-10-21T02:21:11Z</time>
            </trkpt>
            <trkpt lon="101.211332" lat="14.310108">
                <ele>34.300000</ele>
                <time>2018-10-21T02:21:12Z</time>
            </trkpt>
            <trkpt lon="101.211366" lat="14.310036">
                <ele>33.900000</ele>
                <time>2018-10-21T02:21:13Z</time>
            </trkpt>
            <trkpt lon="101.211400" lat="14.309959">
                <ele>33.600000</ele>
                <time>2018-10-21T02:21:14Z</time>
            </trkpt>
            <trkpt lon="101.211431" lat="14.309885">
                <ele>33.500000</ele>
                <time>2018-10-21T02:21:15Z</time>
            </trkpt>
            <trkpt lon="101.211467" lat="14.309810">
                <ele>33.500000</ele>
                <time>2018-10-21T02:21:16Z</time>
            </trkpt>
            <trkpt lon="101.211507" lat="14.309735">
                <ele>33.600000</ele>
                <time>2018-10-21T02:21:17Z</time>
            </trkpt>
            <trkpt lon="101.211546" lat="14.309661">
                <ele>33.600000</ele>
                <time>2018-10-21T02:21:18Z</time>
            </trkpt>
            <trkpt lon="101.211588" lat="14.309588">
                <ele>33.700000</ele>
                <time>2018-10-21T02:21:19Z</time>
            </trkpt>
            <trkpt lon="101.211620" lat="14.309512">
                <ele>33.600000</ele>
                <time>2018-10-21T02:21:20Z</time>
            </trkpt>
            <trkpt lon="101.211656" lat="14.309436">
                <ele>33.600000</ele>
                <time>2018-10-21T02:21:21Z</time>
            </trkpt>
            <trkpt lon="101.211695" lat="14.309361">
                <ele>33.400000</ele>
                <time>2018-10-21T02:21:22Z</time>
            </trkpt>
            <trkpt lon="101.211724" lat="14.309284">
                <ele>33.200000</ele>
                <time>2018-10-21T02:21:23Z</time>
            </trkpt>
            <trkpt lon="101.211755" lat="14.309211">
                <ele>33.100000</ele>
                <time>2018-10-21T02:21:24Z</time>
            </trkpt>
            <trkpt lon="101.211794" lat="14.309141">
                <ele>32.900000</ele>
                <time>2018-10-21T02:21:25Z</time>
            </trkpt>
            <trkpt lon="101.211828" lat="14.309068">
                <ele>32.700000</ele>
                <time>2018-10-21T02:21:26Z</time>
            </trkpt>
            <trkpt lon="101.211864" lat="14.309000">
                <ele>32.600000</ele>
                <time>2018-10-21T02:21:27Z</time>
            </trkpt>
            <trkpt lon="101.211896" lat="14.308928">
                <ele>32.500000</ele>
                <time>2018-10-21T02:21:28Z</time>
            </trkpt>
            <trkpt lon="101.211929" lat="14.308860">
                <ele>32.400000</ele>
                <time>2018-10-21T02:21:29Z</time>
            </trkpt>
            <trkpt lon="101.211965" lat="14.308792">
                <ele>32.200000</ele>
                <time>2018-10-21T02:21:30Z</time>
            </trkpt>
            <trkpt lon="101.211994" lat="14.308724">
                <ele>32.100000</ele>
                <time>2018-10-21T02:21:31Z</time>
            </trkpt>
            <trkpt lon="101.212027" lat="14.308663">
                <ele>31.900000</ele>
                <time>2018-10-21T02:21:32Z</time>
            </trkpt>
            <trkpt lon="101.212056" lat="14.308599">
                <ele>31.800000</ele>
                <time>2018-10-21T02:21:33Z</time>
            </trkpt>
            <trkpt lon="101.212087" lat="14.308545">
                <ele>31.600000</ele>
                <time>2018-10-21T02:21:34Z</time>
            </trkpt>
            <trkpt lon="101.212133" lat="14.308510">
                <ele>31.500000</ele>
                <time>2018-10-21T02:21:35Z</time>
            </trkpt>
            <trkpt lon="101.212194" lat="14.308501">
                <ele>31.000000</ele>
                <time>2018-10-21T02:21:36Z</time>
            </trkpt>
            <trkpt lon="101.212253" lat="14.308511">
                <ele>30.700000</ele>
                <time>2018-10-21T02:21:37Z</time>
            </trkpt>
            <trkpt lon="101.212301" lat="14.308528">
                <ele>30.500000</ele>
                <time>2018-10-21T02:21:38Z</time>
            </trkpt>
            <trkpt lon="101.212349" lat="14.308548">
                <ele>30.300000</ele>
                <time>2018-10-21T02:21:39Z</time>
            </trkpt>
            <trkpt lon="101.212394" lat="14.308570">
                <ele>30.800000</ele>
                <time>2018-10-21T02:21:40Z</time>
            </trkpt>
            <trkpt lon="101.212426" lat="14.308600">
                <ele>31.300000</ele>
                <time>2018-10-21T02:21:41Z</time>
            </trkpt>
            <trkpt lon="101.212452" lat="14.308637">
                <ele>31.700000</ele>
                <time>2018-10-21T02:21:42Z</time>
            </trkpt>
            <trkpt lon="101.212459" lat="14.308679">
                <ele>32.200000</ele>
                <time>2018-10-21T02:21:43Z</time>
            </trkpt>
            <trkpt lon="101.212447" lat="14.308725">
                <ele>32.700000</ele>
                <time>2018-10-21T02:21:44Z</time>
            </trkpt>
            <trkpt lon="101.212442" lat="14.308764">
                <ele>33.100000</ele>
                <time>2018-10-21T02:21:45Z</time>
            </trkpt>
            <trkpt lon="101.212430" lat="14.308799">
                <ele>33.500000</ele>
                <time>2018-10-21T02:21:46Z</time>
            </trkpt>
            <trkpt lon="101.212426" lat="14.308833">
                <ele>33.800000</ele>
                <time>2018-10-21T02:21:47Z</time>
            </trkpt>
            <trkpt lon="101.212417" lat="14.308868">
                <ele>34.100000</ele>
                <time>2018-10-21T02:21:48Z</time>
            </trkpt>
            <trkpt lon="101.212409" lat="14.308905">
                <ele>34.500000</ele>
                <time>2018-10-21T02:21:49Z</time>
            </trkpt>
            <trkpt lon="101.212401" lat="14.308939">
                <ele>34.800000</ele>
                <time>2018-10-21T02:21:50Z</time>
            </trkpt>
            <trkpt lon="101.212390" lat="14.308972">
                <ele>35.100000</ele>
                <time>2018-10-21T02:21:51Z</time>
            </trkpt>
            <trkpt lon="101.212384" lat="14.309000">
                <ele>35.400000</ele>
                <time>2018-10-21T02:21:52Z</time>
            </trkpt>
            <trkpt lon="101.212377" lat="14.309027">
                <ele>35.600000</ele>
                <time>2018-10-21T02:21:53Z</time>
            </trkpt>
            <trkpt lon="101.212370" lat="14.309077">
                <ele>36.100000</ele>
                <time>2018-10-21T02:21:55Z</time>
            </trkpt>
            <trkpt lon="101.212372" lat="14.309121">
                <ele>36.600000</ele>
                <time>2018-10-21T02:21:57Z</time>
            </trkpt>
            <trkpt lon="101.212375" lat="14.309160">
                <ele>37.000000</ele>
                <time>2018-10-21T02:21:59Z</time>
            </trkpt>
            <trkpt lon="101.212374" lat="14.309203">
                <ele>37.400000</ele>
                <time>2018-10-21T02:22:01Z</time>
            </trkpt>
            <trkpt lon="101.212393" lat="14.309241">
                <ele>37.800000</ele>
                <time>2018-10-21T02:22:03Z</time>
            </trkpt>
            <trkpt lon="101.212412" lat="14.309277">
                <ele>38.200000</ele>
                <time>2018-10-21T02:22:05Z</time>
            </trkpt>
            <trkpt lon="101.212424" lat="14.309311">
                <ele>38.600000</ele>
                <time>2018-10-21T02:22:07Z</time>
            </trkpt>
            <trkpt lon="101.212441" lat="14.309337">
                <ele>38.800000</ele>
                <time>2018-10-21T02:22:10Z</time>
            </trkpt>
            <trkpt lon="101.212446" lat="14.309372">
                <ele>39.200000</ele>
                <time>2018-10-21T02:22:13Z</time>
            </trkpt>
            <trkpt lon="101.212473" lat="14.309381">
                <ele>39.400000</ele>
                <time>2018-10-21T02:22:16Z</time>
            </trkpt>
            <trkpt lon="101.212497" lat="14.309397">
                <ele>39.700000</ele>
                <time>2018-10-21T02:22:19Z</time>
            </trkpt>
            <trkpt lon="101.212491" lat="14.309432">
                <ele>40.000000</ele>
                <time>2018-10-21T02:22:22Z</time>
            </trkpt>
            <trkpt lon="101.212514" lat="14.309450">
                <ele>40.300000</ele>
                <time>2018-10-21T02:22:24Z</time>
            </trkpt>
            <trkpt lon="101.212544" lat="14.309448">
                <ele>40.600000</ele>
                <time>2018-10-21T02:22:26Z</time>
            </trkpt>
            <trkpt lon="101.212559" lat="14.309479">
                <ele>40.900000</ele>
                <time>2018-10-21T02:22:29Z</time>
            </trkpt>
            <trkpt lon="101.212551" lat="14.309513">
                <ele>41.300000</ele>
                <time>2018-10-21T02:22:32Z</time>
            </trkpt>
            <trkpt lon="101.212582" lat="14.309526">
                <ele>41.600000</ele>
                <time>2018-10-21T02:22:35Z</time>
            </trkpt>
            <trkpt lon="101.212606" lat="14.309541">
                <ele>41.900000</ele>
                <time>2018-10-21T02:22:37Z</time>
            </trkpt>
            <trkpt lon="101.212597" lat="14.309571">
                <ele>42.200000</ele>
                <time>2018-10-21T02:22:40Z</time>
            </trkpt>
            <trkpt lon="101.212598" lat="14.309598">
                <ele>42.500000</ele>
                <time>2018-10-21T02:22:43Z</time>
            </trkpt>
            <trkpt lon="101.212628" lat="14.309605">
                <ele>42.800000</ele>
                <time>2018-10-21T02:22:45Z</time>
            </trkpt>
            <trkpt lon="101.212655" lat="14.309622">
                <ele>43.100000</ele>
                <time>2018-10-21T02:22:48Z</time>
            </trkpt>
            <trkpt lon="101.212659" lat="14.309662">
                <ele>43.500000</ele>
                <time>2018-10-21T02:22:51Z</time>
            </trkpt>
            <trkpt lon="101.212685" lat="14.309680">
                <ele>43.700000</ele>
                <time>2018-10-21T02:22:53Z</time>
            </trkpt>
            <trkpt lon="101.212723" lat="14.309681">
                <ele>44.000000</ele>
                <time>2018-10-21T02:22:56Z</time>
            </trkpt>
            <trkpt lon="101.212745" lat="14.309707">
                <ele>44.300000</ele>
                <time>2018-10-21T02:22:59Z</time>
            </trkpt>
            <trkpt lon="101.212755" lat="14.309743">
                <ele>44.700000</ele>
                <time>2018-10-21T02:23:02Z</time>
            </trkpt>
            <trkpt lon="101.212777" lat="14.309772">
                <ele>45.100000</ele>
                <time>2018-10-21T02:23:05Z</time>
            </trkpt>
            <trkpt lon="101.212820" lat="14.309784">
                <ele>45.600000</ele>
                <time>2018-10-21T02:23:09Z</time>
            </trkpt>
            <trkpt lon="101.212852" lat="14.309797">
                <ele>45.900000</ele>
                <time>2018-10-21T02:23:11Z</time>
            </trkpt>
            <trkpt lon="101.212890" lat="14.309814">
                <ele>46.200000</ele>
                <time>2018-10-21T02:23:14Z</time>
            </trkpt>
            <trkpt lon="101.212920" lat="14.309829">
                <ele>46.400000</ele>
                <time>2018-10-21T02:23:16Z</time>
            </trkpt>
            <trkpt lon="101.212951" lat="14.309843">
                <ele>46.800000</ele>
                <time>2018-10-21T02:23:18Z</time>
            </trkpt>
            <trkpt lon="101.212989" lat="14.309848">
                <ele>47.200000</ele>
                <time>2018-10-21T02:23:20Z</time>
            </trkpt>
            <trkpt lon="101.213027" lat="14.309854">
                <ele>48.100000</ele>
                <time>2018-10-21T02:23:22Z</time>
            </trkpt>
            <trkpt lon="101.213057" lat="14.309873">
                <ele>48.200000</ele>
                <time>2018-10-21T02:23:24Z</time>
            </trkpt>
            <trkpt lon="101.213079" lat="14.309907">
                <ele>48.500000</ele>
                <time>2018-10-21T02:23:26Z</time>
            </trkpt>
            <trkpt lon="101.213097" lat="14.309934">
                <ele>48.600000</ele>
                <time>2018-10-21T02:23:28Z</time>
            </trkpt>
            <trkpt lon="101.213111" lat="14.309965">
                <ele>48.800000</ele>
                <time>2018-10-21T02:23:30Z</time>
            </trkpt>
            <trkpt lon="101.213124" lat="14.309996">
                <ele>49.000000</ele>
                <time>2018-10-21T02:23:32Z</time>
            </trkpt>
            <trkpt lon="101.213136" lat="14.310025">
                <ele>49.100000</ele>
                <time>2018-10-21T02:23:34Z</time>
            </trkpt>
            <trkpt lon="101.213138" lat="14.310056">
                <ele>49.200000</ele>
                <time>2018-10-21T02:23:36Z</time>
            </trkpt>
            <trkpt lon="101.213146" lat="14.310090">
                <ele>49.300000</ele>
                <time>2018-10-21T02:23:38Z</time>
            </trkpt>
            <trkpt lon="101.213163" lat="14.310127">
                <ele>49.300000</ele>
                <time>2018-10-21T02:23:40Z</time>
            </trkpt>
            <trkpt lon="101.213174" lat="14.310165">
                <ele>49.400000</ele>
                <time>2018-10-21T02:23:42Z</time>
            </trkpt>
            <trkpt lon="101.213189" lat="14.310198">
                <ele>49.400000</ele>
                <time>2018-10-21T02:23:44Z</time>
            </trkpt>
            <trkpt lon="101.213200" lat="14.310239">
                <ele>49.500000</ele>
                <time>2018-10-21T02:23:46Z</time>
            </trkpt>
            <trkpt lon="101.213209" lat="14.310270">
                <ele>49.500000</ele>
                <time>2018-10-21T02:23:48Z</time>
            </trkpt>
            <trkpt lon="101.213216" lat="14.310303">
                <ele>49.500000</ele>
                <time>2018-10-21T02:23:50Z</time>
            </trkpt>
            <trkpt lon="101.213230" lat="14.310335">
                <ele>49.600000</ele>
                <time>2018-10-21T02:23:52Z</time>
            </trkpt>
            <trkpt lon="101.213239" lat="14.310373">
                <ele>49.600000</ele>
                <time>2018-10-21T02:23:54Z</time>
            </trkpt>
            <trkpt lon="101.213259" lat="14.310415">
                <ele>49.600000</ele>
                <time>2018-10-21T02:23:56Z</time>
            </trkpt>
            <trkpt lon="101.213276" lat="14.310465">
                <ele>49.600000</ele>
                <time>2018-10-21T02:23:58Z</time>
            </trkpt>
            <trkpt lon="101.213278" lat="14.310496">
                <ele>49.600000</ele>
                <time>2018-10-21T02:23:59Z</time>
            </trkpt>
            <trkpt lon="101.213276" lat="14.310527">
                <ele>49.600000</ele>
                <time>2018-10-21T02:24:00Z</time>
            </trkpt>
            <trkpt lon="101.213280" lat="14.310556">
                <ele>49.500000</ele>
                <time>2018-10-21T02:24:01Z</time>
            </trkpt>
            <trkpt lon="101.213283" lat="14.310588">
                <ele>49.500000</ele>
                <time>2018-10-21T02:24:02Z</time>
            </trkpt>
            <trkpt lon="101.213284" lat="14.310618">
                <ele>49.500000</ele>
                <time>2018-10-21T02:24:03Z</time>
            </trkpt>
            <trkpt lon="101.213278" lat="14.310648">
                <ele>49.500000</ele>
                <time>2018-10-21T02:24:04Z</time>
            </trkpt>
            <trkpt lon="101.213277" lat="14.310679">
                <ele>49.400000</ele>
                <time>2018-10-21T02:24:05Z</time>
            </trkpt>
            <trkpt lon="101.213284" lat="14.310712">
                <ele>49.400000</ele>
                <time>2018-10-21T02:24:06Z</time>
            </trkpt>
            <trkpt lon="101.213294" lat="14.310747">
                <ele>49.400000</ele>
                <time>2018-10-21T02:24:07Z</time>
            </trkpt>
            <trkpt lon="101.213302" lat="14.310784">
                <ele>49.400000</ele>
                <time>2018-10-21T02:24:08Z</time>
            </trkpt>
            <trkpt lon="101.213309" lat="14.310813">
                <ele>49.400000</ele>
                <time>2018-10-21T02:24:09Z</time>
            </trkpt>
            <trkpt lon="101.213312" lat="14.310845">
                <ele>49.400000</ele>
                <time>2018-10-21T02:24:10Z</time>
            </trkpt>
            <trkpt lon="101.213316" lat="14.310875">
                <ele>49.400000</ele>
                <time>2018-10-21T02:24:11Z</time>
            </trkpt>
            <trkpt lon="101.213319" lat="14.310904">
                <ele>49.400000</ele>
                <time>2018-10-21T02:24:12Z</time>
            </trkpt>
            <trkpt lon="101.213318" lat="14.310934">
                <ele>49.400000</ele>
                <time>2018-10-21T02:24:13Z</time>
            </trkpt>
            <trkpt lon="101.213321" lat="14.310966">
                <ele>49.400000</ele>
                <time>2018-10-21T02:24:14Z</time>
            </trkpt>
            <trkpt lon="101.213325" lat="14.310999">
                <ele>49.500000</ele>
                <time>2018-10-21T02:24:15Z</time>
            </trkpt>
            <trkpt lon="101.213324" lat="14.311034">
                <ele>49.500000</ele>
                <time>2018-10-21T02:24:16Z</time>
            </trkpt>
            <trkpt lon="101.213322" lat="14.311069">
                <ele>49.600000</ele>
                <time>2018-10-21T02:24:17Z</time>
            </trkpt>
            <trkpt lon="101.213324" lat="14.311101">
                <ele>49.600000</ele>
                <time>2018-10-21T02:24:18Z</time>
            </trkpt>
            <trkpt lon="101.213330" lat="14.311135">
                <ele>49.700000</ele>
                <time>2018-10-21T02:24:19Z</time>
            </trkpt>
            <trkpt lon="101.213334" lat="14.311167">
                <ele>49.800000</ele>
                <time>2018-10-21T02:24:20Z</time>
            </trkpt>
            <trkpt lon="101.213336" lat="14.311200">
                <ele>49.900000</ele>
                <time>2018-10-21T02:24:21Z</time>
            </trkpt>
            <trkpt lon="101.213338" lat="14.311232">
                <ele>50.000000</ele>
                <time>2018-10-21T02:24:22Z</time>
            </trkpt>
            <trkpt lon="101.213343" lat="14.311264">
                <ele>50.000000</ele>
                <time>2018-10-21T02:24:23Z</time>
            </trkpt>
            <trkpt lon="101.213346" lat="14.311298">
                <ele>50.100000</ele>
                <time>2018-10-21T02:24:24Z</time>
            </trkpt>
            <trkpt lon="101.213349" lat="14.311328">
                <ele>50.200000</ele>
                <time>2018-10-21T02:24:25Z</time>
            </trkpt>
            <trkpt lon="101.213348" lat="14.311360">
                <ele>50.200000</ele>
                <time>2018-10-21T02:24:26Z</time>
            </trkpt>
            <trkpt lon="101.213343" lat="14.311396">
                <ele>50.200000</ele>
                <time>2018-10-21T02:24:27Z</time>
            </trkpt>
            <trkpt lon="101.213337" lat="14.311433">
                <ele>50.200000</ele>
                <time>2018-10-21T02:24:28Z</time>
            </trkpt>
            <trkpt lon="101.213333" lat="14.311474">
                <ele>50.100000</ele>
                <time>2018-10-21T02:24:29Z</time>
            </trkpt>
            <trkpt lon="101.213326" lat="14.311519">
                <ele>50.000000</ele>
                <time>2018-10-21T02:24:30Z</time>
            </trkpt>
            <trkpt lon="101.213315" lat="14.311562">
                <ele>49.800000</ele>
                <time>2018-10-21T02:24:31Z</time>
            </trkpt>
            <trkpt lon="101.213312" lat="14.311605">
                <ele>49.700000</ele>
                <time>2018-10-21T02:24:32Z</time>
            </trkpt>
            <trkpt lon="101.213311" lat="14.311652">
                <ele>49.600000</ele>
                <time>2018-10-21T02:24:33Z</time>
            </trkpt>
            <trkpt lon="101.213305" lat="14.311695">
                <ele>49.500000</ele>
                <time>2018-10-21T02:24:34Z</time>
            </trkpt>
            <trkpt lon="101.213301" lat="14.311742">
                <ele>49.500000</ele>
                <time>2018-10-21T02:24:35Z</time>
            </trkpt>
            <trkpt lon="101.213302" lat="14.311788">
                <ele>49.500000</ele>
                <time>2018-10-21T02:24:36Z</time>
            </trkpt>
            <trkpt lon="101.213309" lat="14.311838">
                <ele>49.600000</ele>
                <time>2018-10-21T02:24:37Z</time>
            </trkpt>
            <trkpt lon="101.213317" lat="14.311882">
                <ele>49.700000</ele>
                <time>2018-10-21T02:24:38Z</time>
            </trkpt>
            <trkpt lon="101.213328" lat="14.311927">
                <ele>49.700000</ele>
                <time>2018-10-21T02:24:39Z</time>
            </trkpt>
            <trkpt lon="101.213329" lat="14.311971">
                <ele>49.700000</ele>
                <time>2018-10-21T02:24:40Z</time>
            </trkpt>
            <trkpt lon="101.213334" lat="14.312015">
                <ele>49.700000</ele>
                <time>2018-10-21T02:24:41Z</time>
            </trkpt>
            <trkpt lon="101.213342" lat="14.312059">
                <ele>49.700000</ele>
                <time>2018-10-21T02:24:42Z</time>
            </trkpt>
            <trkpt lon="101.213352" lat="14.312104">
                <ele>49.700000</ele>
                <time>2018-10-21T02:24:43Z</time>
            </trkpt>
            <trkpt lon="101.213364" lat="14.312147">
                <ele>49.700000</ele>
                <time>2018-10-21T02:24:44Z</time>
            </trkpt>
            <trkpt lon="101.213378" lat="14.312190">
                <ele>49.700000</ele>
                <time>2018-10-21T02:24:45Z</time>
            </trkpt>
            <trkpt lon="101.213378" lat="14.312233">
                <ele>49.800000</ele>
                <time>2018-10-21T02:24:46Z</time>
            </trkpt>
            <trkpt lon="101.213361" lat="14.312272">
                <ele>49.800000</ele>
                <time>2018-10-21T02:24:47Z</time>
            </trkpt>
            <trkpt lon="101.213335" lat="14.312307">
                <ele>49.800000</ele>
                <time>2018-10-21T02:24:48Z</time>
            </trkpt>
            <trkpt lon="101.213301" lat="14.312341">
                <ele>49.800000</ele>
                <time>2018-10-21T02:24:49Z</time>
            </trkpt>
            <trkpt lon="101.213266" lat="14.312372">
                <ele>49.800000</ele>
                <time>2018-10-21T02:24:50Z</time>
            </trkpt>
            <trkpt lon="101.213233" lat="14.312404">
                <ele>49.700000</ele>
                <time>2018-10-21T02:24:51Z</time>
            </trkpt>
            <trkpt lon="101.213198" lat="14.312434">
                <ele>49.700000</ele>
                <time>2018-10-21T02:24:52Z</time>
            </trkpt>
            <trkpt lon="101.213161" lat="14.312462">
                <ele>49.700000</ele>
                <time>2018-10-21T02:24:53Z</time>
            </trkpt>
            <trkpt lon="101.213129" lat="14.312490">
                <ele>49.600000</ele>
                <time>2018-10-21T02:24:54Z</time>
            </trkpt>
            <trkpt lon="101.213094" lat="14.312518">
                <ele>49.600000</ele>
                <time>2018-10-21T02:24:55Z</time>
            </trkpt>
            <trkpt lon="101.213055" lat="14.312550">
                <ele>49.600000</ele>
                <time>2018-10-21T02:24:56Z</time>
            </trkpt>
            <trkpt lon="101.213018" lat="14.312586">
                <ele>49.600000</ele>
                <time>2018-10-21T02:24:57Z</time>
            </trkpt>
            <trkpt lon="101.212991" lat="14.312625">
                <ele>49.600000</ele>
                <time>2018-10-21T02:24:58Z</time>
            </trkpt>
            <trkpt lon="101.212966" lat="14.312659">
                <ele>49.600000</ele>
                <time>2018-10-21T02:24:59Z</time>
            </trkpt>
            <trkpt lon="101.212947" lat="14.312693">
                <ele>49.600000</ele>
                <time>2018-10-21T02:25:00Z</time>
            </trkpt>
            <trkpt lon="101.212934" lat="14.312738">
                <ele>49.600000</ele>
                <time>2018-10-21T02:25:01Z</time>
            </trkpt>
            <trkpt lon="101.212928" lat="14.312780">
                <ele>49.600000</ele>
                <time>2018-10-21T02:25:02Z</time>
            </trkpt>
            <trkpt lon="101.212926" lat="14.312819">
                <ele>49.600000</ele>
                <time>2018-10-21T02:25:03Z</time>
            </trkpt>
            <trkpt lon="101.212917" lat="14.312860">
                <ele>49.600000</ele>
                <time>2018-10-21T02:25:04Z</time>
            </trkpt>
            <trkpt lon="101.212913" lat="14.312901">
                <ele>49.600000</ele>
                <time>2018-10-21T02:25:05Z</time>
            </trkpt>
            <trkpt lon="101.212897" lat="14.312943">
                <ele>49.600000</ele>
                <time>2018-10-21T02:25:06Z</time>
            </trkpt>
            <trkpt lon="101.212869" lat="14.312977">
                <ele>49.600000</ele>
                <time>2018-10-21T02:25:07Z</time>
            </trkpt>
            <trkpt lon="101.212830" lat="14.313003">
                <ele>49.600000</ele>
                <time>2018-10-21T02:25:08Z</time>
            </trkpt>
            <trkpt lon="101.212793" lat="14.313026">
                <ele>49.600000</ele>
                <time>2018-10-21T02:25:09Z</time>
            </trkpt>
            <trkpt lon="101.212746" lat="14.313044">
                <ele>49.600000</ele>
                <time>2018-10-21T02:25:10Z</time>
            </trkpt>
            <trkpt lon="101.212701" lat="14.313064">
                <ele>49.600000</ele>
                <time>2018-10-21T02:25:11Z</time>
            </trkpt>
            <trkpt lon="101.212661" lat="14.313087">
                <ele>49.600000</ele>
                <time>2018-10-21T02:25:12Z</time>
            </trkpt>
            <trkpt lon="101.212619" lat="14.313111">
                <ele>49.600000</ele>
                <time>2018-10-21T02:25:13Z</time>
            </trkpt>
            <trkpt lon="101.212572" lat="14.313135">
                <ele>49.600000</ele>
                <time>2018-10-21T02:25:14Z</time>
            </trkpt>
            <trkpt lon="101.212534" lat="14.313157">
                <ele>49.700000</ele>
                <time>2018-10-21T02:25:15Z</time>
            </trkpt>
            <trkpt lon="101.212499" lat="14.313179">
                <ele>49.700000</ele>
                <time>2018-10-21T02:25:16Z</time>
            </trkpt>
            <trkpt lon="101.212466" lat="14.313199">
                <ele>49.800000</ele>
                <time>2018-10-21T02:25:17Z</time>
            </trkpt>
            <trkpt lon="101.212441" lat="14.313221">
                <ele>49.800000</ele>
                <time>2018-10-21T02:25:18Z</time>
            </trkpt>
            <trkpt lon="101.212420" lat="14.313256">
                <ele>49.800000</ele>
                <time>2018-10-21T02:25:19Z</time>
            </trkpt>
            <trkpt lon="101.212402" lat="14.313296">
                <ele>49.700000</ele>
                <time>2018-10-21T02:25:20Z</time>
            </trkpt>
            <trkpt lon="101.212382" lat="14.313340">
                <ele>49.700000</ele>
                <time>2018-10-21T02:25:21Z</time>
            </trkpt>
            <trkpt lon="101.212368" lat="14.313388">
                <ele>49.700000</ele>
                <time>2018-10-21T02:25:22Z</time>
            </trkpt>
            <trkpt lon="101.212354" lat="14.313435">
                <ele>49.600000</ele>
                <time>2018-10-21T02:25:23Z</time>
            </trkpt>
            <trkpt lon="101.212340" lat="14.313482">
                <ele>49.600000</ele>
                <time>2018-10-21T02:25:24Z</time>
            </trkpt>
            <trkpt lon="101.212324" lat="14.313523">
                <ele>49.500000</ele>
                <time>2018-10-21T02:25:25Z</time>
            </trkpt>
            <trkpt lon="101.212313" lat="14.313565">
                <ele>49.500000</ele>
                <time>2018-10-21T02:25:26Z</time>
            </trkpt>
            <trkpt lon="101.212306" lat="14.313601">
                <ele>49.600000</ele>
                <time>2018-10-21T02:25:27Z</time>
            </trkpt>
            <trkpt lon="101.212292" lat="14.313629">
                <ele>49.600000</ele>
                <time>2018-10-21T02:25:28Z</time>
            </trkpt>
            <trkpt lon="101.212278" lat="14.313655">
                <ele>49.600000</ele>
                <time>2018-10-21T02:25:29Z</time>
            </trkpt>
            <trkpt lon="101.212269" lat="14.313682">
                <ele>49.600000</ele>
                <time>2018-10-21T02:25:30Z</time>
            </trkpt>
            <trkpt lon="101.212263" lat="14.313730">
                <ele>49.700000</ele>
                <time>2018-10-21T02:25:32Z</time>
            </trkpt>
            <trkpt lon="101.212250" lat="14.313782">
                <ele>49.700000</ele>
                <time>2018-10-21T02:25:34Z</time>
            </trkpt>
            <trkpt lon="101.212247" lat="14.313839">
                <ele>49.800000</ele>
                <time>2018-10-21T02:25:36Z</time>
            </trkpt>
            <trkpt lon="101.212246" lat="14.313873">
                <ele>49.800000</ele>
                <time>2018-10-21T02:25:37Z</time>
            </trkpt>
            <trkpt lon="101.212246" lat="14.313903">
                <ele>49.900000</ele>
                <time>2018-10-21T02:25:38Z</time>
            </trkpt>
            <trkpt lon="101.212248" lat="14.313936">
                <ele>50.000000</ele>
                <time>2018-10-21T02:25:39Z</time>
            </trkpt>
            <trkpt lon="101.212244" lat="14.313971">
                <ele>50.100000</ele>
                <time>2018-10-21T02:25:40Z</time>
            </trkpt>
            <trkpt lon="101.212241" lat="14.314006">
                <ele>50.100000</ele>
                <time>2018-10-21T02:25:41Z</time>
            </trkpt>
            <trkpt lon="101.212240" lat="14.314043">
                <ele>50.200000</ele>
                <time>2018-10-21T02:25:42Z</time>
            </trkpt>
            <trkpt lon="101.212239" lat="14.314085">
                <ele>50.300000</ele>
                <time>2018-10-21T02:25:43Z</time>
            </trkpt>
            <trkpt lon="101.212240" lat="14.314119">
                <ele>50.300000</ele>
                <time>2018-10-21T02:25:44Z</time>
            </trkpt>
            <trkpt lon="101.212243" lat="14.314156">
                <ele>50.400000</ele>
                <time>2018-10-21T02:25:45Z</time>
            </trkpt>
            <trkpt lon="101.212246" lat="14.314193">
                <ele>50.500000</ele>
                <time>2018-10-21T02:25:46Z</time>
            </trkpt>
            <trkpt lon="101.212252" lat="14.314229">
                <ele>50.500000</ele>
                <time>2018-10-21T02:25:47Z</time>
            </trkpt>
            <trkpt lon="101.212256" lat="14.314268">
                <ele>50.600000</ele>
                <time>2018-10-21T02:25:48Z</time>
            </trkpt>
            <trkpt lon="101.212262" lat="14.314308">
                <ele>50.700000</ele>
                <time>2018-10-21T02:25:49Z</time>
            </trkpt>
            <trkpt lon="101.212266" lat="14.314350">
                <ele>50.700000</ele>
                <time>2018-10-21T02:25:50Z</time>
            </trkpt>
            <trkpt lon="101.212270" lat="14.314386">
                <ele>50.800000</ele>
                <time>2018-10-21T02:25:51Z</time>
            </trkpt>
            <trkpt lon="101.212272" lat="14.314420">
                <ele>50.800000</ele>
                <time>2018-10-21T02:25:52Z</time>
            </trkpt>
            <trkpt lon="101.212271" lat="14.314457">
                <ele>50.800000</ele>
                <time>2018-10-21T02:25:53Z</time>
            </trkpt>
            <trkpt lon="101.212272" lat="14.314498">
                <ele>50.800000</ele>
                <time>2018-10-21T02:25:54Z</time>
            </trkpt>
            <trkpt lon="101.212274" lat="14.314537">
                <ele>50.800000</ele>
                <time>2018-10-21T02:25:55Z</time>
            </trkpt>
            <trkpt lon="101.212272" lat="14.314575">
                <ele>50.800000</ele>
                <time>2018-10-21T02:25:56Z</time>
            </trkpt>
            <trkpt lon="101.212271" lat="14.314616">
                <ele>50.800000</ele>
                <time>2018-10-21T02:25:57Z</time>
            </trkpt>
            <trkpt lon="101.212255" lat="14.314652">
                <ele>50.900000</ele>
                <time>2018-10-21T02:25:58Z</time>
            </trkpt>
            <trkpt lon="101.212236" lat="14.314689">
                <ele>50.900000</ele>
                <time>2018-10-21T02:25:59Z</time>
            </trkpt>
            <trkpt lon="101.212219" lat="14.314727">
                <ele>51.000000</ele>
                <time>2018-10-21T02:26:00Z</time>
            </trkpt>
            <trkpt lon="101.212202" lat="14.314765">
                <ele>51.000000</ele>
                <time>2018-10-21T02:26:01Z</time>
            </trkpt>
            <trkpt lon="101.212184" lat="14.314800">
                <ele>51.100000</ele>
                <time>2018-10-21T02:26:02Z</time>
            </trkpt>
            <trkpt lon="101.212157" lat="14.314832">
                <ele>51.200000</ele>
                <time>2018-10-21T02:26:03Z</time>
            </trkpt>
            <trkpt lon="101.212125" lat="14.314861">
                <ele>51.200000</ele>
                <time>2018-10-21T02:26:04Z</time>
            </trkpt>
            <trkpt lon="101.212093" lat="14.314891">
                <ele>51.300000</ele>
                <time>2018-10-21T02:26:05Z</time>
            </trkpt>
            <trkpt lon="101.212062" lat="14.314916">
                <ele>51.300000</ele>
                <time>2018-10-21T02:26:06Z</time>
            </trkpt>
            <trkpt lon="101.212037" lat="14.314936">
                <ele>51.400000</ele>
                <time>2018-10-21T02:26:07Z</time>
            </trkpt>
            <trkpt lon="101.212019" lat="14.314964">
                <ele>51.400000</ele>
                <time>2018-10-21T02:26:08Z</time>
            </trkpt>
            <trkpt lon="101.211999" lat="14.315000">
                <ele>51.400000</ele>
                <time>2018-10-21T02:26:09Z</time>
            </trkpt>
            <trkpt lon="101.211978" lat="14.315038">
                <ele>51.300000</ele>
                <time>2018-10-21T02:26:10Z</time>
            </trkpt>
            <trkpt lon="101.211958" lat="14.315079">
                <ele>51.300000</ele>
                <time>2018-10-21T02:26:11Z</time>
            </trkpt>
            <trkpt lon="101.211933" lat="14.315114">
                <ele>51.200000</ele>
                <time>2018-10-21T02:26:12Z</time>
            </trkpt>
            <trkpt lon="101.211912" lat="14.315153">
                <ele>51.100000</ele>
                <time>2018-10-21T02:26:13Z</time>
            </trkpt>
            <trkpt lon="101.211891" lat="14.315188">
                <ele>51.100000</ele>
                <time>2018-10-21T02:26:14Z</time>
            </trkpt>
            <trkpt lon="101.211873" lat="14.315223">
                <ele>51.000000</ele>
                <time>2018-10-21T02:26:15Z</time>
            </trkpt>
            <trkpt lon="101.211855" lat="14.315258">
                <ele>51.000000</ele>
                <time>2018-10-21T02:26:16Z</time>
            </trkpt>
            <trkpt lon="101.211829" lat="14.315292">
                <ele>51.000000</ele>
                <time>2018-10-21T02:26:17Z</time>
            </trkpt>
            <trkpt lon="101.211804" lat="14.315325">
                <ele>51.000000</ele>
                <time>2018-10-21T02:26:18Z</time>
            </trkpt>
            <trkpt lon="101.211781" lat="14.315360">
                <ele>51.000000</ele>
                <time>2018-10-21T02:26:19Z</time>
            </trkpt>
            <trkpt lon="101.211755" lat="14.315395">
                <ele>51.000000</ele>
                <time>2018-10-21T02:26:20Z</time>
            </trkpt>
            <trkpt lon="101.211734" lat="14.315433">
                <ele>51.100000</ele>
                <time>2018-10-21T02:26:21Z</time>
            </trkpt>
            <trkpt lon="101.211714" lat="14.315474">
                <ele>51.100000</ele>
                <time>2018-10-21T02:26:22Z</time>
            </trkpt>
            <trkpt lon="101.211691" lat="14.315514">
                <ele>51.200000</ele>
                <time>2018-10-21T02:26:23Z</time>
            </trkpt>
            <trkpt lon="101.211662" lat="14.315554">
                <ele>51.200000</ele>
                <time>2018-10-21T02:26:24Z</time>
            </trkpt>
            <trkpt lon="101.211636" lat="14.315590">
                <ele>51.200000</ele>
                <time>2018-10-21T02:26:25Z</time>
            </trkpt>
            <trkpt lon="101.211609" lat="14.315629">
                <ele>51.300000</ele>
                <time>2018-10-21T02:26:26Z</time>
            </trkpt>
            <trkpt lon="101.211586" lat="14.315666">
                <ele>51.300000</ele>
                <time>2018-10-21T02:26:27Z</time>
            </trkpt>
            <trkpt lon="101.211564" lat="14.315705">
                <ele>51.300000</ele>
                <time>2018-10-21T02:26:28Z</time>
            </trkpt>
            <trkpt lon="101.211536" lat="14.315746">
                <ele>51.300000</ele>
                <time>2018-10-21T02:26:29Z</time>
            </trkpt>
            <trkpt lon="101.211514" lat="14.315787">
                <ele>51.300000</ele>
                <time>2018-10-21T02:26:30Z</time>
            </trkpt>
            <trkpt lon="101.211496" lat="14.315833">
                <ele>51.200000</ele>
                <time>2018-10-21T02:26:31Z</time>
            </trkpt>
            <trkpt lon="101.211479" lat="14.315879">
                <ele>51.200000</ele>
                <time>2018-10-21T02:26:32Z</time>
            </trkpt>
            <trkpt lon="101.211464" lat="14.315925">
                <ele>51.300000</ele>
                <time>2018-10-21T02:26:33Z</time>
            </trkpt>
            <trkpt lon="101.211451" lat="14.315974">
                <ele>51.300000</ele>
                <time>2018-10-21T02:26:34Z</time>
            </trkpt>
            <trkpt lon="101.211441" lat="14.316020">
                <ele>51.300000</ele>
                <time>2018-10-21T02:26:35Z</time>
            </trkpt>
            <trkpt lon="101.211438" lat="14.316070">
                <ele>51.400000</ele>
                <time>2018-10-21T02:26:36Z</time>
            </trkpt>
            <trkpt lon="101.211431" lat="14.316118">
                <ele>51.500000</ele>
                <time>2018-10-21T02:26:37Z</time>
            </trkpt>
            <trkpt lon="101.211425" lat="14.316168">
                <ele>51.600000</ele>
                <time>2018-10-21T02:26:38Z</time>
            </trkpt>
            <trkpt lon="101.211416" lat="14.316217">
                <ele>51.700000</ele>
                <time>2018-10-21T02:26:39Z</time>
            </trkpt>
            <trkpt lon="101.211407" lat="14.316265">
                <ele>51.800000</ele>
                <time>2018-10-21T02:26:40Z</time>
            </trkpt>
            <trkpt lon="101.211399" lat="14.316315">
                <ele>51.900000</ele>
                <time>2018-10-21T02:26:41Z</time>
            </trkpt>
            <trkpt lon="101.211387" lat="14.316365">
                <ele>52.000000</ele>
                <time>2018-10-21T02:26:42Z</time>
            </trkpt>
            <trkpt lon="101.211376" lat="14.316414">
                <ele>52.100000</ele>
                <time>2018-10-21T02:26:43Z</time>
            </trkpt>
            <trkpt lon="101.211364" lat="14.316462">
                <ele>52.100000</ele>
                <time>2018-10-21T02:26:44Z</time>
            </trkpt>
            <trkpt lon="101.211348" lat="14.316511">
                <ele>52.100000</ele>
                <time>2018-10-21T02:26:45Z</time>
            </trkpt>
            <trkpt lon="101.211333" lat="14.316559">
                <ele>52.000000</ele>
                <time>2018-10-21T02:26:46Z</time>
            </trkpt>
            <trkpt lon="101.211323" lat="14.316609">
                <ele>52.000000</ele>
                <time>2018-10-21T02:26:47Z</time>
            </trkpt>
            <trkpt lon="101.211311" lat="14.316663">
                <ele>51.900000</ele>
                <time>2018-10-21T02:26:48Z</time>
            </trkpt>
            <trkpt lon="101.211299" lat="14.316712">
                <ele>51.800000</ele>
                <time>2018-10-21T02:26:49Z</time>
            </trkpt>
            <trkpt lon="101.211291" lat="14.316760">
                <ele>51.800000</ele>
                <time>2018-10-21T02:26:50Z</time>
            </trkpt>
            <trkpt lon="101.211283" lat="14.316810">
                <ele>51.800000</ele>
                <time>2018-10-21T02:26:51Z</time>
            </trkpt>
            <trkpt lon="101.211277" lat="14.316860">
                <ele>51.900000</ele>
                <time>2018-10-21T02:26:52Z</time>
            </trkpt>
            <trkpt lon="101.211274" lat="14.316912">
                <ele>51.900000</ele>
                <time>2018-10-21T02:26:53Z</time>
            </trkpt>
            <trkpt lon="101.211284" lat="14.316965">
                <ele>51.900000</ele>
                <time>2018-10-21T02:26:54Z</time>
            </trkpt>
            <trkpt lon="101.211302" lat="14.317018">
                <ele>51.900000</ele>
                <time>2018-10-21T02:26:55Z</time>
            </trkpt>
            <trkpt lon="101.211327" lat="14.317070">
                <ele>51.900000</ele>
                <time>2018-10-21T02:26:56Z</time>
            </trkpt>
            <trkpt lon="101.211349" lat="14.317113">
                <ele>51.900000</ele>
                <time>2018-10-21T02:26:57Z</time>
            </trkpt>
            <trkpt lon="101.211374" lat="14.317155">
                <ele>51.900000</ele>
                <time>2018-10-21T02:26:58Z</time>
            </trkpt>
            <trkpt lon="101.211396" lat="14.317203">
                <ele>51.900000</ele>
                <time>2018-10-21T02:26:59Z</time>
            </trkpt>
            <trkpt lon="101.211407" lat="14.317244">
                <ele>51.900000</ele>
                <time>2018-10-21T02:27:00Z</time>
            </trkpt>
            <trkpt lon="101.211418" lat="14.317291">
                <ele>51.900000</ele>
                <time>2018-10-21T02:27:01Z</time>
            </trkpt>
            <trkpt lon="101.211423" lat="14.317334">
                <ele>52.000000</ele>
                <time>2018-10-21T02:27:02Z</time>
            </trkpt>
            <trkpt lon="101.211425" lat="14.317378">
                <ele>52.000000</ele>
                <time>2018-10-21T02:27:03Z</time>
            </trkpt>
            <trkpt lon="101.211421" lat="14.317419">
                <ele>52.100000</ele>
                <time>2018-10-21T02:27:04Z</time>
            </trkpt>
            <trkpt lon="101.211418" lat="14.317461">
                <ele>52.200000</ele>
                <time>2018-10-21T02:27:05Z</time>
            </trkpt>
            <trkpt lon="101.211418" lat="14.317504">
                <ele>52.300000</ele>
                <time>2018-10-21T02:27:06Z</time>
            </trkpt>
            <trkpt lon="101.211418" lat="14.317548">
                <ele>52.300000</ele>
                <time>2018-10-21T02:27:07Z</time>
            </trkpt>
            <trkpt lon="101.211420" lat="14.317589">
                <ele>52.400000</ele>
                <time>2018-10-21T02:27:08Z</time>
            </trkpt>
            <trkpt lon="101.211418" lat="14.317626">
                <ele>52.500000</ele>
                <time>2018-10-21T02:27:09Z</time>
            </trkpt>
            <trkpt lon="101.211417" lat="14.317663">
                <ele>52.500000</ele>
                <time>2018-10-21T02:27:10Z</time>
            </trkpt>
            <trkpt lon="101.211424" lat="14.317705">
                <ele>52.600000</ele>
                <time>2018-10-21T02:27:11Z</time>
            </trkpt>
            <trkpt lon="101.211427" lat="14.317743">
                <ele>52.700000</ele>
                <time>2018-10-21T02:27:12Z</time>
            </trkpt>
            <trkpt lon="101.211433" lat="14.317780">
                <ele>52.700000</ele>
                <time>2018-10-21T02:27:13Z</time>
            </trkpt>
            <trkpt lon="101.211435" lat="14.317816">
                <ele>52.800000</ele>
                <time>2018-10-21T02:27:14Z</time>
            </trkpt>
            <trkpt lon="101.211438" lat="14.317853">
                <ele>52.900000</ele>
                <time>2018-10-21T02:27:15Z</time>
            </trkpt>
            <trkpt lon="101.211430" lat="14.317888">
                <ele>52.900000</ele>
                <time>2018-10-21T02:27:16Z</time>
            </trkpt>
            <trkpt lon="101.211414" lat="14.317925">
                <ele>53.000000</ele>
                <time>2018-10-21T02:27:17Z</time>
            </trkpt>
            <trkpt lon="101.211399" lat="14.317965">
                <ele>53.000000</ele>
                <time>2018-10-21T02:27:18Z</time>
            </trkpt>
            <trkpt lon="101.211389" lat="14.318009">
                <ele>53.100000</ele>
                <time>2018-10-21T02:27:19Z</time>
            </trkpt>
            <trkpt lon="101.211379" lat="14.318053">
                <ele>53.100000</ele>
                <time>2018-10-21T02:27:20Z</time>
            </trkpt>
            <trkpt lon="101.211364" lat="14.318094">
                <ele>53.200000</ele>
                <time>2018-10-21T02:27:21Z</time>
            </trkpt>
            <trkpt lon="101.211347" lat="14.318129">
                <ele>53.200000</ele>
                <time>2018-10-21T02:27:22Z</time>
            </trkpt>
            <trkpt lon="101.211327" lat="14.318166">
                <ele>53.300000</ele>
                <time>2018-10-21T02:27:23Z</time>
            </trkpt>
            <trkpt lon="101.211311" lat="14.318204">
                <ele>53.300000</ele>
                <time>2018-10-21T02:27:24Z</time>
            </trkpt>
            <trkpt lon="101.211292" lat="14.318244">
                <ele>53.300000</ele>
                <time>2018-10-21T02:27:25Z</time>
            </trkpt>
            <trkpt lon="101.211274" lat="14.318282">
                <ele>53.300000</ele>
                <time>2018-10-21T02:27:26Z</time>
            </trkpt>
            <trkpt lon="101.211261" lat="14.318321">
                <ele>53.300000</ele>
                <time>2018-10-21T02:27:27Z</time>
            </trkpt>
            <trkpt lon="101.211245" lat="14.318362">
                <ele>53.300000</ele>
                <time>2018-10-21T02:27:28Z</time>
            </trkpt>
            <trkpt lon="101.211230" lat="14.318400">
                <ele>53.300000</ele>
                <time>2018-10-21T02:27:29Z</time>
            </trkpt>
            <trkpt lon="101.211223" lat="14.318446">
                <ele>53.200000</ele>
                <time>2018-10-21T02:27:30Z</time>
            </trkpt>
            <trkpt lon="101.211213" lat="14.318484">
                <ele>53.200000</ele>
                <time>2018-10-21T02:27:31Z</time>
            </trkpt>
            <trkpt lon="101.211206" lat="14.318520">
                <ele>53.200000</ele>
                <time>2018-10-21T02:27:32Z</time>
            </trkpt>
            <trkpt lon="101.211193" lat="14.318551">
                <ele>53.200000</ele>
                <time>2018-10-21T02:27:33Z</time>
            </trkpt>
            <trkpt lon="101.211170" lat="14.318586">
                <ele>53.100000</ele>
                <time>2018-10-21T02:27:35Z</time>
            </trkpt>
            <trkpt lon="101.211144" lat="14.318601">
                <ele>53.100000</ele>
                <time>2018-10-21T02:27:45Z</time>
            </trkpt>
            <trkpt lon="101.211110" lat="14.318630">
                <ele>53.100000</ele>
                <time>2018-10-21T02:28:02Z</time>
            </trkpt>
            <trkpt lon="101.211079" lat="14.318652">
                <ele>53.100000</ele>
                <time>2018-10-21T02:28:05Z</time>
            </trkpt>
            <trkpt lon="101.211058" lat="14.318691">
                <ele>53.100000</ele>
                <time>2018-10-21T02:28:31Z</time>
            </trkpt>
            <trkpt lon="101.211066" lat="14.318724">
                <ele>53.100000</ele>
                <time>2018-10-21T02:28:34Z</time>
            </trkpt>
            <trkpt lon="101.211093" lat="14.318696">
                <ele>53.100000</ele>
                <time>2018-10-21T02:28:48Z</time>
            </trkpt>
            <trkpt lon="101.211114" lat="14.318664">
                <ele>53.100000</ele>
                <time>2018-10-21T02:28:51Z</time>
            </trkpt>
            <trkpt lon="101.211156" lat="14.318637">
                <ele>53.100000</ele>
                <time>2018-10-21T02:28:54Z</time>
            </trkpt>
            <trkpt lon="101.211186" lat="14.318626">
                <ele>53.100000</ele>
                <time>2018-10-21T02:28:55Z</time>
            </trkpt>
            <trkpt lon="101.211218" lat="14.318607">
                <ele>53.100000</ele>
                <time>2018-10-21T02:28:56Z</time>
            </trkpt>
            <trkpt lon="101.211253" lat="14.318598">
                <ele>53.100000</ele>
                <time>2018-10-21T02:28:57Z</time>
            </trkpt>
            <trkpt lon="101.211281" lat="14.318606">
                <ele>53.100000</ele>
                <time>2018-10-21T02:28:58Z</time>
            </trkpt>
            <trkpt lon="101.211300" lat="14.318631">
                <ele>53.100000</ele>
                <time>2018-10-21T02:28:59Z</time>
            </trkpt>
            <trkpt lon="101.211341" lat="14.318669">
                <ele>53.100000</ele>
                <time>2018-10-21T02:29:01Z</time>
            </trkpt>
            <trkpt lon="101.211371" lat="14.318702">
                <ele>53.100000</ele>
                <time>2018-10-21T02:29:03Z</time>
            </trkpt>
            <trkpt lon="101.211396" lat="14.318748">
                <ele>53.100000</ele>
                <time>2018-10-21T02:29:05Z</time>
            </trkpt>
            <trkpt lon="101.211420" lat="14.318792">
                <ele>53.100000</ele>
                <time>2018-10-21T02:29:07Z</time>
            </trkpt>
            <trkpt lon="101.211431" lat="14.318823">
                <ele>53.100000</ele>
                <time>2018-10-21T02:29:08Z</time>
            </trkpt>
            <trkpt lon="101.211446" lat="14.318857">
                <ele>53.000000</ele>
                <time>2018-10-21T02:29:09Z</time>
            </trkpt>
            <trkpt lon="101.211457" lat="14.318892">
                <ele>52.900000</ele>
                <time>2018-10-21T02:29:10Z</time>
            </trkpt>
            <trkpt lon="101.211470" lat="14.318926">
                <ele>52.700000</ele>
                <time>2018-10-21T02:29:11Z</time>
            </trkpt>
            <trkpt lon="101.211476" lat="14.318958">
                <ele>52.600000</ele>
                <time>2018-10-21T02:29:12Z</time>
            </trkpt>
            <trkpt lon="101.211494" lat="14.318996">
                <ele>52.300000</ele>
                <time>2018-10-21T02:29:13Z</time>
            </trkpt>
            <trkpt lon="101.211512" lat="14.319037">
                <ele>52.100000</ele>
                <time>2018-10-21T02:29:14Z</time>
            </trkpt>
            <trkpt lon="101.211520" lat="14.319074">
                <ele>51.900000</ele>
                <time>2018-10-21T02:29:15Z</time>
            </trkpt>
            <trkpt lon="101.211533" lat="14.319118">
                <ele>51.800000</ele>
                <time>2018-10-21T02:29:16Z</time>
            </trkpt>
            <trkpt lon="101.211544" lat="14.319158">
                <ele>51.800000</ele>
                <time>2018-10-21T02:29:17Z</time>
            </trkpt>
            <trkpt lon="101.211564" lat="14.319195">
                <ele>51.900000</ele>
                <time>2018-10-21T02:29:18Z</time>
            </trkpt>
            <trkpt lon="101.211584" lat="14.319229">
                <ele>52.100000</ele>
                <time>2018-10-21T02:29:19Z</time>
            </trkpt>
            <trkpt lon="101.211608" lat="14.319270">
                <ele>52.300000</ele>
                <time>2018-10-21T02:29:20Z</time>
            </trkpt>
            <trkpt lon="101.211629" lat="14.319304">
                <ele>52.500000</ele>
                <time>2018-10-21T02:29:21Z</time>
            </trkpt>
            <trkpt lon="101.211643" lat="14.319342">
                <ele>52.600000</ele>
                <time>2018-10-21T02:29:22Z</time>
            </trkpt>
            <trkpt lon="101.211643" lat="14.319381">
                <ele>52.700000</ele>
                <time>2018-10-21T02:29:23Z</time>
            </trkpt>
            <trkpt lon="101.211642" lat="14.319421">
                <ele>52.800000</ele>
                <time>2018-10-21T02:29:24Z</time>
            </trkpt>
            <trkpt lon="101.211636" lat="14.319461">
                <ele>52.800000</ele>
                <time>2018-10-21T02:29:25Z</time>
            </trkpt>
            <trkpt lon="101.211629" lat="14.319502">
                <ele>52.800000</ele>
                <time>2018-10-21T02:29:26Z</time>
            </trkpt>
            <trkpt lon="101.211618" lat="14.319539">
                <ele>52.800000</ele>
                <time>2018-10-21T02:29:27Z</time>
            </trkpt>
            <trkpt lon="101.211604" lat="14.319577">
                <ele>52.700000</ele>
                <time>2018-10-21T02:29:28Z</time>
            </trkpt>
            <trkpt lon="101.211585" lat="14.319615">
                <ele>52.600000</ele>
                <time>2018-10-21T02:29:29Z</time>
            </trkpt>
            <trkpt lon="101.211567" lat="14.319658">
                <ele>52.400000</ele>
                <time>2018-10-21T02:29:30Z</time>
            </trkpt>
            <trkpt lon="101.211549" lat="14.319698">
                <ele>52.200000</ele>
                <time>2018-10-21T02:29:31Z</time>
            </trkpt>
            <trkpt lon="101.211530" lat="14.319741">
                <ele>52.100000</ele>
                <time>2018-10-21T02:29:32Z</time>
            </trkpt>
            <trkpt lon="101.211520" lat="14.319787">
                <ele>51.900000</ele>
                <time>2018-10-21T02:29:33Z</time>
            </trkpt>
            <trkpt lon="101.211512" lat="14.319837">
                <ele>51.700000</ele>
                <time>2018-10-21T02:29:34Z</time>
            </trkpt>
            <trkpt lon="101.211517" lat="14.319888">
                <ele>51.600000</ele>
                <time>2018-10-21T02:29:35Z</time>
            </trkpt>
            <trkpt lon="101.211527" lat="14.319937">
                <ele>51.600000</ele>
                <time>2018-10-21T02:29:36Z</time>
            </trkpt>
            <trkpt lon="101.211541" lat="14.319986">
                <ele>51.600000</ele>
                <time>2018-10-21T02:29:37Z</time>
            </trkpt>
            <trkpt lon="101.211554" lat="14.320030">
                <ele>51.600000</ele>
                <time>2018-10-21T02:29:38Z</time>
            </trkpt>
            <trkpt lon="101.211569" lat="14.320080">
                <ele>51.700000</ele>
                <time>2018-10-21T02:29:39Z</time>
            </trkpt>
            <trkpt lon="101.211580" lat="14.320124">
                <ele>51.700000</ele>
                <time>2018-10-21T02:29:40Z</time>
            </trkpt>
            <trkpt lon="101.211594" lat="14.320164">
                <ele>51.800000</ele>
                <time>2018-10-21T02:29:41Z</time>
            </trkpt>
            <trkpt lon="101.211604" lat="14.320207">
                <ele>51.800000</ele>
                <time>2018-10-21T02:29:42Z</time>
            </trkpt>
            <trkpt lon="101.211607" lat="14.320249">
                <ele>51.800000</ele>
                <time>2018-10-21T02:29:43Z</time>
            </trkpt>
            <trkpt lon="101.211613" lat="14.320293">
                <ele>51.800000</ele>
                <time>2018-10-21T02:29:44Z</time>
            </trkpt>
            <trkpt lon="101.211615" lat="14.320336">
                <ele>51.800000</ele>
                <time>2018-10-21T02:29:45Z</time>
            </trkpt>
            <trkpt lon="101.211612" lat="14.320381">
                <ele>51.800000</ele>
                <time>2018-10-21T02:29:46Z</time>
            </trkpt>
            <trkpt lon="101.211608" lat="14.320429">
                <ele>51.800000</ele>
                <time>2018-10-21T02:29:47Z</time>
            </trkpt>
            <trkpt lon="101.211596" lat="14.320479">
                <ele>51.800000</ele>
                <time>2018-10-21T02:29:48Z</time>
            </trkpt>
            <trkpt lon="101.211589" lat="14.320529">
                <ele>51.700000</ele>
                <time>2018-10-21T02:29:49Z</time>
            </trkpt>
            <trkpt lon="101.211589" lat="14.320575">
                <ele>51.700000</ele>
                <time>2018-10-21T02:29:50Z</time>
            </trkpt>
            <trkpt lon="101.211586" lat="14.320621">
                <ele>51.700000</ele>
                <time>2018-10-21T02:29:51Z</time>
            </trkpt>
            <trkpt lon="101.211579" lat="14.320660">
                <ele>51.700000</ele>
                <time>2018-10-21T02:29:52Z</time>
            </trkpt>
            <trkpt lon="101.211572" lat="14.320704">
                <ele>51.600000</ele>
                <time>2018-10-21T02:29:53Z</time>
            </trkpt>
            <trkpt lon="101.211568" lat="14.320748">
                <ele>51.600000</ele>
                <time>2018-10-21T02:29:54Z</time>
            </trkpt>
            <trkpt lon="101.211561" lat="14.320796">
                <ele>51.600000</ele>
                <time>2018-10-21T02:29:55Z</time>
            </trkpt>
            <trkpt lon="101.211553" lat="14.320845">
                <ele>51.600000</ele>
                <time>2018-10-21T02:29:56Z</time>
            </trkpt>
            <trkpt lon="101.211543" lat="14.320895">
                <ele>51.700000</ele>
                <time>2018-10-21T02:29:57Z</time>
            </trkpt>
            <trkpt lon="101.211532" lat="14.320941">
                <ele>51.700000</ele>
                <time>2018-10-21T02:29:58Z</time>
            </trkpt>
            <trkpt lon="101.211525" lat="14.320990">
                <ele>51.800000</ele>
                <time>2018-10-21T02:29:59Z</time>
            </trkpt>
            <trkpt lon="101.211519" lat="14.321032">
                <ele>51.900000</ele>
                <time>2018-10-21T02:30:00Z</time>
            </trkpt>
            <trkpt lon="101.211524" lat="14.321074">
                <ele>51.900000</ele>
                <time>2018-10-21T02:30:01Z</time>
            </trkpt>
            <trkpt lon="101.211528" lat="14.321120">
                <ele>52.100000</ele>
                <time>2018-10-21T02:30:02Z</time>
            </trkpt>
            <trkpt lon="101.211535" lat="14.321164">
                <ele>52.100000</ele>
                <time>2018-10-21T02:30:03Z</time>
            </trkpt>
            <trkpt lon="101.211544" lat="14.321204">
                <ele>52.200000</ele>
                <time>2018-10-21T02:30:04Z</time>
            </trkpt>
            <trkpt lon="101.211562" lat="14.321252">
                <ele>52.200000</ele>
                <time>2018-10-21T02:30:05Z</time>
            </trkpt>
            <trkpt lon="101.211581" lat="14.321295">
                <ele>52.300000</ele>
                <time>2018-10-21T02:30:06Z</time>
            </trkpt>
            <trkpt lon="101.211601" lat="14.321333">
                <ele>52.300000</ele>
                <time>2018-10-21T02:30:07Z</time>
            </trkpt>
            <trkpt lon="101.211619" lat="14.321376">
                <ele>52.300000</ele>
                <time>2018-10-21T02:30:08Z</time>
            </trkpt>
            <trkpt lon="101.211641" lat="14.321423">
                <ele>52.300000</ele>
                <time>2018-10-21T02:30:09Z</time>
            </trkpt>
            <trkpt lon="101.211661" lat="14.321474">
                <ele>52.300000</ele>
                <time>2018-10-21T02:30:10Z</time>
            </trkpt>
            <trkpt lon="101.211682" lat="14.321523">
                <ele>52.300000</ele>
                <time>2018-10-21T02:30:11Z</time>
            </trkpt>
            <trkpt lon="101.211701" lat="14.321570">
                <ele>52.200000</ele>
                <time>2018-10-21T02:30:12Z</time>
            </trkpt>
            <trkpt lon="101.211715" lat="14.321617">
                <ele>52.200000</ele>
                <time>2018-10-21T02:30:13Z</time>
            </trkpt>
            <trkpt lon="101.211726" lat="14.321663">
                <ele>52.200000</ele>
                <time>2018-10-21T02:30:14Z</time>
            </trkpt>
            <trkpt lon="101.211738" lat="14.321702">
                <ele>52.200000</ele>
                <time>2018-10-21T02:30:15Z</time>
            </trkpt>
            <trkpt lon="101.211745" lat="14.321734">
                <ele>52.200000</ele>
                <time>2018-10-21T02:30:16Z</time>
            </trkpt>
            <trkpt lon="101.211738" lat="14.321765">
                <ele>52.200000</ele>
                <time>2018-10-21T02:30:18Z</time>
            </trkpt>
            <trkpt lon="101.211728" lat="14.321737">
                <ele>52.200000</ele>
                <time>2018-10-21T02:30:25Z</time>
            </trkpt>
            <trkpt lon="101.211693" lat="14.321726">
                <ele>52.200000</ele>
                <time>2018-10-21T02:30:28Z</time>
            </trkpt>
            <trkpt lon="101.211671" lat="14.321745">
                <ele>52.700000</ele>
                <time>2018-10-21T02:30:30Z</time>
            </trkpt>
            <trkpt lon="101.211638" lat="14.321754">
                <ele>52.700000</ele>
                <time>2018-10-21T02:30:33Z</time>
            </trkpt>
            <trkpt lon="101.211603" lat="14.321759">
                <ele>53.400000</ele>
                <time>2018-10-21T02:30:37Z</time>
            </trkpt>
            <trkpt lon="101.211571" lat="14.321769">
                <ele>54.300000</ele>
                <time>2018-10-21T02:30:39Z</time>
            </trkpt>
            <trkpt lon="101.211540" lat="14.321777">
                <ele>54.800000</ele>
                <time>2018-10-21T02:30:41Z</time>
            </trkpt>
            <trkpt lon="101.211511" lat="14.321791">
                <ele>54.800000</ele>
                <time>2018-10-21T02:30:43Z</time>
            </trkpt>
            <trkpt lon="101.211484" lat="14.321800">
                <ele>55.500000</ele>
                <time>2018-10-21T02:30:45Z</time>
            </trkpt>
            <trkpt lon="101.211444" lat="14.321812">
                <ele>56.200000</ele>
                <time>2018-10-21T02:30:48Z</time>
            </trkpt>
            <trkpt lon="101.211412" lat="14.321810">
                <ele>57.000000</ele>
                <time>2018-10-21T02:30:57Z</time>
            </trkpt>
            <trkpt lon="101.211383" lat="14.321801">
                <ele>57.000000</ele>
                <time>2018-10-21T02:31:05Z</time>
            </trkpt>
            <trkpt lon="101.211366" lat="14.321777">
                <ele>57.700000</ele>
                <time>2018-10-21T02:31:11Z</time>
            </trkpt>
            <trkpt lon="101.211334" lat="14.321775">
                <ele>57.700000</ele>
                <time>2018-10-21T02:31:18Z</time>
            </trkpt>
            <trkpt lon="101.211333" lat="14.321804">
                <ele>58.400000</ele>
                <time>2018-10-21T02:31:22Z</time>
            </trkpt>
            <trkpt lon="101.211338" lat="14.321846">
                <ele>56.900000</ele>
                <time>2018-10-21T02:31:26Z</time>
            </trkpt>
            <trkpt lon="101.211331" lat="14.321881">
                <ele>57.000000</ele>
                <time>2018-10-21T02:31:28Z</time>
            </trkpt>
            <trkpt lon="101.211321" lat="14.321914">
                <ele>56.500000</ele>
                <time>2018-10-21T02:31:30Z</time>
            </trkpt>
            <trkpt lon="101.211318" lat="14.321956">
                <ele>56.000000</ele>
                <time>2018-10-21T02:31:32Z</time>
            </trkpt>
            <trkpt lon="101.211326" lat="14.321998">
                <ele>55.600000</ele>
                <time>2018-10-21T02:31:34Z</time>
            </trkpt>
            <trkpt lon="101.211343" lat="14.322040">
                <ele>55.100000</ele>
                <time>2018-10-21T02:31:36Z</time>
            </trkpt>
            <trkpt lon="101.211362" lat="14.322082">
                <ele>55.400000</ele>
                <time>2018-10-21T02:31:38Z</time>
            </trkpt>
            <trkpt lon="101.211377" lat="14.322127">
                <ele>55.200000</ele>
                <time>2018-10-21T02:31:40Z</time>
            </trkpt>
            <trkpt lon="101.211379" lat="14.322176">
                <ele>55.500000</ele>
                <time>2018-10-21T02:31:42Z</time>
            </trkpt>
            <trkpt lon="101.211375" lat="14.322221">
                <ele>56.600000</ele>
                <time>2018-10-21T02:31:44Z</time>
            </trkpt>
            <trkpt lon="101.211375" lat="14.322254">
                <ele>56.900000</ele>
                <time>2018-10-21T02:31:46Z</time>
            </trkpt>
            <trkpt lon="101.211382" lat="14.322296">
                <ele>56.600000</ele>
                <time>2018-10-21T02:31:48Z</time>
            </trkpt>
            <trkpt lon="101.211385" lat="14.322336">
                <ele>57.000000</ele>
                <time>2018-10-21T02:31:50Z</time>
            </trkpt>
            <trkpt lon="101.211389" lat="14.322367">
                <ele>57.400000</ele>
                <time>2018-10-21T02:31:52Z</time>
            </trkpt>
            <trkpt lon="101.211381" lat="14.322406">
                <ele>57.700000</ele>
                <time>2018-10-21T02:31:54Z</time>
            </trkpt>
            <trkpt lon="101.211378" lat="14.322443">
                <ele>58.000000</ele>
                <time>2018-10-21T02:31:56Z</time>
            </trkpt>
            <trkpt lon="101.211382" lat="14.322489">
                <ele>58.400000</ele>
                <time>2018-10-21T02:31:58Z</time>
            </trkpt>
            <trkpt lon="101.211396" lat="14.322539">
                <ele>58.600000</ele>
                <time>2018-10-21T02:32:00Z</time>
            </trkpt>
            <trkpt lon="101.211416" lat="14.322563">
                <ele>58.600000</ele>
                <time>2018-10-21T02:32:01Z</time>
            </trkpt>
            <trkpt lon="101.211440" lat="14.322579">
                <ele>58.100000</ele>
                <time>2018-10-21T02:32:02Z</time>
            </trkpt>
            <trkpt lon="101.211470" lat="14.322595">
                <ele>57.400000</ele>
                <time>2018-10-21T02:32:03Z</time>
            </trkpt>
            <trkpt lon="101.211497" lat="14.322608">
                <ele>57.600000</ele>
                <time>2018-10-21T02:32:04Z</time>
            </trkpt>
            <trkpt lon="101.211531" lat="14.322612">
                <ele>56.900000</ele>
                <time>2018-10-21T02:32:05Z</time>
            </trkpt>
            <trkpt lon="101.211566" lat="14.322615">
                <ele>56.300000</ele>
                <time>2018-10-21T02:32:06Z</time>
            </trkpt>
            <trkpt lon="101.211602" lat="14.322615">
                <ele>55.600000</ele>
                <time>2018-10-21T02:32:07Z</time>
            </trkpt>
            <trkpt lon="101.211645" lat="14.322613">
                <ele>55.100000</ele>
                <time>2018-10-21T02:32:08Z</time>
            </trkpt>
            <trkpt lon="101.211687" lat="14.322613">
                <ele>54.800000</ele>
                <time>2018-10-21T02:32:09Z</time>
            </trkpt>
            <trkpt lon="101.211733" lat="14.322610">
                <ele>54.600000</ele>
                <time>2018-10-21T02:32:10Z</time>
            </trkpt>
            <trkpt lon="101.211774" lat="14.322610">
                <ele>54.300000</ele>
                <time>2018-10-21T02:32:11Z</time>
            </trkpt>
            <trkpt lon="101.211819" lat="14.322604">
                <ele>54.000000</ele>
                <time>2018-10-21T02:32:12Z</time>
            </trkpt>
            <trkpt lon="101.211858" lat="14.322604">
                <ele>53.800000</ele>
                <time>2018-10-21T02:32:13Z</time>
            </trkpt>
            <trkpt lon="101.211893" lat="14.322603">
                <ele>53.500000</ele>
                <time>2018-10-21T02:32:14Z</time>
            </trkpt>
            <trkpt lon="101.211927" lat="14.322601">
                <ele>53.500000</ele>
                <time>2018-10-21T02:32:15Z</time>
            </trkpt>
            <trkpt lon="101.211956" lat="14.322602">
                <ele>53.200000</ele>
                <time>2018-10-21T02:32:16Z</time>
            </trkpt>
            <trkpt lon="101.211984" lat="14.322603">
                <ele>53.000000</ele>
                <time>2018-10-21T02:32:17Z</time>
            </trkpt>
            <trkpt lon="101.212033" lat="14.322611">
                <ele>52.700000</ele>
                <time>2018-10-21T02:32:19Z</time>
            </trkpt>
            <trkpt lon="101.212096" lat="14.322613">
                <ele>52.400000</ele>
                <time>2018-10-21T02:32:21Z</time>
            </trkpt>
            <trkpt lon="101.212134" lat="14.322617">
                <ele>52.200000</ele>
                <time>2018-10-21T02:32:22Z</time>
            </trkpt>
            <trkpt lon="101.212173" lat="14.322619">
                <ele>52.000000</ele>
                <time>2018-10-21T02:32:23Z</time>
            </trkpt>
            <trkpt lon="101.212214" lat="14.322621">
                <ele>52.000000</ele>
                <time>2018-10-21T02:32:24Z</time>
            </trkpt>
            <trkpt lon="101.212263" lat="14.322617">
                <ele>52.000000</ele>
                <time>2018-10-21T02:32:25Z</time>
            </trkpt>
            <trkpt lon="101.212306" lat="14.322608">
                <ele>51.900000</ele>
                <time>2018-10-21T02:32:26Z</time>
            </trkpt>
            <trkpt lon="101.212344" lat="14.322606">
                <ele>52.100000</ele>
                <time>2018-10-21T02:32:27Z</time>
            </trkpt>
            <trkpt lon="101.212384" lat="14.322606">
                <ele>52.400000</ele>
                <time>2018-10-21T02:32:28Z</time>
            </trkpt>
            <trkpt lon="101.212423" lat="14.322603">
                <ele>52.900000</ele>
                <time>2018-10-21T02:32:29Z</time>
            </trkpt>
            <trkpt lon="101.212459" lat="14.322600">
                <ele>53.300000</ele>
                <time>2018-10-21T02:32:30Z</time>
            </trkpt>
            <trkpt lon="101.212492" lat="14.322594">
                <ele>53.600000</ele>
                <time>2018-10-21T02:32:31Z</time>
            </trkpt>
            <trkpt lon="101.212528" lat="14.322595">
                <ele>53.600000</ele>
                <time>2018-10-21T02:32:32Z</time>
            </trkpt>
            <trkpt lon="101.212566" lat="14.322600">
                <ele>53.800000</ele>
                <time>2018-10-21T02:32:33Z</time>
            </trkpt>
            <trkpt lon="101.212600" lat="14.322606">
                <ele>53.800000</ele>
                <time>2018-10-21T02:32:34Z</time>
            </trkpt>
            <trkpt lon="101.212633" lat="14.322613">
                <ele>54.000000</ele>
                <time>2018-10-21T02:32:35Z</time>
            </trkpt>
            <trkpt lon="101.212664" lat="14.322621">
                <ele>54.200000</ele>
                <time>2018-10-21T02:32:36Z</time>
            </trkpt>
            <trkpt lon="101.212695" lat="14.322631">
                <ele>54.200000</ele>
                <time>2018-10-21T02:32:37Z</time>
            </trkpt>
            <trkpt lon="101.212728" lat="14.322639">
                <ele>54.300000</ele>
                <time>2018-10-21T02:32:38Z</time>
            </trkpt>
            <trkpt lon="101.212766" lat="14.322642">
                <ele>54.500000</ele>
                <time>2018-10-21T02:32:39Z</time>
            </trkpt>
            <trkpt lon="101.212812" lat="14.322641">
                <ele>54.600000</ele>
                <time>2018-10-21T02:32:40Z</time>
            </trkpt>
            <trkpt lon="101.212856" lat="14.322641">
                <ele>54.700000</ele>
                <time>2018-10-21T02:32:41Z</time>
            </trkpt>
            <trkpt lon="101.212897" lat="14.322636">
                <ele>54.900000</ele>
                <time>2018-10-21T02:32:42Z</time>
            </trkpt>
            <trkpt lon="101.212934" lat="14.322637">
                <ele>55.000000</ele>
                <time>2018-10-21T02:32:43Z</time>
            </trkpt>
            <trkpt lon="101.212969" lat="14.322639">
                <ele>55.200000</ele>
                <time>2018-10-21T02:32:44Z</time>
            </trkpt>
            <trkpt lon="101.213000" lat="14.322639">
                <ele>55.100000</ele>
                <time>2018-10-21T02:32:45Z</time>
            </trkpt>
            <trkpt lon="101.213029" lat="14.322638">
                <ele>55.100000</ele>
                <time>2018-10-21T02:32:46Z</time>
            </trkpt>
            <trkpt lon="101.213075" lat="14.322619">
                <ele>54.800000</ele>
                <time>2018-10-21T02:32:48Z</time>
            </trkpt>
            <trkpt lon="101.213108" lat="14.322594">
                <ele>54.300000</ele>
                <time>2018-10-21T02:32:50Z</time>
            </trkpt>
            <trkpt lon="101.213110" lat="14.322562">
                <ele>54.100000</ele>
                <time>2018-10-21T02:32:52Z</time>
            </trkpt>
            <trkpt lon="101.213112" lat="14.322531">
                <ele>54.000000</ele>
                <time>2018-10-21T02:32:54Z</time>
            </trkpt>
            <trkpt lon="101.213120" lat="14.322480">
                <ele>53.800000</ele>
                <time>2018-10-21T02:32:56Z</time>
            </trkpt>
            <trkpt lon="101.213125" lat="14.322453">
                <ele>53.700000</ele>
                <time>2018-10-21T02:32:57Z</time>
            </trkpt>
            <trkpt lon="101.213131" lat="14.322425">
                <ele>53.600000</ele>
                <time>2018-10-21T02:32:58Z</time>
            </trkpt>
            <trkpt lon="101.213138" lat="14.322396">
                <ele>53.500000</ele>
                <time>2018-10-21T02:32:59Z</time>
            </trkpt>
            <trkpt lon="101.213143" lat="14.322363">
                <ele>53.400000</ele>
                <time>2018-10-21T02:33:00Z</time>
            </trkpt>
            <trkpt lon="101.213155" lat="14.322337">
                <ele>53.400000</ele>
                <time>2018-10-21T02:33:01Z</time>
            </trkpt>
            <trkpt lon="101.213181" lat="14.322308">
                <ele>53.400000</ele>
                <time>2018-10-21T02:33:03Z</time>
            </trkpt>
            <trkpt lon="101.213215" lat="14.322309">
                <ele>53.400000</ele>
                <time>2018-10-21T02:33:05Z</time>
            </trkpt>
            <trkpt lon="101.213262" lat="14.322303">
                <ele>53.400000</ele>
                <time>2018-10-21T02:33:07Z</time>
            </trkpt>
            <trkpt lon="101.213315" lat="14.322302">
                <ele>53.300000</ele>
                <time>2018-10-21T02:33:09Z</time>
            </trkpt>
            <trkpt lon="101.213363" lat="14.322302">
                <ele>53.400000</ele>
                <time>2018-10-21T02:33:11Z</time>
            </trkpt>
            <trkpt lon="101.213419" lat="14.322303">
                <ele>53.500000</ele>
                <time>2018-10-21T02:33:13Z</time>
            </trkpt>
            <trkpt lon="101.213471" lat="14.322308">
                <ele>53.700000</ele>
                <time>2018-10-21T02:33:15Z</time>
            </trkpt>
            <trkpt lon="101.213500" lat="14.322312">
                <ele>53.800000</ele>
                <time>2018-10-21T02:33:16Z</time>
            </trkpt>
            <trkpt lon="101.213553" lat="14.322316">
                <ele>54.300000</ele>
                <time>2018-10-21T02:33:18Z</time>
            </trkpt>
            <trkpt lon="101.213589" lat="14.322320">
                <ele>54.800000</ele>
                <time>2018-10-21T02:33:20Z</time>
            </trkpt>
            <trkpt lon="101.213616" lat="14.322313">
                <ele>55.000000</ele>
                <time>2018-10-21T02:33:22Z</time>
            </trkpt>
            <trkpt lon="101.213644" lat="14.322292">
                <ele>55.000000</ele>
                <time>2018-10-21T02:33:39Z</time>
            </trkpt>
            <trkpt lon="101.213624" lat="14.322314">
                <ele>55.200000</ele>
                <time>2018-10-21T02:33:52Z</time>
            </trkpt>
            <trkpt lon="101.213620" lat="14.322344">
                <ele>55.200000</ele>
                <time>2018-10-21T02:34:03Z</time>
            </trkpt>
            <trkpt lon="101.213630" lat="14.322379">
                <ele>55.500000</ele>
                <time>2018-10-21T02:34:08Z</time>
            </trkpt>
            <trkpt lon="101.213637" lat="14.322416">
                <ele>55.700000</ele>
                <time>2018-10-21T02:34:11Z</time>
            </trkpt>
            <trkpt lon="101.213654" lat="14.322438">
                <ele>56.200000</ele>
                <time>2018-10-21T02:34:13Z</time>
            </trkpt>
            <trkpt lon="101.213658" lat="14.322465">
                <ele>56.400000</ele>
                <time>2018-10-21T02:34:17Z</time>
            </trkpt>
            <trkpt lon="101.213662" lat="14.322438">
                <ele>56.100000</ele>
                <time>2018-10-21T02:34:21Z</time>
            </trkpt>
            <trkpt lon="101.213684" lat="14.322410">
                <ele>56.100000</ele>
                <time>2018-10-21T02:34:25Z</time>
            </trkpt>
            <trkpt lon="101.213711" lat="14.322397">
                <ele>56.600000</ele>
                <time>2018-10-21T02:34:31Z</time>
            </trkpt>
            <trkpt lon="101.213679" lat="14.322399">
                <ele>56.100000</ele>
                <time>2018-10-21T02:34:46Z</time>
            </trkpt>
            <trkpt lon="101.213672" lat="14.322442">
                <ele>56.300000</ele>
                <time>2018-10-21T02:34:55Z</time>
            </trkpt>
            <trkpt lon="101.213663" lat="14.322474">
                <ele>56.300000</ele>
                <time>2018-10-21T02:35:02Z</time>
            </trkpt>
            <trkpt lon="101.213671" lat="14.322522">
                <ele>56.800000</ele>
                <time>2018-10-21T02:35:07Z</time>
            </trkpt>
            <trkpt lon="101.213667" lat="14.322551">
                <ele>56.800000</ele>
                <time>2018-10-21T02:35:10Z</time>
            </trkpt>
            <trkpt lon="101.213659" lat="14.322584">
                <ele>57.000000</ele>
                <time>2018-10-21T02:35:15Z</time>
            </trkpt>
            <trkpt lon="101.213635" lat="14.322607">
                <ele>56.700000</ele>
                <time>2018-10-21T02:35:17Z</time>
            </trkpt>
            <trkpt lon="101.213605" lat="14.322627">
                <ele>56.200000</ele>
                <time>2018-10-21T02:35:19Z</time>
            </trkpt>
            <trkpt lon="101.213562" lat="14.322639">
                <ele>55.700000</ele>
                <time>2018-10-21T02:35:21Z</time>
            </trkpt>
            <trkpt lon="101.213506" lat="14.322636">
                <ele>55.200000</ele>
                <time>2018-10-21T02:35:23Z</time>
            </trkpt>
            <trkpt lon="101.213473" lat="14.322637">
                <ele>54.700000</ele>
                <time>2018-10-21T02:35:24Z</time>
            </trkpt>
            <trkpt lon="101.213438" lat="14.322639">
                <ele>54.600000</ele>
                <time>2018-10-21T02:35:25Z</time>
            </trkpt>
            <trkpt lon="101.213402" lat="14.322636">
                <ele>54.100000</ele>
                <time>2018-10-21T02:35:26Z</time>
            </trkpt>
            <trkpt lon="101.213369" lat="14.322629">
                <ele>53.600000</ele>
                <time>2018-10-21T02:35:27Z</time>
            </trkpt>
            <trkpt lon="101.213333" lat="14.322624">
                <ele>53.400000</ele>
                <time>2018-10-21T02:35:28Z</time>
            </trkpt>
            <trkpt lon="101.213300" lat="14.322616">
                <ele>53.400000</ele>
                <time>2018-10-21T02:35:29Z</time>
            </trkpt>
            <trkpt lon="101.213265" lat="14.322611">
                <ele>53.300000</ele>
                <time>2018-10-21T02:35:30Z</time>
            </trkpt>
            <trkpt lon="101.213225" lat="14.322606">
                <ele>53.300000</ele>
                <time>2018-10-21T02:35:31Z</time>
            </trkpt>
            <trkpt lon="101.213180" lat="14.322603">
                <ele>53.100000</ele>
                <time>2018-10-21T02:35:32Z</time>
            </trkpt>
            <trkpt lon="101.213139" lat="14.322603">
                <ele>53.200000</ele>
                <time>2018-10-21T02:35:33Z</time>
            </trkpt>
            <trkpt lon="101.213095" lat="14.322607">
                <ele>53.700000</ele>
                <time>2018-10-21T02:35:34Z</time>
            </trkpt>
            <trkpt lon="101.213057" lat="14.322609">
                <ele>53.900000</ele>
                <time>2018-10-21T02:35:35Z</time>
            </trkpt>
            <trkpt lon="101.213011" lat="14.322608">
                <ele>54.100000</ele>
                <time>2018-10-21T02:35:36Z</time>
            </trkpt>
            <trkpt lon="101.212963" lat="14.322605">
                <ele>54.000000</ele>
                <time>2018-10-21T02:35:37Z</time>
            </trkpt>
            <trkpt lon="101.212921" lat="14.322605">
                <ele>53.800000</ele>
                <time>2018-10-21T02:35:38Z</time>
            </trkpt>
            <trkpt lon="101.212882" lat="14.322608">
                <ele>53.800000</ele>
                <time>2018-10-21T02:35:39Z</time>
            </trkpt>
            <trkpt lon="101.212837" lat="14.322612">
                <ele>53.600000</ele>
                <time>2018-10-21T02:35:40Z</time>
            </trkpt>
            <trkpt lon="101.212795" lat="14.322613">
                <ele>53.400000</ele>
                <time>2018-10-21T02:35:41Z</time>
            </trkpt>
            <trkpt lon="101.212751" lat="14.322614">
                <ele>53.300000</ele>
                <time>2018-10-21T02:35:42Z</time>
            </trkpt>
            <trkpt lon="101.212712" lat="14.322613">
                <ele>53.100000</ele>
                <time>2018-10-21T02:35:43Z</time>
            </trkpt>
            <trkpt lon="101.212670" lat="14.322606">
                <ele>52.900000</ele>
                <time>2018-10-21T02:35:44Z</time>
            </trkpt>
            <trkpt lon="101.212629" lat="14.322605">
                <ele>52.700000</ele>
                <time>2018-10-21T02:35:45Z</time>
            </trkpt>
            <trkpt lon="101.212591" lat="14.322600">
                <ele>52.700000</ele>
                <time>2018-10-21T02:35:46Z</time>
            </trkpt>
            <trkpt lon="101.212552" lat="14.322596">
                <ele>52.400000</ele>
                <time>2018-10-21T02:35:47Z</time>
            </trkpt>
            <trkpt lon="101.212515" lat="14.322590">
                <ele>52.100000</ele>
                <time>2018-10-21T02:35:48Z</time>
            </trkpt>
            <trkpt lon="101.212483" lat="14.322585">
                <ele>51.800000</ele>
                <time>2018-10-21T02:35:49Z</time>
            </trkpt>
            <trkpt lon="101.212452" lat="14.322580">
                <ele>51.800000</ele>
                <time>2018-10-21T02:35:50Z</time>
            </trkpt>
            <trkpt lon="101.212420" lat="14.322570">
                <ele>51.300000</ele>
                <time>2018-10-21T02:35:51Z</time>
            </trkpt>
            <trkpt lon="101.212402" lat="14.322548">
                <ele>51.000000</ele>
                <time>2018-10-21T02:35:52Z</time>
            </trkpt>
            <trkpt lon="101.212400" lat="14.322520">
                <ele>51.200000</ele>
                <time>2018-10-21T02:35:53Z</time>
            </trkpt>
            <trkpt lon="101.212407" lat="14.322489">
                <ele>51.600000</ele>
                <time>2018-10-21T02:35:54Z</time>
            </trkpt>
            <trkpt lon="101.212419" lat="14.322458">
                <ele>51.900000</ele>
                <time>2018-10-21T02:35:55Z</time>
            </trkpt>
            <trkpt lon="101.212433" lat="14.322421">
                <ele>52.100000</ele>
                <time>2018-10-21T02:35:56Z</time>
            </trkpt>
            <trkpt lon="101.212449" lat="14.322381">
                <ele>52.300000</ele>
                <time>2018-10-21T02:35:57Z</time>
            </trkpt>
            <trkpt lon="101.212465" lat="14.322343">
                <ele>53.000000</ele>
                <time>2018-10-21T02:35:58Z</time>
            </trkpt>
            <trkpt lon="101.212477" lat="14.322297">
                <ele>53.000000</ele>
                <time>2018-10-21T02:35:59Z</time>
            </trkpt>
            <trkpt lon="101.212493" lat="14.322255">
                <ele>53.200000</ele>
                <time>2018-10-21T02:36:00Z</time>
            </trkpt>
            <trkpt lon="101.212513" lat="14.322215">
                <ele>53.200000</ele>
                <time>2018-10-21T02:36:01Z</time>
            </trkpt>
            <trkpt lon="101.212537" lat="14.322175">
                <ele>53.100000</ele>
                <time>2018-10-21T02:36:02Z</time>
            </trkpt>
            <trkpt lon="101.212568" lat="14.322141">
                <ele>52.900000</ele>
                <time>2018-10-21T02:36:03Z</time>
            </trkpt>
            <trkpt lon="101.212610" lat="14.322116">
                <ele>53.000000</ele>
                <time>2018-10-21T02:36:04Z</time>
            </trkpt>
            <trkpt lon="101.212656" lat="14.322100">
                <ele>53.000000</ele>
                <time>2018-10-21T02:36:05Z</time>
            </trkpt>
            <trkpt lon="101.212701" lat="14.322081">
                <ele>53.000000</ele>
                <time>2018-10-21T02:36:06Z</time>
            </trkpt>
            <trkpt lon="101.212744" lat="14.322056">
                <ele>53.000000</ele>
                <time>2018-10-21T02:36:07Z</time>
            </trkpt>
            <trkpt lon="101.212793" lat="14.322031">
                <ele>53.000000</ele>
                <time>2018-10-21T02:36:08Z</time>
            </trkpt>
            <trkpt lon="101.212841" lat="14.321998">
                <ele>52.900000</ele>
                <time>2018-10-21T02:36:09Z</time>
            </trkpt>
            <trkpt lon="101.212881" lat="14.321969">
                <ele>52.800000</ele>
                <time>2018-10-21T02:36:10Z</time>
            </trkpt>
            <trkpt lon="101.212923" lat="14.321946">
                <ele>52.700000</ele>
                <time>2018-10-21T02:36:11Z</time>
            </trkpt>
            <trkpt lon="101.212968" lat="14.321932">
                <ele>52.600000</ele>
                <time>2018-10-21T02:36:12Z</time>
            </trkpt>
            <trkpt lon="101.213012" lat="14.321918">
                <ele>52.500000</ele>
                <time>2018-10-21T02:36:13Z</time>
            </trkpt>
            <trkpt lon="101.213060" lat="14.321910">
                <ele>52.400000</ele>
                <time>2018-10-21T02:36:14Z</time>
            </trkpt>
            <trkpt lon="101.213107" lat="14.321911">
                <ele>52.300000</ele>
                <time>2018-10-21T02:36:15Z</time>
            </trkpt>
            <trkpt lon="101.213153" lat="14.321913">
                <ele>52.200000</ele>
                <time>2018-10-21T02:36:16Z</time>
            </trkpt>
            <trkpt lon="101.213205" lat="14.321923">
                <ele>52.100000</ele>
                <time>2018-10-21T02:36:17Z</time>
            </trkpt>
            <trkpt lon="101.213256" lat="14.321919">
                <ele>52.200000</ele>
                <time>2018-10-21T02:36:18Z</time>
            </trkpt>
            <trkpt lon="101.213301" lat="14.321913">
                <ele>52.200000</ele>
                <time>2018-10-21T02:36:19Z</time>
            </trkpt>
            <trkpt lon="101.213348" lat="14.321910">
                <ele>52.300000</ele>
                <time>2018-10-21T02:36:20Z</time>
            </trkpt>
            <trkpt lon="101.213393" lat="14.321914">
                <ele>52.400000</ele>
                <time>2018-10-21T02:36:21Z</time>
            </trkpt>
            <trkpt lon="101.213436" lat="14.321919">
                <ele>52.500000</ele>
                <time>2018-10-21T02:36:22Z</time>
            </trkpt>
            <trkpt lon="101.213477" lat="14.321921">
                <ele>52.600000</ele>
                <time>2018-10-21T02:36:23Z</time>
            </trkpt>
            <trkpt lon="101.213520" lat="14.321924">
                <ele>52.600000</ele>
                <time>2018-10-21T02:36:24Z</time>
            </trkpt>
            <trkpt lon="101.213564" lat="14.321926">
                <ele>52.600000</ele>
                <time>2018-10-21T02:36:25Z</time>
            </trkpt>
            <trkpt lon="101.213607" lat="14.321926">
                <ele>52.700000</ele>
                <time>2018-10-21T02:36:26Z</time>
            </trkpt>
            <trkpt lon="101.213647" lat="14.321927">
                <ele>52.700000</ele>
                <time>2018-10-21T02:36:27Z</time>
            </trkpt>
            <trkpt lon="101.213688" lat="14.321926">
                <ele>52.700000</ele>
                <time>2018-10-21T02:36:28Z</time>
            </trkpt>
            <trkpt lon="101.213729" lat="14.321922">
                <ele>52.700000</ele>
                <time>2018-10-21T02:36:29Z</time>
            </trkpt>
            <trkpt lon="101.213769" lat="14.321922">
                <ele>52.700000</ele>
                <time>2018-10-21T02:36:30Z</time>
            </trkpt>
            <trkpt lon="101.213812" lat="14.321921">
                <ele>52.700000</ele>
                <time>2018-10-21T02:36:31Z</time>
            </trkpt>
            <trkpt lon="101.213851" lat="14.321917">
                <ele>52.700000</ele>
                <time>2018-10-21T02:36:32Z</time>
            </trkpt>
            <trkpt lon="101.213887" lat="14.321911">
                <ele>52.800000</ele>
                <time>2018-10-21T02:36:33Z</time>
            </trkpt>
            <trkpt lon="101.213922" lat="14.321898">
                <ele>52.800000</ele>
                <time>2018-10-21T02:36:34Z</time>
            </trkpt>
            <trkpt lon="101.213958" lat="14.321877">
                <ele>52.800000</ele>
                <time>2018-10-21T02:36:35Z</time>
            </trkpt>
            <trkpt lon="101.213989" lat="14.321852">
                <ele>52.900000</ele>
                <time>2018-10-21T02:36:36Z</time>
            </trkpt>
            <trkpt lon="101.214021" lat="14.321831">
                <ele>52.900000</ele>
                <time>2018-10-21T02:36:37Z</time>
            </trkpt>
            <trkpt lon="101.214052" lat="14.321812">
                <ele>53.000000</ele>
                <time>2018-10-21T02:36:38Z</time>
            </trkpt>
            <trkpt lon="101.214086" lat="14.321787">
                <ele>53.000000</ele>
                <time>2018-10-21T02:36:39Z</time>
            </trkpt>
            <trkpt lon="101.214121" lat="14.321758">
                <ele>53.100000</ele>
                <time>2018-10-21T02:36:40Z</time>
            </trkpt>
            <trkpt lon="101.214154" lat="14.321734">
                <ele>53.200000</ele>
                <time>2018-10-21T02:36:41Z</time>
            </trkpt>
            <trkpt lon="101.214193" lat="14.321711">
                <ele>53.300000</ele>
                <time>2018-10-21T02:36:42Z</time>
            </trkpt>
            <trkpt lon="101.214234" lat="14.321688">
                <ele>53.400000</ele>
                <time>2018-10-21T02:36:43Z</time>
            </trkpt>
            <trkpt lon="101.214277" lat="14.321667">
                <ele>53.500000</ele>
                <time>2018-10-21T02:36:44Z</time>
            </trkpt>
            <trkpt lon="101.214317" lat="14.321647">
                <ele>53.500000</ele>
                <time>2018-10-21T02:36:45Z</time>
            </trkpt>
            <trkpt lon="101.214354" lat="14.321628">
                <ele>53.600000</ele>
                <time>2018-10-21T02:36:46Z</time>
            </trkpt>
            <trkpt lon="101.214392" lat="14.321606">
                <ele>53.600000</ele>
                <time>2018-10-21T02:36:47Z</time>
            </trkpt>
            <trkpt lon="101.214427" lat="14.321582">
                <ele>53.600000</ele>
                <time>2018-10-21T02:36:48Z</time>
            </trkpt>
            <trkpt lon="101.214467" lat="14.321558">
                <ele>53.600000</ele>
                <time>2018-10-21T02:36:49Z</time>
            </trkpt>
            <trkpt lon="101.214504" lat="14.321536">
                <ele>53.600000</ele>
                <time>2018-10-21T02:36:50Z</time>
            </trkpt>
            <trkpt lon="101.214541" lat="14.321519">
                <ele>53.700000</ele>
                <time>2018-10-21T02:36:51Z</time>
            </trkpt>
            <trkpt lon="101.214580" lat="14.321501">
                <ele>53.700000</ele>
                <time>2018-10-21T02:36:52Z</time>
            </trkpt>
            <trkpt lon="101.214616" lat="14.321482">
                <ele>53.700000</ele>
                <time>2018-10-21T02:36:53Z</time>
            </trkpt>
            <trkpt lon="101.214648" lat="14.321467">
                <ele>53.700000</ele>
                <time>2018-10-21T02:36:54Z</time>
            </trkpt>
            <trkpt lon="101.214683" lat="14.321449">
                <ele>53.700000</ele>
                <time>2018-10-21T02:36:55Z</time>
            </trkpt>
            <trkpt lon="101.214715" lat="14.321431">
                <ele>53.700000</ele>
                <time>2018-10-21T02:36:56Z</time>
            </trkpt>
            <trkpt lon="101.214748" lat="14.321415">
                <ele>53.700000</ele>
                <time>2018-10-21T02:36:57Z</time>
            </trkpt>
            <trkpt lon="101.214778" lat="14.321403">
                <ele>53.700000</ele>
                <time>2018-10-21T02:36:58Z</time>
            </trkpt>
            <trkpt lon="101.214807" lat="14.321392">
                <ele>53.600000</ele>
                <time>2018-10-21T02:36:59Z</time>
            </trkpt>
            <trkpt lon="101.214833" lat="14.321378">
                <ele>53.600000</ele>
                <time>2018-10-21T02:37:00Z</time>
            </trkpt>
            <trkpt lon="101.214873" lat="14.321359">
                <ele>53.600000</ele>
                <time>2018-10-21T02:37:02Z</time>
            </trkpt>
            <trkpt lon="101.214898" lat="14.321337">
                <ele>53.500000</ele>
                <time>2018-10-21T02:37:05Z</time>
            </trkpt>
            <trkpt lon="101.214898" lat="14.321309">
                <ele>53.500000</ele>
                <time>2018-10-21T02:37:11Z</time>
            </trkpt>
            <trkpt lon="101.214931" lat="14.321293">
                <ele>53.500000</ele>
                <time>2018-10-21T02:37:17Z</time>
            </trkpt>
            <trkpt lon="101.214962" lat="14.321299">
                <ele>53.500000</ele>
                <time>2018-10-21T02:37:20Z</time>
            </trkpt>
            <trkpt lon="101.214999" lat="14.321291">
                <ele>53.400000</ele>
                <time>2018-10-21T02:37:24Z</time>
            </trkpt>
            <trkpt lon="101.215046" lat="14.321278">
                <ele>53.400000</ele>
                <time>2018-10-21T02:37:26Z</time>
            </trkpt>
            <trkpt lon="101.215096" lat="14.321256">
                <ele>53.400000</ele>
                <time>2018-10-21T02:37:28Z</time>
            </trkpt>
            <trkpt lon="101.215144" lat="14.321227">
                <ele>53.400000</ele>
                <time>2018-10-21T02:37:30Z</time>
            </trkpt>
            <trkpt lon="101.215166" lat="14.321208">
                <ele>53.400000</ele>
                <time>2018-10-21T02:37:31Z</time>
            </trkpt>
            <trkpt lon="101.215194" lat="14.321193">
                <ele>53.400000</ele>
                <time>2018-10-21T02:37:32Z</time>
            </trkpt>
            <trkpt lon="101.215224" lat="14.321175">
                <ele>53.400000</ele>
                <time>2018-10-21T02:37:33Z</time>
            </trkpt>
            <trkpt lon="101.215258" lat="14.321156">
                <ele>53.400000</ele>
                <time>2018-10-21T02:37:34Z</time>
            </trkpt>
            <trkpt lon="101.215288" lat="14.321139">
                <ele>53.400000</ele>
                <time>2018-10-21T02:37:35Z</time>
            </trkpt>
            <trkpt lon="101.215321" lat="14.321121">
                <ele>53.300000</ele>
                <time>2018-10-21T02:37:36Z</time>
            </trkpt>
            <trkpt lon="101.215358" lat="14.321093">
                <ele>53.300000</ele>
                <time>2018-10-21T02:37:37Z</time>
            </trkpt>
            <trkpt lon="101.215386" lat="14.321060">
                <ele>53.200000</ele>
                <time>2018-10-21T02:37:38Z</time>
            </trkpt>
            <trkpt lon="101.215414" lat="14.321023">
                <ele>53.200000</ele>
                <time>2018-10-21T02:37:39Z</time>
            </trkpt>
            <trkpt lon="101.215443" lat="14.320990">
                <ele>53.100000</ele>
                <time>2018-10-21T02:37:40Z</time>
            </trkpt>
            <trkpt lon="101.215474" lat="14.320959">
                <ele>53.100000</ele>
                <time>2018-10-21T02:37:41Z</time>
            </trkpt>
            <trkpt lon="101.215506" lat="14.320927">
                <ele>53.100000</ele>
                <time>2018-10-21T02:37:42Z</time>
            </trkpt>
            <trkpt lon="101.215546" lat="14.320908">
                <ele>53.100000</ele>
                <time>2018-10-21T02:37:43Z</time>
            </trkpt>
            <trkpt lon="101.215588" lat="14.320892">
                <ele>53.100000</ele>
                <time>2018-10-21T02:37:44Z</time>
            </trkpt>
            <trkpt lon="101.215631" lat="14.320884">
                <ele>53.200000</ele>
                <time>2018-10-21T02:37:45Z</time>
            </trkpt>
            <trkpt lon="101.215680" lat="14.320881">
                <ele>53.400000</ele>
                <time>2018-10-21T02:37:46Z</time>
            </trkpt>
            <trkpt lon="101.215726" lat="14.320880">
                <ele>53.500000</ele>
                <time>2018-10-21T02:37:47Z</time>
            </trkpt>
            <trkpt lon="101.215768" lat="14.320885">
                <ele>53.600000</ele>
                <time>2018-10-21T02:37:48Z</time>
            </trkpt>
            <trkpt lon="101.215805" lat="14.320888">
                <ele>53.700000</ele>
                <time>2018-10-21T02:37:49Z</time>
            </trkpt>
            <trkpt lon="101.215850" lat="14.320891">
                <ele>53.800000</ele>
                <time>2018-10-21T02:37:50Z</time>
            </trkpt>
            <trkpt lon="101.215890" lat="14.320900">
                <ele>53.900000</ele>
                <time>2018-10-21T02:37:51Z</time>
            </trkpt>
            <trkpt lon="101.215936" lat="14.320910">
                <ele>54.000000</ele>
                <time>2018-10-21T02:37:52Z</time>
            </trkpt>
            <trkpt lon="101.215979" lat="14.320909">
                <ele>54.100000</ele>
                <time>2018-10-21T02:37:53Z</time>
            </trkpt>
            <trkpt lon="101.216021" lat="14.320920">
                <ele>54.100000</ele>
                <time>2018-10-21T02:37:54Z</time>
            </trkpt>
            <trkpt lon="101.216059" lat="14.320930">
                <ele>54.200000</ele>
                <time>2018-10-21T02:37:55Z</time>
            </trkpt>
            <trkpt lon="101.216099" lat="14.320935">
                <ele>54.200000</ele>
                <time>2018-10-21T02:37:56Z</time>
            </trkpt>
            <trkpt lon="101.216137" lat="14.320942">
                <ele>54.200000</ele>
                <time>2018-10-21T02:37:57Z</time>
            </trkpt>
            <trkpt lon="101.216178" lat="14.320950">
                <ele>54.200000</ele>
                <time>2018-10-21T02:37:58Z</time>
            </trkpt>
            <trkpt lon="101.216221" lat="14.320957">
                <ele>54.300000</ele>
                <time>2018-10-21T02:37:59Z</time>
            </trkpt>
            <trkpt lon="101.216263" lat="14.320967">
                <ele>54.300000</ele>
                <time>2018-10-21T02:38:00Z</time>
            </trkpt>
            <trkpt lon="101.216308" lat="14.320977">
                <ele>54.300000</ele>
                <time>2018-10-21T02:38:01Z</time>
            </trkpt>
            <trkpt lon="101.216349" lat="14.320990">
                <ele>54.300000</ele>
                <time>2018-10-21T02:38:02Z</time>
            </trkpt>
            <trkpt lon="101.216389" lat="14.321004">
                <ele>54.300000</ele>
                <time>2018-10-21T02:38:03Z</time>
            </trkpt>
            <trkpt lon="101.216430" lat="14.321017">
                <ele>54.300000</ele>
                <time>2018-10-21T02:38:04Z</time>
            </trkpt>
            <trkpt lon="101.216470" lat="14.321023">
                <ele>54.300000</ele>
                <time>2018-10-21T02:38:05Z</time>
            </trkpt>
            <trkpt lon="101.216512" lat="14.321027">
                <ele>54.300000</ele>
                <time>2018-10-21T02:38:06Z</time>
            </trkpt>
            <trkpt lon="101.216551" lat="14.321033">
                <ele>54.300000</ele>
                <time>2018-10-21T02:38:07Z</time>
            </trkpt>
            <trkpt lon="101.216591" lat="14.321036">
                <ele>54.300000</ele>
                <time>2018-10-21T02:38:08Z</time>
            </trkpt>
            <trkpt lon="101.216632" lat="14.321036">
                <ele>54.300000</ele>
                <time>2018-10-21T02:38:09Z</time>
            </trkpt>
            <trkpt lon="101.216675" lat="14.321037">
                <ele>54.300000</ele>
                <time>2018-10-21T02:38:10Z</time>
            </trkpt>
            <trkpt lon="101.216715" lat="14.321036">
                <ele>54.300000</ele>
                <time>2018-10-21T02:38:11Z</time>
            </trkpt>
            <trkpt lon="101.216758" lat="14.321029">
                <ele>54.400000</ele>
                <time>2018-10-21T02:38:12Z</time>
            </trkpt>
            <trkpt lon="101.216794" lat="14.321017">
                <ele>54.400000</ele>
                <time>2018-10-21T02:38:13Z</time>
            </trkpt>
            <trkpt lon="101.216830" lat="14.321010">
                <ele>54.400000</ele>
                <time>2018-10-21T02:38:14Z</time>
            </trkpt>
            <trkpt lon="101.216869" lat="14.321002">
                <ele>54.400000</ele>
                <time>2018-10-21T02:38:15Z</time>
            </trkpt>
            <trkpt lon="101.216907" lat="14.320992">
                <ele>54.500000</ele>
                <time>2018-10-21T02:38:16Z</time>
            </trkpt>
            <trkpt lon="101.216940" lat="14.320986">
                <ele>54.500000</ele>
                <time>2018-10-21T02:38:17Z</time>
            </trkpt>
            <trkpt lon="101.216976" lat="14.320987">
                <ele>54.500000</ele>
                <time>2018-10-21T02:38:18Z</time>
            </trkpt>
            <trkpt lon="101.217013" lat="14.320985">
                <ele>54.500000</ele>
                <time>2018-10-21T02:38:19Z</time>
            </trkpt>
            <trkpt lon="101.217054" lat="14.320984">
                <ele>54.500000</ele>
                <time>2018-10-21T02:38:20Z</time>
            </trkpt>
            <trkpt lon="101.217104" lat="14.320983">
                <ele>54.400000</ele>
                <time>2018-10-21T02:38:21Z</time>
            </trkpt>
            <trkpt lon="101.217152" lat="14.320990">
                <ele>54.300000</ele>
                <time>2018-10-21T02:38:22Z</time>
            </trkpt>
            <trkpt lon="101.217203" lat="14.320997">
                <ele>54.200000</ele>
                <time>2018-10-21T02:38:23Z</time>
            </trkpt>
            <trkpt lon="101.217254" lat="14.321006">
                <ele>54.000000</ele>
                <time>2018-10-21T02:38:24Z</time>
            </trkpt>
            <trkpt lon="101.217307" lat="14.321014">
                <ele>53.900000</ele>
                <time>2018-10-21T02:38:25Z</time>
            </trkpt>
            <trkpt lon="101.217359" lat="14.321023">
                <ele>53.700000</ele>
                <time>2018-10-21T02:38:26Z</time>
            </trkpt>
            <trkpt lon="101.217411" lat="14.321027">
                <ele>53.600000</ele>
                <time>2018-10-21T02:38:27Z</time>
            </trkpt>
            <trkpt lon="101.217464" lat="14.321032">
                <ele>53.600000</ele>
                <time>2018-10-21T02:38:28Z</time>
            </trkpt>
            <trkpt lon="101.217513" lat="14.321043">
                <ele>53.500000</ele>
                <time>2018-10-21T02:38:29Z</time>
            </trkpt>
            <trkpt lon="101.217563" lat="14.321054">
                <ele>53.400000</ele>
                <time>2018-10-21T02:38:30Z</time>
            </trkpt>
            <trkpt lon="101.217610" lat="14.321061">
                <ele>53.400000</ele>
                <time>2018-10-21T02:38:31Z</time>
            </trkpt>
            <trkpt lon="101.217653" lat="14.321073">
                <ele>53.400000</ele>
                <time>2018-10-21T02:38:32Z</time>
            </trkpt>
            <trkpt lon="101.217696" lat="14.321086">
                <ele>53.300000</ele>
                <time>2018-10-21T02:38:33Z</time>
            </trkpt>
            <trkpt lon="101.217737" lat="14.321099">
                <ele>53.300000</ele>
                <time>2018-10-21T02:38:34Z</time>
            </trkpt>
            <trkpt lon="101.217776" lat="14.321106">
                <ele>53.300000</ele>
                <time>2018-10-21T02:38:35Z</time>
            </trkpt>
            <trkpt lon="101.217818" lat="14.321109">
                <ele>53.300000</ele>
                <time>2018-10-21T02:38:36Z</time>
            </trkpt>
            <trkpt lon="101.217859" lat="14.321117">
                <ele>53.300000</ele>
                <time>2018-10-21T02:38:37Z</time>
            </trkpt>
            <trkpt lon="101.217902" lat="14.321128">
                <ele>53.400000</ele>
                <time>2018-10-21T02:38:38Z</time>
            </trkpt>
            <trkpt lon="101.217942" lat="14.321142">
                <ele>53.400000</ele>
                <time>2018-10-21T02:38:39Z</time>
            </trkpt>
            <trkpt lon="101.217989" lat="14.321152">
                <ele>53.400000</ele>
                <time>2018-10-21T02:38:40Z</time>
            </trkpt>
            <trkpt lon="101.218035" lat="14.321167">
                <ele>53.400000</ele>
                <time>2018-10-21T02:38:41Z</time>
            </trkpt>
            <trkpt lon="101.218079" lat="14.321179">
                <ele>53.400000</ele>
                <time>2018-10-21T02:38:42Z</time>
            </trkpt>
            <trkpt lon="101.218120" lat="14.321183">
                <ele>53.400000</ele>
                <time>2018-10-21T02:38:43Z</time>
            </trkpt>
            <trkpt lon="101.218156" lat="14.321192">
                <ele>53.400000</ele>
                <time>2018-10-21T02:38:44Z</time>
            </trkpt>
            <trkpt lon="101.218200" lat="14.321213">
                <ele>53.400000</ele>
                <time>2018-10-21T02:38:46Z</time>
            </trkpt>
            <trkpt lon="101.218230" lat="14.321243">
                <ele>53.400000</ele>
                <time>2018-10-21T02:38:48Z</time>
            </trkpt>
            <trkpt lon="101.218254" lat="14.321276">
                <ele>53.300000</ele>
                <time>2018-10-21T02:38:51Z</time>
            </trkpt>
            <trkpt lon="101.218292" lat="14.321295">
                <ele>53.300000</ele>
                <time>2018-10-21T02:38:54Z</time>
            </trkpt>
            <trkpt lon="101.218334" lat="14.321295">
                <ele>53.200000</ele>
                <time>2018-10-21T02:38:56Z</time>
            </trkpt>
            <trkpt lon="101.218374" lat="14.321300">
                <ele>53.200000</ele>
                <time>2018-10-21T02:38:58Z</time>
            </trkpt>
            <trkpt lon="101.218425" lat="14.321306">
                <ele>53.100000</ele>
                <time>2018-10-21T02:39:00Z</time>
            </trkpt>
            <trkpt lon="101.218456" lat="14.321304">
                <ele>53.000000</ele>
                <time>2018-10-21T02:39:01Z</time>
            </trkpt>
            <trkpt lon="101.218491" lat="14.321308">
                <ele>52.900000</ele>
                <time>2018-10-21T02:39:02Z</time>
            </trkpt>
            <trkpt lon="101.218524" lat="14.321316">
                <ele>52.800000</ele>
                <time>2018-10-21T02:39:03Z</time>
            </trkpt>
            <trkpt lon="101.218556" lat="14.321326">
                <ele>52.700000</ele>
                <time>2018-10-21T02:39:04Z</time>
            </trkpt>
            <trkpt lon="101.218588" lat="14.321336">
                <ele>52.500000</ele>
                <time>2018-10-21T02:39:05Z</time>
            </trkpt>
            <trkpt lon="101.218618" lat="14.321342">
                <ele>52.400000</ele>
                <time>2018-10-21T02:39:06Z</time>
            </trkpt>
            <trkpt lon="101.218653" lat="14.321343">
                <ele>52.300000</ele>
                <time>2018-10-21T02:39:07Z</time>
            </trkpt>
            <trkpt lon="101.218686" lat="14.321331">
                <ele>52.300000</ele>
                <time>2018-10-21T02:39:08Z</time>
            </trkpt>
            <trkpt lon="101.218715" lat="14.321326">
                <ele>52.300000</ele>
                <time>2018-10-21T02:39:09Z</time>
            </trkpt>
            <trkpt lon="101.218745" lat="14.321319">
                <ele>52.300000</ele>
                <time>2018-10-21T02:39:10Z</time>
            </trkpt>
            <trkpt lon="101.218794" lat="14.321307">
                <ele>52.300000</ele>
                <time>2018-10-21T02:39:12Z</time>
            </trkpt>
            <trkpt lon="101.218855" lat="14.321312">
                <ele>52.300000</ele>
                <time>2018-10-21T02:39:14Z</time>
            </trkpt>
            <trkpt lon="101.218890" lat="14.321315">
                <ele>52.300000</ele>
                <time>2018-10-21T02:39:15Z</time>
            </trkpt>
            <trkpt lon="101.218924" lat="14.321322">
                <ele>52.300000</ele>
                <time>2018-10-21T02:39:16Z</time>
            </trkpt>
            <trkpt lon="101.218956" lat="14.321326">
                <ele>52.300000</ele>
                <time>2018-10-21T02:39:17Z</time>
            </trkpt>
            <trkpt lon="101.218988" lat="14.321330">
                <ele>52.400000</ele>
                <time>2018-10-21T02:39:18Z</time>
            </trkpt>
            <trkpt lon="101.219020" lat="14.321329">
                <ele>52.400000</ele>
                <time>2018-10-21T02:39:19Z</time>
            </trkpt>
            <trkpt lon="101.219050" lat="14.321327">
                <ele>52.400000</ele>
                <time>2018-10-21T02:39:20Z</time>
            </trkpt>
            <trkpt lon="101.219082" lat="14.321328">
                <ele>52.400000</ele>
                <time>2018-10-21T02:39:21Z</time>
            </trkpt>
            <trkpt lon="101.219136" lat="14.321323">
                <ele>52.400000</ele>
                <time>2018-10-21T02:39:23Z</time>
            </trkpt>
            <trkpt lon="101.219165" lat="14.321322">
                <ele>52.400000</ele>
                <time>2018-10-21T02:39:24Z</time>
            </trkpt>
            <trkpt lon="101.219195" lat="14.321324">
                <ele>52.400000</ele>
                <time>2018-10-21T02:39:25Z</time>
            </trkpt>
            <trkpt lon="101.219224" lat="14.321325">
                <ele>52.400000</ele>
                <time>2018-10-21T02:39:26Z</time>
            </trkpt>
            <trkpt lon="101.219256" lat="14.321323">
                <ele>52.500000</ele>
                <time>2018-10-21T02:39:27Z</time>
            </trkpt>
            <trkpt lon="101.219310" lat="14.321319">
                <ele>52.500000</ele>
                <time>2018-10-21T02:39:29Z</time>
            </trkpt>
            <trkpt lon="101.219361" lat="14.321300">
                <ele>52.500000</ele>
                <time>2018-10-21T02:39:31Z</time>
            </trkpt>
            <trkpt lon="101.219403" lat="14.321266">
                <ele>52.500000</ele>
                <time>2018-10-21T02:39:33Z</time>
            </trkpt>
            <trkpt lon="101.219452" lat="14.321245">
                <ele>52.500000</ele>
                <time>2018-10-21T02:39:35Z</time>
            </trkpt>
            <trkpt lon="101.219507" lat="14.321237">
                <ele>52.600000</ele>
                <time>2018-10-21T02:39:37Z</time>
            </trkpt>
            <trkpt lon="101.219550" lat="14.321256">
                <ele>52.600000</ele>
                <time>2018-10-21T02:39:39Z</time>
            </trkpt>
            <trkpt lon="101.219580" lat="14.321267">
                <ele>52.500000</ele>
                <time>2018-10-21T02:39:41Z</time>
            </trkpt>
            <trkpt lon="101.219616" lat="14.321270">
                <ele>52.500000</ele>
                <time>2018-10-21T02:39:43Z</time>
            </trkpt>
            <trkpt lon="101.219669" lat="14.321280">
                <ele>52.500000</ele>
                <time>2018-10-21T02:39:45Z</time>
            </trkpt>
            <trkpt lon="101.219697" lat="14.321285">
                <ele>52.500000</ele>
                <time>2018-10-21T02:39:46Z</time>
            </trkpt>
            <trkpt lon="101.219725" lat="14.321292">
                <ele>52.500000</ele>
                <time>2018-10-21T02:39:47Z</time>
            </trkpt>
            <trkpt lon="101.219753" lat="14.321302">
                <ele>52.500000</ele>
                <time>2018-10-21T02:39:48Z</time>
            </trkpt>
            <trkpt lon="101.219787" lat="14.321309">
                <ele>52.500000</ele>
                <time>2018-10-21T02:39:49Z</time>
            </trkpt>
            <trkpt lon="101.219819" lat="14.321319">
                <ele>52.400000</ele>
                <time>2018-10-21T02:39:50Z</time>
            </trkpt>
            <trkpt lon="101.219852" lat="14.321328">
                <ele>52.400000</ele>
                <time>2018-10-21T02:39:51Z</time>
            </trkpt>
            <trkpt lon="101.219882" lat="14.321337">
                <ele>52.400000</ele>
                <time>2018-10-21T02:39:52Z</time>
            </trkpt>
            <trkpt lon="101.219926" lat="14.321359">
                <ele>52.300000</ele>
                <time>2018-10-21T02:39:54Z</time>
            </trkpt>
            <trkpt lon="101.219951" lat="14.321372">
                <ele>52.300000</ele>
                <time>2018-10-21T02:39:55Z</time>
            </trkpt>
            <trkpt lon="101.220001" lat="14.321389">
                <ele>52.200000</ele>
                <time>2018-10-21T02:39:57Z</time>
            </trkpt>
            <trkpt lon="101.220029" lat="14.321395">
                <ele>52.200000</ele>
                <time>2018-10-21T02:39:58Z</time>
            </trkpt>
            <trkpt lon="101.220057" lat="14.321402">
                <ele>52.200000</ele>
                <time>2018-10-21T02:39:59Z</time>
            </trkpt>
            <trkpt lon="101.220086" lat="14.321409">
                <ele>52.100000</ele>
                <time>2018-10-21T02:40:00Z</time>
            </trkpt>
            <trkpt lon="101.220115" lat="14.321417">
                <ele>52.100000</ele>
                <time>2018-10-21T02:40:01Z</time>
            </trkpt>
            <trkpt lon="101.220144" lat="14.321422">
                <ele>52.100000</ele>
                <time>2018-10-21T02:40:02Z</time>
            </trkpt>
            <trkpt lon="101.220176" lat="14.321425">
                <ele>52.100000</ele>
                <time>2018-10-21T02:40:03Z</time>
            </trkpt>
            <trkpt lon="101.220212" lat="14.321421">
                <ele>52.100000</ele>
                <time>2018-10-21T02:40:04Z</time>
            </trkpt>
            <trkpt lon="101.220248" lat="14.321415">
                <ele>52.100000</ele>
                <time>2018-10-21T02:40:05Z</time>
            </trkpt>
            <trkpt lon="101.220282" lat="14.321408">
                <ele>52.100000</ele>
                <time>2018-10-21T02:40:06Z</time>
            </trkpt>
            <trkpt lon="101.220312" lat="14.321399">
                <ele>52.000000</ele>
                <time>2018-10-21T02:40:07Z</time>
            </trkpt>
            <trkpt lon="101.220341" lat="14.321389">
                <ele>52.100000</ele>
                <time>2018-10-21T02:40:08Z</time>
            </trkpt>
            <trkpt lon="101.220367" lat="14.321373">
                <ele>52.100000</ele>
                <time>2018-10-21T02:40:09Z</time>
            </trkpt>
            <trkpt lon="101.220394" lat="14.321362">
                <ele>52.200000</ele>
                <time>2018-10-21T02:40:10Z</time>
            </trkpt>
            <trkpt lon="101.220426" lat="14.321347">
                <ele>52.200000</ele>
                <time>2018-10-21T02:40:11Z</time>
            </trkpt>
            <trkpt lon="101.220464" lat="14.321342">
                <ele>52.300000</ele>
                <time>2018-10-21T02:40:12Z</time>
            </trkpt>
            <trkpt lon="101.220497" lat="14.321327">
                <ele>52.300000</ele>
                <time>2018-10-21T02:40:13Z</time>
            </trkpt>
            <trkpt lon="101.220531" lat="14.321312">
                <ele>52.300000</ele>
                <time>2018-10-21T02:40:14Z</time>
            </trkpt>
            <trkpt lon="101.220566" lat="14.321297">
                <ele>52.400000</ele>
                <time>2018-10-21T02:40:15Z</time>
            </trkpt>
            <trkpt lon="101.220598" lat="14.321284">
                <ele>52.400000</ele>
                <time>2018-10-21T02:40:16Z</time>
            </trkpt>
            <trkpt lon="101.220635" lat="14.321272">
                <ele>52.500000</ele>
                <time>2018-10-21T02:40:17Z</time>
            </trkpt>
            <trkpt lon="101.220669" lat="14.321263">
                <ele>52.600000</ele>
                <time>2018-10-21T02:40:18Z</time>
            </trkpt>
            <trkpt lon="101.220702" lat="14.321252">
                <ele>52.600000</ele>
                <time>2018-10-21T02:40:19Z</time>
            </trkpt>
            <trkpt lon="101.220735" lat="14.321229">
                <ele>52.700000</ele>
                <time>2018-10-21T02:40:20Z</time>
            </trkpt>
            <trkpt lon="101.220773" lat="14.321206">
                <ele>52.700000</ele>
                <time>2018-10-21T02:40:21Z</time>
            </trkpt>
            <trkpt lon="101.220802" lat="14.321181">
                <ele>52.800000</ele>
                <time>2018-10-21T02:40:22Z</time>
            </trkpt>
            <trkpt lon="101.220828" lat="14.321154">
                <ele>52.800000</ele>
                <time>2018-10-21T02:40:23Z</time>
            </trkpt>
            <trkpt lon="101.220852" lat="14.321124">
                <ele>52.800000</ele>
                <time>2018-10-21T02:40:24Z</time>
            </trkpt>
            <trkpt lon="101.220872" lat="14.321094">
                <ele>52.900000</ele>
                <time>2018-10-21T02:40:25Z</time>
            </trkpt>
            <trkpt lon="101.220893" lat="14.321061">
                <ele>52.900000</ele>
                <time>2018-10-21T02:40:26Z</time>
            </trkpt>
            <trkpt lon="101.220913" lat="14.321021">
                <ele>52.900000</ele>
                <time>2018-10-21T02:40:27Z</time>
            </trkpt>
            <trkpt lon="101.220930" lat="14.320980">
                <ele>53.000000</ele>
                <time>2018-10-21T02:40:28Z</time>
            </trkpt>
            <trkpt lon="101.220949" lat="14.320938">
                <ele>53.000000</ele>
                <time>2018-10-21T02:40:29Z</time>
            </trkpt>
            <trkpt lon="101.220969" lat="14.320898">
                <ele>53.000000</ele>
                <time>2018-10-21T02:40:30Z</time>
            </trkpt>
            <trkpt lon="101.220991" lat="14.320857">
                <ele>53.000000</ele>
                <time>2018-10-21T02:40:31Z</time>
            </trkpt>
            <trkpt lon="101.220999" lat="14.320820">
                <ele>53.000000</ele>
                <time>2018-10-21T02:40:32Z</time>
            </trkpt>
            <trkpt lon="101.221004" lat="14.320783">
                <ele>53.000000</ele>
                <time>2018-10-21T02:40:33Z</time>
            </trkpt>
            <trkpt lon="101.221005" lat="14.320749">
                <ele>53.000000</ele>
                <time>2018-10-21T02:40:34Z</time>
            </trkpt>
            <trkpt lon="101.221004" lat="14.320716">
                <ele>53.000000</ele>
                <time>2018-10-21T02:40:35Z</time>
            </trkpt>
            <trkpt lon="101.221003" lat="14.320686">
                <ele>53.000000</ele>
                <time>2018-10-21T02:40:36Z</time>
            </trkpt>
            <trkpt lon="101.221000" lat="14.320651">
                <ele>53.000000</ele>
                <time>2018-10-21T02:40:37Z</time>
            </trkpt>
            <trkpt lon="101.221001" lat="14.320617">
                <ele>53.000000</ele>
                <time>2018-10-21T02:40:38Z</time>
            </trkpt>
            <trkpt lon="101.220994" lat="14.320580">
                <ele>53.000000</ele>
                <time>2018-10-21T02:40:39Z</time>
            </trkpt>
            <trkpt lon="101.220990" lat="14.320547">
                <ele>53.000000</ele>
                <time>2018-10-21T02:40:40Z</time>
            </trkpt>
            <trkpt lon="101.220987" lat="14.320515">
                <ele>53.000000</ele>
                <time>2018-10-21T02:40:41Z</time>
            </trkpt>
            <trkpt lon="101.220985" lat="14.320485">
                <ele>53.000000</ele>
                <time>2018-10-21T02:40:42Z</time>
            </trkpt>
            <trkpt lon="101.220983" lat="14.320455">
                <ele>53.000000</ele>
                <time>2018-10-21T02:40:43Z</time>
            </trkpt>
            <trkpt lon="101.220978" lat="14.320429">
                <ele>53.000000</ele>
                <time>2018-10-21T02:40:44Z</time>
            </trkpt>
            <trkpt lon="101.220973" lat="14.320400">
                <ele>53.000000</ele>
                <time>2018-10-21T02:40:45Z</time>
            </trkpt>
            <trkpt lon="101.220969" lat="14.320368">
                <ele>53.000000</ele>
                <time>2018-10-21T02:40:46Z</time>
            </trkpt>
            <trkpt lon="101.220970" lat="14.320336">
                <ele>53.000000</ele>
                <time>2018-10-21T02:40:47Z</time>
            </trkpt>
            <trkpt lon="101.220973" lat="14.320298">
                <ele>53.000000</ele>
                <time>2018-10-21T02:40:48Z</time>
            </trkpt>
            <trkpt lon="101.220976" lat="14.320259">
                <ele>53.000000</ele>
                <time>2018-10-21T02:40:49Z</time>
            </trkpt>
            <trkpt lon="101.220975" lat="14.320220">
                <ele>53.000000</ele>
                <time>2018-10-21T02:40:50Z</time>
            </trkpt>
            <trkpt lon="101.220976" lat="14.320178">
                <ele>52.900000</ele>
                <time>2018-10-21T02:40:51Z</time>
            </trkpt>
            <trkpt lon="101.220984" lat="14.320137">
                <ele>52.900000</ele>
                <time>2018-10-21T02:40:52Z</time>
            </trkpt>
            <trkpt lon="101.220984" lat="14.320094">
                <ele>52.900000</ele>
                <time>2018-10-21T02:40:53Z</time>
            </trkpt>
            <trkpt lon="101.220984" lat="14.320052">
                <ele>52.900000</ele>
                <time>2018-10-21T02:40:54Z</time>
            </trkpt>
            <trkpt lon="101.220986" lat="14.320013">
                <ele>52.900000</ele>
                <time>2018-10-21T02:40:55Z</time>
            </trkpt>
            <trkpt lon="101.220992" lat="14.319976">
                <ele>52.900000</ele>
                <time>2018-10-21T02:40:56Z</time>
            </trkpt>
            <trkpt lon="101.220995" lat="14.319936">
                <ele>53.000000</ele>
                <time>2018-10-21T02:40:57Z</time>
            </trkpt>
            <trkpt lon="101.221001" lat="14.319896">
                <ele>53.000000</ele>
                <time>2018-10-21T02:40:58Z</time>
            </trkpt>
            <trkpt lon="101.221006" lat="14.319860">
                <ele>53.000000</ele>
                <time>2018-10-21T02:40:59Z</time>
            </trkpt>
            <trkpt lon="101.221013" lat="14.319820">
                <ele>53.100000</ele>
                <time>2018-10-21T02:41:00Z</time>
            </trkpt>
            <trkpt lon="101.221020" lat="14.319782">
                <ele>53.100000</ele>
                <time>2018-10-21T02:41:01Z</time>
            </trkpt>
            <trkpt lon="101.221022" lat="14.319746">
                <ele>53.100000</ele>
                <time>2018-10-21T02:41:02Z</time>
            </trkpt>
            <trkpt lon="101.221017" lat="14.319710">
                <ele>53.200000</ele>
                <time>2018-10-21T02:41:03Z</time>
            </trkpt>
            <trkpt lon="101.221014" lat="14.319673">
                <ele>53.200000</ele>
                <time>2018-10-21T02:41:04Z</time>
            </trkpt>
            <trkpt lon="101.221012" lat="14.319634">
                <ele>53.300000</ele>
                <time>2018-10-21T02:41:05Z</time>
            </trkpt>
            <trkpt lon="101.221011" lat="14.319594">
                <ele>53.300000</ele>
                <time>2018-10-21T02:41:06Z</time>
            </trkpt>
            <trkpt lon="101.221013" lat="14.319552">
                <ele>53.400000</ele>
                <time>2018-10-21T02:41:07Z</time>
            </trkpt>
            <trkpt lon="101.221015" lat="14.319513">
                <ele>53.400000</ele>
                <time>2018-10-21T02:41:08Z</time>
            </trkpt>
            <trkpt lon="101.221017" lat="14.319472">
                <ele>53.500000</ele>
                <time>2018-10-21T02:41:09Z</time>
            </trkpt>
            <trkpt lon="101.221025" lat="14.319431">
                <ele>53.600000</ele>
                <time>2018-10-21T02:41:10Z</time>
            </trkpt>
            <trkpt lon="101.221032" lat="14.319390">
                <ele>53.700000</ele>
                <time>2018-10-21T02:41:11Z</time>
            </trkpt>
            <trkpt lon="101.221035" lat="14.319348">
                <ele>53.800000</ele>
                <time>2018-10-21T02:41:12Z</time>
            </trkpt>
            <trkpt lon="101.221038" lat="14.319307">
                <ele>53.800000</ele>
                <time>2018-10-21T02:41:13Z</time>
            </trkpt>
            <trkpt lon="101.221041" lat="14.319265">
                <ele>53.900000</ele>
                <time>2018-10-21T02:41:14Z</time>
            </trkpt>
            <trkpt lon="101.221045" lat="14.319224">
                <ele>54.000000</ele>
                <time>2018-10-21T02:41:15Z</time>
            </trkpt>
            <trkpt lon="101.221052" lat="14.319183">
                <ele>54.100000</ele>
                <time>2018-10-21T02:41:16Z</time>
            </trkpt>
            <trkpt lon="101.221058" lat="14.319144">
                <ele>54.100000</ele>
                <time>2018-10-21T02:41:17Z</time>
            </trkpt>
            <trkpt lon="101.221064" lat="14.319102">
                <ele>54.200000</ele>
                <time>2018-10-21T02:41:18Z</time>
            </trkpt>
            <trkpt lon="101.221070" lat="14.319059">
                <ele>54.200000</ele>
                <time>2018-10-21T02:41:19Z</time>
            </trkpt>
            <trkpt lon="101.221071" lat="14.319017">
                <ele>54.200000</ele>
                <time>2018-10-21T02:41:20Z</time>
            </trkpt>
            <trkpt lon="101.221072" lat="14.318972">
                <ele>54.200000</ele>
                <time>2018-10-21T02:41:21Z</time>
            </trkpt>
            <trkpt lon="101.221078" lat="14.318926">
                <ele>54.200000</ele>
                <time>2018-10-21T02:41:22Z</time>
            </trkpt>
            <trkpt lon="101.221078" lat="14.318884">
                <ele>54.200000</ele>
                <time>2018-10-21T02:41:23Z</time>
            </trkpt>
            <trkpt lon="101.221076" lat="14.318843">
                <ele>54.200000</ele>
                <time>2018-10-21T02:41:24Z</time>
            </trkpt>
            <trkpt lon="101.221080" lat="14.318800">
                <ele>54.100000</ele>
                <time>2018-10-21T02:41:25Z</time>
            </trkpt>
            <trkpt lon="101.221078" lat="14.318758">
                <ele>54.100000</ele>
                <time>2018-10-21T02:41:26Z</time>
            </trkpt>
            <trkpt lon="101.221078" lat="14.318716">
                <ele>54.000000</ele>
                <time>2018-10-21T02:41:27Z</time>
            </trkpt>
            <trkpt lon="101.221076" lat="14.318676">
                <ele>54.000000</ele>
                <time>2018-10-21T02:41:28Z</time>
            </trkpt>
            <trkpt lon="101.221072" lat="14.318637">
                <ele>53.900000</ele>
                <time>2018-10-21T02:41:29Z</time>
            </trkpt>
            <trkpt lon="101.221065" lat="14.318595">
                <ele>53.800000</ele>
                <time>2018-10-21T02:41:30Z</time>
            </trkpt>
            <trkpt lon="101.221061" lat="14.318558">
                <ele>53.700000</ele>
                <time>2018-10-21T02:41:31Z</time>
            </trkpt>
            <trkpt lon="101.221058" lat="14.318520">
                <ele>53.500000</ele>
                <time>2018-10-21T02:41:32Z</time>
            </trkpt>
            <trkpt lon="101.221048" lat="14.318472">
                <ele>53.400000</ele>
                <time>2018-10-21T02:41:33Z</time>
            </trkpt>
            <trkpt lon="101.221030" lat="14.318425">
                <ele>53.200000</ele>
                <time>2018-10-21T02:41:34Z</time>
            </trkpt>
            <trkpt lon="101.221015" lat="14.318379">
                <ele>53.000000</ele>
                <time>2018-10-21T02:41:35Z</time>
            </trkpt>
            <trkpt lon="101.221000" lat="14.318331">
                <ele>52.800000</ele>
                <time>2018-10-21T02:41:36Z</time>
            </trkpt>
            <trkpt lon="101.220994" lat="14.318281">
                <ele>52.600000</ele>
                <time>2018-10-21T02:41:37Z</time>
            </trkpt>
            <trkpt lon="101.220981" lat="14.318229">
                <ele>52.400000</ele>
                <time>2018-10-21T02:41:38Z</time>
            </trkpt>
            <trkpt lon="101.220968" lat="14.318178">
                <ele>52.200000</ele>
                <time>2018-10-21T02:41:39Z</time>
            </trkpt>
            <trkpt lon="101.220964" lat="14.318129">
                <ele>52.000000</ele>
                <time>2018-10-21T02:41:40Z</time>
            </trkpt>
            <trkpt lon="101.220961" lat="14.318085">
                <ele>51.900000</ele>
                <time>2018-10-21T02:41:41Z</time>
            </trkpt>
            <trkpt lon="101.220953" lat="14.318038">
                <ele>51.800000</ele>
                <time>2018-10-21T02:41:42Z</time>
            </trkpt>
            <trkpt lon="101.220943" lat="14.317989">
                <ele>51.600000</ele>
                <time>2018-10-21T02:41:43Z</time>
            </trkpt>
            <trkpt lon="101.220938" lat="14.317940">
                <ele>51.500000</ele>
                <time>2018-10-21T02:41:44Z</time>
            </trkpt>
            <trkpt lon="101.220935" lat="14.317892">
                <ele>51.400000</ele>
                <time>2018-10-21T02:41:45Z</time>
            </trkpt>
            <trkpt lon="101.220937" lat="14.317841">
                <ele>51.300000</ele>
                <time>2018-10-21T02:41:46Z</time>
            </trkpt>
            <trkpt lon="101.220939" lat="14.317787">
                <ele>51.300000</ele>
                <time>2018-10-21T02:41:47Z</time>
            </trkpt>
            <trkpt lon="101.220950" lat="14.317732">
                <ele>51.300000</ele>
                <time>2018-10-21T02:41:48Z</time>
            </trkpt>
            <trkpt lon="101.220962" lat="14.317678">
                <ele>51.300000</ele>
                <time>2018-10-21T02:41:49Z</time>
            </trkpt>
            <trkpt lon="101.220974" lat="14.317623">
                <ele>51.400000</ele>
                <time>2018-10-21T02:41:50Z</time>
            </trkpt>
            <trkpt lon="101.220987" lat="14.317566">
                <ele>51.400000</ele>
                <time>2018-10-21T02:41:51Z</time>
            </trkpt>
            <trkpt lon="101.221002" lat="14.317515">
                <ele>51.500000</ele>
                <time>2018-10-21T02:41:52Z</time>
            </trkpt>
            <trkpt lon="101.221004" lat="14.317462">
                <ele>51.600000</ele>
                <time>2018-10-21T02:41:53Z</time>
            </trkpt>
            <trkpt lon="101.221012" lat="14.317409">
                <ele>51.800000</ele>
                <time>2018-10-21T02:41:54Z</time>
            </trkpt>
            <trkpt lon="101.221029" lat="14.317365">
                <ele>51.900000</ele>
                <time>2018-10-21T02:41:55Z</time>
            </trkpt>
            <trkpt lon="101.221049" lat="14.317323">
                <ele>52.000000</ele>
                <time>2018-10-21T02:41:56Z</time>
            </trkpt>
            <trkpt lon="101.221072" lat="14.317280">
                <ele>52.100000</ele>
                <time>2018-10-21T02:41:57Z</time>
            </trkpt>
            <trkpt lon="101.221091" lat="14.317235">
                <ele>52.200000</ele>
                <time>2018-10-21T02:41:58Z</time>
            </trkpt>
            <trkpt lon="101.221113" lat="14.317190">
                <ele>52.300000</ele>
                <time>2018-10-21T02:41:59Z</time>
            </trkpt>
            <trkpt lon="101.221134" lat="14.317142">
                <ele>52.300000</ele>
                <time>2018-10-21T02:42:00Z</time>
            </trkpt>
            <trkpt lon="101.221153" lat="14.317093">
                <ele>52.300000</ele>
                <time>2018-10-21T02:42:01Z</time>
            </trkpt>
            <trkpt lon="101.221167" lat="14.317049">
                <ele>52.300000</ele>
                <time>2018-10-21T02:42:02Z</time>
            </trkpt>
            <trkpt lon="101.221183" lat="14.317005">
                <ele>52.200000</ele>
                <time>2018-10-21T02:42:03Z</time>
            </trkpt>
            <trkpt lon="101.221199" lat="14.316964">
                <ele>52.100000</ele>
                <time>2018-10-21T02:42:04Z</time>
            </trkpt>
            <trkpt lon="101.221215" lat="14.316922">
                <ele>52.000000</ele>
                <time>2018-10-21T02:42:05Z</time>
            </trkpt>
            <trkpt lon="101.221230" lat="14.316875">
                <ele>51.900000</ele>
                <time>2018-10-21T02:42:06Z</time>
            </trkpt>
            <trkpt lon="101.221253" lat="14.316823">
                <ele>51.700000</ele>
                <time>2018-10-21T02:42:07Z</time>
            </trkpt>
            <trkpt lon="101.221276" lat="14.316773">
                <ele>51.400000</ele>
                <time>2018-10-21T02:42:08Z</time>
            </trkpt>
            <trkpt lon="101.221291" lat="14.316730">
                <ele>51.200000</ele>
                <time>2018-10-21T02:42:09Z</time>
            </trkpt>
            <trkpt lon="101.221294" lat="14.316687">
                <ele>51.000000</ele>
                <time>2018-10-21T02:42:10Z</time>
            </trkpt>
            <trkpt lon="101.221297" lat="14.316638">
                <ele>50.700000</ele>
                <time>2018-10-21T02:42:11Z</time>
            </trkpt>
            <trkpt lon="101.221296" lat="14.316589">
                <ele>50.500000</ele>
                <time>2018-10-21T02:42:12Z</time>
            </trkpt>
            <trkpt lon="101.221296" lat="14.316539">
                <ele>50.200000</ele>
                <time>2018-10-21T02:42:13Z</time>
            </trkpt>
            <trkpt lon="101.221298" lat="14.316491">
                <ele>50.000000</ele>
                <time>2018-10-21T02:42:14Z</time>
            </trkpt>
            <trkpt lon="101.221297" lat="14.316445">
                <ele>49.800000</ele>
                <time>2018-10-21T02:42:15Z</time>
            </trkpt>
            <trkpt lon="101.221295" lat="14.316400">
                <ele>49.700000</ele>
                <time>2018-10-21T02:42:16Z</time>
            </trkpt>
            <trkpt lon="101.221292" lat="14.316353">
                <ele>49.500000</ele>
                <time>2018-10-21T02:42:17Z</time>
            </trkpt>
            <trkpt lon="101.221287" lat="14.316305">
                <ele>49.400000</ele>
                <time>2018-10-21T02:42:18Z</time>
            </trkpt>
            <trkpt lon="101.221286" lat="14.316259">
                <ele>49.300000</ele>
                <time>2018-10-21T02:42:19Z</time>
            </trkpt>
            <trkpt lon="101.221279" lat="14.316207">
                <ele>49.300000</ele>
                <time>2018-10-21T02:42:20Z</time>
            </trkpt>
            <trkpt lon="101.221280" lat="14.316159">
                <ele>49.300000</ele>
                <time>2018-10-21T02:42:21Z</time>
            </trkpt>
            <trkpt lon="101.221280" lat="14.316107">
                <ele>49.200000</ele>
                <time>2018-10-21T02:42:22Z</time>
            </trkpt>
            <trkpt lon="101.221285" lat="14.316056">
                <ele>49.200000</ele>
                <time>2018-10-21T02:42:23Z</time>
            </trkpt>
            <trkpt lon="101.221280" lat="14.316009">
                <ele>49.200000</ele>
                <time>2018-10-21T02:42:24Z</time>
            </trkpt>
            <trkpt lon="101.221264" lat="14.315964">
                <ele>49.300000</ele>
                <time>2018-10-21T02:42:25Z</time>
            </trkpt>
            <trkpt lon="101.221245" lat="14.315916">
                <ele>49.300000</ele>
                <time>2018-10-21T02:42:26Z</time>
            </trkpt>
            <trkpt lon="101.221233" lat="14.315868">
                <ele>49.300000</ele>
                <time>2018-10-21T02:42:27Z</time>
            </trkpt>
            <trkpt lon="101.221223" lat="14.315820">
                <ele>49.300000</ele>
                <time>2018-10-21T02:42:28Z</time>
            </trkpt>
            <trkpt lon="101.221209" lat="14.315767">
                <ele>49.300000</ele>
                <time>2018-10-21T02:42:29Z</time>
            </trkpt>
            <trkpt lon="101.221195" lat="14.315717">
                <ele>49.400000</ele>
                <time>2018-10-21T02:42:30Z</time>
            </trkpt>
            <trkpt lon="101.221179" lat="14.315677">
                <ele>49.500000</ele>
                <time>2018-10-21T02:42:31Z</time>
            </trkpt>
            <trkpt lon="101.221159" lat="14.315637">
                <ele>49.500000</ele>
                <time>2018-10-21T02:42:32Z</time>
            </trkpt>
            <trkpt lon="101.221138" lat="14.315599">
                <ele>49.600000</ele>
                <time>2018-10-21T02:42:33Z</time>
            </trkpt>
            <trkpt lon="101.221113" lat="14.315561">
                <ele>49.800000</ele>
                <time>2018-10-21T02:42:34Z</time>
            </trkpt>
            <trkpt lon="101.221089" lat="14.315521">
                <ele>49.900000</ele>
                <time>2018-10-21T02:42:35Z</time>
            </trkpt>
            <trkpt lon="101.221064" lat="14.315478">
                <ele>50.100000</ele>
                <time>2018-10-21T02:42:36Z</time>
            </trkpt>
            <trkpt lon="101.221035" lat="14.315432">
                <ele>50.300000</ele>
                <time>2018-10-21T02:42:37Z</time>
            </trkpt>
            <trkpt lon="101.221014" lat="14.315389">
                <ele>50.500000</ele>
                <time>2018-10-21T02:42:38Z</time>
            </trkpt>
            <trkpt lon="101.221000" lat="14.315342">
                <ele>50.700000</ele>
                <time>2018-10-21T02:42:39Z</time>
            </trkpt>
            <trkpt lon="101.220990" lat="14.315294">
                <ele>50.900000</ele>
                <time>2018-10-21T02:42:40Z</time>
            </trkpt>
            <trkpt lon="101.220983" lat="14.315244">
                <ele>51.100000</ele>
                <time>2018-10-21T02:42:41Z</time>
            </trkpt>
            <trkpt lon="101.220975" lat="14.315194">
                <ele>51.300000</ele>
                <time>2018-10-21T02:42:42Z</time>
            </trkpt>
            <trkpt lon="101.220967" lat="14.315145">
                <ele>51.500000</ele>
                <time>2018-10-21T02:42:43Z</time>
            </trkpt>
            <trkpt lon="101.220966" lat="14.315094">
                <ele>51.700000</ele>
                <time>2018-10-21T02:42:44Z</time>
            </trkpt>
            <trkpt lon="101.220971" lat="14.315043">
                <ele>51.900000</ele>
                <time>2018-10-21T02:42:45Z</time>
            </trkpt>
            <trkpt lon="101.220976" lat="14.314996">
                <ele>52.000000</ele>
                <time>2018-10-21T02:42:46Z</time>
            </trkpt>
            <trkpt lon="101.220981" lat="14.314948">
                <ele>52.100000</ele>
                <time>2018-10-21T02:42:47Z</time>
            </trkpt>
            <trkpt lon="101.220988" lat="14.314903">
                <ele>52.100000</ele>
                <time>2018-10-21T02:42:48Z</time>
            </trkpt>
            <trkpt lon="101.221000" lat="14.314857">
                <ele>52.200000</ele>
                <time>2018-10-21T02:42:49Z</time>
            </trkpt>
            <trkpt lon="101.221015" lat="14.314810">
                <ele>52.200000</ele>
                <time>2018-10-21T02:42:50Z</time>
            </trkpt>
            <trkpt lon="101.221026" lat="14.314762">
                <ele>52.200000</ele>
                <time>2018-10-21T02:42:51Z</time>
            </trkpt>
            <trkpt lon="101.221046" lat="14.314720">
                <ele>52.200000</ele>
                <time>2018-10-21T02:42:52Z</time>
            </trkpt>
            <trkpt lon="101.221071" lat="14.314676">
                <ele>52.100000</ele>
                <time>2018-10-21T02:42:53Z</time>
            </trkpt>
            <trkpt lon="101.221093" lat="14.314632">
                <ele>52.000000</ele>
                <time>2018-10-21T02:42:54Z</time>
            </trkpt>
            <trkpt lon="101.221114" lat="14.314592">
                <ele>52.000000</ele>
                <time>2018-10-21T02:42:55Z</time>
            </trkpt>
            <trkpt lon="101.221130" lat="14.314553">
                <ele>51.900000</ele>
                <time>2018-10-21T02:42:56Z</time>
            </trkpt>
            <trkpt lon="101.221151" lat="14.314511">
                <ele>51.700000</ele>
                <time>2018-10-21T02:42:57Z</time>
            </trkpt>
            <trkpt lon="101.221174" lat="14.314469">
                <ele>51.600000</ele>
                <time>2018-10-21T02:42:58Z</time>
            </trkpt>
            <trkpt lon="101.221199" lat="14.314425">
                <ele>51.400000</ele>
                <time>2018-10-21T02:42:59Z</time>
            </trkpt>
            <trkpt lon="101.221220" lat="14.314384">
                <ele>51.300000</ele>
                <time>2018-10-21T02:43:00Z</time>
            </trkpt>
            <trkpt lon="101.221246" lat="14.314340">
                <ele>51.200000</ele>
                <time>2018-10-21T02:43:01Z</time>
            </trkpt>
            <trkpt lon="101.221272" lat="14.314291">
                <ele>51.000000</ele>
                <time>2018-10-21T02:43:02Z</time>
            </trkpt>
            <trkpt lon="101.221292" lat="14.314241">
                <ele>50.900000</ele>
                <time>2018-10-21T02:43:03Z</time>
            </trkpt>
            <trkpt lon="101.221316" lat="14.314192">
                <ele>50.800000</ele>
                <time>2018-10-21T02:43:04Z</time>
            </trkpt>
            <trkpt lon="101.221335" lat="14.314145">
                <ele>50.600000</ele>
                <time>2018-10-21T02:43:05Z</time>
            </trkpt>
            <trkpt lon="101.221354" lat="14.314101">
                <ele>50.500000</ele>
                <time>2018-10-21T02:43:06Z</time>
            </trkpt>
            <trkpt lon="101.221375" lat="14.314058">
                <ele>50.400000</ele>
                <time>2018-10-21T02:43:07Z</time>
            </trkpt>
            <trkpt lon="101.221400" lat="14.314017">
                <ele>50.400000</ele>
                <time>2018-10-21T02:43:08Z</time>
            </trkpt>
            <trkpt lon="101.221421" lat="14.313974">
                <ele>50.300000</ele>
                <time>2018-10-21T02:43:09Z</time>
            </trkpt>
            <trkpt lon="101.221440" lat="14.313932">
                <ele>50.300000</ele>
                <time>2018-10-21T02:43:10Z</time>
            </trkpt>
            <trkpt lon="101.221461" lat="14.313894">
                <ele>50.300000</ele>
                <time>2018-10-21T02:43:11Z</time>
            </trkpt>
            <trkpt lon="101.221481" lat="14.313854">
                <ele>50.200000</ele>
                <time>2018-10-21T02:43:12Z</time>
            </trkpt>
            <trkpt lon="101.221504" lat="14.313813">
                <ele>50.200000</ele>
                <time>2018-10-21T02:43:13Z</time>
            </trkpt>
            <trkpt lon="101.221531" lat="14.313772">
                <ele>50.200000</ele>
                <time>2018-10-21T02:43:14Z</time>
            </trkpt>
            <trkpt lon="101.221563" lat="14.313738">
                <ele>50.200000</ele>
                <time>2018-10-21T02:43:15Z</time>
            </trkpt>
            <trkpt lon="101.221597" lat="14.313703">
                <ele>50.200000</ele>
                <time>2018-10-21T02:43:16Z</time>
            </trkpt>
            <trkpt lon="101.221635" lat="14.313675">
                <ele>50.200000</ele>
                <time>2018-10-21T02:43:17Z</time>
            </trkpt>
            <trkpt lon="101.221676" lat="14.313648">
                <ele>50.200000</ele>
                <time>2018-10-21T02:43:18Z</time>
            </trkpt>
            <trkpt lon="101.221717" lat="14.313624">
                <ele>50.200000</ele>
                <time>2018-10-21T02:43:19Z</time>
            </trkpt>
            <trkpt lon="101.221759" lat="14.313598">
                <ele>50.100000</ele>
                <time>2018-10-21T02:43:20Z</time>
            </trkpt>
            <trkpt lon="101.221801" lat="14.313568">
                <ele>50.100000</ele>
                <time>2018-10-21T02:43:21Z</time>
            </trkpt>
            <trkpt lon="101.221841" lat="14.313538">
                <ele>50.100000</ele>
                <time>2018-10-21T02:43:22Z</time>
            </trkpt>
            <trkpt lon="101.221881" lat="14.313512">
                <ele>50.000000</ele>
                <time>2018-10-21T02:43:23Z</time>
            </trkpt>
            <trkpt lon="101.221926" lat="14.313486">
                <ele>50.000000</ele>
                <time>2018-10-21T02:43:24Z</time>
            </trkpt>
            <trkpt lon="101.221964" lat="14.313464">
                <ele>50.000000</ele>
                <time>2018-10-21T02:43:25Z</time>
            </trkpt>
            <trkpt lon="101.221990" lat="14.313446">
                <ele>50.000000</ele>
                <time>2018-10-21T02:43:26Z</time>
            </trkpt>
            <trkpt lon="101.222006" lat="14.313422">
                <ele>50.000000</ele>
                <time>2018-10-21T02:43:27Z</time>
            </trkpt>
            <trkpt lon="101.222039" lat="14.313377">
                <ele>49.900000</ele>
                <time>2018-10-21T02:43:29Z</time>
            </trkpt>
            <trkpt lon="101.222059" lat="14.313353">
                <ele>49.900000</ele>
                <time>2018-10-21T02:43:30Z</time>
            </trkpt>
            <trkpt lon="101.222080" lat="14.313325">
                <ele>49.800000</ele>
                <time>2018-10-21T02:43:31Z</time>
            </trkpt>
            <trkpt lon="101.222095" lat="14.313296">
                <ele>49.800000</ele>
                <time>2018-10-21T02:43:32Z</time>
            </trkpt>
            <trkpt lon="101.222111" lat="14.313265">
                <ele>49.700000</ele>
                <time>2018-10-21T02:43:33Z</time>
            </trkpt>
            <trkpt lon="101.222127" lat="14.313231">
                <ele>49.700000</ele>
                <time>2018-10-21T02:43:34Z</time>
            </trkpt>
            <trkpt lon="101.222141" lat="14.313194">
                <ele>49.600000</ele>
                <time>2018-10-21T02:43:35Z</time>
            </trkpt>
            <trkpt lon="101.222156" lat="14.313155">
                <ele>49.600000</ele>
                <time>2018-10-21T02:43:36Z</time>
            </trkpt>
            <trkpt lon="101.222176" lat="14.313121">
                <ele>49.500000</ele>
                <time>2018-10-21T02:43:37Z</time>
            </trkpt>
            <trkpt lon="101.222198" lat="14.313087">
                <ele>49.500000</ele>
                <time>2018-10-21T02:43:38Z</time>
            </trkpt>
            <trkpt lon="101.222218" lat="14.313050">
                <ele>49.500000</ele>
                <time>2018-10-21T02:43:39Z</time>
            </trkpt>
            <trkpt lon="101.222233" lat="14.313012">
                <ele>49.400000</ele>
                <time>2018-10-21T02:43:40Z</time>
            </trkpt>
            <trkpt lon="101.222248" lat="14.312973">
                <ele>49.400000</ele>
                <time>2018-10-21T02:43:41Z</time>
            </trkpt>
            <trkpt lon="101.222267" lat="14.312939">
                <ele>49.300000</ele>
                <time>2018-10-21T02:43:42Z</time>
            </trkpt>
            <trkpt lon="101.222283" lat="14.312904">
                <ele>49.300000</ele>
                <time>2018-10-21T02:43:43Z</time>
            </trkpt>
            <trkpt lon="101.222308" lat="14.312870">
                <ele>49.200000</ele>
                <time>2018-10-21T02:43:44Z</time>
            </trkpt>
            <trkpt lon="101.222332" lat="14.312836">
                <ele>49.200000</ele>
                <time>2018-10-21T02:43:45Z</time>
            </trkpt>
            <trkpt lon="101.222354" lat="14.312802">
                <ele>49.200000</ele>
                <time>2018-10-21T02:43:46Z</time>
            </trkpt>
            <trkpt lon="101.222370" lat="14.312763">
                <ele>49.100000</ele>
                <time>2018-10-21T02:43:47Z</time>
            </trkpt>
            <trkpt lon="101.222384" lat="14.312726">
                <ele>49.100000</ele>
                <time>2018-10-21T02:43:48Z</time>
            </trkpt>
            <trkpt lon="101.222397" lat="14.312687">
                <ele>49.100000</ele>
                <time>2018-10-21T02:43:49Z</time>
            </trkpt>
            <trkpt lon="101.222412" lat="14.312651">
                <ele>49.000000</ele>
                <time>2018-10-21T02:43:50Z</time>
            </trkpt>
            <trkpt lon="101.222424" lat="14.312616">
                <ele>49.000000</ele>
                <time>2018-10-21T02:43:51Z</time>
            </trkpt>
            <trkpt lon="101.222435" lat="14.312584">
                <ele>49.000000</ele>
                <time>2018-10-21T02:43:52Z</time>
            </trkpt>
            <trkpt lon="101.222444" lat="14.312549">
                <ele>49.000000</ele>
                <time>2018-10-21T02:43:53Z</time>
            </trkpt>
            <trkpt lon="101.222456" lat="14.312514">
                <ele>48.900000</ele>
                <time>2018-10-21T02:43:54Z</time>
            </trkpt>
            <trkpt lon="101.222469" lat="14.312477">
                <ele>48.900000</ele>
                <time>2018-10-21T02:43:55Z</time>
            </trkpt>
            <trkpt lon="101.222479" lat="14.312444">
                <ele>48.900000</ele>
                <time>2018-10-21T02:43:56Z</time>
            </trkpt>
            <trkpt lon="101.222491" lat="14.312413">
                <ele>48.900000</ele>
                <time>2018-10-21T02:43:57Z</time>
            </trkpt>
            <trkpt lon="101.222504" lat="14.312382">
                <ele>48.900000</ele>
                <time>2018-10-21T02:43:58Z</time>
            </trkpt>
            <trkpt lon="101.222512" lat="14.312347">
                <ele>48.800000</ele>
                <time>2018-10-21T02:43:59Z</time>
            </trkpt>
            <trkpt lon="101.222523" lat="14.312308">
                <ele>48.800000</ele>
                <time>2018-10-21T02:44:00Z</time>
            </trkpt>
            <trkpt lon="101.222534" lat="14.312272">
                <ele>48.800000</ele>
                <time>2018-10-21T02:44:01Z</time>
            </trkpt>
            <trkpt lon="101.222546" lat="14.312238">
                <ele>48.800000</ele>
                <time>2018-10-21T02:44:02Z</time>
            </trkpt>
            <trkpt lon="101.222557" lat="14.312202">
                <ele>48.800000</ele>
                <time>2018-10-21T02:44:03Z</time>
            </trkpt>
            <trkpt lon="101.222563" lat="14.312168">
                <ele>48.800000</ele>
                <time>2018-10-21T02:44:04Z</time>
            </trkpt>
            <trkpt lon="101.222570" lat="14.312135">
                <ele>48.800000</ele>
                <time>2018-10-21T02:44:05Z</time>
            </trkpt>
            <trkpt lon="101.222575" lat="14.312099">
                <ele>48.800000</ele>
                <time>2018-10-21T02:44:06Z</time>
            </trkpt>
            <trkpt lon="101.222586" lat="14.312065">
                <ele>48.800000</ele>
                <time>2018-10-21T02:44:07Z</time>
            </trkpt>
            <trkpt lon="101.222594" lat="14.312026">
                <ele>48.900000</ele>
                <time>2018-10-21T02:44:08Z</time>
            </trkpt>
            <trkpt lon="101.222601" lat="14.311986">
                <ele>48.900000</ele>
                <time>2018-10-21T02:44:09Z</time>
            </trkpt>
            <trkpt lon="101.222604" lat="14.311941">
                <ele>48.900000</ele>
                <time>2018-10-21T02:44:10Z</time>
            </trkpt>
            <trkpt lon="101.222610" lat="14.311899">
                <ele>48.900000</ele>
                <time>2018-10-21T02:44:11Z</time>
            </trkpt>
            <trkpt lon="101.222618" lat="14.311856">
                <ele>49.000000</ele>
                <time>2018-10-21T02:44:12Z</time>
            </trkpt>
            <trkpt lon="101.222627" lat="14.311811">
                <ele>49.000000</ele>
                <time>2018-10-21T02:44:13Z</time>
            </trkpt>
            <trkpt lon="101.222634" lat="14.311768">
                <ele>49.100000</ele>
                <time>2018-10-21T02:44:14Z</time>
            </trkpt>
            <trkpt lon="101.222645" lat="14.311723">
                <ele>49.100000</ele>
                <time>2018-10-21T02:44:15Z</time>
            </trkpt>
            <trkpt lon="101.222653" lat="14.311678">
                <ele>49.200000</ele>
                <time>2018-10-21T02:44:16Z</time>
            </trkpt>
            <trkpt lon="101.222664" lat="14.311633">
                <ele>49.200000</ele>
                <time>2018-10-21T02:44:17Z</time>
            </trkpt>
            <trkpt lon="101.222674" lat="14.311589">
                <ele>49.300000</ele>
                <time>2018-10-21T02:44:18Z</time>
            </trkpt>
            <trkpt lon="101.222683" lat="14.311545">
                <ele>49.400000</ele>
                <time>2018-10-21T02:44:19Z</time>
            </trkpt>
            <trkpt lon="101.222694" lat="14.311499">
                <ele>49.500000</ele>
                <time>2018-10-21T02:44:20Z</time>
            </trkpt>
            <trkpt lon="101.222704" lat="14.311455">
                <ele>49.600000</ele>
                <time>2018-10-21T02:44:21Z</time>
            </trkpt>
            <trkpt lon="101.222713" lat="14.311412">
                <ele>49.600000</ele>
                <time>2018-10-21T02:44:22Z</time>
            </trkpt>
            <trkpt lon="101.222721" lat="14.311367">
                <ele>49.700000</ele>
                <time>2018-10-21T02:44:23Z</time>
            </trkpt>
            <trkpt lon="101.222724" lat="14.311325">
                <ele>49.800000</ele>
                <time>2018-10-21T02:44:24Z</time>
            </trkpt>
            <trkpt lon="101.222734" lat="14.311280">
                <ele>49.900000</ele>
                <time>2018-10-21T02:44:25Z</time>
            </trkpt>
            <trkpt lon="101.222746" lat="14.311237">
                <ele>50.000000</ele>
                <time>2018-10-21T02:44:26Z</time>
            </trkpt>
            <trkpt lon="101.222759" lat="14.311193">
                <ele>50.100000</ele>
                <time>2018-10-21T02:44:27Z</time>
            </trkpt>
            <trkpt lon="101.222773" lat="14.311151">
                <ele>50.200000</ele>
                <time>2018-10-21T02:44:28Z</time>
            </trkpt>
            <trkpt lon="101.222800" lat="14.311115">
                <ele>50.300000</ele>
                <time>2018-10-21T02:44:29Z</time>
            </trkpt>
            <trkpt lon="101.222831" lat="14.311083">
                <ele>50.400000</ele>
                <time>2018-10-21T02:44:30Z</time>
            </trkpt>
            <trkpt lon="101.222867" lat="14.311056">
                <ele>50.400000</ele>
                <time>2018-10-21T02:44:31Z</time>
            </trkpt>
            <trkpt lon="101.222908" lat="14.311040">
                <ele>50.500000</ele>
                <time>2018-10-21T02:44:32Z</time>
            </trkpt>
            <trkpt lon="101.222950" lat="14.311023">
                <ele>50.600000</ele>
                <time>2018-10-21T02:44:33Z</time>
            </trkpt>
            <trkpt lon="101.222988" lat="14.311003">
                <ele>50.700000</ele>
                <time>2018-10-21T02:44:34Z</time>
            </trkpt>
            <trkpt lon="101.223021" lat="14.310982">
                <ele>50.700000</ele>
                <time>2018-10-21T02:44:35Z</time>
            </trkpt>
            <trkpt lon="101.223044" lat="14.310953">
                <ele>50.800000</ele>
                <time>2018-10-21T02:44:36Z</time>
            </trkpt>
            <trkpt lon="101.223061" lat="14.310919">
                <ele>50.800000</ele>
                <time>2018-10-21T02:44:37Z</time>
            </trkpt>
            <trkpt lon="101.223074" lat="14.310878">
                <ele>50.800000</ele>
                <time>2018-10-21T02:44:38Z</time>
            </trkpt>
            <trkpt lon="101.223084" lat="14.310838">
                <ele>50.900000</ele>
                <time>2018-10-21T02:44:39Z</time>
            </trkpt>
            <trkpt lon="101.223079" lat="14.310798">
                <ele>50.900000</ele>
                <time>2018-10-21T02:44:40Z</time>
            </trkpt>
            <trkpt lon="101.223071" lat="14.310754">
                <ele>50.900000</ele>
                <time>2018-10-21T02:44:41Z</time>
            </trkpt>
            <trkpt lon="101.223065" lat="14.310709">
                <ele>51.000000</ele>
                <time>2018-10-21T02:44:42Z</time>
            </trkpt>
            <trkpt lon="101.223058" lat="14.310663">
                <ele>51.000000</ele>
                <time>2018-10-21T02:44:43Z</time>
            </trkpt>
            <trkpt lon="101.223053" lat="14.310615">
                <ele>51.000000</ele>
                <time>2018-10-21T02:44:44Z</time>
            </trkpt>
            <trkpt lon="101.223058" lat="14.310565">
                <ele>51.000000</ele>
                <time>2018-10-21T02:44:45Z</time>
            </trkpt>
            <trkpt lon="101.223067" lat="14.310512">
                <ele>51.000000</ele>
                <time>2018-10-21T02:44:46Z</time>
            </trkpt>
            <trkpt lon="101.223090" lat="14.310460">
                <ele>51.000000</ele>
                <time>2018-10-21T02:44:47Z</time>
            </trkpt>
            <trkpt lon="101.223116" lat="14.310408">
                <ele>51.000000</ele>
                <time>2018-10-21T02:44:48Z</time>
            </trkpt>
            <trkpt lon="101.223152" lat="14.310361">
                <ele>51.000000</ele>
                <time>2018-10-21T02:44:49Z</time>
            </trkpt>
            <trkpt lon="101.223200" lat="14.310318">
                <ele>51.000000</ele>
                <time>2018-10-21T02:44:50Z</time>
            </trkpt>
            <trkpt lon="101.223254" lat="14.310284">
                <ele>51.000000</ele>
                <time>2018-10-21T02:44:51Z</time>
            </trkpt>
            <trkpt lon="101.223303" lat="14.310248">
                <ele>51.000000</ele>
                <time>2018-10-21T02:44:52Z</time>
            </trkpt>
            <trkpt lon="101.223348" lat="14.310212">
                <ele>51.000000</ele>
                <time>2018-10-21T02:44:53Z</time>
            </trkpt>
            <trkpt lon="101.223386" lat="14.310167">
                <ele>51.000000</ele>
                <time>2018-10-21T02:44:54Z</time>
            </trkpt>
            <trkpt lon="101.223418" lat="14.310117">
                <ele>51.000000</ele>
                <time>2018-10-21T02:44:55Z</time>
            </trkpt>
            <trkpt lon="101.223456" lat="14.310066">
                <ele>51.000000</ele>
                <time>2018-10-21T02:44:56Z</time>
            </trkpt>
            <trkpt lon="101.223497" lat="14.310014">
                <ele>51.000000</ele>
                <time>2018-10-21T02:44:57Z</time>
            </trkpt>
            <trkpt lon="101.223535" lat="14.309968">
                <ele>51.000000</ele>
                <time>2018-10-21T02:44:58Z</time>
            </trkpt>
            <trkpt lon="101.223568" lat="14.309925">
                <ele>51.000000</ele>
                <time>2018-10-21T02:44:59Z</time>
            </trkpt>
            <trkpt lon="101.223598" lat="14.309879">
                <ele>51.000000</ele>
                <time>2018-10-21T02:45:00Z</time>
            </trkpt>
            <trkpt lon="101.223616" lat="14.309836">
                <ele>51.000000</ele>
                <time>2018-10-21T02:45:01Z</time>
            </trkpt>
            <trkpt lon="101.223637" lat="14.309794">
                <ele>51.000000</ele>
                <time>2018-10-21T02:45:02Z</time>
            </trkpt>
            <trkpt lon="101.223645" lat="14.309751">
                <ele>51.000000</ele>
                <time>2018-10-21T02:45:03Z</time>
            </trkpt>
            <trkpt lon="101.223649" lat="14.309709">
                <ele>51.000000</ele>
                <time>2018-10-21T02:45:04Z</time>
            </trkpt>
            <trkpt lon="101.223664" lat="14.309667">
                <ele>50.200000</ele>
                <time>2018-10-21T02:45:05Z</time>
            </trkpt>
            <trkpt lon="101.223677" lat="14.309617">
                <ele>49.300000</ele>
                <time>2018-10-21T02:45:06Z</time>
            </trkpt>
            <trkpt lon="101.223691" lat="14.309558">
                <ele>48.500000</ele>
                <time>2018-10-21T02:45:07Z</time>
            </trkpt>
            <trkpt lon="101.223691" lat="14.309493">
                <ele>47.600000</ele>
                <time>2018-10-21T02:45:08Z</time>
            </trkpt>
            <trkpt lon="101.223666" lat="14.309427">
                <ele>46.500000</ele>
                <time>2018-10-21T02:45:09Z</time>
            </trkpt>
            <trkpt lon="101.223618" lat="14.309362">
                <ele>45.300000</ele>
                <time>2018-10-21T02:45:10Z</time>
            </trkpt>
            <trkpt lon="101.223557" lat="14.309297">
                <ele>44.200000</ele>
                <time>2018-10-21T02:45:11Z</time>
            </trkpt>
            <trkpt lon="101.223489" lat="14.309235">
                <ele>43.100000</ele>
                <time>2018-10-21T02:45:12Z</time>
            </trkpt>
            <trkpt lon="101.223412" lat="14.309175">
                <ele>41.900000</ele>
                <time>2018-10-21T02:45:13Z</time>
            </trkpt>
            <trkpt lon="101.223338" lat="14.309129">
                <ele>41.000000</ele>
                <time>2018-10-21T02:45:14Z</time>
            </trkpt>
            <trkpt lon="101.223266" lat="14.309103">
                <ele>40.400000</ele>
                <time>2018-10-21T02:45:15Z</time>
            </trkpt>
            <trkpt lon="101.223206" lat="14.309093">
                <ele>39.600000</ele>
                <time>2018-10-21T02:45:16Z</time>
            </trkpt>
            <trkpt lon="101.223160" lat="14.309087">
                <ele>39.100000</ele>
                <time>2018-10-21T02:45:17Z</time>
            </trkpt>
            <trkpt lon="101.223120" lat="14.309076">
                <ele>38.600000</ele>
                <time>2018-10-21T02:45:18Z</time>
            </trkpt>
            <trkpt lon="101.223090" lat="14.309051">
                <ele>37.500000</ele>
                <time>2018-10-21T02:45:19Z</time>
            </trkpt>
            <trkpt lon="101.223065" lat="14.309003">
                <ele>37.300000</ele>
                <time>2018-10-21T02:45:20Z</time>
            </trkpt>
            <trkpt lon="101.223064" lat="14.308943">
                <ele>37.100000</ele>
                <time>2018-10-21T02:45:21Z</time>
            </trkpt>
            <trkpt lon="101.223078" lat="14.308888">
                <ele>37.000000</ele>
                <time>2018-10-21T02:45:22Z</time>
            </trkpt>
            <trkpt lon="101.223098" lat="14.308833">
                <ele>36.800000</ele>
                <time>2018-10-21T02:45:23Z</time>
            </trkpt>
            <trkpt lon="101.223126" lat="14.308774">
                <ele>36.500000</ele>
                <time>2018-10-21T02:45:24Z</time>
            </trkpt>
            <trkpt lon="101.223154" lat="14.308716">
                <ele>36.300000</ele>
                <time>2018-10-21T02:45:25Z</time>
            </trkpt>
            <trkpt lon="101.223183" lat="14.308655">
                <ele>36.000000</ele>
                <time>2018-10-21T02:45:26Z</time>
            </trkpt>
            <trkpt lon="101.223213" lat="14.308589">
                <ele>35.700000</ele>
                <time>2018-10-21T02:45:27Z</time>
            </trkpt>
            <trkpt lon="101.223238" lat="14.308517">
                <ele>35.400000</ele>
                <time>2018-10-21T02:45:28Z</time>
            </trkpt>
            <trkpt lon="101.223260" lat="14.308442">
                <ele>35.000000</ele>
                <time>2018-10-21T02:45:29Z</time>
            </trkpt>
            <trkpt lon="101.223282" lat="14.308362">
                <ele>34.600000</ele>
                <time>2018-10-21T02:45:30Z</time>
            </trkpt>
            <trkpt lon="101.223300" lat="14.308279">
                <ele>34.200000</ele>
                <time>2018-10-21T02:45:31Z</time>
            </trkpt>
            <trkpt lon="101.223317" lat="14.308196">
                <ele>33.800000</ele>
                <time>2018-10-21T02:45:32Z</time>
            </trkpt>
            <trkpt lon="101.223327" lat="14.308113">
                <ele>33.500000</ele>
                <time>2018-10-21T02:45:33Z</time>
            </trkpt>
            <trkpt lon="101.223342" lat="14.308029">
                <ele>33.100000</ele>
                <time>2018-10-21T02:45:34Z</time>
            </trkpt>
            <trkpt lon="101.223354" lat="14.307944">
                <ele>32.700000</ele>
                <time>2018-10-21T02:45:35Z</time>
            </trkpt>
            <trkpt lon="101.223365" lat="14.307861">
                <ele>32.400000</ele>
                <time>2018-10-21T02:45:36Z</time>
            </trkpt>
            <trkpt lon="101.223374" lat="14.307779">
                <ele>32.100000</ele>
                <time>2018-10-21T02:45:37Z</time>
            </trkpt>
            <trkpt lon="101.223380" lat="14.307699">
                <ele>31.800000</ele>
                <time>2018-10-21T02:45:38Z</time>
            </trkpt>
            <trkpt lon="101.223385" lat="14.307617">
                <ele>31.600000</ele>
                <time>2018-10-21T02:45:39Z</time>
            </trkpt>
            <trkpt lon="101.223394" lat="14.307535">
                <ele>31.300000</ele>
                <time>2018-10-21T02:45:40Z</time>
            </trkpt>
            <trkpt lon="101.223410" lat="14.307458">
                <ele>31.100000</ele>
                <time>2018-10-21T02:45:41Z</time>
            </trkpt>
            <trkpt lon="101.223437" lat="14.307380">
                <ele>30.900000</ele>
                <time>2018-10-21T02:45:42Z</time>
            </trkpt>
            <trkpt lon="101.223472" lat="14.307310">
                <ele>30.800000</ele>
                <time>2018-10-21T02:45:43Z</time>
            </trkpt>
            <trkpt lon="101.223499" lat="14.307239">
                <ele>30.600000</ele>
                <time>2018-10-21T02:45:44Z</time>
            </trkpt>
            <trkpt lon="101.223532" lat="14.307173">
                <ele>30.500000</ele>
                <time>2018-10-21T02:45:45Z</time>
            </trkpt>
            <trkpt lon="101.223563" lat="14.307108">
                <ele>30.400000</ele>
                <time>2018-10-21T02:45:46Z</time>
            </trkpt>
            <trkpt lon="101.223594" lat="14.307042">
                <ele>30.300000</ele>
                <time>2018-10-21T02:45:47Z</time>
            </trkpt>
            <trkpt lon="101.223625" lat="14.306979">
                <ele>30.200000</ele>
                <time>2018-10-21T02:45:48Z</time>
            </trkpt>
            <trkpt lon="101.223656" lat="14.306920">
                <ele>30.100000</ele>
                <time>2018-10-21T02:45:49Z</time>
            </trkpt>
            <trkpt lon="101.223692" lat="14.306865">
                <ele>30.000000</ele>
                <time>2018-10-21T02:45:50Z</time>
            </trkpt>
            <trkpt lon="101.223733" lat="14.306816">
                <ele>30.000000</ele>
                <time>2018-10-21T02:45:51Z</time>
            </trkpt>
            <trkpt lon="101.223773" lat="14.306767">
                <ele>30.000000</ele>
                <time>2018-10-21T02:45:52Z</time>
            </trkpt>
            <trkpt lon="101.223820" lat="14.306722">
                <ele>29.900000</ele>
                <time>2018-10-21T02:45:53Z</time>
            </trkpt>
            <trkpt lon="101.223867" lat="14.306682">
                <ele>29.900000</ele>
                <time>2018-10-21T02:45:54Z</time>
            </trkpt>
            <trkpt lon="101.223919" lat="14.306642">
                <ele>29.800000</ele>
                <time>2018-10-21T02:45:55Z</time>
            </trkpt>
            <trkpt lon="101.223970" lat="14.306603">
                <ele>29.800000</ele>
                <time>2018-10-21T02:45:56Z</time>
            </trkpt>
            <trkpt lon="101.224015" lat="14.306564">
                <ele>29.800000</ele>
                <time>2018-10-21T02:45:57Z</time>
            </trkpt>
            <trkpt lon="101.224061" lat="14.306524">
                <ele>29.800000</ele>
                <time>2018-10-21T02:45:58Z</time>
            </trkpt>
            <trkpt lon="101.224105" lat="14.306486">
                <ele>29.800000</ele>
                <time>2018-10-21T02:45:59Z</time>
            </trkpt>
            <trkpt lon="101.224155" lat="14.306450">
                <ele>29.700000</ele>
                <time>2018-10-21T02:46:00Z</time>
            </trkpt>
            <trkpt lon="101.224208" lat="14.306413">
                <ele>29.700000</ele>
                <time>2018-10-21T02:46:01Z</time>
            </trkpt>
            <trkpt lon="101.224262" lat="14.306373">
                <ele>29.700000</ele>
                <time>2018-10-21T02:46:02Z</time>
            </trkpt>
            <trkpt lon="101.224313" lat="14.306332">
                <ele>29.700000</ele>
                <time>2018-10-21T02:46:03Z</time>
            </trkpt>
            <trkpt lon="101.224364" lat="14.306288">
                <ele>29.700000</ele>
                <time>2018-10-21T02:46:04Z</time>
            </trkpt>
            <trkpt lon="101.224411" lat="14.306248">
                <ele>29.700000</ele>
                <time>2018-10-21T02:46:05Z</time>
            </trkpt>
            <trkpt lon="101.224461" lat="14.306204">
                <ele>29.600000</ele>
                <time>2018-10-21T02:46:06Z</time>
            </trkpt>
            <trkpt lon="101.224511" lat="14.306157">
                <ele>29.600000</ele>
                <time>2018-10-21T02:46:07Z</time>
            </trkpt>
            <trkpt lon="101.224562" lat="14.306112">
                <ele>29.500000</ele>
                <time>2018-10-21T02:46:08Z</time>
            </trkpt>
            <trkpt lon="101.224610" lat="14.306066">
                <ele>29.400000</ele>
                <time>2018-10-21T02:46:09Z</time>
            </trkpt>
            <trkpt lon="101.224654" lat="14.306017">
                <ele>29.300000</ele>
                <time>2018-10-21T02:46:10Z</time>
            </trkpt>
            <trkpt lon="101.224700" lat="14.305969">
                <ele>29.300000</ele>
                <time>2018-10-21T02:46:11Z</time>
            </trkpt>
            <trkpt lon="101.224741" lat="14.305925">
                <ele>29.200000</ele>
                <time>2018-10-21T02:46:12Z</time>
            </trkpt>
            <trkpt lon="101.224781" lat="14.305881">
                <ele>29.100000</ele>
                <time>2018-10-21T02:46:13Z</time>
            </trkpt>
            <trkpt lon="101.224820" lat="14.305838">
                <ele>29.100000</ele>
                <time>2018-10-21T02:46:14Z</time>
            </trkpt>
            <trkpt lon="101.224861" lat="14.305798">
                <ele>29.000000</ele>
                <time>2018-10-21T02:46:15Z</time>
            </trkpt>
            <trkpt lon="101.224903" lat="14.305762">
                <ele>28.900000</ele>
                <time>2018-10-21T02:46:16Z</time>
            </trkpt>
            <trkpt lon="101.224940" lat="14.305724">
                <ele>28.900000</ele>
                <time>2018-10-21T02:46:17Z</time>
            </trkpt>
            <trkpt lon="101.224978" lat="14.305685">
                <ele>28.800000</ele>
                <time>2018-10-21T02:46:18Z</time>
            </trkpt>
            <trkpt lon="101.225012" lat="14.305647">
                <ele>28.800000</ele>
                <time>2018-10-21T02:46:19Z</time>
            </trkpt>
            <trkpt lon="101.225047" lat="14.305609">
                <ele>28.700000</ele>
                <time>2018-10-21T02:46:20Z</time>
            </trkpt>
            <trkpt lon="101.225079" lat="14.305571">
                <ele>28.700000</ele>
                <time>2018-10-21T02:46:21Z</time>
            </trkpt>
            <trkpt lon="101.225111" lat="14.305537">
                <ele>28.700000</ele>
                <time>2018-10-21T02:46:22Z</time>
            </trkpt>
            <trkpt lon="101.225142" lat="14.305503">
                <ele>28.700000</ele>
                <time>2018-10-21T02:46:23Z</time>
            </trkpt>
            <trkpt lon="101.225174" lat="14.305471">
                <ele>28.700000</ele>
                <time>2018-10-21T02:46:24Z</time>
            </trkpt>
            <trkpt lon="101.225204" lat="14.305436">
                <ele>28.700000</ele>
                <time>2018-10-21T02:46:25Z</time>
            </trkpt>
            <trkpt lon="101.225236" lat="14.305404">
                <ele>28.700000</ele>
                <time>2018-10-21T02:46:26Z</time>
            </trkpt>
            <trkpt lon="101.225268" lat="14.305374">
                <ele>28.700000</ele>
                <time>2018-10-21T02:46:27Z</time>
            </trkpt>
            <trkpt lon="101.225297" lat="14.305342">
                <ele>28.700000</ele>
                <time>2018-10-21T02:46:28Z</time>
            </trkpt>
            <trkpt lon="101.225320" lat="14.305308">
                <ele>28.800000</ele>
                <time>2018-10-21T02:46:29Z</time>
            </trkpt>
            <trkpt lon="101.225329" lat="14.305272">
                <ele>28.800000</ele>
                <time>2018-10-21T02:46:30Z</time>
            </trkpt>
            <trkpt lon="101.225309" lat="14.305236">
                <ele>28.800000</ele>
                <time>2018-10-21T02:46:31Z</time>
            </trkpt>
            <trkpt lon="101.225276" lat="14.305210">
                <ele>28.800000</ele>
                <time>2018-10-21T02:46:32Z</time>
            </trkpt>
            <trkpt lon="101.225236" lat="14.305195">
                <ele>28.800000</ele>
                <time>2018-10-21T02:46:33Z</time>
            </trkpt>
            <trkpt lon="101.225195" lat="14.305178">
                <ele>28.800000</ele>
                <time>2018-10-21T02:46:34Z</time>
            </trkpt>
            <trkpt lon="101.225155" lat="14.305163">
                <ele>28.900000</ele>
                <time>2018-10-21T02:46:35Z</time>
            </trkpt>
            <trkpt lon="101.225121" lat="14.305140">
                <ele>29.000000</ele>
                <time>2018-10-21T02:46:36Z</time>
            </trkpt>
            <trkpt lon="101.225085" lat="14.305120">
                <ele>29.100000</ele>
                <time>2018-10-21T02:46:37Z</time>
            </trkpt>
            <trkpt lon="101.225044" lat="14.305104">
                <ele>29.200000</ele>
                <time>2018-10-21T02:46:38Z</time>
            </trkpt>
            <trkpt lon="101.224999" lat="14.305087">
                <ele>29.200000</ele>
                <time>2018-10-21T02:46:39Z</time>
            </trkpt>
            <trkpt lon="101.224956" lat="14.305067">
                <ele>29.200000</ele>
                <time>2018-10-21T02:46:40Z</time>
            </trkpt>
            <trkpt lon="101.224911" lat="14.305050">
                <ele>29.300000</ele>
                <time>2018-10-21T02:46:41Z</time>
            </trkpt>
            <trkpt lon="101.224865" lat="14.305033">
                <ele>29.500000</ele>
                <time>2018-10-21T02:46:42Z</time>
            </trkpt>
            <trkpt lon="101.224817" lat="14.305012">
                <ele>29.600000</ele>
                <time>2018-10-21T02:46:43Z</time>
            </trkpt>
            <trkpt lon="101.224773" lat="14.304991">
                <ele>29.700000</ele>
                <time>2018-10-21T02:46:44Z</time>
            </trkpt>
            <trkpt lon="101.224728" lat="14.304972">
                <ele>29.800000</ele>
                <time>2018-10-21T02:46:45Z</time>
            </trkpt>
            <trkpt lon="101.224680" lat="14.304957">
                <ele>29.700000</ele>
                <time>2018-10-21T02:46:46Z</time>
            </trkpt>
            <trkpt lon="101.224636" lat="14.304934">
                <ele>29.400000</ele>
                <time>2018-10-21T02:46:47Z</time>
            </trkpt>
            <trkpt lon="101.224592" lat="14.304909">
                <ele>29.000000</ele>
                <time>2018-10-21T02:46:48Z</time>
            </trkpt>
            <trkpt lon="101.224548" lat="14.304886">
                <ele>28.600000</ele>
                <time>2018-10-21T02:46:49Z</time>
            </trkpt>
            <trkpt lon="101.224501" lat="14.304863">
                <ele>28.400000</ele>
                <time>2018-10-21T02:46:50Z</time>
            </trkpt>
            <trkpt lon="101.224455" lat="14.304843">
                <ele>28.100000</ele>
                <time>2018-10-21T02:46:51Z</time>
            </trkpt>
            <trkpt lon="101.224412" lat="14.304822">
                <ele>27.500000</ele>
                <time>2018-10-21T02:46:52Z</time>
            </trkpt>
            <trkpt lon="101.224364" lat="14.304802">
                <ele>26.900000</ele>
                <time>2018-10-21T02:46:53Z</time>
            </trkpt>
            <trkpt lon="101.224319" lat="14.304783">
                <ele>26.300000</ele>
                <time>2018-10-21T02:46:54Z</time>
            </trkpt>
            <trkpt lon="101.224279" lat="14.304765">
                <ele>25.800000</ele>
                <time>2018-10-21T02:46:55Z</time>
            </trkpt>
            <trkpt lon="101.224239" lat="14.304744">
                <ele>25.500000</ele>
                <time>2018-10-21T02:46:56Z</time>
            </trkpt>
            <trkpt lon="101.224199" lat="14.304721">
                <ele>25.200000</ele>
                <time>2018-10-21T02:46:57Z</time>
            </trkpt>
            <trkpt lon="101.224161" lat="14.304700">
                <ele>25.000000</ele>
                <time>2018-10-21T02:46:58Z</time>
            </trkpt>
            <trkpt lon="101.224126" lat="14.304678">
                <ele>24.800000</ele>
                <time>2018-10-21T02:46:59Z</time>
            </trkpt>
            <trkpt lon="101.224093" lat="14.304655">
                <ele>25.000000</ele>
                <time>2018-10-21T02:47:00Z</time>
            </trkpt>
            <trkpt lon="101.224059" lat="14.304634">
                <ele>25.100000</ele>
                <time>2018-10-21T02:47:01Z</time>
            </trkpt>
            <trkpt lon="101.224021" lat="14.304619">
                <ele>25.200000</ele>
                <time>2018-10-21T02:47:02Z</time>
            </trkpt>
            <trkpt lon="101.223980" lat="14.304604">
                <ele>25.400000</ele>
                <time>2018-10-21T02:47:03Z</time>
            </trkpt>
            <trkpt lon="101.223941" lat="14.304585">
                <ele>25.800000</ele>
                <time>2018-10-21T02:47:04Z</time>
            </trkpt>
            <trkpt lon="101.223905" lat="14.304571">
                <ele>26.100000</ele>
                <time>2018-10-21T02:47:05Z</time>
            </trkpt>
            <trkpt lon="101.223869" lat="14.304556">
                <ele>26.300000</ele>
                <time>2018-10-21T02:47:06Z</time>
            </trkpt>
            <trkpt lon="101.223834" lat="14.304556">
                <ele>26.400000</ele>
                <time>2018-10-21T02:47:07Z</time>
            </trkpt>
            <trkpt lon="101.223803" lat="14.304576">
                <ele>26.400000</ele>
                <time>2018-10-21T02:47:08Z</time>
            </trkpt>
            <trkpt lon="101.223779" lat="14.304602">
                <ele>26.600000</ele>
                <time>2018-10-21T02:47:09Z</time>
            </trkpt>
            <trkpt lon="101.223761" lat="14.304635">
                <ele>26.900000</ele>
                <time>2018-10-21T02:47:10Z</time>
            </trkpt>
            <trkpt lon="101.223748" lat="14.304670">
                <ele>27.300000</ele>
                <time>2018-10-21T02:47:11Z</time>
            </trkpt>
            <trkpt lon="101.223733" lat="14.304708">
                <ele>27.600000</ele>
                <time>2018-10-21T02:47:12Z</time>
            </trkpt>
            <trkpt lon="101.223715" lat="14.304746">
                <ele>28.000000</ele>
                <time>2018-10-21T02:47:13Z</time>
            </trkpt>
            <trkpt lon="101.223688" lat="14.304781">
                <ele>28.200000</ele>
                <time>2018-10-21T02:47:14Z</time>
            </trkpt>
            <trkpt lon="101.223664" lat="14.304818">
                <ele>28.300000</ele>
                <time>2018-10-21T02:47:15Z</time>
            </trkpt>
            <trkpt lon="101.223647" lat="14.304858">
                <ele>28.400000</ele>
                <time>2018-10-21T02:47:16Z</time>
            </trkpt>
            <trkpt lon="101.223633" lat="14.304903">
                <ele>28.500000</ele>
                <time>2018-10-21T02:47:17Z</time>
            </trkpt>
            <trkpt lon="101.223620" lat="14.304950">
                <ele>28.500000</ele>
                <time>2018-10-21T02:47:18Z</time>
            </trkpt>
            <trkpt lon="101.223597" lat="14.304987">
                <ele>28.600000</ele>
                <time>2018-10-21T02:47:19Z</time>
            </trkpt>
            <trkpt lon="101.223567" lat="14.305022">
                <ele>28.600000</ele>
                <time>2018-10-21T02:47:20Z</time>
            </trkpt>
            <trkpt lon="101.223541" lat="14.305056">
                <ele>28.500000</ele>
                <time>2018-10-21T02:47:21Z</time>
            </trkpt>
            <trkpt lon="101.223517" lat="14.305091">
                <ele>28.400000</ele>
                <time>2018-10-21T02:47:22Z</time>
            </trkpt>
            <trkpt lon="101.223499" lat="14.305131">
                <ele>28.200000</ele>
                <time>2018-10-21T02:47:23Z</time>
            </trkpt>
            <trkpt lon="101.223489" lat="14.305173">
                <ele>28.000000</ele>
                <time>2018-10-21T02:47:24Z</time>
            </trkpt>
            <trkpt lon="101.223480" lat="14.305214">
                <ele>27.800000</ele>
                <time>2018-10-21T02:47:25Z</time>
            </trkpt>
            <trkpt lon="101.223469" lat="14.305251">
                <ele>27.500000</ele>
                <time>2018-10-21T02:47:26Z</time>
            </trkpt>
            <trkpt lon="101.223451" lat="14.305282">
                <ele>27.200000</ele>
                <time>2018-10-21T02:47:27Z</time>
            </trkpt>
            <trkpt lon="101.223426" lat="14.305313">
                <ele>26.600000</ele>
                <time>2018-10-21T02:47:28Z</time>
            </trkpt>
            <trkpt lon="101.223407" lat="14.305343">
                <ele>26.100000</ele>
                <time>2018-10-21T02:47:29Z</time>
            </trkpt>
            <trkpt lon="101.223391" lat="14.305371">
                <ele>25.400000</ele>
                <time>2018-10-21T02:47:30Z</time>
            </trkpt>
            <trkpt lon="101.223376" lat="14.305398">
                <ele>25.400000</ele>
                <time>2018-10-21T02:47:31Z</time>
            </trkpt>
            <trkpt lon="101.223355" lat="14.305424">
                <ele>25.400000</ele>
                <time>2018-10-21T02:47:32Z</time>
            </trkpt>
            <trkpt lon="101.223336" lat="14.305449">
                <ele>25.400000</ele>
                <time>2018-10-21T02:47:33Z</time>
            </trkpt>
            <trkpt lon="101.223320" lat="14.305475">
                <ele>25.400000</ele>
                <time>2018-10-21T02:47:34Z</time>
            </trkpt>
            <trkpt lon="101.223307" lat="14.305503">
                <ele>25.400000</ele>
                <time>2018-10-21T02:47:35Z</time>
            </trkpt>
            <trkpt lon="101.223285" lat="14.305546">
                <ele>25.400000</ele>
                <time>2018-10-21T02:47:37Z</time>
            </trkpt>
            <trkpt lon="101.223314" lat="14.305535">
                <ele>25.400000</ele>
                <time>2018-10-21T02:47:41Z</time>
            </trkpt>
            <trkpt lon="101.223315" lat="14.305507">
                <ele>25.400000</ele>
                <time>2018-10-21T02:47:42Z</time>
            </trkpt>
            <trkpt lon="101.223314" lat="14.305477">
                <ele>25.400000</ele>
                <time>2018-10-21T02:47:43Z</time>
            </trkpt>
            <trkpt lon="101.223325" lat="14.305444">
                <ele>25.400000</ele>
                <time>2018-10-21T02:47:44Z</time>
            </trkpt>
            <trkpt lon="101.223348" lat="14.305418">
                <ele>25.400000</ele>
                <time>2018-10-21T02:47:45Z</time>
            </trkpt>
            <trkpt lon="101.223370" lat="14.305384">
                <ele>25.800000</ele>
                <time>2018-10-21T02:47:46Z</time>
            </trkpt>
            <trkpt lon="101.223395" lat="14.305350">
                <ele>26.200000</ele>
                <time>2018-10-21T02:47:47Z</time>
            </trkpt>
            <trkpt lon="101.223417" lat="14.305319">
                <ele>26.700000</ele>
                <time>2018-10-21T02:47:48Z</time>
            </trkpt>
            <trkpt lon="101.223442" lat="14.305281">
                <ele>27.300000</ele>
                <time>2018-10-21T02:47:49Z</time>
            </trkpt>
            <trkpt lon="101.223462" lat="14.305250">
                <ele>27.600000</ele>
                <time>2018-10-21T02:47:50Z</time>
            </trkpt>
            <trkpt lon="101.223479" lat="14.305208">
                <ele>27.900000</ele>
                <time>2018-10-21T02:47:51Z</time>
            </trkpt>
            <trkpt lon="101.223491" lat="14.305168">
                <ele>28.100000</ele>
                <time>2018-10-21T02:47:52Z</time>
            </trkpt>
            <trkpt lon="101.223502" lat="14.305125">
                <ele>28.300000</ele>
                <time>2018-10-21T02:47:53Z</time>
            </trkpt>
            <trkpt lon="101.223514" lat="14.305083">
                <ele>28.500000</ele>
                <time>2018-10-21T02:47:54Z</time>
            </trkpt>
            <trkpt lon="101.223535" lat="14.305043">
                <ele>28.600000</ele>
                <time>2018-10-21T02:47:55Z</time>
            </trkpt>
            <trkpt lon="101.223559" lat="14.305004">
                <ele>28.600000</ele>
                <time>2018-10-21T02:47:56Z</time>
            </trkpt>
            <trkpt lon="101.223583" lat="14.304966">
                <ele>28.600000</ele>
                <time>2018-10-21T02:47:57Z</time>
            </trkpt>
            <trkpt lon="101.223602" lat="14.304925">
                <ele>28.500000</ele>
                <time>2018-10-21T02:47:58Z</time>
            </trkpt>
            <trkpt lon="101.223620" lat="14.304883">
                <ele>28.500000</ele>
                <time>2018-10-21T02:47:59Z</time>
            </trkpt>
            <trkpt lon="101.223637" lat="14.304842">
                <ele>28.400000</ele>
                <time>2018-10-21T02:48:00Z</time>
            </trkpt>
            <trkpt lon="101.223658" lat="14.304806">
                <ele>28.300000</ele>
                <time>2018-10-21T02:48:01Z</time>
            </trkpt>
            <trkpt lon="101.223678" lat="14.304772">
                <ele>28.200000</ele>
                <time>2018-10-21T02:48:02Z</time>
            </trkpt>
            <trkpt lon="101.223699" lat="14.304737">
                <ele>28.000000</ele>
                <time>2018-10-21T02:48:03Z</time>
            </trkpt>
            <trkpt lon="101.223725" lat="14.304701">
                <ele>27.700000</ele>
                <time>2018-10-21T02:48:04Z</time>
            </trkpt>
            <trkpt lon="101.223744" lat="14.304664">
                <ele>27.300000</ele>
                <time>2018-10-21T02:48:05Z</time>
            </trkpt>
            <trkpt lon="101.223757" lat="14.304626">
                <ele>27.000000</ele>
                <time>2018-10-21T02:48:06Z</time>
            </trkpt>
            <trkpt lon="101.223777" lat="14.304588">
                <ele>26.500000</ele>
                <time>2018-10-21T02:48:07Z</time>
            </trkpt>
            <trkpt lon="101.223806" lat="14.304558">
                <ele>26.400000</ele>
                <time>2018-10-21T02:48:08Z</time>
            </trkpt>
            <trkpt lon="101.223848" lat="14.304540">
                <ele>26.400000</ele>
                <time>2018-10-21T02:48:09Z</time>
            </trkpt>
            <trkpt lon="101.223895" lat="14.304541">
                <ele>26.200000</ele>
                <time>2018-10-21T02:48:10Z</time>
            </trkpt>
            <trkpt lon="101.223940" lat="14.304560">
                <ele>25.900000</ele>
                <time>2018-10-21T02:48:11Z</time>
            </trkpt>
            <trkpt lon="101.223973" lat="14.304576">
                <ele>25.600000</ele>
                <time>2018-10-21T02:48:12Z</time>
            </trkpt>
            <trkpt lon="101.224008" lat="14.304595">
                <ele>25.300000</ele>
                <time>2018-10-21T02:48:13Z</time>
            </trkpt>
            <trkpt lon="101.224038" lat="14.304620">
                <ele>25.200000</ele>
                <time>2018-10-21T02:48:14Z</time>
            </trkpt>
            <trkpt lon="101.224068" lat="14.304643">
                <ele>25.000000</ele>
                <time>2018-10-21T02:48:15Z</time>
            </trkpt>
            <trkpt lon="101.224095" lat="14.304662">
                <ele>24.900000</ele>
                <time>2018-10-21T02:48:16Z</time>
            </trkpt>
            <trkpt lon="101.224129" lat="14.304682">
                <ele>24.800000</ele>
                <time>2018-10-21T02:48:17Z</time>
            </trkpt>
            <trkpt lon="101.224166" lat="14.304702">
                <ele>25.000000</ele>
                <time>2018-10-21T02:48:18Z</time>
            </trkpt>
            <trkpt lon="101.224202" lat="14.304722">
                <ele>25.300000</ele>
                <time>2018-10-21T02:48:19Z</time>
            </trkpt>
            <trkpt lon="101.224243" lat="14.304733">
                <ele>25.500000</ele>
                <time>2018-10-21T02:48:20Z</time>
            </trkpt>
            <trkpt lon="101.224274" lat="14.304745">
                <ele>25.800000</ele>
                <time>2018-10-21T02:48:21Z</time>
            </trkpt>
            <trkpt lon="101.224307" lat="14.304757">
                <ele>26.000000</ele>
                <time>2018-10-21T02:48:22Z</time>
            </trkpt>
            <trkpt lon="101.224344" lat="14.304769">
                <ele>26.500000</ele>
                <time>2018-10-21T02:48:23Z</time>
            </trkpt>
            <trkpt lon="101.224380" lat="14.304784">
                <ele>27.000000</ele>
                <time>2018-10-21T02:48:24Z</time>
            </trkpt>
            <trkpt lon="101.224415" lat="14.304803">
                <ele>27.500000</ele>
                <time>2018-10-21T02:48:25Z</time>
            </trkpt>
            <trkpt lon="101.224451" lat="14.304824">
                <ele>28.000000</ele>
                <time>2018-10-21T02:48:26Z</time>
            </trkpt>
            <trkpt lon="101.224484" lat="14.304841">
                <ele>28.300000</ele>
                <time>2018-10-21T02:48:27Z</time>
            </trkpt>
            <trkpt lon="101.224516" lat="14.304858">
                <ele>28.400000</ele>
                <time>2018-10-21T02:48:28Z</time>
            </trkpt>
            <trkpt lon="101.224549" lat="14.304874">
                <ele>28.600000</ele>
                <time>2018-10-21T02:48:29Z</time>
            </trkpt>
            <trkpt lon="101.224582" lat="14.304889">
                <ele>28.900000</ele>
                <time>2018-10-21T02:48:30Z</time>
            </trkpt>
            <trkpt lon="101.224616" lat="14.304904">
                <ele>29.200000</ele>
                <time>2018-10-21T02:48:31Z</time>
            </trkpt>
            <trkpt lon="101.224647" lat="14.304919">
                <ele>29.500000</ele>
                <time>2018-10-21T02:48:32Z</time>
            </trkpt>
            <trkpt lon="101.224678" lat="14.304935">
                <ele>29.700000</ele>
                <time>2018-10-21T02:48:33Z</time>
            </trkpt>
            <trkpt lon="101.224710" lat="14.304952">
                <ele>29.900000</ele>
                <time>2018-10-21T02:48:34Z</time>
            </trkpt>
            <trkpt lon="101.224742" lat="14.304967">
                <ele>29.800000</ele>
                <time>2018-10-21T02:48:35Z</time>
            </trkpt>
            <trkpt lon="101.224773" lat="14.304982">
                <ele>29.700000</ele>
                <time>2018-10-21T02:48:36Z</time>
            </trkpt>
            <trkpt lon="101.224805" lat="14.304997">
                <ele>29.600000</ele>
                <time>2018-10-21T02:48:37Z</time>
            </trkpt>
            <trkpt lon="101.224835" lat="14.305013">
                <ele>29.500000</ele>
                <time>2018-10-21T02:48:38Z</time>
            </trkpt>
            <trkpt lon="101.224867" lat="14.305026">
                <ele>29.500000</ele>
                <time>2018-10-21T02:48:39Z</time>
            </trkpt>
            <trkpt lon="101.224897" lat="14.305038">
                <ele>29.400000</ele>
                <time>2018-10-21T02:48:40Z</time>
            </trkpt>
            <trkpt lon="101.224928" lat="14.305052">
                <ele>29.300000</ele>
                <time>2018-10-21T02:48:41Z</time>
            </trkpt>
            <trkpt lon="101.224955" lat="14.305064">
                <ele>29.200000</ele>
                <time>2018-10-21T02:48:42Z</time>
            </trkpt>
            <trkpt lon="101.224980" lat="14.305075">
                <ele>29.200000</ele>
                <time>2018-10-21T02:48:43Z</time>
            </trkpt>
            <trkpt lon="101.225008" lat="14.305086">
                <ele>29.200000</ele>
                <time>2018-10-21T02:48:44Z</time>
            </trkpt>
            <trkpt lon="101.225034" lat="14.305099">
                <ele>29.200000</ele>
                <time>2018-10-21T02:48:45Z</time>
            </trkpt>
            <trkpt lon="101.225062" lat="14.305112">
                <ele>29.200000</ele>
                <time>2018-10-21T02:48:46Z</time>
            </trkpt>
            <trkpt lon="101.225089" lat="14.305127">
                <ele>29.100000</ele>
                <time>2018-10-21T02:48:47Z</time>
            </trkpt>
            <trkpt lon="101.225114" lat="14.305142">
                <ele>29.000000</ele>
                <time>2018-10-21T02:48:48Z</time>
            </trkpt>
            <trkpt lon="101.225161" lat="14.305174">
                <ele>28.900000</ele>
                <time>2018-10-21T02:48:50Z</time>
            </trkpt>
            <trkpt lon="101.225191" lat="14.305188">
                <ele>28.800000</ele>
                <time>2018-10-21T02:48:51Z</time>
            </trkpt>
            <trkpt lon="101.225218" lat="14.305204">
                <ele>28.800000</ele>
                <time>2018-10-21T02:48:52Z</time>
            </trkpt>
            <trkpt lon="101.225239" lat="14.305221">
                <ele>28.800000</ele>
                <time>2018-10-21T02:48:53Z</time>
            </trkpt>
            <trkpt lon="101.225258" lat="14.305242">
                <ele>28.800000</ele>
                <time>2018-10-21T02:48:54Z</time>
            </trkpt>
            <trkpt lon="101.225286" lat="14.305285">
                <ele>28.800000</ele>
                <time>2018-10-21T02:48:56Z</time>
            </trkpt>
            <trkpt lon="101.225257" lat="14.305332">
                <ele>28.700000</ele>
                <time>2018-10-21T02:48:58Z</time>
            </trkpt>
            <trkpt lon="101.225228" lat="14.305359">
                <ele>28.700000</ele>
                <time>2018-10-21T02:48:59Z</time>
            </trkpt>
            <trkpt lon="101.225202" lat="14.305386">
                <ele>28.700000</ele>
                <time>2018-10-21T02:49:00Z</time>
            </trkpt>
            <trkpt lon="101.225176" lat="14.305416">
                <ele>28.700000</ele>
                <time>2018-10-21T02:49:01Z</time>
            </trkpt>
            <trkpt lon="101.225149" lat="14.305444">
                <ele>28.700000</ele>
                <time>2018-10-21T02:49:02Z</time>
            </trkpt>
            <trkpt lon="101.225120" lat="14.305476">
                <ele>28.700000</ele>
                <time>2018-10-21T02:49:03Z</time>
            </trkpt>
            <trkpt lon="101.225090" lat="14.305508">
                <ele>28.700000</ele>
                <time>2018-10-21T02:49:04Z</time>
            </trkpt>
            <trkpt lon="101.225055" lat="14.305542">
                <ele>28.700000</ele>
                <time>2018-10-21T02:49:05Z</time>
            </trkpt>
            <trkpt lon="101.225023" lat="14.305576">
                <ele>28.700000</ele>
                <time>2018-10-21T02:49:06Z</time>
            </trkpt>
            <trkpt lon="101.224986" lat="14.305608">
                <ele>28.700000</ele>
                <time>2018-10-21T02:49:07Z</time>
            </trkpt>
            <trkpt lon="101.224951" lat="14.305642">
                <ele>28.700000</ele>
                <time>2018-10-21T02:49:08Z</time>
            </trkpt>
            <trkpt lon="101.224918" lat="14.305678">
                <ele>28.700000</ele>
                <time>2018-10-21T02:49:09Z</time>
            </trkpt>
            <trkpt lon="101.224886" lat="14.305714">
                <ele>28.700000</ele>
                <time>2018-10-21T02:49:10Z</time>
            </trkpt>
            <trkpt lon="101.224851" lat="14.305754">
                <ele>28.700000</ele>
                <time>2018-10-21T02:49:11Z</time>
            </trkpt>
            <trkpt lon="101.224819" lat="14.305792">
                <ele>28.700000</ele>
                <time>2018-10-21T02:49:12Z</time>
            </trkpt>
            <trkpt lon="101.224782" lat="14.305829">
                <ele>28.700000</ele>
                <time>2018-10-21T02:49:13Z</time>
            </trkpt>
            <trkpt lon="101.224750" lat="14.305865">
                <ele>28.800000</ele>
                <time>2018-10-21T02:49:14Z</time>
            </trkpt>
            <trkpt lon="101.224717" lat="14.305901">
                <ele>28.800000</ele>
                <time>2018-10-21T02:49:15Z</time>
            </trkpt>
            <trkpt lon="101.224680" lat="14.305936">
                <ele>28.800000</ele>
                <time>2018-10-21T02:49:16Z</time>
            </trkpt>
            <trkpt lon="101.224643" lat="14.305969">
                <ele>28.800000</ele>
                <time>2018-10-21T02:49:17Z</time>
            </trkpt>
            <trkpt lon="101.224608" lat="14.306001">
                <ele>28.900000</ele>
                <time>2018-10-21T02:49:18Z</time>
            </trkpt>
            <trkpt lon="101.224570" lat="14.306035">
                <ele>28.900000</ele>
                <time>2018-10-21T02:49:19Z</time>
            </trkpt>
            <trkpt lon="101.224535" lat="14.306069">
                <ele>28.900000</ele>
                <time>2018-10-21T02:49:20Z</time>
            </trkpt>
            <trkpt lon="101.224501" lat="14.306098">
                <ele>29.000000</ele>
                <time>2018-10-21T02:49:21Z</time>
            </trkpt>
            <trkpt lon="101.224463" lat="14.306134">
                <ele>29.000000</ele>
                <time>2018-10-21T02:49:22Z</time>
            </trkpt>
            <trkpt lon="101.224429" lat="14.306165">
                <ele>29.000000</ele>
                <time>2018-10-21T02:49:23Z</time>
            </trkpt>
            <trkpt lon="101.224400" lat="14.306194">
                <ele>29.100000</ele>
                <time>2018-10-21T02:49:24Z</time>
            </trkpt>
            <trkpt lon="101.224371" lat="14.306223">
                <ele>29.100000</ele>
                <time>2018-10-21T02:49:25Z</time>
            </trkpt>
            <trkpt lon="101.224348" lat="14.306244">
                <ele>29.100000</ele>
                <time>2018-10-21T02:49:26Z</time>
            </trkpt>
            <trkpt lon="101.224315" lat="14.306273">
                <ele>29.100000</ele>
                <time>2018-10-21T02:49:28Z</time>
            </trkpt>
            <trkpt lon="101.224325" lat="14.306302">
                <ele>29.200000</ele>
                <time>2018-10-21T02:49:30Z</time>
            </trkpt>
            <trkpt lon="101.224362" lat="14.306297">
                <ele>29.200000</ele>
                <time>2018-10-21T02:49:32Z</time>
            </trkpt>
            <trkpt lon="101.224370" lat="14.306262">
                <ele>29.200000</ele>
                <time>2018-10-21T02:49:34Z</time>
            </trkpt>
            <trkpt lon="101.224378" lat="14.306226">
                <ele>29.200000</ele>
                <time>2018-10-21T02:49:36Z</time>
            </trkpt>
            <trkpt lon="101.224417" lat="14.306202">
                <ele>29.300000</ele>
                <time>2018-10-21T02:49:38Z</time>
            </trkpt>
            <trkpt lon="101.224451" lat="14.306201">
                <ele>29.300000</ele>
                <time>2018-10-21T02:49:40Z</time>
            </trkpt>
            <trkpt lon="101.224486" lat="14.306185">
                <ele>29.300000</ele>
                <time>2018-10-21T02:49:42Z</time>
            </trkpt>
            <trkpt lon="101.224499" lat="14.306153">
                <ele>29.300000</ele>
                <time>2018-10-21T02:49:44Z</time>
            </trkpt>
            <trkpt lon="101.224516" lat="14.306121">
                <ele>29.400000</ele>
                <time>2018-10-21T02:49:46Z</time>
            </trkpt>
            <trkpt lon="101.224553" lat="14.306094">
                <ele>29.400000</ele>
                <time>2018-10-21T02:49:48Z</time>
            </trkpt>
            <trkpt lon="101.224577" lat="14.306063">
                <ele>29.400000</ele>
                <time>2018-10-21T02:49:50Z</time>
            </trkpt>
            <trkpt lon="101.224594" lat="14.306022">
                <ele>29.400000</ele>
                <time>2018-10-21T02:49:52Z</time>
            </trkpt>
            <trkpt lon="101.224627" lat="14.306004">
                <ele>29.500000</ele>
                <time>2018-10-21T02:49:54Z</time>
            </trkpt>
            <trkpt lon="101.224647" lat="14.305984">
                <ele>29.500000</ele>
                <time>2018-10-21T02:49:56Z</time>
            </trkpt>
            <trkpt lon="101.224610" lat="14.305973">
                <ele>29.500000</ele>
                <time>2018-10-21T02:49:58Z</time>
            </trkpt>
            <trkpt lon="101.224583" lat="14.305991">
                <ele>29.500000</ele>
                <time>2018-10-21T02:49:59Z</time>
            </trkpt>
            <trkpt lon="101.224559" lat="14.306015">
                <ele>29.500000</ele>
                <time>2018-10-21T02:50:00Z</time>
            </trkpt>
            <trkpt lon="101.224534" lat="14.306039">
                <ele>29.600000</ele>
                <time>2018-10-21T02:50:01Z</time>
            </trkpt>
            <trkpt lon="101.224509" lat="14.306061">
                <ele>29.600000</ele>
                <time>2018-10-21T02:50:02Z</time>
            </trkpt>
            <trkpt lon="101.224481" lat="14.306083">
                <ele>29.600000</ele>
                <time>2018-10-21T02:50:03Z</time>
            </trkpt>
            <trkpt lon="101.224450" lat="14.306107">
                <ele>29.600000</ele>
                <time>2018-10-21T02:50:04Z</time>
            </trkpt>
            <trkpt lon="101.224423" lat="14.306138">
                <ele>29.700000</ele>
                <time>2018-10-21T02:50:05Z</time>
            </trkpt>
            <trkpt lon="101.224397" lat="14.306166">
                <ele>29.700000</ele>
                <time>2018-10-21T02:50:06Z</time>
            </trkpt>
            <trkpt lon="101.224366" lat="14.306193">
                <ele>29.700000</ele>
                <time>2018-10-21T02:50:07Z</time>
            </trkpt>
            <trkpt lon="101.224329" lat="14.306219">
                <ele>29.700000</ele>
                <time>2018-10-21T02:50:08Z</time>
            </trkpt>
            <trkpt lon="101.224295" lat="14.306252">
                <ele>29.700000</ele>
                <time>2018-10-21T02:50:09Z</time>
            </trkpt>
            <trkpt lon="101.224265" lat="14.306284">
                <ele>29.600000</ele>
                <time>2018-10-21T02:50:10Z</time>
            </trkpt>
            <trkpt lon="101.224232" lat="14.306317">
                <ele>29.400000</ele>
                <time>2018-10-21T02:50:11Z</time>
            </trkpt>
            <trkpt lon="101.224198" lat="14.306350">
                <ele>29.500000</ele>
                <time>2018-10-21T02:50:12Z</time>
            </trkpt>
            <trkpt lon="101.224163" lat="14.306381">
                <ele>29.600000</ele>
                <time>2018-10-21T02:50:13Z</time>
            </trkpt>
            <trkpt lon="101.224129" lat="14.306409">
                <ele>29.600000</ele>
                <time>2018-10-21T02:50:14Z</time>
            </trkpt>
            <trkpt lon="101.224092" lat="14.306439">
                <ele>29.900000</ele>
                <time>2018-10-21T02:50:15Z</time>
            </trkpt>
            <trkpt lon="101.224059" lat="14.306467">
                <ele>30.100000</ele>
                <time>2018-10-21T02:50:16Z</time>
            </trkpt>
            <trkpt lon="101.224022" lat="14.306495">
                <ele>30.300000</ele>
                <time>2018-10-21T02:50:17Z</time>
            </trkpt>
            <trkpt lon="101.223987" lat="14.306524">
                <ele>30.500000</ele>
                <time>2018-10-21T02:50:18Z</time>
            </trkpt>
            <trkpt lon="101.223955" lat="14.306554">
                <ele>30.700000</ele>
                <time>2018-10-21T02:50:19Z</time>
            </trkpt>
            <trkpt lon="101.223920" lat="14.306586">
                <ele>31.200000</ele>
                <time>2018-10-21T02:50:20Z</time>
            </trkpt>
            <trkpt lon="101.223888" lat="14.306618">
                <ele>31.900000</ele>
                <time>2018-10-21T02:50:21Z</time>
            </trkpt>
            <trkpt lon="101.223853" lat="14.306649">
                <ele>32.100000</ele>
                <time>2018-10-21T02:50:22Z</time>
            </trkpt>
            <trkpt lon="101.223821" lat="14.306682">
                <ele>32.300000</ele>
                <time>2018-10-21T02:50:23Z</time>
            </trkpt>
            <trkpt lon="101.223788" lat="14.306714">
                <ele>32.400000</ele>
                <time>2018-10-21T02:50:24Z</time>
            </trkpt>
            <trkpt lon="101.223754" lat="14.306744">
                <ele>32.400000</ele>
                <time>2018-10-21T02:50:25Z</time>
            </trkpt>
            <trkpt lon="101.223720" lat="14.306780">
                <ele>32.400000</ele>
                <time>2018-10-21T02:50:26Z</time>
            </trkpt>
            <trkpt lon="101.223687" lat="14.306819">
                <ele>32.600000</ele>
                <time>2018-10-21T02:50:27Z</time>
            </trkpt>
            <trkpt lon="101.223655" lat="14.306856">
                <ele>32.900000</ele>
                <time>2018-10-21T02:50:28Z</time>
            </trkpt>
            <trkpt lon="101.223628" lat="14.306892">
                <ele>32.800000</ele>
                <time>2018-10-21T02:50:29Z</time>
            </trkpt>
            <trkpt lon="101.223603" lat="14.306926">
                <ele>32.800000</ele>
                <time>2018-10-21T02:50:30Z</time>
            </trkpt>
            <trkpt lon="101.223580" lat="14.306958">
                <ele>32.400000</ele>
                <time>2018-10-21T02:50:31Z</time>
            </trkpt>
            <trkpt lon="101.223562" lat="14.306981">
                <ele>32.000000</ele>
                <time>2018-10-21T02:50:32Z</time>
            </trkpt>
            <trkpt lon="101.223530" lat="14.306991">
                <ele>31.700000</ele>
                <time>2018-10-21T02:50:35Z</time>
            </trkpt>
            <trkpt lon="101.223479" lat="14.306971">
                <ele>31.100000</ele>
                <time>2018-10-21T02:50:37Z</time>
            </trkpt>
            <trkpt lon="101.223452" lat="14.306982">
                <ele>30.800000</ele>
                <time>2018-10-21T02:50:38Z</time>
            </trkpt>
            <trkpt lon="101.223433" lat="14.307006">
                <ele>30.400000</ele>
                <time>2018-10-21T02:50:39Z</time>
            </trkpt>
            <trkpt lon="101.223422" lat="14.307034">
                <ele>30.000000</ele>
                <time>2018-10-21T02:50:40Z</time>
            </trkpt>
            <trkpt lon="101.223409" lat="14.307066">
                <ele>30.000000</ele>
                <time>2018-10-21T02:50:41Z</time>
            </trkpt>
            <trkpt lon="101.223394" lat="14.307100">
                <ele>30.000000</ele>
                <time>2018-10-21T02:50:42Z</time>
            </trkpt>
            <trkpt lon="101.223381" lat="14.307133">
                <ele>29.600000</ele>
                <time>2018-10-21T02:50:43Z</time>
            </trkpt>
            <trkpt lon="101.223360" lat="14.307166">
                <ele>29.200000</ele>
                <time>2018-10-21T02:50:44Z</time>
            </trkpt>
            <trkpt lon="101.223335" lat="14.307206">
                <ele>28.900000</ele>
                <time>2018-10-21T02:50:45Z</time>
            </trkpt>
            <trkpt lon="101.223311" lat="14.307246">
                <ele>28.500000</ele>
                <time>2018-10-21T02:50:46Z</time>
            </trkpt>
            <trkpt lon="101.223285" lat="14.307288">
                <ele>28.100000</ele>
                <time>2018-10-21T02:50:47Z</time>
            </trkpt>
            <trkpt lon="101.223262" lat="14.307327">
                <ele>27.800000</ele>
                <time>2018-10-21T02:50:48Z</time>
            </trkpt>
            <trkpt lon="101.223240" lat="14.307367">
                <ele>27.600000</ele>
                <time>2018-10-21T02:50:49Z</time>
            </trkpt>
            <trkpt lon="101.223222" lat="14.307405">
                <ele>27.500000</ele>
                <time>2018-10-21T02:50:50Z</time>
            </trkpt>
            <trkpt lon="101.223204" lat="14.307444">
                <ele>27.800000</ele>
                <time>2018-10-21T02:50:51Z</time>
            </trkpt>
            <trkpt lon="101.223185" lat="14.307481">
                <ele>28.000000</ele>
                <time>2018-10-21T02:50:52Z</time>
            </trkpt>
            <trkpt lon="101.223174" lat="14.307522">
                <ele>28.200000</ele>
                <time>2018-10-21T02:50:53Z</time>
            </trkpt>
            <trkpt lon="101.223158" lat="14.307562">
                <ele>28.500000</ele>
                <time>2018-10-21T02:50:54Z</time>
            </trkpt>
            <trkpt lon="101.223144" lat="14.307598">
                <ele>28.900000</ele>
                <time>2018-10-21T02:50:55Z</time>
            </trkpt>
            <trkpt lon="101.223129" lat="14.307636">
                <ele>29.400000</ele>
                <time>2018-10-21T02:50:56Z</time>
            </trkpt>
            <trkpt lon="101.223114" lat="14.307675">
                <ele>29.800000</ele>
                <time>2018-10-21T02:50:57Z</time>
            </trkpt>
            <trkpt lon="101.223093" lat="14.307716">
                <ele>30.300000</ele>
                <time>2018-10-21T02:50:58Z</time>
            </trkpt>
            <trkpt lon="101.223073" lat="14.307757">
                <ele>30.400000</ele>
                <time>2018-10-21T02:50:59Z</time>
            </trkpt>
            <trkpt lon="101.223053" lat="14.307791">
                <ele>30.400000</ele>
                <time>2018-10-21T02:51:00Z</time>
            </trkpt>
            <trkpt lon="101.223033" lat="14.307827">
                <ele>30.400000</ele>
                <time>2018-10-21T02:51:01Z</time>
            </trkpt>
            <trkpt lon="101.223021" lat="14.307857">
                <ele>30.400000</ele>
                <time>2018-10-21T02:51:02Z</time>
            </trkpt>
            <trkpt lon="101.223002" lat="14.307889">
                <ele>30.400000</ele>
                <time>2018-10-21T02:51:03Z</time>
            </trkpt>
            <trkpt lon="101.222985" lat="14.307922">
                <ele>30.400000</ele>
                <time>2018-10-21T02:51:04Z</time>
            </trkpt>
            <trkpt lon="101.222969" lat="14.307953">
                <ele>30.400000</ele>
                <time>2018-10-21T02:51:05Z</time>
            </trkpt>
            <trkpt lon="101.222952" lat="14.307984">
                <ele>30.400000</ele>
                <time>2018-10-21T02:51:06Z</time>
            </trkpt>
            <trkpt lon="101.222934" lat="14.308012">
                <ele>30.400000</ele>
                <time>2018-10-21T02:51:07Z</time>
            </trkpt>
            <trkpt lon="101.222917" lat="14.308044">
                <ele>30.400000</ele>
                <time>2018-10-21T02:51:08Z</time>
            </trkpt>
            <trkpt lon="101.222899" lat="14.308076">
                <ele>30.400000</ele>
                <time>2018-10-21T02:51:09Z</time>
            </trkpt>
            <trkpt lon="101.222880" lat="14.308104">
                <ele>30.400000</ele>
                <time>2018-10-21T02:51:10Z</time>
            </trkpt>
            <trkpt lon="101.222858" lat="14.308133">
                <ele>30.400000</ele>
                <time>2018-10-21T02:51:11Z</time>
            </trkpt>
            <trkpt lon="101.222834" lat="14.308159">
                <ele>30.400000</ele>
                <time>2018-10-21T02:51:12Z</time>
            </trkpt>
            <trkpt lon="101.222815" lat="14.308186">
                <ele>30.400000</ele>
                <time>2018-10-21T02:51:13Z</time>
            </trkpt>
            <trkpt lon="101.222799" lat="14.308213">
                <ele>30.400000</ele>
                <time>2018-10-21T02:51:14Z</time>
            </trkpt>
            <trkpt lon="101.222779" lat="14.308241">
                <ele>30.400000</ele>
                <time>2018-10-21T02:51:15Z</time>
            </trkpt>
            <trkpt lon="101.222755" lat="14.308264">
                <ele>30.300000</ele>
                <time>2018-10-21T02:51:16Z</time>
            </trkpt>
            <trkpt lon="101.222731" lat="14.308286">
                <ele>30.300000</ele>
                <time>2018-10-21T02:51:17Z</time>
            </trkpt>
            <trkpt lon="101.222705" lat="14.308308">
                <ele>30.200000</ele>
                <time>2018-10-21T02:51:18Z</time>
            </trkpt>
            <trkpt lon="101.222678" lat="14.308329">
                <ele>30.000000</ele>
                <time>2018-10-21T02:51:19Z</time>
            </trkpt>
            <trkpt lon="101.222646" lat="14.308347">
                <ele>29.800000</ele>
                <time>2018-10-21T02:51:20Z</time>
            </trkpt>
            <trkpt lon="101.222613" lat="14.308363">
                <ele>29.500000</ele>
                <time>2018-10-21T02:51:21Z</time>
            </trkpt>
            <trkpt lon="101.222581" lat="14.308374">
                <ele>29.400000</ele>
                <time>2018-10-21T02:51:22Z</time>
            </trkpt>
            <trkpt lon="101.222546" lat="14.308383">
                <ele>29.400000</ele>
                <time>2018-10-21T02:51:23Z</time>
            </trkpt>
            <trkpt lon="101.222504" lat="14.308391">
                <ele>29.300000</ele>
                <time>2018-10-21T02:51:24Z</time>
            </trkpt>
            <trkpt lon="101.222468" lat="14.308397">
                <ele>29.300000</ele>
                <time>2018-10-21T02:51:25Z</time>
            </trkpt>
            <trkpt lon="101.222427" lat="14.308407">
                <ele>29.500000</ele>
                <time>2018-10-21T02:51:26Z</time>
            </trkpt>
            <trkpt lon="101.222390" lat="14.308419">
                <ele>29.700000</ele>
                <time>2018-10-21T02:51:27Z</time>
            </trkpt>
            <trkpt lon="101.222348" lat="14.308429">
                <ele>30.200000</ele>
                <time>2018-10-21T02:51:28Z</time>
            </trkpt>
            <trkpt lon="101.222309" lat="14.308434">
                <ele>30.600000</ele>
                <time>2018-10-21T02:51:29Z</time>
            </trkpt>
            <trkpt lon="101.222270" lat="14.308441">
                <ele>31.100000</ele>
                <time>2018-10-21T02:51:30Z</time>
            </trkpt>
            <trkpt lon="101.222236" lat="14.308449">
                <ele>31.500000</ele>
                <time>2018-10-21T02:51:31Z</time>
            </trkpt>
            <trkpt lon="101.222196" lat="14.308460">
                <ele>31.900000</ele>
                <time>2018-10-21T02:51:32Z</time>
            </trkpt>
            <trkpt lon="101.222154" lat="14.308471">
                <ele>32.000000</ele>
                <time>2018-10-21T02:51:33Z</time>
            </trkpt>
            <trkpt lon="101.222113" lat="14.308477">
                <ele>32.100000</ele>
                <time>2018-10-21T02:51:34Z</time>
            </trkpt>
            <trkpt lon="101.222068" lat="14.308484">
                <ele>32.300000</ele>
                <time>2018-10-21T02:51:35Z</time>
            </trkpt>
            <trkpt lon="101.222025" lat="14.308497">
                <ele>32.400000</ele>
                <time>2018-10-21T02:51:36Z</time>
            </trkpt>
            <trkpt lon="101.221988" lat="14.308511">
                <ele>32.400000</ele>
                <time>2018-10-21T02:51:37Z</time>
            </trkpt>
            <trkpt lon="101.221946" lat="14.308524">
                <ele>32.500000</ele>
                <time>2018-10-21T02:51:38Z</time>
            </trkpt>
            <trkpt lon="101.221907" lat="14.308535">
                <ele>32.400000</ele>
                <time>2018-10-21T02:51:39Z</time>
            </trkpt>
            <trkpt lon="101.221864" lat="14.308545">
                <ele>32.400000</ele>
                <time>2018-10-21T02:51:40Z</time>
            </trkpt>
            <trkpt lon="101.221821" lat="14.308556">
                <ele>32.300000</ele>
                <time>2018-10-21T02:51:41Z</time>
            </trkpt>
            <trkpt lon="101.221778" lat="14.308569">
                <ele>32.300000</ele>
                <time>2018-10-21T02:51:42Z</time>
            </trkpt>
            <trkpt lon="101.221734" lat="14.308586">
                <ele>32.300000</ele>
                <time>2018-10-21T02:51:43Z</time>
            </trkpt>
            <trkpt lon="101.221689" lat="14.308603">
                <ele>32.300000</ele>
                <time>2018-10-21T02:51:44Z</time>
            </trkpt>
            <trkpt lon="101.221642" lat="14.308610">
                <ele>32.300000</ele>
                <time>2018-10-21T02:51:45Z</time>
            </trkpt>
            <trkpt lon="101.221594" lat="14.308617">
                <ele>32.200000</ele>
                <time>2018-10-21T02:51:46Z</time>
            </trkpt>
            <trkpt lon="101.221548" lat="14.308625">
                <ele>32.200000</ele>
                <time>2018-10-21T02:51:47Z</time>
            </trkpt>
            <trkpt lon="101.221505" lat="14.308636">
                <ele>32.100000</ele>
                <time>2018-10-21T02:51:48Z</time>
            </trkpt>
            <trkpt lon="101.221464" lat="14.308648">
                <ele>31.900000</ele>
                <time>2018-10-21T02:51:49Z</time>
            </trkpt>
            <trkpt lon="101.221426" lat="14.308657">
                <ele>31.800000</ele>
                <time>2018-10-21T02:51:50Z</time>
            </trkpt>
            <trkpt lon="101.221382" lat="14.308662">
                <ele>31.700000</ele>
                <time>2018-10-21T02:51:51Z</time>
            </trkpt>
            <trkpt lon="101.221338" lat="14.308668">
                <ele>31.400000</ele>
                <time>2018-10-21T02:51:52Z</time>
            </trkpt>
            <trkpt lon="101.221290" lat="14.308677">
                <ele>30.800000</ele>
                <time>2018-10-21T02:51:53Z</time>
            </trkpt>
            <trkpt lon="101.221241" lat="14.308688">
                <ele>30.400000</ele>
                <time>2018-10-21T02:51:54Z</time>
            </trkpt>
            <trkpt lon="101.221197" lat="14.308698">
                <ele>30.000000</ele>
                <time>2018-10-21T02:51:55Z</time>
            </trkpt>
            <trkpt lon="101.221149" lat="14.308710">
                <ele>29.400000</ele>
                <time>2018-10-21T02:51:56Z</time>
            </trkpt>
            <trkpt lon="101.221104" lat="14.308719">
                <ele>28.900000</ele>
                <time>2018-10-21T02:51:57Z</time>
            </trkpt>
            <trkpt lon="101.221056" lat="14.308730">
                <ele>28.700000</ele>
                <time>2018-10-21T02:51:58Z</time>
            </trkpt>
            <trkpt lon="101.221005" lat="14.308740">
                <ele>28.500000</ele>
                <time>2018-10-21T02:51:59Z</time>
            </trkpt>
            <trkpt lon="101.220957" lat="14.308753">
                <ele>28.400000</ele>
                <time>2018-10-21T02:52:00Z</time>
            </trkpt>
            <trkpt lon="101.220912" lat="14.308761">
                <ele>28.300000</ele>
                <time>2018-10-21T02:52:01Z</time>
            </trkpt>
            <trkpt lon="101.220867" lat="14.308769">
                <ele>28.200000</ele>
                <time>2018-10-21T02:52:02Z</time>
            </trkpt>
            <trkpt lon="101.220822" lat="14.308775">
                <ele>28.200000</ele>
                <time>2018-10-21T02:52:03Z</time>
            </trkpt>
            <trkpt lon="101.220775" lat="14.308785">
                <ele>28.300000</ele>
                <time>2018-10-21T02:52:04Z</time>
            </trkpt>
            <trkpt lon="101.220727" lat="14.308791">
                <ele>28.300000</ele>
                <time>2018-10-21T02:52:05Z</time>
            </trkpt>
            <trkpt lon="101.220683" lat="14.308791">
                <ele>28.500000</ele>
                <time>2018-10-21T02:52:06Z</time>
            </trkpt>
            <trkpt lon="101.220634" lat="14.308790">
                <ele>28.800000</ele>
                <time>2018-10-21T02:52:07Z</time>
            </trkpt>
            <trkpt lon="101.220589" lat="14.308790">
                <ele>29.200000</ele>
                <time>2018-10-21T02:52:08Z</time>
            </trkpt>
            <trkpt lon="101.220541" lat="14.308781">
                <ele>29.400000</ele>
                <time>2018-10-21T02:52:09Z</time>
            </trkpt>
            <trkpt lon="101.220497" lat="14.308767">
                <ele>29.500000</ele>
                <time>2018-10-21T02:52:10Z</time>
            </trkpt>
            <trkpt lon="101.220452" lat="14.308752">
                <ele>29.300000</ele>
                <time>2018-10-21T02:52:11Z</time>
            </trkpt>
            <trkpt lon="101.220410" lat="14.308741">
                <ele>29.100000</ele>
                <time>2018-10-21T02:52:12Z</time>
            </trkpt>
            <trkpt lon="101.220361" lat="14.308730">
                <ele>29.000000</ele>
                <time>2018-10-21T02:52:13Z</time>
            </trkpt>
            <trkpt lon="101.220314" lat="14.308721">
                <ele>28.800000</ele>
                <time>2018-10-21T02:52:14Z</time>
            </trkpt>
            <trkpt lon="101.220267" lat="14.308707">
                <ele>28.500000</ele>
                <time>2018-10-21T02:52:15Z</time>
            </trkpt>
            <trkpt lon="101.220220" lat="14.308694">
                <ele>28.300000</ele>
                <time>2018-10-21T02:52:16Z</time>
            </trkpt>
            <trkpt lon="101.220175" lat="14.308680">
                <ele>28.100000</ele>
                <time>2018-10-21T02:52:17Z</time>
            </trkpt>
            <trkpt lon="101.220125" lat="14.308668">
                <ele>28.100000</ele>
                <time>2018-10-21T02:52:18Z</time>
            </trkpt>
            <trkpt lon="101.220079" lat="14.308656">
                <ele>28.100000</ele>
                <time>2018-10-21T02:52:19Z</time>
            </trkpt>
            <trkpt lon="101.220033" lat="14.308646">
                <ele>28.100000</ele>
                <time>2018-10-21T02:52:20Z</time>
            </trkpt>
            <trkpt lon="101.219987" lat="14.308634">
                <ele>28.200000</ele>
                <time>2018-10-21T02:52:21Z</time>
            </trkpt>
            <trkpt lon="101.219941" lat="14.308622">
                <ele>28.400000</ele>
                <time>2018-10-21T02:52:22Z</time>
            </trkpt>
            <trkpt lon="101.219894" lat="14.308602">
                <ele>28.700000</ele>
                <time>2018-10-21T02:52:23Z</time>
            </trkpt>
            <trkpt lon="101.219846" lat="14.308592">
                <ele>29.100000</ele>
                <time>2018-10-21T02:52:24Z</time>
            </trkpt>
            <trkpt lon="101.219801" lat="14.308585">
                <ele>29.500000</ele>
                <time>2018-10-21T02:52:25Z</time>
            </trkpt>
            <trkpt lon="101.219758" lat="14.308576">
                <ele>29.900000</ele>
                <time>2018-10-21T02:52:26Z</time>
            </trkpt>
            <trkpt lon="101.219713" lat="14.308568">
                <ele>30.300000</ele>
                <time>2018-10-21T02:52:27Z</time>
            </trkpt>
            <trkpt lon="101.219663" lat="14.308555">
                <ele>30.800000</ele>
                <time>2018-10-21T02:52:28Z</time>
            </trkpt>
            <trkpt lon="101.219620" lat="14.308544">
                <ele>31.200000</ele>
                <time>2018-10-21T02:52:29Z</time>
            </trkpt>
            <trkpt lon="101.219575" lat="14.308531">
                <ele>31.600000</ele>
                <time>2018-10-21T02:52:30Z</time>
            </trkpt>
            <trkpt lon="101.219528" lat="14.308515">
                <ele>32.100000</ele>
                <time>2018-10-21T02:52:31Z</time>
            </trkpt>
            <trkpt lon="101.219482" lat="14.308504">
                <ele>32.000000</ele>
                <time>2018-10-21T02:52:32Z</time>
            </trkpt>
            <trkpt lon="101.219439" lat="14.308494">
                <ele>31.900000</ele>
                <time>2018-10-21T02:52:33Z</time>
            </trkpt>
            <trkpt lon="101.219395" lat="14.308480">
                <ele>31.900000</ele>
                <time>2018-10-21T02:52:34Z</time>
            </trkpt>
            <trkpt lon="101.219353" lat="14.308468">
                <ele>31.900000</ele>
                <time>2018-10-21T02:52:35Z</time>
            </trkpt>
            <trkpt lon="101.219312" lat="14.308458">
                <ele>31.600000</ele>
                <time>2018-10-21T02:52:36Z</time>
            </trkpt>
            <trkpt lon="101.219269" lat="14.308448">
                <ele>31.300000</ele>
                <time>2018-10-21T02:52:37Z</time>
            </trkpt>
            <trkpt lon="101.219229" lat="14.308434">
                <ele>31.200000</ele>
                <time>2018-10-21T02:52:38Z</time>
            </trkpt>
            <trkpt lon="101.219191" lat="14.308424">
                <ele>31.200000</ele>
                <time>2018-10-21T02:52:39Z</time>
            </trkpt>
            <trkpt lon="101.219155" lat="14.308418">
                <ele>31.200000</ele>
                <time>2018-10-21T02:52:40Z</time>
            </trkpt>
            <trkpt lon="101.219121" lat="14.308408">
                <ele>31.200000</ele>
                <time>2018-10-21T02:52:41Z</time>
            </trkpt>
            <trkpt lon="101.219089" lat="14.308395">
                <ele>31.200000</ele>
                <time>2018-10-21T02:52:42Z</time>
            </trkpt>
            <trkpt lon="101.219061" lat="14.308366">
                <ele>31.200000</ele>
                <time>2018-10-21T02:52:43Z</time>
            </trkpt>
            <trkpt lon="101.219055" lat="14.308324">
                <ele>31.200000</ele>
                <time>2018-10-21T02:52:44Z</time>
            </trkpt>
            <trkpt lon="101.219053" lat="14.308275">
                <ele>31.100000</ele>
                <time>2018-10-21T02:52:45Z</time>
            </trkpt>
            <trkpt lon="101.219065" lat="14.308224">
                <ele>31.100000</ele>
                <time>2018-10-21T02:52:46Z</time>
            </trkpt>
            <trkpt lon="101.219079" lat="14.308178">
                <ele>31.100000</ele>
                <time>2018-10-21T02:52:47Z</time>
            </trkpt>
            <trkpt lon="101.219091" lat="14.308133">
                <ele>31.100000</ele>
                <time>2018-10-21T02:52:48Z</time>
            </trkpt>
            <trkpt lon="101.219099" lat="14.308088">
                <ele>31.100000</ele>
                <time>2018-10-21T02:52:49Z</time>
            </trkpt>
            <trkpt lon="101.219098" lat="14.308047">
                <ele>30.900000</ele>
                <time>2018-10-21T02:52:50Z</time>
            </trkpt>
            <trkpt lon="101.219093" lat="14.307998">
                <ele>30.700000</ele>
                <time>2018-10-21T02:52:51Z</time>
            </trkpt>
            <trkpt lon="101.219093" lat="14.307950">
                <ele>30.400000</ele>
                <time>2018-10-21T02:52:52Z</time>
            </trkpt>
            <trkpt lon="101.219107" lat="14.307897">
                <ele>30.200000</ele>
                <time>2018-10-21T02:52:53Z</time>
            </trkpt>
            <trkpt lon="101.219126" lat="14.307847">
                <ele>30.200000</ele>
                <time>2018-10-21T02:52:54Z</time>
            </trkpt>
            <trkpt lon="101.219139" lat="14.307795">
                <ele>30.200000</ele>
                <time>2018-10-21T02:52:55Z</time>
            </trkpt>
            <trkpt lon="101.219151" lat="14.307737">
                <ele>30.200000</ele>
                <time>2018-10-21T02:52:56Z</time>
            </trkpt>
            <trkpt lon="101.219159" lat="14.307686">
                <ele>30.400000</ele>
                <time>2018-10-21T02:52:57Z</time>
            </trkpt>
            <trkpt lon="101.219164" lat="14.307635">
                <ele>30.500000</ele>
                <time>2018-10-21T02:52:58Z</time>
            </trkpt>
            <trkpt lon="101.219172" lat="14.307583">
                <ele>30.800000</ele>
                <time>2018-10-21T02:52:59Z</time>
            </trkpt>
            <trkpt lon="101.219185" lat="14.307531">
                <ele>30.800000</ele>
                <time>2018-10-21T02:53:00Z</time>
            </trkpt>
            <trkpt lon="101.219198" lat="14.307476">
                <ele>30.700000</ele>
                <time>2018-10-21T02:53:01Z</time>
            </trkpt>
            <trkpt lon="101.219210" lat="14.307421">
                <ele>30.700000</ele>
                <time>2018-10-21T02:53:02Z</time>
            </trkpt>
            <trkpt lon="101.219221" lat="14.307366">
                <ele>30.600000</ele>
                <time>2018-10-21T02:53:03Z</time>
            </trkpt>
            <trkpt lon="101.219227" lat="14.307310">
                <ele>30.500000</ele>
                <time>2018-10-21T02:53:04Z</time>
            </trkpt>
            <trkpt lon="101.219241" lat="14.307259">
                <ele>30.300000</ele>
                <time>2018-10-21T02:53:05Z</time>
            </trkpt>
            <trkpt lon="101.219255" lat="14.307203">
                <ele>30.200000</ele>
                <time>2018-10-21T02:53:06Z</time>
            </trkpt>
            <trkpt lon="101.219268" lat="14.307146">
                <ele>30.100000</ele>
                <time>2018-10-21T02:53:07Z</time>
            </trkpt>
            <trkpt lon="101.219277" lat="14.307095">
                <ele>30.100000</ele>
                <time>2018-10-21T02:53:08Z</time>
            </trkpt>
            <trkpt lon="101.219289" lat="14.307038">
                <ele>30.200000</ele>
                <time>2018-10-21T02:53:09Z</time>
            </trkpt>
            <trkpt lon="101.219305" lat="14.306982">
                <ele>30.400000</ele>
                <time>2018-10-21T02:53:10Z</time>
            </trkpt>
            <trkpt lon="101.219322" lat="14.306930">
                <ele>30.600000</ele>
                <time>2018-10-21T02:53:11Z</time>
            </trkpt>
            <trkpt lon="101.219331" lat="14.306876">
                <ele>30.900000</ele>
                <time>2018-10-21T02:53:12Z</time>
            </trkpt>
            <trkpt lon="101.219343" lat="14.306827">
                <ele>31.100000</ele>
                <time>2018-10-21T02:53:13Z</time>
            </trkpt>
            <trkpt lon="101.219358" lat="14.306779">
                <ele>31.100000</ele>
                <time>2018-10-21T02:53:14Z</time>
            </trkpt>
            <trkpt lon="101.219377" lat="14.306725">
                <ele>31.100000</ele>
                <time>2018-10-21T02:53:15Z</time>
            </trkpt>
            <trkpt lon="101.219399" lat="14.306673">
                <ele>31.200000</ele>
                <time>2018-10-21T02:53:16Z</time>
            </trkpt>
            <trkpt lon="101.219419" lat="14.306621">
                <ele>31.500000</ele>
                <time>2018-10-21T02:53:17Z</time>
            </trkpt>
            <trkpt lon="101.219443" lat="14.306563">
                <ele>31.900000</ele>
                <time>2018-10-21T02:53:18Z</time>
            </trkpt>
            <trkpt lon="101.219464" lat="14.306511">
                <ele>32.100000</ele>
                <time>2018-10-21T02:53:19Z</time>
            </trkpt>
            <trkpt lon="101.219482" lat="14.306457">
                <ele>32.100000</ele>
                <time>2018-10-21T02:53:20Z</time>
            </trkpt>
            <trkpt lon="101.219504" lat="14.306404">
                <ele>31.900000</ele>
                <time>2018-10-21T02:53:21Z</time>
            </trkpt>
            <trkpt lon="101.219522" lat="14.306348">
                <ele>31.500000</ele>
                <time>2018-10-21T02:53:22Z</time>
            </trkpt>
            <trkpt lon="101.219545" lat="14.306291">
                <ele>30.900000</ele>
                <time>2018-10-21T02:53:23Z</time>
            </trkpt>
            <trkpt lon="101.219562" lat="14.306235">
                <ele>30.000000</ele>
                <time>2018-10-21T02:53:24Z</time>
            </trkpt>
            <trkpt lon="101.219580" lat="14.306183">
                <ele>28.900000</ele>
                <time>2018-10-21T02:53:25Z</time>
            </trkpt>
            <trkpt lon="101.219611" lat="14.306144">
                <ele>27.800000</ele>
                <time>2018-10-21T02:53:26Z</time>
            </trkpt>
            <trkpt lon="101.219652" lat="14.306116">
                <ele>26.600000</ele>
                <time>2018-10-21T02:53:27Z</time>
            </trkpt>
            <trkpt lon="101.219706" lat="14.306111">
                <ele>25.400000</ele>
                <time>2018-10-21T02:53:28Z</time>
            </trkpt>
            <trkpt lon="101.219761" lat="14.306122">
                <ele>25.500000</ele>
                <time>2018-10-21T02:53:29Z</time>
            </trkpt>
            <trkpt lon="101.219813" lat="14.306136">
                <ele>25.700000</ele>
                <time>2018-10-21T02:53:30Z</time>
            </trkpt>
            <trkpt lon="101.219865" lat="14.306157">
                <ele>25.700000</ele>
                <time>2018-10-21T02:53:31Z</time>
            </trkpt>
            <trkpt lon="101.219909" lat="14.306180">
                <ele>25.500000</ele>
                <time>2018-10-21T02:53:32Z</time>
            </trkpt>
            <trkpt lon="101.219953" lat="14.306204">
                <ele>25.100000</ele>
                <time>2018-10-21T02:53:33Z</time>
            </trkpt>
            <trkpt lon="101.219995" lat="14.306228">
                <ele>24.600000</ele>
                <time>2018-10-21T02:53:34Z</time>
            </trkpt>
            <trkpt lon="101.220044" lat="14.306252">
                <ele>24.500000</ele>
                <time>2018-10-21T02:53:35Z</time>
            </trkpt>
            <trkpt lon="101.220085" lat="14.306269">
                <ele>24.400000</ele>
                <time>2018-10-21T02:53:36Z</time>
            </trkpt>
            <trkpt lon="101.220132" lat="14.306282">
                <ele>24.600000</ele>
                <time>2018-10-21T02:53:37Z</time>
            </trkpt>
            <trkpt lon="101.220183" lat="14.306291">
                <ele>24.900000</ele>
                <time>2018-10-21T02:53:38Z</time>
            </trkpt>
            <trkpt lon="101.220236" lat="14.306304">
                <ele>25.100000</ele>
                <time>2018-10-21T02:53:39Z</time>
            </trkpt>
            <trkpt lon="101.220290" lat="14.306329">
                <ele>25.700000</ele>
                <time>2018-10-21T02:53:40Z</time>
            </trkpt>
            <trkpt lon="101.220340" lat="14.306356">
                <ele>26.000000</ele>
                <time>2018-10-21T02:53:41Z</time>
            </trkpt>
            <trkpt lon="101.220390" lat="14.306383">
                <ele>26.100000</ele>
                <time>2018-10-21T02:53:42Z</time>
            </trkpt>
            <trkpt lon="101.220433" lat="14.306408">
                <ele>26.100000</ele>
                <time>2018-10-21T02:53:43Z</time>
            </trkpt>
            <trkpt lon="101.220481" lat="14.306428">
                <ele>26.100000</ele>
                <time>2018-10-21T02:53:44Z</time>
            </trkpt>
            <trkpt lon="101.220534" lat="14.306445">
                <ele>26.200000</ele>
                <time>2018-10-21T02:53:45Z</time>
            </trkpt>
            <trkpt lon="101.220581" lat="14.306461">
                <ele>26.300000</ele>
                <time>2018-10-21T02:53:46Z</time>
            </trkpt>
            <trkpt lon="101.220629" lat="14.306479">
                <ele>26.400000</ele>
                <time>2018-10-21T02:53:47Z</time>
            </trkpt>
            <trkpt lon="101.220677" lat="14.306496">
                <ele>26.300000</ele>
                <time>2018-10-21T02:53:48Z</time>
            </trkpt>
            <trkpt lon="101.220722" lat="14.306515">
                <ele>26.100000</ele>
                <time>2018-10-21T02:53:49Z</time>
            </trkpt>
            <trkpt lon="101.220768" lat="14.306534">
                <ele>26.100000</ele>
                <time>2018-10-21T02:53:50Z</time>
            </trkpt>
            <trkpt lon="101.220812" lat="14.306550">
                <ele>26.100000</ele>
                <time>2018-10-21T02:53:51Z</time>
            </trkpt>
            <trkpt lon="101.220857" lat="14.306568">
                <ele>26.000000</ele>
                <time>2018-10-21T02:53:52Z</time>
            </trkpt>
            <trkpt lon="101.220901" lat="14.306585">
                <ele>25.900000</ele>
                <time>2018-10-21T02:53:53Z</time>
            </trkpt>
            <trkpt lon="101.220942" lat="14.306602">
                <ele>25.800000</ele>
                <time>2018-10-21T02:53:54Z</time>
            </trkpt>
            <trkpt lon="101.220985" lat="14.306618">
                <ele>25.700000</ele>
                <time>2018-10-21T02:53:55Z</time>
            </trkpt>
            <trkpt lon="101.221027" lat="14.306636">
                <ele>25.600000</ele>
                <time>2018-10-21T02:53:56Z</time>
            </trkpt>
            <trkpt lon="101.221071" lat="14.306651">
                <ele>25.600000</ele>
                <time>2018-10-21T02:53:57Z</time>
            </trkpt>
            <trkpt lon="101.221114" lat="14.306665">
                <ele>25.600000</ele>
                <time>2018-10-21T02:53:58Z</time>
            </trkpt>
            <trkpt lon="101.221154" lat="14.306679">
                <ele>25.600000</ele>
                <time>2018-10-21T02:53:59Z</time>
            </trkpt>
            <trkpt lon="101.221196" lat="14.306693">
                <ele>25.700000</ele>
                <time>2018-10-21T02:54:00Z</time>
            </trkpt>
            <trkpt lon="101.221240" lat="14.306709">
                <ele>25.800000</ele>
                <time>2018-10-21T02:54:01Z</time>
            </trkpt>
            <trkpt lon="101.221283" lat="14.306727">
                <ele>25.900000</ele>
                <time>2018-10-21T02:54:02Z</time>
            </trkpt>
            <trkpt lon="101.221324" lat="14.306748">
                <ele>26.000000</ele>
                <time>2018-10-21T02:54:03Z</time>
            </trkpt>
            <trkpt lon="101.221360" lat="14.306768">
                <ele>25.900000</ele>
                <time>2018-10-21T02:54:04Z</time>
            </trkpt>
            <trkpt lon="101.221400" lat="14.306787">
                <ele>25.800000</ele>
                <time>2018-10-21T02:54:05Z</time>
            </trkpt>
            <trkpt lon="101.221435" lat="14.306808">
                <ele>25.600000</ele>
                <time>2018-10-21T02:54:06Z</time>
            </trkpt>
            <trkpt lon="101.221477" lat="14.306828">
                <ele>25.500000</ele>
                <time>2018-10-21T02:54:07Z</time>
            </trkpt>
            <trkpt lon="101.221510" lat="14.306848">
                <ele>25.400000</ele>
                <time>2018-10-21T02:54:08Z</time>
            </trkpt>
            <trkpt lon="101.221549" lat="14.306870">
                <ele>25.400000</ele>
                <time>2018-10-21T02:54:09Z</time>
            </trkpt>
            <trkpt lon="101.221590" lat="14.306890">
                <ele>25.400000</ele>
                <time>2018-10-21T02:54:10Z</time>
            </trkpt>
            <trkpt lon="101.221633" lat="14.306908">
                <ele>25.200000</ele>
                <time>2018-10-21T02:54:11Z</time>
            </trkpt>
            <trkpt lon="101.221674" lat="14.306923">
                <ele>25.100000</ele>
                <time>2018-10-21T02:54:12Z</time>
            </trkpt>
            <trkpt lon="101.221714" lat="14.306932">
                <ele>25.000000</ele>
                <time>2018-10-21T02:54:13Z</time>
            </trkpt>
            <trkpt lon="101.221753" lat="14.306942">
                <ele>25.100000</ele>
                <time>2018-10-21T02:54:14Z</time>
            </trkpt>
            <trkpt lon="101.221791" lat="14.306955">
                <ele>25.200000</ele>
                <time>2018-10-21T02:54:15Z</time>
            </trkpt>
            <trkpt lon="101.221834" lat="14.306966">
                <ele>25.500000</ele>
                <time>2018-10-21T02:54:16Z</time>
            </trkpt>
            <trkpt lon="101.221873" lat="14.306979">
                <ele>25.700000</ele>
                <time>2018-10-21T02:54:17Z</time>
            </trkpt>
            <trkpt lon="101.221918" lat="14.306994">
                <ele>25.900000</ele>
                <time>2018-10-21T02:54:18Z</time>
            </trkpt>
            <trkpt lon="101.221953" lat="14.307006">
                <ele>26.100000</ele>
                <time>2018-10-21T02:54:19Z</time>
            </trkpt>
            <trkpt lon="101.221993" lat="14.307024">
                <ele>26.400000</ele>
                <time>2018-10-21T02:54:20Z</time>
            </trkpt>
            <trkpt lon="101.222035" lat="14.307041">
                <ele>26.600000</ele>
                <time>2018-10-21T02:54:21Z</time>
            </trkpt>
            <trkpt lon="101.222075" lat="14.307057">
                <ele>26.900000</ele>
                <time>2018-10-21T02:54:22Z</time>
            </trkpt>
            <trkpt lon="101.222119" lat="14.307072">
                <ele>27.000000</ele>
                <time>2018-10-21T02:54:23Z</time>
            </trkpt>
            <trkpt lon="101.222162" lat="14.307086">
                <ele>27.200000</ele>
                <time>2018-10-21T02:54:24Z</time>
            </trkpt>
            <trkpt lon="101.222201" lat="14.307099">
                <ele>27.300000</ele>
                <time>2018-10-21T02:54:25Z</time>
            </trkpt>
            <trkpt lon="101.222243" lat="14.307116">
                <ele>27.400000</ele>
                <time>2018-10-21T02:54:26Z</time>
            </trkpt>
            <trkpt lon="101.222282" lat="14.307132">
                <ele>27.400000</ele>
                <time>2018-10-21T02:54:27Z</time>
            </trkpt>
            <trkpt lon="101.222323" lat="14.307150">
                <ele>27.300000</ele>
                <time>2018-10-21T02:54:28Z</time>
            </trkpt>
            <trkpt lon="101.222365" lat="14.307160">
                <ele>27.100000</ele>
                <time>2018-10-21T02:54:29Z</time>
            </trkpt>
            <trkpt lon="101.222422" lat="14.307157">
                <ele>26.900000</ele>
                <time>2018-10-21T02:54:30Z</time>
            </trkpt>
            <trkpt lon="101.222468" lat="14.307150">
                <ele>26.600000</ele>
                <time>2018-10-21T02:54:31Z</time>
            </trkpt>
            <trkpt lon="101.222508" lat="14.307135">
                <ele>26.300000</ele>
                <time>2018-10-21T02:54:32Z</time>
            </trkpt>
            <trkpt lon="101.222543" lat="14.307110">
                <ele>25.800000</ele>
                <time>2018-10-21T02:54:33Z</time>
            </trkpt>
            <trkpt lon="101.222571" lat="14.307077">
                <ele>25.500000</ele>
                <time>2018-10-21T02:54:34Z</time>
            </trkpt>
            <trkpt lon="101.222593" lat="14.307044">
                <ele>25.100000</ele>
                <time>2018-10-21T02:54:35Z</time>
            </trkpt>
            <trkpt lon="101.222607" lat="14.307009">
                <ele>24.800000</ele>
                <time>2018-10-21T02:54:36Z</time>
            </trkpt>
            <trkpt lon="101.222621" lat="14.306963">
                <ele>24.300000</ele>
                <time>2018-10-21T02:54:37Z</time>
            </trkpt>
            <trkpt lon="101.222634" lat="14.306917">
                <ele>24.300000</ele>
                <time>2018-10-21T02:54:38Z</time>
            </trkpt>
            <trkpt lon="101.222651" lat="14.306874">
                <ele>24.300000</ele>
                <time>2018-10-21T02:54:39Z</time>
            </trkpt>
            <trkpt lon="101.222670" lat="14.306830">
                <ele>24.500000</ele>
                <time>2018-10-21T02:54:40Z</time>
            </trkpt>
            <trkpt lon="101.222692" lat="14.306791">
                <ele>24.700000</ele>
                <time>2018-10-21T02:54:41Z</time>
            </trkpt>
            <trkpt lon="101.222712" lat="14.306751">
                <ele>25.200000</ele>
                <time>2018-10-21T02:54:42Z</time>
            </trkpt>
            <trkpt lon="101.222732" lat="14.306709">
                <ele>25.600000</ele>
                <time>2018-10-21T02:54:43Z</time>
            </trkpt>
            <trkpt lon="101.222756" lat="14.306672">
                <ele>26.000000</ele>
                <time>2018-10-21T02:54:44Z</time>
            </trkpt>
            <trkpt lon="101.222783" lat="14.306630">
                <ele>26.500000</ele>
                <time>2018-10-21T02:54:45Z</time>
            </trkpt>
            <trkpt lon="101.222806" lat="14.306587">
                <ele>26.900000</ele>
                <time>2018-10-21T02:54:46Z</time>
            </trkpt>
            <trkpt lon="101.222833" lat="14.306542">
                <ele>27.300000</ele>
                <time>2018-10-21T02:54:47Z</time>
            </trkpt>
            <trkpt lon="101.222860" lat="14.306500">
                <ele>27.600000</ele>
                <time>2018-10-21T02:54:48Z</time>
            </trkpt>
            <trkpt lon="101.222882" lat="14.306458">
                <ele>27.800000</ele>
                <time>2018-10-21T02:54:49Z</time>
            </trkpt>
            <trkpt lon="101.222899" lat="14.306412">
                <ele>28.000000</ele>
                <time>2018-10-21T02:54:50Z</time>
            </trkpt>
            <trkpt lon="101.222914" lat="14.306365">
                <ele>28.000000</ele>
                <time>2018-10-21T02:54:51Z</time>
            </trkpt>
            <trkpt lon="101.222933" lat="14.306320">
                <ele>28.000000</ele>
                <time>2018-10-21T02:54:52Z</time>
            </trkpt>
            <trkpt lon="101.222954" lat="14.306274">
                <ele>27.900000</ele>
                <time>2018-10-21T02:54:53Z</time>
            </trkpt>
            <trkpt lon="101.222973" lat="14.306229">
                <ele>27.700000</ele>
                <time>2018-10-21T02:54:54Z</time>
            </trkpt>
            <trkpt lon="101.222997" lat="14.306184">
                <ele>27.500000</ele>
                <time>2018-10-21T02:54:55Z</time>
            </trkpt>
            <trkpt lon="101.223021" lat="14.306139">
                <ele>27.200000</ele>
                <time>2018-10-21T02:54:56Z</time>
            </trkpt>
            <trkpt lon="101.223046" lat="14.306092">
                <ele>26.800000</ele>
                <time>2018-10-21T02:54:57Z</time>
            </trkpt>
            <trkpt lon="101.223071" lat="14.306046">
                <ele>26.400000</ele>
                <time>2018-10-21T02:54:58Z</time>
            </trkpt>
            <trkpt lon="101.223093" lat="14.305998">
                <ele>26.100000</ele>
                <time>2018-10-21T02:54:59Z</time>
            </trkpt>
            <trkpt lon="101.223114" lat="14.305949">
                <ele>25.900000</ele>
                <time>2018-10-21T02:55:00Z</time>
            </trkpt>
            <trkpt lon="101.223141" lat="14.305901">
                <ele>25.900000</ele>
                <time>2018-10-21T02:55:01Z</time>
            </trkpt>
            <trkpt lon="101.223159" lat="14.305852">
                <ele>25.800000</ele>
                <time>2018-10-21T02:55:02Z</time>
            </trkpt>
            <trkpt lon="101.223169" lat="14.305801">
                <ele>25.600000</ele>
                <time>2018-10-21T02:55:03Z</time>
            </trkpt>
            <trkpt lon="101.223186" lat="14.305753">
                <ele>25.600000</ele>
                <time>2018-10-21T02:55:04Z</time>
            </trkpt>
            <trkpt lon="101.223207" lat="14.305707">
                <ele>25.600000</ele>
                <time>2018-10-21T02:55:05Z</time>
            </trkpt>
            <trkpt lon="101.223223" lat="14.305658">
                <ele>25.500000</ele>
                <time>2018-10-21T02:55:06Z</time>
            </trkpt>
            <trkpt lon="101.223237" lat="14.305609">
                <ele>25.400000</ele>
                <time>2018-10-21T02:55:07Z</time>
            </trkpt>
            <trkpt lon="101.223254" lat="14.305562">
                <ele>25.200000</ele>
                <time>2018-10-21T02:55:08Z</time>
            </trkpt>
            <trkpt lon="101.223275" lat="14.305514">
                <ele>25.200000</ele>
                <time>2018-10-21T02:55:09Z</time>
            </trkpt>
            <trkpt lon="101.223298" lat="14.305469">
                <ele>25.400000</ele>
                <time>2018-10-21T02:55:10Z</time>
            </trkpt>
            <trkpt lon="101.223325" lat="14.305426">
                <ele>25.400000</ele>
                <time>2018-10-21T02:55:11Z</time>
            </trkpt>
            <trkpt lon="101.223350" lat="14.305382">
                <ele>25.500000</ele>
                <time>2018-10-21T02:55:12Z</time>
            </trkpt>
            <trkpt lon="101.223376" lat="14.305339">
                <ele>26.000000</ele>
                <time>2018-10-21T02:55:13Z</time>
            </trkpt>
            <trkpt lon="101.223401" lat="14.305297">
                <ele>26.600000</ele>
                <time>2018-10-21T02:55:14Z</time>
            </trkpt>
            <trkpt lon="101.223427" lat="14.305255">
                <ele>27.300000</ele>
                <time>2018-10-21T02:55:15Z</time>
            </trkpt>
            <trkpt lon="101.223449" lat="14.305214">
                <ele>27.700000</ele>
                <time>2018-10-21T02:55:16Z</time>
            </trkpt>
            <trkpt lon="101.223463" lat="14.305172">
                <ele>27.900000</ele>
                <time>2018-10-21T02:55:17Z</time>
            </trkpt>
            <trkpt lon="101.223471" lat="14.305123">
                <ele>28.200000</ele>
                <time>2018-10-21T02:55:18Z</time>
            </trkpt>
            <trkpt lon="101.223487" lat="14.305075">
                <ele>28.400000</ele>
                <time>2018-10-21T02:55:19Z</time>
            </trkpt>
            <trkpt lon="101.223515" lat="14.305034">
                <ele>28.600000</ele>
                <time>2018-10-21T02:55:20Z</time>
            </trkpt>
            <trkpt lon="101.223538" lat="14.304994">
                <ele>28.600000</ele>
                <time>2018-10-21T02:55:21Z</time>
            </trkpt>
            <trkpt lon="101.223566" lat="14.304952">
                <ele>28.600000</ele>
                <time>2018-10-21T02:55:22Z</time>
            </trkpt>
            <trkpt lon="101.223588" lat="14.304913">
                <ele>28.500000</ele>
                <time>2018-10-21T02:55:23Z</time>
            </trkpt>
            <trkpt lon="101.223611" lat="14.304868">
                <ele>28.500000</ele>
                <time>2018-10-21T02:55:24Z</time>
            </trkpt>
            <trkpt lon="101.223633" lat="14.304823">
                <ele>28.400000</ele>
                <time>2018-10-21T02:55:25Z</time>
            </trkpt>
            <trkpt lon="101.223653" lat="14.304783">
                <ele>28.300000</ele>
                <time>2018-10-21T02:55:26Z</time>
            </trkpt>
            <trkpt lon="101.223679" lat="14.304742">
                <ele>28.100000</ele>
                <time>2018-10-21T02:55:27Z</time>
            </trkpt>
            <trkpt lon="101.223702" lat="14.304701">
                <ele>27.800000</ele>
                <time>2018-10-21T02:55:28Z</time>
            </trkpt>
            <trkpt lon="101.223719" lat="14.304657">
                <ele>27.400000</ele>
                <time>2018-10-21T02:55:29Z</time>
            </trkpt>
            <trkpt lon="101.223735" lat="14.304616">
                <ele>27.000000</ele>
                <time>2018-10-21T02:55:30Z</time>
            </trkpt>
            <trkpt lon="101.223760" lat="14.304582">
                <ele>26.600000</ele>
                <time>2018-10-21T02:55:31Z</time>
            </trkpt>
            <trkpt lon="101.223794" lat="14.304555">
                <ele>26.400000</ele>
                <time>2018-10-21T02:55:32Z</time>
            </trkpt>
            <trkpt lon="101.223837" lat="14.304542">
                <ele>26.400000</ele>
                <time>2018-10-21T02:55:33Z</time>
            </trkpt>
            <trkpt lon="101.223882" lat="14.304554">
                <ele>26.200000</ele>
                <time>2018-10-21T02:55:34Z</time>
            </trkpt>
            <trkpt lon="101.223923" lat="14.304575">
                <ele>26.000000</ele>
                <time>2018-10-21T02:55:35Z</time>
            </trkpt>
            <trkpt lon="101.223964" lat="14.304590">
                <ele>25.600000</ele>
                <time>2018-10-21T02:55:36Z</time>
            </trkpt>
            <trkpt lon="101.224006" lat="14.304612">
                <ele>25.300000</ele>
                <time>2018-10-21T02:55:37Z</time>
            </trkpt>
            <trkpt lon="101.224037" lat="14.304633">
                <ele>25.100000</ele>
                <time>2018-10-21T02:55:38Z</time>
            </trkpt>
            <trkpt lon="101.224072" lat="14.304654">
                <ele>25.000000</ele>
                <time>2018-10-21T02:55:39Z</time>
            </trkpt>
            <trkpt lon="101.224108" lat="14.304673">
                <ele>24.900000</ele>
                <time>2018-10-21T02:55:40Z</time>
            </trkpt>
            <trkpt lon="101.224147" lat="14.304693">
                <ele>24.900000</ele>
                <time>2018-10-21T02:55:41Z</time>
            </trkpt>
            <trkpt lon="101.224182" lat="14.304713">
                <ele>25.100000</ele>
                <time>2018-10-21T02:55:42Z</time>
            </trkpt>
            <trkpt lon="101.224223" lat="14.304733">
                <ele>25.400000</ele>
                <time>2018-10-21T02:55:43Z</time>
            </trkpt>
            <trkpt lon="101.224262" lat="14.304744">
                <ele>25.700000</ele>
                <time>2018-10-21T02:55:44Z</time>
            </trkpt>
            <trkpt lon="101.224301" lat="14.304755">
                <ele>26.000000</ele>
                <time>2018-10-21T02:55:45Z</time>
            </trkpt>
            <trkpt lon="101.224343" lat="14.304765">
                <ele>26.500000</ele>
                <time>2018-10-21T02:55:46Z</time>
            </trkpt>
            <trkpt lon="101.224382" lat="14.304777">
                <ele>27.000000</ele>
                <time>2018-10-21T02:55:47Z</time>
            </trkpt>
            <trkpt lon="101.224415" lat="14.304795">
                <ele>27.400000</ele>
                <time>2018-10-21T02:55:48Z</time>
            </trkpt>
            <trkpt lon="101.224443" lat="14.304816">
                <ele>27.900000</ele>
                <time>2018-10-21T02:55:49Z</time>
            </trkpt>
            <trkpt lon="101.224472" lat="14.304836">
                <ele>28.300000</ele>
                <time>2018-10-21T02:55:50Z</time>
            </trkpt>
            <trkpt lon="101.224502" lat="14.304853">
                <ele>28.400000</ele>
                <time>2018-10-21T02:55:51Z</time>
            </trkpt>
            <trkpt lon="101.224534" lat="14.304869">
                <ele>28.500000</ele>
                <time>2018-10-21T02:55:52Z</time>
            </trkpt>
            <trkpt lon="101.224566" lat="14.304885">
                <ele>28.800000</ele>
                <time>2018-10-21T02:55:53Z</time>
            </trkpt>
            <trkpt lon="101.224595" lat="14.304900">
                <ele>29.000000</ele>
                <time>2018-10-21T02:55:54Z</time>
            </trkpt>
            <trkpt lon="101.224625" lat="14.304916">
                <ele>29.300000</ele>
                <time>2018-10-21T02:55:55Z</time>
            </trkpt>
            <trkpt lon="101.224653" lat="14.304934">
                <ele>29.600000</ele>
                <time>2018-10-21T02:55:56Z</time>
            </trkpt>
            <trkpt lon="101.224684" lat="14.304951">
                <ele>29.800000</ele>
                <time>2018-10-21T02:55:57Z</time>
            </trkpt>
            <trkpt lon="101.224715" lat="14.304966">
                <ele>29.900000</ele>
                <time>2018-10-21T02:55:58Z</time>
            </trkpt>
            <trkpt lon="101.224749" lat="14.304982">
                <ele>29.800000</ele>
                <time>2018-10-21T02:55:59Z</time>
            </trkpt>
            <trkpt lon="101.224781" lat="14.304999">
                <ele>29.700000</ele>
                <time>2018-10-21T02:56:00Z</time>
            </trkpt>
            <trkpt lon="101.224815" lat="14.305015">
                <ele>29.600000</ele>
                <time>2018-10-21T02:56:01Z</time>
            </trkpt>
            <trkpt lon="101.224848" lat="14.305029">
                <ele>29.500000</ele>
                <time>2018-10-21T02:56:02Z</time>
            </trkpt>
            <trkpt lon="101.224880" lat="14.305041">
                <ele>29.400000</ele>
                <time>2018-10-21T02:56:03Z</time>
            </trkpt>
            <trkpt lon="101.224914" lat="14.305054">
                <ele>29.300000</ele>
                <time>2018-10-21T02:56:04Z</time>
            </trkpt>
            <trkpt lon="101.224945" lat="14.305065">
                <ele>29.200000</ele>
                <time>2018-10-21T02:56:05Z</time>
            </trkpt>
            <trkpt lon="101.224973" lat="14.305075">
                <ele>29.200000</ele>
                <time>2018-10-21T02:56:06Z</time>
            </trkpt>
            <trkpt lon="101.225000" lat="14.305083">
                <ele>29.200000</ele>
                <time>2018-10-21T02:56:07Z</time>
            </trkpt>
            <trkpt lon="101.225044" lat="14.305109">
                <ele>29.200000</ele>
                <time>2018-10-21T02:56:09Z</time>
            </trkpt>
            <trkpt lon="101.225083" lat="14.305128">
                <ele>29.100000</ele>
                <time>2018-10-21T02:56:11Z</time>
            </trkpt>
            <trkpt lon="101.225126" lat="14.305157">
                <ele>29.000000</ele>
                <time>2018-10-21T02:56:13Z</time>
            </trkpt>
            <trkpt lon="101.225174" lat="14.305182">
                <ele>28.900000</ele>
                <time>2018-10-21T02:56:15Z</time>
            </trkpt>
            <trkpt lon="101.225200" lat="14.305196">
                <ele>28.800000</ele>
                <time>2018-10-21T02:56:16Z</time>
            </trkpt>
            <trkpt lon="101.225227" lat="14.305212">
                <ele>28.800000</ele>
                <time>2018-10-21T02:56:17Z</time>
            </trkpt>
            <trkpt lon="101.225253" lat="14.305224">
                <ele>28.800000</ele>
                <time>2018-10-21T02:56:18Z</time>
            </trkpt>
            <trkpt lon="101.225303" lat="14.305229">
                <ele>28.800000</ele>
                <time>2018-10-21T02:56:20Z</time>
            </trkpt>
            <trkpt lon="101.225349" lat="14.305210">
                <ele>28.800000</ele>
                <time>2018-10-21T02:56:22Z</time>
            </trkpt>
            <trkpt lon="101.225394" lat="14.305181">
                <ele>28.900000</ele>
                <time>2018-10-21T02:56:24Z</time>
            </trkpt>
            <trkpt lon="101.225417" lat="14.305163">
                <ele>28.900000</ele>
                <time>2018-10-21T02:56:25Z</time>
            </trkpt>
            <trkpt lon="101.225443" lat="14.305146">
                <ele>28.900000</ele>
                <time>2018-10-21T02:56:26Z</time>
            </trkpt>
            <trkpt lon="101.225473" lat="14.305131">
                <ele>28.900000</ele>
                <time>2018-10-21T02:56:27Z</time>
            </trkpt>
            <trkpt lon="101.225502" lat="14.305114">
                <ele>28.900000</ele>
                <time>2018-10-21T02:56:28Z</time>
            </trkpt>
            <trkpt lon="101.225525" lat="14.305092">
                <ele>28.900000</ele>
                <time>2018-10-21T02:56:29Z</time>
            </trkpt>
            <trkpt lon="101.225545" lat="14.305067">
                <ele>28.900000</ele>
                <time>2018-10-21T02:56:30Z</time>
            </trkpt>
            <trkpt lon="101.225565" lat="14.305042">
                <ele>28.900000</ele>
                <time>2018-10-21T02:56:31Z</time>
            </trkpt>
            <trkpt lon="101.225585" lat="14.305018">
                <ele>28.900000</ele>
                <time>2018-10-21T02:56:32Z</time>
            </trkpt>
            <trkpt lon="101.225608" lat="14.304994">
                <ele>28.900000</ele>
                <time>2018-10-21T02:56:33Z</time>
            </trkpt>
            <trkpt lon="101.225634" lat="14.304972">
                <ele>28.900000</ele>
                <time>2018-10-21T02:56:34Z</time>
            </trkpt>
            <trkpt lon="101.225660" lat="14.304948">
                <ele>29.000000</ele>
                <time>2018-10-21T02:56:35Z</time>
            </trkpt>
            <trkpt lon="101.225688" lat="14.304923">
                <ele>29.000000</ele>
                <time>2018-10-21T02:56:36Z</time>
            </trkpt>
            <trkpt lon="101.225711" lat="14.304897">
                <ele>29.000000</ele>
                <time>2018-10-21T02:56:37Z</time>
            </trkpt>
            <trkpt lon="101.225733" lat="14.304872">
                <ele>29.000000</ele>
                <time>2018-10-21T02:56:38Z</time>
            </trkpt>
            <trkpt lon="101.225759" lat="14.304845">
                <ele>29.000000</ele>
                <time>2018-10-21T02:56:39Z</time>
            </trkpt>
            <trkpt lon="101.225787" lat="14.304815">
                <ele>29.100000</ele>
                <time>2018-10-21T02:56:40Z</time>
            </trkpt>
            <trkpt lon="101.225815" lat="14.304786">
                <ele>29.100000</ele>
                <time>2018-10-21T02:56:41Z</time>
            </trkpt>
            <trkpt lon="101.225838" lat="14.304761">
                <ele>29.100000</ele>
                <time>2018-10-21T02:56:42Z</time>
            </trkpt>
            <trkpt lon="101.225865" lat="14.304737">
                <ele>29.100000</ele>
                <time>2018-10-21T02:56:43Z</time>
            </trkpt>
            <trkpt lon="101.225892" lat="14.304713">
                <ele>29.100000</ele>
                <time>2018-10-21T02:56:44Z</time>
            </trkpt>
            <trkpt lon="101.225921" lat="14.304688">
                <ele>29.200000</ele>
                <time>2018-10-21T02:56:45Z</time>
            </trkpt>
            <trkpt lon="101.225952" lat="14.304662">
                <ele>29.200000</ele>
                <time>2018-10-21T02:56:46Z</time>
            </trkpt>
            <trkpt lon="101.225972" lat="14.304635">
                <ele>29.200000</ele>
                <time>2018-10-21T02:56:47Z</time>
            </trkpt>
            <trkpt lon="101.226001" lat="14.304611">
                <ele>29.100000</ele>
                <time>2018-10-21T02:56:48Z</time>
            </trkpt>
            <trkpt lon="101.226033" lat="14.304606">
                <ele>29.300000</ele>
                <time>2018-10-21T02:56:49Z</time>
            </trkpt>
            <trkpt lon="101.226065" lat="14.304615">
                <ele>29.400000</ele>
                <time>2018-10-21T02:56:50Z</time>
            </trkpt>
            <trkpt lon="101.226092" lat="14.304625">
                <ele>29.400000</ele>
                <time>2018-10-21T02:56:51Z</time>
            </trkpt>
            <trkpt lon="101.226131" lat="14.304662">
                <ele>29.700000</ele>
                <time>2018-10-21T02:56:53Z</time>
            </trkpt>
            <trkpt lon="101.226151" lat="14.304684">
                <ele>29.900000</ele>
                <time>2018-10-21T02:56:54Z</time>
            </trkpt>
            <trkpt lon="101.226171" lat="14.304704">
                <ele>29.900000</ele>
                <time>2018-10-21T02:56:55Z</time>
            </trkpt>
            <trkpt lon="101.226194" lat="14.304722">
                <ele>29.900000</ele>
                <time>2018-10-21T02:56:56Z</time>
            </trkpt>
            <trkpt lon="101.226218" lat="14.304738">
                <ele>30.200000</ele>
                <time>2018-10-21T02:56:57Z</time>
            </trkpt>
            <trkpt lon="101.226262" lat="14.304760">
                <ele>30.300000</ele>
                <time>2018-10-21T02:56:59Z</time>
            </trkpt>
            <trkpt lon="101.226300" lat="14.304788">
                <ele>30.800000</ele>
                <time>2018-10-21T02:57:01Z</time>
            </trkpt>
            <trkpt lon="101.226325" lat="14.304827">
                <ele>31.300000</ele>
                <time>2018-10-21T02:57:03Z</time>
            </trkpt>
            <trkpt lon="101.226356" lat="14.304858">
                <ele>31.800000</ele>
                <time>2018-10-21T02:57:05Z</time>
            </trkpt>
            <trkpt lon="101.226396" lat="14.304890">
                <ele>31.800000</ele>
                <time>2018-10-21T02:57:07Z</time>
            </trkpt>
            <trkpt lon="101.226435" lat="14.304922">
                <ele>32.200000</ele>
                <time>2018-10-21T02:57:09Z</time>
            </trkpt>
            <trkpt lon="101.226476" lat="14.304954">
                <ele>32.400000</ele>
                <time>2018-10-21T02:57:11Z</time>
            </trkpt>
            <trkpt lon="101.226517" lat="14.304980">
                <ele>32.700000</ele>
                <time>2018-10-21T02:57:13Z</time>
            </trkpt>
            <trkpt lon="101.226557" lat="14.305004">
                <ele>32.700000</ele>
                <time>2018-10-21T02:57:15Z</time>
            </trkpt>
            <trkpt lon="101.226606" lat="14.305030">
                <ele>32.900000</ele>
                <time>2018-10-21T02:57:17Z</time>
            </trkpt>
            <trkpt lon="101.226651" lat="14.305047">
                <ele>33.000000</ele>
                <time>2018-10-21T02:57:19Z</time>
            </trkpt>
            <trkpt lon="101.226693" lat="14.305064">
                <ele>33.100000</ele>
                <time>2018-10-21T02:57:21Z</time>
            </trkpt>
            <trkpt lon="101.226737" lat="14.305084">
                <ele>33.100000</ele>
                <time>2018-10-21T02:57:23Z</time>
            </trkpt>
            <trkpt lon="101.226777" lat="14.305099">
                <ele>33.200000</ele>
                <time>2018-10-21T02:57:25Z</time>
            </trkpt>
            <trkpt lon="101.226811" lat="14.305105">
                <ele>33.600000</ele>
                <time>2018-10-21T02:57:27Z</time>
            </trkpt>
            <trkpt lon="101.226859" lat="14.305115">
                <ele>34.000000</ele>
                <time>2018-10-21T02:57:29Z</time>
            </trkpt>
            <trkpt lon="101.226907" lat="14.305118">
                <ele>34.500000</ele>
                <time>2018-10-21T02:57:31Z</time>
            </trkpt>
            <trkpt lon="101.226948" lat="14.305123">
                <ele>34.800000</ele>
                <time>2018-10-21T02:57:33Z</time>
            </trkpt>
            <trkpt lon="101.226990" lat="14.305137">
                <ele>35.100000</ele>
                <time>2018-10-21T02:57:35Z</time>
            </trkpt>
            <trkpt lon="101.227029" lat="14.305162">
                <ele>35.100000</ele>
                <time>2018-10-21T02:57:37Z</time>
            </trkpt>
            <trkpt lon="101.227054" lat="14.305191">
                <ele>35.100000</ele>
                <time>2018-10-21T02:57:39Z</time>
            </trkpt>
            <trkpt lon="101.227074" lat="14.305231">
                <ele>34.800000</ele>
                <time>2018-10-21T02:57:41Z</time>
            </trkpt>
            <trkpt lon="101.227093" lat="14.305267">
                <ele>34.800000</ele>
                <time>2018-10-21T02:57:43Z</time>
            </trkpt>
            <trkpt lon="101.227106" lat="14.305300">
                <ele>34.800000</ele>
                <time>2018-10-21T02:57:45Z</time>
            </trkpt>
            <trkpt lon="101.227108" lat="14.305330">
                <ele>34.500000</ele>
                <time>2018-10-21T02:57:47Z</time>
            </trkpt>
            <trkpt lon="101.227137" lat="14.305347">
                <ele>34.500000</ele>
                <time>2018-10-21T02:57:50Z</time>
            </trkpt>
            <trkpt lon="101.227166" lat="14.305320">
                <ele>34.500000</ele>
                <time>2018-10-21T02:57:52Z</time>
            </trkpt>
            <trkpt lon="101.227185" lat="14.305287">
                <ele>34.800000</ele>
                <time>2018-10-21T02:57:54Z</time>
            </trkpt>
            <trkpt lon="101.227212" lat="14.305256">
                <ele>35.000000</ele>
                <time>2018-10-21T02:57:56Z</time>
            </trkpt>
            <trkpt lon="101.227229" lat="14.305227">
                <ele>35.000000</ele>
                <time>2018-10-21T02:57:58Z</time>
            </trkpt>
            <trkpt lon="101.227217" lat="14.305190">
                <ele>35.300000</ele>
                <time>2018-10-21T02:58:01Z</time>
            </trkpt>
            <trkpt lon="101.227181" lat="14.305189">
                <ele>35.300000</ele>
                <time>2018-10-21T02:58:13Z</time>
            </trkpt>
            <trkpt lon="101.227159" lat="14.305214">
                <ele>35.300000</ele>
                <time>2018-10-21T02:58:15Z</time>
            </trkpt>
            <trkpt lon="101.227150" lat="14.305246">
                <ele>35.000000</ele>
                <time>2018-10-21T02:58:17Z</time>
            </trkpt>
            <trkpt lon="101.227142" lat="14.305284">
                <ele>34.800000</ele>
                <time>2018-10-21T02:58:22Z</time>
            </trkpt>
            <trkpt lon="101.227149" lat="14.305319">
                <ele>34.500000</ele>
                <time>2018-10-21T02:58:24Z</time>
            </trkpt>
            <trkpt lon="101.227167" lat="14.305344">
                <ele>34.500000</ele>
                <time>2018-10-21T02:58:27Z</time>
            </trkpt>
            <trkpt lon="101.227190" lat="14.305361">
                <ele>34.300000</ele>
                <time>2018-10-21T02:58:33Z</time>
            </trkpt>
            <trkpt lon="101.227214" lat="14.305376">
                <ele>34.300000</ele>
                <time>2018-10-21T02:58:37Z</time>
            </trkpt>
            <trkpt lon="101.227243" lat="14.305404">
                <ele>34.100000</ele>
                <time>2018-10-21T02:58:42Z</time>
            </trkpt>
            <trkpt lon="101.227265" lat="14.305443">
                <ele>34.100000</ele>
                <time>2018-10-21T02:58:50Z</time>
            </trkpt>
            <trkpt lon="101.227260" lat="14.305416">
                <ele>34.100000</ele>
                <time>2018-10-21T02:59:55Z</time>
            </trkpt>
            <trkpt lon="101.227231" lat="14.305394">
                <ele>34.100000</ele>
                <time>2018-10-21T02:59:58Z</time>
            </trkpt>
            <trkpt lon="101.227213" lat="14.305359">
                <ele>34.300000</ele>
                <time>2018-10-21T03:00:01Z</time>
            </trkpt>
            <trkpt lon="101.227189" lat="14.305332">
                <ele>34.500000</ele>
                <time>2018-10-21T03:00:03Z</time>
            </trkpt>
            <trkpt lon="101.227155" lat="14.305308">
                <ele>34.500000</ele>
                <time>2018-10-21T03:00:05Z</time>
            </trkpt>
            <trkpt lon="101.227109" lat="14.305290">
                <ele>34.800000</ele>
                <time>2018-10-21T03:00:07Z</time>
            </trkpt>
            <trkpt lon="101.227080" lat="14.305285">
                <ele>34.600000</ele>
                <time>2018-10-21T03:00:08Z</time>
            </trkpt>
            <trkpt lon="101.227052" lat="14.305282">
                <ele>34.600000</ele>
                <time>2018-10-21T03:00:09Z</time>
            </trkpt>
            <trkpt lon="101.227024" lat="14.305280">
                <ele>34.300000</ele>
                <time>2018-10-21T03:00:10Z</time>
            </trkpt>
            <trkpt lon="101.226996" lat="14.305272">
                <ele>34.100000</ele>
                <time>2018-10-21T03:00:11Z</time>
            </trkpt>
            <trkpt lon="101.226964" lat="14.305253">
                <ele>34.300000</ele>
                <time>2018-10-21T03:00:12Z</time>
            </trkpt>
            <trkpt lon="101.226934" lat="14.305233">
                <ele>34.100000</ele>
                <time>2018-10-21T03:00:13Z</time>
            </trkpt>
            <trkpt lon="101.226905" lat="14.305209">
                <ele>34.100000</ele>
                <time>2018-10-21T03:00:14Z</time>
            </trkpt>
            <trkpt lon="101.226882" lat="14.305186">
                <ele>34.100000</ele>
                <time>2018-10-21T03:00:15Z</time>
            </trkpt>
            <trkpt lon="101.226852" lat="14.305154">
                <ele>33.900000</ele>
                <time>2018-10-21T03:00:16Z</time>
            </trkpt>
            <trkpt lon="101.226823" lat="14.305119">
                <ele>33.600000</ele>
                <time>2018-10-21T03:00:17Z</time>
            </trkpt>
            <trkpt lon="101.226782" lat="14.305092">
                <ele>33.200000</ele>
                <time>2018-10-21T03:00:18Z</time>
            </trkpt>
            <trkpt lon="101.226731" lat="14.305069">
                <ele>33.100000</ele>
                <time>2018-10-21T03:00:19Z</time>
            </trkpt>
            <trkpt lon="101.226680" lat="14.305045">
                <ele>33.000000</ele>
                <time>2018-10-21T03:00:20Z</time>
            </trkpt>
            <trkpt lon="101.226632" lat="14.305020">
                <ele>33.000000</ele>
                <time>2018-10-21T03:00:21Z</time>
            </trkpt>
            <trkpt lon="101.226585" lat="14.304995">
                <ele>32.700000</ele>
                <time>2018-10-21T03:00:22Z</time>
            </trkpt>
            <trkpt lon="101.226534" lat="14.304972">
                <ele>32.400000</ele>
                <time>2018-10-21T03:00:23Z</time>
            </trkpt>
            <trkpt lon="101.226488" lat="14.304943">
                <ele>32.400000</ele>
                <time>2018-10-21T03:00:24Z</time>
            </trkpt>
            <trkpt lon="101.226444" lat="14.304914">
                <ele>32.200000</ele>
                <time>2018-10-21T03:00:25Z</time>
            </trkpt>
            <trkpt lon="101.226399" lat="14.304881">
                <ele>31.800000</ele>
                <time>2018-10-21T03:00:26Z</time>
            </trkpt>
            <trkpt lon="101.226354" lat="14.304852">
                <ele>31.800000</ele>
                <time>2018-10-21T03:00:27Z</time>
            </trkpt>
            <trkpt lon="101.226312" lat="14.304823">
                <ele>31.300000</ele>
                <time>2018-10-21T03:00:28Z</time>
            </trkpt>
            <trkpt lon="101.226274" lat="14.304789">
                <ele>30.800000</ele>
                <time>2018-10-21T03:00:29Z</time>
            </trkpt>
            <trkpt lon="101.226238" lat="14.304751">
                <ele>30.300000</ele>
                <time>2018-10-21T03:00:30Z</time>
            </trkpt>
            <trkpt lon="101.226205" lat="14.304708">
                <ele>29.900000</ele>
                <time>2018-10-21T03:00:31Z</time>
            </trkpt>
            <trkpt lon="101.226172" lat="14.304672">
                <ele>29.700000</ele>
                <time>2018-10-21T03:00:32Z</time>
            </trkpt>
            <trkpt lon="101.226143" lat="14.304648">
                <ele>29.700000</ele>
                <time>2018-10-21T03:00:33Z</time>
            </trkpt>
            <trkpt lon="101.226101" lat="14.304621">
                <ele>29.400000</ele>
                <time>2018-10-21T03:00:35Z</time>
            </trkpt>
            <trkpt lon="101.226062" lat="14.304603">
                <ele>29.400000</ele>
                <time>2018-10-21T03:00:37Z</time>
            </trkpt>
            <trkpt lon="101.226028" lat="14.304597">
                <ele>29.200000</ele>
                <time>2018-10-21T03:00:39Z</time>
            </trkpt>
            <trkpt lon="101.226023" lat="14.304570">
                <ele>29.200000</ele>
                <time>2018-10-21T03:01:01Z</time>
            </trkpt>
            <trkpt lon="101.226053" lat="14.304541">
                <ele>29.100000</ele>
                <time>2018-10-21T03:01:03Z</time>
            </trkpt>
            <trkpt lon="101.226084" lat="14.304497">
                <ele>29.100000</ele>
                <time>2018-10-21T03:01:05Z</time>
            </trkpt>
            <trkpt lon="101.226104" lat="14.304475">
                <ele>29.100000</ele>
                <time>2018-10-21T03:01:06Z</time>
            </trkpt>
            <trkpt lon="101.226126" lat="14.304452">
                <ele>29.100000</ele>
                <time>2018-10-21T03:01:07Z</time>
            </trkpt>
            <trkpt lon="101.226148" lat="14.304424">
                <ele>29.100000</ele>
                <time>2018-10-21T03:01:08Z</time>
            </trkpt>
            <trkpt lon="101.226177" lat="14.304390">
                <ele>29.100000</ele>
                <time>2018-10-21T03:01:09Z</time>
            </trkpt>
            <trkpt lon="101.226202" lat="14.304351">
                <ele>29.100000</ele>
                <time>2018-10-21T03:01:10Z</time>
            </trkpt>
            <trkpt lon="101.226225" lat="14.304313">
                <ele>29.000000</ele>
                <time>2018-10-21T03:01:11Z</time>
            </trkpt>
            <trkpt lon="101.226251" lat="14.304275">
                <ele>29.000000</ele>
                <time>2018-10-21T03:01:12Z</time>
            </trkpt>
            <trkpt lon="101.226277" lat="14.304235">
                <ele>29.000000</ele>
                <time>2018-10-21T03:01:13Z</time>
            </trkpt>
            <trkpt lon="101.226298" lat="14.304196">
                <ele>29.000000</ele>
                <time>2018-10-21T03:01:14Z</time>
            </trkpt>
            <trkpt lon="101.226316" lat="14.304154">
                <ele>29.000000</ele>
                <time>2018-10-21T03:01:15Z</time>
            </trkpt>
            <trkpt lon="101.226335" lat="14.304112">
                <ele>29.000000</ele>
                <time>2018-10-21T03:01:16Z</time>
            </trkpt>
            <trkpt lon="101.226355" lat="14.304071">
                <ele>28.900000</ele>
                <time>2018-10-21T03:01:17Z</time>
            </trkpt>
            <trkpt lon="101.226381" lat="14.304030">
                <ele>28.900000</ele>
                <time>2018-10-21T03:01:18Z</time>
            </trkpt>
            <trkpt lon="101.226410" lat="14.303985">
                <ele>28.800000</ele>
                <time>2018-10-21T03:01:19Z</time>
            </trkpt>
            <trkpt lon="101.226438" lat="14.303940">
                <ele>28.800000</ele>
                <time>2018-10-21T03:01:20Z</time>
            </trkpt>
            <trkpt lon="101.226464" lat="14.303896">
                <ele>28.800000</ele>
                <time>2018-10-21T03:01:21Z</time>
            </trkpt>
            <trkpt lon="101.226491" lat="14.303852">
                <ele>28.700000</ele>
                <time>2018-10-21T03:01:22Z</time>
            </trkpt>
            <trkpt lon="101.226515" lat="14.303807">
                <ele>28.700000</ele>
                <time>2018-10-21T03:01:23Z</time>
            </trkpt>
            <trkpt lon="101.226539" lat="14.303759">
                <ele>28.600000</ele>
                <time>2018-10-21T03:01:24Z</time>
            </trkpt>
            <trkpt lon="101.226560" lat="14.303717">
                <ele>28.500000</ele>
                <time>2018-10-21T03:01:25Z</time>
            </trkpt>
            <trkpt lon="101.226585" lat="14.303674">
                <ele>28.500000</ele>
                <time>2018-10-21T03:01:26Z</time>
            </trkpt>
            <trkpt lon="101.226620" lat="14.303628">
                <ele>28.400000</ele>
                <time>2018-10-21T03:01:27Z</time>
            </trkpt>
            <trkpt lon="101.226651" lat="14.303581">
                <ele>28.400000</ele>
                <time>2018-10-21T03:01:28Z</time>
            </trkpt>
            <trkpt lon="101.226681" lat="14.303535">
                <ele>28.300000</ele>
                <time>2018-10-21T03:01:29Z</time>
            </trkpt>
            <trkpt lon="101.226708" lat="14.303483">
                <ele>28.200000</ele>
                <time>2018-10-21T03:01:30Z</time>
            </trkpt>
            <trkpt lon="101.226735" lat="14.303428">
                <ele>28.200000</ele>
                <time>2018-10-21T03:01:31Z</time>
            </trkpt>
            <trkpt lon="101.226767" lat="14.303381">
                <ele>28.100000</ele>
                <time>2018-10-21T03:01:32Z</time>
            </trkpt>
            <trkpt lon="101.226797" lat="14.303330">
                <ele>28.000000</ele>
                <time>2018-10-21T03:01:33Z</time>
            </trkpt>
            <trkpt lon="101.226826" lat="14.303279">
                <ele>28.000000</ele>
                <time>2018-10-21T03:01:34Z</time>
            </trkpt>
            <trkpt lon="101.226857" lat="14.303232">
                <ele>27.900000</ele>
                <time>2018-10-21T03:01:35Z</time>
            </trkpt>
            <trkpt lon="101.226892" lat="14.303187">
                <ele>27.900000</ele>
                <time>2018-10-21T03:01:36Z</time>
            </trkpt>
            <trkpt lon="101.226927" lat="14.303140">
                <ele>27.900000</ele>
                <time>2018-10-21T03:01:37Z</time>
            </trkpt>
            <trkpt lon="101.226962" lat="14.303094">
                <ele>27.800000</ele>
                <time>2018-10-21T03:01:38Z</time>
            </trkpt>
            <trkpt lon="101.226996" lat="14.303050">
                <ele>27.800000</ele>
                <time>2018-10-21T03:01:39Z</time>
            </trkpt>
            <trkpt lon="101.227033" lat="14.303007">
                <ele>27.800000</ele>
                <time>2018-10-21T03:01:40Z</time>
            </trkpt>
            <trkpt lon="101.227068" lat="14.302968">
                <ele>27.800000</ele>
                <time>2018-10-21T03:01:41Z</time>
            </trkpt>
            <trkpt lon="101.227101" lat="14.302924">
                <ele>27.900000</ele>
                <time>2018-10-21T03:01:42Z</time>
            </trkpt>
            <trkpt lon="101.227132" lat="14.302880">
                <ele>27.900000</ele>
                <time>2018-10-21T03:01:43Z</time>
            </trkpt>
            <trkpt lon="101.227167" lat="14.302836">
                <ele>27.900000</ele>
                <time>2018-10-21T03:01:44Z</time>
            </trkpt>
            <trkpt lon="101.227201" lat="14.302792">
                <ele>28.000000</ele>
                <time>2018-10-21T03:01:45Z</time>
            </trkpt>
            <trkpt lon="101.227236" lat="14.302747">
                <ele>28.000000</ele>
                <time>2018-10-21T03:01:46Z</time>
            </trkpt>
            <trkpt lon="101.227272" lat="14.302704">
                <ele>28.100000</ele>
                <time>2018-10-21T03:01:47Z</time>
            </trkpt>
            <trkpt lon="101.227310" lat="14.302663">
                <ele>28.200000</ele>
                <time>2018-10-21T03:01:48Z</time>
            </trkpt>
            <trkpt lon="101.227348" lat="14.302623">
                <ele>28.200000</ele>
                <time>2018-10-21T03:01:49Z</time>
            </trkpt>
            <trkpt lon="101.227383" lat="14.302583">
                <ele>28.300000</ele>
                <time>2018-10-21T03:01:50Z</time>
            </trkpt>
            <trkpt lon="101.227414" lat="14.302542">
                <ele>28.400000</ele>
                <time>2018-10-21T03:01:51Z</time>
            </trkpt>
            <trkpt lon="101.227444" lat="14.302503">
                <ele>28.400000</ele>
                <time>2018-10-21T03:01:52Z</time>
            </trkpt>
            <trkpt lon="101.227478" lat="14.302465">
                <ele>28.500000</ele>
                <time>2018-10-21T03:01:53Z</time>
            </trkpt>
            <trkpt lon="101.227503" lat="14.302431">
                <ele>28.600000</ele>
                <time>2018-10-21T03:01:54Z</time>
            </trkpt>
            <trkpt lon="101.227529" lat="14.302399">
                <ele>28.600000</ele>
                <time>2018-10-21T03:01:55Z</time>
            </trkpt>
            <trkpt lon="101.227557" lat="14.302372">
                <ele>28.700000</ele>
                <time>2018-10-21T03:01:56Z</time>
            </trkpt>
            <trkpt lon="101.227580" lat="14.302344">
                <ele>28.800000</ele>
                <time>2018-10-21T03:01:57Z</time>
            </trkpt>
            <trkpt lon="101.227603" lat="14.302317">
                <ele>28.900000</ele>
                <time>2018-10-21T03:01:58Z</time>
            </trkpt>
            <trkpt lon="101.227627" lat="14.302289">
                <ele>29.000000</ele>
                <time>2018-10-21T03:01:59Z</time>
            </trkpt>
            <trkpt lon="101.227647" lat="14.302264">
                <ele>29.000000</ele>
                <time>2018-10-21T03:02:00Z</time>
            </trkpt>
            <trkpt lon="101.227657" lat="14.302237">
                <ele>29.100000</ele>
                <time>2018-10-21T03:02:01Z</time>
            </trkpt>
            <trkpt lon="101.227651" lat="14.302203">
                <ele>28.800000</ele>
                <time>2018-10-21T03:02:02Z</time>
            </trkpt>
            <trkpt lon="101.227630" lat="14.302172">
                <ele>28.600000</ele>
                <time>2018-10-21T03:02:03Z</time>
            </trkpt>
            <trkpt lon="101.227596" lat="14.302147">
                <ele>28.400000</ele>
                <time>2018-10-21T03:02:04Z</time>
            </trkpt>
            <trkpt lon="101.227554" lat="14.302132">
                <ele>28.100000</ele>
                <time>2018-10-21T03:02:05Z</time>
            </trkpt>
            <trkpt lon="101.227513" lat="14.302115">
                <ele>27.900000</ele>
                <time>2018-10-21T03:02:06Z</time>
            </trkpt>
            <trkpt lon="101.227468" lat="14.302099">
                <ele>27.600000</ele>
                <time>2018-10-21T03:02:07Z</time>
            </trkpt>
            <trkpt lon="101.227419" lat="14.302085">
                <ele>27.400000</ele>
                <time>2018-10-21T03:02:08Z</time>
            </trkpt>
            <trkpt lon="101.227370" lat="14.302070">
                <ele>27.100000</ele>
                <time>2018-10-21T03:02:09Z</time>
            </trkpt>
            <trkpt lon="101.227320" lat="14.302056">
                <ele>26.900000</ele>
                <time>2018-10-21T03:02:10Z</time>
            </trkpt>
            <trkpt lon="101.227270" lat="14.302040">
                <ele>26.600000</ele>
                <time>2018-10-21T03:02:11Z</time>
            </trkpt>
            <trkpt lon="101.227218" lat="14.302025">
                <ele>26.400000</ele>
                <time>2018-10-21T03:02:12Z</time>
            </trkpt>
            <trkpt lon="101.227164" lat="14.302008">
                <ele>26.100000</ele>
                <time>2018-10-21T03:02:13Z</time>
            </trkpt>
            <trkpt lon="101.227114" lat="14.301988">
                <ele>25.800000</ele>
                <time>2018-10-21T03:02:14Z</time>
            </trkpt>
            <trkpt lon="101.227064" lat="14.301976">
                <ele>25.600000</ele>
                <time>2018-10-21T03:02:15Z</time>
            </trkpt>
            <trkpt lon="101.227017" lat="14.301960">
                <ele>25.300000</ele>
                <time>2018-10-21T03:02:16Z</time>
            </trkpt>
            <trkpt lon="101.226965" lat="14.301945">
                <ele>25.100000</ele>
                <time>2018-10-21T03:02:17Z</time>
            </trkpt>
            <trkpt lon="101.226911" lat="14.301931">
                <ele>24.800000</ele>
                <time>2018-10-21T03:02:18Z</time>
            </trkpt>
            <trkpt lon="101.226854" lat="14.301916">
                <ele>24.400000</ele>
                <time>2018-10-21T03:02:19Z</time>
            </trkpt>
            <trkpt lon="101.226800" lat="14.301902">
                <ele>24.100000</ele>
                <time>2018-10-21T03:02:20Z</time>
            </trkpt>
            <trkpt lon="101.226747" lat="14.301885">
                <ele>23.800000</ele>
                <time>2018-10-21T03:02:21Z</time>
            </trkpt>
            <trkpt lon="101.226692" lat="14.301867">
                <ele>23.500000</ele>
                <time>2018-10-21T03:02:22Z</time>
            </trkpt>
            <trkpt lon="101.226637" lat="14.301849">
                <ele>23.200000</ele>
                <time>2018-10-21T03:02:23Z</time>
            </trkpt>
            <trkpt lon="101.226582" lat="14.301826">
                <ele>22.900000</ele>
                <time>2018-10-21T03:02:24Z</time>
            </trkpt>
            <trkpt lon="101.226528" lat="14.301805">
                <ele>22.400000</ele>
                <time>2018-10-21T03:02:25Z</time>
            </trkpt>
            <trkpt lon="101.226470" lat="14.301787">
                <ele>22.000000</ele>
                <time>2018-10-21T03:02:26Z</time>
            </trkpt>
            <trkpt lon="101.226407" lat="14.301776">
                <ele>21.700000</ele>
                <time>2018-10-21T03:02:27Z</time>
            </trkpt>
            <trkpt lon="101.226346" lat="14.301759">
                <ele>21.200000</ele>
                <time>2018-10-21T03:02:28Z</time>
            </trkpt>
            <trkpt lon="101.226288" lat="14.301735">
                <ele>20.700000</ele>
                <time>2018-10-21T03:02:29Z</time>
            </trkpt>
            <trkpt lon="101.226225" lat="14.301712">
                <ele>20.300000</ele>
                <time>2018-10-21T03:02:30Z</time>
            </trkpt>
            <trkpt lon="101.226169" lat="14.301694">
                <ele>19.900000</ele>
                <time>2018-10-21T03:02:31Z</time>
            </trkpt>
            <trkpt lon="101.226109" lat="14.301681">
                <ele>19.500000</ele>
                <time>2018-10-21T03:02:32Z</time>
            </trkpt>
            <trkpt lon="101.226051" lat="14.301668">
                <ele>19.100000</ele>
                <time>2018-10-21T03:02:33Z</time>
            </trkpt>
            <trkpt lon="101.225994" lat="14.301651">
                <ele>18.600000</ele>
                <time>2018-10-21T03:02:34Z</time>
            </trkpt>
            <trkpt lon="101.225933" lat="14.301627">
                <ele>18.100000</ele>
                <time>2018-10-21T03:02:35Z</time>
            </trkpt>
            <trkpt lon="101.225874" lat="14.301603">
                <ele>17.700000</ele>
                <time>2018-10-21T03:02:36Z</time>
            </trkpt>
            <trkpt lon="101.225810" lat="14.301582">
                <ele>17.300000</ele>
                <time>2018-10-21T03:02:37Z</time>
            </trkpt>
            <trkpt lon="101.225749" lat="14.301556">
                <ele>17.000000</ele>
                <time>2018-10-21T03:02:38Z</time>
            </trkpt>
            <trkpt lon="101.225695" lat="14.301533">
                <ele>16.700000</ele>
                <time>2018-10-21T03:02:39Z</time>
            </trkpt>
            <trkpt lon="101.225638" lat="14.301511">
                <ele>16.500000</ele>
                <time>2018-10-21T03:02:40Z</time>
            </trkpt>
            <trkpt lon="101.225574" lat="14.301487">
                <ele>16.300000</ele>
                <time>2018-10-21T03:02:41Z</time>
            </trkpt>
            <trkpt lon="101.225511" lat="14.301460">
                <ele>16.200000</ele>
                <time>2018-10-21T03:02:42Z</time>
            </trkpt>
            <trkpt lon="101.225460" lat="14.301442">
                <ele>16.200000</ele>
                <time>2018-10-21T03:02:43Z</time>
            </trkpt>
            <trkpt lon="101.225420" lat="14.301447">
                <ele>16.300000</ele>
                <time>2018-10-21T03:02:44Z</time>
            </trkpt>
            <trkpt lon="101.225380" lat="14.301476">
                <ele>16.300000</ele>
                <time>2018-10-21T03:02:45Z</time>
            </trkpt>
            <trkpt lon="101.225356" lat="14.301520">
                <ele>16.300000</ele>
                <time>2018-10-21T03:02:46Z</time>
            </trkpt>
            <trkpt lon="101.225337" lat="14.301564">
                <ele>16.200000</ele>
                <time>2018-10-21T03:02:47Z</time>
            </trkpt>
            <trkpt lon="101.225312" lat="14.301607">
                <ele>15.900000</ele>
                <time>2018-10-21T03:02:48Z</time>
            </trkpt>
            <trkpt lon="101.225284" lat="14.301651">
                <ele>15.900000</ele>
                <time>2018-10-21T03:02:49Z</time>
            </trkpt>
            <trkpt lon="101.225256" lat="14.301693">
                <ele>15.300000</ele>
                <time>2018-10-21T03:02:50Z</time>
            </trkpt>
            <trkpt lon="101.225225" lat="14.301736">
                <ele>14.800000</ele>
                <time>2018-10-21T03:02:51Z</time>
            </trkpt>
            <trkpt lon="101.225200" lat="14.301779">
                <ele>14.900000</ele>
                <time>2018-10-21T03:02:52Z</time>
            </trkpt>
            <trkpt lon="101.225173" lat="14.301824">
                <ele>14.700000</ele>
                <time>2018-10-21T03:02:53Z</time>
            </trkpt>
            <trkpt lon="101.225148" lat="14.301868">
                <ele>14.800000</ele>
                <time>2018-10-21T03:02:54Z</time>
            </trkpt>
            <trkpt lon="101.225130" lat="14.301914">
                <ele>14.800000</ele>
                <time>2018-10-21T03:02:55Z</time>
            </trkpt>
            <trkpt lon="101.225104" lat="14.301958">
                <ele>14.900000</ele>
                <time>2018-10-21T03:02:56Z</time>
            </trkpt>
            <trkpt lon="101.225080" lat="14.302002">
                <ele>15.000000</ele>
                <time>2018-10-21T03:02:57Z</time>
            </trkpt>
            <trkpt lon="101.225053" lat="14.302044">
                <ele>15.000000</ele>
                <time>2018-10-21T03:02:58Z</time>
            </trkpt>
            <trkpt lon="101.225032" lat="14.302088">
                <ele>15.200000</ele>
                <time>2018-10-21T03:02:59Z</time>
            </trkpt>
            <trkpt lon="101.225009" lat="14.302128">
                <ele>15.700000</ele>
                <time>2018-10-21T03:03:00Z</time>
            </trkpt>
            <trkpt lon="101.224979" lat="14.302163">
                <ele>16.400000</ele>
                <time>2018-10-21T03:03:01Z</time>
            </trkpt>
            <trkpt lon="101.224962" lat="14.302198">
                <ele>16.900000</ele>
                <time>2018-10-21T03:03:02Z</time>
            </trkpt>
            <trkpt lon="101.224935" lat="14.302233">
                <ele>17.600000</ele>
                <time>2018-10-21T03:03:03Z</time>
            </trkpt>
            <trkpt lon="101.224906" lat="14.302269">
                <ele>17.600000</ele>
                <time>2018-10-21T03:03:04Z</time>
            </trkpt>
            <trkpt lon="101.224885" lat="14.302306">
                <ele>18.200000</ele>
                <time>2018-10-21T03:03:05Z</time>
            </trkpt>
            <trkpt lon="101.224862" lat="14.302344">
                <ele>18.200000</ele>
                <time>2018-10-21T03:03:06Z</time>
            </trkpt>
            <trkpt lon="101.224841" lat="14.302384">
                <ele>18.900000</ele>
                <time>2018-10-21T03:03:07Z</time>
            </trkpt>
            <trkpt lon="101.224821" lat="14.302422">
                <ele>19.000000</ele>
                <time>2018-10-21T03:03:08Z</time>
            </trkpt>
            <trkpt lon="101.224796" lat="14.302461">
                <ele>19.700000</ele>
                <time>2018-10-21T03:03:09Z</time>
            </trkpt>
            <trkpt lon="101.224771" lat="14.302499">
                <ele>19.600000</ele>
                <time>2018-10-21T03:03:10Z</time>
            </trkpt>
            <trkpt lon="101.224748" lat="14.302539">
                <ele>20.100000</ele>
                <time>2018-10-21T03:03:11Z</time>
            </trkpt>
            <trkpt lon="101.224725" lat="14.302577">
                <ele>20.100000</ele>
                <time>2018-10-21T03:03:12Z</time>
            </trkpt>
            <trkpt lon="101.224702" lat="14.302616">
                <ele>20.600000</ele>
                <time>2018-10-21T03:03:13Z</time>
            </trkpt>
            <trkpt lon="101.224682" lat="14.302652">
                <ele>20.700000</ele>
                <time>2018-10-21T03:03:14Z</time>
            </trkpt>
            <trkpt lon="101.224666" lat="14.302688">
                <ele>20.800000</ele>
                <time>2018-10-21T03:03:15Z</time>
            </trkpt>
            <trkpt lon="101.224647" lat="14.302725">
                <ele>20.900000</ele>
                <time>2018-10-21T03:03:16Z</time>
            </trkpt>
            <trkpt lon="101.224625" lat="14.302763">
                <ele>20.500000</ele>
                <time>2018-10-21T03:03:17Z</time>
            </trkpt>
            <trkpt lon="101.224604" lat="14.302799">
                <ele>20.300000</ele>
                <time>2018-10-21T03:03:18Z</time>
            </trkpt>
            <trkpt lon="101.224584" lat="14.302837">
                <ele>20.100000</ele>
                <time>2018-10-21T03:03:19Z</time>
            </trkpt>
            <trkpt lon="101.224560" lat="14.302877">
                <ele>19.900000</ele>
                <time>2018-10-21T03:03:20Z</time>
            </trkpt>
            <trkpt lon="101.224533" lat="14.302915">
                <ele>20.100000</ele>
                <time>2018-10-21T03:03:21Z</time>
            </trkpt>
            <trkpt lon="101.224508" lat="14.302956">
                <ele>20.400000</ele>
                <time>2018-10-21T03:03:22Z</time>
            </trkpt>
            <trkpt lon="101.224480" lat="14.302995">
                <ele>20.400000</ele>
                <time>2018-10-21T03:03:23Z</time>
            </trkpt>
            <trkpt lon="101.224450" lat="14.303038">
                <ele>20.700000</ele>
                <time>2018-10-21T03:03:24Z</time>
            </trkpt>
            <trkpt lon="101.224424" lat="14.303078">
                <ele>20.800000</ele>
                <time>2018-10-21T03:03:25Z</time>
            </trkpt>
            <trkpt lon="101.224399" lat="14.303117">
                <ele>20.800000</ele>
                <time>2018-10-21T03:03:26Z</time>
            </trkpt>
            <trkpt lon="101.224379" lat="14.303158">
                <ele>20.900000</ele>
                <time>2018-10-21T03:03:27Z</time>
            </trkpt>
            <trkpt lon="101.224357" lat="14.303197">
                <ele>20.700000</ele>
                <time>2018-10-21T03:03:28Z</time>
            </trkpt>
            <trkpt lon="101.224336" lat="14.303233">
                <ele>20.700000</ele>
                <time>2018-10-21T03:03:29Z</time>
            </trkpt>
            <trkpt lon="101.224313" lat="14.303269">
                <ele>20.500000</ele>
                <time>2018-10-21T03:03:30Z</time>
            </trkpt>
            <trkpt lon="101.224292" lat="14.303305">
                <ele>20.800000</ele>
                <time>2018-10-21T03:03:31Z</time>
            </trkpt>
            <trkpt lon="101.224269" lat="14.303341">
                <ele>20.600000</ele>
                <time>2018-10-21T03:03:32Z</time>
            </trkpt>
            <trkpt lon="101.224248" lat="14.303376">
                <ele>20.700000</ele>
                <time>2018-10-21T03:03:33Z</time>
            </trkpt>
            <trkpt lon="101.224232" lat="14.303413">
                <ele>20.500000</ele>
                <time>2018-10-21T03:03:34Z</time>
            </trkpt>
            <trkpt lon="101.224215" lat="14.303447">
                <ele>20.200000</ele>
                <time>2018-10-21T03:03:35Z</time>
            </trkpt>
            <trkpt lon="101.224198" lat="14.303478">
                <ele>19.900000</ele>
                <time>2018-10-21T03:03:36Z</time>
            </trkpt>
            <trkpt lon="101.224182" lat="14.303510">
                <ele>19.900000</ele>
                <time>2018-10-21T03:03:37Z</time>
            </trkpt>
            <trkpt lon="101.224167" lat="14.303542">
                <ele>19.500000</ele>
                <time>2018-10-21T03:03:38Z</time>
            </trkpt>
            <trkpt lon="101.224154" lat="14.303577">
                <ele>19.200000</ele>
                <time>2018-10-21T03:03:39Z</time>
            </trkpt>
            <trkpt lon="101.224138" lat="14.303610">
                <ele>19.200000</ele>
                <time>2018-10-21T03:03:40Z</time>
            </trkpt>
            <trkpt lon="101.224118" lat="14.303642">
                <ele>19.000000</ele>
                <time>2018-10-21T03:03:41Z</time>
            </trkpt>
            <trkpt lon="101.224096" lat="14.303674">
                <ele>18.900000</ele>
                <time>2018-10-21T03:03:42Z</time>
            </trkpt>
            <trkpt lon="101.224071" lat="14.303705">
                <ele>18.300000</ele>
                <time>2018-10-21T03:03:43Z</time>
            </trkpt>
            <trkpt lon="101.224040" lat="14.303735">
                <ele>18.200000</ele>
                <time>2018-10-21T03:03:44Z</time>
            </trkpt>
            <trkpt lon="101.224008" lat="14.303761">
                <ele>17.700000</ele>
                <time>2018-10-21T03:03:45Z</time>
            </trkpt>
            <trkpt lon="101.223973" lat="14.303783">
                <ele>17.600000</ele>
                <time>2018-10-21T03:03:46Z</time>
            </trkpt>
            <trkpt lon="101.223937" lat="14.303802">
                <ele>17.600000</ele>
                <time>2018-10-21T03:03:47Z</time>
            </trkpt>
            <trkpt lon="101.223906" lat="14.303817">
                <ele>17.700000</ele>
                <time>2018-10-21T03:03:48Z</time>
            </trkpt>
            <trkpt lon="101.223879" lat="14.303832">
                <ele>17.800000</ele>
                <time>2018-10-21T03:03:49Z</time>
            </trkpt>
            <trkpt lon="101.223840" lat="14.303847">
                <ele>17.800000</ele>
                <time>2018-10-21T03:03:51Z</time>
            </trkpt>
            <trkpt lon="101.223808" lat="14.303858">
                <ele>18.000000</ele>
                <time>2018-10-21T03:03:57Z</time>
            </trkpt>
            <trkpt lon="101.223776" lat="14.303865">
                <ele>18.200000</ele>
                <time>2018-10-21T03:04:02Z</time>
            </trkpt>
            <trkpt lon="101.223740" lat="14.303863">
                <ele>18.300000</ele>
                <time>2018-10-21T03:04:05Z</time>
            </trkpt>
            <trkpt lon="101.223696" lat="14.303854">
                <ele>18.600000</ele>
                <time>2018-10-21T03:04:07Z</time>
            </trkpt>
            <trkpt lon="101.223667" lat="14.303849">
                <ele>18.600000</ele>
                <time>2018-10-21T03:04:08Z</time>
            </trkpt>
            <trkpt lon="101.223634" lat="14.303847">
                <ele>18.800000</ele>
                <time>2018-10-21T03:04:09Z</time>
            </trkpt>
            <trkpt lon="101.223601" lat="14.303842">
                <ele>19.100000</ele>
                <time>2018-10-21T03:04:10Z</time>
            </trkpt>
            <trkpt lon="101.223567" lat="14.303836">
                <ele>19.100000</ele>
                <time>2018-10-21T03:04:11Z</time>
            </trkpt>
            <trkpt lon="101.223537" lat="14.303829">
                <ele>19.400000</ele>
                <time>2018-10-21T03:04:12Z</time>
            </trkpt>
            <trkpt lon="101.223510" lat="14.303823">
                <ele>19.700000</ele>
                <time>2018-10-21T03:04:13Z</time>
            </trkpt>
            <trkpt lon="101.223480" lat="14.303817">
                <ele>19.700000</ele>
                <time>2018-10-21T03:04:14Z</time>
            </trkpt>
            <trkpt lon="101.223449" lat="14.303810">
                <ele>20.000000</ele>
                <time>2018-10-21T03:04:15Z</time>
            </trkpt>
            <trkpt lon="101.223418" lat="14.303804">
                <ele>20.500000</ele>
                <time>2018-10-21T03:04:16Z</time>
            </trkpt>
            <trkpt lon="101.223389" lat="14.303799">
                <ele>20.900000</ele>
                <time>2018-10-21T03:04:17Z</time>
            </trkpt>
            <trkpt lon="101.223362" lat="14.303792">
                <ele>20.900000</ele>
                <time>2018-10-21T03:04:18Z</time>
            </trkpt>
            <trkpt lon="101.223308" lat="14.303780">
                <ele>21.200000</ele>
                <time>2018-10-21T03:04:20Z</time>
            </trkpt>
            <trkpt lon="101.223278" lat="14.303772">
                <ele>21.600000</ele>
                <time>2018-10-21T03:04:21Z</time>
            </trkpt>
            <trkpt lon="101.223248" lat="14.303764">
                <ele>22.400000</ele>
                <time>2018-10-21T03:04:22Z</time>
            </trkpt>
            <trkpt lon="101.223218" lat="14.303757">
                <ele>22.900000</ele>
                <time>2018-10-21T03:04:23Z</time>
            </trkpt>
            <trkpt lon="101.223187" lat="14.303752">
                <ele>23.000000</ele>
                <time>2018-10-21T03:04:24Z</time>
            </trkpt>
            <trkpt lon="101.223153" lat="14.303743">
                <ele>23.500000</ele>
                <time>2018-10-21T03:04:25Z</time>
            </trkpt>
            <trkpt lon="101.223119" lat="14.303736">
                <ele>23.800000</ele>
                <time>2018-10-21T03:04:26Z</time>
            </trkpt>
            <trkpt lon="101.223085" lat="14.303727">
                <ele>23.900000</ele>
                <time>2018-10-21T03:04:27Z</time>
            </trkpt>
            <trkpt lon="101.223051" lat="14.303717">
                <ele>24.200000</ele>
                <time>2018-10-21T03:04:28Z</time>
            </trkpt>
            <trkpt lon="101.223015" lat="14.303708">
                <ele>24.300000</ele>
                <time>2018-10-21T03:04:29Z</time>
            </trkpt>
            <trkpt lon="101.222980" lat="14.303701">
                <ele>24.400000</ele>
                <time>2018-10-21T03:04:30Z</time>
            </trkpt>
            <trkpt lon="101.222946" lat="14.303694">
                <ele>24.400000</ele>
                <time>2018-10-21T03:04:31Z</time>
            </trkpt>
            <trkpt lon="101.222912" lat="14.303683">
                <ele>24.600000</ele>
                <time>2018-10-21T03:04:32Z</time>
            </trkpt>
            <trkpt lon="101.222879" lat="14.303673">
                <ele>24.600000</ele>
                <time>2018-10-21T03:04:33Z</time>
            </trkpt>
            <trkpt lon="101.222845" lat="14.303664">
                <ele>24.600000</ele>
                <time>2018-10-21T03:04:34Z</time>
            </trkpt>
            <trkpt lon="101.222809" lat="14.303655">
                <ele>24.500000</ele>
                <time>2018-10-21T03:04:35Z</time>
            </trkpt>
            <trkpt lon="101.222774" lat="14.303647">
                <ele>24.500000</ele>
                <time>2018-10-21T03:04:36Z</time>
            </trkpt>
            <trkpt lon="101.222739" lat="14.303638">
                <ele>24.500000</ele>
                <time>2018-10-21T03:04:37Z</time>
            </trkpt>
            <trkpt lon="101.222706" lat="14.303629">
                <ele>24.400000</ele>
                <time>2018-10-21T03:04:38Z</time>
            </trkpt>
            <trkpt lon="101.222673" lat="14.303621">
                <ele>24.400000</ele>
                <time>2018-10-21T03:04:39Z</time>
            </trkpt>
            <trkpt lon="101.222638" lat="14.303611">
                <ele>24.300000</ele>
                <time>2018-10-21T03:04:40Z</time>
            </trkpt>
            <trkpt lon="101.222605" lat="14.303603">
                <ele>24.200000</ele>
                <time>2018-10-21T03:04:41Z</time>
            </trkpt>
            <trkpt lon="101.222572" lat="14.303595">
                <ele>24.100000</ele>
                <time>2018-10-21T03:04:42Z</time>
            </trkpt>
            <trkpt lon="101.222539" lat="14.303589">
                <ele>24.000000</ele>
                <time>2018-10-21T03:04:43Z</time>
            </trkpt>
            <trkpt lon="101.222506" lat="14.303579">
                <ele>23.900000</ele>
                <time>2018-10-21T03:04:44Z</time>
            </trkpt>
            <trkpt lon="101.222473" lat="14.303568">
                <ele>23.800000</ele>
                <time>2018-10-21T03:04:45Z</time>
            </trkpt>
            <trkpt lon="101.222438" lat="14.303562">
                <ele>23.800000</ele>
                <time>2018-10-21T03:04:46Z</time>
            </trkpt>
            <trkpt lon="101.222404" lat="14.303556">
                <ele>23.800000</ele>
                <time>2018-10-21T03:04:47Z</time>
            </trkpt>
            <trkpt lon="101.222370" lat="14.303547">
                <ele>23.700000</ele>
                <time>2018-10-21T03:04:48Z</time>
            </trkpt>
            <trkpt lon="101.222335" lat="14.303538">
                <ele>23.600000</ele>
                <time>2018-10-21T03:04:49Z</time>
            </trkpt>
            <trkpt lon="101.222302" lat="14.303530">
                <ele>23.500000</ele>
                <time>2018-10-21T03:04:50Z</time>
            </trkpt>
            <trkpt lon="101.222266" lat="14.303524">
                <ele>23.400000</ele>
                <time>2018-10-21T03:04:51Z</time>
            </trkpt>
            <trkpt lon="101.222233" lat="14.303515">
                <ele>23.300000</ele>
                <time>2018-10-21T03:04:52Z</time>
            </trkpt>
            <trkpt lon="101.222202" lat="14.303506">
                <ele>23.400000</ele>
                <time>2018-10-21T03:04:53Z</time>
            </trkpt>
            <trkpt lon="101.222169" lat="14.303501">
                <ele>23.400000</ele>
                <time>2018-10-21T03:04:54Z</time>
            </trkpt>
            <trkpt lon="101.222138" lat="14.303500">
                <ele>23.400000</ele>
                <time>2018-10-21T03:04:55Z</time>
            </trkpt>
            <trkpt lon="101.222082" lat="14.303497">
                <ele>23.800000</ele>
                <time>2018-10-21T03:04:57Z</time>
            </trkpt>
            <trkpt lon="101.222054" lat="14.303489">
                <ele>23.900000</ele>
                <time>2018-10-21T03:04:58Z</time>
            </trkpt>
            <trkpt lon="101.222015" lat="14.303472">
                <ele>24.000000</ele>
                <time>2018-10-21T03:05:00Z</time>
            </trkpt>
            <trkpt lon="101.221965" lat="14.303444">
                <ele>24.100000</ele>
                <time>2018-10-21T03:05:02Z</time>
            </trkpt>
            <trkpt lon="101.221933" lat="14.303424">
                <ele>24.000000</ele>
                <time>2018-10-21T03:05:03Z</time>
            </trkpt>
            <trkpt lon="101.221899" lat="14.303409">
                <ele>24.000000</ele>
                <time>2018-10-21T03:05:04Z</time>
            </trkpt>
            <trkpt lon="101.221863" lat="14.303391">
                <ele>24.000000</ele>
                <time>2018-10-21T03:05:05Z</time>
            </trkpt>
            <trkpt lon="101.221831" lat="14.303373">
                <ele>24.000000</ele>
                <time>2018-10-21T03:05:06Z</time>
            </trkpt>
            <trkpt lon="101.221792" lat="14.303358">
                <ele>24.000000</ele>
                <time>2018-10-21T03:05:07Z</time>
            </trkpt>
            <trkpt lon="101.221760" lat="14.303348">
                <ele>24.000000</ele>
                <time>2018-10-21T03:05:08Z</time>
            </trkpt>
            <trkpt lon="101.221724" lat="14.303345">
                <ele>24.000000</ele>
                <time>2018-10-21T03:05:09Z</time>
            </trkpt>
            <trkpt lon="101.221686" lat="14.303359">
                <ele>24.000000</ele>
                <time>2018-10-21T03:05:10Z</time>
            </trkpt>
            <trkpt lon="101.221650" lat="14.303375">
                <ele>24.000000</ele>
                <time>2018-10-21T03:05:11Z</time>
            </trkpt>
            <trkpt lon="101.221618" lat="14.303397">
                <ele>24.000000</ele>
                <time>2018-10-21T03:05:12Z</time>
            </trkpt>
            <trkpt lon="101.221589" lat="14.303421">
                <ele>24.000000</ele>
                <time>2018-10-21T03:05:13Z</time>
            </trkpt>
            <trkpt lon="101.221569" lat="14.303451">
                <ele>24.000000</ele>
                <time>2018-10-21T03:05:14Z</time>
            </trkpt>
            <trkpt lon="101.221554" lat="14.303481">
                <ele>24.100000</ele>
                <time>2018-10-21T03:05:15Z</time>
            </trkpt>
            <trkpt lon="101.221540" lat="14.303514">
                <ele>24.200000</ele>
                <time>2018-10-21T03:05:16Z</time>
            </trkpt>
            <trkpt lon="101.221530" lat="14.303549">
                <ele>24.300000</ele>
                <time>2018-10-21T03:05:17Z</time>
            </trkpt>
            <trkpt lon="101.221511" lat="14.303583">
                <ele>24.400000</ele>
                <time>2018-10-21T03:05:18Z</time>
            </trkpt>
            <trkpt lon="101.221497" lat="14.303622">
                <ele>24.400000</ele>
                <time>2018-10-21T03:05:19Z</time>
            </trkpt>
            <trkpt lon="101.221489" lat="14.303664">
                <ele>24.400000</ele>
                <time>2018-10-21T03:05:20Z</time>
            </trkpt>
            <trkpt lon="101.221478" lat="14.303704">
                <ele>24.600000</ele>
                <time>2018-10-21T03:05:21Z</time>
            </trkpt>
            <trkpt lon="101.221469" lat="14.303742">
                <ele>24.800000</ele>
                <time>2018-10-21T03:05:22Z</time>
            </trkpt>
            <trkpt lon="101.221458" lat="14.303778">
                <ele>24.900000</ele>
                <time>2018-10-21T03:05:23Z</time>
            </trkpt>
            <trkpt lon="101.221444" lat="14.303810">
                <ele>25.200000</ele>
                <time>2018-10-21T03:05:24Z</time>
            </trkpt>
            <trkpt lon="101.221435" lat="14.303839">
                <ele>25.500000</ele>
                <time>2018-10-21T03:05:25Z</time>
            </trkpt>
            <trkpt lon="101.221431" lat="14.303865">
                <ele>25.700000</ele>
                <time>2018-10-21T03:05:26Z</time>
            </trkpt>
            <trkpt lon="101.221427" lat="14.303893">
                <ele>25.600000</ele>
                <time>2018-10-21T03:05:27Z</time>
            </trkpt>
            <trkpt lon="101.221423" lat="14.303940">
                <ele>25.500000</ele>
                <time>2018-10-21T03:05:29Z</time>
            </trkpt>
            <trkpt lon="101.221421" lat="14.303974">
                <ele>25.400000</ele>
                <time>2018-10-21T03:05:31Z</time>
            </trkpt>
            <trkpt lon="101.221405" lat="14.303997">
                <ele>25.300000</ele>
                <time>2018-10-21T03:05:40Z</time>
            </trkpt>
            <trkpt lon="101.221403" lat="14.304032">
                <ele>25.300000</ele>
                <time>2018-10-21T03:05:49Z</time>
            </trkpt>
            <trkpt lon="101.221403" lat="14.304065">
                <ele>25.200000</ele>
                <time>2018-10-21T03:06:34Z</time>
            </trkpt>
            <trkpt lon="101.221393" lat="14.304092">
                <ele>25.200000</ele>
                <time>2018-10-21T03:06:37Z</time>
            </trkpt>
            <trkpt lon="101.221395" lat="14.304122">
                <ele>25.200000</ele>
                <time>2018-10-21T03:06:45Z</time>
            </trkpt>
            <trkpt lon="101.221393" lat="14.304170">
                <ele>25.200000</ele>
                <time>2018-10-21T03:06:48Z</time>
            </trkpt>
            <trkpt lon="101.221398" lat="14.304212">
                <ele>25.300000</ele>
                <time>2018-10-21T03:06:50Z</time>
            </trkpt>
            <trkpt lon="101.221402" lat="14.304257">
                <ele>25.300000</ele>
                <time>2018-10-21T03:06:52Z</time>
            </trkpt>
            <trkpt lon="101.221410" lat="14.304304">
                <ele>25.600000</ele>
                <time>2018-10-21T03:06:54Z</time>
            </trkpt>
            <trkpt lon="101.221417" lat="14.304356">
                <ele>25.800000</ele>
                <time>2018-10-21T03:06:56Z</time>
            </trkpt>
            <trkpt lon="101.221418" lat="14.304407">
                <ele>25.900000</ele>
                <time>2018-10-21T03:06:58Z</time>
            </trkpt>
            <trkpt lon="101.221417" lat="14.304436">
                <ele>25.900000</ele>
                <time>2018-10-21T03:06:59Z</time>
            </trkpt>
            <trkpt lon="101.221415" lat="14.304464">
                <ele>25.900000</ele>
                <time>2018-10-21T03:07:00Z</time>
            </trkpt>
            <trkpt lon="101.221411" lat="14.304491">
                <ele>26.000000</ele>
                <time>2018-10-21T03:07:01Z</time>
            </trkpt>
            <trkpt lon="101.221406" lat="14.304520">
                <ele>26.000000</ele>
                <time>2018-10-21T03:07:02Z</time>
            </trkpt>
            <trkpt lon="101.221397" lat="14.304546">
                <ele>26.000000</ele>
                <time>2018-10-21T03:07:03Z</time>
            </trkpt>
            <trkpt lon="101.221388" lat="14.304574">
                <ele>25.900000</ele>
                <time>2018-10-21T03:07:04Z</time>
            </trkpt>
            <trkpt lon="101.221370" lat="14.304601">
                <ele>25.900000</ele>
                <time>2018-10-21T03:07:05Z</time>
            </trkpt>
            <trkpt lon="101.221345" lat="14.304615">
                <ele>25.900000</ele>
                <time>2018-10-21T03:07:06Z</time>
            </trkpt>
            <trkpt lon="101.221313" lat="14.304614">
                <ele>25.900000</ele>
                <time>2018-10-21T03:07:07Z</time>
            </trkpt>
            <trkpt lon="101.221283" lat="14.304602">
                <ele>25.800000</ele>
                <time>2018-10-21T03:07:08Z</time>
            </trkpt>
            <trkpt lon="101.221256" lat="14.304587">
                <ele>25.800000</ele>
                <time>2018-10-21T03:07:09Z</time>
            </trkpt>
            <trkpt lon="101.221217" lat="14.304562">
                <ele>25.700000</ele>
                <time>2018-10-21T03:07:11Z</time>
            </trkpt>
            <trkpt lon="101.221175" lat="14.304545">
                <ele>25.600000</ele>
                <time>2018-10-21T03:07:13Z</time>
            </trkpt>
            <trkpt lon="101.221130" lat="14.304527">
                <ele>25.500000</ele>
                <time>2018-10-21T03:07:15Z</time>
            </trkpt>
            <trkpt lon="101.221082" lat="14.304509">
                <ele>25.500000</ele>
                <time>2018-10-21T03:07:17Z</time>
            </trkpt>
            <trkpt lon="101.221038" lat="14.304493">
                <ele>25.500000</ele>
                <time>2018-10-21T03:07:19Z</time>
            </trkpt>
            <trkpt lon="101.221002" lat="14.304494">
                <ele>25.400000</ele>
                <time>2018-10-21T03:07:21Z</time>
            </trkpt>
            <trkpt lon="101.220968" lat="14.304505">
                <ele>25.400000</ele>
                <time>2018-10-21T03:07:26Z</time>
            </trkpt>
            <trkpt lon="101.220942" lat="14.304456">
                <ele>25.500000</ele>
                <time>2018-10-21T03:08:57Z</time>
            </trkpt>
            <trkpt lon="101.220920" lat="14.304438">
                <ele>25.500000</ele>
                <time>2018-10-21T03:08:59Z</time>
            </trkpt>
            <trkpt lon="101.220884" lat="14.304419">
                <ele>25.400000</ele>
                <time>2018-10-21T03:09:01Z</time>
            </trkpt>
            <trkpt lon="101.220837" lat="14.304403">
                <ele>25.300000</ele>
                <time>2018-10-21T03:09:03Z</time>
            </trkpt>
            <trkpt lon="101.220810" lat="14.304395">
                <ele>25.300000</ele>
                <time>2018-10-21T03:09:04Z</time>
            </trkpt>
            <trkpt lon="101.220780" lat="14.304389">
                <ele>25.400000</ele>
                <time>2018-10-21T03:09:05Z</time>
            </trkpt>
            <trkpt lon="101.220752" lat="14.304381">
                <ele>25.400000</ele>
                <time>2018-10-21T03:09:06Z</time>
            </trkpt>
            <trkpt lon="101.220721" lat="14.304370">
                <ele>25.500000</ele>
                <time>2018-10-21T03:09:07Z</time>
            </trkpt>
            <trkpt lon="101.220694" lat="14.304357">
                <ele>25.500000</ele>
                <time>2018-10-21T03:09:08Z</time>
            </trkpt>
            <trkpt lon="101.220667" lat="14.304347">
                <ele>25.600000</ele>
                <time>2018-10-21T03:09:09Z</time>
            </trkpt>
            <trkpt lon="101.220640" lat="14.304337">
                <ele>25.700000</ele>
                <time>2018-10-21T03:09:10Z</time>
            </trkpt>
            <trkpt lon="101.220608" lat="14.304327">
                <ele>25.800000</ele>
                <time>2018-10-21T03:09:11Z</time>
            </trkpt>
            <trkpt lon="101.220573" lat="14.304314">
                <ele>25.900000</ele>
                <time>2018-10-21T03:09:12Z</time>
            </trkpt>
            <trkpt lon="101.220544" lat="14.304297">
                <ele>25.900000</ele>
                <time>2018-10-21T03:09:13Z</time>
            </trkpt>
            <trkpt lon="101.220517" lat="14.304282">
                <ele>25.900000</ele>
                <time>2018-10-21T03:09:14Z</time>
            </trkpt>
            <trkpt lon="101.220483" lat="14.304270">
                <ele>25.900000</ele>
                <time>2018-10-21T03:09:15Z</time>
            </trkpt>
            <trkpt lon="101.220451" lat="14.304261">
                <ele>26.000000</ele>
                <time>2018-10-21T03:09:16Z</time>
            </trkpt>
            <trkpt lon="101.220421" lat="14.304254">
                <ele>26.000000</ele>
                <time>2018-10-21T03:09:17Z</time>
            </trkpt>
            <trkpt lon="101.220387" lat="14.304246">
                <ele>26.000000</ele>
                <time>2018-10-21T03:09:18Z</time>
            </trkpt>
            <trkpt lon="101.220354" lat="14.304238">
                <ele>25.800000</ele>
                <time>2018-10-21T03:09:19Z</time>
            </trkpt>
            <trkpt lon="101.220322" lat="14.304249">
                <ele>25.500000</ele>
                <time>2018-10-21T03:09:20Z</time>
            </trkpt>
            <trkpt lon="101.220299" lat="14.304276">
                <ele>25.300000</ele>
                <time>2018-10-21T03:09:21Z</time>
            </trkpt>
            <trkpt lon="101.220284" lat="14.304310">
                <ele>25.200000</ele>
                <time>2018-10-21T03:09:22Z</time>
            </trkpt>
            <trkpt lon="101.220277" lat="14.304345">
                <ele>25.100000</ele>
                <time>2018-10-21T03:09:23Z</time>
            </trkpt>
            <trkpt lon="101.220267" lat="14.304379">
                <ele>25.000000</ele>
                <time>2018-10-21T03:09:24Z</time>
            </trkpt>
            <trkpt lon="101.220252" lat="14.304415">
                <ele>25.000000</ele>
                <time>2018-10-21T03:09:25Z</time>
            </trkpt>
            <trkpt lon="101.220237" lat="14.304456">
                <ele>25.000000</ele>
                <time>2018-10-21T03:09:26Z</time>
            </trkpt>
            <trkpt lon="101.220224" lat="14.304492">
                <ele>25.000000</ele>
                <time>2018-10-21T03:09:27Z</time>
            </trkpt>
            <trkpt lon="101.220211" lat="14.304527">
                <ele>25.000000</ele>
                <time>2018-10-21T03:09:28Z</time>
            </trkpt>
            <trkpt lon="101.220197" lat="14.304562">
                <ele>25.000000</ele>
                <time>2018-10-21T03:09:29Z</time>
            </trkpt>
            <trkpt lon="101.220186" lat="14.304596">
                <ele>25.000000</ele>
                <time>2018-10-21T03:09:30Z</time>
            </trkpt>
            <trkpt lon="101.220180" lat="14.304627">
                <ele>25.100000</ele>
                <time>2018-10-21T03:09:31Z</time>
            </trkpt>
            <trkpt lon="101.220167" lat="14.304652">
                <ele>25.200000</ele>
                <time>2018-10-21T03:09:32Z</time>
            </trkpt>
            <trkpt lon="101.220142" lat="14.304665">
                <ele>25.200000</ele>
                <time>2018-10-21T03:09:33Z</time>
            </trkpt>
            <trkpt lon="101.220095" lat="14.304666">
                <ele>25.200000</ele>
                <time>2018-10-21T03:09:35Z</time>
            </trkpt>
            <trkpt lon="101.220068" lat="14.304650">
                <ele>25.200000</ele>
                <time>2018-10-21T03:09:36Z</time>
            </trkpt>
            <trkpt lon="101.220044" lat="14.304626">
                <ele>25.100000</ele>
                <time>2018-10-21T03:09:37Z</time>
            </trkpt>
            <trkpt lon="101.220021" lat="14.304597">
                <ele>24.900000</ele>
                <time>2018-10-21T03:09:38Z</time>
            </trkpt>
            <trkpt lon="101.220002" lat="14.304564">
                <ele>24.600000</ele>
                <time>2018-10-21T03:09:39Z</time>
            </trkpt>
            <trkpt lon="101.219979" lat="14.304531">
                <ele>24.400000</ele>
                <time>2018-10-21T03:09:40Z</time>
            </trkpt>
            <trkpt lon="101.219951" lat="14.304499">
                <ele>24.300000</ele>
                <time>2018-10-21T03:09:41Z</time>
            </trkpt>
            <trkpt lon="101.219926" lat="14.304470">
                <ele>24.300000</ele>
                <time>2018-10-21T03:09:42Z</time>
            </trkpt>
            <trkpt lon="101.219889" lat="14.304437">
                <ele>24.300000</ele>
                <time>2018-10-21T03:09:43Z</time>
            </trkpt>
            <trkpt lon="101.219852" lat="14.304410">
                <ele>24.400000</ele>
                <time>2018-10-21T03:09:44Z</time>
            </trkpt>
            <trkpt lon="101.219811" lat="14.304385">
                <ele>24.600000</ele>
                <time>2018-10-21T03:09:45Z</time>
            </trkpt>
            <trkpt lon="101.219779" lat="14.304373">
                <ele>24.800000</ele>
                <time>2018-10-21T03:09:46Z</time>
            </trkpt>
            <trkpt lon="101.219735" lat="14.304365">
                <ele>25.200000</ele>
                <time>2018-10-21T03:09:47Z</time>
            </trkpt>
            <trkpt lon="101.219694" lat="14.304353">
                <ele>25.600000</ele>
                <time>2018-10-21T03:09:48Z</time>
            </trkpt>
            <trkpt lon="101.219655" lat="14.304341">
                <ele>25.900000</ele>
                <time>2018-10-21T03:09:49Z</time>
            </trkpt>
            <trkpt lon="101.219617" lat="14.304329">
                <ele>26.200000</ele>
                <time>2018-10-21T03:09:50Z</time>
            </trkpt>
            <trkpt lon="101.219582" lat="14.304314">
                <ele>26.500000</ele>
                <time>2018-10-21T03:09:51Z</time>
            </trkpt>
            <trkpt lon="101.219545" lat="14.304299">
                <ele>26.800000</ele>
                <time>2018-10-21T03:09:52Z</time>
            </trkpt>
            <trkpt lon="101.219510" lat="14.304277">
                <ele>27.200000</ele>
                <time>2018-10-21T03:09:53Z</time>
            </trkpt>
            <trkpt lon="101.219476" lat="14.304257">
                <ele>27.400000</ele>
                <time>2018-10-21T03:09:54Z</time>
            </trkpt>
            <trkpt lon="101.219443" lat="14.304239">
                <ele>27.500000</ele>
                <time>2018-10-21T03:09:55Z</time>
            </trkpt>
            <trkpt lon="101.219416" lat="14.304224">
                <ele>27.700000</ele>
                <time>2018-10-21T03:09:56Z</time>
            </trkpt>
            <trkpt lon="101.219382" lat="14.304180">
                <ele>28.200000</ele>
                <time>2018-10-21T03:09:58Z</time>
            </trkpt>
            <trkpt lon="101.219380" lat="14.304152">
                <ele>28.300000</ele>
                <time>2018-10-21T03:09:59Z</time>
            </trkpt>
            <trkpt lon="101.219385" lat="14.304120">
                <ele>28.400000</ele>
                <time>2018-10-21T03:10:00Z</time>
            </trkpt>
            <trkpt lon="101.219390" lat="14.304086">
                <ele>28.600000</ele>
                <time>2018-10-21T03:10:01Z</time>
            </trkpt>
            <trkpt lon="101.219394" lat="14.304058">
                <ele>28.700000</ele>
                <time>2018-10-21T03:10:02Z</time>
            </trkpt>
            <trkpt lon="101.219401" lat="14.304027">
                <ele>28.700000</ele>
                <time>2018-10-21T03:10:03Z</time>
            </trkpt>
            <trkpt lon="101.219403" lat="14.303993">
                <ele>28.800000</ele>
                <time>2018-10-21T03:10:04Z</time>
            </trkpt>
            <trkpt lon="101.219400" lat="14.303962">
                <ele>28.900000</ele>
                <time>2018-10-21T03:10:05Z</time>
            </trkpt>
            <trkpt lon="101.219392" lat="14.303927">
                <ele>28.900000</ele>
                <time>2018-10-21T03:10:06Z</time>
            </trkpt>
            <trkpt lon="101.219380" lat="14.303878">
                <ele>28.900000</ele>
                <time>2018-10-21T03:10:07Z</time>
            </trkpt>
            <trkpt lon="101.219371" lat="14.303842">
                <ele>28.800000</ele>
                <time>2018-10-21T03:10:08Z</time>
            </trkpt>
            <trkpt lon="101.219357" lat="14.303801">
                <ele>28.800000</ele>
                <time>2018-10-21T03:10:09Z</time>
            </trkpt>
            <trkpt lon="101.219348" lat="14.303759">
                <ele>28.800000</ele>
                <time>2018-10-21T03:10:10Z</time>
            </trkpt>
            <trkpt lon="101.219334" lat="14.303716">
                <ele>28.600000</ele>
                <time>2018-10-21T03:10:11Z</time>
            </trkpt>
            <trkpt lon="101.219330" lat="14.303670">
                <ele>28.300000</ele>
                <time>2018-10-21T03:10:12Z</time>
            </trkpt>
            <trkpt lon="101.219326" lat="14.303624">
                <ele>28.000000</ele>
                <time>2018-10-21T03:10:13Z</time>
            </trkpt>
            <trkpt lon="101.219329" lat="14.303586">
                <ele>28.000000</ele>
                <time>2018-10-21T03:10:14Z</time>
            </trkpt>
            <trkpt lon="101.219326" lat="14.303542">
                <ele>28.000000</ele>
                <time>2018-10-21T03:10:15Z</time>
            </trkpt>
            <trkpt lon="101.219317" lat="14.303502">
                <ele>28.000000</ele>
                <time>2018-10-21T03:10:16Z</time>
            </trkpt>
            <trkpt lon="101.219296" lat="14.303462">
                <ele>28.000000</ele>
                <time>2018-10-21T03:10:17Z</time>
            </trkpt>
            <trkpt lon="101.219278" lat="14.303418">
                <ele>27.900000</ele>
                <time>2018-10-21T03:10:18Z</time>
            </trkpt>
            <trkpt lon="101.219263" lat="14.303373">
                <ele>27.800000</ele>
                <time>2018-10-21T03:10:19Z</time>
            </trkpt>
            <trkpt lon="101.219247" lat="14.303330">
                <ele>27.700000</ele>
                <time>2018-10-21T03:10:20Z</time>
            </trkpt>
            <trkpt lon="101.219238" lat="14.303284">
                <ele>27.600000</ele>
                <time>2018-10-21T03:10:21Z</time>
            </trkpt>
            <trkpt lon="101.219226" lat="14.303239">
                <ele>27.600000</ele>
                <time>2018-10-21T03:10:22Z</time>
            </trkpt>
            <trkpt lon="101.219217" lat="14.303189">
                <ele>27.600000</ele>
                <time>2018-10-21T03:10:23Z</time>
            </trkpt>
            <trkpt lon="101.219195" lat="14.303139">
                <ele>27.700000</ele>
                <time>2018-10-21T03:10:24Z</time>
            </trkpt>
            <trkpt lon="101.219187" lat="14.303089">
                <ele>27.800000</ele>
                <time>2018-10-21T03:10:25Z</time>
            </trkpt>
            <trkpt lon="101.219177" lat="14.303038">
                <ele>27.600000</ele>
                <time>2018-10-21T03:10:26Z</time>
            </trkpt>
            <trkpt lon="101.219170" lat="14.302992">
                <ele>27.300000</ele>
                <time>2018-10-21T03:10:27Z</time>
            </trkpt>
            <trkpt lon="101.219169" lat="14.302948">
                <ele>27.100000</ele>
                <time>2018-10-21T03:10:28Z</time>
            </trkpt>
            <trkpt lon="101.219170" lat="14.302903">
                <ele>26.700000</ele>
                <time>2018-10-21T03:10:29Z</time>
            </trkpt>
            <trkpt lon="101.219171" lat="14.302854">
                <ele>26.200000</ele>
                <time>2018-10-21T03:10:30Z</time>
            </trkpt>
            <trkpt lon="101.219176" lat="14.302807">
                <ele>25.900000</ele>
                <time>2018-10-21T03:10:31Z</time>
            </trkpt>
            <trkpt lon="101.219189" lat="14.302766">
                <ele>25.700000</ele>
                <time>2018-10-21T03:10:32Z</time>
            </trkpt>
            <trkpt lon="101.219206" lat="14.302728">
                <ele>25.300000</ele>
                <time>2018-10-21T03:10:33Z</time>
            </trkpt>
            <trkpt lon="101.219219" lat="14.302694">
                <ele>24.900000</ele>
                <time>2018-10-21T03:10:34Z</time>
            </trkpt>
            <trkpt lon="101.219228" lat="14.302660">
                <ele>24.400000</ele>
                <time>2018-10-21T03:10:35Z</time>
            </trkpt>
            <trkpt lon="101.219240" lat="14.302618">
                <ele>23.800000</ele>
                <time>2018-10-21T03:10:36Z</time>
            </trkpt>
            <trkpt lon="101.219243" lat="14.302580">
                <ele>23.300000</ele>
                <time>2018-10-21T03:10:37Z</time>
            </trkpt>
            <trkpt lon="101.219244" lat="14.302535">
                <ele>22.900000</ele>
                <time>2018-10-21T03:10:38Z</time>
            </trkpt>
            <trkpt lon="101.219237" lat="14.302489">
                <ele>22.600000</ele>
                <time>2018-10-21T03:10:39Z</time>
            </trkpt>
            <trkpt lon="101.219231" lat="14.302448">
                <ele>22.100000</ele>
                <time>2018-10-21T03:10:40Z</time>
            </trkpt>
            <trkpt lon="101.219220" lat="14.302408">
                <ele>21.600000</ele>
                <time>2018-10-21T03:10:41Z</time>
            </trkpt>
            <trkpt lon="101.219204" lat="14.302371">
                <ele>21.200000</ele>
                <time>2018-10-21T03:10:42Z</time>
            </trkpt>
            <trkpt lon="101.219183" lat="14.302335">
                <ele>21.100000</ele>
                <time>2018-10-21T03:10:43Z</time>
            </trkpt>
            <trkpt lon="101.219153" lat="14.302303">
                <ele>21.100000</ele>
                <time>2018-10-21T03:10:44Z</time>
            </trkpt>
            <trkpt lon="101.219116" lat="14.302276">
                <ele>21.200000</ele>
                <time>2018-10-21T03:10:45Z</time>
            </trkpt>
            <trkpt lon="101.219074" lat="14.302251">
                <ele>21.300000</ele>
                <time>2018-10-21T03:10:46Z</time>
            </trkpt>
            <trkpt lon="101.219040" lat="14.302223">
                <ele>21.300000</ele>
                <time>2018-10-21T03:10:47Z</time>
            </trkpt>
            <trkpt lon="101.219013" lat="14.302196">
                <ele>21.400000</ele>
                <time>2018-10-21T03:10:48Z</time>
            </trkpt>
            <trkpt lon="101.218990" lat="14.302174">
                <ele>21.400000</ele>
                <time>2018-10-21T03:10:49Z</time>
            </trkpt>
            <trkpt lon="101.218957" lat="14.302145">
                <ele>21.500000</ele>
                <time>2018-10-21T03:10:51Z</time>
            </trkpt>
            <trkpt lon="101.218980" lat="14.302175">
                <ele>21.600000</ele>
                <time>2018-10-21T03:11:03Z</time>
            </trkpt>
            <trkpt lon="101.219002" lat="14.302207">
                <ele>21.600000</ele>
                <time>2018-10-21T03:11:05Z</time>
            </trkpt>
            <trkpt lon="101.219023" lat="14.302228">
                <ele>21.700000</ele>
                <time>2018-10-21T03:11:06Z</time>
            </trkpt>
            <trkpt lon="101.219048" lat="14.302244">
                <ele>21.700000</ele>
                <time>2018-10-21T03:11:07Z</time>
            </trkpt>
            <trkpt lon="101.219093" lat="14.302276">
                <ele>21.500000</ele>
                <time>2018-10-21T03:11:09Z</time>
            </trkpt>
            <trkpt lon="101.219136" lat="14.302300">
                <ele>21.200000</ele>
                <time>2018-10-21T03:11:11Z</time>
            </trkpt>
            <trkpt lon="101.219171" lat="14.302297">
                <ele>21.100000</ele>
                <time>2018-10-21T03:11:13Z</time>
            </trkpt>
            <trkpt lon="101.219200" lat="14.302275">
                <ele>21.100000</ele>
                <time>2018-10-21T03:11:15Z</time>
            </trkpt>
            <trkpt lon="101.219229" lat="14.302246">
                <ele>21.100000</ele>
                <time>2018-10-21T03:11:17Z</time>
            </trkpt>
            <trkpt lon="101.219253" lat="14.302207">
                <ele>21.000000</ele>
                <time>2018-10-21T03:11:19Z</time>
            </trkpt>
            <trkpt lon="101.219280" lat="14.302166">
                <ele>21.000000</ele>
                <time>2018-10-21T03:11:21Z</time>
            </trkpt>
            <trkpt lon="101.219294" lat="14.302142">
                <ele>21.000000</ele>
                <time>2018-10-21T03:11:22Z</time>
            </trkpt>
            <trkpt lon="101.219321" lat="14.302099">
                <ele>21.000000</ele>
                <time>2018-10-21T03:11:24Z</time>
            </trkpt>
            <trkpt lon="101.219340" lat="14.302061">
                <ele>21.000000</ele>
                <time>2018-10-21T03:11:26Z</time>
            </trkpt>
            <trkpt lon="101.219365" lat="14.302037">
                <ele>21.000000</ele>
                <time>2018-10-21T03:11:28Z</time>
            </trkpt>
            <trkpt lon="101.219399" lat="14.302026">
                <ele>21.000000</ele>
                <time>2018-10-21T03:11:30Z</time>
            </trkpt>
            <trkpt lon="101.219447" lat="14.302013">
                <ele>21.000000</ele>
                <time>2018-10-21T03:11:32Z</time>
            </trkpt>
            <trkpt lon="101.219475" lat="14.302001">
                <ele>21.000000</ele>
                <time>2018-10-21T03:11:33Z</time>
            </trkpt>
            <trkpt lon="101.219506" lat="14.301986">
                <ele>21.000000</ele>
                <time>2018-10-21T03:11:34Z</time>
            </trkpt>
            <trkpt lon="101.219536" lat="14.301971">
                <ele>21.000000</ele>
                <time>2018-10-21T03:11:35Z</time>
            </trkpt>
            <trkpt lon="101.219567" lat="14.301964">
                <ele>21.000000</ele>
                <time>2018-10-21T03:11:36Z</time>
            </trkpt>
            <trkpt lon="101.219597" lat="14.301953">
                <ele>21.000000</ele>
                <time>2018-10-21T03:11:37Z</time>
            </trkpt>
            <trkpt lon="101.219641" lat="14.301928">
                <ele>21.100000</ele>
                <time>2018-10-21T03:11:39Z</time>
            </trkpt>
            <trkpt lon="101.219677" lat="14.301903">
                <ele>21.200000</ele>
                <time>2018-10-21T03:11:41Z</time>
            </trkpt>
            <trkpt lon="101.219705" lat="14.301893">
                <ele>21.200000</ele>
                <time>2018-10-21T03:11:43Z</time>
            </trkpt>
            <trkpt lon="101.219751" lat="14.301890">
                <ele>21.200000</ele>
                <time>2018-10-21T03:11:54Z</time>
            </trkpt>
            <trkpt lon="101.219796" lat="14.301875">
                <ele>21.200000</ele>
                <time>2018-10-21T03:11:56Z</time>
            </trkpt>
            <trkpt lon="101.219847" lat="14.301861">
                <ele>21.100000</ele>
                <time>2018-10-21T03:11:58Z</time>
            </trkpt>
            <trkpt lon="101.219877" lat="14.301852">
                <ele>21.000000</ele>
                <time>2018-10-21T03:11:59Z</time>
            </trkpt>
            <trkpt lon="101.219930" lat="14.301842">
                <ele>20.800000</ele>
                <time>2018-10-21T03:12:01Z</time>
            </trkpt>
            <trkpt lon="101.219986" lat="14.301836">
                <ele>20.500000</ele>
                <time>2018-10-21T03:12:03Z</time>
            </trkpt>
            <trkpt lon="101.220016" lat="14.301834">
                <ele>20.300000</ele>
                <time>2018-10-21T03:12:04Z</time>
            </trkpt>
            <trkpt lon="101.220046" lat="14.301831">
                <ele>20.200000</ele>
                <time>2018-10-21T03:12:05Z</time>
            </trkpt>
            <trkpt lon="101.220075" lat="14.301827">
                <ele>20.100000</ele>
                <time>2018-10-21T03:12:06Z</time>
            </trkpt>
            <trkpt lon="101.220106" lat="14.301821">
                <ele>20.100000</ele>
                <time>2018-10-21T03:12:07Z</time>
            </trkpt>
            <trkpt lon="101.220136" lat="14.301817">
                <ele>20.100000</ele>
                <time>2018-10-21T03:12:08Z</time>
            </trkpt>
            <trkpt lon="101.220168" lat="14.301818">
                <ele>20.100000</ele>
                <time>2018-10-21T03:12:09Z</time>
            </trkpt>
            <trkpt lon="101.220198" lat="14.301825">
                <ele>20.100000</ele>
                <time>2018-10-21T03:12:10Z</time>
            </trkpt>
            <trkpt lon="101.220224" lat="14.301839">
                <ele>20.100000</ele>
                <time>2018-10-21T03:12:11Z</time>
            </trkpt>
            <trkpt lon="101.220248" lat="14.301856">
                <ele>20.100000</ele>
                <time>2018-10-21T03:12:12Z</time>
            </trkpt>
            <trkpt lon="101.220277" lat="14.301873">
                <ele>20.100000</ele>
                <time>2018-10-21T03:12:13Z</time>
            </trkpt>
            <trkpt lon="101.220308" lat="14.301888">
                <ele>20.100000</ele>
                <time>2018-10-21T03:12:14Z</time>
            </trkpt>
            <trkpt lon="101.220339" lat="14.301884">
                <ele>20.100000</ele>
                <time>2018-10-21T03:12:15Z</time>
            </trkpt>
            <trkpt lon="101.220371" lat="14.301874">
                <ele>20.100000</ele>
                <time>2018-10-21T03:12:16Z</time>
            </trkpt>
            <trkpt lon="101.220402" lat="14.301860">
                <ele>20.100000</ele>
                <time>2018-10-21T03:12:17Z</time>
            </trkpt>
            <trkpt lon="101.220429" lat="14.301846">
                <ele>20.100000</ele>
                <time>2018-10-21T03:12:18Z</time>
            </trkpt>
            <trkpt lon="101.220455" lat="14.301832">
                <ele>20.200000</ele>
                <time>2018-10-21T03:12:19Z</time>
            </trkpt>
            <trkpt lon="101.220486" lat="14.301818">
                <ele>20.200000</ele>
                <time>2018-10-21T03:12:20Z</time>
            </trkpt>
            <trkpt lon="101.220517" lat="14.301800">
                <ele>20.200000</ele>
                <time>2018-10-21T03:12:21Z</time>
            </trkpt>
            <trkpt lon="101.220545" lat="14.301781">
                <ele>20.200000</ele>
                <time>2018-10-21T03:12:22Z</time>
            </trkpt>
            <trkpt lon="101.220579" lat="14.301764">
                <ele>20.100000</ele>
                <time>2018-10-21T03:12:23Z</time>
            </trkpt>
            <trkpt lon="101.220610" lat="14.301749">
                <ele>20.100000</ele>
                <time>2018-10-21T03:12:24Z</time>
            </trkpt>
            <trkpt lon="101.220642" lat="14.301734">
                <ele>20.100000</ele>
                <time>2018-10-21T03:12:25Z</time>
            </trkpt>
            <trkpt lon="101.220674" lat="14.301719">
                <ele>20.100000</ele>
                <time>2018-10-21T03:12:26Z</time>
            </trkpt>
            <trkpt lon="101.220706" lat="14.301701">
                <ele>20.100000</ele>
                <time>2018-10-21T03:12:27Z</time>
            </trkpt>
            <trkpt lon="101.220737" lat="14.301685">
                <ele>20.100000</ele>
                <time>2018-10-21T03:12:28Z</time>
            </trkpt>
            <trkpt lon="101.220769" lat="14.301667">
                <ele>20.100000</ele>
                <time>2018-10-21T03:12:29Z</time>
            </trkpt>
            <trkpt lon="101.220808" lat="14.301647">
                <ele>20.100000</ele>
                <time>2018-10-21T03:12:30Z</time>
            </trkpt>
            <trkpt lon="101.220843" lat="14.301628">
                <ele>20.100000</ele>
                <time>2018-10-21T03:12:31Z</time>
            </trkpt>
            <trkpt lon="101.220881" lat="14.301609">
                <ele>20.100000</ele>
                <time>2018-10-21T03:12:32Z</time>
            </trkpt>
            <trkpt lon="101.220915" lat="14.301594">
                <ele>20.100000</ele>
                <time>2018-10-21T03:12:33Z</time>
            </trkpt>
            <trkpt lon="101.220947" lat="14.301581">
                <ele>20.100000</ele>
                <time>2018-10-21T03:12:34Z</time>
            </trkpt>
            <trkpt lon="101.220982" lat="14.301562">
                <ele>20.200000</ele>
                <time>2018-10-21T03:12:35Z</time>
            </trkpt>
            <trkpt lon="101.221019" lat="14.301545">
                <ele>20.200000</ele>
                <time>2018-10-21T03:12:36Z</time>
            </trkpt>
            <trkpt lon="101.221052" lat="14.301527">
                <ele>20.200000</ele>
                <time>2018-10-21T03:12:37Z</time>
            </trkpt>
            <trkpt lon="101.221085" lat="14.301513">
                <ele>20.200000</ele>
                <time>2018-10-21T03:12:38Z</time>
            </trkpt>
            <trkpt lon="101.221116" lat="14.301497">
                <ele>20.200000</ele>
                <time>2018-10-21T03:12:39Z</time>
            </trkpt>
            <trkpt lon="101.221148" lat="14.301482">
                <ele>20.300000</ele>
                <time>2018-10-21T03:12:40Z</time>
            </trkpt>
            <trkpt lon="101.221179" lat="14.301469">
                <ele>20.300000</ele>
                <time>2018-10-21T03:12:41Z</time>
            </trkpt>
            <trkpt lon="101.221211" lat="14.301456">
                <ele>20.300000</ele>
                <time>2018-10-21T03:12:42Z</time>
            </trkpt>
            <trkpt lon="101.221241" lat="14.301440">
                <ele>20.300000</ele>
                <time>2018-10-21T03:12:43Z</time>
            </trkpt>
            <trkpt lon="101.221276" lat="14.301414">
                <ele>20.400000</ele>
                <time>2018-10-21T03:12:44Z</time>
            </trkpt>
            <trkpt lon="101.221309" lat="14.301401">
                <ele>20.500000</ele>
                <time>2018-10-21T03:12:45Z</time>
            </trkpt>
            <trkpt lon="101.221347" lat="14.301386">
                <ele>20.700000</ele>
                <time>2018-10-21T03:12:46Z</time>
            </trkpt>
            <trkpt lon="101.221380" lat="14.301369">
                <ele>20.900000</ele>
                <time>2018-10-21T03:12:47Z</time>
            </trkpt>
            <trkpt lon="101.221412" lat="14.301350">
                <ele>21.100000</ele>
                <time>2018-10-21T03:12:48Z</time>
            </trkpt>
            <trkpt lon="101.221443" lat="14.301337">
                <ele>21.200000</ele>
                <time>2018-10-21T03:12:49Z</time>
            </trkpt>
            <trkpt lon="101.221474" lat="14.301321">
                <ele>21.300000</ele>
                <time>2018-10-21T03:12:50Z</time>
            </trkpt>
            <trkpt lon="101.221501" lat="14.301304">
                <ele>21.500000</ele>
                <time>2018-10-21T03:12:51Z</time>
            </trkpt>
            <trkpt lon="101.221522" lat="14.301285">
                <ele>21.600000</ele>
                <time>2018-10-21T03:12:52Z</time>
            </trkpt>
            <trkpt lon="101.221545" lat="14.301265">
                <ele>21.800000</ele>
                <time>2018-10-21T03:12:53Z</time>
            </trkpt>
            <trkpt lon="101.221561" lat="14.301223">
                <ele>22.100000</ele>
                <time>2018-10-21T03:12:55Z</time>
            </trkpt>
            <trkpt lon="101.221541" lat="14.301190">
                <ele>22.400000</ele>
                <time>2018-10-21T03:12:57Z</time>
            </trkpt>
            <trkpt lon="101.221512" lat="14.301162">
                <ele>22.700000</ele>
                <time>2018-10-21T03:12:59Z</time>
            </trkpt>
            <trkpt lon="101.221475" lat="14.301119">
                <ele>23.200000</ele>
                <time>2018-10-21T03:13:01Z</time>
            </trkpt>
            <trkpt lon="101.221451" lat="14.301094">
                <ele>23.400000</ele>
                <time>2018-10-21T03:13:02Z</time>
            </trkpt>
            <trkpt lon="101.221425" lat="14.301070">
                <ele>23.500000</ele>
                <time>2018-10-21T03:13:03Z</time>
            </trkpt>
            <trkpt lon="101.221403" lat="14.301043">
                <ele>23.300000</ele>
                <time>2018-10-21T03:13:04Z</time>
            </trkpt>
            <trkpt lon="101.221382" lat="14.301018">
                <ele>23.100000</ele>
                <time>2018-10-21T03:13:05Z</time>
            </trkpt>
            <trkpt lon="101.221357" lat="14.300992">
                <ele>23.100000</ele>
                <time>2018-10-21T03:13:06Z</time>
            </trkpt>
            <trkpt lon="101.221332" lat="14.300963">
                <ele>23.100000</ele>
                <time>2018-10-21T03:13:07Z</time>
            </trkpt>
            <trkpt lon="101.221303" lat="14.300928">
                <ele>23.100000</ele>
                <time>2018-10-21T03:13:08Z</time>
            </trkpt>
            <trkpt lon="101.221275" lat="14.300897">
                <ele>23.100000</ele>
                <time>2018-10-21T03:13:09Z</time>
            </trkpt>
            <trkpt lon="101.221247" lat="14.300862">
                <ele>22.900000</ele>
                <time>2018-10-21T03:13:10Z</time>
            </trkpt>
            <trkpt lon="101.221220" lat="14.300828">
                <ele>22.600000</ele>
                <time>2018-10-21T03:13:11Z</time>
            </trkpt>
            <trkpt lon="101.221198" lat="14.300795">
                <ele>22.300000</ele>
                <time>2018-10-21T03:13:12Z</time>
            </trkpt>
            <trkpt lon="101.221174" lat="14.300762">
                <ele>21.900000</ele>
                <time>2018-10-21T03:13:13Z</time>
            </trkpt>
            <trkpt lon="101.221148" lat="14.300731">
                <ele>21.600000</ele>
                <time>2018-10-21T03:13:14Z</time>
            </trkpt>
            <trkpt lon="101.221123" lat="14.300699">
                <ele>21.300000</ele>
                <time>2018-10-21T03:13:15Z</time>
            </trkpt>
            <trkpt lon="101.221095" lat="14.300669">
                <ele>21.000000</ele>
                <time>2018-10-21T03:13:16Z</time>
            </trkpt>
            <trkpt lon="101.221067" lat="14.300640">
                <ele>20.700000</ele>
                <time>2018-10-21T03:13:17Z</time>
            </trkpt>
            <trkpt lon="101.221042" lat="14.300606">
                <ele>20.400000</ele>
                <time>2018-10-21T03:13:18Z</time>
            </trkpt>
            <trkpt lon="101.221019" lat="14.300570">
                <ele>20.200000</ele>
                <time>2018-10-21T03:13:19Z</time>
            </trkpt>
            <trkpt lon="101.220996" lat="14.300536">
                <ele>20.000000</ele>
                <time>2018-10-21T03:13:20Z</time>
            </trkpt>
            <trkpt lon="101.220971" lat="14.300502">
                <ele>19.700000</ele>
                <time>2018-10-21T03:13:21Z</time>
            </trkpt>
            <trkpt lon="101.220945" lat="14.300470">
                <ele>19.600000</ele>
                <time>2018-10-21T03:13:22Z</time>
            </trkpt>
            <trkpt lon="101.220922" lat="14.300435">
                <ele>19.400000</ele>
                <time>2018-10-21T03:13:23Z</time>
            </trkpt>
            <trkpt lon="101.220896" lat="14.300403">
                <ele>19.300000</ele>
                <time>2018-10-21T03:13:24Z</time>
            </trkpt>
            <trkpt lon="101.220871" lat="14.300370">
                <ele>19.300000</ele>
                <time>2018-10-21T03:13:25Z</time>
            </trkpt>
            <trkpt lon="101.220846" lat="14.300340">
                <ele>19.200000</ele>
                <time>2018-10-21T03:13:26Z</time>
            </trkpt>
            <trkpt lon="101.220819" lat="14.300307">
                <ele>19.200000</ele>
                <time>2018-10-21T03:13:27Z</time>
            </trkpt>
            <trkpt lon="101.220791" lat="14.300274">
                <ele>19.300000</ele>
                <time>2018-10-21T03:13:28Z</time>
            </trkpt>
            <trkpt lon="101.220768" lat="14.300242">
                <ele>19.400000</ele>
                <time>2018-10-21T03:13:29Z</time>
            </trkpt>
            <trkpt lon="101.220742" lat="14.300213">
                <ele>19.600000</ele>
                <time>2018-10-21T03:13:30Z</time>
            </trkpt>
            <trkpt lon="101.220716" lat="14.300182">
                <ele>19.700000</ele>
                <time>2018-10-21T03:13:31Z</time>
            </trkpt>
            <trkpt lon="101.220687" lat="14.300151">
                <ele>19.900000</ele>
                <time>2018-10-21T03:13:32Z</time>
            </trkpt>
            <trkpt lon="101.220668" lat="14.300122">
                <ele>20.100000</ele>
                <time>2018-10-21T03:13:33Z</time>
            </trkpt>
            <trkpt lon="101.220651" lat="14.300097">
                <ele>20.400000</ele>
                <time>2018-10-21T03:13:34Z</time>
            </trkpt>
            <trkpt lon="101.220632" lat="14.300074">
                <ele>20.600000</ele>
                <time>2018-10-21T03:13:35Z</time>
            </trkpt>
            <trkpt lon="101.220599" lat="14.300035">
                <ele>20.600000</ele>
                <time>2018-10-21T03:13:37Z</time>
            </trkpt>
            <trkpt lon="101.220574" lat="14.300022">
                <ele>20.600000</ele>
                <time>2018-10-21T03:13:38Z</time>
            </trkpt>
            <trkpt lon="101.220518" lat="14.300020">
                <ele>20.600000</ele>
                <time>2018-10-21T03:13:40Z</time>
            </trkpt>
            <trkpt lon="101.220487" lat="14.300019">
                <ele>20.600000</ele>
                <time>2018-10-21T03:13:41Z</time>
            </trkpt>
            <trkpt lon="101.220452" lat="14.300024">
                <ele>20.600000</ele>
                <time>2018-10-21T03:13:42Z</time>
            </trkpt>
            <trkpt lon="101.220418" lat="14.300029">
                <ele>20.600000</ele>
                <time>2018-10-21T03:13:43Z</time>
            </trkpt>
            <trkpt lon="101.220390" lat="14.300037">
                <ele>20.600000</ele>
                <time>2018-10-21T03:13:45Z</time>
            </trkpt>
            <trkpt lon="101.220354" lat="14.300047">
                <ele>20.600000</ele>
                <time>2018-10-21T03:14:47Z</time>
            </trkpt>
            <trkpt lon="101.220314" lat="14.300051">
                <ele>20.600000</ele>
                <time>2018-10-21T03:14:50Z</time>
            </trkpt>
            <trkpt lon="101.220282" lat="14.300053">
                <ele>20.600000</ele>
                <time>2018-10-21T03:14:52Z</time>
            </trkpt>
            <trkpt lon="101.220248" lat="14.300059">
                <ele>20.600000</ele>
                <time>2018-10-21T03:14:54Z</time>
            </trkpt>
            <trkpt lon="101.220215" lat="14.300052">
                <ele>20.600000</ele>
                <time>2018-10-21T03:14:56Z</time>
            </trkpt>
            <trkpt lon="101.220170" lat="14.300043">
                <ele>20.600000</ele>
                <time>2018-10-21T03:14:58Z</time>
            </trkpt>
            <trkpt lon="101.220143" lat="14.300033">
                <ele>20.600000</ele>
                <time>2018-10-21T03:14:59Z</time>
            </trkpt>
            <trkpt lon="101.220112" lat="14.300022">
                <ele>20.700000</ele>
                <time>2018-10-21T03:15:00Z</time>
            </trkpt>
            <trkpt lon="101.220085" lat="14.300012">
                <ele>20.700000</ele>
                <time>2018-10-21T03:15:01Z</time>
            </trkpt>
            <trkpt lon="101.220057" lat="14.299999">
                <ele>20.700000</ele>
                <time>2018-10-21T03:15:02Z</time>
            </trkpt>
            <trkpt lon="101.220028" lat="14.299989">
                <ele>20.700000</ele>
                <time>2018-10-21T03:15:03Z</time>
            </trkpt>
            <trkpt lon="101.219998" lat="14.299976">
                <ele>20.700000</ele>
                <time>2018-10-21T03:15:04Z</time>
            </trkpt>
            <trkpt lon="101.219967" lat="14.299964">
                <ele>20.800000</ele>
                <time>2018-10-21T03:15:05Z</time>
            </trkpt>
            <trkpt lon="101.219935" lat="14.299951">
                <ele>20.800000</ele>
                <time>2018-10-21T03:15:06Z</time>
            </trkpt>
            <trkpt lon="101.219897" lat="14.299929">
                <ele>20.800000</ele>
                <time>2018-10-21T03:15:07Z</time>
            </trkpt>
            <trkpt lon="101.219862" lat="14.299918">
                <ele>20.800000</ele>
                <time>2018-10-21T03:15:08Z</time>
            </trkpt>
            <trkpt lon="101.219818" lat="14.299894">
                <ele>20.900000</ele>
                <time>2018-10-21T03:15:09Z</time>
            </trkpt>
            <trkpt lon="101.219781" lat="14.299872">
                <ele>20.900000</ele>
                <time>2018-10-21T03:15:10Z</time>
            </trkpt>
            <trkpt lon="101.219745" lat="14.299849">
                <ele>21.000000</ele>
                <time>2018-10-21T03:15:11Z</time>
            </trkpt>
            <trkpt lon="101.219709" lat="14.299828">
                <ele>21.000000</ele>
                <time>2018-10-21T03:15:12Z</time>
            </trkpt>
            <trkpt lon="101.219673" lat="14.299802">
                <ele>21.100000</ele>
                <time>2018-10-21T03:15:13Z</time>
            </trkpt>
            <trkpt lon="101.219636" lat="14.299778">
                <ele>21.200000</ele>
                <time>2018-10-21T03:15:14Z</time>
            </trkpt>
            <trkpt lon="101.219596" lat="14.299760">
                <ele>21.200000</ele>
                <time>2018-10-21T03:15:15Z</time>
            </trkpt>
            <trkpt lon="101.219553" lat="14.299741">
                <ele>21.300000</ele>
                <time>2018-10-21T03:15:16Z</time>
            </trkpt>
            <trkpt lon="101.219511" lat="14.299723">
                <ele>21.400000</ele>
                <time>2018-10-21T03:15:17Z</time>
            </trkpt>
            <trkpt lon="101.219471" lat="14.299706">
                <ele>21.400000</ele>
                <time>2018-10-21T03:15:18Z</time>
            </trkpt>
            <trkpt lon="101.219428" lat="14.299681">
                <ele>21.500000</ele>
                <time>2018-10-21T03:15:19Z</time>
            </trkpt>
            <trkpt lon="101.219384" lat="14.299661">
                <ele>21.600000</ele>
                <time>2018-10-21T03:15:20Z</time>
            </trkpt>
            <trkpt lon="101.219342" lat="14.299644">
                <ele>21.700000</ele>
                <time>2018-10-21T03:15:21Z</time>
            </trkpt>
            <trkpt lon="101.219302" lat="14.299626">
                <ele>21.700000</ele>
                <time>2018-10-21T03:15:22Z</time>
            </trkpt>
            <trkpt lon="101.219261" lat="14.299609">
                <ele>21.800000</ele>
                <time>2018-10-21T03:15:23Z</time>
            </trkpt>
            <trkpt lon="101.219219" lat="14.299590">
                <ele>21.800000</ele>
                <time>2018-10-21T03:15:24Z</time>
            </trkpt>
            <trkpt lon="101.219176" lat="14.299570">
                <ele>21.900000</ele>
                <time>2018-10-21T03:15:25Z</time>
            </trkpt>
            <trkpt lon="101.219132" lat="14.299543">
                <ele>22.000000</ele>
                <time>2018-10-21T03:15:26Z</time>
            </trkpt>
            <trkpt lon="101.219087" lat="14.299521">
                <ele>22.000000</ele>
                <time>2018-10-21T03:15:27Z</time>
            </trkpt>
            <trkpt lon="101.219049" lat="14.299499">
                <ele>22.000000</ele>
                <time>2018-10-21T03:15:28Z</time>
            </trkpt>
            <trkpt lon="101.219009" lat="14.299482">
                <ele>22.000000</ele>
                <time>2018-10-21T03:15:29Z</time>
            </trkpt>
            <trkpt lon="101.218969" lat="14.299463">
                <ele>22.000000</ele>
                <time>2018-10-21T03:15:30Z</time>
            </trkpt>
            <trkpt lon="101.218924" lat="14.299442">
                <ele>22.000000</ele>
                <time>2018-10-21T03:15:31Z</time>
            </trkpt>
            <trkpt lon="101.218883" lat="14.299434">
                <ele>22.000000</ele>
                <time>2018-10-21T03:15:32Z</time>
            </trkpt>
            <trkpt lon="101.218841" lat="14.299445">
                <ele>22.000000</ele>
                <time>2018-10-21T03:15:33Z</time>
            </trkpt>
            <trkpt lon="101.218805" lat="14.299460">
                <ele>21.900000</ele>
                <time>2018-10-21T03:15:34Z</time>
            </trkpt>
            <trkpt lon="101.218776" lat="14.299494">
                <ele>21.900000</ele>
                <time>2018-10-21T03:15:35Z</time>
            </trkpt>
            <trkpt lon="101.218741" lat="14.299526">
                <ele>21.900000</ele>
                <time>2018-10-21T03:15:36Z</time>
            </trkpt>
            <trkpt lon="101.218697" lat="14.299542">
                <ele>21.900000</ele>
                <time>2018-10-21T03:15:37Z</time>
            </trkpt>
            <trkpt lon="101.218656" lat="14.299544">
                <ele>21.800000</ele>
                <time>2018-10-21T03:15:38Z</time>
            </trkpt>
            <trkpt lon="101.218608" lat="14.299538">
                <ele>21.800000</ele>
                <time>2018-10-21T03:15:39Z</time>
            </trkpt>
            <trkpt lon="101.218561" lat="14.299528">
                <ele>21.800000</ele>
                <time>2018-10-21T03:15:40Z</time>
            </trkpt>
            <trkpt lon="101.218517" lat="14.299511">
                <ele>21.800000</ele>
                <time>2018-10-21T03:15:41Z</time>
            </trkpt>
            <trkpt lon="101.218473" lat="14.299485">
                <ele>21.800000</ele>
                <time>2018-10-21T03:15:42Z</time>
            </trkpt>
            <trkpt lon="101.218425" lat="14.299465">
                <ele>21.800000</ele>
                <time>2018-10-21T03:15:43Z</time>
            </trkpt>
            <trkpt lon="101.218383" lat="14.299449">
                <ele>21.800000</ele>
                <time>2018-10-21T03:15:44Z</time>
            </trkpt>
            <trkpt lon="101.218337" lat="14.299436">
                <ele>21.800000</ele>
                <time>2018-10-21T03:15:45Z</time>
            </trkpt>
            <trkpt lon="101.218294" lat="14.299425">
                <ele>21.800000</ele>
                <time>2018-10-21T03:15:46Z</time>
            </trkpt>
            <trkpt lon="101.218242" lat="14.299412">
                <ele>21.800000</ele>
                <time>2018-10-21T03:15:47Z</time>
            </trkpt>
            <trkpt lon="101.218193" lat="14.299401">
                <ele>21.800000</ele>
                <time>2018-10-21T03:15:48Z</time>
            </trkpt>
            <trkpt lon="101.218143" lat="14.299385">
                <ele>21.800000</ele>
                <time>2018-10-21T03:15:49Z</time>
            </trkpt>
            <trkpt lon="101.218093" lat="14.299370">
                <ele>21.900000</ele>
                <time>2018-10-21T03:15:50Z</time>
            </trkpt>
            <trkpt lon="101.218041" lat="14.299352">
                <ele>21.900000</ele>
                <time>2018-10-21T03:15:51Z</time>
            </trkpt>
            <trkpt lon="101.217993" lat="14.299334">
                <ele>22.000000</ele>
                <time>2018-10-21T03:15:52Z</time>
            </trkpt>
            <trkpt lon="101.217950" lat="14.299319">
                <ele>22.000000</ele>
                <time>2018-10-21T03:15:53Z</time>
            </trkpt>
            <trkpt lon="101.217901" lat="14.299309">
                <ele>22.100000</ele>
                <time>2018-10-21T03:15:54Z</time>
            </trkpt>
            <trkpt lon="101.217852" lat="14.299307">
                <ele>22.100000</ele>
                <time>2018-10-21T03:15:55Z</time>
            </trkpt>
            <trkpt lon="101.217807" lat="14.299296">
                <ele>22.200000</ele>
                <time>2018-10-21T03:15:56Z</time>
            </trkpt>
            <trkpt lon="101.217759" lat="14.299285">
                <ele>22.300000</ele>
                <time>2018-10-21T03:15:57Z</time>
            </trkpt>
            <trkpt lon="101.217714" lat="14.299271">
                <ele>22.300000</ele>
                <time>2018-10-21T03:15:58Z</time>
            </trkpt>
            <trkpt lon="101.217661" lat="14.299252">
                <ele>22.400000</ele>
                <time>2018-10-21T03:15:59Z</time>
            </trkpt>
            <trkpt lon="101.217612" lat="14.299239">
                <ele>22.500000</ele>
                <time>2018-10-21T03:16:00Z</time>
            </trkpt>
            <trkpt lon="101.217566" lat="14.299223">
                <ele>22.600000</ele>
                <time>2018-10-21T03:16:01Z</time>
            </trkpt>
            <trkpt lon="101.217522" lat="14.299201">
                <ele>22.700000</ele>
                <time>2018-10-21T03:16:02Z</time>
            </trkpt>
            <trkpt lon="101.217474" lat="14.299185">
                <ele>22.800000</ele>
                <time>2018-10-21T03:16:03Z</time>
            </trkpt>
            <trkpt lon="101.217422" lat="14.299168">
                <ele>22.900000</ele>
                <time>2018-10-21T03:16:04Z</time>
            </trkpt>
            <trkpt lon="101.217373" lat="14.299154">
                <ele>23.000000</ele>
                <time>2018-10-21T03:16:05Z</time>
            </trkpt>
            <trkpt lon="101.217325" lat="14.299136">
                <ele>23.100000</ele>
                <time>2018-10-21T03:16:06Z</time>
            </trkpt>
            <trkpt lon="101.217281" lat="14.299115">
                <ele>23.300000</ele>
                <time>2018-10-21T03:16:07Z</time>
            </trkpt>
            <trkpt lon="101.217240" lat="14.299097">
                <ele>23.400000</ele>
                <time>2018-10-21T03:16:08Z</time>
            </trkpt>
            <trkpt lon="101.217195" lat="14.299074">
                <ele>23.500000</ele>
                <time>2018-10-21T03:16:09Z</time>
            </trkpt>
            <trkpt lon="101.217153" lat="14.299047">
                <ele>23.600000</ele>
                <time>2018-10-21T03:16:10Z</time>
            </trkpt>
            <trkpt lon="101.217117" lat="14.299005">
                <ele>23.800000</ele>
                <time>2018-10-21T03:16:11Z</time>
            </trkpt>
            <trkpt lon="101.217095" lat="14.298965">
                <ele>23.900000</ele>
                <time>2018-10-21T03:16:12Z</time>
            </trkpt>
            <trkpt lon="101.217081" lat="14.298927">
                <ele>24.000000</ele>
                <time>2018-10-21T03:16:13Z</time>
            </trkpt>
            <trkpt lon="101.217069" lat="14.298880">
                <ele>24.100000</ele>
                <time>2018-10-21T03:16:14Z</time>
            </trkpt>
            <trkpt lon="101.217059" lat="14.298838">
                <ele>24.300000</ele>
                <time>2018-10-21T03:16:15Z</time>
            </trkpt>
            <trkpt lon="101.217045" lat="14.298794">
                <ele>24.400000</ele>
                <time>2018-10-21T03:16:16Z</time>
            </trkpt>
            <trkpt lon="101.217031" lat="14.298755">
                <ele>24.500000</ele>
                <time>2018-10-21T03:16:17Z</time>
            </trkpt>
            <trkpt lon="101.217018" lat="14.298716">
                <ele>24.600000</ele>
                <time>2018-10-21T03:16:18Z</time>
            </trkpt>
            <trkpt lon="101.217009" lat="14.298683">
                <ele>24.700000</ele>
                <time>2018-10-21T03:16:19Z</time>
            </trkpt>
            <trkpt lon="101.217003" lat="14.298654">
                <ele>24.800000</ele>
                <time>2018-10-21T03:16:20Z</time>
            </trkpt>
            <trkpt lon="101.217000" lat="14.298616">
                <ele>24.900000</ele>
                <time>2018-10-21T03:16:22Z</time>
            </trkpt>
            <trkpt lon="101.216964" lat="14.298595">
                <ele>25.100000</ele>
                <time>2018-10-21T03:16:37Z</time>
            </trkpt>
            <trkpt lon="101.216934" lat="14.298579">
                <ele>25.100000</ele>
                <time>2018-10-21T03:16:39Z</time>
            </trkpt>
            <trkpt lon="101.216903" lat="14.298571">
                <ele>25.100000</ele>
                <time>2018-10-21T03:16:41Z</time>
            </trkpt>
            <trkpt lon="101.216846" lat="14.298585">
                <ele>25.100000</ele>
                <time>2018-10-21T03:16:43Z</time>
            </trkpt>
            <trkpt lon="101.216818" lat="14.298587">
                <ele>25.100000</ele>
                <time>2018-10-21T03:16:44Z</time>
            </trkpt>
            <trkpt lon="101.216785" lat="14.298583">
                <ele>25.100000</ele>
                <time>2018-10-21T03:16:45Z</time>
            </trkpt>
            <trkpt lon="101.216743" lat="14.298584">
                <ele>25.100000</ele>
                <time>2018-10-21T03:16:46Z</time>
            </trkpt>
            <trkpt lon="101.216702" lat="14.298586">
                <ele>25.200000</ele>
                <time>2018-10-21T03:16:47Z</time>
            </trkpt>
            <trkpt lon="101.216666" lat="14.298580">
                <ele>25.200000</ele>
                <time>2018-10-21T03:16:48Z</time>
            </trkpt>
            <trkpt lon="101.216623" lat="14.298576">
                <ele>25.200000</ele>
                <time>2018-10-21T03:16:49Z</time>
            </trkpt>
            <trkpt lon="101.216583" lat="14.298575">
                <ele>25.200000</ele>
                <time>2018-10-21T03:16:50Z</time>
            </trkpt>
            <trkpt lon="101.216538" lat="14.298574">
                <ele>25.200000</ele>
                <time>2018-10-21T03:16:51Z</time>
            </trkpt>
            <trkpt lon="101.216492" lat="14.298574">
                <ele>25.200000</ele>
                <time>2018-10-21T03:16:52Z</time>
            </trkpt>
            <trkpt lon="101.216446" lat="14.298578">
                <ele>25.200000</ele>
                <time>2018-10-21T03:16:53Z</time>
            </trkpt>
            <trkpt lon="101.216406" lat="14.298583">
                <ele>25.200000</ele>
                <time>2018-10-21T03:16:54Z</time>
            </trkpt>
            <trkpt lon="101.216367" lat="14.298595">
                <ele>25.200000</ele>
                <time>2018-10-21T03:16:55Z</time>
            </trkpt>
            <trkpt lon="101.216334" lat="14.298610">
                <ele>25.200000</ele>
                <time>2018-10-21T03:16:56Z</time>
            </trkpt>
            <trkpt lon="101.216299" lat="14.298630">
                <ele>25.200000</ele>
                <time>2018-10-21T03:16:57Z</time>
            </trkpt>
            <trkpt lon="101.216268" lat="14.298650">
                <ele>25.200000</ele>
                <time>2018-10-21T03:16:58Z</time>
            </trkpt>
            <trkpt lon="101.216238" lat="14.298679">
                <ele>25.200000</ele>
                <time>2018-10-21T03:16:59Z</time>
            </trkpt>
            <trkpt lon="101.216216" lat="14.298710">
                <ele>25.200000</ele>
                <time>2018-10-21T03:17:00Z</time>
            </trkpt>
            <trkpt lon="101.216199" lat="14.298744">
                <ele>25.300000</ele>
                <time>2018-10-21T03:17:01Z</time>
            </trkpt>
            <trkpt lon="101.216188" lat="14.298779">
                <ele>25.300000</ele>
                <time>2018-10-21T03:17:02Z</time>
            </trkpt>
            <trkpt lon="101.216187" lat="14.298817">
                <ele>25.300000</ele>
                <time>2018-10-21T03:17:03Z</time>
            </trkpt>
            <trkpt lon="101.216177" lat="14.298843">
                <ele>25.400000</ele>
                <time>2018-10-21T03:17:04Z</time>
            </trkpt>
            <trkpt lon="101.216141" lat="14.298852">
                <ele>25.200000</ele>
                <time>2018-10-21T03:17:05Z</time>
            </trkpt>
            <trkpt lon="101.216086" lat="14.298848">
                <ele>25.100000</ele>
                <time>2018-10-21T03:17:06Z</time>
            </trkpt>
            <trkpt lon="101.216028" lat="14.298831">
                <ele>24.900000</ele>
                <time>2018-10-21T03:17:07Z</time>
            </trkpt>
            <trkpt lon="101.215975" lat="14.298819">
                <ele>24.700000</ele>
                <time>2018-10-21T03:17:08Z</time>
            </trkpt>
            <trkpt lon="101.215921" lat="14.298815">
                <ele>24.500000</ele>
                <time>2018-10-21T03:17:09Z</time>
            </trkpt>
            <trkpt lon="101.215870" lat="14.298812">
                <ele>24.400000</ele>
                <time>2018-10-21T03:17:10Z</time>
            </trkpt>
            <trkpt lon="101.215821" lat="14.298807">
                <ele>24.200000</ele>
                <time>2018-10-21T03:17:11Z</time>
            </trkpt>
            <trkpt lon="101.215770" lat="14.298807">
                <ele>24.100000</ele>
                <time>2018-10-21T03:17:12Z</time>
            </trkpt>
            <trkpt lon="101.215724" lat="14.298799">
                <ele>24.000000</ele>
                <time>2018-10-21T03:17:13Z</time>
            </trkpt>
            <trkpt lon="101.215675" lat="14.298799">
                <ele>23.800000</ele>
                <time>2018-10-21T03:17:14Z</time>
            </trkpt>
            <trkpt lon="101.215625" lat="14.298796">
                <ele>23.700000</ele>
                <time>2018-10-21T03:17:15Z</time>
            </trkpt>
            <trkpt lon="101.215576" lat="14.298786">
                <ele>23.500000</ele>
                <time>2018-10-21T03:17:16Z</time>
            </trkpt>
            <trkpt lon="101.215523" lat="14.298778">
                <ele>23.400000</ele>
                <time>2018-10-21T03:17:17Z</time>
            </trkpt>
            <trkpt lon="101.215475" lat="14.298774">
                <ele>23.300000</ele>
                <time>2018-10-21T03:17:18Z</time>
            </trkpt>
            <trkpt lon="101.215423" lat="14.298768">
                <ele>23.100000</ele>
                <time>2018-10-21T03:17:19Z</time>
            </trkpt>
            <trkpt lon="101.215372" lat="14.298762">
                <ele>23.000000</ele>
                <time>2018-10-21T03:17:20Z</time>
            </trkpt>
            <trkpt lon="101.215317" lat="14.298757">
                <ele>22.900000</ele>
                <time>2018-10-21T03:17:21Z</time>
            </trkpt>
            <trkpt lon="101.215267" lat="14.298752">
                <ele>22.800000</ele>
                <time>2018-10-21T03:17:22Z</time>
            </trkpt>
            <trkpt lon="101.215217" lat="14.298748">
                <ele>22.700000</ele>
                <time>2018-10-21T03:17:23Z</time>
            </trkpt>
            <trkpt lon="101.215168" lat="14.298743">
                <ele>22.600000</ele>
                <time>2018-10-21T03:17:24Z</time>
            </trkpt>
            <trkpt lon="101.215120" lat="14.298745">
                <ele>22.400000</ele>
                <time>2018-10-21T03:17:25Z</time>
            </trkpt>
            <trkpt lon="101.215072" lat="14.298749">
                <ele>22.300000</ele>
                <time>2018-10-21T03:17:26Z</time>
            </trkpt>
            <trkpt lon="101.215032" lat="14.298735">
                <ele>22.200000</ele>
                <time>2018-10-21T03:17:27Z</time>
            </trkpt>
            <trkpt lon="101.214994" lat="14.298705">
                <ele>21.900000</ele>
                <time>2018-10-21T03:17:28Z</time>
            </trkpt>
            <trkpt lon="101.214952" lat="14.298668">
                <ele>21.500000</ele>
                <time>2018-10-21T03:17:29Z</time>
            </trkpt>
            <trkpt lon="101.214915" lat="14.298622">
                <ele>21.100000</ele>
                <time>2018-10-21T03:17:30Z</time>
            </trkpt>
            <trkpt lon="101.214873" lat="14.298576">
                <ele>20.600000</ele>
                <time>2018-10-21T03:17:31Z</time>
            </trkpt>
            <trkpt lon="101.214822" lat="14.298539">
                <ele>20.500000</ele>
                <time>2018-10-21T03:17:32Z</time>
            </trkpt>
            <trkpt lon="101.214772" lat="14.298506">
                <ele>20.800000</ele>
                <time>2018-10-21T03:17:33Z</time>
            </trkpt>
            <trkpt lon="101.214718" lat="14.298480">
                <ele>20.900000</ele>
                <time>2018-10-21T03:17:34Z</time>
            </trkpt>
            <trkpt lon="101.214663" lat="14.298462">
                <ele>21.100000</ele>
                <time>2018-10-21T03:17:35Z</time>
            </trkpt>
            <trkpt lon="101.214614" lat="14.298450">
                <ele>21.400000</ele>
                <time>2018-10-21T03:17:36Z</time>
            </trkpt>
            <trkpt lon="101.214559" lat="14.298448">
                <ele>21.800000</ele>
                <time>2018-10-21T03:17:37Z</time>
            </trkpt>
            <trkpt lon="101.214502" lat="14.298448">
                <ele>22.300000</ele>
                <time>2018-10-21T03:17:38Z</time>
            </trkpt>
            <trkpt lon="101.214448" lat="14.298452">
                <ele>23.000000</ele>
                <time>2018-10-21T03:17:39Z</time>
            </trkpt>
            <trkpt lon="101.214402" lat="14.298463">
                <ele>23.600000</ele>
                <time>2018-10-21T03:17:40Z</time>
            </trkpt>
            <trkpt lon="101.214347" lat="14.298471">
                <ele>24.300000</ele>
                <time>2018-10-21T03:17:41Z</time>
            </trkpt>
            <trkpt lon="101.214295" lat="14.298476">
                <ele>24.700000</ele>
                <time>2018-10-21T03:17:42Z</time>
            </trkpt>
            <trkpt lon="101.214242" lat="14.298465">
                <ele>25.200000</ele>
                <time>2018-10-21T03:17:43Z</time>
            </trkpt>
            <trkpt lon="101.214192" lat="14.298436">
                <ele>25.300000</ele>
                <time>2018-10-21T03:17:44Z</time>
            </trkpt>
            <trkpt lon="101.214156" lat="14.298400">
                <ele>25.000000</ele>
                <time>2018-10-21T03:17:45Z</time>
            </trkpt>
            <trkpt lon="101.214127" lat="14.298346">
                <ele>24.500000</ele>
                <time>2018-10-21T03:17:46Z</time>
            </trkpt>
            <trkpt lon="101.214111" lat="14.298292">
                <ele>23.900000</ele>
                <time>2018-10-21T03:17:47Z</time>
            </trkpt>
            <trkpt lon="101.214094" lat="14.298247">
                <ele>23.400000</ele>
                <time>2018-10-21T03:17:48Z</time>
            </trkpt>
            <trkpt lon="101.214082" lat="14.298197">
                <ele>23.000000</ele>
                <time>2018-10-21T03:17:49Z</time>
            </trkpt>
            <trkpt lon="101.214076" lat="14.298155">
                <ele>22.800000</ele>
                <time>2018-10-21T03:17:50Z</time>
            </trkpt>
            <trkpt lon="101.214062" lat="14.298112">
                <ele>22.500000</ele>
                <time>2018-10-21T03:17:51Z</time>
            </trkpt>
            <trkpt lon="101.214054" lat="14.298068">
                <ele>22.500000</ele>
                <time>2018-10-21T03:17:52Z</time>
            </trkpt>
            <trkpt lon="101.214039" lat="14.298034">
                <ele>22.500000</ele>
                <time>2018-10-21T03:17:53Z</time>
            </trkpt>
            <trkpt lon="101.214018" lat="14.297994">
                <ele>22.600000</ele>
                <time>2018-10-21T03:17:54Z</time>
            </trkpt>
            <trkpt lon="101.214003" lat="14.297957">
                <ele>22.900000</ele>
                <time>2018-10-21T03:17:55Z</time>
            </trkpt>
            <trkpt lon="101.213990" lat="14.297925">
                <ele>23.100000</ele>
                <time>2018-10-21T03:17:56Z</time>
            </trkpt>
            <trkpt lon="101.213974" lat="14.297892">
                <ele>23.300000</ele>
                <time>2018-10-21T03:17:57Z</time>
            </trkpt>
            <trkpt lon="101.213958" lat="14.297861">
                <ele>23.600000</ele>
                <time>2018-10-21T03:17:58Z</time>
            </trkpt>
            <trkpt lon="101.213946" lat="14.297827">
                <ele>23.900000</ele>
                <time>2018-10-21T03:17:59Z</time>
            </trkpt>
            <trkpt lon="101.213936" lat="14.297793">
                <ele>24.300000</ele>
                <time>2018-10-21T03:18:00Z</time>
            </trkpt>
            <trkpt lon="101.213923" lat="14.297762">
                <ele>24.600000</ele>
                <time>2018-10-21T03:18:01Z</time>
            </trkpt>
            <trkpt lon="101.213906" lat="14.297733">
                <ele>24.800000</ele>
                <time>2018-10-21T03:18:02Z</time>
            </trkpt>
            <trkpt lon="101.213888" lat="14.297705">
                <ele>25.100000</ele>
                <time>2018-10-21T03:18:03Z</time>
            </trkpt>
            <trkpt lon="101.213874" lat="14.297678">
                <ele>25.300000</ele>
                <time>2018-10-21T03:18:04Z</time>
            </trkpt>
            <trkpt lon="101.213861" lat="14.297651">
                <ele>25.500000</ele>
                <time>2018-10-21T03:18:05Z</time>
            </trkpt>
            <trkpt lon="101.213850" lat="14.297622">
                <ele>25.800000</ele>
                <time>2018-10-21T03:18:06Z</time>
            </trkpt>
            <trkpt lon="101.213843" lat="14.297587">
                <ele>26.200000</ele>
                <time>2018-10-21T03:18:07Z</time>
            </trkpt>
            <trkpt lon="101.213832" lat="14.297540">
                <ele>26.700000</ele>
                <time>2018-10-21T03:18:09Z</time>
            </trkpt>
            <trkpt lon="101.213816" lat="14.297501">
                <ele>27.300000</ele>
                <time>2018-10-21T03:18:11Z</time>
            </trkpt>
            <trkpt lon="101.213796" lat="14.297470">
                <ele>27.800000</ele>
                <time>2018-10-21T03:18:13Z</time>
            </trkpt>
            <trkpt lon="101.213767" lat="14.297457">
                <ele>28.200000</ele>
                <time>2018-10-21T03:18:15Z</time>
            </trkpt>
            <trkpt lon="101.213752" lat="14.297432">
                <ele>28.500000</ele>
                <time>2018-10-21T03:18:37Z</time>
            </trkpt>
            <trkpt lon="101.213756" lat="14.297400">
                <ele>28.900000</ele>
                <time>2018-10-21T03:18:41Z</time>
            </trkpt>
            <trkpt lon="101.213771" lat="14.297376">
                <ele>29.200000</ele>
                <time>2018-10-21T03:18:45Z</time>
            </trkpt>
            <trkpt lon="101.213798" lat="14.297369">
                <ele>29.300000</ele>
                <time>2018-10-21T03:18:59Z</time>
            </trkpt>
            <trkpt lon="101.213752" lat="14.297327">
                <ele>29.700000</ele>
                <time>2018-10-21T03:20:08Z</time>
            </trkpt>
            <trkpt lon="101.213725" lat="14.297302">
                <ele>29.900000</ele>
                <time>2018-10-21T03:20:12Z</time>
            </trkpt>
            <trkpt lon="101.213715" lat="14.297272">
                <ele>30.000000</ele>
                <time>2018-10-21T03:20:14Z</time>
            </trkpt>
            <trkpt lon="101.213700" lat="14.297231">
                <ele>30.100000</ele>
                <time>2018-10-21T03:20:16Z</time>
            </trkpt>
            <trkpt lon="101.213689" lat="14.297205">
                <ele>30.200000</ele>
                <time>2018-10-21T03:20:17Z</time>
            </trkpt>
            <trkpt lon="101.213671" lat="14.297161">
                <ele>30.200000</ele>
                <time>2018-10-21T03:20:19Z</time>
            </trkpt>
            <trkpt lon="101.213658" lat="14.297132">
                <ele>30.200000</ele>
                <time>2018-10-21T03:20:20Z</time>
            </trkpt>
            <trkpt lon="101.213644" lat="14.297107">
                <ele>30.200000</ele>
                <time>2018-10-21T03:20:21Z</time>
            </trkpt>
            <trkpt lon="101.213613" lat="14.297059">
                <ele>30.200000</ele>
                <time>2018-10-21T03:20:23Z</time>
            </trkpt>
            <trkpt lon="101.213593" lat="14.297034">
                <ele>30.200000</ele>
                <time>2018-10-21T03:20:24Z</time>
            </trkpt>
            <trkpt lon="101.213577" lat="14.297007">
                <ele>30.200000</ele>
                <time>2018-10-21T03:20:25Z</time>
            </trkpt>
            <trkpt lon="101.213554" lat="14.296985">
                <ele>30.200000</ele>
                <time>2018-10-21T03:20:26Z</time>
            </trkpt>
            <trkpt lon="101.213530" lat="14.296964">
                <ele>30.100000</ele>
                <time>2018-10-21T03:20:27Z</time>
            </trkpt>
            <trkpt lon="101.213511" lat="14.296942">
                <ele>30.000000</ele>
                <time>2018-10-21T03:20:28Z</time>
            </trkpt>
            <trkpt lon="101.213490" lat="14.296923">
                <ele>29.900000</ele>
                <time>2018-10-21T03:20:29Z</time>
            </trkpt>
            <trkpt lon="101.213449" lat="14.296892">
                <ele>29.300000</ele>
                <time>2018-10-21T03:20:31Z</time>
            </trkpt>
            <trkpt lon="101.213424" lat="14.296877">
                <ele>29.000000</ele>
                <time>2018-10-21T03:20:32Z</time>
            </trkpt>
            <trkpt lon="101.213396" lat="14.296854">
                <ele>28.700000</ele>
                <time>2018-10-21T03:20:33Z</time>
            </trkpt>
            <trkpt lon="101.213369" lat="14.296823">
                <ele>28.400000</ele>
                <time>2018-10-21T03:20:34Z</time>
            </trkpt>
            <trkpt lon="101.213348" lat="14.296789">
                <ele>28.400000</ele>
                <time>2018-10-21T03:20:35Z</time>
            </trkpt>
            <trkpt lon="101.213326" lat="14.296760">
                <ele>28.300000</ele>
                <time>2018-10-21T03:20:36Z</time>
            </trkpt>
            <trkpt lon="101.213311" lat="14.296723">
                <ele>28.300000</ele>
                <time>2018-10-21T03:20:37Z</time>
            </trkpt>
            <trkpt lon="101.213298" lat="14.296693">
                <ele>28.200000</ele>
                <time>2018-10-21T03:20:38Z</time>
            </trkpt>
            <trkpt lon="101.213292" lat="14.296659">
                <ele>28.000000</ele>
                <time>2018-10-21T03:20:39Z</time>
            </trkpt>
            <trkpt lon="101.213288" lat="14.296619">
                <ele>28.000000</ele>
                <time>2018-10-21T03:20:40Z</time>
            </trkpt>
            <trkpt lon="101.213283" lat="14.296573">
                <ele>28.000000</ele>
                <time>2018-10-21T03:20:41Z</time>
            </trkpt>
            <trkpt lon="101.213279" lat="14.296521">
                <ele>27.900000</ele>
                <time>2018-10-21T03:20:42Z</time>
            </trkpt>
            <trkpt lon="101.213278" lat="14.296472">
                <ele>27.800000</ele>
                <time>2018-10-21T03:20:43Z</time>
            </trkpt>
            <trkpt lon="101.213271" lat="14.296429">
                <ele>27.800000</ele>
                <time>2018-10-21T03:20:44Z</time>
            </trkpt>
            <trkpt lon="101.213263" lat="14.296388">
                <ele>27.900000</ele>
                <time>2018-10-21T03:20:45Z</time>
            </trkpt>
            <trkpt lon="101.213255" lat="14.296348">
                <ele>28.000000</ele>
                <time>2018-10-21T03:20:46Z</time>
            </trkpt>
            <trkpt lon="101.213248" lat="14.296310">
                <ele>28.100000</ele>
                <time>2018-10-21T03:20:47Z</time>
            </trkpt>
            <trkpt lon="101.213245" lat="14.296268">
                <ele>28.100000</ele>
                <time>2018-10-21T03:20:48Z</time>
            </trkpt>
            <trkpt lon="101.213241" lat="14.296226">
                <ele>28.000000</ele>
                <time>2018-10-21T03:20:49Z</time>
            </trkpt>
            <trkpt lon="101.213233" lat="14.296179">
                <ele>28.000000</ele>
                <time>2018-10-21T03:20:50Z</time>
            </trkpt>
            <trkpt lon="101.213220" lat="14.296141">
                <ele>28.000000</ele>
                <time>2018-10-21T03:20:51Z</time>
            </trkpt>
            <trkpt lon="101.213206" lat="14.296102">
                <ele>28.000000</ele>
                <time>2018-10-21T03:20:52Z</time>
            </trkpt>
            <trkpt lon="101.213187" lat="14.296066">
                <ele>27.900000</ele>
                <time>2018-10-21T03:20:53Z</time>
            </trkpt>
            <trkpt lon="101.213171" lat="14.296021">
                <ele>27.800000</ele>
                <time>2018-10-21T03:20:54Z</time>
            </trkpt>
            <trkpt lon="101.213153" lat="14.295981">
                <ele>27.600000</ele>
                <time>2018-10-21T03:20:55Z</time>
            </trkpt>
            <trkpt lon="101.213129" lat="14.295955">
                <ele>27.600000</ele>
                <time>2018-10-21T03:20:56Z</time>
            </trkpt>
            <trkpt lon="101.213106" lat="14.295930">
                <ele>27.500000</ele>
                <time>2018-10-21T03:20:57Z</time>
            </trkpt>
            <trkpt lon="101.213081" lat="14.295900">
                <ele>27.600000</ele>
                <time>2018-10-21T03:20:58Z</time>
            </trkpt>
            <trkpt lon="101.213055" lat="14.295867">
                <ele>27.500000</ele>
                <time>2018-10-21T03:20:59Z</time>
            </trkpt>
            <trkpt lon="101.213031" lat="14.295827">
                <ele>27.300000</ele>
                <time>2018-10-21T03:21:00Z</time>
            </trkpt>
            <trkpt lon="101.213011" lat="14.295788">
                <ele>27.100000</ele>
                <time>2018-10-21T03:21:01Z</time>
            </trkpt>
            <trkpt lon="101.212981" lat="14.295755">
                <ele>26.900000</ele>
                <time>2018-10-21T03:21:02Z</time>
            </trkpt>
            <trkpt lon="101.212954" lat="14.295720">
                <ele>26.600000</ele>
                <time>2018-10-21T03:21:03Z</time>
            </trkpt>
            <trkpt lon="101.212929" lat="14.295681">
                <ele>26.100000</ele>
                <time>2018-10-21T03:21:04Z</time>
            </trkpt>
            <trkpt lon="101.212905" lat="14.295642">
                <ele>25.600000</ele>
                <time>2018-10-21T03:21:05Z</time>
            </trkpt>
            <trkpt lon="101.212884" lat="14.295606">
                <ele>25.200000</ele>
                <time>2018-10-21T03:21:06Z</time>
            </trkpt>
            <trkpt lon="101.212864" lat="14.295565">
                <ele>24.800000</ele>
                <time>2018-10-21T03:21:07Z</time>
            </trkpt>
            <trkpt lon="101.212837" lat="14.295525">
                <ele>24.300000</ele>
                <time>2018-10-21T03:21:08Z</time>
            </trkpt>
            <trkpt lon="101.212814" lat="14.295485">
                <ele>23.900000</ele>
                <time>2018-10-21T03:21:09Z</time>
            </trkpt>
            <trkpt lon="101.212790" lat="14.295450">
                <ele>23.700000</ele>
                <time>2018-10-21T03:21:10Z</time>
            </trkpt>
            <trkpt lon="101.212763" lat="14.295414">
                <ele>23.400000</ele>
                <time>2018-10-21T03:21:11Z</time>
            </trkpt>
            <trkpt lon="101.212736" lat="14.295379">
                <ele>23.000000</ele>
                <time>2018-10-21T03:21:12Z</time>
            </trkpt>
            <trkpt lon="101.212710" lat="14.295341">
                <ele>22.700000</ele>
                <time>2018-10-21T03:21:13Z</time>
            </trkpt>
            <trkpt lon="101.212683" lat="14.295305">
                <ele>22.300000</ele>
                <time>2018-10-21T03:21:14Z</time>
            </trkpt>
            <trkpt lon="101.212655" lat="14.295268">
                <ele>22.100000</ele>
                <time>2018-10-21T03:21:15Z</time>
            </trkpt>
            <trkpt lon="101.212626" lat="14.295232">
                <ele>22.000000</ele>
                <time>2018-10-21T03:21:16Z</time>
            </trkpt>
            <trkpt lon="101.212601" lat="14.295196">
                <ele>21.800000</ele>
                <time>2018-10-21T03:21:17Z</time>
            </trkpt>
            <trkpt lon="101.212571" lat="14.295159">
                <ele>21.500000</ele>
                <time>2018-10-21T03:21:18Z</time>
            </trkpt>
            <trkpt lon="101.212540" lat="14.295119">
                <ele>21.300000</ele>
                <time>2018-10-21T03:21:19Z</time>
            </trkpt>
            <trkpt lon="101.212503" lat="14.295077">
                <ele>21.100000</ele>
                <time>2018-10-21T03:21:20Z</time>
            </trkpt>
            <trkpt lon="101.212471" lat="14.295036">
                <ele>20.900000</ele>
                <time>2018-10-21T03:21:21Z</time>
            </trkpt>
            <trkpt lon="101.212438" lat="14.294993">
                <ele>20.800000</ele>
                <time>2018-10-21T03:21:22Z</time>
            </trkpt>
            <trkpt lon="101.212406" lat="14.294954">
                <ele>20.600000</ele>
                <time>2018-10-21T03:21:23Z</time>
            </trkpt>
            <trkpt lon="101.212376" lat="14.294911">
                <ele>20.500000</ele>
                <time>2018-10-21T03:21:24Z</time>
            </trkpt>
            <trkpt lon="101.212346" lat="14.294868">
                <ele>20.500000</ele>
                <time>2018-10-21T03:21:25Z</time>
            </trkpt>
            <trkpt lon="101.212317" lat="14.294830">
                <ele>20.400000</ele>
                <time>2018-10-21T03:21:26Z</time>
            </trkpt>
            <trkpt lon="101.212289" lat="14.294790">
                <ele>20.300000</ele>
                <time>2018-10-21T03:21:27Z</time>
            </trkpt>
            <trkpt lon="101.212262" lat="14.294746">
                <ele>20.100000</ele>
                <time>2018-10-21T03:21:28Z</time>
            </trkpt>
            <trkpt lon="101.212233" lat="14.294703">
                <ele>19.900000</ele>
                <time>2018-10-21T03:21:29Z</time>
            </trkpt>
            <trkpt lon="101.212206" lat="14.294663">
                <ele>19.900000</ele>
                <time>2018-10-21T03:21:30Z</time>
            </trkpt>
            <trkpt lon="101.212179" lat="14.294624">
                <ele>19.900000</ele>
                <time>2018-10-21T03:21:31Z</time>
            </trkpt>
            <trkpt lon="101.212149" lat="14.294589">
                <ele>19.900000</ele>
                <time>2018-10-21T03:21:32Z</time>
            </trkpt>
            <trkpt lon="101.212125" lat="14.294549">
                <ele>19.900000</ele>
                <time>2018-10-21T03:21:33Z</time>
            </trkpt>
            <trkpt lon="101.212096" lat="14.294513">
                <ele>19.900000</ele>
                <time>2018-10-21T03:21:34Z</time>
            </trkpt>
            <trkpt lon="101.212070" lat="14.294474">
                <ele>19.800000</ele>
                <time>2018-10-21T03:21:35Z</time>
            </trkpt>
            <trkpt lon="101.212041" lat="14.294435">
                <ele>19.400000</ele>
                <time>2018-10-21T03:21:36Z</time>
            </trkpt>
            <trkpt lon="101.212014" lat="14.294403">
                <ele>19.200000</ele>
                <time>2018-10-21T03:21:37Z</time>
            </trkpt>
            <trkpt lon="101.211982" lat="14.294369">
                <ele>19.300000</ele>
                <time>2018-10-21T03:21:38Z</time>
            </trkpt>
            <trkpt lon="101.211951" lat="14.294338">
                <ele>19.400000</ele>
                <time>2018-10-21T03:21:39Z</time>
            </trkpt>
            <trkpt lon="101.211917" lat="14.294313">
                <ele>19.500000</ele>
                <time>2018-10-21T03:21:40Z</time>
            </trkpt>
            <trkpt lon="101.211881" lat="14.294300">
                <ele>19.600000</ele>
                <time>2018-10-21T03:21:41Z</time>
            </trkpt>
            <trkpt lon="101.211834" lat="14.294294">
                <ele>19.600000</ele>
                <time>2018-10-21T03:21:42Z</time>
            </trkpt>
            <trkpt lon="101.211781" lat="14.294302">
                <ele>19.800000</ele>
                <time>2018-10-21T03:21:43Z</time>
            </trkpt>
            <trkpt lon="101.211739" lat="14.294314">
                <ele>20.000000</ele>
                <time>2018-10-21T03:21:44Z</time>
            </trkpt>
            <trkpt lon="101.211707" lat="14.294316">
                <ele>20.100000</ele>
                <time>2018-10-21T03:21:45Z</time>
            </trkpt>
            <trkpt lon="101.211658" lat="14.294326">
                <ele>20.400000</ele>
                <time>2018-10-21T03:21:47Z</time>
            </trkpt>
            <trkpt lon="101.211606" lat="14.294339">
                <ele>20.700000</ele>
                <time>2018-10-21T03:21:49Z</time>
            </trkpt>
            <trkpt lon="101.211577" lat="14.294343">
                <ele>20.900000</ele>
                <time>2018-10-21T03:21:50Z</time>
            </trkpt>
            <trkpt lon="101.211545" lat="14.294342">
                <ele>21.100000</ele>
                <time>2018-10-21T03:21:51Z</time>
            </trkpt>
            <trkpt lon="101.211493" lat="14.294354">
                <ele>21.300000</ele>
                <time>2018-10-21T03:21:53Z</time>
            </trkpt>
            <trkpt lon="101.211439" lat="14.294364">
                <ele>21.500000</ele>
                <time>2018-10-21T03:21:55Z</time>
            </trkpt>
            <trkpt lon="101.211406" lat="14.294370">
                <ele>21.600000</ele>
                <time>2018-10-21T03:21:56Z</time>
            </trkpt>
            <trkpt lon="101.211375" lat="14.294372">
                <ele>21.500000</ele>
                <time>2018-10-21T03:21:57Z</time>
            </trkpt>
            <trkpt lon="101.211344" lat="14.294380">
                <ele>21.500000</ele>
                <time>2018-10-21T03:21:58Z</time>
            </trkpt>
            <trkpt lon="101.211312" lat="14.294383">
                <ele>21.500000</ele>
                <time>2018-10-21T03:21:59Z</time>
            </trkpt>
            <trkpt lon="101.211278" lat="14.294389">
                <ele>21.600000</ele>
                <time>2018-10-21T03:22:00Z</time>
            </trkpt>
            <trkpt lon="101.211244" lat="14.294392">
                <ele>21.600000</ele>
                <time>2018-10-21T03:22:01Z</time>
            </trkpt>
            <trkpt lon="101.211211" lat="14.294397">
                <ele>21.600000</ele>
                <time>2018-10-21T03:22:02Z</time>
            </trkpt>
            <trkpt lon="101.211183" lat="14.294410">
                <ele>21.600000</ele>
                <time>2018-10-21T03:22:03Z</time>
            </trkpt>
            <trkpt lon="101.211147" lat="14.294417">
                <ele>21.700000</ele>
                <time>2018-10-21T03:22:04Z</time>
            </trkpt>
            <trkpt lon="101.211110" lat="14.294423">
                <ele>21.700000</ele>
                <time>2018-10-21T03:22:05Z</time>
            </trkpt>
            <trkpt lon="101.211073" lat="14.294427">
                <ele>21.700000</ele>
                <time>2018-10-21T03:22:06Z</time>
            </trkpt>
            <trkpt lon="101.211036" lat="14.294425">
                <ele>21.500000</ele>
                <time>2018-10-21T03:22:07Z</time>
            </trkpt>
            <trkpt lon="101.210995" lat="14.294431">
                <ele>21.300000</ele>
                <time>2018-10-21T03:22:08Z</time>
            </trkpt>
            <trkpt lon="101.210958" lat="14.294440">
                <ele>21.200000</ele>
                <time>2018-10-21T03:22:09Z</time>
            </trkpt>
            <trkpt lon="101.210928" lat="14.294442">
                <ele>21.200000</ele>
                <time>2018-10-21T03:22:10Z</time>
            </trkpt>
            <trkpt lon="101.210898" lat="14.294448">
                <ele>21.200000</ele>
                <time>2018-10-21T03:22:11Z</time>
            </trkpt>
            <trkpt lon="101.210863" lat="14.294457">
                <ele>21.200000</ele>
                <time>2018-10-21T03:22:12Z</time>
            </trkpt>
            <trkpt lon="101.210828" lat="14.294463">
                <ele>21.200000</ele>
                <time>2018-10-21T03:22:13Z</time>
            </trkpt>
            <trkpt lon="101.210794" lat="14.294468">
                <ele>21.200000</ele>
                <time>2018-10-21T03:22:14Z</time>
            </trkpt>
            <trkpt lon="101.210763" lat="14.294475">
                <ele>21.200000</ele>
                <time>2018-10-21T03:22:15Z</time>
            </trkpt>
            <trkpt lon="101.210725" lat="14.294483">
                <ele>21.200000</ele>
                <time>2018-10-21T03:22:16Z</time>
            </trkpt>
            <trkpt lon="101.210688" lat="14.294491">
                <ele>21.200000</ele>
                <time>2018-10-21T03:22:17Z</time>
            </trkpt>
            <trkpt lon="101.210645" lat="14.294494">
                <ele>21.200000</ele>
                <time>2018-10-21T03:22:18Z</time>
            </trkpt>
            <trkpt lon="101.210596" lat="14.294495">
                <ele>21.300000</ele>
                <time>2018-10-21T03:22:19Z</time>
            </trkpt>
            <trkpt lon="101.210561" lat="14.294500">
                <ele>21.300000</ele>
                <time>2018-10-21T03:22:20Z</time>
            </trkpt>
            <trkpt lon="101.210523" lat="14.294505">
                <ele>21.400000</ele>
                <time>2018-10-21T03:22:21Z</time>
            </trkpt>
            <trkpt lon="101.210491" lat="14.294514">
                <ele>21.400000</ele>
                <time>2018-10-21T03:22:22Z</time>
            </trkpt>
            <trkpt lon="101.210459" lat="14.294522">
                <ele>21.500000</ele>
                <time>2018-10-21T03:22:23Z</time>
            </trkpt>
            <trkpt lon="101.210422" lat="14.294525">
                <ele>21.600000</ele>
                <time>2018-10-21T03:22:24Z</time>
            </trkpt>
            <trkpt lon="101.210384" lat="14.294531">
                <ele>21.700000</ele>
                <time>2018-10-21T03:22:25Z</time>
            </trkpt>
            <trkpt lon="101.210353" lat="14.294534">
                <ele>21.800000</ele>
                <time>2018-10-21T03:22:26Z</time>
            </trkpt>
            <trkpt lon="101.210319" lat="14.294539">
                <ele>21.900000</ele>
                <time>2018-10-21T03:22:27Z</time>
            </trkpt>
            <trkpt lon="101.210291" lat="14.294548">
                <ele>22.000000</ele>
                <time>2018-10-21T03:22:28Z</time>
            </trkpt>
            <trkpt lon="101.210247" lat="14.294560">
                <ele>22.200000</ele>
                <time>2018-10-21T03:22:30Z</time>
            </trkpt>
            <trkpt lon="101.210210" lat="14.294561">
                <ele>22.200000</ele>
                <time>2018-10-21T03:22:32Z</time>
            </trkpt>
            <trkpt lon="101.210181" lat="14.294558">
                <ele>22.300000</ele>
                <time>2018-10-21T03:22:34Z</time>
            </trkpt>
            <trkpt lon="101.210141" lat="14.294566">
                <ele>22.400000</ele>
                <time>2018-10-21T03:22:36Z</time>
            </trkpt>
            <trkpt lon="101.210113" lat="14.294574">
                <ele>22.400000</ele>
                <time>2018-10-21T03:22:38Z</time>
            </trkpt>
            <trkpt lon="101.210073" lat="14.294589">
                <ele>22.500000</ele>
                <time>2018-10-21T03:22:40Z</time>
            </trkpt>
            <trkpt lon="101.210036" lat="14.294597">
                <ele>22.500000</ele>
                <time>2018-10-21T03:22:42Z</time>
            </trkpt>
            <trkpt lon="101.209991" lat="14.294600">
                <ele>22.700000</ele>
                <time>2018-10-21T03:22:44Z</time>
            </trkpt>
            <trkpt lon="101.209952" lat="14.294616">
                <ele>22.900000</ele>
                <time>2018-10-21T03:22:46Z</time>
            </trkpt>
            <trkpt lon="101.209921" lat="14.294630">
                <ele>23.000000</ele>
                <time>2018-10-21T03:22:48Z</time>
            </trkpt>
            <trkpt lon="101.209891" lat="14.294652">
                <ele>23.200000</ele>
                <time>2018-10-21T03:22:50Z</time>
            </trkpt>
            <trkpt lon="101.209859" lat="14.294666">
                <ele>23.400000</ele>
                <time>2018-10-21T03:22:52Z</time>
            </trkpt>
            <trkpt lon="101.209817" lat="14.294679">
                <ele>23.600000</ele>
                <time>2018-10-21T03:22:54Z</time>
            </trkpt>
            <trkpt lon="101.209776" lat="14.294687">
                <ele>23.900000</ele>
                <time>2018-10-21T03:22:56Z</time>
            </trkpt>
            <trkpt lon="101.209746" lat="14.294696">
                <ele>24.000000</ele>
                <time>2018-10-21T03:22:58Z</time>
            </trkpt>
            <trkpt lon="101.209704" lat="14.294716">
                <ele>24.100000</ele>
                <time>2018-10-21T03:23:00Z</time>
            </trkpt>
            <trkpt lon="101.209664" lat="14.294740">
                <ele>24.200000</ele>
                <time>2018-10-21T03:23:02Z</time>
            </trkpt>
            <trkpt lon="101.209637" lat="14.294754">
                <ele>24.300000</ele>
                <time>2018-10-21T03:23:03Z</time>
            </trkpt>
            <trkpt lon="101.209609" lat="14.294768">
                <ele>24.300000</ele>
                <time>2018-10-21T03:23:04Z</time>
            </trkpt>
            <trkpt lon="101.209570" lat="14.294784">
                <ele>24.500000</ele>
                <time>2018-10-21T03:23:05Z</time>
            </trkpt>
            <trkpt lon="101.209539" lat="14.294796">
                <ele>24.700000</ele>
                <time>2018-10-21T03:23:06Z</time>
            </trkpt>
            <trkpt lon="101.209512" lat="14.294817">
                <ele>24.800000</ele>
                <time>2018-10-21T03:23:07Z</time>
            </trkpt>
            <trkpt lon="101.209485" lat="14.294842">
                <ele>24.900000</ele>
                <time>2018-10-21T03:23:08Z</time>
            </trkpt>
            <trkpt lon="101.209461" lat="14.294868">
                <ele>25.000000</ele>
                <time>2018-10-21T03:23:09Z</time>
            </trkpt>
            <trkpt lon="101.209427" lat="14.294897">
                <ele>25.000000</ele>
                <time>2018-10-21T03:23:10Z</time>
            </trkpt>
            <trkpt lon="101.209386" lat="14.294922">
                <ele>25.000000</ele>
                <time>2018-10-21T03:23:11Z</time>
            </trkpt>
            <trkpt lon="101.209349" lat="14.294949">
                <ele>24.900000</ele>
                <time>2018-10-21T03:23:12Z</time>
            </trkpt>
            <trkpt lon="101.209316" lat="14.294977">
                <ele>24.800000</ele>
                <time>2018-10-21T03:23:13Z</time>
            </trkpt>
            <trkpt lon="101.209281" lat="14.294995">
                <ele>24.800000</ele>
                <time>2018-10-21T03:23:14Z</time>
            </trkpt>
            <trkpt lon="101.209238" lat="14.295017">
                <ele>24.900000</ele>
                <time>2018-10-21T03:23:15Z</time>
            </trkpt>
            <trkpt lon="101.209185" lat="14.295033">
                <ele>24.900000</ele>
                <time>2018-10-21T03:23:16Z</time>
            </trkpt>
            <trkpt lon="101.209133" lat="14.295052">
                <ele>24.800000</ele>
                <time>2018-10-21T03:23:17Z</time>
            </trkpt>
            <trkpt lon="101.209090" lat="14.295079">
                <ele>24.800000</ele>
                <time>2018-10-21T03:23:18Z</time>
            </trkpt>
            <trkpt lon="101.209048" lat="14.295095">
                <ele>24.800000</ele>
                <time>2018-10-21T03:23:19Z</time>
            </trkpt>
            <trkpt lon="101.209016" lat="14.295110">
                <ele>24.900000</ele>
                <time>2018-10-21T03:23:20Z</time>
            </trkpt>
            <trkpt lon="101.208980" lat="14.295121">
                <ele>25.000000</ele>
                <time>2018-10-21T03:23:21Z</time>
            </trkpt>
            <trkpt lon="101.208942" lat="14.295123">
                <ele>25.000000</ele>
                <time>2018-10-21T03:23:22Z</time>
            </trkpt>
            <trkpt lon="101.208907" lat="14.295115">
                <ele>25.000000</ele>
                <time>2018-10-21T03:23:23Z</time>
            </trkpt>
            <trkpt lon="101.208875" lat="14.295098">
                <ele>25.000000</ele>
                <time>2018-10-21T03:23:24Z</time>
            </trkpt>
            <trkpt lon="101.208844" lat="14.295079">
                <ele>25.200000</ele>
                <time>2018-10-21T03:23:25Z</time>
            </trkpt>
            <trkpt lon="101.208812" lat="14.295054">
                <ele>25.400000</ele>
                <time>2018-10-21T03:23:26Z</time>
            </trkpt>
            <trkpt lon="101.208770" lat="14.295036">
                <ele>25.500000</ele>
                <time>2018-10-21T03:23:27Z</time>
            </trkpt>
            <trkpt lon="101.208727" lat="14.295021">
                <ele>25.500000</ele>
                <time>2018-10-21T03:23:28Z</time>
            </trkpt>
            <trkpt lon="101.208697" lat="14.295011">
                <ele>25.500000</ele>
                <time>2018-10-21T03:23:29Z</time>
            </trkpt>
            <trkpt lon="101.208664" lat="14.295006">
                <ele>25.600000</ele>
                <time>2018-10-21T03:23:30Z</time>
            </trkpt>
            <trkpt lon="101.208625" lat="14.295007">
                <ele>25.600000</ele>
                <time>2018-10-21T03:23:31Z</time>
            </trkpt>
            <trkpt lon="101.208576" lat="14.295008">
                <ele>25.900000</ele>
                <time>2018-10-21T03:23:32Z</time>
            </trkpt>
            <trkpt lon="101.208533" lat="14.294999">
                <ele>26.100000</ele>
                <time>2018-10-21T03:23:33Z</time>
            </trkpt>
            <trkpt lon="101.208494" lat="14.294987">
                <ele>26.100000</ele>
                <time>2018-10-21T03:23:34Z</time>
            </trkpt>
            <trkpt lon="101.208457" lat="14.294974">
                <ele>26.100000</ele>
                <time>2018-10-21T03:23:35Z</time>
            </trkpt>
            <trkpt lon="101.208432" lat="14.294951">
                <ele>26.100000</ele>
                <time>2018-10-21T03:23:36Z</time>
            </trkpt>
            <trkpt lon="101.208415" lat="14.294921">
                <ele>26.100000</ele>
                <time>2018-10-21T03:23:37Z</time>
            </trkpt>
            <trkpt lon="101.208393" lat="14.294884">
                <ele>25.800000</ele>
                <time>2018-10-21T03:23:38Z</time>
            </trkpt>
            <trkpt lon="101.208381" lat="14.294851">
                <ele>25.600000</ele>
                <time>2018-10-21T03:23:39Z</time>
            </trkpt>
            <trkpt lon="101.208370" lat="14.294818">
                <ele>25.400000</ele>
                <time>2018-10-21T03:23:40Z</time>
            </trkpt>
            <trkpt lon="101.208351" lat="14.294793">
                <ele>25.200000</ele>
                <time>2018-10-21T03:23:41Z</time>
            </trkpt>
            <trkpt lon="101.208295" lat="14.294789">
                <ele>24.600000</ele>
                <time>2018-10-21T03:23:43Z</time>
            </trkpt>
            <trkpt lon="101.208252" lat="14.294802">
                <ele>24.600000</ele>
                <time>2018-10-21T03:23:45Z</time>
            </trkpt>
            <trkpt lon="101.208220" lat="14.294811">
                <ele>24.700000</ele>
                <time>2018-10-21T03:23:46Z</time>
            </trkpt>
            <trkpt lon="101.208188" lat="14.294835">
                <ele>24.800000</ele>
                <time>2018-10-21T03:23:47Z</time>
            </trkpt>
            <trkpt lon="101.208158" lat="14.294859">
                <ele>25.000000</ele>
                <time>2018-10-21T03:23:48Z</time>
            </trkpt>
            <trkpt lon="101.208129" lat="14.294872">
                <ele>25.200000</ele>
                <time>2018-10-21T03:23:49Z</time>
            </trkpt>
            <trkpt lon="101.208103" lat="14.294891">
                <ele>25.400000</ele>
                <time>2018-10-21T03:23:50Z</time>
            </trkpt>
            <trkpt lon="101.208079" lat="14.294914">
                <ele>25.500000</ele>
                <time>2018-10-21T03:23:51Z</time>
            </trkpt>
            <trkpt lon="101.208053" lat="14.294939">
                <ele>25.700000</ele>
                <time>2018-10-21T03:23:52Z</time>
            </trkpt>
            <trkpt lon="101.208034" lat="14.294969">
                <ele>25.800000</ele>
                <time>2018-10-21T03:23:53Z</time>
            </trkpt>
            <trkpt lon="101.208020" lat="14.295003">
                <ele>25.900000</ele>
                <time>2018-10-21T03:23:54Z</time>
            </trkpt>
            <trkpt lon="101.208012" lat="14.295043">
                <ele>26.000000</ele>
                <time>2018-10-21T03:23:55Z</time>
            </trkpt>
            <trkpt lon="101.208008" lat="14.295080">
                <ele>25.900000</ele>
                <time>2018-10-21T03:23:56Z</time>
            </trkpt>
            <trkpt lon="101.208004" lat="14.295121">
                <ele>25.800000</ele>
                <time>2018-10-21T03:23:57Z</time>
            </trkpt>
            <trkpt lon="101.208003" lat="14.295163">
                <ele>25.800000</ele>
                <time>2018-10-21T03:23:58Z</time>
            </trkpt>
            <trkpt lon="101.208001" lat="14.295206">
                <ele>25.700000</ele>
                <time>2018-10-21T03:23:59Z</time>
            </trkpt>
            <trkpt lon="101.208000" lat="14.295244">
                <ele>25.600000</ele>
                <time>2018-10-21T03:24:00Z</time>
            </trkpt>
            <trkpt lon="101.208003" lat="14.295285">
                <ele>25.400000</ele>
                <time>2018-10-21T03:24:01Z</time>
            </trkpt>
            <trkpt lon="101.208015" lat="14.295328">
                <ele>25.100000</ele>
                <time>2018-10-21T03:24:02Z</time>
            </trkpt>
            <trkpt lon="101.208024" lat="14.295365">
                <ele>24.800000</ele>
                <time>2018-10-21T03:24:03Z</time>
            </trkpt>
            <trkpt lon="101.208040" lat="14.295405">
                <ele>24.500000</ele>
                <time>2018-10-21T03:24:04Z</time>
            </trkpt>
            <trkpt lon="101.208060" lat="14.295440">
                <ele>24.100000</ele>
                <time>2018-10-21T03:24:05Z</time>
            </trkpt>
            <trkpt lon="101.208069" lat="14.295475">
                <ele>23.900000</ele>
                <time>2018-10-21T03:24:06Z</time>
            </trkpt>
            <trkpt lon="101.208089" lat="14.295508">
                <ele>23.800000</ele>
                <time>2018-10-21T03:24:07Z</time>
            </trkpt>
            <trkpt lon="101.208118" lat="14.295541">
                <ele>23.900000</ele>
                <time>2018-10-21T03:24:08Z</time>
            </trkpt>
            <trkpt lon="101.208141" lat="14.295571">
                <ele>23.800000</ele>
                <time>2018-10-21T03:24:09Z</time>
            </trkpt>
            <trkpt lon="101.208164" lat="14.295604">
                <ele>23.800000</ele>
                <time>2018-10-21T03:24:10Z</time>
            </trkpt>
            <trkpt lon="101.208188" lat="14.295643">
                <ele>23.800000</ele>
                <time>2018-10-21T03:24:11Z</time>
            </trkpt>
            <trkpt lon="101.208208" lat="14.295683">
                <ele>23.800000</ele>
                <time>2018-10-21T03:24:12Z</time>
            </trkpt>
            <trkpt lon="101.208219" lat="14.295726">
                <ele>23.800000</ele>
                <time>2018-10-21T03:24:13Z</time>
            </trkpt>
            <trkpt lon="101.208225" lat="14.295771">
                <ele>23.900000</ele>
                <time>2018-10-21T03:24:14Z</time>
            </trkpt>
            <trkpt lon="101.208235" lat="14.295813">
                <ele>23.800000</ele>
                <time>2018-10-21T03:24:15Z</time>
            </trkpt>
            <trkpt lon="101.208244" lat="14.295856">
                <ele>23.700000</ele>
                <time>2018-10-21T03:24:16Z</time>
            </trkpt>
            <trkpt lon="101.208253" lat="14.295897">
                <ele>23.500000</ele>
                <time>2018-10-21T03:24:17Z</time>
            </trkpt>
            <trkpt lon="101.208259" lat="14.295935">
                <ele>23.400000</ele>
                <time>2018-10-21T03:24:18Z</time>
            </trkpt>
            <trkpt lon="101.208269" lat="14.295977">
                <ele>23.300000</ele>
                <time>2018-10-21T03:24:19Z</time>
            </trkpt>
            <trkpt lon="101.208279" lat="14.296019">
                <ele>23.300000</ele>
                <time>2018-10-21T03:24:20Z</time>
            </trkpt>
            <trkpt lon="101.208282" lat="14.296060">
                <ele>23.100000</ele>
                <time>2018-10-21T03:24:21Z</time>
            </trkpt>
            <trkpt lon="101.208287" lat="14.296102">
                <ele>23.000000</ele>
                <time>2018-10-21T03:24:22Z</time>
            </trkpt>
            <trkpt lon="101.208291" lat="14.296147">
                <ele>22.900000</ele>
                <time>2018-10-21T03:24:23Z</time>
            </trkpt>
            <trkpt lon="101.208293" lat="14.296191">
                <ele>22.900000</ele>
                <time>2018-10-21T03:24:24Z</time>
            </trkpt>
            <trkpt lon="101.208300" lat="14.296232">
                <ele>22.900000</ele>
                <time>2018-10-21T03:24:25Z</time>
            </trkpt>
            <trkpt lon="101.208308" lat="14.296273">
                <ele>22.900000</ele>
                <time>2018-10-21T03:24:26Z</time>
            </trkpt>
            <trkpt lon="101.208310" lat="14.296312">
                <ele>22.900000</ele>
                <time>2018-10-21T03:24:27Z</time>
            </trkpt>
            <trkpt lon="101.208314" lat="14.296350">
                <ele>22.900000</ele>
                <time>2018-10-21T03:24:28Z</time>
            </trkpt>
            <trkpt lon="101.208319" lat="14.296388">
                <ele>23.000000</ele>
                <time>2018-10-21T03:24:29Z</time>
            </trkpt>
            <trkpt lon="101.208326" lat="14.296424">
                <ele>23.100000</ele>
                <time>2018-10-21T03:24:30Z</time>
            </trkpt>
            <trkpt lon="101.208329" lat="14.296469">
                <ele>23.300000</ele>
                <time>2018-10-21T03:24:31Z</time>
            </trkpt>
            <trkpt lon="101.208323" lat="14.296510">
                <ele>23.800000</ele>
                <time>2018-10-21T03:24:32Z</time>
            </trkpt>
            <trkpt lon="101.208304" lat="14.296550">
                <ele>24.200000</ele>
                <time>2018-10-21T03:24:33Z</time>
            </trkpt>
            <trkpt lon="101.208259" lat="14.296568">
                <ele>24.700000</ele>
                <time>2018-10-21T03:24:34Z</time>
            </trkpt>
            <trkpt lon="101.208219" lat="14.296572">
                <ele>24.700000</ele>
                <time>2018-10-21T03:24:35Z</time>
            </trkpt>
            <trkpt lon="101.208177" lat="14.296558">
                <ele>24.700000</ele>
                <time>2018-10-21T03:24:36Z</time>
            </trkpt>
            <trkpt lon="101.208130" lat="14.296536">
                <ele>24.900000</ele>
                <time>2018-10-21T03:24:37Z</time>
            </trkpt>
            <trkpt lon="101.208085" lat="14.296520">
                <ele>25.100000</ele>
                <time>2018-10-21T03:24:38Z</time>
            </trkpt>
            <trkpt lon="101.208048" lat="14.296507">
                <ele>25.400000</ele>
                <time>2018-10-21T03:24:39Z</time>
            </trkpt>
            <trkpt lon="101.208010" lat="14.296492">
                <ele>25.400000</ele>
                <time>2018-10-21T03:24:40Z</time>
            </trkpt>
            <trkpt lon="101.207974" lat="14.296479">
                <ele>25.500000</ele>
                <time>2018-10-21T03:24:41Z</time>
            </trkpt>
            <trkpt lon="101.207939" lat="14.296467">
                <ele>25.800000</ele>
                <time>2018-10-21T03:24:42Z</time>
            </trkpt>
            <trkpt lon="101.207901" lat="14.296462">
                <ele>26.000000</ele>
                <time>2018-10-21T03:24:43Z</time>
            </trkpt>
            <trkpt lon="101.207867" lat="14.296461">
                <ele>26.000000</ele>
                <time>2018-10-21T03:24:44Z</time>
            </trkpt>
            <trkpt lon="101.207832" lat="14.296459">
                <ele>26.000000</ele>
                <time>2018-10-21T03:24:45Z</time>
            </trkpt>
            <trkpt lon="101.207799" lat="14.296464">
                <ele>26.000000</ele>
                <time>2018-10-21T03:24:46Z</time>
            </trkpt>
            <trkpt lon="101.207766" lat="14.296469">
                <ele>26.000000</ele>
                <time>2018-10-21T03:24:47Z</time>
            </trkpt>
            <trkpt lon="101.207729" lat="14.296482">
                <ele>25.900000</ele>
                <time>2018-10-21T03:24:48Z</time>
            </trkpt>
            <trkpt lon="101.207685" lat="14.296497">
                <ele>25.700000</ele>
                <time>2018-10-21T03:24:49Z</time>
            </trkpt>
            <trkpt lon="101.207641" lat="14.296499">
                <ele>25.400000</ele>
                <time>2018-10-21T03:24:50Z</time>
            </trkpt>
            <trkpt lon="101.207596" lat="14.296510">
                <ele>25.100000</ele>
                <time>2018-10-21T03:24:51Z</time>
            </trkpt>
            <trkpt lon="101.207557" lat="14.296525">
                <ele>24.900000</ele>
                <time>2018-10-21T03:24:52Z</time>
            </trkpt>
            <trkpt lon="101.207515" lat="14.296549">
                <ele>24.700000</ele>
                <time>2018-10-21T03:24:53Z</time>
            </trkpt>
            <trkpt lon="101.207467" lat="14.296580">
                <ele>24.400000</ele>
                <time>2018-10-21T03:24:54Z</time>
            </trkpt>
            <trkpt lon="101.207435" lat="14.296616">
                <ele>24.300000</ele>
                <time>2018-10-21T03:24:55Z</time>
            </trkpt>
            <trkpt lon="101.207416" lat="14.296658">
                <ele>24.500000</ele>
                <time>2018-10-21T03:24:56Z</time>
            </trkpt>
            <trkpt lon="101.207399" lat="14.296695">
                <ele>24.700000</ele>
                <time>2018-10-21T03:24:57Z</time>
            </trkpt>
            <trkpt lon="101.207381" lat="14.296729">
                <ele>25.000000</ele>
                <time>2018-10-21T03:24:58Z</time>
            </trkpt>
            <trkpt lon="101.207374" lat="14.296765">
                <ele>25.200000</ele>
                <time>2018-10-21T03:24:59Z</time>
            </trkpt>
            <trkpt lon="101.207367" lat="14.296797">
                <ele>25.400000</ele>
                <time>2018-10-21T03:25:00Z</time>
            </trkpt>
            <trkpt lon="101.207360" lat="14.296827">
                <ele>25.600000</ele>
                <time>2018-10-21T03:25:01Z</time>
            </trkpt>
            <trkpt lon="101.207345" lat="14.296865">
                <ele>25.800000</ele>
                <time>2018-10-21T03:25:03Z</time>
            </trkpt>
            <trkpt lon="101.207332" lat="14.296910">
                <ele>26.000000</ele>
                <time>2018-10-21T03:25:06Z</time>
            </trkpt>
            <trkpt lon="101.207333" lat="14.296959">
                <ele>26.000000</ele>
                <time>2018-10-21T03:25:08Z</time>
            </trkpt>
            <trkpt lon="101.207341" lat="14.297003">
                <ele>26.000000</ele>
                <time>2018-10-21T03:25:10Z</time>
            </trkpt>
            <trkpt lon="101.207344" lat="14.297062">
                <ele>26.000000</ele>
                <time>2018-10-21T03:25:12Z</time>
            </trkpt>
            <trkpt lon="101.207335" lat="14.297093">
                <ele>26.000000</ele>
                <time>2018-10-21T03:25:13Z</time>
            </trkpt>
            <trkpt lon="101.207321" lat="14.297123">
                <ele>26.000000</ele>
                <time>2018-10-21T03:25:14Z</time>
            </trkpt>
            <trkpt lon="101.207311" lat="14.297157">
                <ele>26.000000</ele>
                <time>2018-10-21T03:25:15Z</time>
            </trkpt>
            <trkpt lon="101.207301" lat="14.297197">
                <ele>26.000000</ele>
                <time>2018-10-21T03:25:16Z</time>
            </trkpt>
            <trkpt lon="101.207287" lat="14.297233">
                <ele>26.000000</ele>
                <time>2018-10-21T03:25:17Z</time>
            </trkpt>
            <trkpt lon="101.207283" lat="14.297265">
                <ele>26.000000</ele>
                <time>2018-10-21T03:25:18Z</time>
            </trkpt>
            <trkpt lon="101.207284" lat="14.297297">
                <ele>25.900000</ele>
                <time>2018-10-21T03:25:19Z</time>
            </trkpt>
            <trkpt lon="101.207286" lat="14.297349">
                <ele>25.800000</ele>
                <time>2018-10-21T03:25:21Z</time>
            </trkpt>
            <trkpt lon="101.207279" lat="14.297381">
                <ele>25.800000</ele>
                <time>2018-10-21T03:25:22Z</time>
            </trkpt>
            <trkpt lon="101.207274" lat="14.297415">
                <ele>25.700000</ele>
                <time>2018-10-21T03:25:23Z</time>
            </trkpt>
            <trkpt lon="101.207269" lat="14.297449">
                <ele>25.500000</ele>
                <time>2018-10-21T03:25:24Z</time>
            </trkpt>
            <trkpt lon="101.207265" lat="14.297484">
                <ele>25.300000</ele>
                <time>2018-10-21T03:25:25Z</time>
            </trkpt>
            <trkpt lon="101.207265" lat="14.297521">
                <ele>25.200000</ele>
                <time>2018-10-21T03:25:26Z</time>
            </trkpt>
            <trkpt lon="101.207259" lat="14.297552">
                <ele>25.100000</ele>
                <time>2018-10-21T03:25:27Z</time>
            </trkpt>
            <trkpt lon="101.207256" lat="14.297583">
                <ele>25.000000</ele>
                <time>2018-10-21T03:25:28Z</time>
            </trkpt>
            <trkpt lon="101.207251" lat="14.297619">
                <ele>25.000000</ele>
                <time>2018-10-21T03:25:29Z</time>
            </trkpt>
            <trkpt lon="101.207243" lat="14.297657">
                <ele>25.000000</ele>
                <time>2018-10-21T03:25:30Z</time>
            </trkpt>
            <trkpt lon="101.207237" lat="14.297695">
                <ele>25.000000</ele>
                <time>2018-10-21T03:25:31Z</time>
            </trkpt>
            <trkpt lon="101.207242" lat="14.297737">
                <ele>25.000000</ele>
                <time>2018-10-21T03:25:32Z</time>
            </trkpt>
            <trkpt lon="101.207243" lat="14.297782">
                <ele>25.000000</ele>
                <time>2018-10-21T03:25:33Z</time>
            </trkpt>
            <trkpt lon="101.207244" lat="14.297822">
                <ele>25.000000</ele>
                <time>2018-10-21T03:25:34Z</time>
            </trkpt>
            <trkpt lon="101.207244" lat="14.297857">
                <ele>25.000000</ele>
                <time>2018-10-21T03:25:35Z</time>
            </trkpt>
            <trkpt lon="101.207251" lat="14.297901">
                <ele>25.000000</ele>
                <time>2018-10-21T03:25:36Z</time>
            </trkpt>
            <trkpt lon="101.207249" lat="14.297941">
                <ele>25.000000</ele>
                <time>2018-10-21T03:25:37Z</time>
            </trkpt>
            <trkpt lon="101.207249" lat="14.297982">
                <ele>25.000000</ele>
                <time>2018-10-21T03:25:38Z</time>
            </trkpt>
            <trkpt lon="101.207249" lat="14.298024">
                <ele>25.000000</ele>
                <time>2018-10-21T03:25:39Z</time>
            </trkpt>
            <trkpt lon="101.207251" lat="14.298068">
                <ele>25.100000</ele>
                <time>2018-10-21T03:25:40Z</time>
            </trkpt>
            <trkpt lon="101.207252" lat="14.298113">
                <ele>25.300000</ele>
                <time>2018-10-21T03:25:41Z</time>
            </trkpt>
            <trkpt lon="101.207252" lat="14.298159">
                <ele>25.600000</ele>
                <time>2018-10-21T03:25:42Z</time>
            </trkpt>
            <trkpt lon="101.207251" lat="14.298204">
                <ele>25.800000</ele>
                <time>2018-10-21T03:25:43Z</time>
            </trkpt>
            <trkpt lon="101.207253" lat="14.298252">
                <ele>25.900000</ele>
                <time>2018-10-21T03:25:44Z</time>
            </trkpt>
            <trkpt lon="101.207254" lat="14.298301">
                <ele>26.000000</ele>
                <time>2018-10-21T03:25:45Z</time>
            </trkpt>
            <trkpt lon="101.207257" lat="14.298345">
                <ele>26.000000</ele>
                <time>2018-10-21T03:25:46Z</time>
            </trkpt>
            <trkpt lon="101.207256" lat="14.298388">
                <ele>26.000000</ele>
                <time>2018-10-21T03:25:47Z</time>
            </trkpt>
            <trkpt lon="101.207254" lat="14.298432">
                <ele>26.100000</ele>
                <time>2018-10-21T03:25:48Z</time>
            </trkpt>
            <trkpt lon="101.207237" lat="14.298480">
                <ele>26.400000</ele>
                <time>2018-10-21T03:25:49Z</time>
            </trkpt>
            <trkpt lon="101.207210" lat="14.298514">
                <ele>26.600000</ele>
                <time>2018-10-21T03:25:50Z</time>
            </trkpt>
            <trkpt lon="101.207169" lat="14.298544">
                <ele>26.700000</ele>
                <time>2018-10-21T03:25:51Z</time>
            </trkpt>
            <trkpt lon="101.207122" lat="14.298568">
                <ele>27.100000</ele>
                <time>2018-10-21T03:25:52Z</time>
            </trkpt>
            <trkpt lon="101.207080" lat="14.298590">
                <ele>27.500000</ele>
                <time>2018-10-21T03:25:53Z</time>
            </trkpt>
            <trkpt lon="101.207040" lat="14.298603">
                <ele>27.700000</ele>
                <time>2018-10-21T03:25:54Z</time>
            </trkpt>
            <trkpt lon="101.207002" lat="14.298612">
                <ele>27.800000</ele>
                <time>2018-10-21T03:25:55Z</time>
            </trkpt>
            <trkpt lon="101.206953" lat="14.298607">
                <ele>27.900000</ele>
                <time>2018-10-21T03:25:56Z</time>
            </trkpt>
            <trkpt lon="101.206891" lat="14.298594">
                <ele>27.800000</ele>
                <time>2018-10-21T03:25:57Z</time>
            </trkpt>
            <trkpt lon="101.206844" lat="14.298574">
                <ele>27.400000</ele>
                <time>2018-10-21T03:25:58Z</time>
            </trkpt>
            <trkpt lon="101.206793" lat="14.298555">
                <ele>27.000000</ele>
                <time>2018-10-21T03:25:59Z</time>
            </trkpt>
            <trkpt lon="101.206748" lat="14.298532">
                <ele>26.500000</ele>
                <time>2018-10-21T03:26:00Z</time>
            </trkpt>
            <trkpt lon="101.206702" lat="14.298503">
                <ele>25.800000</ele>
                <time>2018-10-21T03:26:01Z</time>
            </trkpt>
            <trkpt lon="101.206658" lat="14.298484">
                <ele>25.400000</ele>
                <time>2018-10-21T03:26:02Z</time>
            </trkpt>
            <trkpt lon="101.206623" lat="14.298460">
                <ele>25.300000</ele>
                <time>2018-10-21T03:26:03Z</time>
            </trkpt>
            <trkpt lon="101.206590" lat="14.298438">
                <ele>25.100000</ele>
                <time>2018-10-21T03:26:04Z</time>
            </trkpt>
            <trkpt lon="101.206555" lat="14.298417">
                <ele>25.100000</ele>
                <time>2018-10-21T03:26:05Z</time>
            </trkpt>
            <trkpt lon="101.206516" lat="14.298400">
                <ele>25.200000</ele>
                <time>2018-10-21T03:26:06Z</time>
            </trkpt>
            <trkpt lon="101.206471" lat="14.298377">
                <ele>25.300000</ele>
                <time>2018-10-21T03:26:07Z</time>
            </trkpt>
            <trkpt lon="101.206424" lat="14.298361">
                <ele>25.300000</ele>
                <time>2018-10-21T03:26:08Z</time>
            </trkpt>
            <trkpt lon="101.206379" lat="14.298371">
                <ele>25.600000</ele>
                <time>2018-10-21T03:26:09Z</time>
            </trkpt>
            <trkpt lon="101.206336" lat="14.298382">
                <ele>25.800000</ele>
                <time>2018-10-21T03:26:10Z</time>
            </trkpt>
            <trkpt lon="101.206297" lat="14.298410">
                <ele>26.000000</ele>
                <time>2018-10-21T03:26:11Z</time>
            </trkpt>
            <trkpt lon="101.206266" lat="14.298438">
                <ele>26.600000</ele>
                <time>2018-10-21T03:26:12Z</time>
            </trkpt>
            <trkpt lon="101.206244" lat="14.298470">
                <ele>27.100000</ele>
                <time>2018-10-21T03:26:13Z</time>
            </trkpt>
            <trkpt lon="101.206227" lat="14.298511">
                <ele>27.500000</ele>
                <time>2018-10-21T03:26:14Z</time>
            </trkpt>
            <trkpt lon="101.206211" lat="14.298547">
                <ele>27.500000</ele>
                <time>2018-10-21T03:26:15Z</time>
            </trkpt>
            <trkpt lon="101.206194" lat="14.298591">
                <ele>27.500000</ele>
                <time>2018-10-21T03:26:16Z</time>
            </trkpt>
            <trkpt lon="101.206186" lat="14.298629">
                <ele>27.700000</ele>
                <time>2018-10-21T03:26:17Z</time>
            </trkpt>
            <trkpt lon="101.206185" lat="14.298667">
                <ele>27.900000</ele>
                <time>2018-10-21T03:26:18Z</time>
            </trkpt>
            <trkpt lon="101.206196" lat="14.298710">
                <ele>28.300000</ele>
                <time>2018-10-21T03:26:19Z</time>
            </trkpt>
            <trkpt lon="101.206201" lat="14.298755">
                <ele>28.600000</ele>
                <time>2018-10-21T03:26:20Z</time>
            </trkpt>
            <trkpt lon="101.206205" lat="14.298799">
                <ele>28.600000</ele>
                <time>2018-10-21T03:26:21Z</time>
            </trkpt>
            <trkpt lon="101.206226" lat="14.298841">
                <ele>28.800000</ele>
                <time>2018-10-21T03:26:22Z</time>
            </trkpt>
            <trkpt lon="101.206247" lat="14.298886">
                <ele>29.100000</ele>
                <time>2018-10-21T03:26:23Z</time>
            </trkpt>
            <trkpt lon="101.206261" lat="14.298929">
                <ele>29.200000</ele>
                <time>2018-10-21T03:26:24Z</time>
            </trkpt>
            <trkpt lon="101.206280" lat="14.298968">
                <ele>29.300000</ele>
                <time>2018-10-21T03:26:25Z</time>
            </trkpt>
            <trkpt lon="101.206304" lat="14.299008">
                <ele>29.300000</ele>
                <time>2018-10-21T03:26:26Z</time>
            </trkpt>
            <trkpt lon="101.206332" lat="14.299054">
                <ele>29.200000</ele>
                <time>2018-10-21T03:26:27Z</time>
            </trkpt>
            <trkpt lon="101.206350" lat="14.299099">
                <ele>29.000000</ele>
                <time>2018-10-21T03:26:28Z</time>
            </trkpt>
            <trkpt lon="101.206367" lat="14.299140">
                <ele>28.800000</ele>
                <time>2018-10-21T03:26:29Z</time>
            </trkpt>
            <trkpt lon="101.206383" lat="14.299180">
                <ele>28.500000</ele>
                <time>2018-10-21T03:26:30Z</time>
            </trkpt>
            <trkpt lon="101.206402" lat="14.299220">
                <ele>28.300000</ele>
                <time>2018-10-21T03:26:31Z</time>
            </trkpt>
            <trkpt lon="101.206413" lat="14.299266">
                <ele>28.100000</ele>
                <time>2018-10-21T03:26:32Z</time>
            </trkpt>
            <trkpt lon="101.206404" lat="14.299312">
                <ele>28.100000</ele>
                <time>2018-10-21T03:26:33Z</time>
            </trkpt>
            <trkpt lon="101.206379" lat="14.299345">
                <ele>28.500000</ele>
                <time>2018-10-21T03:26:34Z</time>
            </trkpt>
            <trkpt lon="101.206351" lat="14.299350">
                <ele>28.800000</ele>
                <time>2018-10-21T03:26:35Z</time>
            </trkpt>
            <trkpt lon="101.206320" lat="14.299345">
                <ele>29.100000</ele>
                <time>2018-10-21T03:26:36Z</time>
            </trkpt>
            <trkpt lon="101.206293" lat="14.299333">
                <ele>29.300000</ele>
                <time>2018-10-21T03:26:37Z</time>
            </trkpt>
            <trkpt lon="101.206268" lat="14.299314">
                <ele>29.400000</ele>
                <time>2018-10-21T03:26:38Z</time>
            </trkpt>
            <trkpt lon="101.206249" lat="14.299294">
                <ele>29.600000</ele>
                <time>2018-10-21T03:26:39Z</time>
            </trkpt>
            <trkpt lon="101.206227" lat="14.299264">
                <ele>29.700000</ele>
                <time>2018-10-21T03:26:40Z</time>
            </trkpt>
            <trkpt lon="101.206206" lat="14.299233">
                <ele>29.700000</ele>
                <time>2018-10-21T03:26:41Z</time>
            </trkpt>
            <trkpt lon="101.206185" lat="14.299200">
                <ele>29.700000</ele>
                <time>2018-10-21T03:26:42Z</time>
            </trkpt>
            <trkpt lon="101.206168" lat="14.299166">
                <ele>29.700000</ele>
                <time>2018-10-21T03:26:43Z</time>
            </trkpt>
            <trkpt lon="101.206152" lat="14.299125">
                <ele>29.800000</ele>
                <time>2018-10-21T03:26:44Z</time>
            </trkpt>
            <trkpt lon="101.206140" lat="14.299087">
                <ele>29.800000</ele>
                <time>2018-10-21T03:26:45Z</time>
            </trkpt>
            <trkpt lon="101.206130" lat="14.299048">
                <ele>29.800000</ele>
                <time>2018-10-21T03:26:46Z</time>
            </trkpt>
            <trkpt lon="101.206125" lat="14.299005">
                <ele>29.800000</ele>
                <time>2018-10-21T03:26:47Z</time>
            </trkpt>
            <trkpt lon="101.206117" lat="14.298966">
                <ele>29.800000</ele>
                <time>2018-10-21T03:26:48Z</time>
            </trkpt>
            <trkpt lon="101.206104" lat="14.298923">
                <ele>29.800000</ele>
                <time>2018-10-21T03:26:49Z</time>
            </trkpt>
            <trkpt lon="101.206090" lat="14.298887">
                <ele>29.800000</ele>
                <time>2018-10-21T03:26:50Z</time>
            </trkpt>
            <trkpt lon="101.206067" lat="14.298849">
                <ele>29.800000</ele>
                <time>2018-10-21T03:26:51Z</time>
            </trkpt>
            <trkpt lon="101.206047" lat="14.298819">
                <ele>29.700000</ele>
                <time>2018-10-21T03:26:52Z</time>
            </trkpt>
            <trkpt lon="101.206031" lat="14.298784">
                <ele>29.300000</ele>
                <time>2018-10-21T03:26:53Z</time>
            </trkpt>
            <trkpt lon="101.206016" lat="14.298745">
                <ele>29.100000</ele>
                <time>2018-10-21T03:26:54Z</time>
            </trkpt>
            <trkpt lon="101.206000" lat="14.298698">
                <ele>28.700000</ele>
                <time>2018-10-21T03:26:55Z</time>
            </trkpt>
            <trkpt lon="101.205985" lat="14.298664">
                <ele>28.500000</ele>
                <time>2018-10-21T03:26:56Z</time>
            </trkpt>
            <trkpt lon="101.205962" lat="14.298629">
                <ele>28.300000</ele>
                <time>2018-10-21T03:26:57Z</time>
            </trkpt>
            <trkpt lon="101.205945" lat="14.298599">
                <ele>28.100000</ele>
                <time>2018-10-21T03:26:58Z</time>
            </trkpt>
            <trkpt lon="101.205923" lat="14.298562">
                <ele>27.900000</ele>
                <time>2018-10-21T03:26:59Z</time>
            </trkpt>
            <trkpt lon="101.205890" lat="14.298538">
                <ele>27.800000</ele>
                <time>2018-10-21T03:27:00Z</time>
            </trkpt>
            <trkpt lon="101.205859" lat="14.298523">
                <ele>27.500000</ele>
                <time>2018-10-21T03:27:01Z</time>
            </trkpt>
            <trkpt lon="101.205822" lat="14.298514">
                <ele>26.600000</ele>
                <time>2018-10-21T03:27:02Z</time>
            </trkpt>
            <trkpt lon="101.205786" lat="14.298510">
                <ele>26.300000</ele>
                <time>2018-10-21T03:27:03Z</time>
            </trkpt>
            <trkpt lon="101.205750" lat="14.298523">
                <ele>26.300000</ele>
                <time>2018-10-21T03:27:04Z</time>
            </trkpt>
            <trkpt lon="101.205720" lat="14.298529">
                <ele>26.200000</ele>
                <time>2018-10-21T03:27:05Z</time>
            </trkpt>
            <trkpt lon="101.205684" lat="14.298543">
                <ele>26.100000</ele>
                <time>2018-10-21T03:27:06Z</time>
            </trkpt>
            <trkpt lon="101.205648" lat="14.298563">
                <ele>25.900000</ele>
                <time>2018-10-21T03:27:07Z</time>
            </trkpt>
            <trkpt lon="101.205616" lat="14.298584">
                <ele>25.800000</ele>
                <time>2018-10-21T03:27:08Z</time>
            </trkpt>
            <trkpt lon="101.205594" lat="14.298614">
                <ele>25.800000</ele>
                <time>2018-10-21T03:27:09Z</time>
            </trkpt>
            <trkpt lon="101.205568" lat="14.298645">
                <ele>25.800000</ele>
                <time>2018-10-21T03:27:10Z</time>
            </trkpt>
            <trkpt lon="101.205541" lat="14.298677">
                <ele>25.600000</ele>
                <time>2018-10-21T03:27:11Z</time>
            </trkpt>
            <trkpt lon="101.205517" lat="14.298713">
                <ele>25.600000</ele>
                <time>2018-10-21T03:27:12Z</time>
            </trkpt>
            <trkpt lon="101.205494" lat="14.298749">
                <ele>25.700000</ele>
                <time>2018-10-21T03:27:13Z</time>
            </trkpt>
            <trkpt lon="101.205476" lat="14.298787">
                <ele>25.900000</ele>
                <time>2018-10-21T03:27:14Z</time>
            </trkpt>
            <trkpt lon="101.205455" lat="14.298828">
                <ele>25.900000</ele>
                <time>2018-10-21T03:27:15Z</time>
            </trkpt>
            <trkpt lon="101.205443" lat="14.298865">
                <ele>25.800000</ele>
                <time>2018-10-21T03:27:16Z</time>
            </trkpt>
            <trkpt lon="101.205434" lat="14.298908">
                <ele>25.900000</ele>
                <time>2018-10-21T03:27:17Z</time>
            </trkpt>
            <trkpt lon="101.205425" lat="14.298942">
                <ele>26.000000</ele>
                <time>2018-10-21T03:27:18Z</time>
            </trkpt>
            <trkpt lon="101.205414" lat="14.298985">
                <ele>26.000000</ele>
                <time>2018-10-21T03:27:19Z</time>
            </trkpt>
            <trkpt lon="101.205401" lat="14.299025">
                <ele>25.700000</ele>
                <time>2018-10-21T03:27:20Z</time>
            </trkpt>
            <trkpt lon="101.205398" lat="14.299067">
                <ele>25.200000</ele>
                <time>2018-10-21T03:27:21Z</time>
            </trkpt>
            <trkpt lon="101.205394" lat="14.299111">
                <ele>25.300000</ele>
                <time>2018-10-21T03:27:22Z</time>
            </trkpt>
            <trkpt lon="101.205387" lat="14.299154">
                <ele>25.400000</ele>
                <time>2018-10-21T03:27:23Z</time>
            </trkpt>
            <trkpt lon="101.205380" lat="14.299193">
                <ele>25.400000</ele>
                <time>2018-10-21T03:27:24Z</time>
            </trkpt>
            <trkpt lon="101.205376" lat="14.299238">
                <ele>25.600000</ele>
                <time>2018-10-21T03:27:25Z</time>
            </trkpt>
            <trkpt lon="101.205377" lat="14.299283">
                <ele>26.000000</ele>
                <time>2018-10-21T03:27:26Z</time>
            </trkpt>
            <trkpt lon="101.205373" lat="14.299325">
                <ele>26.400000</ele>
                <time>2018-10-21T03:27:27Z</time>
            </trkpt>
            <trkpt lon="101.205353" lat="14.299366">
                <ele>26.600000</ele>
                <time>2018-10-21T03:27:28Z</time>
            </trkpt>
            <trkpt lon="101.205334" lat="14.299398">
                <ele>26.600000</ele>
                <time>2018-10-21T03:27:29Z</time>
            </trkpt>
            <trkpt lon="101.205314" lat="14.299432">
                <ele>26.600000</ele>
                <time>2018-10-21T03:27:30Z</time>
            </trkpt>
            <trkpt lon="101.205294" lat="14.299468">
                <ele>27.200000</ele>
                <time>2018-10-21T03:27:31Z</time>
            </trkpt>
            <trkpt lon="101.205269" lat="14.299509">
                <ele>27.900000</ele>
                <time>2018-10-21T03:27:32Z</time>
            </trkpt>
            <trkpt lon="101.205242" lat="14.299550">
                <ele>28.700000</ele>
                <time>2018-10-21T03:27:33Z</time>
            </trkpt>
            <trkpt lon="101.205217" lat="14.299588">
                <ele>29.200000</ele>
                <time>2018-10-21T03:27:34Z</time>
            </trkpt>
            <trkpt lon="101.205196" lat="14.299624">
                <ele>29.400000</ele>
                <time>2018-10-21T03:27:35Z</time>
            </trkpt>
            <trkpt lon="101.205170" lat="14.299659">
                <ele>29.800000</ele>
                <time>2018-10-21T03:27:36Z</time>
            </trkpt>
            <trkpt lon="101.205149" lat="14.299689">
                <ele>30.100000</ele>
                <time>2018-10-21T03:27:37Z</time>
            </trkpt>
            <trkpt lon="101.205131" lat="14.299715">
                <ele>30.200000</ele>
                <time>2018-10-21T03:27:38Z</time>
            </trkpt>
            <trkpt lon="101.205114" lat="14.299744">
                <ele>30.200000</ele>
                <time>2018-10-21T03:27:39Z</time>
            </trkpt>
            <trkpt lon="101.205099" lat="14.299776">
                <ele>30.200000</ele>
                <time>2018-10-21T03:27:40Z</time>
            </trkpt>
            <trkpt lon="101.205092" lat="14.299807">
                <ele>30.200000</ele>
                <time>2018-10-21T03:27:41Z</time>
            </trkpt>
            <trkpt lon="101.205083" lat="14.299861">
                <ele>30.000000</ele>
                <time>2018-10-21T03:27:43Z</time>
            </trkpt>
            <trkpt lon="101.205077" lat="14.299897">
                <ele>29.900000</ele>
                <time>2018-10-21T03:27:44Z</time>
            </trkpt>
            <trkpt lon="101.205086" lat="14.299930">
                <ele>29.900000</ele>
                <time>2018-10-21T03:27:45Z</time>
            </trkpt>
            <trkpt lon="101.205091" lat="14.299970">
                <ele>29.900000</ele>
                <time>2018-10-21T03:27:46Z</time>
            </trkpt>
            <trkpt lon="101.205105" lat="14.300014">
                <ele>29.800000</ele>
                <time>2018-10-21T03:27:47Z</time>
            </trkpt>
            <trkpt lon="101.205123" lat="14.300063">
                <ele>29.900000</ele>
                <time>2018-10-21T03:27:48Z</time>
            </trkpt>
            <trkpt lon="101.205140" lat="14.300107">
                <ele>30.000000</ele>
                <time>2018-10-21T03:27:49Z</time>
            </trkpt>
            <trkpt lon="101.205147" lat="14.300149">
                <ele>30.000000</ele>
                <time>2018-10-21T03:27:50Z</time>
            </trkpt>
            <trkpt lon="101.205153" lat="14.300191">
                <ele>30.000000</ele>
                <time>2018-10-21T03:27:51Z</time>
            </trkpt>
            <trkpt lon="101.205157" lat="14.300241">
                <ele>30.100000</ele>
                <time>2018-10-21T03:27:52Z</time>
            </trkpt>
            <trkpt lon="101.205173" lat="14.300280">
                <ele>30.200000</ele>
                <time>2018-10-21T03:27:53Z</time>
            </trkpt>
            <trkpt lon="101.205183" lat="14.300329">
                <ele>30.200000</ele>
                <time>2018-10-21T03:27:54Z</time>
            </trkpt>
            <trkpt lon="101.205200" lat="14.300377">
                <ele>30.200000</ele>
                <time>2018-10-21T03:27:55Z</time>
            </trkpt>
            <trkpt lon="101.205213" lat="14.300418">
                <ele>30.200000</ele>
                <time>2018-10-21T03:27:56Z</time>
            </trkpt>
            <trkpt lon="101.205234" lat="14.300464">
                <ele>30.100000</ele>
                <time>2018-10-21T03:27:57Z</time>
            </trkpt>
            <trkpt lon="101.205254" lat="14.300505">
                <ele>30.100000</ele>
                <time>2018-10-21T03:27:58Z</time>
            </trkpt>
            <trkpt lon="101.205275" lat="14.300547">
                <ele>30.100000</ele>
                <time>2018-10-21T03:27:59Z</time>
            </trkpt>
            <trkpt lon="101.205297" lat="14.300584">
                <ele>30.200000</ele>
                <time>2018-10-21T03:28:00Z</time>
            </trkpt>
            <trkpt lon="101.205323" lat="14.300615">
                <ele>30.400000</ele>
                <time>2018-10-21T03:28:01Z</time>
            </trkpt>
            <trkpt lon="101.205347" lat="14.300635">
                <ele>30.500000</ele>
                <time>2018-10-21T03:28:02Z</time>
            </trkpt>
            <trkpt lon="101.205376" lat="14.300656">
                <ele>30.500000</ele>
                <time>2018-10-21T03:28:03Z</time>
            </trkpt>
            <trkpt lon="101.205401" lat="14.300678">
                <ele>30.500000</ele>
                <time>2018-10-21T03:28:04Z</time>
            </trkpt>
            <trkpt lon="101.205417" lat="14.300706">
                <ele>30.500000</ele>
                <time>2018-10-21T03:28:05Z</time>
            </trkpt>
            <trkpt lon="101.205406" lat="14.300755">
                <ele>30.600000</ele>
                <time>2018-10-21T03:28:07Z</time>
            </trkpt>
            <trkpt lon="101.205383" lat="14.300780">
                <ele>30.700000</ele>
                <time>2018-10-21T03:28:08Z</time>
            </trkpt>
            <trkpt lon="101.205364" lat="14.300824">
                <ele>30.800000</ele>
                <time>2018-10-21T03:28:10Z</time>
            </trkpt>
            <trkpt lon="101.205362" lat="14.300883">
                <ele>30.600000</ele>
                <time>2018-10-21T03:28:12Z</time>
            </trkpt>
            <trkpt lon="101.205362" lat="14.300915">
                <ele>30.400000</ele>
                <time>2018-10-21T03:28:13Z</time>
            </trkpt>
            <trkpt lon="101.205366" lat="14.300947">
                <ele>30.300000</ele>
                <time>2018-10-21T03:28:14Z</time>
            </trkpt>
            <trkpt lon="101.205369" lat="14.300977">
                <ele>30.200000</ele>
                <time>2018-10-21T03:28:15Z</time>
            </trkpt>
            <trkpt lon="101.205382" lat="14.301007">
                <ele>30.100000</ele>
                <time>2018-10-21T03:28:16Z</time>
            </trkpt>
            <trkpt lon="101.205398" lat="14.301030">
                <ele>30.100000</ele>
                <time>2018-10-21T03:28:17Z</time>
            </trkpt>
            <trkpt lon="101.205415" lat="14.301055">
                <ele>30.100000</ele>
                <time>2018-10-21T03:28:18Z</time>
            </trkpt>
            <trkpt lon="101.205439" lat="14.301079">
                <ele>30.100000</ele>
                <time>2018-10-21T03:28:19Z</time>
            </trkpt>
            <trkpt lon="101.205478" lat="14.301113">
                <ele>29.900000</ele>
                <time>2018-10-21T03:28:21Z</time>
            </trkpt>
            <trkpt lon="101.205507" lat="14.301129">
                <ele>29.900000</ele>
                <time>2018-10-21T03:28:22Z</time>
            </trkpt>
            <trkpt lon="101.205541" lat="14.301145">
                <ele>29.900000</ele>
                <time>2018-10-21T03:28:23Z</time>
            </trkpt>
            <trkpt lon="101.205570" lat="14.301151">
                <ele>30.000000</ele>
                <time>2018-10-21T03:28:24Z</time>
            </trkpt>
            <trkpt lon="101.205598" lat="14.301161">
                <ele>30.100000</ele>
                <time>2018-10-21T03:28:25Z</time>
            </trkpt>
            <trkpt lon="101.205640" lat="14.301193">
                <ele>30.300000</ele>
                <time>2018-10-21T03:28:27Z</time>
            </trkpt>
            <trkpt lon="101.205683" lat="14.301227">
                <ele>30.400000</ele>
                <time>2018-10-21T03:28:29Z</time>
            </trkpt>
            <trkpt lon="101.205718" lat="14.301239">
                <ele>30.500000</ele>
                <time>2018-10-21T03:28:30Z</time>
            </trkpt>
            <trkpt lon="101.205756" lat="14.301241">
                <ele>30.500000</ele>
                <time>2018-10-21T03:28:31Z</time>
            </trkpt>
            <trkpt lon="101.205799" lat="14.301230">
                <ele>30.500000</ele>
                <time>2018-10-21T03:28:32Z</time>
            </trkpt>
            <trkpt lon="101.205838" lat="14.301217">
                <ele>30.500000</ele>
                <time>2018-10-21T03:28:33Z</time>
            </trkpt>
            <trkpt lon="101.205879" lat="14.301197">
                <ele>30.500000</ele>
                <time>2018-10-21T03:28:34Z</time>
            </trkpt>
            <trkpt lon="101.205922" lat="14.301182">
                <ele>30.500000</ele>
                <time>2018-10-21T03:28:35Z</time>
            </trkpt>
            <trkpt lon="101.205957" lat="14.301162">
                <ele>30.500000</ele>
                <time>2018-10-21T03:28:36Z</time>
            </trkpt>
            <trkpt lon="101.205981" lat="14.301143">
                <ele>30.500000</ele>
                <time>2018-10-21T03:28:37Z</time>
            </trkpt>
            <trkpt lon="101.206010" lat="14.301116">
                <ele>30.500000</ele>
                <time>2018-10-21T03:28:38Z</time>
            </trkpt>
            <trkpt lon="101.206037" lat="14.301100">
                <ele>30.500000</ele>
                <time>2018-10-21T03:28:39Z</time>
            </trkpt>
            <trkpt lon="101.206071" lat="14.301070">
                <ele>30.500000</ele>
                <time>2018-10-21T03:28:40Z</time>
            </trkpt>
            <trkpt lon="101.206104" lat="14.301043">
                <ele>30.500000</ele>
                <time>2018-10-21T03:28:41Z</time>
            </trkpt>
            <trkpt lon="101.206128" lat="14.301018">
                <ele>30.500000</ele>
                <time>2018-10-21T03:28:42Z</time>
            </trkpt>
            <trkpt lon="101.206163" lat="14.300996">
                <ele>30.500000</ele>
                <time>2018-10-21T03:28:43Z</time>
            </trkpt>
            <trkpt lon="101.206200" lat="14.300968">
                <ele>30.500000</ele>
                <time>2018-10-21T03:28:44Z</time>
            </trkpt>
            <trkpt lon="101.206234" lat="14.300940">
                <ele>30.500000</ele>
                <time>2018-10-21T03:28:45Z</time>
            </trkpt>
            <trkpt lon="101.206266" lat="14.300913">
                <ele>30.500000</ele>
                <time>2018-10-21T03:28:46Z</time>
            </trkpt>
            <trkpt lon="101.206305" lat="14.300890">
                <ele>30.500000</ele>
                <time>2018-10-21T03:28:47Z</time>
            </trkpt>
            <trkpt lon="101.206340" lat="14.300864">
                <ele>30.400000</ele>
                <time>2018-10-21T03:28:48Z</time>
            </trkpt>
            <trkpt lon="101.206378" lat="14.300837">
                <ele>30.400000</ele>
                <time>2018-10-21T03:28:49Z</time>
            </trkpt>
            <trkpt lon="101.206414" lat="14.300811">
                <ele>30.400000</ele>
                <time>2018-10-21T03:28:50Z</time>
            </trkpt>
            <trkpt lon="101.206448" lat="14.300785">
                <ele>30.400000</ele>
                <time>2018-10-21T03:28:51Z</time>
            </trkpt>
            <trkpt lon="101.206478" lat="14.300754">
                <ele>30.400000</ele>
                <time>2018-10-21T03:28:52Z</time>
            </trkpt>
            <trkpt lon="101.206513" lat="14.300726">
                <ele>30.300000</ele>
                <time>2018-10-21T03:28:53Z</time>
            </trkpt>
            <trkpt lon="101.206545" lat="14.300697">
                <ele>30.300000</ele>
                <time>2018-10-21T03:28:54Z</time>
            </trkpt>
            <trkpt lon="101.206581" lat="14.300664">
                <ele>30.200000</ele>
                <time>2018-10-21T03:28:55Z</time>
            </trkpt>
            <trkpt lon="101.206611" lat="14.300633">
                <ele>30.200000</ele>
                <time>2018-10-21T03:28:56Z</time>
            </trkpt>
            <trkpt lon="101.206637" lat="14.300609">
                <ele>30.200000</ele>
                <time>2018-10-21T03:28:57Z</time>
            </trkpt>
            <trkpt lon="101.206673" lat="14.300586">
                <ele>30.200000</ele>
                <time>2018-10-21T03:28:59Z</time>
            </trkpt>
            <trkpt lon="101.206642" lat="14.300593">
                <ele>30.200000</ele>
                <time>2018-10-21T03:29:03Z</time>
            </trkpt>
            <trkpt lon="101.206616" lat="14.300620">
                <ele>30.100000</ele>
                <time>2018-10-21T03:29:06Z</time>
            </trkpt>
            <trkpt lon="101.206637" lat="14.300664">
                <ele>23.900000</ele>
                <time>2018-10-21T03:29:08Z</time>
            </trkpt>
            <trkpt lon="101.206658" lat="14.300689">
                <ele>23.900000</ele>
                <time>2018-10-21T03:29:10Z</time>
            </trkpt>
            <trkpt lon="101.206656" lat="14.300742">
                <ele>24.000000</ele>
                <time>2018-10-21T03:29:12Z</time>
            </trkpt>
            <trkpt lon="101.206627" lat="14.300784">
                <ele>24.100000</ele>
                <time>2018-10-21T03:29:14Z</time>
            </trkpt>
            <trkpt lon="101.206609" lat="14.300806">
                <ele>24.300000</ele>
                <time>2018-10-21T03:29:15Z</time>
            </trkpt>
            <trkpt lon="101.206595" lat="14.300829">
                <ele>24.400000</ele>
                <time>2018-10-21T03:29:16Z</time>
            </trkpt>
            <trkpt lon="101.206579" lat="14.300858">
                <ele>24.600000</ele>
                <time>2018-10-21T03:29:17Z</time>
            </trkpt>
            <trkpt lon="101.206561" lat="14.300893">
                <ele>24.800000</ele>
                <time>2018-10-21T03:29:18Z</time>
            </trkpt>
            <trkpt lon="101.206544" lat="14.300927">
                <ele>25.000000</ele>
                <time>2018-10-21T03:29:19Z</time>
            </trkpt>
            <trkpt lon="101.206526" lat="14.300961">
                <ele>25.300000</ele>
                <time>2018-10-21T03:29:20Z</time>
            </trkpt>
            <trkpt lon="101.206510" lat="14.300995">
                <ele>25.600000</ele>
                <time>2018-10-21T03:29:21Z</time>
            </trkpt>
            <trkpt lon="101.206491" lat="14.301030">
                <ele>26.000000</ele>
                <time>2018-10-21T03:29:22Z</time>
            </trkpt>
            <trkpt lon="101.206470" lat="14.301063">
                <ele>26.400000</ele>
                <time>2018-10-21T03:29:23Z</time>
            </trkpt>
            <trkpt lon="101.206440" lat="14.301099">
                <ele>26.800000</ele>
                <time>2018-10-21T03:29:24Z</time>
            </trkpt>
            <trkpt lon="101.206406" lat="14.301141">
                <ele>27.100000</ele>
                <time>2018-10-21T03:29:25Z</time>
            </trkpt>
            <trkpt lon="101.206374" lat="14.301182">
                <ele>27.400000</ele>
                <time>2018-10-21T03:29:26Z</time>
            </trkpt>
            <trkpt lon="101.206342" lat="14.301221">
                <ele>27.700000</ele>
                <time>2018-10-21T03:29:27Z</time>
            </trkpt>
            <trkpt lon="101.206315" lat="14.301257">
                <ele>28.000000</ele>
                <time>2018-10-21T03:29:28Z</time>
            </trkpt>
            <trkpt lon="101.206287" lat="14.301298">
                <ele>28.400000</ele>
                <time>2018-10-21T03:29:29Z</time>
            </trkpt>
            <trkpt lon="101.206259" lat="14.301335">
                <ele>28.800000</ele>
                <time>2018-10-21T03:29:30Z</time>
            </trkpt>
            <trkpt lon="101.206232" lat="14.301373">
                <ele>29.300000</ele>
                <time>2018-10-21T03:29:31Z</time>
            </trkpt>
            <trkpt lon="101.206207" lat="14.301414">
                <ele>29.600000</ele>
                <time>2018-10-21T03:29:32Z</time>
            </trkpt>
            <trkpt lon="101.206179" lat="14.301455">
                <ele>29.600000</ele>
                <time>2018-10-21T03:29:33Z</time>
            </trkpt>
            <trkpt lon="101.206149" lat="14.301495">
                <ele>30.000000</ele>
                <time>2018-10-21T03:29:34Z</time>
            </trkpt>
            <trkpt lon="101.206118" lat="14.301537">
                <ele>30.800000</ele>
                <time>2018-10-21T03:29:35Z</time>
            </trkpt>
            <trkpt lon="101.206091" lat="14.301577">
                <ele>31.300000</ele>
                <time>2018-10-21T03:29:36Z</time>
            </trkpt>
            <trkpt lon="101.206062" lat="14.301618">
                <ele>31.700000</ele>
                <time>2018-10-21T03:29:37Z</time>
            </trkpt>
            <trkpt lon="101.206031" lat="14.301659">
                <ele>31.700000</ele>
                <time>2018-10-21T03:29:38Z</time>
            </trkpt>
            <trkpt lon="101.206006" lat="14.301705">
                <ele>32.000000</ele>
                <time>2018-10-21T03:29:39Z</time>
            </trkpt>
            <trkpt lon="101.205986" lat="14.301749">
                <ele>32.400000</ele>
                <time>2018-10-21T03:29:40Z</time>
            </trkpt>
            <trkpt lon="101.205965" lat="14.301792">
                <ele>32.500000</ele>
                <time>2018-10-21T03:29:41Z</time>
            </trkpt>
            <trkpt lon="101.205948" lat="14.301830">
                <ele>32.600000</ele>
                <time>2018-10-21T03:29:42Z</time>
            </trkpt>
            <trkpt lon="101.205932" lat="14.301870">
                <ele>32.700000</ele>
                <time>2018-10-21T03:29:43Z</time>
            </trkpt>
            <trkpt lon="101.205916" lat="14.301901">
                <ele>32.700000</ele>
                <time>2018-10-21T03:29:44Z</time>
            </trkpt>
            <trkpt lon="101.205892" lat="14.301938">
                <ele>32.400000</ele>
                <time>2018-10-21T03:29:45Z</time>
            </trkpt>
            <trkpt lon="101.205878" lat="14.301982">
                <ele>32.100000</ele>
                <time>2018-10-21T03:29:46Z</time>
            </trkpt>
            <trkpt lon="101.205867" lat="14.302032">
                <ele>31.700000</ele>
                <time>2018-10-21T03:29:47Z</time>
            </trkpt>
            <trkpt lon="101.205854" lat="14.302079">
                <ele>31.300000</ele>
                <time>2018-10-21T03:29:48Z</time>
            </trkpt>
            <trkpt lon="101.205831" lat="14.302124">
                <ele>31.000000</ele>
                <time>2018-10-21T03:29:49Z</time>
            </trkpt>
            <trkpt lon="101.205817" lat="14.302165">
                <ele>30.700000</ele>
                <time>2018-10-21T03:29:50Z</time>
            </trkpt>
            <trkpt lon="101.205803" lat="14.302211">
                <ele>30.300000</ele>
                <time>2018-10-21T03:29:51Z</time>
            </trkpt>
            <trkpt lon="101.205789" lat="14.302257">
                <ele>30.000000</ele>
                <time>2018-10-21T03:29:52Z</time>
            </trkpt>
            <trkpt lon="101.205777" lat="14.302303">
                <ele>29.700000</ele>
                <time>2018-10-21T03:29:53Z</time>
            </trkpt>
            <trkpt lon="101.205765" lat="14.302348">
                <ele>29.300000</ele>
                <time>2018-10-21T03:29:54Z</time>
            </trkpt>
            <trkpt lon="101.205757" lat="14.302392">
                <ele>29.000000</ele>
                <time>2018-10-21T03:29:55Z</time>
            </trkpt>
            <trkpt lon="101.205739" lat="14.302440">
                <ele>28.900000</ele>
                <time>2018-10-21T03:29:56Z</time>
            </trkpt>
            <trkpt lon="101.205722" lat="14.302482">
                <ele>28.800000</ele>
                <time>2018-10-21T03:29:57Z</time>
            </trkpt>
            <trkpt lon="101.205711" lat="14.302527">
                <ele>28.700000</ele>
                <time>2018-10-21T03:29:58Z</time>
            </trkpt>
            <trkpt lon="101.205706" lat="14.302577">
                <ele>28.700000</ele>
                <time>2018-10-21T03:29:59Z</time>
            </trkpt>
            <trkpt lon="101.205693" lat="14.302628">
                <ele>28.900000</ele>
                <time>2018-10-21T03:30:00Z</time>
            </trkpt>
            <trkpt lon="101.205678" lat="14.302676">
                <ele>29.100000</ele>
                <time>2018-10-21T03:30:01Z</time>
            </trkpt>
            <trkpt lon="101.205666" lat="14.302723">
                <ele>29.200000</ele>
                <time>2018-10-21T03:30:02Z</time>
            </trkpt>
            <trkpt lon="101.205653" lat="14.302771">
                <ele>29.300000</ele>
                <time>2018-10-21T03:30:03Z</time>
            </trkpt>
            <trkpt lon="101.205640" lat="14.302819">
                <ele>29.400000</ele>
                <time>2018-10-21T03:30:04Z</time>
            </trkpt>
            <trkpt lon="101.205628" lat="14.302865">
                <ele>29.500000</ele>
                <time>2018-10-21T03:30:05Z</time>
            </trkpt>
            <trkpt lon="101.205622" lat="14.302911">
                <ele>29.700000</ele>
                <time>2018-10-21T03:30:06Z</time>
            </trkpt>
            <trkpt lon="101.205612" lat="14.302956">
                <ele>29.900000</ele>
                <time>2018-10-21T03:30:07Z</time>
            </trkpt>
            <trkpt lon="101.205604" lat="14.303003">
                <ele>30.300000</ele>
                <time>2018-10-21T03:30:08Z</time>
            </trkpt>
            <trkpt lon="101.205590" lat="14.303047">
                <ele>30.700000</ele>
                <time>2018-10-21T03:30:09Z</time>
            </trkpt>
            <trkpt lon="101.205573" lat="14.303091">
                <ele>30.800000</ele>
                <time>2018-10-21T03:30:10Z</time>
            </trkpt>
            <trkpt lon="101.205556" lat="14.303132">
                <ele>30.900000</ele>
                <time>2018-10-21T03:30:11Z</time>
            </trkpt>
            <trkpt lon="101.205546" lat="14.303172">
                <ele>30.900000</ele>
                <time>2018-10-21T03:30:12Z</time>
            </trkpt>
            <trkpt lon="101.205540" lat="14.303215">
                <ele>30.900000</ele>
                <time>2018-10-21T03:30:13Z</time>
            </trkpt>
            <trkpt lon="101.205542" lat="14.303260">
                <ele>31.000000</ele>
                <time>2018-10-21T03:30:14Z</time>
            </trkpt>
            <trkpt lon="101.205544" lat="14.303305">
                <ele>31.000000</ele>
                <time>2018-10-21T03:30:15Z</time>
            </trkpt>
            <trkpt lon="101.205535" lat="14.303351">
                <ele>30.700000</ele>
                <time>2018-10-21T03:30:16Z</time>
            </trkpt>
            <trkpt lon="101.205530" lat="14.303396">
                <ele>30.500000</ele>
                <time>2018-10-21T03:30:17Z</time>
            </trkpt>
            <trkpt lon="101.205531" lat="14.303436">
                <ele>30.300000</ele>
                <time>2018-10-21T03:30:18Z</time>
            </trkpt>
            <trkpt lon="101.205545" lat="14.303480">
                <ele>29.800000</ele>
                <time>2018-10-21T03:30:19Z</time>
            </trkpt>
            <trkpt lon="101.205569" lat="14.303523">
                <ele>29.400000</ele>
                <time>2018-10-21T03:30:20Z</time>
            </trkpt>
            <trkpt lon="101.205601" lat="14.303567">
                <ele>29.000000</ele>
                <time>2018-10-21T03:30:21Z</time>
            </trkpt>
            <trkpt lon="101.205631" lat="14.303609">
                <ele>28.500000</ele>
                <time>2018-10-21T03:30:22Z</time>
            </trkpt>
            <trkpt lon="101.205657" lat="14.303653">
                <ele>28.000000</ele>
                <time>2018-10-21T03:30:23Z</time>
            </trkpt>
            <trkpt lon="101.205683" lat="14.303695">
                <ele>27.600000</ele>
                <time>2018-10-21T03:30:24Z</time>
            </trkpt>
            <trkpt lon="101.205706" lat="14.303734">
                <ele>27.300000</ele>
                <time>2018-10-21T03:30:25Z</time>
            </trkpt>
            <trkpt lon="101.205740" lat="14.303773">
                <ele>26.900000</ele>
                <time>2018-10-21T03:30:26Z</time>
            </trkpt>
            <trkpt lon="101.205779" lat="14.303815">
                <ele>26.500000</ele>
                <time>2018-10-21T03:30:27Z</time>
            </trkpt>
            <trkpt lon="101.205807" lat="14.303851">
                <ele>26.100000</ele>
                <time>2018-10-21T03:30:28Z</time>
            </trkpt>
            <trkpt lon="101.205833" lat="14.303891">
                <ele>25.800000</ele>
                <time>2018-10-21T03:30:29Z</time>
            </trkpt>
            <trkpt lon="101.205853" lat="14.303935">
                <ele>25.700000</ele>
                <time>2018-10-21T03:30:30Z</time>
            </trkpt>
            <trkpt lon="101.205875" lat="14.303981">
                <ele>25.800000</ele>
                <time>2018-10-21T03:30:31Z</time>
            </trkpt>
            <trkpt lon="101.205896" lat="14.304023">
                <ele>26.000000</ele>
                <time>2018-10-21T03:30:32Z</time>
            </trkpt>
            <trkpt lon="101.205926" lat="14.304059">
                <ele>26.100000</ele>
                <time>2018-10-21T03:30:33Z</time>
            </trkpt>
            <trkpt lon="101.205954" lat="14.304092">
                <ele>26.300000</ele>
                <time>2018-10-21T03:30:34Z</time>
            </trkpt>
            <trkpt lon="101.205979" lat="14.304126">
                <ele>26.600000</ele>
                <time>2018-10-21T03:30:35Z</time>
            </trkpt>
            <trkpt lon="101.206004" lat="14.304159">
                <ele>26.600000</ele>
                <time>2018-10-21T03:30:36Z</time>
            </trkpt>
            <trkpt lon="101.206029" lat="14.304190">
                <ele>26.600000</ele>
                <time>2018-10-21T03:30:37Z</time>
            </trkpt>
            <trkpt lon="101.206059" lat="14.304222">
                <ele>26.600000</ele>
                <time>2018-10-21T03:30:38Z</time>
            </trkpt>
            <trkpt lon="101.206086" lat="14.304262">
                <ele>26.700000</ele>
                <time>2018-10-21T03:30:39Z</time>
            </trkpt>
            <trkpt lon="101.206114" lat="14.304303">
                <ele>26.900000</ele>
                <time>2018-10-21T03:30:40Z</time>
            </trkpt>
            <trkpt lon="101.206138" lat="14.304347">
                <ele>27.200000</ele>
                <time>2018-10-21T03:30:41Z</time>
            </trkpt>
            <trkpt lon="101.206161" lat="14.304392">
                <ele>27.400000</ele>
                <time>2018-10-21T03:30:42Z</time>
            </trkpt>
            <trkpt lon="101.206183" lat="14.304436">
                <ele>27.400000</ele>
                <time>2018-10-21T03:30:43Z</time>
            </trkpt>
            <trkpt lon="101.206219" lat="14.304477">
                <ele>27.200000</ele>
                <time>2018-10-21T03:30:44Z</time>
            </trkpt>
            <trkpt lon="101.206250" lat="14.304515">
                <ele>27.000000</ele>
                <time>2018-10-21T03:30:45Z</time>
            </trkpt>
            <trkpt lon="101.206279" lat="14.304555">
                <ele>26.700000</ele>
                <time>2018-10-21T03:30:46Z</time>
            </trkpt>
            <trkpt lon="101.206307" lat="14.304600">
                <ele>26.400000</ele>
                <time>2018-10-21T03:30:47Z</time>
            </trkpt>
            <trkpt lon="101.206339" lat="14.304640">
                <ele>26.200000</ele>
                <time>2018-10-21T03:30:48Z</time>
            </trkpt>
            <trkpt lon="101.206368" lat="14.304679">
                <ele>26.000000</ele>
                <time>2018-10-21T03:30:49Z</time>
            </trkpt>
            <trkpt lon="101.206406" lat="14.304712">
                <ele>25.800000</ele>
                <time>2018-10-21T03:30:50Z</time>
            </trkpt>
            <trkpt lon="101.206452" lat="14.304742">
                <ele>25.600000</ele>
                <time>2018-10-21T03:30:51Z</time>
            </trkpt>
            <trkpt lon="101.206497" lat="14.304766">
                <ele>25.600000</ele>
                <time>2018-10-21T03:30:52Z</time>
            </trkpt>
            <trkpt lon="101.206538" lat="14.304786">
                <ele>25.500000</ele>
                <time>2018-10-21T03:30:53Z</time>
            </trkpt>
            <trkpt lon="101.206580" lat="14.304803">
                <ele>25.600000</ele>
                <time>2018-10-21T03:30:54Z</time>
            </trkpt>
            <trkpt lon="101.206627" lat="14.304820">
                <ele>25.700000</ele>
                <time>2018-10-21T03:30:55Z</time>
            </trkpt>
            <trkpt lon="101.206675" lat="14.304838">
                <ele>25.900000</ele>
                <time>2018-10-21T03:30:56Z</time>
            </trkpt>
            <trkpt lon="101.206724" lat="14.304850">
                <ele>26.200000</ele>
                <time>2018-10-21T03:30:57Z</time>
            </trkpt>
            <trkpt lon="101.206770" lat="14.304859">
                <ele>26.400000</ele>
                <time>2018-10-21T03:30:58Z</time>
            </trkpt>
            <trkpt lon="101.206817" lat="14.304871">
                <ele>26.600000</ele>
                <time>2018-10-21T03:30:59Z</time>
            </trkpt>
            <trkpt lon="101.206868" lat="14.304874">
                <ele>26.800000</ele>
                <time>2018-10-21T03:31:00Z</time>
            </trkpt>
            <trkpt lon="101.206916" lat="14.304886">
                <ele>26.800000</ele>
                <time>2018-10-21T03:31:01Z</time>
            </trkpt>
            <trkpt lon="101.206965" lat="14.304901">
                <ele>26.800000</ele>
                <time>2018-10-21T03:31:02Z</time>
            </trkpt>
            <trkpt lon="101.207020" lat="14.304910">
                <ele>26.800000</ele>
                <time>2018-10-21T03:31:03Z</time>
            </trkpt>
            <trkpt lon="101.207066" lat="14.304919">
                <ele>26.800000</ele>
                <time>2018-10-21T03:31:04Z</time>
            </trkpt>
            <trkpt lon="101.207117" lat="14.304928">
                <ele>26.800000</ele>
                <time>2018-10-21T03:31:05Z</time>
            </trkpt>
            <trkpt lon="101.207165" lat="14.304942">
                <ele>26.800000</ele>
                <time>2018-10-21T03:31:06Z</time>
            </trkpt>
            <trkpt lon="101.207209" lat="14.304956">
                <ele>26.800000</ele>
                <time>2018-10-21T03:31:07Z</time>
            </trkpt>
            <trkpt lon="101.207259" lat="14.304965">
                <ele>26.800000</ele>
                <time>2018-10-21T03:31:08Z</time>
            </trkpt>
            <trkpt lon="101.207311" lat="14.304976">
                <ele>26.900000</ele>
                <time>2018-10-21T03:31:09Z</time>
            </trkpt>
            <trkpt lon="101.207358" lat="14.304988">
                <ele>27.000000</ele>
                <time>2018-10-21T03:31:10Z</time>
            </trkpt>
            <trkpt lon="101.207409" lat="14.305001">
                <ele>27.300000</ele>
                <time>2018-10-21T03:31:11Z</time>
            </trkpt>
            <trkpt lon="101.207456" lat="14.305017">
                <ele>27.600000</ele>
                <time>2018-10-21T03:31:12Z</time>
            </trkpt>
            <trkpt lon="101.207504" lat="14.305033">
                <ele>27.900000</ele>
                <time>2018-10-21T03:31:13Z</time>
            </trkpt>
            <trkpt lon="101.207556" lat="14.305048">
                <ele>28.100000</ele>
                <time>2018-10-21T03:31:14Z</time>
            </trkpt>
            <trkpt lon="101.207607" lat="14.305061">
                <ele>28.300000</ele>
                <time>2018-10-21T03:31:15Z</time>
            </trkpt>
            <trkpt lon="101.207652" lat="14.305072">
                <ele>28.600000</ele>
                <time>2018-10-21T03:31:16Z</time>
            </trkpt>
            <trkpt lon="101.207701" lat="14.305080">
                <ele>28.900000</ele>
                <time>2018-10-21T03:31:17Z</time>
            </trkpt>
            <trkpt lon="101.207749" lat="14.305091">
                <ele>29.200000</ele>
                <time>2018-10-21T03:31:18Z</time>
            </trkpt>
            <trkpt lon="101.207799" lat="14.305102">
                <ele>29.500000</ele>
                <time>2018-10-21T03:31:19Z</time>
            </trkpt>
            <trkpt lon="101.207853" lat="14.305106">
                <ele>29.800000</ele>
                <time>2018-10-21T03:31:20Z</time>
            </trkpt>
            <trkpt lon="101.207901" lat="14.305106">
                <ele>30.100000</ele>
                <time>2018-10-21T03:31:21Z</time>
            </trkpt>
            <trkpt lon="101.207953" lat="14.305102">
                <ele>30.400000</ele>
                <time>2018-10-21T03:31:22Z</time>
            </trkpt>
            <trkpt lon="101.207995" lat="14.305095">
                <ele>30.700000</ele>
                <time>2018-10-21T03:31:23Z</time>
            </trkpt>
            <trkpt lon="101.208048" lat="14.305088">
                <ele>30.800000</ele>
                <time>2018-10-21T03:31:24Z</time>
            </trkpt>
            <trkpt lon="101.208097" lat="14.305081">
                <ele>30.800000</ele>
                <time>2018-10-21T03:31:25Z</time>
            </trkpt>
            <trkpt lon="101.208139" lat="14.305078">
                <ele>30.800000</ele>
                <time>2018-10-21T03:31:26Z</time>
            </trkpt>
            <trkpt lon="101.208184" lat="14.305072">
                <ele>30.800000</ele>
                <time>2018-10-21T03:31:27Z</time>
            </trkpt>
            <trkpt lon="101.208229" lat="14.305067">
                <ele>30.700000</ele>
                <time>2018-10-21T03:31:28Z</time>
            </trkpt>
            <trkpt lon="101.208271" lat="14.305056">
                <ele>30.500000</ele>
                <time>2018-10-21T03:31:29Z</time>
            </trkpt>
            <trkpt lon="101.208308" lat="14.305044">
                <ele>30.300000</ele>
                <time>2018-10-21T03:31:30Z</time>
            </trkpt>
            <trkpt lon="101.208352" lat="14.305037">
                <ele>30.100000</ele>
                <time>2018-10-21T03:31:31Z</time>
            </trkpt>
            <trkpt lon="101.208384" lat="14.305041">
                <ele>30.000000</ele>
                <time>2018-10-21T03:31:32Z</time>
            </trkpt>
            <trkpt lon="101.208411" lat="14.305063">
                <ele>29.900000</ele>
                <time>2018-10-21T03:31:33Z</time>
            </trkpt>
            <trkpt lon="101.208439" lat="14.305107">
                <ele>29.800000</ele>
                <time>2018-10-21T03:31:34Z</time>
            </trkpt>
            <trkpt lon="101.208453" lat="14.305149">
                <ele>29.600000</ele>
                <time>2018-10-21T03:31:35Z</time>
            </trkpt>
            <trkpt lon="101.208463" lat="14.305193">
                <ele>29.300000</ele>
                <time>2018-10-21T03:31:36Z</time>
            </trkpt>
            <trkpt lon="101.208473" lat="14.305239">
                <ele>29.000000</ele>
                <time>2018-10-21T03:31:37Z</time>
            </trkpt>
            <trkpt lon="101.208487" lat="14.305281">
                <ele>28.800000</ele>
                <time>2018-10-21T03:31:38Z</time>
            </trkpt>
            <trkpt lon="101.208495" lat="14.305324">
                <ele>28.600000</ele>
                <time>2018-10-21T03:31:39Z</time>
            </trkpt>
            <trkpt lon="101.208503" lat="14.305368">
                <ele>28.300000</ele>
                <time>2018-10-21T03:31:40Z</time>
            </trkpt>
            <trkpt lon="101.208516" lat="14.305405">
                <ele>28.100000</ele>
                <time>2018-10-21T03:31:41Z</time>
            </trkpt>
            <trkpt lon="101.208532" lat="14.305440">
                <ele>27.800000</ele>
                <time>2018-10-21T03:31:42Z</time>
            </trkpt>
            <trkpt lon="101.208544" lat="14.305479">
                <ele>27.300000</ele>
                <time>2018-10-21T03:31:43Z</time>
            </trkpt>
            <trkpt lon="101.208555" lat="14.305521">
                <ele>26.900000</ele>
                <time>2018-10-21T03:31:44Z</time>
            </trkpt>
            <trkpt lon="101.208573" lat="14.305559">
                <ele>26.500000</ele>
                <time>2018-10-21T03:31:45Z</time>
            </trkpt>
            <trkpt lon="101.208592" lat="14.305593">
                <ele>26.100000</ele>
                <time>2018-10-21T03:31:46Z</time>
            </trkpt>
            <trkpt lon="101.208602" lat="14.305632">
                <ele>26.000000</ele>
                <time>2018-10-21T03:31:47Z</time>
            </trkpt>
            <trkpt lon="101.208610" lat="14.305671">
                <ele>26.000000</ele>
                <time>2018-10-21T03:31:48Z</time>
            </trkpt>
            <trkpt lon="101.208622" lat="14.305710">
                <ele>26.000000</ele>
                <time>2018-10-21T03:31:49Z</time>
            </trkpt>
            <trkpt lon="101.208633" lat="14.305748">
                <ele>26.000000</ele>
                <time>2018-10-21T03:31:50Z</time>
            </trkpt>
            <trkpt lon="101.208641" lat="14.305789">
                <ele>26.100000</ele>
                <time>2018-10-21T03:31:51Z</time>
            </trkpt>
            <trkpt lon="101.208653" lat="14.305829">
                <ele>26.500000</ele>
                <time>2018-10-21T03:31:52Z</time>
            </trkpt>
            <trkpt lon="101.208661" lat="14.305867">
                <ele>26.700000</ele>
                <time>2018-10-21T03:31:53Z</time>
            </trkpt>
            <trkpt lon="101.208665" lat="14.305907">
                <ele>26.800000</ele>
                <time>2018-10-21T03:31:54Z</time>
            </trkpt>
            <trkpt lon="101.208669" lat="14.305948">
                <ele>27.100000</ele>
                <time>2018-10-21T03:31:55Z</time>
            </trkpt>
            <trkpt lon="101.208671" lat="14.305988">
                <ele>27.400000</ele>
                <time>2018-10-21T03:31:56Z</time>
            </trkpt>
            <trkpt lon="101.208670" lat="14.306029">
                <ele>27.700000</ele>
                <time>2018-10-21T03:31:57Z</time>
            </trkpt>
            <trkpt lon="101.208673" lat="14.306071">
                <ele>27.900000</ele>
                <time>2018-10-21T03:31:58Z</time>
            </trkpt>
            <trkpt lon="101.208674" lat="14.306112">
                <ele>28.100000</ele>
                <time>2018-10-21T03:31:59Z</time>
            </trkpt>
            <trkpt lon="101.208671" lat="14.306154">
                <ele>28.400000</ele>
                <time>2018-10-21T03:32:00Z</time>
            </trkpt>
            <trkpt lon="101.208667" lat="14.306197">
                <ele>28.700000</ele>
                <time>2018-10-21T03:32:01Z</time>
            </trkpt>
            <trkpt lon="101.208662" lat="14.306238">
                <ele>28.900000</ele>
                <time>2018-10-21T03:32:02Z</time>
            </trkpt>
            <trkpt lon="101.208656" lat="14.306278">
                <ele>29.000000</ele>
                <time>2018-10-21T03:32:03Z</time>
            </trkpt>
            <trkpt lon="101.208650" lat="14.306320">
                <ele>29.100000</ele>
                <time>2018-10-21T03:32:04Z</time>
            </trkpt>
            <trkpt lon="101.208640" lat="14.306362">
                <ele>29.200000</ele>
                <time>2018-10-21T03:32:05Z</time>
            </trkpt>
            <trkpt lon="101.208629" lat="14.306405">
                <ele>29.300000</ele>
                <time>2018-10-21T03:32:06Z</time>
            </trkpt>
            <trkpt lon="101.208625" lat="14.306446">
                <ele>29.400000</ele>
                <time>2018-10-21T03:32:07Z</time>
            </trkpt>
            <trkpt lon="101.208622" lat="14.306485">
                <ele>29.600000</ele>
                <time>2018-10-21T03:32:08Z</time>
            </trkpt>
            <trkpt lon="101.208618" lat="14.306522">
                <ele>29.700000</ele>
                <time>2018-10-21T03:32:09Z</time>
            </trkpt>
            <trkpt lon="101.208609" lat="14.306558">
                <ele>29.900000</ele>
                <time>2018-10-21T03:32:10Z</time>
            </trkpt>
            <trkpt lon="101.208603" lat="14.306589">
                <ele>29.900000</ele>
                <time>2018-10-21T03:32:11Z</time>
            </trkpt>
            <trkpt lon="101.208602" lat="14.306619">
                <ele>30.000000</ele>
                <time>2018-10-21T03:32:12Z</time>
            </trkpt>
            <trkpt lon="101.208588" lat="14.306666">
                <ele>30.000000</ele>
                <time>2018-10-21T03:32:14Z</time>
            </trkpt>
            <trkpt lon="101.208548" lat="14.306694">
                <ele>30.000000</ele>
                <time>2018-10-21T03:32:16Z</time>
            </trkpt>
            <trkpt lon="101.208496" lat="14.306699">
                <ele>30.000000</ele>
                <time>2018-10-21T03:32:18Z</time>
            </trkpt>
            <trkpt lon="101.208457" lat="14.306695">
                <ele>30.000000</ele>
                <time>2018-10-21T03:32:19Z</time>
            </trkpt>
            <trkpt lon="101.208414" lat="14.306694">
                <ele>30.000000</ele>
                <time>2018-10-21T03:32:20Z</time>
            </trkpt>
            <trkpt lon="101.208367" lat="14.306693">
                <ele>30.000000</ele>
                <time>2018-10-21T03:32:21Z</time>
            </trkpt>
            <trkpt lon="101.208324" lat="14.306691">
                <ele>30.000000</ele>
                <time>2018-10-21T03:32:22Z</time>
            </trkpt>
            <trkpt lon="101.208278" lat="14.306686">
                <ele>30.000000</ele>
                <time>2018-10-21T03:32:23Z</time>
            </trkpt>
            <trkpt lon="101.208241" lat="14.306681">
                <ele>30.000000</ele>
                <time>2018-10-21T03:32:24Z</time>
            </trkpt>
            <trkpt lon="101.208198" lat="14.306680">
                <ele>30.000000</ele>
                <time>2018-10-21T03:32:25Z</time>
            </trkpt>
            <trkpt lon="101.208160" lat="14.306678">
                <ele>30.000000</ele>
                <time>2018-10-21T03:32:26Z</time>
            </trkpt>
            <trkpt lon="101.208113" lat="14.306684">
                <ele>30.000000</ele>
                <time>2018-10-21T03:32:27Z</time>
            </trkpt>
            <trkpt lon="101.208070" lat="14.306693">
                <ele>30.000000</ele>
                <time>2018-10-21T03:32:28Z</time>
            </trkpt>
            <trkpt lon="101.208024" lat="14.306698">
                <ele>30.000000</ele>
                <time>2018-10-21T03:32:29Z</time>
            </trkpt>
            <trkpt lon="101.207985" lat="14.306709">
                <ele>30.000000</ele>
                <time>2018-10-21T03:32:30Z</time>
            </trkpt>
            <trkpt lon="101.207941" lat="14.306706">
                <ele>30.000000</ele>
                <time>2018-10-21T03:32:31Z</time>
            </trkpt>
            <trkpt lon="101.207892" lat="14.306706">
                <ele>30.000000</ele>
                <time>2018-10-21T03:32:32Z</time>
            </trkpt>
            <trkpt lon="101.207838" lat="14.306703">
                <ele>30.000000</ele>
                <time>2018-10-21T03:32:33Z</time>
            </trkpt>
            <trkpt lon="101.207783" lat="14.306696">
                <ele>30.000000</ele>
                <time>2018-10-21T03:32:34Z</time>
            </trkpt>
            <trkpt lon="101.207735" lat="14.306687">
                <ele>30.000000</ele>
                <time>2018-10-21T03:32:35Z</time>
            </trkpt>
            <trkpt lon="101.207686" lat="14.306673">
                <ele>30.100000</ele>
                <time>2018-10-21T03:32:36Z</time>
            </trkpt>
            <trkpt lon="101.207631" lat="14.306653">
                <ele>30.600000</ele>
                <time>2018-10-21T03:32:37Z</time>
            </trkpt>
            <trkpt lon="101.207580" lat="14.306641">
                <ele>31.200000</ele>
                <time>2018-10-21T03:32:38Z</time>
            </trkpt>
            <trkpt lon="101.207526" lat="14.306627">
                <ele>31.800000</ele>
                <time>2018-10-21T03:32:39Z</time>
            </trkpt>
            <trkpt lon="101.207476" lat="14.306622">
                <ele>32.200000</ele>
                <time>2018-10-21T03:32:40Z</time>
            </trkpt>
            <trkpt lon="101.207428" lat="14.306618">
                <ele>32.400000</ele>
                <time>2018-10-21T03:32:41Z</time>
            </trkpt>
            <trkpt lon="101.207381" lat="14.306616">
                <ele>32.700000</ele>
                <time>2018-10-21T03:32:42Z</time>
            </trkpt>
            <trkpt lon="101.207333" lat="14.306608">
                <ele>33.000000</ele>
                <time>2018-10-21T03:32:43Z</time>
            </trkpt>
            <trkpt lon="101.207285" lat="14.306599">
                <ele>33.200000</ele>
                <time>2018-10-21T03:32:44Z</time>
            </trkpt>
            <trkpt lon="101.207231" lat="14.306591">
                <ele>33.500000</ele>
                <time>2018-10-21T03:32:45Z</time>
            </trkpt>
            <trkpt lon="101.207182" lat="14.306586">
                <ele>33.600000</ele>
                <time>2018-10-21T03:32:46Z</time>
            </trkpt>
            <trkpt lon="101.207133" lat="14.306578">
                <ele>33.700000</ele>
                <time>2018-10-21T03:32:47Z</time>
            </trkpt>
            <trkpt lon="101.207077" lat="14.306570">
                <ele>33.700000</ele>
                <time>2018-10-21T03:32:48Z</time>
            </trkpt>
            <trkpt lon="101.207028" lat="14.306568">
                <ele>33.800000</ele>
                <time>2018-10-21T03:32:49Z</time>
            </trkpt>
            <trkpt lon="101.206978" lat="14.306564">
                <ele>34.000000</ele>
                <time>2018-10-21T03:32:50Z</time>
            </trkpt>
            <trkpt lon="101.206925" lat="14.306561">
                <ele>34.200000</ele>
                <time>2018-10-21T03:32:51Z</time>
            </trkpt>
            <trkpt lon="101.206871" lat="14.306555">
                <ele>34.500000</ele>
                <time>2018-10-21T03:32:52Z</time>
            </trkpt>
            <trkpt lon="101.206820" lat="14.306545">
                <ele>34.700000</ele>
                <time>2018-10-21T03:32:53Z</time>
            </trkpt>
            <trkpt lon="101.206774" lat="14.306544">
                <ele>34.800000</ele>
                <time>2018-10-21T03:32:54Z</time>
            </trkpt>
            <trkpt lon="101.206722" lat="14.306543">
                <ele>34.700000</ele>
                <time>2018-10-21T03:32:55Z</time>
            </trkpt>
            <trkpt lon="101.206672" lat="14.306539">
                <ele>34.600000</ele>
                <time>2018-10-21T03:32:56Z</time>
            </trkpt>
            <trkpt lon="101.206622" lat="14.306532">
                <ele>34.400000</ele>
                <time>2018-10-21T03:32:57Z</time>
            </trkpt>
            <trkpt lon="101.206571" lat="14.306527">
                <ele>34.200000</ele>
                <time>2018-10-21T03:32:58Z</time>
            </trkpt>
            <trkpt lon="101.206520" lat="14.306524">
                <ele>33.800000</ele>
                <time>2018-10-21T03:32:59Z</time>
            </trkpt>
            <trkpt lon="101.206472" lat="14.306521">
                <ele>33.400000</ele>
                <time>2018-10-21T03:33:00Z</time>
            </trkpt>
            <trkpt lon="101.206428" lat="14.306518">
                <ele>33.200000</ele>
                <time>2018-10-21T03:33:01Z</time>
            </trkpt>
            <trkpt lon="101.206382" lat="14.306516">
                <ele>32.900000</ele>
                <time>2018-10-21T03:33:02Z</time>
            </trkpt>
            <trkpt lon="101.206333" lat="14.306513">
                <ele>32.600000</ele>
                <time>2018-10-21T03:33:03Z</time>
            </trkpt>
            <trkpt lon="101.206283" lat="14.306515">
                <ele>32.300000</ele>
                <time>2018-10-21T03:33:04Z</time>
            </trkpt>
            <trkpt lon="101.206240" lat="14.306509">
                <ele>32.100000</ele>
                <time>2018-10-21T03:33:05Z</time>
            </trkpt>
            <trkpt lon="101.206198" lat="14.306507">
                <ele>31.900000</ele>
                <time>2018-10-21T03:33:06Z</time>
            </trkpt>
            <trkpt lon="101.206156" lat="14.306500">
                <ele>31.600000</ele>
                <time>2018-10-21T03:33:07Z</time>
            </trkpt>
            <trkpt lon="101.206113" lat="14.306492">
                <ele>31.300000</ele>
                <time>2018-10-21T03:33:08Z</time>
            </trkpt>
            <trkpt lon="101.206069" lat="14.306483">
                <ele>31.000000</ele>
                <time>2018-10-21T03:33:09Z</time>
            </trkpt>
            <trkpt lon="101.206028" lat="14.306476">
                <ele>30.700000</ele>
                <time>2018-10-21T03:33:10Z</time>
            </trkpt>
            <trkpt lon="101.205990" lat="14.306471">
                <ele>30.500000</ele>
                <time>2018-10-21T03:33:11Z</time>
            </trkpt>
            <trkpt lon="101.205951" lat="14.306456">
                <ele>30.600000</ele>
                <time>2018-10-21T03:33:12Z</time>
            </trkpt>
            <trkpt lon="101.205902" lat="14.306421">
                <ele>30.600000</ele>
                <time>2018-10-21T03:33:13Z</time>
            </trkpt>
            <trkpt lon="101.205868" lat="14.306396">
                <ele>30.500000</ele>
                <time>2018-10-21T03:33:14Z</time>
            </trkpt>
            <trkpt lon="101.205839" lat="14.306370">
                <ele>30.500000</ele>
                <time>2018-10-21T03:33:15Z</time>
            </trkpt>
            <trkpt lon="101.205808" lat="14.306336">
                <ele>30.600000</ele>
                <time>2018-10-21T03:33:16Z</time>
            </trkpt>
            <trkpt lon="101.205781" lat="14.306299">
                <ele>30.800000</ele>
                <time>2018-10-21T03:33:17Z</time>
            </trkpt>
            <trkpt lon="101.205755" lat="14.306263">
                <ele>31.000000</ele>
                <time>2018-10-21T03:33:18Z</time>
            </trkpt>
            <trkpt lon="101.205729" lat="14.306225">
                <ele>31.000000</ele>
                <time>2018-10-21T03:33:19Z</time>
            </trkpt>
            <trkpt lon="101.205701" lat="14.306183">
                <ele>31.000000</ele>
                <time>2018-10-21T03:33:20Z</time>
            </trkpt>
            <trkpt lon="101.205671" lat="14.306144">
                <ele>31.000000</ele>
                <time>2018-10-21T03:33:21Z</time>
            </trkpt>
            <trkpt lon="101.205641" lat="14.306109">
                <ele>31.000000</ele>
                <time>2018-10-21T03:33:22Z</time>
            </trkpt>
            <trkpt lon="101.205614" lat="14.306065">
                <ele>31.000000</ele>
                <time>2018-10-21T03:33:23Z</time>
            </trkpt>
            <trkpt lon="101.205596" lat="14.306026">
                <ele>30.800000</ele>
                <time>2018-10-21T03:33:24Z</time>
            </trkpt>
            <trkpt lon="101.205574" lat="14.305990">
                <ele>30.800000</ele>
                <time>2018-10-21T03:33:25Z</time>
            </trkpt>
            <trkpt lon="101.205543" lat="14.305954">
                <ele>30.700000</ele>
                <time>2018-10-21T03:33:26Z</time>
            </trkpt>
            <trkpt lon="101.205516" lat="14.305914">
                <ele>30.700000</ele>
                <time>2018-10-21T03:33:27Z</time>
            </trkpt>
            <trkpt lon="101.205492" lat="14.305875">
                <ele>30.800000</ele>
                <time>2018-10-21T03:33:28Z</time>
            </trkpt>
            <trkpt lon="101.205465" lat="14.305830">
                <ele>30.700000</ele>
                <time>2018-10-21T03:33:29Z</time>
            </trkpt>
            <trkpt lon="101.205440" lat="14.305789">
                <ele>30.600000</ele>
                <time>2018-10-21T03:33:30Z</time>
            </trkpt>
            <trkpt lon="101.205418" lat="14.305750">
                <ele>30.500000</ele>
                <time>2018-10-21T03:33:31Z</time>
            </trkpt>
            <trkpt lon="101.205396" lat="14.305707">
                <ele>30.600000</ele>
                <time>2018-10-21T03:33:32Z</time>
            </trkpt>
            <trkpt lon="101.205370" lat="14.305672">
                <ele>30.800000</ele>
                <time>2018-10-21T03:33:33Z</time>
            </trkpt>
            <trkpt lon="101.205343" lat="14.305637">
                <ele>31.300000</ele>
                <time>2018-10-21T03:33:34Z</time>
            </trkpt>
            <trkpt lon="101.205312" lat="14.305601">
                <ele>31.800000</ele>
                <time>2018-10-21T03:33:35Z</time>
            </trkpt>
            <trkpt lon="101.205282" lat="14.305564">
                <ele>32.400000</ele>
                <time>2018-10-21T03:33:36Z</time>
            </trkpt>
            <trkpt lon="101.205257" lat="14.305519">
                <ele>32.900000</ele>
                <time>2018-10-21T03:33:37Z</time>
            </trkpt>
            <trkpt lon="101.205232" lat="14.305481">
                <ele>33.300000</ele>
                <time>2018-10-21T03:33:38Z</time>
            </trkpt>
            <trkpt lon="101.205209" lat="14.305442">
                <ele>33.700000</ele>
                <time>2018-10-21T03:33:39Z</time>
            </trkpt>
            <trkpt lon="101.205186" lat="14.305406">
                <ele>34.100000</ele>
                <time>2018-10-21T03:33:40Z</time>
            </trkpt>
            <trkpt lon="101.205168" lat="14.305372">
                <ele>34.500000</ele>
                <time>2018-10-21T03:33:41Z</time>
            </trkpt>
            <trkpt lon="101.205145" lat="14.305339">
                <ele>34.700000</ele>
                <time>2018-10-21T03:33:42Z</time>
            </trkpt>
            <trkpt lon="101.205122" lat="14.305306">
                <ele>34.900000</ele>
                <time>2018-10-21T03:33:43Z</time>
            </trkpt>
            <trkpt lon="101.205098" lat="14.305273">
                <ele>35.000000</ele>
                <time>2018-10-21T03:33:44Z</time>
            </trkpt>
            <trkpt lon="101.205074" lat="14.305239">
                <ele>35.000000</ele>
                <time>2018-10-21T03:33:45Z</time>
            </trkpt>
            <trkpt lon="101.205049" lat="14.305203">
                <ele>34.900000</ele>
                <time>2018-10-21T03:33:46Z</time>
            </trkpt>
            <trkpt lon="101.205023" lat="14.305176">
                <ele>34.800000</ele>
                <time>2018-10-21T03:33:47Z</time>
            </trkpt>
            <trkpt lon="101.204993" lat="14.305157">
                <ele>34.900000</ele>
                <time>2018-10-21T03:33:48Z</time>
            </trkpt>
            <trkpt lon="101.204959" lat="14.305150">
                <ele>34.900000</ele>
                <time>2018-10-21T03:33:49Z</time>
            </trkpt>
            <trkpt lon="101.204923" lat="14.305140">
                <ele>34.900000</ele>
                <time>2018-10-21T03:33:50Z</time>
            </trkpt>
            <trkpt lon="101.204887" lat="14.305124">
                <ele>34.700000</ele>
                <time>2018-10-21T03:33:51Z</time>
            </trkpt>
            <trkpt lon="101.204850" lat="14.305097">
                <ele>34.400000</ele>
                <time>2018-10-21T03:33:52Z</time>
            </trkpt>
            <trkpt lon="101.204820" lat="14.305072">
                <ele>34.000000</ele>
                <time>2018-10-21T03:33:53Z</time>
            </trkpt>
            <trkpt lon="101.204793" lat="14.305038">
                <ele>33.600000</ele>
                <time>2018-10-21T03:33:54Z</time>
            </trkpt>
            <trkpt lon="101.204765" lat="14.305017">
                <ele>33.400000</ele>
                <time>2018-10-21T03:33:55Z</time>
            </trkpt>
            <trkpt lon="101.204739" lat="14.305006">
                <ele>33.200000</ele>
                <time>2018-10-21T03:33:56Z</time>
            </trkpt>
            <trkpt lon="101.204711" lat="14.304997">
                <ele>32.900000</ele>
                <time>2018-10-21T03:33:57Z</time>
            </trkpt>
            <trkpt lon="101.204676" lat="14.305001">
                <ele>32.600000</ele>
                <time>2018-10-21T03:33:58Z</time>
            </trkpt>
            <trkpt lon="101.204640" lat="14.305011">
                <ele>31.800000</ele>
                <time>2018-10-21T03:33:59Z</time>
            </trkpt>
            <trkpt lon="101.204608" lat="14.305015">
                <ele>31.100000</ele>
                <time>2018-10-21T03:34:00Z</time>
            </trkpt>
            <trkpt lon="101.204570" lat="14.305011">
                <ele>30.800000</ele>
                <time>2018-10-21T03:34:01Z</time>
            </trkpt>
            <trkpt lon="101.204539" lat="14.304999">
                <ele>30.600000</ele>
                <time>2018-10-21T03:34:02Z</time>
            </trkpt>
            <trkpt lon="101.204505" lat="14.304979">
                <ele>30.000000</ele>
                <time>2018-10-21T03:34:03Z</time>
            </trkpt>
            <trkpt lon="101.204471" lat="14.304960">
                <ele>29.400000</ele>
                <time>2018-10-21T03:34:04Z</time>
            </trkpt>
            <trkpt lon="101.204444" lat="14.304938">
                <ele>28.900000</ele>
                <time>2018-10-21T03:34:05Z</time>
            </trkpt>
            <trkpt lon="101.204425" lat="14.304909">
                <ele>28.500000</ele>
                <time>2018-10-21T03:34:06Z</time>
            </trkpt>
            <trkpt lon="101.204407" lat="14.304878">
                <ele>28.100000</ele>
                <time>2018-10-21T03:34:07Z</time>
            </trkpt>
            <trkpt lon="101.204390" lat="14.304856">
                <ele>28.100000</ele>
                <time>2018-10-21T03:34:08Z</time>
            </trkpt>
            <trkpt lon="101.204367" lat="14.304832">
                <ele>28.000000</ele>
                <time>2018-10-21T03:34:09Z</time>
            </trkpt>
            <trkpt lon="101.204343" lat="14.304810">
                <ele>28.000000</ele>
                <time>2018-10-21T03:34:10Z</time>
            </trkpt>
            <trkpt lon="101.204313" lat="14.304804">
                <ele>28.000000</ele>
                <time>2018-10-21T03:34:11Z</time>
            </trkpt>
            <trkpt lon="101.204287" lat="14.304820">
                <ele>28.100000</ele>
                <time>2018-10-21T03:34:12Z</time>
            </trkpt>
            <trkpt lon="101.204263" lat="14.304844">
                <ele>28.300000</ele>
                <time>2018-10-21T03:34:14Z</time>
            </trkpt>
            <trkpt lon="101.204236" lat="14.304871">
                <ele>28.600000</ele>
                <time>2018-10-21T03:34:16Z</time>
            </trkpt>
            <trkpt lon="101.204206" lat="14.304884">
                <ele>29.100000</ele>
                <time>2018-10-21T03:34:17Z</time>
            </trkpt>
            <trkpt lon="101.204174" lat="14.304892">
                <ele>29.500000</ele>
                <time>2018-10-21T03:34:18Z</time>
            </trkpt>
            <trkpt lon="101.204114" lat="14.304901">
                <ele>29.900000</ele>
                <time>2018-10-21T03:34:20Z</time>
            </trkpt>
            <trkpt lon="101.204083" lat="14.304912">
                <ele>30.200000</ele>
                <time>2018-10-21T03:34:21Z</time>
            </trkpt>
            <trkpt lon="101.204054" lat="14.304916">
                <ele>30.600000</ele>
                <time>2018-10-21T03:34:22Z</time>
            </trkpt>
            <trkpt lon="101.204002" lat="14.304938">
                <ele>31.100000</ele>
                <time>2018-10-21T03:34:24Z</time>
            </trkpt>
            <trkpt lon="101.203973" lat="14.304958">
                <ele>31.400000</ele>
                <time>2018-10-21T03:34:26Z</time>
            </trkpt>
            <trkpt lon="101.203948" lat="14.304971">
                <ele>31.600000</ele>
                <time>2018-10-21T03:34:27Z</time>
            </trkpt>
            <trkpt lon="101.203921" lat="14.304988">
                <ele>31.800000</ele>
                <time>2018-10-21T03:34:28Z</time>
            </trkpt>
            <trkpt lon="101.203899" lat="14.305008">
                <ele>31.900000</ele>
                <time>2018-10-21T03:34:29Z</time>
            </trkpt>
            <trkpt lon="101.203876" lat="14.305034">
                <ele>32.000000</ele>
                <time>2018-10-21T03:34:30Z</time>
            </trkpt>
            <trkpt lon="101.203851" lat="14.305057">
                <ele>32.000000</ele>
                <time>2018-10-21T03:34:31Z</time>
            </trkpt>
            <trkpt lon="101.203824" lat="14.305075">
                <ele>32.000000</ele>
                <time>2018-10-21T03:34:32Z</time>
            </trkpt>
            <trkpt lon="101.203795" lat="14.305082">
                <ele>32.000000</ele>
                <time>2018-10-21T03:34:33Z</time>
            </trkpt>
            <trkpt lon="101.203762" lat="14.305094">
                <ele>32.000000</ele>
                <time>2018-10-21T03:34:34Z</time>
            </trkpt>
            <trkpt lon="101.203725" lat="14.305099">
                <ele>32.000000</ele>
                <time>2018-10-21T03:34:35Z</time>
            </trkpt>
            <trkpt lon="101.203693" lat="14.305108">
                <ele>32.000000</ele>
                <time>2018-10-21T03:34:36Z</time>
            </trkpt>
            <trkpt lon="101.203660" lat="14.305116">
                <ele>32.000000</ele>
                <time>2018-10-21T03:34:37Z</time>
            </trkpt>
            <trkpt lon="101.203628" lat="14.305126">
                <ele>32.000000</ele>
                <time>2018-10-21T03:34:38Z</time>
            </trkpt>
            <trkpt lon="101.203596" lat="14.305140">
                <ele>31.900000</ele>
                <time>2018-10-21T03:34:39Z</time>
            </trkpt>
            <trkpt lon="101.203563" lat="14.305153">
                <ele>31.800000</ele>
                <time>2018-10-21T03:34:40Z</time>
            </trkpt>
            <trkpt lon="101.203534" lat="14.305164">
                <ele>31.600000</ele>
                <time>2018-10-21T03:34:41Z</time>
            </trkpt>
            <trkpt lon="101.203502" lat="14.305177">
                <ele>31.400000</ele>
                <time>2018-10-21T03:34:42Z</time>
            </trkpt>
            <trkpt lon="101.203474" lat="14.305190">
                <ele>31.300000</ele>
                <time>2018-10-21T03:34:43Z</time>
            </trkpt>
            <trkpt lon="101.203442" lat="14.305206">
                <ele>31.100000</ele>
                <time>2018-10-21T03:34:44Z</time>
            </trkpt>
            <trkpt lon="101.203416" lat="14.305222">
                <ele>31.100000</ele>
                <time>2018-10-21T03:34:45Z</time>
            </trkpt>
            <trkpt lon="101.203393" lat="14.305239">
                <ele>31.000000</ele>
                <time>2018-10-21T03:34:46Z</time>
            </trkpt>
            <trkpt lon="101.203372" lat="14.305257">
                <ele>31.000000</ele>
                <time>2018-10-21T03:34:47Z</time>
            </trkpt>
            <trkpt lon="101.203334" lat="14.305292">
                <ele>30.300000</ele>
                <time>2018-10-21T03:34:49Z</time>
            </trkpt>
            <trkpt lon="101.203310" lat="14.305340">
                <ele>29.600000</ele>
                <time>2018-10-21T03:34:51Z</time>
            </trkpt>
            <trkpt lon="101.203307" lat="14.305372">
                <ele>29.100000</ele>
                <time>2018-10-21T03:34:52Z</time>
            </trkpt>
            <trkpt lon="101.203314" lat="14.305400">
                <ele>28.800000</ele>
                <time>2018-10-21T03:34:53Z</time>
            </trkpt>
            <trkpt lon="101.203318" lat="14.305434">
                <ele>28.500000</ele>
                <time>2018-10-21T03:34:54Z</time>
            </trkpt>
            <trkpt lon="101.203334" lat="14.305471">
                <ele>28.100000</ele>
                <time>2018-10-21T03:34:55Z</time>
            </trkpt>
            <trkpt lon="101.203350" lat="14.305500">
                <ele>27.700000</ele>
                <time>2018-10-21T03:34:56Z</time>
            </trkpt>
            <trkpt lon="101.203365" lat="14.305526">
                <ele>27.400000</ele>
                <time>2018-10-21T03:34:57Z</time>
            </trkpt>
            <trkpt lon="101.203379" lat="14.305556">
                <ele>27.100000</ele>
                <time>2018-10-21T03:34:58Z</time>
            </trkpt>
            <trkpt lon="101.203403" lat="14.305584">
                <ele>26.800000</ele>
                <time>2018-10-21T03:34:59Z</time>
            </trkpt>
            <trkpt lon="101.203420" lat="14.305615">
                <ele>26.600000</ele>
                <time>2018-10-21T03:35:00Z</time>
            </trkpt>
            <trkpt lon="101.203437" lat="14.305643">
                <ele>26.500000</ele>
                <time>2018-10-21T03:35:01Z</time>
            </trkpt>
            <trkpt lon="101.203455" lat="14.305672">
                <ele>26.300000</ele>
                <time>2018-10-21T03:35:02Z</time>
            </trkpt>
            <trkpt lon="101.203467" lat="14.305703">
                <ele>26.000000</ele>
                <time>2018-10-21T03:35:03Z</time>
            </trkpt>
            <trkpt lon="101.203486" lat="14.305731">
                <ele>25.700000</ele>
                <time>2018-10-21T03:35:04Z</time>
            </trkpt>
            <trkpt lon="101.203503" lat="14.305762">
                <ele>25.500000</ele>
                <time>2018-10-21T03:35:05Z</time>
            </trkpt>
            <trkpt lon="101.203523" lat="14.305793">
                <ele>25.300000</ele>
                <time>2018-10-21T03:35:06Z</time>
            </trkpt>
            <trkpt lon="101.203541" lat="14.305822">
                <ele>25.200000</ele>
                <time>2018-10-21T03:35:07Z</time>
            </trkpt>
            <trkpt lon="101.203559" lat="14.305847">
                <ele>25.100000</ele>
                <time>2018-10-21T03:35:08Z</time>
            </trkpt>
            <trkpt lon="101.203579" lat="14.305872">
                <ele>25.000000</ele>
                <time>2018-10-21T03:35:09Z</time>
            </trkpt>
            <trkpt lon="101.203591" lat="14.305900">
                <ele>25.000000</ele>
                <time>2018-10-21T03:35:10Z</time>
            </trkpt>
            <trkpt lon="101.203606" lat="14.305931">
                <ele>24.900000</ele>
                <time>2018-10-21T03:35:11Z</time>
            </trkpt>
            <trkpt lon="101.203616" lat="14.305965">
                <ele>25.300000</ele>
                <time>2018-10-21T03:35:12Z</time>
            </trkpt>
            <trkpt lon="101.203625" lat="14.306001">
                <ele>25.700000</ele>
                <time>2018-10-21T03:35:13Z</time>
            </trkpt>
            <trkpt lon="101.203631" lat="14.306035">
                <ele>25.900000</ele>
                <time>2018-10-21T03:35:14Z</time>
            </trkpt>
            <trkpt lon="101.203635" lat="14.306070">
                <ele>26.100000</ele>
                <time>2018-10-21T03:35:15Z</time>
            </trkpt>
            <trkpt lon="101.203639" lat="14.306102">
                <ele>26.400000</ele>
                <time>2018-10-21T03:35:16Z</time>
            </trkpt>
            <trkpt lon="101.203639" lat="14.306134">
                <ele>26.800000</ele>
                <time>2018-10-21T03:35:17Z</time>
            </trkpt>
            <trkpt lon="101.203645" lat="14.306194">
                <ele>27.300000</ele>
                <time>2018-10-21T03:35:19Z</time>
            </trkpt>
            <trkpt lon="101.203648" lat="14.306232">
                <ele>27.400000</ele>
                <time>2018-10-21T03:35:20Z</time>
            </trkpt>
            <trkpt lon="101.203649" lat="14.306271">
                <ele>27.600000</ele>
                <time>2018-10-21T03:35:21Z</time>
            </trkpt>
            <trkpt lon="101.203650" lat="14.306308">
                <ele>27.800000</ele>
                <time>2018-10-21T03:35:22Z</time>
            </trkpt>
            <trkpt lon="101.203654" lat="14.306338">
                <ele>28.000000</ele>
                <time>2018-10-21T03:35:23Z</time>
            </trkpt>
            <trkpt lon="101.203655" lat="14.306372">
                <ele>28.300000</ele>
                <time>2018-10-21T03:35:24Z</time>
            </trkpt>
            <trkpt lon="101.203658" lat="14.306406">
                <ele>28.500000</ele>
                <time>2018-10-21T03:35:25Z</time>
            </trkpt>
            <trkpt lon="101.203665" lat="14.306442">
                <ele>28.600000</ele>
                <time>2018-10-21T03:35:26Z</time>
            </trkpt>
            <trkpt lon="101.203670" lat="14.306477">
                <ele>28.700000</ele>
                <time>2018-10-21T03:35:27Z</time>
            </trkpt>
            <trkpt lon="101.203676" lat="14.306513">
                <ele>28.800000</ele>
                <time>2018-10-21T03:35:28Z</time>
            </trkpt>
            <trkpt lon="101.203684" lat="14.306551">
                <ele>28.900000</ele>
                <time>2018-10-21T03:35:29Z</time>
            </trkpt>
            <trkpt lon="101.203691" lat="14.306588">
                <ele>29.100000</ele>
                <time>2018-10-21T03:35:30Z</time>
            </trkpt>
            <trkpt lon="101.203693" lat="14.306627">
                <ele>29.400000</ele>
                <time>2018-10-21T03:35:31Z</time>
            </trkpt>
            <trkpt lon="101.203695" lat="14.306668">
                <ele>29.800000</ele>
                <time>2018-10-21T03:35:32Z</time>
            </trkpt>
            <trkpt lon="101.203694" lat="14.306711">
                <ele>30.300000</ele>
                <time>2018-10-21T03:35:33Z</time>
            </trkpt>
            <trkpt lon="101.203696" lat="14.306751">
                <ele>30.600000</ele>
                <time>2018-10-21T03:35:34Z</time>
            </trkpt>
            <trkpt lon="101.203689" lat="14.306794">
                <ele>30.900000</ele>
                <time>2018-10-21T03:35:35Z</time>
            </trkpt>
            <trkpt lon="101.203685" lat="14.306831">
                <ele>31.100000</ele>
                <time>2018-10-21T03:35:36Z</time>
            </trkpt>
            <trkpt lon="101.203673" lat="14.306870">
                <ele>31.300000</ele>
                <time>2018-10-21T03:35:37Z</time>
            </trkpt>
            <trkpt lon="101.203661" lat="14.306909">
                <ele>31.700000</ele>
                <time>2018-10-21T03:35:38Z</time>
            </trkpt>
            <trkpt lon="101.203651" lat="14.306947">
                <ele>32.000000</ele>
                <time>2018-10-21T03:35:39Z</time>
            </trkpt>
            <trkpt lon="101.203637" lat="14.306983">
                <ele>32.000000</ele>
                <time>2018-10-21T03:35:40Z</time>
            </trkpt>
            <trkpt lon="101.203627" lat="14.307017">
                <ele>32.000000</ele>
                <time>2018-10-21T03:35:41Z</time>
            </trkpt>
            <trkpt lon="101.203616" lat="14.307052">
                <ele>32.100000</ele>
                <time>2018-10-21T03:35:42Z</time>
            </trkpt>
            <trkpt lon="101.203605" lat="14.307090">
                <ele>32.200000</ele>
                <time>2018-10-21T03:35:43Z</time>
            </trkpt>
            <trkpt lon="101.203586" lat="14.307133">
                <ele>32.500000</ele>
                <time>2018-10-21T03:35:44Z</time>
            </trkpt>
            <trkpt lon="101.203571" lat="14.307167">
                <ele>32.700000</ele>
                <time>2018-10-21T03:35:45Z</time>
            </trkpt>
            <trkpt lon="101.203556" lat="14.307201">
                <ele>32.900000</ele>
                <time>2018-10-21T03:35:46Z</time>
            </trkpt>
            <trkpt lon="101.203550" lat="14.307236">
                <ele>33.000000</ele>
                <time>2018-10-21T03:35:47Z</time>
            </trkpt>
            <trkpt lon="101.203541" lat="14.307272">
                <ele>33.100000</ele>
                <time>2018-10-21T03:35:48Z</time>
            </trkpt>
            <trkpt lon="101.203537" lat="14.307308">
                <ele>33.200000</ele>
                <time>2018-10-21T03:35:49Z</time>
            </trkpt>
            <trkpt lon="101.203535" lat="14.307346">
                <ele>33.400000</ele>
                <time>2018-10-21T03:35:50Z</time>
            </trkpt>
            <trkpt lon="101.203535" lat="14.307380">
                <ele>33.700000</ele>
                <time>2018-10-21T03:35:51Z</time>
            </trkpt>
            <trkpt lon="101.203541" lat="14.307413">
                <ele>33.700000</ele>
                <time>2018-10-21T03:35:52Z</time>
            </trkpt>
            <trkpt lon="101.203545" lat="14.307448">
                <ele>33.800000</ele>
                <time>2018-10-21T03:35:53Z</time>
            </trkpt>
            <trkpt lon="101.203552" lat="14.307485">
                <ele>34.000000</ele>
                <time>2018-10-21T03:35:54Z</time>
            </trkpt>
            <trkpt lon="101.203566" lat="14.307521">
                <ele>34.100000</ele>
                <time>2018-10-21T03:35:55Z</time>
            </trkpt>
            <trkpt lon="101.203577" lat="14.307556">
                <ele>34.100000</ele>
                <time>2018-10-21T03:35:56Z</time>
            </trkpt>
            <trkpt lon="101.203590" lat="14.307584">
                <ele>34.100000</ele>
                <time>2018-10-21T03:35:57Z</time>
            </trkpt>
            <trkpt lon="101.203603" lat="14.307609">
                <ele>34.000000</ele>
                <time>2018-10-21T03:35:58Z</time>
            </trkpt>
            <trkpt lon="101.203623" lat="14.307639">
                <ele>33.900000</ele>
                <time>2018-10-21T03:35:59Z</time>
            </trkpt>
            <trkpt lon="101.203644" lat="14.307671">
                <ele>33.800000</ele>
                <time>2018-10-21T03:36:00Z</time>
            </trkpt>
            <trkpt lon="101.203662" lat="14.307706">
                <ele>33.700000</ele>
                <time>2018-10-21T03:36:01Z</time>
            </trkpt>
            <trkpt lon="101.203675" lat="14.307741">
                <ele>33.600000</ele>
                <time>2018-10-21T03:36:02Z</time>
            </trkpt>
            <trkpt lon="101.203687" lat="14.307776">
                <ele>33.500000</ele>
                <time>2018-10-21T03:36:03Z</time>
            </trkpt>
            <trkpt lon="101.203699" lat="14.307808">
                <ele>33.500000</ele>
                <time>2018-10-21T03:36:04Z</time>
            </trkpt>
            <trkpt lon="101.203707" lat="14.307846">
                <ele>33.700000</ele>
                <time>2018-10-21T03:36:05Z</time>
            </trkpt>
            <trkpt lon="101.203721" lat="14.307878">
                <ele>33.700000</ele>
                <time>2018-10-21T03:36:06Z</time>
            </trkpt>
            <trkpt lon="101.203729" lat="14.307913">
                <ele>33.700000</ele>
                <time>2018-10-21T03:36:07Z</time>
            </trkpt>
            <trkpt lon="101.203735" lat="14.307946">
                <ele>33.700000</ele>
                <time>2018-10-21T03:36:08Z</time>
            </trkpt>
            <trkpt lon="101.203744" lat="14.307978">
                <ele>33.700000</ele>
                <time>2018-10-21T03:36:09Z</time>
            </trkpt>
            <trkpt lon="101.203754" lat="14.308011">
                <ele>33.700000</ele>
                <time>2018-10-21T03:36:10Z</time>
            </trkpt>
            <trkpt lon="101.203764" lat="14.308047">
                <ele>33.600000</ele>
                <time>2018-10-21T03:36:11Z</time>
            </trkpt>
            <trkpt lon="101.203769" lat="14.308081">
                <ele>33.500000</ele>
                <time>2018-10-21T03:36:12Z</time>
            </trkpt>
            <trkpt lon="101.203775" lat="14.308113">
                <ele>33.700000</ele>
                <time>2018-10-21T03:36:13Z</time>
            </trkpt>
            <trkpt lon="101.203775" lat="14.308148">
                <ele>33.800000</ele>
                <time>2018-10-21T03:36:14Z</time>
            </trkpt>
            <trkpt lon="101.203777" lat="14.308184">
                <ele>33.600000</ele>
                <time>2018-10-21T03:36:15Z</time>
            </trkpt>
            <trkpt lon="101.203786" lat="14.308215">
                <ele>33.400000</ele>
                <time>2018-10-21T03:36:16Z</time>
            </trkpt>
            <trkpt lon="101.203797" lat="14.308250">
                <ele>33.300000</ele>
                <time>2018-10-21T03:36:17Z</time>
            </trkpt>
            <trkpt lon="101.203808" lat="14.308287">
                <ele>33.200000</ele>
                <time>2018-10-21T03:36:18Z</time>
            </trkpt>
            <trkpt lon="101.203818" lat="14.308318">
                <ele>33.500000</ele>
                <time>2018-10-21T03:36:19Z</time>
            </trkpt>
            <trkpt lon="101.203833" lat="14.308352">
                <ele>33.700000</ele>
                <time>2018-10-21T03:36:20Z</time>
            </trkpt>
            <trkpt lon="101.203843" lat="14.308387">
                <ele>33.700000</ele>
                <time>2018-10-21T03:36:21Z</time>
            </trkpt>
            <trkpt lon="101.203853" lat="14.308420">
                <ele>33.700000</ele>
                <time>2018-10-21T03:36:22Z</time>
            </trkpt>
            <trkpt lon="101.203864" lat="14.308451">
                <ele>33.700000</ele>
                <time>2018-10-21T03:36:23Z</time>
            </trkpt>
            <trkpt lon="101.203877" lat="14.308480">
                <ele>33.800000</ele>
                <time>2018-10-21T03:36:24Z</time>
            </trkpt>
            <trkpt lon="101.203894" lat="14.308508">
                <ele>33.800000</ele>
                <time>2018-10-21T03:36:25Z</time>
            </trkpt>
            <trkpt lon="101.203904" lat="14.308534">
                <ele>33.800000</ele>
                <time>2018-10-21T03:36:26Z</time>
            </trkpt>
            <trkpt lon="101.203912" lat="14.308563">
                <ele>33.900000</ele>
                <time>2018-10-21T03:36:27Z</time>
            </trkpt>
            <trkpt lon="101.203920" lat="14.308592">
                <ele>34.000000</ele>
                <time>2018-10-21T03:36:28Z</time>
            </trkpt>
            <trkpt lon="101.203930" lat="14.308618">
                <ele>34.100000</ele>
                <time>2018-10-21T03:36:29Z</time>
            </trkpt>
            <trkpt lon="101.203942" lat="14.308646">
                <ele>34.200000</ele>
                <time>2018-10-21T03:36:30Z</time>
            </trkpt>
            <trkpt lon="101.203959" lat="14.308671">
                <ele>34.200000</ele>
                <time>2018-10-21T03:36:31Z</time>
            </trkpt>
            <trkpt lon="101.203975" lat="14.308697">
                <ele>34.200000</ele>
                <time>2018-10-21T03:36:32Z</time>
            </trkpt>
            <trkpt lon="101.203994" lat="14.308727">
                <ele>34.400000</ele>
                <time>2018-10-21T03:36:33Z</time>
            </trkpt>
            <trkpt lon="101.204002" lat="14.308758">
                <ele>34.700000</ele>
                <time>2018-10-21T03:36:34Z</time>
            </trkpt>
            <trkpt lon="101.204010" lat="14.308791">
                <ele>35.000000</ele>
                <time>2018-10-21T03:36:35Z</time>
            </trkpt>
            <trkpt lon="101.204022" lat="14.308823">
                <ele>35.300000</ele>
                <time>2018-10-21T03:36:36Z</time>
            </trkpt>
            <trkpt lon="101.204033" lat="14.308850">
                <ele>35.500000</ele>
                <time>2018-10-21T03:36:37Z</time>
            </trkpt>
            <trkpt lon="101.204036" lat="14.308883">
                <ele>35.500000</ele>
                <time>2018-10-21T03:36:38Z</time>
            </trkpt>
            <trkpt lon="101.204034" lat="14.308911">
                <ele>35.600000</ele>
                <time>2018-10-21T03:36:39Z</time>
            </trkpt>
            <trkpt lon="101.204034" lat="14.308941">
                <ele>35.600000</ele>
                <time>2018-10-21T03:36:40Z</time>
            </trkpt>
            <trkpt lon="101.204030" lat="14.308971">
                <ele>35.600000</ele>
                <time>2018-10-21T03:36:41Z</time>
            </trkpt>
            <trkpt lon="101.204027" lat="14.309000">
                <ele>35.600000</ele>
                <time>2018-10-21T03:36:42Z</time>
            </trkpt>
            <trkpt lon="101.204019" lat="14.309033">
                <ele>35.600000</ele>
                <time>2018-10-21T03:36:43Z</time>
            </trkpt>
            <trkpt lon="101.204010" lat="14.309064">
                <ele>35.500000</ele>
                <time>2018-10-21T03:36:44Z</time>
            </trkpt>
            <trkpt lon="101.203995" lat="14.309096">
                <ele>35.400000</ele>
                <time>2018-10-21T03:36:45Z</time>
            </trkpt>
            <trkpt lon="101.203978" lat="14.309126">
                <ele>35.300000</ele>
                <time>2018-10-21T03:36:46Z</time>
            </trkpt>
            <trkpt lon="101.203960" lat="14.309155">
                <ele>35.200000</ele>
                <time>2018-10-21T03:36:47Z</time>
            </trkpt>
            <trkpt lon="101.203940" lat="14.309186">
                <ele>35.000000</ele>
                <time>2018-10-21T03:36:48Z</time>
            </trkpt>
            <trkpt lon="101.203921" lat="14.309214">
                <ele>34.900000</ele>
                <time>2018-10-21T03:36:49Z</time>
            </trkpt>
            <trkpt lon="101.203900" lat="14.309239">
                <ele>34.900000</ele>
                <time>2018-10-21T03:36:50Z</time>
            </trkpt>
            <trkpt lon="101.203873" lat="14.309273">
                <ele>35.000000</ele>
                <time>2018-10-21T03:36:51Z</time>
            </trkpt>
            <trkpt lon="101.203849" lat="14.309301">
                <ele>35.000000</ele>
                <time>2018-10-21T03:36:52Z</time>
            </trkpt>
            <trkpt lon="101.203821" lat="14.309330">
                <ele>35.000000</ele>
                <time>2018-10-21T03:36:53Z</time>
            </trkpt>
            <trkpt lon="101.203799" lat="14.309362">
                <ele>35.000000</ele>
                <time>2018-10-21T03:36:54Z</time>
            </trkpt>
            <trkpt lon="101.203777" lat="14.309397">
                <ele>35.000000</ele>
                <time>2018-10-21T03:36:55Z</time>
            </trkpt>
            <trkpt lon="101.203753" lat="14.309429">
                <ele>35.300000</ele>
                <time>2018-10-21T03:36:56Z</time>
            </trkpt>
            <trkpt lon="101.203728" lat="14.309456">
                <ele>35.600000</ele>
                <time>2018-10-21T03:36:57Z</time>
            </trkpt>
            <trkpt lon="101.203707" lat="14.309488">
                <ele>35.600000</ele>
                <time>2018-10-21T03:36:58Z</time>
            </trkpt>
            <trkpt lon="101.203685" lat="14.309518">
                <ele>35.700000</ele>
                <time>2018-10-21T03:36:59Z</time>
            </trkpt>
            <trkpt lon="101.203662" lat="14.309544">
                <ele>35.700000</ele>
                <time>2018-10-21T03:37:00Z</time>
            </trkpt>
            <trkpt lon="101.203642" lat="14.309570">
                <ele>35.800000</ele>
                <time>2018-10-21T03:37:01Z</time>
            </trkpt>
            <trkpt lon="101.203623" lat="14.309597">
                <ele>35.900000</ele>
                <time>2018-10-21T03:37:02Z</time>
            </trkpt>
            <trkpt lon="101.203603" lat="14.309626">
                <ele>35.900000</ele>
                <time>2018-10-21T03:37:03Z</time>
            </trkpt>
            <trkpt lon="101.203589" lat="14.309657">
                <ele>35.900000</ele>
                <time>2018-10-21T03:37:04Z</time>
            </trkpt>
            <trkpt lon="101.203576" lat="14.309683">
                <ele>35.900000</ele>
                <time>2018-10-21T03:37:05Z</time>
            </trkpt>
            <trkpt lon="101.203557" lat="14.309731">
                <ele>35.800000</ele>
                <time>2018-10-21T03:37:07Z</time>
            </trkpt>
            <trkpt lon="101.203545" lat="14.309756">
                <ele>35.800000</ele>
                <time>2018-10-21T03:37:08Z</time>
            </trkpt>
            <trkpt lon="101.203539" lat="14.309785">
                <ele>35.700000</ele>
                <time>2018-10-21T03:37:09Z</time>
            </trkpt>
            <trkpt lon="101.203535" lat="14.309813">
                <ele>35.700000</ele>
                <time>2018-10-21T03:37:10Z</time>
            </trkpt>
            <trkpt lon="101.203528" lat="14.309863">
                <ele>35.600000</ele>
                <time>2018-10-21T03:37:12Z</time>
            </trkpt>
            <trkpt lon="101.203528" lat="14.309920">
                <ele>35.700000</ele>
                <time>2018-10-21T03:37:14Z</time>
            </trkpt>
            <trkpt lon="101.203527" lat="14.309947">
                <ele>35.500000</ele>
                <time>2018-10-21T03:37:15Z</time>
            </trkpt>
            <trkpt lon="101.203523" lat="14.309981">
                <ele>35.200000</ele>
                <time>2018-10-21T03:37:16Z</time>
            </trkpt>
            <trkpt lon="101.203521" lat="14.310009">
                <ele>34.900000</ele>
                <time>2018-10-21T03:37:17Z</time>
            </trkpt>
            <trkpt lon="101.203522" lat="14.310042">
                <ele>34.800000</ele>
                <time>2018-10-21T03:37:18Z</time>
            </trkpt>
            <trkpt lon="101.203519" lat="14.310072">
                <ele>34.800000</ele>
                <time>2018-10-21T03:37:19Z</time>
            </trkpt>
            <trkpt lon="101.203505" lat="14.310108">
                <ele>34.800000</ele>
                <time>2018-10-21T03:37:20Z</time>
            </trkpt>
            <trkpt lon="101.203494" lat="14.310144">
                <ele>34.800000</ele>
                <time>2018-10-21T03:37:21Z</time>
            </trkpt>
            <trkpt lon="101.203482" lat="14.310176">
                <ele>34.900000</ele>
                <time>2018-10-21T03:37:22Z</time>
            </trkpt>
            <trkpt lon="101.203469" lat="14.310207">
                <ele>34.800000</ele>
                <time>2018-10-21T03:37:23Z</time>
            </trkpt>
            <trkpt lon="101.203470" lat="14.310237">
                <ele>34.600000</ele>
                <time>2018-10-21T03:37:24Z</time>
            </trkpt>
            <trkpt lon="101.203467" lat="14.310271">
                <ele>34.500000</ele>
                <time>2018-10-21T03:37:25Z</time>
            </trkpt>
            <trkpt lon="101.203467" lat="14.310307">
                <ele>34.700000</ele>
                <time>2018-10-21T03:37:26Z</time>
            </trkpt>
            <trkpt lon="101.203464" lat="14.310339">
                <ele>34.800000</ele>
                <time>2018-10-21T03:37:27Z</time>
            </trkpt>
            <trkpt lon="101.203462" lat="14.310374">
                <ele>34.900000</ele>
                <time>2018-10-21T03:37:28Z</time>
            </trkpt>
            <trkpt lon="101.203459" lat="14.310410">
                <ele>35.000000</ele>
                <time>2018-10-21T03:37:29Z</time>
            </trkpt>
            <trkpt lon="101.203460" lat="14.310443">
                <ele>35.100000</ele>
                <time>2018-10-21T03:37:30Z</time>
            </trkpt>
            <trkpt lon="101.203460" lat="14.310479">
                <ele>35.100000</ele>
                <time>2018-10-21T03:37:31Z</time>
            </trkpt>
            <trkpt lon="101.203467" lat="14.310510">
                <ele>35.100000</ele>
                <time>2018-10-21T03:37:32Z</time>
            </trkpt>
            <trkpt lon="101.203469" lat="14.310542">
                <ele>35.100000</ele>
                <time>2018-10-21T03:37:33Z</time>
            </trkpt>
            <trkpt lon="101.203482" lat="14.310571">
                <ele>35.100000</ele>
                <time>2018-10-21T03:37:34Z</time>
            </trkpt>
            <trkpt lon="101.203486" lat="14.310604">
                <ele>35.100000</ele>
                <time>2018-10-21T03:37:35Z</time>
            </trkpt>
            <trkpt lon="101.203489" lat="14.310636">
                <ele>35.100000</ele>
                <time>2018-10-21T03:37:36Z</time>
            </trkpt>
            <trkpt lon="101.203501" lat="14.310666">
                <ele>35.200000</ele>
                <time>2018-10-21T03:37:37Z</time>
            </trkpt>
            <trkpt lon="101.203513" lat="14.310695">
                <ele>35.300000</ele>
                <time>2018-10-21T03:37:38Z</time>
            </trkpt>
            <trkpt lon="101.203520" lat="14.310727">
                <ele>35.300000</ele>
                <time>2018-10-21T03:37:39Z</time>
            </trkpt>
            <trkpt lon="101.203533" lat="14.310756">
                <ele>35.200000</ele>
                <time>2018-10-21T03:37:40Z</time>
            </trkpt>
            <trkpt lon="101.203538" lat="14.310783">
                <ele>35.100000</ele>
                <time>2018-10-21T03:37:41Z</time>
            </trkpt>
            <trkpt lon="101.203547" lat="14.310810">
                <ele>35.000000</ele>
                <time>2018-10-21T03:37:42Z</time>
            </trkpt>
            <trkpt lon="101.203556" lat="14.310838">
                <ele>35.000000</ele>
                <time>2018-10-21T03:37:43Z</time>
            </trkpt>
            <trkpt lon="101.203570" lat="14.310874">
                <ele>34.900000</ele>
                <time>2018-10-21T03:37:44Z</time>
            </trkpt>
            <trkpt lon="101.203574" lat="14.310910">
                <ele>34.800000</ele>
                <time>2018-10-21T03:37:45Z</time>
            </trkpt>
            <trkpt lon="101.203577" lat="14.310945">
                <ele>34.900000</ele>
                <time>2018-10-21T03:37:46Z</time>
            </trkpt>
            <trkpt lon="101.203578" lat="14.310977">
                <ele>35.200000</ele>
                <time>2018-10-21T03:37:47Z</time>
            </trkpt>
            <trkpt lon="101.203573" lat="14.311011">
                <ele>35.400000</ele>
                <time>2018-10-21T03:37:48Z</time>
            </trkpt>
            <trkpt lon="101.203566" lat="14.311041">
                <ele>35.500000</ele>
                <time>2018-10-21T03:37:49Z</time>
            </trkpt>
            <trkpt lon="101.203562" lat="14.311078">
                <ele>35.600000</ele>
                <time>2018-10-21T03:37:50Z</time>
            </trkpt>
            <trkpt lon="101.203558" lat="14.311119">
                <ele>35.800000</ele>
                <time>2018-10-21T03:37:51Z</time>
            </trkpt>
            <trkpt lon="101.203557" lat="14.311156">
                <ele>35.900000</ele>
                <time>2018-10-21T03:37:52Z</time>
            </trkpt>
            <trkpt lon="101.203549" lat="14.311191">
                <ele>36.000000</ele>
                <time>2018-10-21T03:37:53Z</time>
            </trkpt>
            <trkpt lon="101.203539" lat="14.311222">
                <ele>36.000000</ele>
                <time>2018-10-21T03:37:54Z</time>
            </trkpt>
            <trkpt lon="101.203527" lat="14.311256">
                <ele>36.200000</ele>
                <time>2018-10-21T03:37:55Z</time>
            </trkpt>
            <trkpt lon="101.203514" lat="14.311288">
                <ele>36.300000</ele>
                <time>2018-10-21T03:37:56Z</time>
            </trkpt>
            <trkpt lon="101.203499" lat="14.311317">
                <ele>36.500000</ele>
                <time>2018-10-21T03:37:57Z</time>
            </trkpt>
            <trkpt lon="101.203479" lat="14.311346">
                <ele>36.500000</ele>
                <time>2018-10-21T03:37:58Z</time>
            </trkpt>
            <trkpt lon="101.203460" lat="14.311374">
                <ele>36.600000</ele>
                <time>2018-10-21T03:37:59Z</time>
            </trkpt>
            <trkpt lon="101.203445" lat="14.311401">
                <ele>36.700000</ele>
                <time>2018-10-21T03:38:00Z</time>
            </trkpt>
            <trkpt lon="101.203435" lat="14.311428">
                <ele>36.800000</ele>
                <time>2018-10-21T03:38:01Z</time>
            </trkpt>
            <trkpt lon="101.203423" lat="14.311456">
                <ele>37.000000</ele>
                <time>2018-10-21T03:38:02Z</time>
            </trkpt>
            <trkpt lon="101.203412" lat="14.311484">
                <ele>37.100000</ele>
                <time>2018-10-21T03:38:03Z</time>
            </trkpt>
            <trkpt lon="101.203398" lat="14.311515">
                <ele>37.100000</ele>
                <time>2018-10-21T03:38:04Z</time>
            </trkpt>
            <trkpt lon="101.203385" lat="14.311546">
                <ele>37.200000</ele>
                <time>2018-10-21T03:38:05Z</time>
            </trkpt>
            <trkpt lon="101.203371" lat="14.311580">
                <ele>37.400000</ele>
                <time>2018-10-21T03:38:06Z</time>
            </trkpt>
            <trkpt lon="101.203355" lat="14.311612">
                <ele>37.600000</ele>
                <time>2018-10-21T03:38:07Z</time>
            </trkpt>
            <trkpt lon="101.203347" lat="14.311640">
                <ele>37.700000</ele>
                <time>2018-10-21T03:38:08Z</time>
            </trkpt>
            <trkpt lon="101.203339" lat="14.311674">
                <ele>37.900000</ele>
                <time>2018-10-21T03:38:09Z</time>
            </trkpt>
            <trkpt lon="101.203331" lat="14.311704">
                <ele>38.100000</ele>
                <time>2018-10-21T03:38:10Z</time>
            </trkpt>
            <trkpt lon="101.203322" lat="14.311739">
                <ele>38.300000</ele>
                <time>2018-10-21T03:38:11Z</time>
            </trkpt>
            <trkpt lon="101.203314" lat="14.311773">
                <ele>38.500000</ele>
                <time>2018-10-21T03:38:12Z</time>
            </trkpt>
            <trkpt lon="101.203305" lat="14.311805">
                <ele>38.600000</ele>
                <time>2018-10-21T03:38:13Z</time>
            </trkpt>
            <trkpt lon="101.203297" lat="14.311837">
                <ele>38.700000</ele>
                <time>2018-10-21T03:38:14Z</time>
            </trkpt>
            <trkpt lon="101.203289" lat="14.311871">
                <ele>38.800000</ele>
                <time>2018-10-21T03:38:15Z</time>
            </trkpt>
            <trkpt lon="101.203285" lat="14.311906">
                <ele>38.900000</ele>
                <time>2018-10-21T03:38:16Z</time>
            </trkpt>
            <trkpt lon="101.203279" lat="14.311941">
                <ele>39.000000</ele>
                <time>2018-10-21T03:38:17Z</time>
            </trkpt>
            <trkpt lon="101.203271" lat="14.311972">
                <ele>39.000000</ele>
                <time>2018-10-21T03:38:18Z</time>
            </trkpt>
            <trkpt lon="101.203267" lat="14.312012">
                <ele>39.000000</ele>
                <time>2018-10-21T03:38:19Z</time>
            </trkpt>
            <trkpt lon="101.203263" lat="14.312048">
                <ele>38.900000</ele>
                <time>2018-10-21T03:38:20Z</time>
            </trkpt>
            <trkpt lon="101.203262" lat="14.312087">
                <ele>38.700000</ele>
                <time>2018-10-21T03:38:21Z</time>
            </trkpt>
            <trkpt lon="101.203258" lat="14.312124">
                <ele>38.600000</ele>
                <time>2018-10-21T03:38:22Z</time>
            </trkpt>
            <trkpt lon="101.203253" lat="14.312163">
                <ele>38.300000</ele>
                <time>2018-10-21T03:38:23Z</time>
            </trkpt>
            <trkpt lon="101.203251" lat="14.312200">
                <ele>38.200000</ele>
                <time>2018-10-21T03:38:24Z</time>
            </trkpt>
            <trkpt lon="101.203252" lat="14.312238">
                <ele>38.300000</ele>
                <time>2018-10-21T03:38:25Z</time>
            </trkpt>
            <trkpt lon="101.203252" lat="14.312272">
                <ele>38.300000</ele>
                <time>2018-10-21T03:38:26Z</time>
            </trkpt>
            <trkpt lon="101.203255" lat="14.312305">
                <ele>38.500000</ele>
                <time>2018-10-21T03:38:27Z</time>
            </trkpt>
            <trkpt lon="101.203253" lat="14.312336">
                <ele>38.600000</ele>
                <time>2018-10-21T03:38:28Z</time>
            </trkpt>
            <trkpt lon="101.203249" lat="14.312365">
                <ele>38.700000</ele>
                <time>2018-10-21T03:38:29Z</time>
            </trkpt>
            <trkpt lon="101.203235" lat="14.312414">
                <ele>38.900000</ele>
                <time>2018-10-21T03:38:31Z</time>
            </trkpt>
            <trkpt lon="101.203211" lat="14.312459">
                <ele>38.900000</ele>
                <time>2018-10-21T03:38:33Z</time>
            </trkpt>
            <trkpt lon="101.203180" lat="14.312487">
                <ele>38.900000</ele>
                <time>2018-10-21T03:38:35Z</time>
            </trkpt>
            <trkpt lon="101.203122" lat="14.312490">
                <ele>38.700000</ele>
                <time>2018-10-21T03:38:37Z</time>
            </trkpt>
            <trkpt lon="101.203097" lat="14.312473">
                <ele>38.700000</ele>
                <time>2018-10-21T03:38:38Z</time>
            </trkpt>
            <trkpt lon="101.203072" lat="14.312456">
                <ele>38.600000</ele>
                <time>2018-10-21T03:38:39Z</time>
            </trkpt>
            <trkpt lon="101.203026" lat="14.312420">
                <ele>38.400000</ele>
                <time>2018-10-21T03:38:41Z</time>
            </trkpt>
            <trkpt lon="101.202988" lat="14.312384">
                <ele>38.300000</ele>
                <time>2018-10-21T03:38:43Z</time>
            </trkpt>
            <trkpt lon="101.202967" lat="14.312364">
                <ele>38.300000</ele>
                <time>2018-10-21T03:38:44Z</time>
            </trkpt>
            <trkpt lon="101.202948" lat="14.312342">
                <ele>38.200000</ele>
                <time>2018-10-21T03:38:45Z</time>
            </trkpt>
            <trkpt lon="101.202928" lat="14.312319">
                <ele>38.100000</ele>
                <time>2018-10-21T03:38:46Z</time>
            </trkpt>
            <trkpt lon="101.202909" lat="14.312295">
                <ele>38.000000</ele>
                <time>2018-10-21T03:38:47Z</time>
            </trkpt>
            <trkpt lon="101.202885" lat="14.312275">
                <ele>38.000000</ele>
                <time>2018-10-21T03:38:48Z</time>
            </trkpt>
            <trkpt lon="101.202857" lat="14.312256">
                <ele>37.900000</ele>
                <time>2018-10-21T03:38:49Z</time>
            </trkpt>
            <trkpt lon="101.202836" lat="14.312234">
                <ele>37.800000</ele>
                <time>2018-10-21T03:38:50Z</time>
            </trkpt>
            <trkpt lon="101.202813" lat="14.312209">
                <ele>37.600000</ele>
                <time>2018-10-21T03:38:51Z</time>
            </trkpt>
            <trkpt lon="101.202789" lat="14.312181">
                <ele>37.500000</ele>
                <time>2018-10-21T03:38:52Z</time>
            </trkpt>
            <trkpt lon="101.202764" lat="14.312148">
                <ele>37.300000</ele>
                <time>2018-10-21T03:38:53Z</time>
            </trkpt>
            <trkpt lon="101.202734" lat="14.312111">
                <ele>37.100000</ele>
                <time>2018-10-21T03:38:54Z</time>
            </trkpt>
            <trkpt lon="101.202713" lat="14.312062">
                <ele>36.900000</ele>
                <time>2018-10-21T03:38:55Z</time>
            </trkpt>
            <trkpt lon="101.202692" lat="14.312016">
                <ele>36.700000</ele>
                <time>2018-10-21T03:38:56Z</time>
            </trkpt>
            <trkpt lon="101.202665" lat="14.311969">
                <ele>36.600000</ele>
                <time>2018-10-21T03:38:57Z</time>
            </trkpt>
            <trkpt lon="101.202640" lat="14.311920">
                <ele>36.400000</ele>
                <time>2018-10-21T03:38:58Z</time>
            </trkpt>
            <trkpt lon="101.202605" lat="14.311872">
                <ele>36.300000</ele>
                <time>2018-10-21T03:38:59Z</time>
            </trkpt>
            <trkpt lon="101.202577" lat="14.311820">
                <ele>36.200000</ele>
                <time>2018-10-21T03:39:00Z</time>
            </trkpt>
            <trkpt lon="101.202549" lat="14.311772">
                <ele>36.100000</ele>
                <time>2018-10-21T03:39:01Z</time>
            </trkpt>
            <trkpt lon="101.202524" lat="14.311726">
                <ele>36.000000</ele>
                <time>2018-10-21T03:39:02Z</time>
            </trkpt>
            <trkpt lon="101.202496" lat="14.311682">
                <ele>35.900000</ele>
                <time>2018-10-21T03:39:03Z</time>
            </trkpt>
            <trkpt lon="101.202464" lat="14.311639">
                <ele>35.800000</ele>
                <time>2018-10-21T03:39:04Z</time>
            </trkpt>
            <trkpt lon="101.202436" lat="14.311600">
                <ele>35.700000</ele>
                <time>2018-10-21T03:39:05Z</time>
            </trkpt>
            <trkpt lon="101.202412" lat="14.311557">
                <ele>35.600000</ele>
                <time>2018-10-21T03:39:06Z</time>
            </trkpt>
            <trkpt lon="101.202388" lat="14.311512">
                <ele>35.500000</ele>
                <time>2018-10-21T03:39:07Z</time>
            </trkpt>
            <trkpt lon="101.202363" lat="14.311471">
                <ele>35.400000</ele>
                <time>2018-10-21T03:39:08Z</time>
            </trkpt>
            <trkpt lon="101.202338" lat="14.311430">
                <ele>35.300000</ele>
                <time>2018-10-21T03:39:09Z</time>
            </trkpt>
            <trkpt lon="101.202309" lat="14.311391">
                <ele>35.200000</ele>
                <time>2018-10-21T03:39:10Z</time>
            </trkpt>
            <trkpt lon="101.202279" lat="14.311358">
                <ele>35.100000</ele>
                <time>2018-10-21T03:39:11Z</time>
            </trkpt>
            <trkpt lon="101.202249" lat="14.311333">
                <ele>34.400000</ele>
                <time>2018-10-21T03:39:12Z</time>
            </trkpt>
            <trkpt lon="101.202218" lat="14.311315">
                <ele>34.300000</ele>
                <time>2018-10-21T03:39:13Z</time>
            </trkpt>
            <trkpt lon="101.202184" lat="14.311323">
                <ele>34.200000</ele>
                <time>2018-10-21T03:39:14Z</time>
            </trkpt>
            <trkpt lon="101.202168" lat="14.311349">
                <ele>34.100000</ele>
                <time>2018-10-21T03:39:15Z</time>
            </trkpt>
            <trkpt lon="101.202159" lat="14.311376">
                <ele>34.000000</ele>
                <time>2018-10-21T03:39:16Z</time>
            </trkpt>
            <trkpt lon="101.202156" lat="14.311419">
                <ele>34.000000</ele>
                <time>2018-10-21T03:39:18Z</time>
            </trkpt>
            <trkpt lon="101.202161" lat="14.311465">
                <ele>34.100000</ele>
                <time>2018-10-21T03:39:20Z</time>
            </trkpt>
            <trkpt lon="101.202169" lat="14.311505">
                <ele>34.200000</ele>
                <time>2018-10-21T03:39:22Z</time>
            </trkpt>
            <trkpt lon="101.202172" lat="14.311555">
                <ele>34.400000</ele>
                <time>2018-10-21T03:39:24Z</time>
            </trkpt>
            <trkpt lon="101.202172" lat="14.311589">
                <ele>34.600000</ele>
                <time>2018-10-21T03:39:25Z</time>
            </trkpt>
            <trkpt lon="101.202178" lat="14.311619">
                <ele>34.800000</ele>
                <time>2018-10-21T03:39:26Z</time>
            </trkpt>
            <trkpt lon="101.202179" lat="14.311650">
                <ele>34.900000</ele>
                <time>2018-10-21T03:39:27Z</time>
            </trkpt>
            <trkpt lon="101.202184" lat="14.311686">
                <ele>35.300000</ele>
                <time>2018-10-21T03:39:28Z</time>
            </trkpt>
            <trkpt lon="101.202184" lat="14.311720">
                <ele>35.600000</ele>
                <time>2018-10-21T03:39:29Z</time>
            </trkpt>
            <trkpt lon="101.202180" lat="14.311759">
                <ele>36.000000</ele>
                <time>2018-10-21T03:39:30Z</time>
            </trkpt>
            <trkpt lon="101.202175" lat="14.311796">
                <ele>36.500000</ele>
                <time>2018-10-21T03:39:31Z</time>
            </trkpt>
            <trkpt lon="101.202170" lat="14.311836">
                <ele>36.900000</ele>
                <time>2018-10-21T03:39:32Z</time>
            </trkpt>
            <trkpt lon="101.202166" lat="14.311872">
                <ele>37.100000</ele>
                <time>2018-10-21T03:39:33Z</time>
            </trkpt>
            <trkpt lon="101.202167" lat="14.311900">
                <ele>37.300000</ele>
                <time>2018-10-21T03:39:34Z</time>
            </trkpt>
            <trkpt lon="101.202170" lat="14.311934">
                <ele>37.600000</ele>
                <time>2018-10-21T03:39:35Z</time>
            </trkpt>
            <trkpt lon="101.202168" lat="14.311967">
                <ele>37.700000</ele>
                <time>2018-10-21T03:39:36Z</time>
            </trkpt>
            <trkpt lon="101.202160" lat="14.312003">
                <ele>37.900000</ele>
                <time>2018-10-21T03:39:37Z</time>
            </trkpt>
            <trkpt lon="101.202159" lat="14.312035">
                <ele>37.900000</ele>
                <time>2018-10-21T03:39:38Z</time>
            </trkpt>
            <trkpt lon="101.202158" lat="14.312068">
                <ele>37.800000</ele>
                <time>2018-10-21T03:39:39Z</time>
            </trkpt>
            <trkpt lon="101.202160" lat="14.312105">
                <ele>37.700000</ele>
                <time>2018-10-21T03:39:40Z</time>
            </trkpt>
            <trkpt lon="101.202155" lat="14.312140">
                <ele>37.600000</ele>
                <time>2018-10-21T03:39:41Z</time>
            </trkpt>
            <trkpt lon="101.202155" lat="14.312174">
                <ele>37.400000</ele>
                <time>2018-10-21T03:39:42Z</time>
            </trkpt>
            <trkpt lon="101.202157" lat="14.312205">
                <ele>37.400000</ele>
                <time>2018-10-21T03:39:43Z</time>
            </trkpt>
            <trkpt lon="101.202159" lat="14.312240">
                <ele>37.300000</ele>
                <time>2018-10-21T03:39:44Z</time>
            </trkpt>
            <trkpt lon="101.202165" lat="14.312271">
                <ele>37.300000</ele>
                <time>2018-10-21T03:39:45Z</time>
            </trkpt>
            <trkpt lon="101.202171" lat="14.312304">
                <ele>37.300000</ele>
                <time>2018-10-21T03:39:46Z</time>
            </trkpt>
            <trkpt lon="101.202174" lat="14.312336">
                <ele>37.200000</ele>
                <time>2018-10-21T03:39:47Z</time>
            </trkpt>
            <trkpt lon="101.202178" lat="14.312369">
                <ele>37.100000</ele>
                <time>2018-10-21T03:39:48Z</time>
            </trkpt>
            <trkpt lon="101.202178" lat="14.312405">
                <ele>37.000000</ele>
                <time>2018-10-21T03:39:49Z</time>
            </trkpt>
            <trkpt lon="101.202178" lat="14.312437">
                <ele>36.800000</ele>
                <time>2018-10-21T03:39:50Z</time>
            </trkpt>
            <trkpt lon="101.202186" lat="14.312467">
                <ele>36.500000</ele>
                <time>2018-10-21T03:39:51Z</time>
            </trkpt>
            <trkpt lon="101.202193" lat="14.312497">
                <ele>36.200000</ele>
                <time>2018-10-21T03:39:52Z</time>
            </trkpt>
            <trkpt lon="101.202202" lat="14.312525">
                <ele>35.900000</ele>
                <time>2018-10-21T03:39:53Z</time>
            </trkpt>
            <trkpt lon="101.202208" lat="14.312554">
                <ele>36.000000</ele>
                <time>2018-10-21T03:39:54Z</time>
            </trkpt>
            <trkpt lon="101.202213" lat="14.312587">
                <ele>36.100000</ele>
                <time>2018-10-21T03:39:55Z</time>
            </trkpt>
            <trkpt lon="101.202222" lat="14.312618">
                <ele>36.200000</ele>
                <time>2018-10-21T03:39:56Z</time>
            </trkpt>
            <trkpt lon="101.202230" lat="14.312650">
                <ele>36.300000</ele>
                <time>2018-10-21T03:39:57Z</time>
            </trkpt>
            <trkpt lon="101.202237" lat="14.312686">
                <ele>36.300000</ele>
                <time>2018-10-21T03:39:58Z</time>
            </trkpt>
            <trkpt lon="101.202244" lat="14.312725">
                <ele>36.500000</ele>
                <time>2018-10-21T03:39:59Z</time>
            </trkpt>
            <trkpt lon="101.202253" lat="14.312758">
                <ele>36.700000</ele>
                <time>2018-10-21T03:40:00Z</time>
            </trkpt>
            <trkpt lon="101.202263" lat="14.312791">
                <ele>36.900000</ele>
                <time>2018-10-21T03:40:01Z</time>
            </trkpt>
            <trkpt lon="101.202269" lat="14.312822">
                <ele>37.000000</ele>
                <time>2018-10-21T03:40:02Z</time>
            </trkpt>
            <trkpt lon="101.202277" lat="14.312855">
                <ele>37.100000</ele>
                <time>2018-10-21T03:40:03Z</time>
            </trkpt>
            <trkpt lon="101.202288" lat="14.312886">
                <ele>37.200000</ele>
                <time>2018-10-21T03:40:04Z</time>
            </trkpt>
            <trkpt lon="101.202301" lat="14.312917">
                <ele>37.500000</ele>
                <time>2018-10-21T03:40:05Z</time>
            </trkpt>
            <trkpt lon="101.202313" lat="14.312946">
                <ele>37.700000</ele>
                <time>2018-10-21T03:40:06Z</time>
            </trkpt>
            <trkpt lon="101.202323" lat="14.312981">
                <ele>38.000000</ele>
                <time>2018-10-21T03:40:07Z</time>
            </trkpt>
            <trkpt lon="101.202334" lat="14.313014">
                <ele>38.300000</ele>
                <time>2018-10-21T03:40:08Z</time>
            </trkpt>
            <trkpt lon="101.202341" lat="14.313047">
                <ele>38.600000</ele>
                <time>2018-10-21T03:40:09Z</time>
            </trkpt>
            <trkpt lon="101.202347" lat="14.313080">
                <ele>39.000000</ele>
                <time>2018-10-21T03:40:10Z</time>
            </trkpt>
            <trkpt lon="101.202356" lat="14.313114">
                <ele>39.400000</ele>
                <time>2018-10-21T03:40:11Z</time>
            </trkpt>
            <trkpt lon="101.202366" lat="14.313149">
                <ele>39.900000</ele>
                <time>2018-10-21T03:40:12Z</time>
            </trkpt>
            <trkpt lon="101.202369" lat="14.313182">
                <ele>40.400000</ele>
                <time>2018-10-21T03:40:13Z</time>
            </trkpt>
            <trkpt lon="101.202374" lat="14.313210">
                <ele>40.900000</ele>
                <time>2018-10-21T03:40:14Z</time>
            </trkpt>
            <trkpt lon="101.202389" lat="14.313238">
                <ele>41.300000</ele>
                <time>2018-10-21T03:40:15Z</time>
            </trkpt>
            <trkpt lon="101.202396" lat="14.313271">
                <ele>41.700000</ele>
                <time>2018-10-21T03:40:16Z</time>
            </trkpt>
            <trkpt lon="101.202406" lat="14.313305">
                <ele>42.100000</ele>
                <time>2018-10-21T03:40:17Z</time>
            </trkpt>
            <trkpt lon="101.202412" lat="14.313339">
                <ele>42.400000</ele>
                <time>2018-10-21T03:40:18Z</time>
            </trkpt>
            <trkpt lon="101.202422" lat="14.313373">
                <ele>42.700000</ele>
                <time>2018-10-21T03:40:19Z</time>
            </trkpt>
            <trkpt lon="101.202432" lat="14.313406">
                <ele>43.000000</ele>
                <time>2018-10-21T03:40:20Z</time>
            </trkpt>
            <trkpt lon="101.202442" lat="14.313437">
                <ele>43.200000</ele>
                <time>2018-10-21T03:40:21Z</time>
            </trkpt>
            <trkpt lon="101.202450" lat="14.313467">
                <ele>43.300000</ele>
                <time>2018-10-21T03:40:22Z</time>
            </trkpt>
            <trkpt lon="101.202457" lat="14.313494">
                <ele>43.500000</ele>
                <time>2018-10-21T03:40:23Z</time>
            </trkpt>
            <trkpt lon="101.202468" lat="14.313528">
                <ele>43.600000</ele>
                <time>2018-10-21T03:40:24Z</time>
            </trkpt>
            <trkpt lon="101.202478" lat="14.313562">
                <ele>43.800000</ele>
                <time>2018-10-21T03:40:25Z</time>
            </trkpt>
            <trkpt lon="101.202490" lat="14.313595">
                <ele>43.900000</ele>
                <time>2018-10-21T03:40:26Z</time>
            </trkpt>
            <trkpt lon="101.202503" lat="14.313631">
                <ele>43.900000</ele>
                <time>2018-10-21T03:40:27Z</time>
            </trkpt>
            <trkpt lon="101.202508" lat="14.313662">
                <ele>43.900000</ele>
                <time>2018-10-21T03:40:28Z</time>
            </trkpt>
            <trkpt lon="101.202516" lat="14.313698">
                <ele>44.000000</ele>
                <time>2018-10-21T03:40:29Z</time>
            </trkpt>
            <trkpt lon="101.202528" lat="14.313732">
                <ele>44.000000</ele>
                <time>2018-10-21T03:40:30Z</time>
            </trkpt>
            <trkpt lon="101.202537" lat="14.313767">
                <ele>44.100000</ele>
                <time>2018-10-21T03:40:31Z</time>
            </trkpt>
            <trkpt lon="101.202545" lat="14.313799">
                <ele>44.100000</ele>
                <time>2018-10-21T03:40:32Z</time>
            </trkpt>
            <trkpt lon="101.202552" lat="14.313832">
                <ele>44.200000</ele>
                <time>2018-10-21T03:40:33Z</time>
            </trkpt>
            <trkpt lon="101.202559" lat="14.313858">
                <ele>44.300000</ele>
                <time>2018-10-21T03:40:34Z</time>
            </trkpt>
            <trkpt lon="101.202568" lat="14.313886">
                <ele>44.400000</ele>
                <time>2018-10-21T03:40:35Z</time>
            </trkpt>
            <trkpt lon="101.202578" lat="14.313914">
                <ele>44.600000</ele>
                <time>2018-10-21T03:40:36Z</time>
            </trkpt>
            <trkpt lon="101.202582" lat="14.313945">
                <ele>44.500000</ele>
                <time>2018-10-21T03:40:37Z</time>
            </trkpt>
            <trkpt lon="101.202593" lat="14.313974">
                <ele>44.400000</ele>
                <time>2018-10-21T03:40:38Z</time>
            </trkpt>
            <trkpt lon="101.202602" lat="14.314002">
                <ele>44.300000</ele>
                <time>2018-10-21T03:40:39Z</time>
            </trkpt>
            <trkpt lon="101.202611" lat="14.314030">
                <ele>44.300000</ele>
                <time>2018-10-21T03:40:40Z</time>
            </trkpt>
            <trkpt lon="101.202623" lat="14.314062">
                <ele>44.300000</ele>
                <time>2018-10-21T03:40:41Z</time>
            </trkpt>
            <trkpt lon="101.202631" lat="14.314093">
                <ele>44.300000</ele>
                <time>2018-10-21T03:40:42Z</time>
            </trkpt>
            <trkpt lon="101.202638" lat="14.314123">
                <ele>44.200000</ele>
                <time>2018-10-21T03:40:43Z</time>
            </trkpt>
            <trkpt lon="101.202648" lat="14.314150">
                <ele>44.100000</ele>
                <time>2018-10-21T03:40:44Z</time>
            </trkpt>
            <trkpt lon="101.202659" lat="14.314176">
                <ele>43.900000</ele>
                <time>2018-10-21T03:40:45Z</time>
            </trkpt>
            <trkpt lon="101.202674" lat="14.314222">
                <ele>43.700000</ele>
                <time>2018-10-21T03:40:47Z</time>
            </trkpt>
            <trkpt lon="101.202682" lat="14.314276">
                <ele>43.400000</ele>
                <time>2018-10-21T03:40:49Z</time>
            </trkpt>
            <trkpt lon="101.202689" lat="14.314311">
                <ele>43.100000</ele>
                <time>2018-10-21T03:40:50Z</time>
            </trkpt>
            <trkpt lon="101.202695" lat="14.314339">
                <ele>42.800000</ele>
                <time>2018-10-21T03:40:51Z</time>
            </trkpt>
            <trkpt lon="101.202703" lat="14.314372">
                <ele>42.400000</ele>
                <time>2018-10-21T03:40:52Z</time>
            </trkpt>
            <trkpt lon="101.202709" lat="14.314400">
                <ele>42.200000</ele>
                <time>2018-10-21T03:40:53Z</time>
            </trkpt>
            <trkpt lon="101.202721" lat="14.314429">
                <ele>41.800000</ele>
                <time>2018-10-21T03:40:54Z</time>
            </trkpt>
            <trkpt lon="101.202732" lat="14.314455">
                <ele>41.600000</ele>
                <time>2018-10-21T03:40:55Z</time>
            </trkpt>
            <trkpt lon="101.202740" lat="14.314484">
                <ele>41.500000</ele>
                <time>2018-10-21T03:40:56Z</time>
            </trkpt>
            <trkpt lon="101.202745" lat="14.314514">
                <ele>41.300000</ele>
                <time>2018-10-21T03:40:57Z</time>
            </trkpt>
            <trkpt lon="101.202755" lat="14.314541">
                <ele>41.200000</ele>
                <time>2018-10-21T03:40:58Z</time>
            </trkpt>
            <trkpt lon="101.202769" lat="14.314566">
                <ele>41.200000</ele>
                <time>2018-10-21T03:40:59Z</time>
            </trkpt>
            <trkpt lon="101.202782" lat="14.314597">
                <ele>41.100000</ele>
                <time>2018-10-21T03:41:00Z</time>
            </trkpt>
            <trkpt lon="101.202794" lat="14.314625">
                <ele>41.100000</ele>
                <time>2018-10-21T03:41:01Z</time>
            </trkpt>
            <trkpt lon="101.202803" lat="14.314657">
                <ele>41.200000</ele>
                <time>2018-10-21T03:41:02Z</time>
            </trkpt>
            <trkpt lon="101.202812" lat="14.314685">
                <ele>41.200000</ele>
                <time>2018-10-21T03:41:03Z</time>
            </trkpt>
            <trkpt lon="101.202818" lat="14.314713">
                <ele>41.300000</ele>
                <time>2018-10-21T03:41:04Z</time>
            </trkpt>
            <trkpt lon="101.202823" lat="14.314746">
                <ele>41.400000</ele>
                <time>2018-10-21T03:41:05Z</time>
            </trkpt>
            <trkpt lon="101.202830" lat="14.314773">
                <ele>41.500000</ele>
                <time>2018-10-21T03:41:06Z</time>
            </trkpt>
            <trkpt lon="101.202836" lat="14.314802">
                <ele>41.700000</ele>
                <time>2018-10-21T03:41:07Z</time>
            </trkpt>
            <trkpt lon="101.202844" lat="14.314830">
                <ele>41.900000</ele>
                <time>2018-10-21T03:41:08Z</time>
            </trkpt>
            <trkpt lon="101.202848" lat="14.314862">
                <ele>41.900000</ele>
                <time>2018-10-21T03:41:09Z</time>
            </trkpt>
            <trkpt lon="101.202854" lat="14.314897">
                <ele>41.900000</ele>
                <time>2018-10-21T03:41:10Z</time>
            </trkpt>
            <trkpt lon="101.202861" lat="14.314931">
                <ele>41.900000</ele>
                <time>2018-10-21T03:41:11Z</time>
            </trkpt>
            <trkpt lon="101.202865" lat="14.314961">
                <ele>41.900000</ele>
                <time>2018-10-21T03:41:12Z</time>
            </trkpt>
            <trkpt lon="101.202861" lat="14.314993">
                <ele>41.900000</ele>
                <time>2018-10-21T03:41:13Z</time>
            </trkpt>
            <trkpt lon="101.202856" lat="14.315021">
                <ele>41.900000</ele>
                <time>2018-10-21T03:41:14Z</time>
            </trkpt>
            <trkpt lon="101.202847" lat="14.315050">
                <ele>41.800000</ele>
                <time>2018-10-21T03:41:15Z</time>
            </trkpt>
            <trkpt lon="101.202834" lat="14.315079">
                <ele>41.600000</ele>
                <time>2018-10-21T03:41:16Z</time>
            </trkpt>
            <trkpt lon="101.202821" lat="14.315110">
                <ele>41.400000</ele>
                <time>2018-10-21T03:41:17Z</time>
            </trkpt>
            <trkpt lon="101.202803" lat="14.315144">
                <ele>41.600000</ele>
                <time>2018-10-21T03:41:18Z</time>
            </trkpt>
            <trkpt lon="101.202787" lat="14.315176">
                <ele>41.700000</ele>
                <time>2018-10-21T03:41:19Z</time>
            </trkpt>
            <trkpt lon="101.202770" lat="14.315202">
                <ele>41.700000</ele>
                <time>2018-10-21T03:41:20Z</time>
            </trkpt>
            <trkpt lon="101.202744" lat="14.315226">
                <ele>41.700000</ele>
                <time>2018-10-21T03:41:21Z</time>
            </trkpt>
            <trkpt lon="101.202718" lat="14.315251">
                <ele>41.700000</ele>
                <time>2018-10-21T03:41:22Z</time>
            </trkpt>
            <trkpt lon="101.202696" lat="14.315285">
                <ele>41.700000</ele>
                <time>2018-10-21T03:41:23Z</time>
            </trkpt>
            <trkpt lon="101.202678" lat="14.315316">
                <ele>41.600000</ele>
                <time>2018-10-21T03:41:24Z</time>
            </trkpt>
            <trkpt lon="101.202656" lat="14.315348">
                <ele>41.500000</ele>
                <time>2018-10-21T03:41:25Z</time>
            </trkpt>
            <trkpt lon="101.202636" lat="14.315381">
                <ele>41.400000</ele>
                <time>2018-10-21T03:41:26Z</time>
            </trkpt>
            <trkpt lon="101.202620" lat="14.315413">
                <ele>41.400000</ele>
                <time>2018-10-21T03:41:27Z</time>
            </trkpt>
            <trkpt lon="101.202596" lat="14.315442">
                <ele>41.400000</ele>
                <time>2018-10-21T03:41:28Z</time>
            </trkpt>
            <trkpt lon="101.202576" lat="14.315471">
                <ele>41.500000</ele>
                <time>2018-10-21T03:41:29Z</time>
            </trkpt>
            <trkpt lon="101.202551" lat="14.315499">
                <ele>41.600000</ele>
                <time>2018-10-21T03:41:30Z</time>
            </trkpt>
            <trkpt lon="101.202530" lat="14.315528">
                <ele>41.700000</ele>
                <time>2018-10-21T03:41:31Z</time>
            </trkpt>
            <trkpt lon="101.202511" lat="14.315555">
                <ele>41.800000</ele>
                <time>2018-10-21T03:41:32Z</time>
            </trkpt>
            <trkpt lon="101.202492" lat="14.315581">
                <ele>41.900000</ele>
                <time>2018-10-21T03:41:33Z</time>
            </trkpt>
            <trkpt lon="101.202476" lat="14.315607">
                <ele>41.900000</ele>
                <time>2018-10-21T03:41:34Z</time>
            </trkpt>
            <trkpt lon="101.202453" lat="14.315646">
                <ele>42.100000</ele>
                <time>2018-10-21T03:41:36Z</time>
            </trkpt>
            <trkpt lon="101.202424" lat="14.315685">
                <ele>42.400000</ele>
                <time>2018-10-21T03:41:38Z</time>
            </trkpt>
            <trkpt lon="101.202391" lat="14.315727">
                <ele>42.700000</ele>
                <time>2018-10-21T03:41:40Z</time>
            </trkpt>
            <trkpt lon="101.202363" lat="14.315770">
                <ele>43.100000</ele>
                <time>2018-10-21T03:41:42Z</time>
            </trkpt>
            <trkpt lon="101.202334" lat="14.315814">
                <ele>43.400000</ele>
                <time>2018-10-21T03:41:44Z</time>
            </trkpt>
            <trkpt lon="101.202321" lat="14.315838">
                <ele>43.600000</ele>
                <time>2018-10-21T03:41:45Z</time>
            </trkpt>
            <trkpt lon="101.202296" lat="14.315882">
                <ele>43.900000</ele>
                <time>2018-10-21T03:41:47Z</time>
            </trkpt>
            <trkpt lon="101.202268" lat="14.315923">
                <ele>44.200000</ele>
                <time>2018-10-21T03:41:49Z</time>
            </trkpt>
            <trkpt lon="101.202249" lat="14.315949">
                <ele>44.300000</ele>
                <time>2018-10-21T03:41:50Z</time>
            </trkpt>
            <trkpt lon="101.202234" lat="14.315973">
                <ele>44.400000</ele>
                <time>2018-10-21T03:41:51Z</time>
            </trkpt>
            <trkpt lon="101.202218" lat="14.315998">
                <ele>44.400000</ele>
                <time>2018-10-21T03:41:52Z</time>
            </trkpt>
            <trkpt lon="101.202201" lat="14.316022">
                <ele>44.500000</ele>
                <time>2018-10-21T03:41:53Z</time>
            </trkpt>
            <trkpt lon="101.202181" lat="14.316072">
                <ele>44.500000</ele>
                <time>2018-10-21T03:41:55Z</time>
            </trkpt>
            <trkpt lon="101.202177" lat="14.316098">
                <ele>44.500000</ele>
                <time>2018-10-21T03:41:56Z</time>
            </trkpt>
            <trkpt lon="101.202172" lat="14.316128">
                <ele>44.500000</ele>
                <time>2018-10-21T03:41:57Z</time>
            </trkpt>
            <trkpt lon="101.202169" lat="14.316157">
                <ele>44.500000</ele>
                <time>2018-10-21T03:41:58Z</time>
            </trkpt>
            <trkpt lon="101.202174" lat="14.316185">
                <ele>44.500000</ele>
                <time>2018-10-21T03:41:59Z</time>
            </trkpt>
            <trkpt lon="101.202181" lat="14.316214">
                <ele>44.500000</ele>
                <time>2018-10-21T03:42:00Z</time>
            </trkpt>
            <trkpt lon="101.202188" lat="14.316243">
                <ele>44.500000</ele>
                <time>2018-10-21T03:42:01Z</time>
            </trkpt>
            <trkpt lon="101.202194" lat="14.316270">
                <ele>44.600000</ele>
                <time>2018-10-21T03:42:02Z</time>
            </trkpt>
            <trkpt lon="101.202198" lat="14.316297">
                <ele>44.600000</ele>
                <time>2018-10-21T03:42:03Z</time>
            </trkpt>
            <trkpt lon="101.202207" lat="14.316325">
                <ele>44.600000</ele>
                <time>2018-10-21T03:42:04Z</time>
            </trkpt>
            <trkpt lon="101.202211" lat="14.316354">
                <ele>44.700000</ele>
                <time>2018-10-21T03:42:05Z</time>
            </trkpt>
            <trkpt lon="101.202223" lat="14.316383">
                <ele>44.800000</ele>
                <time>2018-10-21T03:42:06Z</time>
            </trkpt>
            <trkpt lon="101.202234" lat="14.316413">
                <ele>44.900000</ele>
                <time>2018-10-21T03:42:07Z</time>
            </trkpt>
            <trkpt lon="101.202245" lat="14.316442">
                <ele>44.900000</ele>
                <time>2018-10-21T03:42:08Z</time>
            </trkpt>
            <trkpt lon="101.202251" lat="14.316470">
                <ele>44.900000</ele>
                <time>2018-10-21T03:42:09Z</time>
            </trkpt>
            <trkpt lon="101.202259" lat="14.316497">
                <ele>44.900000</ele>
                <time>2018-10-21T03:42:10Z</time>
            </trkpt>
            <trkpt lon="101.202271" lat="14.316526">
                <ele>45.000000</ele>
                <time>2018-10-21T03:42:11Z</time>
            </trkpt>
            <trkpt lon="101.202277" lat="14.316556">
                <ele>45.100000</ele>
                <time>2018-10-21T03:42:12Z</time>
            </trkpt>
            <trkpt lon="101.202288" lat="14.316609">
                <ele>45.400000</ele>
                <time>2018-10-21T03:42:14Z</time>
            </trkpt>
            <trkpt lon="101.202295" lat="14.316638">
                <ele>45.500000</ele>
                <time>2018-10-21T03:42:15Z</time>
            </trkpt>
            <trkpt lon="101.202305" lat="14.316693">
                <ele>45.700000</ele>
                <time>2018-10-21T03:42:17Z</time>
            </trkpt>
            <trkpt lon="101.202316" lat="14.316747">
                <ele>46.000000</ele>
                <time>2018-10-21T03:42:19Z</time>
            </trkpt>
            <trkpt lon="101.202330" lat="14.316799">
                <ele>46.200000</ele>
                <time>2018-10-21T03:42:21Z</time>
            </trkpt>
            <trkpt lon="101.202346" lat="14.316851">
                <ele>46.500000</ele>
                <time>2018-10-21T03:42:23Z</time>
            </trkpt>
            <trkpt lon="101.202353" lat="14.316878">
                <ele>46.700000</ele>
                <time>2018-10-21T03:42:24Z</time>
            </trkpt>
            <trkpt lon="101.202358" lat="14.316907">
                <ele>46.800000</ele>
                <time>2018-10-21T03:42:25Z</time>
            </trkpt>
            <trkpt lon="101.202368" lat="14.316955">
                <ele>47.100000</ele>
                <time>2018-10-21T03:42:27Z</time>
            </trkpt>
            <trkpt lon="101.202377" lat="14.316982">
                <ele>47.200000</ele>
                <time>2018-10-21T03:42:28Z</time>
            </trkpt>
            <trkpt lon="101.202393" lat="14.317031">
                <ele>47.400000</ele>
                <time>2018-10-21T03:42:30Z</time>
            </trkpt>
            <trkpt lon="101.202403" lat="14.317057">
                <ele>47.500000</ele>
                <time>2018-10-21T03:42:31Z</time>
            </trkpt>
            <trkpt lon="101.202405" lat="14.317089">
                <ele>47.600000</ele>
                <time>2018-10-21T03:42:32Z</time>
            </trkpt>
            <trkpt lon="101.202410" lat="14.317117">
                <ele>47.600000</ele>
                <time>2018-10-21T03:42:33Z</time>
            </trkpt>
            <trkpt lon="101.202412" lat="14.317149">
                <ele>47.600000</ele>
                <time>2018-10-21T03:42:34Z</time>
            </trkpt>
            <trkpt lon="101.202414" lat="14.317184">
                <ele>47.600000</ele>
                <time>2018-10-21T03:42:35Z</time>
            </trkpt>
            <trkpt lon="101.202417" lat="14.317220">
                <ele>47.600000</ele>
                <time>2018-10-21T03:42:36Z</time>
            </trkpt>
            <trkpt lon="101.202417" lat="14.317258">
                <ele>47.400000</ele>
                <time>2018-10-21T03:42:37Z</time>
            </trkpt>
            <trkpt lon="101.202417" lat="14.317287">
                <ele>47.200000</ele>
                <time>2018-10-21T03:42:38Z</time>
            </trkpt>
            <trkpt lon="101.202412" lat="14.317317">
                <ele>47.000000</ele>
                <time>2018-10-21T03:42:39Z</time>
            </trkpt>
            <trkpt lon="101.202404" lat="14.317346">
                <ele>46.800000</ele>
                <time>2018-10-21T03:42:40Z</time>
            </trkpt>
            <trkpt lon="101.202389" lat="14.317378">
                <ele>46.600000</ele>
                <time>2018-10-21T03:42:41Z</time>
            </trkpt>
            <trkpt lon="101.202374" lat="14.317406">
                <ele>46.400000</ele>
                <time>2018-10-21T03:42:42Z</time>
            </trkpt>
            <trkpt lon="101.202362" lat="14.317433">
                <ele>46.300000</ele>
                <time>2018-10-21T03:42:43Z</time>
            </trkpt>
            <trkpt lon="101.202349" lat="14.317461">
                <ele>46.100000</ele>
                <time>2018-10-21T03:42:44Z</time>
            </trkpt>
            <trkpt lon="101.202334" lat="14.317490">
                <ele>45.900000</ele>
                <time>2018-10-21T03:42:45Z</time>
            </trkpt>
            <trkpt lon="101.202320" lat="14.317513">
                <ele>45.700000</ele>
                <time>2018-10-21T03:42:46Z</time>
            </trkpt>
            <trkpt lon="101.202307" lat="14.317541">
                <ele>45.600000</ele>
                <time>2018-10-21T03:42:47Z</time>
            </trkpt>
            <trkpt lon="101.202289" lat="14.317573">
                <ele>45.600000</ele>
                <time>2018-10-21T03:42:48Z</time>
            </trkpt>
            <trkpt lon="101.202273" lat="14.317600">
                <ele>45.500000</ele>
                <time>2018-10-21T03:42:49Z</time>
            </trkpt>
            <trkpt lon="101.202257" lat="14.317627">
                <ele>45.400000</ele>
                <time>2018-10-21T03:42:50Z</time>
            </trkpt>
            <trkpt lon="101.202244" lat="14.317663">
                <ele>45.300000</ele>
                <time>2018-10-21T03:42:51Z</time>
            </trkpt>
            <trkpt lon="101.202227" lat="14.317699">
                <ele>45.400000</ele>
                <time>2018-10-21T03:42:52Z</time>
            </trkpt>
            <trkpt lon="101.202209" lat="14.317728">
                <ele>45.500000</ele>
                <time>2018-10-21T03:42:53Z</time>
            </trkpt>
            <trkpt lon="101.202190" lat="14.317757">
                <ele>45.500000</ele>
                <time>2018-10-21T03:42:54Z</time>
            </trkpt>
            <trkpt lon="101.202167" lat="14.317787">
                <ele>45.500000</ele>
                <time>2018-10-21T03:42:55Z</time>
            </trkpt>
            <trkpt lon="101.202151" lat="14.317812">
                <ele>45.500000</ele>
                <time>2018-10-21T03:42:56Z</time>
            </trkpt>
            <trkpt lon="101.202130" lat="14.317840">
                <ele>45.600000</ele>
                <time>2018-10-21T03:42:57Z</time>
            </trkpt>
            <trkpt lon="101.202110" lat="14.317868">
                <ele>45.600000</ele>
                <time>2018-10-21T03:42:58Z</time>
            </trkpt>
            <trkpt lon="101.202092" lat="14.317892">
                <ele>45.700000</ele>
                <time>2018-10-21T03:42:59Z</time>
            </trkpt>
            <trkpt lon="101.202080" lat="14.317923">
                <ele>45.900000</ele>
                <time>2018-10-21T03:43:00Z</time>
            </trkpt>
            <trkpt lon="101.202066" lat="14.317953">
                <ele>46.100000</ele>
                <time>2018-10-21T03:43:01Z</time>
            </trkpt>
            <trkpt lon="101.202049" lat="14.317984">
                <ele>46.200000</ele>
                <time>2018-10-21T03:43:02Z</time>
            </trkpt>
            <trkpt lon="101.202026" lat="14.318013">
                <ele>46.300000</ele>
                <time>2018-10-21T03:43:03Z</time>
            </trkpt>
            <trkpt lon="101.202007" lat="14.318044">
                <ele>46.400000</ele>
                <time>2018-10-21T03:43:04Z</time>
            </trkpt>
            <trkpt lon="101.201986" lat="14.318073">
                <ele>46.300000</ele>
                <time>2018-10-21T03:43:05Z</time>
            </trkpt>
            <trkpt lon="101.201967" lat="14.318101">
                <ele>46.200000</ele>
                <time>2018-10-21T03:43:06Z</time>
            </trkpt>
            <trkpt lon="101.201947" lat="14.318127">
                <ele>46.200000</ele>
                <time>2018-10-21T03:43:07Z</time>
            </trkpt>
            <trkpt lon="101.201930" lat="14.318154">
                <ele>46.100000</ele>
                <time>2018-10-21T03:43:08Z</time>
            </trkpt>
            <trkpt lon="101.201920" lat="14.318181">
                <ele>46.100000</ele>
                <time>2018-10-21T03:43:09Z</time>
            </trkpt>
            <trkpt lon="101.201905" lat="14.318207">
                <ele>46.100000</ele>
                <time>2018-10-21T03:43:10Z</time>
            </trkpt>
            <trkpt lon="101.201890" lat="14.318231">
                <ele>46.000000</ele>
                <time>2018-10-21T03:43:11Z</time>
            </trkpt>
            <trkpt lon="101.201876" lat="14.318259">
                <ele>45.900000</ele>
                <time>2018-10-21T03:43:12Z</time>
            </trkpt>
            <trkpt lon="101.201867" lat="14.318287">
                <ele>45.900000</ele>
                <time>2018-10-21T03:43:13Z</time>
            </trkpt>
            <trkpt lon="101.201854" lat="14.318313">
                <ele>45.800000</ele>
                <time>2018-10-21T03:43:14Z</time>
            </trkpt>
            <trkpt lon="101.201836" lat="14.318338">
                <ele>45.800000</ele>
                <time>2018-10-21T03:43:15Z</time>
            </trkpt>
            <trkpt lon="101.201817" lat="14.318359">
                <ele>45.700000</ele>
                <time>2018-10-21T03:43:16Z</time>
            </trkpt>
            <trkpt lon="101.201789" lat="14.318404">
                <ele>45.800000</ele>
                <time>2018-10-21T03:43:18Z</time>
            </trkpt>
            <trkpt lon="101.201779" lat="14.318431">
                <ele>46.000000</ele>
                <time>2018-10-21T03:43:19Z</time>
            </trkpt>
            <trkpt lon="101.201771" lat="14.318459">
                <ele>46.200000</ele>
                <time>2018-10-21T03:43:20Z</time>
            </trkpt>
            <trkpt lon="101.201769" lat="14.318516">
                <ele>46.200000</ele>
                <time>2018-10-21T03:43:22Z</time>
            </trkpt>
            <trkpt lon="101.201760" lat="14.318548">
                <ele>46.200000</ele>
                <time>2018-10-21T03:43:23Z</time>
            </trkpt>
            <trkpt lon="101.201758" lat="14.318596">
                <ele>46.200000</ele>
                <time>2018-10-21T03:43:25Z</time>
            </trkpt>
            <trkpt lon="101.201754" lat="14.318626">
                <ele>46.200000</ele>
                <time>2018-10-21T03:43:26Z</time>
            </trkpt>
            <trkpt lon="101.201708" lat="14.318647">
                <ele>46.200000</ele>
                <time>2018-10-21T03:43:28Z</time>
            </trkpt>
            <trkpt lon="101.201659" lat="14.318648">
                <ele>46.100000</ele>
                <time>2018-10-21T03:43:30Z</time>
            </trkpt>
            <trkpt lon="101.201607" lat="14.318661">
                <ele>46.300000</ele>
                <time>2018-10-21T03:43:32Z</time>
            </trkpt>
            <trkpt lon="101.201574" lat="14.318674">
                <ele>46.400000</ele>
                <time>2018-10-21T03:43:33Z</time>
            </trkpt>
            <trkpt lon="101.201541" lat="14.318691">
                <ele>46.500000</ele>
                <time>2018-10-21T03:43:34Z</time>
            </trkpt>
            <trkpt lon="101.201515" lat="14.318706">
                <ele>46.500000</ele>
                <time>2018-10-21T03:43:35Z</time>
            </trkpt>
            <trkpt lon="101.201481" lat="14.318722">
                <ele>46.600000</ele>
                <time>2018-10-21T03:43:36Z</time>
            </trkpt>
            <trkpt lon="101.201442" lat="14.318727">
                <ele>46.600000</ele>
                <time>2018-10-21T03:43:37Z</time>
            </trkpt>
            <trkpt lon="101.201404" lat="14.318730">
                <ele>46.600000</ele>
                <time>2018-10-21T03:43:38Z</time>
            </trkpt>
            <trkpt lon="101.201375" lat="14.318731">
                <ele>46.600000</ele>
                <time>2018-10-21T03:43:39Z</time>
            </trkpt>
            <trkpt lon="101.201323" lat="14.318735">
                <ele>46.400000</ele>
                <time>2018-10-21T03:43:41Z</time>
            </trkpt>
            <trkpt lon="101.201269" lat="14.318730">
                <ele>46.400000</ele>
                <time>2018-10-21T03:43:43Z</time>
            </trkpt>
            <trkpt lon="101.201239" lat="14.318725">
                <ele>46.400000</ele>
                <time>2018-10-21T03:43:44Z</time>
            </trkpt>
            <trkpt lon="101.201207" lat="14.318718">
                <ele>46.400000</ele>
                <time>2018-10-21T03:43:45Z</time>
            </trkpt>
            <trkpt lon="101.201175" lat="14.318701">
                <ele>46.600000</ele>
                <time>2018-10-21T03:43:46Z</time>
            </trkpt>
            <trkpt lon="101.201166" lat="14.318667">
                <ele>46.800000</ele>
                <time>2018-10-21T03:43:47Z</time>
            </trkpt>
            <trkpt lon="101.201157" lat="14.318632">
                <ele>47.000000</ele>
                <time>2018-10-21T03:43:48Z</time>
            </trkpt>
            <trkpt lon="101.201154" lat="14.318596">
                <ele>47.200000</ele>
                <time>2018-10-21T03:43:49Z</time>
            </trkpt>
            <trkpt lon="101.201155" lat="14.318567">
                <ele>47.400000</ele>
                <time>2018-10-21T03:43:50Z</time>
            </trkpt>
            <trkpt lon="101.201157" lat="14.318538">
                <ele>47.500000</ele>
                <time>2018-10-21T03:43:51Z</time>
            </trkpt>
            <trkpt lon="101.201157" lat="14.318508">
                <ele>47.700000</ele>
                <time>2018-10-21T03:43:52Z</time>
            </trkpt>
            <trkpt lon="101.201155" lat="14.318472">
                <ele>47.900000</ele>
                <time>2018-10-21T03:43:53Z</time>
            </trkpt>
            <trkpt lon="101.201150" lat="14.318436">
                <ele>48.100000</ele>
                <time>2018-10-21T03:43:54Z</time>
            </trkpt>
            <trkpt lon="101.201146" lat="14.318403">
                <ele>48.300000</ele>
                <time>2018-10-21T03:43:55Z</time>
            </trkpt>
            <trkpt lon="101.201145" lat="14.318350">
                <ele>48.500000</ele>
                <time>2018-10-21T03:43:57Z</time>
            </trkpt>
            <trkpt lon="101.201109" lat="14.318312">
                <ele>48.600000</ele>
                <time>2018-10-21T03:43:59Z</time>
            </trkpt>
            <trkpt lon="101.201082" lat="14.318287">
                <ele>48.700000</ele>
                <time>2018-10-21T03:44:01Z</time>
            </trkpt>
            <trkpt lon="101.201063" lat="14.318265">
                <ele>48.800000</ele>
                <time>2018-10-21T03:44:03Z</time>
            </trkpt>
            <trkpt lon="101.201035" lat="14.318266">
                <ele>48.900000</ele>
                <time>2018-10-21T03:44:05Z</time>
            </trkpt>
            <trkpt lon="101.201008" lat="14.318277">
                <ele>49.000000</ele>
                <time>2018-10-21T03:44:06Z</time>
            </trkpt>
            <trkpt lon="101.200959" lat="14.318291">
                <ele>49.100000</ele>
                <time>2018-10-21T03:44:08Z</time>
            </trkpt>
            <trkpt lon="101.200916" lat="14.318300">
                <ele>49.200000</ele>
                <time>2018-10-21T03:44:10Z</time>
            </trkpt>
            <trkpt lon="101.200880" lat="14.318316">
                <ele>49.300000</ele>
                <time>2018-10-21T03:44:12Z</time>
            </trkpt>
            <trkpt lon="101.200853" lat="14.318332">
                <ele>49.400000</ele>
                <time>2018-10-21T03:44:13Z</time>
            </trkpt>
            <trkpt lon="101.200824" lat="14.318343">
                <ele>49.300000</ele>
                <time>2018-10-21T03:44:14Z</time>
            </trkpt>
            <trkpt lon="101.200782" lat="14.318359">
                <ele>49.200000</ele>
                <time>2018-10-21T03:44:16Z</time>
            </trkpt>
            <trkpt lon="101.200739" lat="14.318369">
                <ele>49.000000</ele>
                <time>2018-10-21T03:44:18Z</time>
            </trkpt>
            <trkpt lon="101.200700" lat="14.318377">
                <ele>48.800000</ele>
                <time>2018-10-21T03:44:20Z</time>
            </trkpt>
            <trkpt lon="101.200665" lat="14.318387">
                <ele>48.600000</ele>
                <time>2018-10-21T03:44:23Z</time>
            </trkpt>
            <trkpt lon="101.200634" lat="14.318389">
                <ele>48.500000</ele>
                <time>2018-10-21T03:44:25Z</time>
            </trkpt>
            <trkpt lon="101.200587" lat="14.318383">
                <ele>48.400000</ele>
                <time>2018-10-21T03:44:27Z</time>
            </trkpt>
            <trkpt lon="101.200536" lat="14.318382">
                <ele>48.300000</ele>
                <time>2018-10-21T03:44:29Z</time>
            </trkpt>
            <trkpt lon="101.200489" lat="14.318384">
                <ele>48.300000</ele>
                <time>2018-10-21T03:44:31Z</time>
            </trkpt>
            <trkpt lon="101.200448" lat="14.318392">
                <ele>48.300000</ele>
                <time>2018-10-21T03:44:33Z</time>
            </trkpt>
            <trkpt lon="101.200417" lat="14.318398">
                <ele>48.300000</ele>
                <time>2018-10-21T03:44:34Z</time>
            </trkpt>
            <trkpt lon="101.200388" lat="14.318401">
                <ele>48.300000</ele>
                <time>2018-10-21T03:44:35Z</time>
            </trkpt>
            <trkpt lon="101.200335" lat="14.318406">
                <ele>48.200000</ele>
                <time>2018-10-21T03:44:37Z</time>
            </trkpt>
            <trkpt lon="101.200279" lat="14.318411">
                <ele>48.100000</ele>
                <time>2018-10-21T03:44:39Z</time>
            </trkpt>
            <trkpt lon="101.200249" lat="14.318412">
                <ele>48.100000</ele>
                <time>2018-10-21T03:44:40Z</time>
            </trkpt>
            <trkpt lon="101.200220" lat="14.318417">
                <ele>48.200000</ele>
                <time>2018-10-21T03:44:41Z</time>
            </trkpt>
            <trkpt lon="101.200171" lat="14.318418">
                <ele>48.300000</ele>
                <time>2018-10-21T03:44:43Z</time>
            </trkpt>
            <trkpt lon="101.200121" lat="14.318408">
                <ele>48.200000</ele>
                <time>2018-10-21T03:44:45Z</time>
            </trkpt>
            <trkpt lon="101.200071" lat="14.318383">
                <ele>48.000000</ele>
                <time>2018-10-21T03:44:47Z</time>
            </trkpt>
            <trkpt lon="101.200038" lat="14.318367">
                <ele>48.000000</ele>
                <time>2018-10-21T03:44:48Z</time>
            </trkpt>
            <trkpt lon="101.200007" lat="14.318346">
                <ele>48.000000</ele>
                <time>2018-10-21T03:44:49Z</time>
            </trkpt>
            <trkpt lon="101.199981" lat="14.318324">
                <ele>47.900000</ele>
                <time>2018-10-21T03:44:50Z</time>
            </trkpt>
            <trkpt lon="101.199953" lat="14.318310">
                <ele>47.700000</ele>
                <time>2018-10-21T03:44:51Z</time>
            </trkpt>
            <trkpt lon="101.199909" lat="14.318298">
                <ele>47.500000</ele>
                <time>2018-10-21T03:44:53Z</time>
            </trkpt>
            <trkpt lon="101.199872" lat="14.318278">
                <ele>47.400000</ele>
                <time>2018-10-21T03:44:55Z</time>
            </trkpt>
            <trkpt lon="101.199847" lat="14.318262">
                <ele>47.300000</ele>
                <time>2018-10-21T03:44:56Z</time>
            </trkpt>
            <trkpt lon="101.199821" lat="14.318251">
                <ele>47.300000</ele>
                <time>2018-10-21T03:44:57Z</time>
            </trkpt>
            <trkpt lon="101.199773" lat="14.318242">
                <ele>47.400000</ele>
                <time>2018-10-21T03:44:59Z</time>
            </trkpt>
            <trkpt lon="101.199728" lat="14.318222">
                <ele>47.500000</ele>
                <time>2018-10-21T03:45:01Z</time>
            </trkpt>
            <trkpt lon="101.199684" lat="14.318201">
                <ele>47.500000</ele>
                <time>2018-10-21T03:45:03Z</time>
            </trkpt>
            <trkpt lon="101.199655" lat="14.318191">
                <ele>47.600000</ele>
                <time>2018-10-21T03:45:04Z</time>
            </trkpt>
            <trkpt lon="101.199621" lat="14.318180">
                <ele>47.600000</ele>
                <time>2018-10-21T03:45:05Z</time>
            </trkpt>
            <trkpt lon="101.199591" lat="14.318163">
                <ele>47.700000</ele>
                <time>2018-10-21T03:45:06Z</time>
            </trkpt>
            <trkpt lon="101.199559" lat="14.318147">
                <ele>47.800000</ele>
                <time>2018-10-21T03:45:07Z</time>
            </trkpt>
            <trkpt lon="101.199531" lat="14.318135">
                <ele>47.800000</ele>
                <time>2018-10-21T03:45:08Z</time>
            </trkpt>
            <trkpt lon="101.199479" lat="14.318122">
                <ele>47.800000</ele>
                <time>2018-10-21T03:45:10Z</time>
            </trkpt>
            <trkpt lon="101.199432" lat="14.318102">
                <ele>47.800000</ele>
                <time>2018-10-21T03:45:12Z</time>
            </trkpt>
            <trkpt lon="101.199408" lat="14.318072">
                <ele>47.800000</ele>
                <time>2018-10-21T03:45:13Z</time>
            </trkpt>
            <trkpt lon="101.199389" lat="14.318042">
                <ele>47.800000</ele>
                <time>2018-10-21T03:45:14Z</time>
            </trkpt>
            <trkpt lon="101.199370" lat="14.318020">
                <ele>47.800000</ele>
                <time>2018-10-21T03:45:15Z</time>
            </trkpt>
            <trkpt lon="101.199345" lat="14.317998">
                <ele>47.800000</ele>
                <time>2018-10-21T03:45:16Z</time>
            </trkpt>
            <trkpt lon="101.199325" lat="14.317974">
                <ele>47.700000</ele>
                <time>2018-10-21T03:45:17Z</time>
            </trkpt>
            <trkpt lon="101.199317" lat="14.317944">
                <ele>47.600000</ele>
                <time>2018-10-21T03:45:18Z</time>
            </trkpt>
            <trkpt lon="101.199315" lat="14.317907">
                <ele>47.700000</ele>
                <time>2018-10-21T03:45:19Z</time>
            </trkpt>
            <trkpt lon="101.199321" lat="14.317873">
                <ele>47.500000</ele>
                <time>2018-10-21T03:45:20Z</time>
            </trkpt>
            <trkpt lon="101.199326" lat="14.317836">
                <ele>47.400000</ele>
                <time>2018-10-21T03:45:21Z</time>
            </trkpt>
            <trkpt lon="101.199333" lat="14.317802">
                <ele>47.200000</ele>
                <time>2018-10-21T03:45:22Z</time>
            </trkpt>
            <trkpt lon="101.199343" lat="14.317768">
                <ele>47.100000</ele>
                <time>2018-10-21T03:45:23Z</time>
            </trkpt>
            <trkpt lon="101.199355" lat="14.317740">
                <ele>47.100000</ele>
                <time>2018-10-21T03:45:24Z</time>
            </trkpt>
            <trkpt lon="101.199370" lat="14.317710">
                <ele>46.900000</ele>
                <time>2018-10-21T03:45:25Z</time>
            </trkpt>
            <trkpt lon="101.199387" lat="14.317683">
                <ele>46.800000</ele>
                <time>2018-10-21T03:45:26Z</time>
            </trkpt>
            <trkpt lon="101.199406" lat="14.317661">
                <ele>46.800000</ele>
                <time>2018-10-21T03:45:27Z</time>
            </trkpt>
            <trkpt lon="101.199428" lat="14.317626">
                <ele>46.500000</ele>
                <time>2018-10-21T03:45:29Z</time>
            </trkpt>
            <trkpt lon="101.199441" lat="14.317588">
                <ele>46.100000</ele>
                <time>2018-10-21T03:45:31Z</time>
            </trkpt>
            <trkpt lon="101.199439" lat="14.317545">
                <ele>45.900000</ele>
                <time>2018-10-21T03:45:33Z</time>
            </trkpt>
            <trkpt lon="101.199431" lat="14.317507">
                <ele>45.900000</ele>
                <time>2018-10-21T03:45:35Z</time>
            </trkpt>
            <trkpt lon="101.199426" lat="14.317453">
                <ele>45.900000</ele>
                <time>2018-10-21T03:45:37Z</time>
            </trkpt>
            <trkpt lon="101.199425" lat="14.317425">
                <ele>45.900000</ele>
                <time>2018-10-21T03:45:38Z</time>
            </trkpt>
            <trkpt lon="101.199405" lat="14.317377">
                <ele>46.000000</ele>
                <time>2018-10-21T03:45:40Z</time>
            </trkpt>
            <trkpt lon="101.199388" lat="14.317353">
                <ele>46.300000</ele>
                <time>2018-10-21T03:45:41Z</time>
            </trkpt>
            <trkpt lon="101.199359" lat="14.317313">
                <ele>46.600000</ele>
                <time>2018-10-21T03:45:43Z</time>
            </trkpt>
            <trkpt lon="101.199330" lat="14.317292">
                <ele>46.600000</ele>
                <time>2018-10-21T03:45:45Z</time>
            </trkpt>
            <trkpt lon="101.199293" lat="14.317274">
                <ele>46.800000</ele>
                <time>2018-10-21T03:45:47Z</time>
            </trkpt>
            <trkpt lon="101.199248" lat="14.317261">
                <ele>46.800000</ele>
                <time>2018-10-21T03:45:49Z</time>
            </trkpt>
            <trkpt lon="101.199198" lat="14.317244">
                <ele>46.700000</ele>
                <time>2018-10-21T03:45:51Z</time>
            </trkpt>
            <trkpt lon="101.199169" lat="14.317239">
                <ele>46.800000</ele>
                <time>2018-10-21T03:45:52Z</time>
            </trkpt>
            <trkpt lon="101.199123" lat="14.317259">
                <ele>46.600000</ele>
                <time>2018-10-21T03:45:54Z</time>
            </trkpt>
            <trkpt lon="101.199086" lat="14.317288">
                <ele>46.200000</ele>
                <time>2018-10-21T03:45:56Z</time>
            </trkpt>
            <trkpt lon="101.199037" lat="14.317310">
                <ele>45.800000</ele>
                <time>2018-10-21T03:45:58Z</time>
            </trkpt>
            <trkpt lon="101.199008" lat="14.317318">
                <ele>45.400000</ele>
                <time>2018-10-21T03:45:59Z</time>
            </trkpt>
            <trkpt lon="101.198951" lat="14.317332">
                <ele>45.000000</ele>
                <time>2018-10-21T03:46:01Z</time>
            </trkpt>
            <trkpt lon="101.198918" lat="14.317333">
                <ele>44.900000</ele>
                <time>2018-10-21T03:46:02Z</time>
            </trkpt>
            <trkpt lon="101.198891" lat="14.317318">
                <ele>44.800000</ele>
                <time>2018-10-21T03:46:03Z</time>
            </trkpt>
            <trkpt lon="101.198861" lat="14.317312">
                <ele>44.700000</ele>
                <time>2018-10-21T03:46:04Z</time>
            </trkpt>
            <trkpt lon="101.198824" lat="14.317298">
                <ele>44.600000</ele>
                <time>2018-10-21T03:46:05Z</time>
            </trkpt>
            <trkpt lon="101.198786" lat="14.317282">
                <ele>44.300000</ele>
                <time>2018-10-21T03:46:06Z</time>
            </trkpt>
            <trkpt lon="101.198754" lat="14.317269">
                <ele>44.200000</ele>
                <time>2018-10-21T03:46:07Z</time>
            </trkpt>
            <trkpt lon="101.198722" lat="14.317260">
                <ele>44.200000</ele>
                <time>2018-10-21T03:46:08Z</time>
            </trkpt>
            <trkpt lon="101.198686" lat="14.317254">
                <ele>44.100000</ele>
                <time>2018-10-21T03:46:09Z</time>
            </trkpt>
            <trkpt lon="101.198634" lat="14.317253">
                <ele>44.000000</ele>
                <time>2018-10-21T03:46:11Z</time>
            </trkpt>
            <trkpt lon="101.198599" lat="14.317260">
                <ele>43.900000</ele>
                <time>2018-10-21T03:46:12Z</time>
            </trkpt>
            <trkpt lon="101.198563" lat="14.317267">
                <ele>43.900000</ele>
                <time>2018-10-21T03:46:13Z</time>
            </trkpt>
            <trkpt lon="101.198527" lat="14.317276">
                <ele>43.900000</ele>
                <time>2018-10-21T03:46:14Z</time>
            </trkpt>
            <trkpt lon="101.198485" lat="14.317282">
                <ele>43.900000</ele>
                <time>2018-10-21T03:46:15Z</time>
            </trkpt>
            <trkpt lon="101.198438" lat="14.317285">
                <ele>43.900000</ele>
                <time>2018-10-21T03:46:16Z</time>
            </trkpt>
            <trkpt lon="101.198394" lat="14.317290">
                <ele>43.900000</ele>
                <time>2018-10-21T03:46:17Z</time>
            </trkpt>
            <trkpt lon="101.198355" lat="14.317294">
                <ele>43.900000</ele>
                <time>2018-10-21T03:46:18Z</time>
            </trkpt>
            <trkpt lon="101.198314" lat="14.317296">
                <ele>43.900000</ele>
                <time>2018-10-21T03:46:19Z</time>
            </trkpt>
            <trkpt lon="101.198271" lat="14.317306">
                <ele>43.900000</ele>
                <time>2018-10-21T03:46:20Z</time>
            </trkpt>
            <trkpt lon="101.198228" lat="14.317312">
                <ele>44.000000</ele>
                <time>2018-10-21T03:46:21Z</time>
            </trkpt>
            <trkpt lon="101.198186" lat="14.317319">
                <ele>44.300000</ele>
                <time>2018-10-21T03:46:22Z</time>
            </trkpt>
            <trkpt lon="101.198155" lat="14.317329">
                <ele>44.500000</ele>
                <time>2018-10-21T03:46:23Z</time>
            </trkpt>
            <trkpt lon="101.198122" lat="14.317334">
                <ele>44.500000</ele>
                <time>2018-10-21T03:46:24Z</time>
            </trkpt>
            <trkpt lon="101.198082" lat="14.317332">
                <ele>44.800000</ele>
                <time>2018-10-21T03:46:25Z</time>
            </trkpt>
            <trkpt lon="101.198044" lat="14.317330">
                <ele>44.900000</ele>
                <time>2018-10-21T03:46:26Z</time>
            </trkpt>
            <trkpt lon="101.198011" lat="14.317330">
                <ele>45.000000</ele>
                <time>2018-10-21T03:46:27Z</time>
            </trkpt>
            <trkpt lon="101.197971" lat="14.317343">
                <ele>45.000000</ele>
                <time>2018-10-21T03:46:29Z</time>
            </trkpt>
            <trkpt lon="101.197941" lat="14.317366">
                <ele>44.900000</ele>
                <time>2018-10-21T03:46:31Z</time>
            </trkpt>
            <trkpt lon="101.197917" lat="14.317387">
                <ele>44.900000</ele>
                <time>2018-10-21T03:46:33Z</time>
            </trkpt>
            <trkpt lon="101.197889" lat="14.317392">
                <ele>44.900000</ele>
                <time>2018-10-21T03:46:35Z</time>
            </trkpt>
            <trkpt lon="101.197857" lat="14.317391">
                <ele>44.900000</ele>
                <time>2018-10-21T03:46:37Z</time>
            </trkpt>
            <trkpt lon="101.197826" lat="14.317393">
                <ele>44.900000</ele>
                <time>2018-10-21T03:46:38Z</time>
            </trkpt>
            <trkpt lon="101.197789" lat="14.317402">
                <ele>44.900000</ele>
                <time>2018-10-21T03:46:40Z</time>
            </trkpt>
            <trkpt lon="101.197764" lat="14.317415">
                <ele>44.600000</ele>
                <time>2018-10-21T03:46:42Z</time>
            </trkpt>
            <trkpt lon="101.197723" lat="14.317430">
                <ele>44.700000</ele>
                <time>2018-10-21T03:46:44Z</time>
            </trkpt>
            <trkpt lon="101.197683" lat="14.317449">
                <ele>44.700000</ele>
                <time>2018-10-21T03:46:46Z</time>
            </trkpt>
            <trkpt lon="101.197640" lat="14.317456">
                <ele>45.000000</ele>
                <time>2018-10-21T03:46:48Z</time>
            </trkpt>
            <trkpt lon="101.197609" lat="14.317455">
                <ele>45.000000</ele>
                <time>2018-10-21T03:46:49Z</time>
            </trkpt>
            <trkpt lon="101.197578" lat="14.317459">
                <ele>45.200000</ele>
                <time>2018-10-21T03:46:50Z</time>
            </trkpt>
            <trkpt lon="101.197520" lat="14.317476">
                <ele>45.400000</ele>
                <time>2018-10-21T03:46:52Z</time>
            </trkpt>
            <trkpt lon="101.197490" lat="14.317492">
                <ele>45.100000</ele>
                <time>2018-10-21T03:46:53Z</time>
            </trkpt>
            <trkpt lon="101.197464" lat="14.317511">
                <ele>45.000000</ele>
                <time>2018-10-21T03:46:54Z</time>
            </trkpt>
            <trkpt lon="101.197440" lat="14.317537">
                <ele>44.900000</ele>
                <time>2018-10-21T03:46:56Z</time>
            </trkpt>
            <trkpt lon="101.197421" lat="14.317569">
                <ele>44.900000</ele>
                <time>2018-10-21T03:46:58Z</time>
            </trkpt>
            <trkpt lon="101.197413" lat="14.317599">
                <ele>44.700000</ele>
                <time>2018-10-21T03:47:00Z</time>
            </trkpt>
            <trkpt lon="101.197395" lat="14.317630">
                <ele>44.300000</ele>
                <time>2018-10-21T03:47:02Z</time>
            </trkpt>
            <trkpt lon="101.197397" lat="14.317662">
                <ele>44.000000</ele>
                <time>2018-10-21T03:47:05Z</time>
            </trkpt>
            <trkpt lon="101.197406" lat="14.317700">
                <ele>44.100000</ele>
                <time>2018-10-21T03:47:08Z</time>
            </trkpt>
            <trkpt lon="101.197421" lat="14.317741">
                <ele>44.300000</ele>
                <time>2018-10-21T03:47:10Z</time>
            </trkpt>
            <trkpt lon="101.197445" lat="14.317776">
                <ele>44.200000</ele>
                <time>2018-10-21T03:47:12Z</time>
            </trkpt>
            <trkpt lon="101.197450" lat="14.317824">
                <ele>44.500000</ele>
                <time>2018-10-21T03:47:14Z</time>
            </trkpt>
            <trkpt lon="101.197459" lat="14.317864">
                <ele>44.500000</ele>
                <time>2018-10-21T03:47:16Z</time>
            </trkpt>
            <trkpt lon="101.197454" lat="14.317906">
                <ele>44.700000</ele>
                <time>2018-10-21T03:47:18Z</time>
            </trkpt>
            <trkpt lon="101.197459" lat="14.317938">
                <ele>44.700000</ele>
                <time>2018-10-21T03:47:20Z</time>
            </trkpt>
            <trkpt lon="101.197467" lat="14.317968">
                <ele>44.800000</ele>
                <time>2018-10-21T03:47:22Z</time>
            </trkpt>
            <trkpt lon="101.197489" lat="14.318009">
                <ele>44.900000</ele>
                <time>2018-10-21T03:47:24Z</time>
            </trkpt>
            <trkpt lon="101.197505" lat="14.318059">
                <ele>44.800000</ele>
                <time>2018-10-21T03:47:26Z</time>
            </trkpt>
            <trkpt lon="101.197521" lat="14.318110">
                <ele>44.600000</ele>
                <time>2018-10-21T03:47:28Z</time>
            </trkpt>
            <trkpt lon="101.197529" lat="14.318161">
                <ele>44.100000</ele>
                <time>2018-10-21T03:47:30Z</time>
            </trkpt>
            <trkpt lon="101.197550" lat="14.318205">
                <ele>44.100000</ele>
                <time>2018-10-21T03:47:32Z</time>
            </trkpt>
            <trkpt lon="101.197577" lat="14.318245">
                <ele>44.000000</ele>
                <time>2018-10-21T03:47:34Z</time>
            </trkpt>
            <trkpt lon="101.197600" lat="14.318290">
                <ele>44.000000</ele>
                <time>2018-10-21T03:47:36Z</time>
            </trkpt>
            <trkpt lon="101.197631" lat="14.318329">
                <ele>44.000000</ele>
                <time>2018-10-21T03:47:38Z</time>
            </trkpt>
            <trkpt lon="101.197657" lat="14.318365">
                <ele>44.000000</ele>
                <time>2018-10-21T03:47:40Z</time>
            </trkpt>
            <trkpt lon="101.197683" lat="14.318401">
                <ele>44.000000</ele>
                <time>2018-10-21T03:47:42Z</time>
            </trkpt>
            <trkpt lon="101.197716" lat="14.318435">
                <ele>44.000000</ele>
                <time>2018-10-21T03:47:44Z</time>
            </trkpt>
            <trkpt lon="101.197751" lat="14.318478">
                <ele>44.200000</ele>
                <time>2018-10-21T03:47:46Z</time>
            </trkpt>
            <trkpt lon="101.197716" lat="14.318523">
                <ele>44.000000</ele>
                <time>2018-10-21T03:47:48Z</time>
            </trkpt>
            <trkpt lon="101.197675" lat="14.318540">
                <ele>44.200000</ele>
                <time>2018-10-21T03:47:49Z</time>
            </trkpt>
            <trkpt lon="101.197631" lat="14.318558">
                <ele>44.200000</ele>
                <time>2018-10-21T03:47:50Z</time>
            </trkpt>
            <trkpt lon="101.197589" lat="14.318585">
                <ele>44.400000</ele>
                <time>2018-10-21T03:47:51Z</time>
            </trkpt>
            <trkpt lon="101.197550" lat="14.318620">
                <ele>44.700000</ele>
                <time>2018-10-21T03:47:52Z</time>
            </trkpt>
            <trkpt lon="101.197510" lat="14.318643">
                <ele>44.700000</ele>
                <time>2018-10-21T03:47:53Z</time>
            </trkpt>
            <trkpt lon="101.197476" lat="14.318666">
                <ele>44.900000</ele>
                <time>2018-10-21T03:47:54Z</time>
            </trkpt>
            <trkpt lon="101.197451" lat="14.318679">
                <ele>44.900000</ele>
                <time>2018-10-21T03:47:55Z</time>
            </trkpt>
            <trkpt lon="101.197420" lat="14.318700">
                <ele>45.200000</ele>
                <time>2018-10-21T03:47:59Z</time>
            </trkpt>
            <trkpt lon="101.197384" lat="14.318705">
                <ele>45.300000</ele>
                <time>2018-10-21T03:48:08Z</time>
            </trkpt>
            <trkpt lon="101.197354" lat="14.318713">
                <ele>45.300000</ele>
                <time>2018-10-21T03:48:12Z</time>
            </trkpt>
            <trkpt lon="101.197323" lat="14.318722">
                <ele>45.500000</ele>
                <time>2018-10-21T03:48:14Z</time>
            </trkpt>
            <trkpt lon="101.197294" lat="14.318738">
                <ele>45.800000</ele>
                <time>2018-10-21T03:48:16Z</time>
            </trkpt>
            <trkpt lon="101.197270" lat="14.318761">
                <ele>45.800000</ele>
                <time>2018-10-21T03:48:19Z</time>
            </trkpt>
            <trkpt lon="101.197258" lat="14.318794">
                <ele>45.900000</ele>
                <time>2018-10-21T03:48:22Z</time>
            </trkpt>
            <trkpt lon="101.197243" lat="14.318836">
                <ele>46.000000</ele>
                <time>2018-10-21T03:48:24Z</time>
            </trkpt>
            <trkpt lon="101.197229" lat="14.318870">
                <ele>46.200000</ele>
                <time>2018-10-21T03:48:26Z</time>
            </trkpt>
            <trkpt lon="101.197218" lat="14.318899">
                <ele>46.200000</ele>
                <time>2018-10-21T03:48:28Z</time>
            </trkpt>
            <trkpt lon="101.197201" lat="14.318937">
                <ele>46.500000</ele>
                <time>2018-10-21T03:48:30Z</time>
            </trkpt>
            <trkpt lon="101.197192" lat="14.318984">
                <ele>46.800000</ele>
                <time>2018-10-21T03:48:32Z</time>
            </trkpt>
            <trkpt lon="101.197192" lat="14.319036">
                <ele>47.300000</ele>
                <time>2018-10-21T03:48:34Z</time>
            </trkpt>
            <trkpt lon="101.197195" lat="14.319065">
                <ele>47.300000</ele>
                <time>2018-10-21T03:48:35Z</time>
            </trkpt>
            <trkpt lon="101.197188" lat="14.319092">
                <ele>47.600000</ele>
                <time>2018-10-21T03:48:36Z</time>
            </trkpt>
            <trkpt lon="101.197172" lat="14.319122">
                <ele>47.900000</ele>
                <time>2018-10-21T03:48:37Z</time>
            </trkpt>
            <trkpt lon="101.197155" lat="14.319148">
                <ele>48.300000</ele>
                <time>2018-10-21T03:48:38Z</time>
            </trkpt>
            <trkpt lon="101.197128" lat="14.319166">
                <ele>49.100000</ele>
                <time>2018-10-21T03:48:39Z</time>
            </trkpt>
            <trkpt lon="101.197083" lat="14.319190">
                <ele>49.600000</ele>
                <time>2018-10-21T03:48:41Z</time>
            </trkpt>
            <trkpt lon="101.197056" lat="14.319205">
                <ele>50.100000</ele>
                <time>2018-10-21T03:48:43Z</time>
            </trkpt>
            <trkpt lon="101.197023" lat="14.319222">
                <ele>50.400000</ele>
                <time>2018-10-21T03:48:46Z</time>
            </trkpt>
            <trkpt lon="101.196991" lat="14.319212">
                <ele>50.400000</ele>
                <time>2018-10-21T03:48:49Z</time>
            </trkpt>
            <trkpt lon="101.196956" lat="14.319226">
                <ele>50.400000</ele>
                <time>2018-10-21T03:48:55Z</time>
            </trkpt>
            <trkpt lon="101.196927" lat="14.319254">
                <ele>50.900000</ele>
                <time>2018-10-21T03:48:57Z</time>
            </trkpt>
            <trkpt lon="101.196897" lat="14.319263">
                <ele>50.900000</ele>
                <time>2018-10-21T03:48:59Z</time>
            </trkpt>
            <trkpt lon="101.196863" lat="14.319280">
                <ele>51.400000</ele>
                <time>2018-10-21T03:49:01Z</time>
            </trkpt>
            <trkpt lon="101.196843" lat="14.319299">
                <ele>51.400000</ele>
                <time>2018-10-21T03:49:03Z</time>
            </trkpt>
            <trkpt lon="101.196814" lat="14.319323">
                <ele>51.900000</ele>
                <time>2018-10-21T03:49:05Z</time>
            </trkpt>
            <trkpt lon="101.196790" lat="14.319351">
                <ele>51.900000</ele>
                <time>2018-10-21T03:49:07Z</time>
            </trkpt>
            <trkpt lon="101.196755" lat="14.319378">
                <ele>52.400000</ele>
                <time>2018-10-21T03:49:09Z</time>
            </trkpt>
            <trkpt lon="101.196721" lat="14.319399">
                <ele>52.400000</ele>
                <time>2018-10-21T03:49:11Z</time>
            </trkpt>
            <trkpt lon="101.196683" lat="14.319428">
                <ele>52.900000</ele>
                <time>2018-10-21T03:49:13Z</time>
            </trkpt>
            <trkpt lon="101.196661" lat="14.319448">
                <ele>53.400000</ele>
                <time>2018-10-21T03:49:14Z</time>
            </trkpt>
            <trkpt lon="101.196618" lat="14.319476">
                <ele>53.200000</ele>
                <time>2018-10-21T03:49:16Z</time>
            </trkpt>
            <trkpt lon="101.196590" lat="14.319490">
                <ele>53.400000</ele>
                <time>2018-10-21T03:49:17Z</time>
            </trkpt>
            <trkpt lon="101.196558" lat="14.319501">
                <ele>53.200000</ele>
                <time>2018-10-21T03:49:18Z</time>
            </trkpt>
            <trkpt lon="101.196519" lat="14.319509">
                <ele>53.000000</ele>
                <time>2018-10-21T03:49:19Z</time>
            </trkpt>
            <trkpt lon="101.196472" lat="14.319511">
                <ele>53.000000</ele>
                <time>2018-10-21T03:49:20Z</time>
            </trkpt>
            <trkpt lon="101.196443" lat="14.319516">
                <ele>53.000000</ele>
                <time>2018-10-21T03:49:21Z</time>
            </trkpt>
            <trkpt lon="101.196406" lat="14.319526">
                <ele>53.100000</ele>
                <time>2018-10-21T03:49:22Z</time>
            </trkpt>
            <trkpt lon="101.196369" lat="14.319541">
                <ele>53.000000</ele>
                <time>2018-10-21T03:49:23Z</time>
            </trkpt>
            <trkpt lon="101.196333" lat="14.319560">
                <ele>52.900000</ele>
                <time>2018-10-21T03:49:24Z</time>
            </trkpt>
            <trkpt lon="101.196296" lat="14.319579">
                <ele>52.500000</ele>
                <time>2018-10-21T03:49:25Z</time>
            </trkpt>
            <trkpt lon="101.196262" lat="14.319600">
                <ele>52.400000</ele>
                <time>2018-10-21T03:49:26Z</time>
            </trkpt>
            <trkpt lon="101.196228" lat="14.319616">
                <ele>52.100000</ele>
                <time>2018-10-21T03:49:27Z</time>
            </trkpt>
            <trkpt lon="101.196196" lat="14.319632">
                <ele>51.900000</ele>
                <time>2018-10-21T03:49:28Z</time>
            </trkpt>
            <trkpt lon="101.196165" lat="14.319643">
                <ele>51.700000</ele>
                <time>2018-10-21T03:49:29Z</time>
            </trkpt>
            <trkpt lon="101.196118" lat="14.319654">
                <ele>51.200000</ele>
                <time>2018-10-21T03:49:31Z</time>
            </trkpt>
            <trkpt lon="101.196091" lat="14.319668">
                <ele>51.200000</ele>
                <time>2018-10-21T03:49:33Z</time>
            </trkpt>
            <trkpt lon="101.196082" lat="14.319696">
                <ele>50.900000</ele>
                <time>2018-10-21T03:49:35Z</time>
            </trkpt>
            <trkpt lon="101.196072" lat="14.319722">
                <ele>50.900000</ele>
                <time>2018-10-21T03:49:36Z</time>
            </trkpt>
            <trkpt lon="101.196050" lat="14.319746">
                <ele>50.700000</ele>
                <time>2018-10-21T03:49:37Z</time>
            </trkpt>
            <trkpt lon="101.196032" lat="14.319770">
                <ele>50.700000</ele>
                <time>2018-10-21T03:49:38Z</time>
            </trkpt>
            <trkpt lon="101.196009" lat="14.319795">
                <ele>50.400000</ele>
                <time>2018-10-21T03:49:39Z</time>
            </trkpt>
            <trkpt lon="101.195986" lat="14.319817">
                <ele>50.400000</ele>
                <time>2018-10-21T03:49:40Z</time>
            </trkpt>
            <trkpt lon="101.195957" lat="14.319840">
                <ele>49.900000</ele>
                <time>2018-10-21T03:49:41Z</time>
            </trkpt>
            <trkpt lon="101.195924" lat="14.319861">
                <ele>49.500000</ele>
                <time>2018-10-21T03:49:42Z</time>
            </trkpt>
            <trkpt lon="101.195895" lat="14.319879">
                <ele>49.500000</ele>
                <time>2018-10-21T03:49:43Z</time>
            </trkpt>
            <trkpt lon="101.195862" lat="14.319901">
                <ele>49.300000</ele>
                <time>2018-10-21T03:49:44Z</time>
            </trkpt>
            <trkpt lon="101.195830" lat="14.319919">
                <ele>49.100000</ele>
                <time>2018-10-21T03:49:45Z</time>
            </trkpt>
            <trkpt lon="101.195794" lat="14.319935">
                <ele>49.100000</ele>
                <time>2018-10-21T03:49:46Z</time>
            </trkpt>
            <trkpt lon="101.195763" lat="14.319951">
                <ele>49.100000</ele>
                <time>2018-10-21T03:49:47Z</time>
            </trkpt>
            <trkpt lon="101.195737" lat="14.319961">
                <ele>49.100000</ele>
                <time>2018-10-21T03:49:48Z</time>
            </trkpt>
            <trkpt lon="101.195713" lat="14.319975">
                <ele>49.100000</ele>
                <time>2018-10-21T03:49:49Z</time>
            </trkpt>
            <trkpt lon="101.195686" lat="14.319994">
                <ele>49.100000</ele>
                <time>2018-10-21T03:49:50Z</time>
            </trkpt>
            <trkpt lon="101.195650" lat="14.320027">
                <ele>49.300000</ele>
                <time>2018-10-21T03:49:52Z</time>
            </trkpt>
            <trkpt lon="101.195645" lat="14.320061">
                <ele>49.500000</ele>
                <time>2018-10-21T03:49:54Z</time>
            </trkpt>
            <trkpt lon="101.195661" lat="14.320097">
                <ele>49.800000</ele>
                <time>2018-10-21T03:49:56Z</time>
            </trkpt>
            <trkpt lon="101.195676" lat="14.320121">
                <ele>50.000000</ele>
                <time>2018-10-21T03:49:57Z</time>
            </trkpt>
            <trkpt lon="101.195689" lat="14.320148">
                <ele>50.100000</ele>
                <time>2018-10-21T03:49:58Z</time>
            </trkpt>
            <trkpt lon="101.195703" lat="14.320172">
                <ele>50.200000</ele>
                <time>2018-10-21T03:49:59Z</time>
            </trkpt>
            <trkpt lon="101.195717" lat="14.320200">
                <ele>50.300000</ele>
                <time>2018-10-21T03:50:00Z</time>
            </trkpt>
            <trkpt lon="101.195731" lat="14.320233">
                <ele>50.500000</ele>
                <time>2018-10-21T03:50:01Z</time>
            </trkpt>
            <trkpt lon="101.195746" lat="14.320265">
                <ele>50.600000</ele>
                <time>2018-10-21T03:50:02Z</time>
            </trkpt>
            <trkpt lon="101.195760" lat="14.320300">
                <ele>50.700000</ele>
                <time>2018-10-21T03:50:03Z</time>
            </trkpt>
            <trkpt lon="101.195768" lat="14.320337">
                <ele>50.800000</ele>
                <time>2018-10-21T03:50:04Z</time>
            </trkpt>
            <trkpt lon="101.195773" lat="14.320379">
                <ele>50.900000</ele>
                <time>2018-10-21T03:50:05Z</time>
            </trkpt>
            <trkpt lon="101.195771" lat="14.320425">
                <ele>50.900000</ele>
                <time>2018-10-21T03:50:06Z</time>
            </trkpt>
            <trkpt lon="101.195772" lat="14.320468">
                <ele>50.900000</ele>
                <time>2018-10-21T03:50:07Z</time>
            </trkpt>
            <trkpt lon="101.195772" lat="14.320510">
                <ele>51.000000</ele>
                <time>2018-10-21T03:50:08Z</time>
            </trkpt>
            <trkpt lon="101.195781" lat="14.320546">
                <ele>51.000000</ele>
                <time>2018-10-21T03:50:09Z</time>
            </trkpt>
            <trkpt lon="101.195792" lat="14.320583">
                <ele>51.000000</ele>
                <time>2018-10-21T03:50:10Z</time>
            </trkpt>
            <trkpt lon="101.195803" lat="14.320618">
                <ele>51.000000</ele>
                <time>2018-10-21T03:50:11Z</time>
            </trkpt>
            <trkpt lon="101.195816" lat="14.320647">
                <ele>51.000000</ele>
                <time>2018-10-21T03:50:12Z</time>
            </trkpt>
            <trkpt lon="101.195830" lat="14.320674">
                <ele>51.000000</ele>
                <time>2018-10-21T03:50:13Z</time>
            </trkpt>
            <trkpt lon="101.195840" lat="14.320702">
                <ele>50.900000</ele>
                <time>2018-10-21T03:50:14Z</time>
            </trkpt>
            <trkpt lon="101.195853" lat="14.320732">
                <ele>50.800000</ele>
                <time>2018-10-21T03:50:15Z</time>
            </trkpt>
            <trkpt lon="101.195866" lat="14.320768">
                <ele>50.700000</ele>
                <time>2018-10-21T03:50:16Z</time>
            </trkpt>
            <trkpt lon="101.195881" lat="14.320803">
                <ele>50.700000</ele>
                <time>2018-10-21T03:50:17Z</time>
            </trkpt>
            <trkpt lon="101.195896" lat="14.320832">
                <ele>50.600000</ele>
                <time>2018-10-21T03:50:18Z</time>
            </trkpt>
            <trkpt lon="101.195912" lat="14.320860">
                <ele>50.600000</ele>
                <time>2018-10-21T03:50:19Z</time>
            </trkpt>
            <trkpt lon="101.195926" lat="14.320886">
                <ele>50.600000</ele>
                <time>2018-10-21T03:50:20Z</time>
            </trkpt>
            <trkpt lon="101.195956" lat="14.320938">
                <ele>50.900000</ele>
                <time>2018-10-21T03:50:22Z</time>
            </trkpt>
            <trkpt lon="101.195972" lat="14.320987">
                <ele>51.300000</ele>
                <time>2018-10-21T03:50:24Z</time>
            </trkpt>
            <trkpt lon="101.195990" lat="14.321038">
                <ele>51.400000</ele>
                <time>2018-10-21T03:50:26Z</time>
            </trkpt>
            <trkpt lon="101.196001" lat="14.321071">
                <ele>51.400000</ele>
                <time>2018-10-21T03:50:27Z</time>
            </trkpt>
            <trkpt lon="101.196010" lat="14.321100">
                <ele>51.600000</ele>
                <time>2018-10-21T03:50:28Z</time>
            </trkpt>
            <trkpt lon="101.196020" lat="14.321129">
                <ele>51.800000</ele>
                <time>2018-10-21T03:50:29Z</time>
            </trkpt>
            <trkpt lon="101.196027" lat="14.321160">
                <ele>51.900000</ele>
                <time>2018-10-21T03:50:30Z</time>
            </trkpt>
            <trkpt lon="101.196040" lat="14.321191">
                <ele>51.800000</ele>
                <time>2018-10-21T03:50:31Z</time>
            </trkpt>
            <trkpt lon="101.196056" lat="14.321222">
                <ele>51.700000</ele>
                <time>2018-10-21T03:50:32Z</time>
            </trkpt>
            <trkpt lon="101.196068" lat="14.321255">
                <ele>51.300000</ele>
                <time>2018-10-21T03:50:33Z</time>
            </trkpt>
            <trkpt lon="101.196081" lat="14.321283">
                <ele>50.900000</ele>
                <time>2018-10-21T03:50:34Z</time>
            </trkpt>
            <trkpt lon="101.196089" lat="14.321311">
                <ele>50.700000</ele>
                <time>2018-10-21T03:50:35Z</time>
            </trkpt>
            <trkpt lon="101.196096" lat="14.321343">
                <ele>50.600000</ele>
                <time>2018-10-21T03:50:36Z</time>
            </trkpt>
            <trkpt lon="101.196098" lat="14.321379">
                <ele>50.400000</ele>
                <time>2018-10-21T03:50:37Z</time>
            </trkpt>
            <trkpt lon="101.196094" lat="14.321414">
                <ele>50.400000</ele>
                <time>2018-10-21T03:50:38Z</time>
            </trkpt>
            <trkpt lon="101.196079" lat="14.321447">
                <ele>50.400000</ele>
                <time>2018-10-21T03:50:39Z</time>
            </trkpt>
            <trkpt lon="101.196056" lat="14.321476">
                <ele>50.300000</ele>
                <time>2018-10-21T03:50:40Z</time>
            </trkpt>
            <trkpt lon="101.196028" lat="14.321499">
                <ele>50.100000</ele>
                <time>2018-10-21T03:50:41Z</time>
            </trkpt>
            <trkpt lon="101.196001" lat="14.321519">
                <ele>49.900000</ele>
                <time>2018-10-21T03:50:42Z</time>
            </trkpt>
            <trkpt lon="101.195970" lat="14.321536">
                <ele>49.700000</ele>
                <time>2018-10-21T03:50:43Z</time>
            </trkpt>
            <trkpt lon="101.195942" lat="14.321555">
                <ele>49.500000</ele>
                <time>2018-10-21T03:50:44Z</time>
            </trkpt>
            <trkpt lon="101.195911" lat="14.321573">
                <ele>49.300000</ele>
                <time>2018-10-21T03:50:45Z</time>
            </trkpt>
            <trkpt lon="101.195875" lat="14.321590">
                <ele>49.000000</ele>
                <time>2018-10-21T03:50:46Z</time>
            </trkpt>
            <trkpt lon="101.195838" lat="14.321609">
                <ele>48.800000</ele>
                <time>2018-10-21T03:50:47Z</time>
            </trkpt>
            <trkpt lon="101.195807" lat="14.321629">
                <ele>48.600000</ele>
                <time>2018-10-21T03:50:48Z</time>
            </trkpt>
            <trkpt lon="101.195775" lat="14.321648">
                <ele>48.400000</ele>
                <time>2018-10-21T03:50:49Z</time>
            </trkpt>
            <trkpt lon="101.195744" lat="14.321666">
                <ele>48.200000</ele>
                <time>2018-10-21T03:50:50Z</time>
            </trkpt>
            <trkpt lon="101.195708" lat="14.321687">
                <ele>48.100000</ele>
                <time>2018-10-21T03:50:51Z</time>
            </trkpt>
            <trkpt lon="101.195677" lat="14.321704">
                <ele>48.100000</ele>
                <time>2018-10-21T03:50:52Z</time>
            </trkpt>
            <trkpt lon="101.195646" lat="14.321722">
                <ele>48.100000</ele>
                <time>2018-10-21T03:50:53Z</time>
            </trkpt>
            <trkpt lon="101.195607" lat="14.321737">
                <ele>48.100000</ele>
                <time>2018-10-21T03:50:54Z</time>
            </trkpt>
            <trkpt lon="101.195559" lat="14.321755">
                <ele>48.100000</ele>
                <time>2018-10-21T03:50:55Z</time>
            </trkpt>
            <trkpt lon="101.195521" lat="14.321770">
                <ele>48.400000</ele>
                <time>2018-10-21T03:50:56Z</time>
            </trkpt>
            <trkpt lon="101.195481" lat="14.321793">
                <ele>48.700000</ele>
                <time>2018-10-21T03:50:57Z</time>
            </trkpt>
            <trkpt lon="101.195435" lat="14.321812">
                <ele>49.000000</ele>
                <time>2018-10-21T03:50:58Z</time>
            </trkpt>
            <trkpt lon="101.195397" lat="14.321829">
                <ele>49.200000</ele>
                <time>2018-10-21T03:50:59Z</time>
            </trkpt>
            <trkpt lon="101.195359" lat="14.321845">
                <ele>49.400000</ele>
                <time>2018-10-21T03:51:00Z</time>
            </trkpt>
            <trkpt lon="101.195320" lat="14.321865">
                <ele>49.600000</ele>
                <time>2018-10-21T03:51:01Z</time>
            </trkpt>
            <trkpt lon="101.195274" lat="14.321881">
                <ele>49.800000</ele>
                <time>2018-10-21T03:51:02Z</time>
            </trkpt>
            <trkpt lon="101.195232" lat="14.321898">
                <ele>49.900000</ele>
                <time>2018-10-21T03:51:03Z</time>
            </trkpt>
            <trkpt lon="101.195200" lat="14.321914">
                <ele>50.000000</ele>
                <time>2018-10-21T03:51:04Z</time>
            </trkpt>
            <trkpt lon="101.195164" lat="14.321925">
                <ele>50.000000</ele>
                <time>2018-10-21T03:51:05Z</time>
            </trkpt>
            <trkpt lon="101.195130" lat="14.321940">
                <ele>50.000000</ele>
                <time>2018-10-21T03:51:06Z</time>
            </trkpt>
            <trkpt lon="101.195085" lat="14.321949">
                <ele>50.000000</ele>
                <time>2018-10-21T03:51:07Z</time>
            </trkpt>
            <trkpt lon="101.195037" lat="14.321954">
                <ele>50.000000</ele>
                <time>2018-10-21T03:51:08Z</time>
            </trkpt>
            <trkpt lon="101.194990" lat="14.321958">
                <ele>50.000000</ele>
                <time>2018-10-21T03:51:09Z</time>
            </trkpt>
            <trkpt lon="101.194947" lat="14.321965">
                <ele>50.000000</ele>
                <time>2018-10-21T03:51:10Z</time>
            </trkpt>
            <trkpt lon="101.194897" lat="14.321979">
                <ele>50.000000</ele>
                <time>2018-10-21T03:51:11Z</time>
            </trkpt>
            <trkpt lon="101.194853" lat="14.321996">
                <ele>50.200000</ele>
                <time>2018-10-21T03:51:12Z</time>
            </trkpt>
            <trkpt lon="101.194810" lat="14.322012">
                <ele>50.400000</ele>
                <time>2018-10-21T03:51:13Z</time>
            </trkpt>
            <trkpt lon="101.194771" lat="14.322027">
                <ele>50.800000</ele>
                <time>2018-10-21T03:51:14Z</time>
            </trkpt>
            <trkpt lon="101.194729" lat="14.322048">
                <ele>51.400000</ele>
                <time>2018-10-21T03:51:15Z</time>
            </trkpt>
            <trkpt lon="101.194685" lat="14.322061">
                <ele>51.900000</ele>
                <time>2018-10-21T03:51:16Z</time>
            </trkpt>
            <trkpt lon="101.194643" lat="14.322077">
                <ele>52.400000</ele>
                <time>2018-10-21T03:51:17Z</time>
            </trkpt>
            <trkpt lon="101.194598" lat="14.322092">
                <ele>52.800000</ele>
                <time>2018-10-21T03:51:18Z</time>
            </trkpt>
            <trkpt lon="101.194554" lat="14.322108">
                <ele>53.200000</ele>
                <time>2018-10-21T03:51:19Z</time>
            </trkpt>
            <trkpt lon="101.194509" lat="14.322119">
                <ele>53.500000</ele>
                <time>2018-10-21T03:51:20Z</time>
            </trkpt>
            <trkpt lon="101.194466" lat="14.322127">
                <ele>53.800000</ele>
                <time>2018-10-21T03:51:21Z</time>
            </trkpt>
            <trkpt lon="101.194428" lat="14.322144">
                <ele>54.100000</ele>
                <time>2018-10-21T03:51:22Z</time>
            </trkpt>
            <trkpt lon="101.194393" lat="14.322157">
                <ele>54.300000</ele>
                <time>2018-10-21T03:51:23Z</time>
            </trkpt>
            <trkpt lon="101.194359" lat="14.322176">
                <ele>54.700000</ele>
                <time>2018-10-21T03:51:24Z</time>
            </trkpt>
            <trkpt lon="101.194330" lat="14.322202">
                <ele>55.000000</ele>
                <time>2018-10-21T03:51:25Z</time>
            </trkpt>
            <trkpt lon="101.194301" lat="14.322229">
                <ele>54.900000</ele>
                <time>2018-10-21T03:51:26Z</time>
            </trkpt>
            <trkpt lon="101.194269" lat="14.322259">
                <ele>54.900000</ele>
                <time>2018-10-21T03:51:27Z</time>
            </trkpt>
            <trkpt lon="101.194243" lat="14.322292">
                <ele>55.200000</ele>
                <time>2018-10-21T03:51:28Z</time>
            </trkpt>
            <trkpt lon="101.194212" lat="14.322324">
                <ele>55.500000</ele>
                <time>2018-10-21T03:51:29Z</time>
            </trkpt>
            <trkpt lon="101.194184" lat="14.322357">
                <ele>55.600000</ele>
                <time>2018-10-21T03:51:30Z</time>
            </trkpt>
            <trkpt lon="101.194166" lat="14.322385">
                <ele>55.600000</ele>
                <time>2018-10-21T03:51:31Z</time>
            </trkpt>
            <trkpt lon="101.194150" lat="14.322417">
                <ele>55.200000</ele>
                <time>2018-10-21T03:51:32Z</time>
            </trkpt>
            <trkpt lon="101.194133" lat="14.322445">
                <ele>54.900000</ele>
                <time>2018-10-21T03:51:33Z</time>
            </trkpt>
            <trkpt lon="101.194113" lat="14.322487">
                <ele>54.500000</ele>
                <time>2018-10-21T03:51:35Z</time>
            </trkpt>
            <trkpt lon="101.194105" lat="14.322542">
                <ele>54.100000</ele>
                <time>2018-10-21T03:51:37Z</time>
            </trkpt>
            <trkpt lon="101.194112" lat="14.322580">
                <ele>54.100000</ele>
                <time>2018-10-21T03:51:38Z</time>
            </trkpt>
            <trkpt lon="101.194122" lat="14.322622">
                <ele>54.100000</ele>
                <time>2018-10-21T03:51:39Z</time>
            </trkpt>
            <trkpt lon="101.194122" lat="14.322663">
                <ele>54.000000</ele>
                <time>2018-10-21T03:51:40Z</time>
            </trkpt>
            <trkpt lon="101.194132" lat="14.322705">
                <ele>54.000000</ele>
                <time>2018-10-21T03:51:41Z</time>
            </trkpt>
            <trkpt lon="101.194146" lat="14.322751">
                <ele>54.000000</ele>
                <time>2018-10-21T03:51:42Z</time>
            </trkpt>
            <trkpt lon="101.194158" lat="14.322787">
                <ele>54.000000</ele>
                <time>2018-10-21T03:51:43Z</time>
            </trkpt>
            <trkpt lon="101.194165" lat="14.322831">
                <ele>54.000000</ele>
                <time>2018-10-21T03:51:44Z</time>
            </trkpt>
            <trkpt lon="101.194180" lat="14.322874">
                <ele>54.000000</ele>
                <time>2018-10-21T03:51:45Z</time>
            </trkpt>
            <trkpt lon="101.194187" lat="14.322909">
                <ele>54.000000</ele>
                <time>2018-10-21T03:51:46Z</time>
            </trkpt>
            <trkpt lon="101.194189" lat="14.322946">
                <ele>54.000000</ele>
                <time>2018-10-21T03:51:47Z</time>
            </trkpt>
            <trkpt lon="101.194192" lat="14.322978">
                <ele>54.000000</ele>
                <time>2018-10-21T03:51:48Z</time>
            </trkpt>
            <trkpt lon="101.194196" lat="14.323009">
                <ele>54.000000</ele>
                <time>2018-10-21T03:51:49Z</time>
            </trkpt>
            <trkpt lon="101.194198" lat="14.323041">
                <ele>54.000000</ele>
                <time>2018-10-21T03:51:50Z</time>
            </trkpt>
            <trkpt lon="101.194196" lat="14.323072">
                <ele>54.000000</ele>
                <time>2018-10-21T03:51:51Z</time>
            </trkpt>
            <trkpt lon="101.194192" lat="14.323104">
                <ele>54.000000</ele>
                <time>2018-10-21T03:51:52Z</time>
            </trkpt>
            <trkpt lon="101.194185" lat="14.323131">
                <ele>54.000000</ele>
                <time>2018-10-21T03:51:53Z</time>
            </trkpt>
            <trkpt lon="101.194182" lat="14.323159">
                <ele>54.000000</ele>
                <time>2018-10-21T03:51:54Z</time>
            </trkpt>
            <trkpt lon="101.194180" lat="14.323187">
                <ele>54.000000</ele>
                <time>2018-10-21T03:51:55Z</time>
            </trkpt>
            <trkpt lon="101.194175" lat="14.323217">
                <ele>54.000000</ele>
                <time>2018-10-21T03:51:56Z</time>
            </trkpt>
            <trkpt lon="101.194171" lat="14.323251">
                <ele>53.900000</ele>
                <time>2018-10-21T03:51:57Z</time>
            </trkpt>
            <trkpt lon="101.194167" lat="14.323285">
                <ele>53.900000</ele>
                <time>2018-10-21T03:51:58Z</time>
            </trkpt>
            <trkpt lon="101.194164" lat="14.323318">
                <ele>53.900000</ele>
                <time>2018-10-21T03:51:59Z</time>
            </trkpt>
            <trkpt lon="101.194156" lat="14.323353">
                <ele>53.900000</ele>
                <time>2018-10-21T03:52:00Z</time>
            </trkpt>
            <trkpt lon="101.194153" lat="14.323384">
                <ele>53.900000</ele>
                <time>2018-10-21T03:52:01Z</time>
            </trkpt>
            <trkpt lon="101.194150" lat="14.323414">
                <ele>53.900000</ele>
                <time>2018-10-21T03:52:02Z</time>
            </trkpt>
            <trkpt lon="101.194145" lat="14.323446">
                <ele>53.900000</ele>
                <time>2018-10-21T03:52:03Z</time>
            </trkpt>
            <trkpt lon="101.194141" lat="14.323478">
                <ele>53.900000</ele>
                <time>2018-10-21T03:52:04Z</time>
            </trkpt>
            <trkpt lon="101.194139" lat="14.323507">
                <ele>53.900000</ele>
                <time>2018-10-21T03:52:05Z</time>
            </trkpt>
            <trkpt lon="101.194137" lat="14.323538">
                <ele>53.900000</ele>
                <time>2018-10-21T03:52:06Z</time>
            </trkpt>
            <trkpt lon="101.194133" lat="14.323570">
                <ele>53.900000</ele>
                <time>2018-10-21T03:52:07Z</time>
            </trkpt>
            <trkpt lon="101.194125" lat="14.323601">
                <ele>53.900000</ele>
                <time>2018-10-21T03:52:08Z</time>
            </trkpt>
            <trkpt lon="101.194119" lat="14.323632">
                <ele>53.900000</ele>
                <time>2018-10-21T03:52:09Z</time>
            </trkpt>
            <trkpt lon="101.194113" lat="14.323665">
                <ele>53.900000</ele>
                <time>2018-10-21T03:52:10Z</time>
            </trkpt>
            <trkpt lon="101.194110" lat="14.323699">
                <ele>53.800000</ele>
                <time>2018-10-21T03:52:11Z</time>
            </trkpt>
            <trkpt lon="101.194106" lat="14.323730">
                <ele>53.800000</ele>
                <time>2018-10-21T03:52:12Z</time>
            </trkpt>
            <trkpt lon="101.194104" lat="14.323762">
                <ele>53.800000</ele>
                <time>2018-10-21T03:52:13Z</time>
            </trkpt>
            <trkpt lon="101.194099" lat="14.323793">
                <ele>53.800000</ele>
                <time>2018-10-21T03:52:14Z</time>
            </trkpt>
            <trkpt lon="101.194099" lat="14.323826">
                <ele>53.800000</ele>
                <time>2018-10-21T03:52:15Z</time>
            </trkpt>
            <trkpt lon="101.194100" lat="14.323860">
                <ele>53.800000</ele>
                <time>2018-10-21T03:52:16Z</time>
            </trkpt>
            <trkpt lon="101.194104" lat="14.323894">
                <ele>53.800000</ele>
                <time>2018-10-21T03:52:17Z</time>
            </trkpt>
            <trkpt lon="101.194103" lat="14.323926">
                <ele>53.800000</ele>
                <time>2018-10-21T03:52:18Z</time>
            </trkpt>
            <trkpt lon="101.194104" lat="14.323956">
                <ele>53.800000</ele>
                <time>2018-10-21T03:52:19Z</time>
            </trkpt>
            <trkpt lon="101.194113" lat="14.324014">
                <ele>53.800000</ele>
                <time>2018-10-21T03:52:21Z</time>
            </trkpt>
            <trkpt lon="101.194119" lat="14.324047">
                <ele>53.700000</ele>
                <time>2018-10-21T03:52:22Z</time>
            </trkpt>
            <trkpt lon="101.194127" lat="14.324083">
                <ele>53.700000</ele>
                <time>2018-10-21T03:52:23Z</time>
            </trkpt>
            <trkpt lon="101.194138" lat="14.324118">
                <ele>53.700000</ele>
                <time>2018-10-21T03:52:24Z</time>
            </trkpt>
            <trkpt lon="101.194150" lat="14.324145">
                <ele>53.700000</ele>
                <time>2018-10-21T03:52:25Z</time>
            </trkpt>
            <trkpt lon="101.194162" lat="14.324174">
                <ele>53.700000</ele>
                <time>2018-10-21T03:52:26Z</time>
            </trkpt>
            <trkpt lon="101.194196" lat="14.324216">
                <ele>53.700000</ele>
                <time>2018-10-21T03:52:28Z</time>
            </trkpt>
            <trkpt lon="101.194216" lat="14.324240">
                <ele>53.700000</ele>
                <time>2018-10-21T03:52:29Z</time>
            </trkpt>
            <trkpt lon="101.194257" lat="14.324281">
                <ele>53.700000</ele>
                <time>2018-10-21T03:52:31Z</time>
            </trkpt>
            <trkpt lon="101.194281" lat="14.324300">
                <ele>53.700000</ele>
                <time>2018-10-21T03:52:32Z</time>
            </trkpt>
            <trkpt lon="101.194309" lat="14.324322">
                <ele>53.700000</ele>
                <time>2018-10-21T03:52:33Z</time>
            </trkpt>
            <trkpt lon="101.194337" lat="14.324342">
                <ele>53.700000</ele>
                <time>2018-10-21T03:52:34Z</time>
            </trkpt>
            <trkpt lon="101.194363" lat="14.324366">
                <ele>53.700000</ele>
                <time>2018-10-21T03:52:35Z</time>
            </trkpt>
            <trkpt lon="101.194391" lat="14.324388">
                <ele>53.700000</ele>
                <time>2018-10-21T03:52:36Z</time>
            </trkpt>
            <trkpt lon="101.194421" lat="14.324409">
                <ele>53.700000</ele>
                <time>2018-10-21T03:52:37Z</time>
            </trkpt>
            <trkpt lon="101.194452" lat="14.324427">
                <ele>53.700000</ele>
                <time>2018-10-21T03:52:38Z</time>
            </trkpt>
            <trkpt lon="101.194481" lat="14.324443">
                <ele>53.700000</ele>
                <time>2018-10-21T03:52:39Z</time>
            </trkpt>
            <trkpt lon="101.194512" lat="14.324461">
                <ele>53.700000</ele>
                <time>2018-10-21T03:52:40Z</time>
            </trkpt>
            <trkpt lon="101.194560" lat="14.324483">
                <ele>53.700000</ele>
                <time>2018-10-21T03:52:42Z</time>
            </trkpt>
            <trkpt lon="101.194597" lat="14.324521">
                <ele>53.800000</ele>
                <time>2018-10-21T03:52:44Z</time>
            </trkpt>
            <trkpt lon="101.194606" lat="14.324550">
                <ele>53.800000</ele>
                <time>2018-10-21T03:52:45Z</time>
            </trkpt>
            <trkpt lon="101.194611" lat="14.324590">
                <ele>53.800000</ele>
                <time>2018-10-21T03:52:46Z</time>
            </trkpt>
            <trkpt lon="101.194601" lat="14.324630">
                <ele>53.800000</ele>
                <time>2018-10-21T03:52:47Z</time>
            </trkpt>
            <trkpt lon="101.194579" lat="14.324669">
                <ele>53.800000</ele>
                <time>2018-10-21T03:52:48Z</time>
            </trkpt>
            <trkpt lon="101.194554" lat="14.324711">
                <ele>52.900000</ele>
                <time>2018-10-21T03:52:49Z</time>
            </trkpt>
            <trkpt lon="101.194517" lat="14.324757">
                <ele>52.000000</ele>
                <time>2018-10-21T03:52:50Z</time>
            </trkpt>
            <trkpt lon="101.194481" lat="14.324807">
                <ele>51.400000</ele>
                <time>2018-10-21T03:52:51Z</time>
            </trkpt>
            <trkpt lon="101.194446" lat="14.324856">
                <ele>50.800000</ele>
                <time>2018-10-21T03:52:52Z</time>
            </trkpt>
            <trkpt lon="101.194414" lat="14.324907">
                <ele>50.300000</ele>
                <time>2018-10-21T03:52:53Z</time>
            </trkpt>
            <trkpt lon="101.194386" lat="14.324951">
                <ele>49.900000</ele>
                <time>2018-10-21T03:52:54Z</time>
            </trkpt>
            <trkpt lon="101.194364" lat="14.325001">
                <ele>49.700000</ele>
                <time>2018-10-21T03:52:55Z</time>
            </trkpt>
            <trkpt lon="101.194343" lat="14.325045">
                <ele>49.500000</ele>
                <time>2018-10-21T03:52:56Z</time>
            </trkpt>
            <trkpt lon="101.194318" lat="14.325094">
                <ele>49.500000</ele>
                <time>2018-10-21T03:52:57Z</time>
            </trkpt>
            <trkpt lon="101.194293" lat="14.325139">
                <ele>49.500000</ele>
                <time>2018-10-21T03:52:58Z</time>
            </trkpt>
            <trkpt lon="101.194270" lat="14.325184">
                <ele>49.600000</ele>
                <time>2018-10-21T03:52:59Z</time>
            </trkpt>
            <trkpt lon="101.194245" lat="14.325227">
                <ele>50.000000</ele>
                <time>2018-10-21T03:53:00Z</time>
            </trkpt>
            <trkpt lon="101.194215" lat="14.325267">
                <ele>50.500000</ele>
                <time>2018-10-21T03:53:01Z</time>
            </trkpt>
            <trkpt lon="101.194188" lat="14.325306">
                <ele>51.000000</ele>
                <time>2018-10-21T03:53:02Z</time>
            </trkpt>
            <trkpt lon="101.194166" lat="14.325350">
                <ele>51.600000</ele>
                <time>2018-10-21T03:53:03Z</time>
            </trkpt>
            <trkpt lon="101.194148" lat="14.325396">
                <ele>52.400000</ele>
                <time>2018-10-21T03:53:04Z</time>
            </trkpt>
            <trkpt lon="101.194123" lat="14.325436">
                <ele>52.900000</ele>
                <time>2018-10-21T03:53:05Z</time>
            </trkpt>
            <trkpt lon="101.194101" lat="14.325477">
                <ele>53.200000</ele>
                <time>2018-10-21T03:53:06Z</time>
            </trkpt>
            <trkpt lon="101.194078" lat="14.325517">
                <ele>53.300000</ele>
                <time>2018-10-21T03:53:07Z</time>
            </trkpt>
            <trkpt lon="101.194055" lat="14.325559">
                <ele>53.500000</ele>
                <time>2018-10-21T03:53:08Z</time>
            </trkpt>
            <trkpt lon="101.194035" lat="14.325599">
                <ele>53.500000</ele>
                <time>2018-10-21T03:53:09Z</time>
            </trkpt>
            <trkpt lon="101.194013" lat="14.325637">
                <ele>53.400000</ele>
                <time>2018-10-21T03:53:10Z</time>
            </trkpt>
            <trkpt lon="101.193991" lat="14.325678">
                <ele>53.200000</ele>
                <time>2018-10-21T03:53:11Z</time>
            </trkpt>
            <trkpt lon="101.193968" lat="14.325717">
                <ele>53.000000</ele>
                <time>2018-10-21T03:53:12Z</time>
            </trkpt>
            <trkpt lon="101.193948" lat="14.325758">
                <ele>52.700000</ele>
                <time>2018-10-21T03:53:13Z</time>
            </trkpt>
            <trkpt lon="101.193927" lat="14.325797">
                <ele>52.400000</ele>
                <time>2018-10-21T03:53:14Z</time>
            </trkpt>
            <trkpt lon="101.193907" lat="14.325834">
                <ele>52.200000</ele>
                <time>2018-10-21T03:53:15Z</time>
            </trkpt>
            <trkpt lon="101.193887" lat="14.325872">
                <ele>51.900000</ele>
                <time>2018-10-21T03:53:16Z</time>
            </trkpt>
            <trkpt lon="101.193859" lat="14.325907">
                <ele>51.500000</ele>
                <time>2018-10-21T03:53:17Z</time>
            </trkpt>
            <trkpt lon="101.193821" lat="14.325932">
                <ele>51.200000</ele>
                <time>2018-10-21T03:53:18Z</time>
            </trkpt>
            <trkpt lon="101.193781" lat="14.325941">
                <ele>50.800000</ele>
                <time>2018-10-21T03:53:19Z</time>
            </trkpt>
            <trkpt lon="101.193733" lat="14.325941">
                <ele>50.500000</ele>
                <time>2018-10-21T03:53:20Z</time>
            </trkpt>
            <trkpt lon="101.193686" lat="14.325934">
                <ele>50.300000</ele>
                <time>2018-10-21T03:53:21Z</time>
            </trkpt>
            <trkpt lon="101.193638" lat="14.325926">
                <ele>50.000000</ele>
                <time>2018-10-21T03:53:22Z</time>
            </trkpt>
            <trkpt lon="101.193593" lat="14.325913">
                <ele>49.600000</ele>
                <time>2018-10-21T03:53:23Z</time>
            </trkpt>
            <trkpt lon="101.193546" lat="14.325900">
                <ele>49.100000</ele>
                <time>2018-10-21T03:53:24Z</time>
            </trkpt>
            <trkpt lon="101.193502" lat="14.325891">
                <ele>48.700000</ele>
                <time>2018-10-21T03:53:25Z</time>
            </trkpt>
            <trkpt lon="101.193457" lat="14.325883">
                <ele>48.400000</ele>
                <time>2018-10-21T03:53:26Z</time>
            </trkpt>
            <trkpt lon="101.193414" lat="14.325879">
                <ele>48.200000</ele>
                <time>2018-10-21T03:53:27Z</time>
            </trkpt>
            <trkpt lon="101.193370" lat="14.325877">
                <ele>48.200000</ele>
                <time>2018-10-21T03:53:28Z</time>
            </trkpt>
            <trkpt lon="101.193323" lat="14.325879">
                <ele>48.300000</ele>
                <time>2018-10-21T03:53:29Z</time>
            </trkpt>
            <trkpt lon="101.193276" lat="14.325885">
                <ele>48.500000</ele>
                <time>2018-10-21T03:53:30Z</time>
            </trkpt>
            <trkpt lon="101.193232" lat="14.325900">
                <ele>48.900000</ele>
                <time>2018-10-21T03:53:31Z</time>
            </trkpt>
            <trkpt lon="101.193188" lat="14.325914">
                <ele>49.700000</ele>
                <time>2018-10-21T03:53:32Z</time>
            </trkpt>
            <trkpt lon="101.193144" lat="14.325924">
                <ele>50.400000</ele>
                <time>2018-10-21T03:53:33Z</time>
            </trkpt>
            <trkpt lon="101.193102" lat="14.325934">
                <ele>50.900000</ele>
                <time>2018-10-21T03:53:34Z</time>
            </trkpt>
            <trkpt lon="101.193056" lat="14.325941">
                <ele>51.400000</ele>
                <time>2018-10-21T03:53:35Z</time>
            </trkpt>
            <trkpt lon="101.193009" lat="14.325947">
                <ele>51.500000</ele>
                <time>2018-10-21T03:53:36Z</time>
            </trkpt>
            <trkpt lon="101.192971" lat="14.325955">
                <ele>51.700000</ele>
                <time>2018-10-21T03:53:37Z</time>
            </trkpt>
            <trkpt lon="101.192929" lat="14.325969">
                <ele>51.500000</ele>
                <time>2018-10-21T03:53:38Z</time>
            </trkpt>
            <trkpt lon="101.192890" lat="14.325986">
                <ele>51.200000</ele>
                <time>2018-10-21T03:53:39Z</time>
            </trkpt>
            <trkpt lon="101.192862" lat="14.326015">
                <ele>50.800000</ele>
                <time>2018-10-21T03:53:40Z</time>
            </trkpt>
            <trkpt lon="101.192841" lat="14.326057">
                <ele>50.800000</ele>
                <time>2018-10-21T03:53:41Z</time>
            </trkpt>
            <trkpt lon="101.192841" lat="14.326095">
                <ele>50.800000</ele>
                <time>2018-10-21T03:53:42Z</time>
            </trkpt>
            <trkpt lon="101.192858" lat="14.326138">
                <ele>50.800000</ele>
                <time>2018-10-21T03:53:43Z</time>
            </trkpt>
            <trkpt lon="101.192872" lat="14.326180">
                <ele>50.800000</ele>
                <time>2018-10-21T03:53:44Z</time>
            </trkpt>
            <trkpt lon="101.192884" lat="14.326222">
                <ele>51.100000</ele>
                <time>2018-10-21T03:53:45Z</time>
            </trkpt>
            <trkpt lon="101.192890" lat="14.326263">
                <ele>51.300000</ele>
                <time>2018-10-21T03:53:46Z</time>
            </trkpt>
            <trkpt lon="101.192899" lat="14.326305">
                <ele>51.500000</ele>
                <time>2018-10-21T03:53:47Z</time>
            </trkpt>
            <trkpt lon="101.192905" lat="14.326344">
                <ele>51.700000</ele>
                <time>2018-10-21T03:53:48Z</time>
            </trkpt>
            <trkpt lon="101.192907" lat="14.326385">
                <ele>51.900000</ele>
                <time>2018-10-21T03:53:49Z</time>
            </trkpt>
            <trkpt lon="101.192909" lat="14.326425">
                <ele>51.800000</ele>
                <time>2018-10-21T03:53:50Z</time>
            </trkpt>
            <trkpt lon="101.192903" lat="14.326466">
                <ele>51.800000</ele>
                <time>2018-10-21T03:53:51Z</time>
            </trkpt>
            <trkpt lon="101.192894" lat="14.326505">
                <ele>51.700000</ele>
                <time>2018-10-21T03:53:52Z</time>
            </trkpt>
            <trkpt lon="101.192887" lat="14.326542">
                <ele>51.700000</ele>
                <time>2018-10-21T03:53:53Z</time>
            </trkpt>
            <trkpt lon="101.192875" lat="14.326578">
                <ele>51.100000</ele>
                <time>2018-10-21T03:53:54Z</time>
            </trkpt>
            <trkpt lon="101.192867" lat="14.326616">
                <ele>51.200000</ele>
                <time>2018-10-21T03:53:55Z</time>
            </trkpt>
            <trkpt lon="101.192855" lat="14.326652">
                <ele>51.300000</ele>
                <time>2018-10-21T03:53:56Z</time>
            </trkpt>
            <trkpt lon="101.192847" lat="14.326691">
                <ele>51.400000</ele>
                <time>2018-10-21T03:53:57Z</time>
            </trkpt>
            <trkpt lon="101.192836" lat="14.326728">
                <ele>51.100000</ele>
                <time>2018-10-21T03:53:58Z</time>
            </trkpt>
            <trkpt lon="101.192826" lat="14.326765">
                <ele>51.300000</ele>
                <time>2018-10-21T03:53:59Z</time>
            </trkpt>
            <trkpt lon="101.192816" lat="14.326800">
                <ele>51.300000</ele>
                <time>2018-10-21T03:54:00Z</time>
            </trkpt>
            <trkpt lon="101.192807" lat="14.326836">
                <ele>51.400000</ele>
                <time>2018-10-21T03:54:01Z</time>
            </trkpt>
            <trkpt lon="101.192797" lat="14.326874">
                <ele>51.700000</ele>
                <time>2018-10-21T03:54:02Z</time>
            </trkpt>
            <trkpt lon="101.192789" lat="14.326909">
                <ele>52.000000</ele>
                <time>2018-10-21T03:54:03Z</time>
            </trkpt>
            <trkpt lon="101.192779" lat="14.326946">
                <ele>52.500000</ele>
                <time>2018-10-21T03:54:04Z</time>
            </trkpt>
            <trkpt lon="101.192771" lat="14.326983">
                <ele>53.000000</ele>
                <time>2018-10-21T03:54:05Z</time>
            </trkpt>
            <trkpt lon="101.192759" lat="14.327019">
                <ele>53.500000</ele>
                <time>2018-10-21T03:54:06Z</time>
            </trkpt>
            <trkpt lon="101.192749" lat="14.327055">
                <ele>53.800000</ele>
                <time>2018-10-21T03:54:07Z</time>
            </trkpt>
            <trkpt lon="101.192739" lat="14.327090">
                <ele>53.800000</ele>
                <time>2018-10-21T03:54:08Z</time>
            </trkpt>
            <trkpt lon="101.192725" lat="14.327119">
                <ele>54.200000</ele>
                <time>2018-10-21T03:54:09Z</time>
            </trkpt>
            <trkpt lon="101.192707" lat="14.327153">
                <ele>54.200000</ele>
                <time>2018-10-21T03:54:10Z</time>
            </trkpt>
            <trkpt lon="101.192696" lat="14.327185">
                <ele>54.400000</ele>
                <time>2018-10-21T03:54:11Z</time>
            </trkpt>
            <trkpt lon="101.192686" lat="14.327223">
                <ele>54.200000</ele>
                <time>2018-10-21T03:54:12Z</time>
            </trkpt>
            <trkpt lon="101.192678" lat="14.327260">
                <ele>54.200000</ele>
                <time>2018-10-21T03:54:13Z</time>
            </trkpt>
            <trkpt lon="101.192662" lat="14.327298">
                <ele>53.700000</ele>
                <time>2018-10-21T03:54:14Z</time>
            </trkpt>
            <trkpt lon="101.192652" lat="14.327333">
                <ele>53.700000</ele>
                <time>2018-10-21T03:54:15Z</time>
            </trkpt>
            <trkpt lon="101.192640" lat="14.327371">
                <ele>53.500000</ele>
                <time>2018-10-21T03:54:16Z</time>
            </trkpt>
            <trkpt lon="101.192628" lat="14.327410">
                <ele>53.000000</ele>
                <time>2018-10-21T03:54:17Z</time>
            </trkpt>
            <trkpt lon="101.192616" lat="14.327446">
                <ele>52.200000</ele>
                <time>2018-10-21T03:54:18Z</time>
            </trkpt>
            <trkpt lon="101.192600" lat="14.327478">
                <ele>51.700000</ele>
                <time>2018-10-21T03:54:19Z</time>
            </trkpt>
            <trkpt lon="101.192587" lat="14.327514">
                <ele>51.200000</ele>
                <time>2018-10-21T03:54:20Z</time>
            </trkpt>
            <trkpt lon="101.192572" lat="14.327555">
                <ele>50.500000</ele>
                <time>2018-10-21T03:54:21Z</time>
            </trkpt>
            <trkpt lon="101.192560" lat="14.327590">
                <ele>50.500000</ele>
                <time>2018-10-21T03:54:22Z</time>
            </trkpt>
            <trkpt lon="101.192551" lat="14.327627">
                <ele>50.100000</ele>
                <time>2018-10-21T03:54:23Z</time>
            </trkpt>
            <trkpt lon="101.192539" lat="14.327665">
                <ele>49.600000</ele>
                <time>2018-10-21T03:54:24Z</time>
            </trkpt>
            <trkpt lon="101.192531" lat="14.327699">
                <ele>49.200000</ele>
                <time>2018-10-21T03:54:25Z</time>
            </trkpt>
            <trkpt lon="101.192519" lat="14.327734">
                <ele>48.900000</ele>
                <time>2018-10-21T03:54:26Z</time>
            </trkpt>
            <trkpt lon="101.192507" lat="14.327770">
                <ele>48.600000</ele>
                <time>2018-10-21T03:54:27Z</time>
            </trkpt>
            <trkpt lon="101.192500" lat="14.327807">
                <ele>48.400000</ele>
                <time>2018-10-21T03:54:28Z</time>
            </trkpt>
            <trkpt lon="101.192490" lat="14.327842">
                <ele>48.800000</ele>
                <time>2018-10-21T03:54:29Z</time>
            </trkpt>
            <trkpt lon="101.192480" lat="14.327874">
                <ele>48.700000</ele>
                <time>2018-10-21T03:54:30Z</time>
            </trkpt>
            <trkpt lon="101.192469" lat="14.327906">
                <ele>49.000000</ele>
                <time>2018-10-21T03:54:31Z</time>
            </trkpt>
            <trkpt lon="101.192457" lat="14.327940">
                <ele>49.400000</ele>
                <time>2018-10-21T03:54:32Z</time>
            </trkpt>
            <trkpt lon="101.192452" lat="14.327975">
                <ele>49.700000</ele>
                <time>2018-10-21T03:54:33Z</time>
            </trkpt>
            <trkpt lon="101.192448" lat="14.328011">
                <ele>50.300000</ele>
                <time>2018-10-21T03:54:34Z</time>
            </trkpt>
            <trkpt lon="101.192437" lat="14.328044">
                <ele>50.300000</ele>
                <time>2018-10-21T03:54:35Z</time>
            </trkpt>
            <trkpt lon="101.192428" lat="14.328074">
                <ele>50.800000</ele>
                <time>2018-10-21T03:54:36Z</time>
            </trkpt>
            <trkpt lon="101.192420" lat="14.328106">
                <ele>51.300000</ele>
                <time>2018-10-21T03:54:37Z</time>
            </trkpt>
            <trkpt lon="101.192410" lat="14.328139">
                <ele>51.800000</ele>
                <time>2018-10-21T03:54:38Z</time>
            </trkpt>
            <trkpt lon="101.192403" lat="14.328173">
                <ele>52.100000</ele>
                <time>2018-10-21T03:54:39Z</time>
            </trkpt>
            <trkpt lon="101.192396" lat="14.328208">
                <ele>52.500000</ele>
                <time>2018-10-21T03:54:40Z</time>
            </trkpt>
            <trkpt lon="101.192391" lat="14.328240">
                <ele>52.800000</ele>
                <time>2018-10-21T03:54:41Z</time>
            </trkpt>
            <trkpt lon="101.192382" lat="14.328269">
                <ele>53.200000</ele>
                <time>2018-10-21T03:54:42Z</time>
            </trkpt>
            <trkpt lon="101.192370" lat="14.328301">
                <ele>53.200000</ele>
                <time>2018-10-21T03:54:43Z</time>
            </trkpt>
            <trkpt lon="101.192359" lat="14.328328">
                <ele>53.700000</ele>
                <time>2018-10-21T03:54:44Z</time>
            </trkpt>
            <trkpt lon="101.192346" lat="14.328361">
                <ele>53.900000</ele>
                <time>2018-10-21T03:54:45Z</time>
            </trkpt>
            <trkpt lon="101.192346" lat="14.328392">
                <ele>54.200000</ele>
                <time>2018-10-21T03:54:46Z</time>
            </trkpt>
            <trkpt lon="101.192350" lat="14.328420">
                <ele>54.200000</ele>
                <time>2018-10-21T03:54:47Z</time>
            </trkpt>
            <trkpt lon="101.192344" lat="14.328448">
                <ele>54.400000</ele>
                <time>2018-10-21T03:54:48Z</time>
            </trkpt>
            <trkpt lon="101.192342" lat="14.328488">
                <ele>54.700000</ele>
                <time>2018-10-21T03:54:50Z</time>
            </trkpt>
            <trkpt lon="101.192340" lat="14.328519">
                <ele>54.900000</ele>
                <time>2018-10-21T03:54:52Z</time>
            </trkpt>
            <trkpt lon="101.192332" lat="14.328560">
                <ele>55.000000</ele>
                <time>2018-10-21T03:54:54Z</time>
            </trkpt>
            <trkpt lon="101.192335" lat="14.328599">
                <ele>55.200000</ele>
                <time>2018-10-21T03:54:56Z</time>
            </trkpt>
            <trkpt lon="101.192345" lat="14.328624">
                <ele>55.200000</ele>
                <time>2018-10-21T03:54:58Z</time>
            </trkpt>
            <trkpt lon="101.192353" lat="14.328665">
                <ele>55.300000</ele>
                <time>2018-10-21T03:55:01Z</time>
            </trkpt>
            <trkpt lon="101.192355" lat="14.328693">
                <ele>55.400000</ele>
                <time>2018-10-21T03:55:03Z</time>
            </trkpt>
            <trkpt lon="101.192361" lat="14.328730">
                <ele>55.400000</ele>
                <time>2018-10-21T03:55:05Z</time>
            </trkpt>
            <trkpt lon="101.192372" lat="14.328771">
                <ele>55.800000</ele>
                <time>2018-10-21T03:55:07Z</time>
            </trkpt>
            <trkpt lon="101.192381" lat="14.328820">
                <ele>56.000000</ele>
                <time>2018-10-21T03:55:09Z</time>
            </trkpt>
            <trkpt lon="101.192387" lat="14.328863">
                <ele>56.000000</ele>
                <time>2018-10-21T03:55:11Z</time>
            </trkpt>
            <trkpt lon="101.192391" lat="14.328908">
                <ele>56.000000</ele>
                <time>2018-10-21T03:55:13Z</time>
            </trkpt>
            <trkpt lon="101.192401" lat="14.328950">
                <ele>56.000000</ele>
                <time>2018-10-21T03:55:15Z</time>
            </trkpt>
            <trkpt lon="101.192404" lat="14.328998">
                <ele>56.000000</ele>
                <time>2018-10-21T03:55:17Z</time>
            </trkpt>
            <trkpt lon="101.192413" lat="14.329040">
                <ele>56.200000</ele>
                <time>2018-10-21T03:55:19Z</time>
            </trkpt>
            <trkpt lon="101.192418" lat="14.329085">
                <ele>56.000000</ele>
                <time>2018-10-21T03:55:21Z</time>
            </trkpt>
            <trkpt lon="101.192423" lat="14.329132">
                <ele>55.700000</ele>
                <time>2018-10-21T03:55:23Z</time>
            </trkpt>
            <trkpt lon="101.192429" lat="14.329169">
                <ele>55.500000</ele>
                <time>2018-10-21T03:55:25Z</time>
            </trkpt>
            <trkpt lon="101.192438" lat="14.329213">
                <ele>55.500000</ele>
                <time>2018-10-21T03:55:27Z</time>
            </trkpt>
            <trkpt lon="101.192449" lat="14.329254">
                <ele>55.500000</ele>
                <time>2018-10-21T03:55:29Z</time>
            </trkpt>
            <trkpt lon="101.192464" lat="14.329293">
                <ele>55.700000</ele>
                <time>2018-10-21T03:55:31Z</time>
            </trkpt>
            <trkpt lon="101.192487" lat="14.329327">
                <ele>55.700000</ele>
                <time>2018-10-21T03:55:33Z</time>
            </trkpt>
            <trkpt lon="101.192521" lat="14.329355">
                <ele>55.800000</ele>
                <time>2018-10-21T03:55:35Z</time>
            </trkpt>
            <trkpt lon="101.192557" lat="14.329380">
                <ele>56.000000</ele>
                <time>2018-10-21T03:55:37Z</time>
            </trkpt>
            <trkpt lon="101.192590" lat="14.329393">
                <ele>55.900000</ele>
                <time>2018-10-21T03:55:39Z</time>
            </trkpt>
            <trkpt lon="101.192611" lat="14.329421">
                <ele>55.900000</ele>
                <time>2018-10-21T03:55:41Z</time>
            </trkpt>
            <trkpt lon="101.192640" lat="14.329444">
                <ele>55.600000</ele>
                <time>2018-10-21T03:55:43Z</time>
            </trkpt>
            <trkpt lon="101.192669" lat="14.329476">
                <ele>55.400000</ele>
                <time>2018-10-21T03:55:45Z</time>
            </trkpt>
            <trkpt lon="101.192690" lat="14.329516">
                <ele>55.300000</ele>
                <time>2018-10-21T03:55:47Z</time>
            </trkpt>
            <trkpt lon="101.192708" lat="14.329549">
                <ele>55.200000</ele>
                <time>2018-10-21T03:55:49Z</time>
            </trkpt>
            <trkpt lon="101.192729" lat="14.329590">
                <ele>55.300000</ele>
                <time>2018-10-21T03:55:51Z</time>
            </trkpt>
            <trkpt lon="101.192747" lat="14.329633">
                <ele>55.200000</ele>
                <time>2018-10-21T03:55:53Z</time>
            </trkpt>
            <trkpt lon="101.192761" lat="14.329671">
                <ele>55.400000</ele>
                <time>2018-10-21T03:55:55Z</time>
            </trkpt>
            <trkpt lon="101.192785" lat="14.329701">
                <ele>55.400000</ele>
                <time>2018-10-21T03:55:57Z</time>
            </trkpt>
            <trkpt lon="101.192813" lat="14.329732">
                <ele>55.600000</ele>
                <time>2018-10-21T03:55:59Z</time>
            </trkpt>
            <trkpt lon="101.192839" lat="14.329757">
                <ele>55.800000</ele>
                <time>2018-10-21T03:56:01Z</time>
            </trkpt>
            <trkpt lon="101.192866" lat="14.329783">
                <ele>55.800000</ele>
                <time>2018-10-21T03:56:03Z</time>
            </trkpt>
            <trkpt lon="101.192877" lat="14.329820">
                <ele>56.000000</ele>
                <time>2018-10-21T03:56:05Z</time>
            </trkpt>
            <trkpt lon="101.192890" lat="14.329860">
                <ele>56.200000</ele>
                <time>2018-10-21T03:56:07Z</time>
            </trkpt>
            <trkpt lon="101.192900" lat="14.329905">
                <ele>56.200000</ele>
                <time>2018-10-21T03:56:09Z</time>
            </trkpt>
            <trkpt lon="101.192904" lat="14.329955">
                <ele>56.100000</ele>
                <time>2018-10-21T03:56:11Z</time>
            </trkpt>
            <trkpt lon="101.192923" lat="14.329998">
                <ele>56.500000</ele>
                <time>2018-10-21T03:56:13Z</time>
            </trkpt>
            <trkpt lon="101.192934" lat="14.330033">
                <ele>56.300000</ele>
                <time>2018-10-21T03:56:15Z</time>
            </trkpt>
            <trkpt lon="101.192942" lat="14.330081">
                <ele>56.100000</ele>
                <time>2018-10-21T03:56:17Z</time>
            </trkpt>
            <trkpt lon="101.192929" lat="14.330125">
                <ele>55.900000</ele>
                <time>2018-10-21T03:56:19Z</time>
            </trkpt>
            <trkpt lon="101.192897" lat="14.330158">
                <ele>55.300000</ele>
                <time>2018-10-21T03:56:21Z</time>
            </trkpt>
            <trkpt lon="101.192868" lat="14.330188">
                <ele>55.000000</ele>
                <time>2018-10-21T03:56:23Z</time>
            </trkpt>
            <trkpt lon="101.192849" lat="14.330215">
                <ele>55.000000</ele>
                <time>2018-10-21T03:56:25Z</time>
            </trkpt>
            <trkpt lon="101.192831" lat="14.330240">
                <ele>54.800000</ele>
                <time>2018-10-21T03:56:27Z</time>
            </trkpt>
            <trkpt lon="101.192838" lat="14.330276">
                <ele>55.000000</ele>
                <time>2018-10-21T03:56:32Z</time>
            </trkpt>
            <trkpt lon="101.192835" lat="14.330323">
                <ele>54.800000</ele>
                <time>2018-10-21T03:56:35Z</time>
            </trkpt>
            <trkpt lon="101.192827" lat="14.330366">
                <ele>54.900000</ele>
                <time>2018-10-21T03:56:37Z</time>
            </trkpt>
            <trkpt lon="101.192816" lat="14.330414">
                <ele>55.100000</ele>
                <time>2018-10-21T03:56:39Z</time>
            </trkpt>
            <trkpt lon="101.192810" lat="14.330449">
                <ele>55.200000</ele>
                <time>2018-10-21T03:56:41Z</time>
            </trkpt>
            <trkpt lon="101.192801" lat="14.330494">
                <ele>55.400000</ele>
                <time>2018-10-21T03:56:43Z</time>
            </trkpt>
            <trkpt lon="101.192809" lat="14.330530">
                <ele>55.500000</ele>
                <time>2018-10-21T03:56:45Z</time>
            </trkpt>
            <trkpt lon="101.192825" lat="14.330577">
                <ele>55.500000</ele>
                <time>2018-10-21T03:56:49Z</time>
            </trkpt>
            <trkpt lon="101.192819" lat="14.330629">
                <ele>55.500000</ele>
                <time>2018-10-21T03:56:51Z</time>
            </trkpt>
            <trkpt lon="101.192798" lat="14.330660">
                <ele>55.500000</ele>
                <time>2018-10-21T03:56:53Z</time>
            </trkpt>
            <trkpt lon="101.192766" lat="14.330698">
                <ele>55.500000</ele>
                <time>2018-10-21T03:56:55Z</time>
            </trkpt>
            <trkpt lon="101.192756" lat="14.330724">
                <ele>55.500000</ele>
                <time>2018-10-21T03:56:56Z</time>
            </trkpt>
            <trkpt lon="101.192742" lat="14.330773">
                <ele>55.300000</ele>
                <time>2018-10-21T03:56:58Z</time>
            </trkpt>
            <trkpt lon="101.192737" lat="14.330805">
                <ele>55.300000</ele>
                <time>2018-10-21T03:57:00Z</time>
            </trkpt>
            <trkpt lon="101.192759" lat="14.330827">
                <ele>55.500000</ele>
                <time>2018-10-21T03:57:03Z</time>
            </trkpt>
            <trkpt lon="101.192786" lat="14.330852">
                <ele>55.500000</ele>
                <time>2018-10-21T03:57:05Z</time>
            </trkpt>
            <trkpt lon="101.192804" lat="14.330889">
                <ele>55.500000</ele>
                <time>2018-10-21T03:57:07Z</time>
            </trkpt>
            <trkpt lon="101.192810" lat="14.330935">
                <ele>55.500000</ele>
                <time>2018-10-21T03:57:09Z</time>
            </trkpt>
            <trkpt lon="101.192827" lat="14.330974">
                <ele>55.500000</ele>
                <time>2018-10-21T03:57:11Z</time>
            </trkpt>
            <trkpt lon="101.192859" lat="14.331002">
                <ele>55.500000</ele>
                <time>2018-10-21T03:57:13Z</time>
            </trkpt>
            <trkpt lon="101.192885" lat="14.331018">
                <ele>55.500000</ele>
                <time>2018-10-21T03:57:15Z</time>
            </trkpt>
            <trkpt lon="101.192907" lat="14.331042">
                <ele>55.500000</ele>
                <time>2018-10-21T03:57:18Z</time>
            </trkpt>
            <trkpt lon="101.192935" lat="14.331061">
                <ele>55.400000</ele>
                <time>2018-10-21T03:57:20Z</time>
            </trkpt>
            <trkpt lon="101.192956" lat="14.331091">
                <ele>55.500000</ele>
                <time>2018-10-21T03:57:22Z</time>
            </trkpt>
            <trkpt lon="101.192979" lat="14.331130">
                <ele>55.500000</ele>
                <time>2018-10-21T03:57:24Z</time>
            </trkpt>
            <trkpt lon="101.193007" lat="14.331160">
                <ele>55.500000</ele>
                <time>2018-10-21T03:57:26Z</time>
            </trkpt>
            <trkpt lon="101.193036" lat="14.331186">
                <ele>55.600000</ele>
                <time>2018-10-21T03:57:28Z</time>
            </trkpt>
            <trkpt lon="101.193075" lat="14.331200">
                <ele>55.500000</ele>
                <time>2018-10-21T03:57:30Z</time>
            </trkpt>
            <trkpt lon="101.193117" lat="14.331212">
                <ele>55.500000</ele>
                <time>2018-10-21T03:57:32Z</time>
            </trkpt>
            <trkpt lon="101.193159" lat="14.331213">
                <ele>55.300000</ele>
                <time>2018-10-21T03:57:34Z</time>
            </trkpt>
            <trkpt lon="101.193192" lat="14.331212">
                <ele>55.200000</ele>
                <time>2018-10-21T03:57:36Z</time>
            </trkpt>
            <trkpt lon="101.193221" lat="14.331219">
                <ele>55.200000</ele>
                <time>2018-10-21T03:57:38Z</time>
            </trkpt>
            <trkpt lon="101.193249" lat="14.331221">
                <ele>55.000000</ele>
                <time>2018-10-21T03:57:40Z</time>
            </trkpt>
            <trkpt lon="101.193298" lat="14.331233">
                <ele>55.000000</ele>
                <time>2018-10-21T03:57:42Z</time>
            </trkpt>
            <trkpt lon="101.193321" lat="14.331249">
                <ele>55.200000</ele>
                <time>2018-10-21T03:57:43Z</time>
            </trkpt>
            <trkpt lon="101.193345" lat="14.331265">
                <ele>55.500000</ele>
                <time>2018-10-21T03:57:44Z</time>
            </trkpt>
            <trkpt lon="101.193396" lat="14.331285">
                <ele>56.000000</ele>
                <time>2018-10-21T03:57:46Z</time>
            </trkpt>
            <trkpt lon="101.193444" lat="14.331308">
                <ele>56.600000</ele>
                <time>2018-10-21T03:57:48Z</time>
            </trkpt>
            <trkpt lon="101.193495" lat="14.331329">
                <ele>57.100000</ele>
                <time>2018-10-21T03:57:50Z</time>
            </trkpt>
            <trkpt lon="101.193521" lat="14.331339">
                <ele>57.200000</ele>
                <time>2018-10-21T03:57:51Z</time>
            </trkpt>
            <trkpt lon="101.193548" lat="14.331349">
                <ele>57.700000</ele>
                <time>2018-10-21T03:57:52Z</time>
            </trkpt>
            <trkpt lon="101.193578" lat="14.331354">
                <ele>58.200000</ele>
                <time>2018-10-21T03:57:53Z</time>
            </trkpt>
            <trkpt lon="101.193609" lat="14.331356">
                <ele>58.200000</ele>
                <time>2018-10-21T03:57:54Z</time>
            </trkpt>
            <trkpt lon="101.193638" lat="14.331362">
                <ele>58.700000</ele>
                <time>2018-10-21T03:57:55Z</time>
            </trkpt>
            <trkpt lon="101.193667" lat="14.331370">
                <ele>59.100000</ele>
                <time>2018-10-21T03:57:56Z</time>
            </trkpt>
            <trkpt lon="101.193718" lat="14.331375">
                <ele>59.600000</ele>
                <time>2018-10-21T03:57:58Z</time>
            </trkpt>
            <trkpt lon="101.193745" lat="14.331380">
                <ele>59.800000</ele>
                <time>2018-10-21T03:57:59Z</time>
            </trkpt>
            <trkpt lon="101.193777" lat="14.331387">
                <ele>59.800000</ele>
                <time>2018-10-21T03:58:00Z</time>
            </trkpt>
            <trkpt lon="101.193804" lat="14.331396">
                <ele>60.200000</ele>
                <time>2018-10-21T03:58:01Z</time>
            </trkpt>
            <trkpt lon="101.193850" lat="14.331434">
                <ele>60.100000</ele>
                <time>2018-10-21T03:58:03Z</time>
            </trkpt>
            <trkpt lon="101.193874" lat="14.331456">
                <ele>60.300000</ele>
                <time>2018-10-21T03:58:04Z</time>
            </trkpt>
            <trkpt lon="101.193894" lat="14.331475">
                <ele>60.200000</ele>
                <time>2018-10-21T03:58:05Z</time>
            </trkpt>
            <trkpt lon="101.193921" lat="14.331491">
                <ele>60.400000</ele>
                <time>2018-10-21T03:58:06Z</time>
            </trkpt>
            <trkpt lon="101.193951" lat="14.331501">
                <ele>60.400000</ele>
                <time>2018-10-21T03:58:07Z</time>
            </trkpt>
            <trkpt lon="101.193982" lat="14.331509">
                <ele>60.400000</ele>
                <time>2018-10-21T03:58:08Z</time>
            </trkpt>
            <trkpt lon="101.194011" lat="14.331518">
                <ele>60.100000</ele>
                <time>2018-10-21T03:58:09Z</time>
            </trkpt>
            <trkpt lon="101.194065" lat="14.331544">
                <ele>59.900000</ele>
                <time>2018-10-21T03:58:11Z</time>
            </trkpt>
            <trkpt lon="101.194096" lat="14.331552">
                <ele>59.700000</ele>
                <time>2018-10-21T03:58:12Z</time>
            </trkpt>
            <trkpt lon="101.194133" lat="14.331559">
                <ele>59.500000</ele>
                <time>2018-10-21T03:58:13Z</time>
            </trkpt>
            <trkpt lon="101.194167" lat="14.331565">
                <ele>59.500000</ele>
                <time>2018-10-21T03:58:14Z</time>
            </trkpt>
            <trkpt lon="101.194198" lat="14.331569">
                <ele>59.300000</ele>
                <time>2018-10-21T03:58:15Z</time>
            </trkpt>
            <trkpt lon="101.194253" lat="14.331574">
                <ele>58.800000</ele>
                <time>2018-10-21T03:58:17Z</time>
            </trkpt>
            <trkpt lon="101.194285" lat="14.331578">
                <ele>58.800000</ele>
                <time>2018-10-21T03:58:18Z</time>
            </trkpt>
            <trkpt lon="101.194314" lat="14.331581">
                <ele>58.600000</ele>
                <time>2018-10-21T03:58:19Z</time>
            </trkpt>
            <trkpt lon="101.194343" lat="14.331583">
                <ele>58.600000</ele>
                <time>2018-10-21T03:58:20Z</time>
            </trkpt>
            <trkpt lon="101.194398" lat="14.331591">
                <ele>58.600000</ele>
                <time>2018-10-21T03:58:22Z</time>
            </trkpt>
            <trkpt lon="101.194430" lat="14.331594">
                <ele>58.600000</ele>
                <time>2018-10-21T03:58:23Z</time>
            </trkpt>
            <trkpt lon="101.194481" lat="14.331582">
                <ele>58.600000</ele>
                <time>2018-10-21T03:58:25Z</time>
            </trkpt>
            <trkpt lon="101.194520" lat="14.331571">
                <ele>58.800000</ele>
                <time>2018-10-21T03:58:27Z</time>
            </trkpt>
            <trkpt lon="101.194560" lat="14.331545">
                <ele>58.900000</ele>
                <time>2018-10-21T03:58:29Z</time>
            </trkpt>
            <trkpt lon="101.194597" lat="14.331516">
                <ele>59.300000</ele>
                <time>2018-10-21T03:58:31Z</time>
            </trkpt>
            <trkpt lon="101.194626" lat="14.331495">
                <ele>59.500000</ele>
                <time>2018-10-21T03:58:33Z</time>
            </trkpt>
            <trkpt lon="101.194655" lat="14.331468">
                <ele>59.700000</ele>
                <time>2018-10-21T03:58:35Z</time>
            </trkpt>
            <trkpt lon="101.194685" lat="14.331440">
                <ele>59.900000</ele>
                <time>2018-10-21T03:58:37Z</time>
            </trkpt>
            <trkpt lon="101.194722" lat="14.331420">
                <ele>59.900000</ele>
                <time>2018-10-21T03:58:39Z</time>
            </trkpt>
            <trkpt lon="101.194750" lat="14.331413">
                <ele>60.200000</ele>
                <time>2018-10-21T03:58:40Z</time>
            </trkpt>
            <trkpt lon="101.194779" lat="14.331412">
                <ele>60.200000</ele>
                <time>2018-10-21T03:58:41Z</time>
            </trkpt>
            <trkpt lon="101.194808" lat="14.331417">
                <ele>60.200000</ele>
                <time>2018-10-21T03:58:42Z</time>
            </trkpt>
            <trkpt lon="101.194852" lat="14.331417">
                <ele>60.100000</ele>
                <time>2018-10-21T03:58:44Z</time>
            </trkpt>
            <trkpt lon="101.194901" lat="14.331427">
                <ele>59.000000</ele>
                <time>2018-10-21T03:58:46Z</time>
            </trkpt>
            <trkpt lon="101.194950" lat="14.331449">
                <ele>58.600000</ele>
                <time>2018-10-21T03:58:48Z</time>
            </trkpt>
            <trkpt lon="101.194976" lat="14.331462">
                <ele>58.200000</ele>
                <time>2018-10-21T03:58:49Z</time>
            </trkpt>
            <trkpt lon="101.195001" lat="14.331476">
                <ele>57.800000</ele>
                <time>2018-10-21T03:58:50Z</time>
            </trkpt>
            <trkpt lon="101.195027" lat="14.331491">
                <ele>57.800000</ele>
                <time>2018-10-21T03:58:51Z</time>
            </trkpt>
            <trkpt lon="101.195064" lat="14.331516">
                <ele>57.600000</ele>
                <time>2018-10-21T03:58:53Z</time>
            </trkpt>
            <trkpt lon="101.195090" lat="14.331538">
                <ele>57.600000</ele>
                <time>2018-10-21T03:58:55Z</time>
            </trkpt>
            <trkpt lon="101.195118" lat="14.331555">
                <ele>57.600000</ele>
                <time>2018-10-21T03:58:58Z</time>
            </trkpt>
            <trkpt lon="101.195149" lat="14.331561">
                <ele>57.600000</ele>
                <time>2018-10-21T03:59:00Z</time>
            </trkpt>
            <trkpt lon="101.195182" lat="14.331579">
                <ele>57.600000</ele>
                <time>2018-10-21T03:59:02Z</time>
            </trkpt>
            <trkpt lon="101.195212" lat="14.331592">
                <ele>57.600000</ele>
                <time>2018-10-21T03:59:04Z</time>
            </trkpt>
            <trkpt lon="101.195256" lat="14.331586">
                <ele>57.600000</ele>
                <time>2018-10-21T03:59:06Z</time>
            </trkpt>
            <trkpt lon="101.195301" lat="14.331577">
                <ele>57.600000</ele>
                <time>2018-10-21T03:59:08Z</time>
            </trkpt>
            <trkpt lon="101.195349" lat="14.331564">
                <ele>57.700000</ele>
                <time>2018-10-21T03:59:10Z</time>
            </trkpt>
            <trkpt lon="101.195375" lat="14.331548">
                <ele>57.800000</ele>
                <time>2018-10-21T03:59:11Z</time>
            </trkpt>
            <trkpt lon="101.195418" lat="14.331532">
                <ele>57.800000</ele>
                <time>2018-10-21T03:59:13Z</time>
            </trkpt>
            <trkpt lon="101.195448" lat="14.331529">
                <ele>57.800000</ele>
                <time>2018-10-21T03:59:14Z</time>
            </trkpt>
            <trkpt lon="101.195504" lat="14.331516">
                <ele>58.000000</ele>
                <time>2018-10-21T03:59:16Z</time>
            </trkpt>
            <trkpt lon="101.195537" lat="14.331514">
                <ele>58.000000</ele>
                <time>2018-10-21T03:59:17Z</time>
            </trkpt>
            <trkpt lon="101.195573" lat="14.331514">
                <ele>58.300000</ele>
                <time>2018-10-21T03:59:18Z</time>
            </trkpt>
            <trkpt lon="101.195608" lat="14.331506">
                <ele>58.500000</ele>
                <time>2018-10-21T03:59:19Z</time>
            </trkpt>
            <trkpt lon="101.195646" lat="14.331495">
                <ele>58.700000</ele>
                <time>2018-10-21T03:59:20Z</time>
            </trkpt>
            <trkpt lon="101.195683" lat="14.331482">
                <ele>58.900000</ele>
                <time>2018-10-21T03:59:21Z</time>
            </trkpt>
            <trkpt lon="101.195718" lat="14.331473">
                <ele>59.200000</ele>
                <time>2018-10-21T03:59:22Z</time>
            </trkpt>
            <trkpt lon="101.195755" lat="14.331464">
                <ele>59.200000</ele>
                <time>2018-10-21T03:59:23Z</time>
            </trkpt>
            <trkpt lon="101.195788" lat="14.331454">
                <ele>59.500000</ele>
                <time>2018-10-21T03:59:24Z</time>
            </trkpt>
            <trkpt lon="101.195823" lat="14.331438">
                <ele>59.600000</ele>
                <time>2018-10-21T03:59:25Z</time>
            </trkpt>
            <trkpt lon="101.195864" lat="14.331431">
                <ele>59.500000</ele>
                <time>2018-10-21T03:59:26Z</time>
            </trkpt>
            <trkpt lon="101.195902" lat="14.331424">
                <ele>59.400000</ele>
                <time>2018-10-21T03:59:27Z</time>
            </trkpt>
            <trkpt lon="101.195931" lat="14.331417">
                <ele>59.400000</ele>
                <time>2018-10-21T03:59:28Z</time>
            </trkpt>
            <trkpt lon="101.195962" lat="14.331408">
                <ele>59.400000</ele>
                <time>2018-10-21T03:59:29Z</time>
            </trkpt>
            <trkpt lon="101.195994" lat="14.331404">
                <ele>59.300000</ele>
                <time>2018-10-21T03:59:30Z</time>
            </trkpt>
            <trkpt lon="101.196026" lat="14.331400">
                <ele>59.300000</ele>
                <time>2018-10-21T03:59:31Z</time>
            </trkpt>
            <trkpt lon="101.196059" lat="14.331397">
                <ele>59.300000</ele>
                <time>2018-10-21T03:59:32Z</time>
            </trkpt>
            <trkpt lon="101.196094" lat="14.331387">
                <ele>59.300000</ele>
                <time>2018-10-21T03:59:33Z</time>
            </trkpt>
            <trkpt lon="101.196132" lat="14.331376">
                <ele>59.500000</ele>
                <time>2018-10-21T03:59:34Z</time>
            </trkpt>
            <trkpt lon="101.196164" lat="14.331367">
                <ele>59.500000</ele>
                <time>2018-10-21T03:59:35Z</time>
            </trkpt>
            <trkpt lon="101.196216" lat="14.331357">
                <ele>59.800000</ele>
                <time>2018-10-21T03:59:37Z</time>
            </trkpt>
            <trkpt lon="101.196247" lat="14.331354">
                <ele>60.000000</ele>
                <time>2018-10-21T03:59:38Z</time>
            </trkpt>
            <trkpt lon="101.196277" lat="14.331352">
                <ele>60.300000</ele>
                <time>2018-10-21T03:59:39Z</time>
            </trkpt>
            <trkpt lon="101.196306" lat="14.331352">
                <ele>60.300000</ele>
                <time>2018-10-21T03:59:40Z</time>
            </trkpt>
            <trkpt lon="101.196333" lat="14.331344">
                <ele>60.600000</ele>
                <time>2018-10-21T03:59:42Z</time>
            </trkpt>
            <trkpt lon="101.196378" lat="14.331340">
                <ele>60.700000</ele>
                <time>2018-10-21T03:59:45Z</time>
            </trkpt>
            <trkpt lon="101.196425" lat="14.331337">
                <ele>60.800000</ele>
                <time>2018-10-21T03:59:47Z</time>
            </trkpt>
            <trkpt lon="101.196470" lat="14.331323">
                <ele>60.700000</ele>
                <time>2018-10-21T03:59:49Z</time>
            </trkpt>
            <trkpt lon="101.196508" lat="14.331288">
                <ele>60.700000</ele>
                <time>2018-10-21T03:59:51Z</time>
            </trkpt>
            <trkpt lon="101.196549" lat="14.331258">
                <ele>60.700000</ele>
                <time>2018-10-21T03:59:53Z</time>
            </trkpt>
            <trkpt lon="101.196573" lat="14.331244">
                <ele>60.700000</ele>
                <time>2018-10-21T03:59:54Z</time>
            </trkpt>
            <trkpt lon="101.196605" lat="14.331200">
                <ele>60.700000</ele>
                <time>2018-10-21T03:59:56Z</time>
            </trkpt>
            <trkpt lon="101.196626" lat="14.331177">
                <ele>60.700000</ele>
                <time>2018-10-21T03:59:57Z</time>
            </trkpt>
            <trkpt lon="101.196650" lat="14.331156">
                <ele>60.700000</ele>
                <time>2018-10-21T03:59:58Z</time>
            </trkpt>
            <trkpt lon="101.196676" lat="14.331137">
                <ele>60.700000</ele>
                <time>2018-10-21T03:59:59Z</time>
            </trkpt>
            <trkpt lon="101.196700" lat="14.331118">
                <ele>60.700000</ele>
                <time>2018-10-21T04:00:00Z</time>
            </trkpt>
            <trkpt lon="101.196720" lat="14.331096">
                <ele>60.700000</ele>
                <time>2018-10-21T04:00:01Z</time>
            </trkpt>
            <trkpt lon="101.196759" lat="14.331056">
                <ele>60.600000</ele>
                <time>2018-10-21T04:00:03Z</time>
            </trkpt>
            <trkpt lon="101.196779" lat="14.331036">
                <ele>60.600000</ele>
                <time>2018-10-21T04:00:04Z</time>
            </trkpt>
            <trkpt lon="101.196800" lat="14.331018">
                <ele>60.600000</ele>
                <time>2018-10-21T04:00:05Z</time>
            </trkpt>
            <trkpt lon="101.196847" lat="14.330982">
                <ele>60.600000</ele>
                <time>2018-10-21T04:00:07Z</time>
            </trkpt>
            <trkpt lon="101.196869" lat="14.330963">
                <ele>60.600000</ele>
                <time>2018-10-21T04:00:08Z</time>
            </trkpt>
            <trkpt lon="101.196891" lat="14.330944">
                <ele>60.600000</ele>
                <time>2018-10-21T04:00:09Z</time>
            </trkpt>
            <trkpt lon="101.196913" lat="14.330921">
                <ele>60.600000</ele>
                <time>2018-10-21T04:00:10Z</time>
            </trkpt>
            <trkpt lon="101.196936" lat="14.330895">
                <ele>60.600000</ele>
                <time>2018-10-21T04:00:11Z</time>
            </trkpt>
            <trkpt lon="101.196958" lat="14.330871">
                <ele>60.600000</ele>
                <time>2018-10-21T04:00:12Z</time>
            </trkpt>
            <trkpt lon="101.196977" lat="14.330849">
                <ele>60.600000</ele>
                <time>2018-10-21T04:00:13Z</time>
            </trkpt>
            <trkpt lon="101.196997" lat="14.330825">
                <ele>60.600000</ele>
                <time>2018-10-21T04:00:14Z</time>
            </trkpt>
            <trkpt lon="101.197020" lat="14.330797">
                <ele>60.600000</ele>
                <time>2018-10-21T04:00:15Z</time>
            </trkpt>
            <trkpt lon="101.197042" lat="14.330770">
                <ele>60.600000</ele>
                <time>2018-10-21T04:00:16Z</time>
            </trkpt>
            <trkpt lon="101.197066" lat="14.330745">
                <ele>60.600000</ele>
                <time>2018-10-21T04:00:17Z</time>
            </trkpt>
            <trkpt lon="101.197092" lat="14.330722">
                <ele>60.600000</ele>
                <time>2018-10-21T04:00:18Z</time>
            </trkpt>
            <trkpt lon="101.197117" lat="14.330696">
                <ele>60.600000</ele>
                <time>2018-10-21T04:00:19Z</time>
            </trkpt>
            <trkpt lon="101.197140" lat="14.330667">
                <ele>60.600000</ele>
                <time>2018-10-21T04:00:20Z</time>
            </trkpt>
            <trkpt lon="101.197160" lat="14.330642">
                <ele>60.600000</ele>
                <time>2018-10-21T04:00:21Z</time>
            </trkpt>
            <trkpt lon="101.197182" lat="14.330613">
                <ele>60.700000</ele>
                <time>2018-10-21T04:00:22Z</time>
            </trkpt>
            <trkpt lon="101.197205" lat="14.330584">
                <ele>60.700000</ele>
                <time>2018-10-21T04:00:23Z</time>
            </trkpt>
            <trkpt lon="101.197227" lat="14.330554">
                <ele>60.700000</ele>
                <time>2018-10-21T04:00:24Z</time>
            </trkpt>
            <trkpt lon="101.197252" lat="14.330527">
                <ele>60.800000</ele>
                <time>2018-10-21T04:00:25Z</time>
            </trkpt>
            <trkpt lon="101.197277" lat="14.330500">
                <ele>60.800000</ele>
                <time>2018-10-21T04:00:26Z</time>
            </trkpt>
            <trkpt lon="101.197304" lat="14.330476">
                <ele>60.800000</ele>
                <time>2018-10-21T04:00:27Z</time>
            </trkpt>
            <trkpt lon="101.197330" lat="14.330451">
                <ele>60.900000</ele>
                <time>2018-10-21T04:00:28Z</time>
            </trkpt>
            <trkpt lon="101.197353" lat="14.330426">
                <ele>60.900000</ele>
                <time>2018-10-21T04:00:29Z</time>
            </trkpt>
            <trkpt lon="101.197380" lat="14.330398">
                <ele>60.900000</ele>
                <time>2018-10-21T04:00:30Z</time>
            </trkpt>
            <trkpt lon="101.197404" lat="14.330373">
                <ele>61.000000</ele>
                <time>2018-10-21T04:00:31Z</time>
            </trkpt>
            <trkpt lon="101.197427" lat="14.330350">
                <ele>61.000000</ele>
                <time>2018-10-21T04:00:32Z</time>
            </trkpt>
            <trkpt lon="101.197447" lat="14.330329">
                <ele>61.000000</ele>
                <time>2018-10-21T04:00:33Z</time>
            </trkpt>
            <trkpt lon="101.197473" lat="14.330307">
                <ele>61.000000</ele>
                <time>2018-10-21T04:00:34Z</time>
            </trkpt>
            <trkpt lon="101.197497" lat="14.330285">
                <ele>61.100000</ele>
                <time>2018-10-21T04:00:35Z</time>
            </trkpt>
            <trkpt lon="101.197516" lat="14.330257">
                <ele>61.100000</ele>
                <time>2018-10-21T04:00:36Z</time>
            </trkpt>
            <trkpt lon="101.197536" lat="14.330231">
                <ele>61.100000</ele>
                <time>2018-10-21T04:00:37Z</time>
            </trkpt>
            <trkpt lon="101.197556" lat="14.330206">
                <ele>61.200000</ele>
                <time>2018-10-21T04:00:38Z</time>
            </trkpt>
            <trkpt lon="101.197575" lat="14.330182">
                <ele>61.200000</ele>
                <time>2018-10-21T04:00:39Z</time>
            </trkpt>
            <trkpt lon="101.197606" lat="14.330138">
                <ele>61.300000</ele>
                <time>2018-10-21T04:00:41Z</time>
            </trkpt>
            <trkpt lon="101.197623" lat="14.330116">
                <ele>61.300000</ele>
                <time>2018-10-21T04:00:42Z</time>
            </trkpt>
            <trkpt lon="101.197646" lat="14.330099">
                <ele>61.300000</ele>
                <time>2018-10-21T04:00:43Z</time>
            </trkpt>
            <trkpt lon="101.197671" lat="14.330081">
                <ele>61.300000</ele>
                <time>2018-10-21T04:00:44Z</time>
            </trkpt>
            <trkpt lon="101.197695" lat="14.330061">
                <ele>61.400000</ele>
                <time>2018-10-21T04:00:45Z</time>
            </trkpt>
            <trkpt lon="101.197722" lat="14.330036">
                <ele>61.500000</ele>
                <time>2018-10-21T04:00:46Z</time>
            </trkpt>
            <trkpt lon="101.197747" lat="14.330013">
                <ele>61.600000</ele>
                <time>2018-10-21T04:00:47Z</time>
            </trkpt>
            <trkpt lon="101.197770" lat="14.329991">
                <ele>61.700000</ele>
                <time>2018-10-21T04:00:48Z</time>
            </trkpt>
            <trkpt lon="101.197792" lat="14.329968">
                <ele>61.800000</ele>
                <time>2018-10-21T04:00:49Z</time>
            </trkpt>
            <trkpt lon="101.197816" lat="14.329943">
                <ele>62.000000</ele>
                <time>2018-10-21T04:00:50Z</time>
            </trkpt>
            <trkpt lon="101.197840" lat="14.329921">
                <ele>62.100000</ele>
                <time>2018-10-21T04:00:51Z</time>
            </trkpt>
            <trkpt lon="101.197862" lat="14.329900">
                <ele>62.200000</ele>
                <time>2018-10-21T04:00:52Z</time>
            </trkpt>
            <trkpt lon="101.197888" lat="14.329878">
                <ele>62.300000</ele>
                <time>2018-10-21T04:00:53Z</time>
            </trkpt>
            <trkpt lon="101.197905" lat="14.329851">
                <ele>62.400000</ele>
                <time>2018-10-21T04:00:54Z</time>
            </trkpt>
            <trkpt lon="101.197923" lat="14.329825">
                <ele>62.500000</ele>
                <time>2018-10-21T04:00:55Z</time>
            </trkpt>
            <trkpt lon="101.197944" lat="14.329800">
                <ele>62.500000</ele>
                <time>2018-10-21T04:00:56Z</time>
            </trkpt>
            <trkpt lon="101.197969" lat="14.329775">
                <ele>62.600000</ele>
                <time>2018-10-21T04:00:57Z</time>
            </trkpt>
            <trkpt lon="101.197994" lat="14.329753">
                <ele>62.700000</ele>
                <time>2018-10-21T04:00:58Z</time>
            </trkpt>
            <trkpt lon="101.198017" lat="14.329730">
                <ele>62.700000</ele>
                <time>2018-10-21T04:00:59Z</time>
            </trkpt>
            <trkpt lon="101.198039" lat="14.329707">
                <ele>62.800000</ele>
                <time>2018-10-21T04:01:00Z</time>
            </trkpt>
            <trkpt lon="101.198062" lat="14.329681">
                <ele>62.900000</ele>
                <time>2018-10-21T04:01:01Z</time>
            </trkpt>
            <trkpt lon="101.198085" lat="14.329652">
                <ele>63.000000</ele>
                <time>2018-10-21T04:01:02Z</time>
            </trkpt>
            <trkpt lon="101.198109" lat="14.329626">
                <ele>63.100000</ele>
                <time>2018-10-21T04:01:03Z</time>
            </trkpt>
            <trkpt lon="101.198131" lat="14.329604">
                <ele>63.200000</ele>
                <time>2018-10-21T04:01:04Z</time>
            </trkpt>
            <trkpt lon="101.198154" lat="14.329583">
                <ele>63.300000</ele>
                <time>2018-10-21T04:01:05Z</time>
            </trkpt>
            <trkpt lon="101.198179" lat="14.329559">
                <ele>63.500000</ele>
                <time>2018-10-21T04:01:06Z</time>
            </trkpt>
            <trkpt lon="101.198200" lat="14.329535">
                <ele>63.600000</ele>
                <time>2018-10-21T04:01:07Z</time>
            </trkpt>
            <trkpt lon="101.198219" lat="14.329509">
                <ele>63.700000</ele>
                <time>2018-10-21T04:01:08Z</time>
            </trkpt>
            <trkpt lon="101.198236" lat="14.329483">
                <ele>63.800000</ele>
                <time>2018-10-21T04:01:09Z</time>
            </trkpt>
            <trkpt lon="101.198256" lat="14.329457">
                <ele>63.900000</ele>
                <time>2018-10-21T04:01:10Z</time>
            </trkpt>
            <trkpt lon="101.198277" lat="14.329432">
                <ele>64.100000</ele>
                <time>2018-10-21T04:01:11Z</time>
            </trkpt>
            <trkpt lon="101.198299" lat="14.329409">
                <ele>64.100000</ele>
                <time>2018-10-21T04:01:12Z</time>
            </trkpt>
            <trkpt lon="101.198319" lat="14.329385">
                <ele>64.200000</ele>
                <time>2018-10-21T04:01:13Z</time>
            </trkpt>
            <trkpt lon="101.198344" lat="14.329360">
                <ele>64.300000</ele>
                <time>2018-10-21T04:01:14Z</time>
            </trkpt>
            <trkpt lon="101.198371" lat="14.329336">
                <ele>64.300000</ele>
                <time>2018-10-21T04:01:15Z</time>
            </trkpt>
            <trkpt lon="101.198392" lat="14.329314">
                <ele>64.400000</ele>
                <time>2018-10-21T04:01:16Z</time>
            </trkpt>
            <trkpt lon="101.198417" lat="14.329298">
                <ele>64.400000</ele>
                <time>2018-10-21T04:01:17Z</time>
            </trkpt>
            <trkpt lon="101.198440" lat="14.329277">
                <ele>64.400000</ele>
                <time>2018-10-21T04:01:18Z</time>
            </trkpt>
            <trkpt lon="101.198467" lat="14.329256">
                <ele>64.400000</ele>
                <time>2018-10-21T04:01:19Z</time>
            </trkpt>
            <trkpt lon="101.198488" lat="14.329235">
                <ele>64.500000</ele>
                <time>2018-10-21T04:01:20Z</time>
            </trkpt>
            <trkpt lon="101.198507" lat="14.329211">
                <ele>64.500000</ele>
                <time>2018-10-21T04:01:21Z</time>
            </trkpt>
            <trkpt lon="101.198526" lat="14.329187">
                <ele>64.600000</ele>
                <time>2018-10-21T04:01:22Z</time>
            </trkpt>
            <trkpt lon="101.198546" lat="14.329165">
                <ele>64.600000</ele>
                <time>2018-10-21T04:01:23Z</time>
            </trkpt>
            <trkpt lon="101.198563" lat="14.329143">
                <ele>65.300000</ele>
                <time>2018-10-21T04:01:24Z</time>
            </trkpt>
            <trkpt lon="101.198595" lat="14.329102">
                <ele>65.500000</ele>
                <time>2018-10-21T04:01:26Z</time>
            </trkpt>
            <trkpt lon="101.198643" lat="14.329082">
                <ele>65.700000</ele>
                <time>2018-10-21T04:01:28Z</time>
            </trkpt>
            <trkpt lon="101.198690" lat="14.329099">
                <ele>65.900000</ele>
                <time>2018-10-21T04:01:30Z</time>
            </trkpt>
            <trkpt lon="101.198712" lat="14.329119">
                <ele>66.000000</ele>
                <time>2018-10-21T04:01:31Z</time>
            </trkpt>
            <trkpt lon="101.198738" lat="14.329136">
                <ele>66.100000</ele>
                <time>2018-10-21T04:01:32Z</time>
            </trkpt>
            <trkpt lon="101.198764" lat="14.329152">
                <ele>66.200000</ele>
                <time>2018-10-21T04:01:33Z</time>
            </trkpt>
            <trkpt lon="101.198788" lat="14.329170">
                <ele>66.300000</ele>
                <time>2018-10-21T04:01:34Z</time>
            </trkpt>
            <trkpt lon="101.198818" lat="14.329187">
                <ele>66.400000</ele>
                <time>2018-10-21T04:01:35Z</time>
            </trkpt>
            <trkpt lon="101.198843" lat="14.329205">
                <ele>66.500000</ele>
                <time>2018-10-21T04:01:36Z</time>
            </trkpt>
            <trkpt lon="101.198869" lat="14.329224">
                <ele>66.600000</ele>
                <time>2018-10-21T04:01:37Z</time>
            </trkpt>
            <trkpt lon="101.198893" lat="14.329241">
                <ele>66.700000</ele>
                <time>2018-10-21T04:01:38Z</time>
            </trkpt>
            <trkpt lon="101.198914" lat="14.329263">
                <ele>66.700000</ele>
                <time>2018-10-21T04:01:39Z</time>
            </trkpt>
            <trkpt lon="101.198940" lat="14.329278">
                <ele>66.800000</ele>
                <time>2018-10-21T04:01:40Z</time>
            </trkpt>
            <trkpt lon="101.198965" lat="14.329294">
                <ele>66.900000</ele>
                <time>2018-10-21T04:01:41Z</time>
            </trkpt>
            <trkpt lon="101.199014" lat="14.329324">
                <ele>67.000000</ele>
                <time>2018-10-21T04:01:43Z</time>
            </trkpt>
            <trkpt lon="101.199043" lat="14.329337">
                <ele>67.100000</ele>
                <time>2018-10-21T04:01:44Z</time>
            </trkpt>
            <trkpt lon="101.199074" lat="14.329349">
                <ele>67.100000</ele>
                <time>2018-10-21T04:01:45Z</time>
            </trkpt>
            <trkpt lon="101.199126" lat="14.329376">
                <ele>67.300000</ele>
                <time>2018-10-21T04:01:47Z</time>
            </trkpt>
            <trkpt lon="101.199151" lat="14.329387">
                <ele>67.400000</ele>
                <time>2018-10-21T04:01:48Z</time>
            </trkpt>
            <trkpt lon="101.199179" lat="14.329397">
                <ele>67.500000</ele>
                <time>2018-10-21T04:01:49Z</time>
            </trkpt>
            <trkpt lon="101.199207" lat="14.329406">
                <ele>67.600000</ele>
                <time>2018-10-21T04:01:50Z</time>
            </trkpt>
            <trkpt lon="101.199235" lat="14.329415">
                <ele>67.700000</ele>
                <time>2018-10-21T04:01:51Z</time>
            </trkpt>
            <trkpt lon="101.199266" lat="14.329427">
                <ele>67.900000</ele>
                <time>2018-10-21T04:01:52Z</time>
            </trkpt>
            <trkpt lon="101.199294" lat="14.329440">
                <ele>68.000000</ele>
                <time>2018-10-21T04:01:53Z</time>
            </trkpt>
            <trkpt lon="101.199320" lat="14.329452">
                <ele>68.200000</ele>
                <time>2018-10-21T04:01:54Z</time>
            </trkpt>
            <trkpt lon="101.199347" lat="14.329457">
                <ele>68.300000</ele>
                <time>2018-10-21T04:01:55Z</time>
            </trkpt>
            <trkpt lon="101.199403" lat="14.329469">
                <ele>68.600000</ele>
                <time>2018-10-21T04:01:57Z</time>
            </trkpt>
            <trkpt lon="101.199450" lat="14.329476">
                <ele>68.800000</ele>
                <time>2018-10-21T04:01:59Z</time>
            </trkpt>
            <trkpt lon="101.199502" lat="14.329493">
                <ele>69.200000</ele>
                <time>2018-10-21T04:02:01Z</time>
            </trkpt>
            <trkpt lon="101.199556" lat="14.329497">
                <ele>69.500000</ele>
                <time>2018-10-21T04:02:03Z</time>
            </trkpt>
            <trkpt lon="101.199589" lat="14.329502">
                <ele>69.700000</ele>
                <time>2018-10-21T04:02:04Z</time>
            </trkpt>
            <trkpt lon="101.199618" lat="14.329507">
                <ele>69.900000</ele>
                <time>2018-10-21T04:02:05Z</time>
            </trkpt>
            <trkpt lon="101.199673" lat="14.329509">
                <ele>70.200000</ele>
                <time>2018-10-21T04:02:07Z</time>
            </trkpt>
            <trkpt lon="101.199703" lat="14.329512">
                <ele>70.300000</ele>
                <time>2018-10-21T04:02:08Z</time>
            </trkpt>
            <trkpt lon="101.199737" lat="14.329518">
                <ele>70.400000</ele>
                <time>2018-10-21T04:02:09Z</time>
            </trkpt>
            <trkpt lon="101.199768" lat="14.329524">
                <ele>70.600000</ele>
                <time>2018-10-21T04:02:10Z</time>
            </trkpt>
            <trkpt lon="101.199819" lat="14.329524">
                <ele>70.700000</ele>
                <time>2018-10-21T04:02:12Z</time>
            </trkpt>
            <trkpt lon="101.199848" lat="14.329526">
                <ele>70.800000</ele>
                <time>2018-10-21T04:02:13Z</time>
            </trkpt>
            <trkpt lon="101.199906" lat="14.329527">
                <ele>70.900000</ele>
                <time>2018-10-21T04:02:15Z</time>
            </trkpt>
            <trkpt lon="101.199939" lat="14.329533">
                <ele>71.000000</ele>
                <time>2018-10-21T04:02:16Z</time>
            </trkpt>
            <trkpt lon="101.199978" lat="14.329543">
                <ele>71.200000</ele>
                <time>2018-10-21T04:02:17Z</time>
            </trkpt>
            <trkpt lon="101.200020" lat="14.329551">
                <ele>71.300000</ele>
                <time>2018-10-21T04:02:18Z</time>
            </trkpt>
            <trkpt lon="101.200061" lat="14.329558">
                <ele>71.400000</ele>
                <time>2018-10-21T04:02:19Z</time>
            </trkpt>
            <trkpt lon="101.200100" lat="14.329566">
                <ele>71.500000</ele>
                <time>2018-10-21T04:02:20Z</time>
            </trkpt>
            <trkpt lon="101.200127" lat="14.329575">
                <ele>71.600000</ele>
                <time>2018-10-21T04:02:21Z</time>
            </trkpt>
            <trkpt lon="101.200178" lat="14.329592">
                <ele>71.700000</ele>
                <time>2018-10-21T04:02:23Z</time>
            </trkpt>
            <trkpt lon="101.200212" lat="14.329596">
                <ele>71.800000</ele>
                <time>2018-10-21T04:02:24Z</time>
            </trkpt>
            <trkpt lon="101.200248" lat="14.329605">
                <ele>71.900000</ele>
                <time>2018-10-21T04:02:25Z</time>
            </trkpt>
            <trkpt lon="101.200279" lat="14.329618">
                <ele>72.000000</ele>
                <time>2018-10-21T04:02:26Z</time>
            </trkpt>
            <trkpt lon="101.200313" lat="14.329623">
                <ele>72.100000</ele>
                <time>2018-10-21T04:02:27Z</time>
            </trkpt>
            <trkpt lon="101.200350" lat="14.329634">
                <ele>72.200000</ele>
                <time>2018-10-21T04:02:28Z</time>
            </trkpt>
            <trkpt lon="101.200380" lat="14.329645">
                <ele>72.300000</ele>
                <time>2018-10-21T04:02:29Z</time>
            </trkpt>
            <trkpt lon="101.200409" lat="14.329655">
                <ele>72.400000</ele>
                <time>2018-10-21T04:02:30Z</time>
            </trkpt>
            <trkpt lon="101.200436" lat="14.329667">
                <ele>72.500000</ele>
                <time>2018-10-21T04:02:31Z</time>
            </trkpt>
            <trkpt lon="101.200465" lat="14.329676">
                <ele>72.700000</ele>
                <time>2018-10-21T04:02:32Z</time>
            </trkpt>
            <trkpt lon="101.200498" lat="14.329684">
                <ele>72.800000</ele>
                <time>2018-10-21T04:02:33Z</time>
            </trkpt>
            <trkpt lon="101.200537" lat="14.329693">
                <ele>73.000000</ele>
                <time>2018-10-21T04:02:34Z</time>
            </trkpt>
            <trkpt lon="101.200575" lat="14.329704">
                <ele>73.100000</ele>
                <time>2018-10-21T04:02:35Z</time>
            </trkpt>
            <trkpt lon="101.200614" lat="14.329715">
                <ele>73.300000</ele>
                <time>2018-10-21T04:02:36Z</time>
            </trkpt>
            <trkpt lon="101.200651" lat="14.329724">
                <ele>73.400000</ele>
                <time>2018-10-21T04:02:37Z</time>
            </trkpt>
            <trkpt lon="101.200685" lat="14.329736">
                <ele>73.600000</ele>
                <time>2018-10-21T04:02:38Z</time>
            </trkpt>
            <trkpt lon="101.200740" lat="14.329753">
                <ele>73.700000</ele>
                <time>2018-10-21T04:02:40Z</time>
            </trkpt>
            <trkpt lon="101.200770" lat="14.329761">
                <ele>73.800000</ele>
                <time>2018-10-21T04:02:41Z</time>
            </trkpt>
            <trkpt lon="101.200806" lat="14.329769">
                <ele>73.900000</ele>
                <time>2018-10-21T04:02:42Z</time>
            </trkpt>
            <trkpt lon="101.200839" lat="14.329777">
                <ele>73.900000</ele>
                <time>2018-10-21T04:02:43Z</time>
            </trkpt>
            <trkpt lon="101.200877" lat="14.329786">
                <ele>73.900000</ele>
                <time>2018-10-21T04:02:44Z</time>
            </trkpt>
            <trkpt lon="101.200913" lat="14.329797">
                <ele>73.900000</ele>
                <time>2018-10-21T04:02:45Z</time>
            </trkpt>
            <trkpt lon="101.200950" lat="14.329803">
                <ele>73.900000</ele>
                <time>2018-10-21T04:02:46Z</time>
            </trkpt>
            <trkpt lon="101.200986" lat="14.329805">
                <ele>73.800000</ele>
                <time>2018-10-21T04:02:47Z</time>
            </trkpt>
            <trkpt lon="101.201027" lat="14.329811">
                <ele>73.800000</ele>
                <time>2018-10-21T04:02:48Z</time>
            </trkpt>
            <trkpt lon="101.201056" lat="14.329824">
                <ele>73.700000</ele>
                <time>2018-10-21T04:02:49Z</time>
            </trkpt>
            <trkpt lon="101.201091" lat="14.329835">
                <ele>73.700000</ele>
                <time>2018-10-21T04:02:50Z</time>
            </trkpt>
            <trkpt lon="101.201122" lat="14.329849">
                <ele>73.600000</ele>
                <time>2018-10-21T04:02:51Z</time>
            </trkpt>
            <trkpt lon="101.201151" lat="14.329861">
                <ele>73.500000</ele>
                <time>2018-10-21T04:02:52Z</time>
            </trkpt>
            <trkpt lon="101.201184" lat="14.329875">
                <ele>73.500000</ele>
                <time>2018-10-21T04:02:53Z</time>
            </trkpt>
            <trkpt lon="101.201223" lat="14.329884">
                <ele>73.300000</ele>
                <time>2018-10-21T04:02:54Z</time>
            </trkpt>
            <trkpt lon="101.201259" lat="14.329890">
                <ele>73.200000</ele>
                <time>2018-10-21T04:02:55Z</time>
            </trkpt>
            <trkpt lon="101.201300" lat="14.329898">
                <ele>73.100000</ele>
                <time>2018-10-21T04:02:56Z</time>
            </trkpt>
            <trkpt lon="101.201333" lat="14.329916">
                <ele>72.900000</ele>
                <time>2018-10-21T04:02:57Z</time>
            </trkpt>
            <trkpt lon="101.201375" lat="14.329928">
                <ele>72.800000</ele>
                <time>2018-10-21T04:02:58Z</time>
            </trkpt>
            <trkpt lon="101.201414" lat="14.329934">
                <ele>72.600000</ele>
                <time>2018-10-21T04:02:59Z</time>
            </trkpt>
            <trkpt lon="101.201451" lat="14.329939">
                <ele>72.400000</ele>
                <time>2018-10-21T04:03:00Z</time>
            </trkpt>
            <trkpt lon="101.201491" lat="14.329947">
                <ele>72.200000</ele>
                <time>2018-10-21T04:03:01Z</time>
            </trkpt>
            <trkpt lon="101.201528" lat="14.329955">
                <ele>72.000000</ele>
                <time>2018-10-21T04:03:02Z</time>
            </trkpt>
            <trkpt lon="101.201567" lat="14.329959">
                <ele>71.800000</ele>
                <time>2018-10-21T04:03:03Z</time>
            </trkpt>
            <trkpt lon="101.201606" lat="14.329962">
                <ele>71.600000</ele>
                <time>2018-10-21T04:03:04Z</time>
            </trkpt>
            <trkpt lon="101.201638" lat="14.329963">
                <ele>72.100000</ele>
                <time>2018-10-21T04:03:05Z</time>
            </trkpt>
            <trkpt lon="101.201672" lat="14.329965">
                <ele>72.500000</ele>
                <time>2018-10-21T04:03:06Z</time>
            </trkpt>
            <trkpt lon="101.201706" lat="14.329969">
                <ele>72.900000</ele>
                <time>2018-10-21T04:03:07Z</time>
            </trkpt>
            <trkpt lon="101.201742" lat="14.329969">
                <ele>73.300000</ele>
                <time>2018-10-21T04:03:08Z</time>
            </trkpt>
            <trkpt lon="101.201781" lat="14.329968">
                <ele>73.700000</ele>
                <time>2018-10-21T04:03:09Z</time>
            </trkpt>
            <trkpt lon="101.201817" lat="14.329969">
                <ele>74.000000</ele>
                <time>2018-10-21T04:03:10Z</time>
            </trkpt>
            <trkpt lon="101.201853" lat="14.329970">
                <ele>74.400000</ele>
                <time>2018-10-21T04:03:11Z</time>
            </trkpt>
            <trkpt lon="101.201890" lat="14.329969">
                <ele>74.700000</ele>
                <time>2018-10-21T04:03:12Z</time>
            </trkpt>
            <trkpt lon="101.201925" lat="14.329970">
                <ele>75.100000</ele>
                <time>2018-10-21T04:03:13Z</time>
            </trkpt>
            <trkpt lon="101.201956" lat="14.329971">
                <ele>75.500000</ele>
                <time>2018-10-21T04:03:14Z</time>
            </trkpt>
            <trkpt lon="101.201993" lat="14.329974">
                <ele>75.900000</ele>
                <time>2018-10-21T04:03:15Z</time>
            </trkpt>
            <trkpt lon="101.202022" lat="14.329970">
                <ele>76.200000</ele>
                <time>2018-10-21T04:03:16Z</time>
            </trkpt>
            <trkpt lon="101.202068" lat="14.329961">
                <ele>76.700000</ele>
                <time>2018-10-21T04:03:18Z</time>
            </trkpt>
            <trkpt lon="101.202099" lat="14.329956">
                <ele>77.000000</ele>
                <time>2018-10-21T04:03:20Z</time>
            </trkpt>
            <trkpt lon="101.202132" lat="14.329963">
                <ele>77.300000</ele>
                <time>2018-10-21T04:03:22Z</time>
            </trkpt>
            <trkpt lon="101.202169" lat="14.329969">
                <ele>77.800000</ele>
                <time>2018-10-21T04:03:24Z</time>
            </trkpt>
            <trkpt lon="101.202207" lat="14.329963">
                <ele>78.200000</ele>
                <time>2018-10-21T04:03:26Z</time>
            </trkpt>
            <trkpt lon="101.202245" lat="14.329966">
                <ele>78.600000</ele>
                <time>2018-10-21T04:03:29Z</time>
            </trkpt>
            <trkpt lon="101.202273" lat="14.329969">
                <ele>78.900000</ele>
                <time>2018-10-21T04:03:31Z</time>
            </trkpt>
            <trkpt lon="101.202304" lat="14.329976">
                <ele>79.200000</ele>
                <time>2018-10-21T04:03:34Z</time>
            </trkpt>
            <trkpt lon="101.202338" lat="14.329969">
                <ele>79.600000</ele>
                <time>2018-10-21T04:03:37Z</time>
            </trkpt>
            <trkpt lon="101.202373" lat="14.329958">
                <ele>80.000000</ele>
                <time>2018-10-21T04:03:40Z</time>
            </trkpt>
            <trkpt lon="101.202406" lat="14.329946">
                <ele>80.400000</ele>
                <time>2018-10-21T04:03:43Z</time>
            </trkpt>
            <trkpt lon="101.202444" lat="14.329959">
                <ele>80.800000</ele>
                <time>2018-10-21T04:03:48Z</time>
            </trkpt>
            <trkpt lon="101.202470" lat="14.329970">
                <ele>81.100000</ele>
                <time>2018-10-21T04:03:50Z</time>
            </trkpt>
            <trkpt lon="101.202500" lat="14.329982">
                <ele>81.500000</ele>
                <time>2018-10-21T04:03:53Z</time>
            </trkpt>
            <trkpt lon="101.202543" lat="14.329991">
                <ele>81.900000</ele>
                <time>2018-10-21T04:04:01Z</time>
            </trkpt>
            <trkpt lon="101.202576" lat="14.329997">
                <ele>82.200000</ele>
                <time>2018-10-21T04:04:03Z</time>
            </trkpt>
            <trkpt lon="101.202625" lat="14.330051">
                <ele>83.100000</ele>
                <time>2018-10-21T04:04:07Z</time>
            </trkpt>
            <trkpt lon="101.202663" lat="14.330057">
                <ele>83.500000</ele>
                <time>2018-10-21T04:04:10Z</time>
            </trkpt>
            <trkpt lon="101.202700" lat="14.330067">
                <ele>83.900000</ele>
                <time>2018-10-21T04:04:12Z</time>
            </trkpt>
            <trkpt lon="101.202730" lat="14.330090">
                <ele>84.400000</ele>
                <time>2018-10-21T04:04:14Z</time>
            </trkpt>
            <trkpt lon="101.202765" lat="14.330124">
                <ele>84.900000</ele>
                <time>2018-10-21T04:04:18Z</time>
            </trkpt>
            <trkpt lon="101.202790" lat="14.330139">
                <ele>85.200000</ele>
                <time>2018-10-21T04:04:22Z</time>
            </trkpt>
            <trkpt lon="101.202811" lat="14.330169">
                <ele>85.600000</ele>
                <time>2018-10-21T04:04:24Z</time>
            </trkpt>
            <trkpt lon="101.202837" lat="14.330199">
                <ele>86.000000</ele>
                <time>2018-10-21T04:04:27Z</time>
            </trkpt>
            <trkpt lon="101.202862" lat="14.330213">
                <ele>86.300000</ele>
                <time>2018-10-21T04:04:31Z</time>
            </trkpt>
            <trkpt lon="101.202889" lat="14.330225">
                <ele>86.600000</ele>
                <time>2018-10-21T04:04:32Z</time>
            </trkpt>
            <trkpt lon="101.202917" lat="14.330248">
                <ele>87.000000</ele>
                <time>2018-10-21T04:04:34Z</time>
            </trkpt>
            <trkpt lon="101.202937" lat="14.330268">
                <ele>87.300000</ele>
                <time>2018-10-21T04:04:38Z</time>
            </trkpt>
            <trkpt lon="101.202971" lat="14.330296">
                <ele>87.800000</ele>
                <time>2018-10-21T04:04:44Z</time>
            </trkpt>
            <trkpt lon="101.203005" lat="14.330320">
                <ele>88.200000</ele>
                <time>2018-10-21T04:04:47Z</time>
            </trkpt>
            <trkpt lon="101.203044" lat="14.330335">
                <ele>88.700000</ele>
                <time>2018-10-21T04:04:52Z</time>
            </trkpt>
            <trkpt lon="101.203079" lat="14.330364">
                <ele>89.200000</ele>
                <time>2018-10-21T04:04:54Z</time>
            </trkpt>
            <trkpt lon="101.203108" lat="14.330387">
                <ele>89.600000</ele>
                <time>2018-10-21T04:04:56Z</time>
            </trkpt>
            <trkpt lon="101.203138" lat="14.330404">
                <ele>90.000000</ele>
                <time>2018-10-21T04:05:01Z</time>
            </trkpt>
            <trkpt lon="101.203163" lat="14.330428">
                <ele>90.300000</ele>
                <time>2018-10-21T04:05:03Z</time>
            </trkpt>
            <trkpt lon="101.203182" lat="14.330457">
                <ele>90.700000</ele>
                <time>2018-10-21T04:05:05Z</time>
            </trkpt>
            <trkpt lon="101.203198" lat="14.330485">
                <ele>91.100000</ele>
                <time>2018-10-21T04:05:07Z</time>
            </trkpt>
            <trkpt lon="101.203226" lat="14.330504">
                <ele>91.400000</ele>
                <time>2018-10-21T04:05:13Z</time>
            </trkpt>
            <trkpt lon="101.203254" lat="14.330532">
                <ele>91.800000</ele>
                <time>2018-10-21T04:05:15Z</time>
            </trkpt>
            <trkpt lon="101.203259" lat="14.330564">
                <ele>92.100000</ele>
                <time>2018-10-21T04:05:17Z</time>
            </trkpt>
            <trkpt lon="101.203269" lat="14.330591">
                <ele>92.500000</ele>
                <time>2018-10-21T04:05:22Z</time>
            </trkpt>
            <trkpt lon="101.203300" lat="14.330612">
                <ele>92.900000</ele>
                <time>2018-10-21T04:05:26Z</time>
            </trkpt>
            <trkpt lon="101.203312" lat="14.330647">
                <ele>93.300000</ele>
                <time>2018-10-21T04:05:29Z</time>
            </trkpt>
            <trkpt lon="101.203326" lat="14.330679">
                <ele>93.700000</ele>
                <time>2018-10-21T04:05:32Z</time>
            </trkpt>
            <trkpt lon="101.203354" lat="14.330692">
                <ele>94.000000</ele>
                <time>2018-10-21T04:05:36Z</time>
            </trkpt>
            <trkpt lon="101.203383" lat="14.330697">
                <ele>94.400000</ele>
                <time>2018-10-21T04:05:39Z</time>
            </trkpt>
            <trkpt lon="101.203417" lat="14.330718">
                <ele>94.800000</ele>
                <time>2018-10-21T04:05:42Z</time>
            </trkpt>
            <trkpt lon="101.203436" lat="14.330743">
                <ele>95.100000</ele>
                <time>2018-10-21T04:05:45Z</time>
            </trkpt>
            <trkpt lon="101.203465" lat="14.330755">
                <ele>95.500000</ele>
                <time>2018-10-21T04:05:51Z</time>
            </trkpt>
            <trkpt lon="101.203503" lat="14.330772">
                <ele>95.900000</ele>
                <time>2018-10-21T04:05:54Z</time>
            </trkpt>
            <trkpt lon="101.203528" lat="14.330790">
                <ele>96.100000</ele>
                <time>2018-10-21T04:05:57Z</time>
            </trkpt>
            <trkpt lon="101.203545" lat="14.330823">
                <ele>95.800000</ele>
                <time>2018-10-21T04:05:59Z</time>
            </trkpt>
            <trkpt lon="101.203551" lat="14.330862">
                <ele>95.400000</ele>
                <time>2018-10-21T04:06:01Z</time>
            </trkpt>
            <trkpt lon="101.203551" lat="14.330914">
                <ele>94.900000</ele>
                <time>2018-10-21T04:06:03Z</time>
            </trkpt>
            <trkpt lon="101.203551" lat="14.330947">
                <ele>94.600000</ele>
                <time>2018-10-21T04:06:04Z</time>
            </trkpt>
            <trkpt lon="101.203545" lat="14.330978">
                <ele>94.400000</ele>
                <time>2018-10-21T04:06:05Z</time>
            </trkpt>
            <trkpt lon="101.203536" lat="14.331007">
                <ele>94.100000</ele>
                <time>2018-10-21T04:06:06Z</time>
            </trkpt>
            <trkpt lon="101.203533" lat="14.331037">
                <ele>93.800000</ele>
                <time>2018-10-21T04:06:07Z</time>
            </trkpt>
            <trkpt lon="101.203532" lat="14.331074">
                <ele>93.500000</ele>
                <time>2018-10-21T04:06:09Z</time>
            </trkpt>
            <trkpt lon="101.203539" lat="14.331123">
                <ele>92.700000</ele>
                <time>2018-10-21T04:06:11Z</time>
            </trkpt>
            <trkpt lon="101.203539" lat="14.331172">
                <ele>92.700000</ele>
                <time>2018-10-21T04:06:13Z</time>
            </trkpt>
            <trkpt lon="101.203516" lat="14.331221">
                <ele>92.800000</ele>
                <time>2018-10-21T04:06:15Z</time>
            </trkpt>
            <trkpt lon="101.203502" lat="14.331248">
                <ele>92.800000</ele>
                <time>2018-10-21T04:06:16Z</time>
            </trkpt>
            <trkpt lon="101.203477" lat="14.331273">
                <ele>92.800000</ele>
                <time>2018-10-21T04:06:17Z</time>
            </trkpt>
            <trkpt lon="101.203450" lat="14.331307">
                <ele>92.900000</ele>
                <time>2018-10-21T04:06:18Z</time>
            </trkpt>
            <trkpt lon="101.203430" lat="14.331335">
                <ele>92.900000</ele>
                <time>2018-10-21T04:06:19Z</time>
            </trkpt>
            <trkpt lon="101.203412" lat="14.331367">
                <ele>92.900000</ele>
                <time>2018-10-21T04:06:20Z</time>
            </trkpt>
            <trkpt lon="101.203396" lat="14.331396">
                <ele>92.900000</ele>
                <time>2018-10-21T04:06:21Z</time>
            </trkpt>
            <trkpt lon="101.203382" lat="14.331428">
                <ele>93.000000</ele>
                <time>2018-10-21T04:06:22Z</time>
            </trkpt>
            <trkpt lon="101.203374" lat="14.331457">
                <ele>93.000000</ele>
                <time>2018-10-21T04:06:23Z</time>
            </trkpt>
            <trkpt lon="101.203365" lat="14.331489">
                <ele>93.000000</ele>
                <time>2018-10-21T04:06:24Z</time>
            </trkpt>
            <trkpt lon="101.203364" lat="14.331522">
                <ele>93.000000</ele>
                <time>2018-10-21T04:06:25Z</time>
            </trkpt>
            <trkpt lon="101.203360" lat="14.331556">
                <ele>93.000000</ele>
                <time>2018-10-21T04:06:26Z</time>
            </trkpt>
            <trkpt lon="101.203353" lat="14.331590">
                <ele>93.000000</ele>
                <time>2018-10-21T04:06:27Z</time>
            </trkpt>
            <trkpt lon="101.203343" lat="14.331626">
                <ele>93.000000</ele>
                <time>2018-10-21T04:06:28Z</time>
            </trkpt>
            <trkpt lon="101.203333" lat="14.331660">
                <ele>93.000000</ele>
                <time>2018-10-21T04:06:29Z</time>
            </trkpt>
            <trkpt lon="101.203327" lat="14.331694">
                <ele>93.000000</ele>
                <time>2018-10-21T04:06:30Z</time>
            </trkpt>
            <trkpt lon="101.203319" lat="14.331730">
                <ele>93.000000</ele>
                <time>2018-10-21T04:06:31Z</time>
            </trkpt>
            <trkpt lon="101.203313" lat="14.331763">
                <ele>93.000000</ele>
                <time>2018-10-21T04:06:32Z</time>
            </trkpt>
            <trkpt lon="101.203301" lat="14.331798">
                <ele>93.000000</ele>
                <time>2018-10-21T04:06:33Z</time>
            </trkpt>
            <trkpt lon="101.203288" lat="14.331834">
                <ele>93.000000</ele>
                <time>2018-10-21T04:06:34Z</time>
            </trkpt>
            <trkpt lon="101.203278" lat="14.331868">
                <ele>93.000000</ele>
                <time>2018-10-21T04:06:35Z</time>
            </trkpt>
            <trkpt lon="101.203270" lat="14.331903">
                <ele>93.000000</ele>
                <time>2018-10-21T04:06:36Z</time>
            </trkpt>
            <trkpt lon="101.203265" lat="14.331935">
                <ele>93.000000</ele>
                <time>2018-10-21T04:06:37Z</time>
            </trkpt>
            <trkpt lon="101.203259" lat="14.331970">
                <ele>93.000000</ele>
                <time>2018-10-21T04:06:38Z</time>
            </trkpt>
            <trkpt lon="101.203250" lat="14.332003">
                <ele>93.000000</ele>
                <time>2018-10-21T04:06:39Z</time>
            </trkpt>
            <trkpt lon="101.203240" lat="14.332038">
                <ele>93.000000</ele>
                <time>2018-10-21T04:06:40Z</time>
            </trkpt>
            <trkpt lon="101.203227" lat="14.332071">
                <ele>93.000000</ele>
                <time>2018-10-21T04:06:41Z</time>
            </trkpt>
            <trkpt lon="101.203220" lat="14.332108">
                <ele>93.000000</ele>
                <time>2018-10-21T04:06:42Z</time>
            </trkpt>
            <trkpt lon="101.203211" lat="14.332142">
                <ele>93.000000</ele>
                <time>2018-10-21T04:06:43Z</time>
            </trkpt>
            <trkpt lon="101.203205" lat="14.332178">
                <ele>93.000000</ele>
                <time>2018-10-21T04:06:44Z</time>
            </trkpt>
            <trkpt lon="101.203190" lat="14.332213">
                <ele>93.000000</ele>
                <time>2018-10-21T04:06:45Z</time>
            </trkpt>
            <trkpt lon="101.203181" lat="14.332248">
                <ele>93.000000</ele>
                <time>2018-10-21T04:06:46Z</time>
            </trkpt>
            <trkpt lon="101.203174" lat="14.332283">
                <ele>93.000000</ele>
                <time>2018-10-21T04:06:47Z</time>
            </trkpt>
            <trkpt lon="101.203166" lat="14.332322">
                <ele>93.000000</ele>
                <time>2018-10-21T04:06:48Z</time>
            </trkpt>
            <trkpt lon="101.203163" lat="14.332363">
                <ele>92.900000</ele>
                <time>2018-10-21T04:06:49Z</time>
            </trkpt>
            <trkpt lon="101.203151" lat="14.332404">
                <ele>92.900000</ele>
                <time>2018-10-21T04:06:50Z</time>
            </trkpt>
            <trkpt lon="101.203145" lat="14.332446">
                <ele>92.900000</ele>
                <time>2018-10-21T04:06:51Z</time>
            </trkpt>
            <trkpt lon="101.203135" lat="14.332485">
                <ele>92.900000</ele>
                <time>2018-10-21T04:06:52Z</time>
            </trkpt>
            <trkpt lon="101.203125" lat="14.332524">
                <ele>92.900000</ele>
                <time>2018-10-21T04:06:53Z</time>
            </trkpt>
            <trkpt lon="101.203118" lat="14.332562">
                <ele>92.900000</ele>
                <time>2018-10-21T04:06:54Z</time>
            </trkpt>
            <trkpt lon="101.203109" lat="14.332600">
                <ele>92.900000</ele>
                <time>2018-10-21T04:06:55Z</time>
            </trkpt>
            <trkpt lon="101.203097" lat="14.332637">
                <ele>92.800000</ele>
                <time>2018-10-21T04:06:56Z</time>
            </trkpt>
            <trkpt lon="101.203088" lat="14.332672">
                <ele>92.800000</ele>
                <time>2018-10-21T04:06:57Z</time>
            </trkpt>
            <trkpt lon="101.203082" lat="14.332708">
                <ele>92.800000</ele>
                <time>2018-10-21T04:06:58Z</time>
            </trkpt>
            <trkpt lon="101.203074" lat="14.332743">
                <ele>92.800000</ele>
                <time>2018-10-21T04:06:59Z</time>
            </trkpt>
            <trkpt lon="101.203065" lat="14.332780">
                <ele>92.800000</ele>
                <time>2018-10-21T04:07:00Z</time>
            </trkpt>
            <trkpt lon="101.203050" lat="14.332818">
                <ele>92.800000</ele>
                <time>2018-10-21T04:07:01Z</time>
            </trkpt>
            <trkpt lon="101.203040" lat="14.332854">
                <ele>92.800000</ele>
                <time>2018-10-21T04:07:02Z</time>
            </trkpt>
            <trkpt lon="101.203032" lat="14.332888">
                <ele>92.700000</ele>
                <time>2018-10-21T04:07:03Z</time>
            </trkpt>
            <trkpt lon="101.203022" lat="14.332926">
                <ele>92.700000</ele>
                <time>2018-10-21T04:07:04Z</time>
            </trkpt>
            <trkpt lon="101.203011" lat="14.332965">
                <ele>92.700000</ele>
                <time>2018-10-21T04:07:05Z</time>
            </trkpt>
            <trkpt lon="101.202994" lat="14.333005">
                <ele>92.700000</ele>
                <time>2018-10-21T04:07:06Z</time>
            </trkpt>
            <trkpt lon="101.202975" lat="14.333043">
                <ele>92.800000</ele>
                <time>2018-10-21T04:07:07Z</time>
            </trkpt>
            <trkpt lon="101.202960" lat="14.333080">
                <ele>92.800000</ele>
                <time>2018-10-21T04:07:08Z</time>
            </trkpt>
            <trkpt lon="101.202950" lat="14.333113">
                <ele>92.800000</ele>
                <time>2018-10-21T04:07:09Z</time>
            </trkpt>
            <trkpt lon="101.202945" lat="14.333151">
                <ele>92.800000</ele>
                <time>2018-10-21T04:07:10Z</time>
            </trkpt>
            <trkpt lon="101.202937" lat="14.333188">
                <ele>92.900000</ele>
                <time>2018-10-21T04:07:11Z</time>
            </trkpt>
            <trkpt lon="101.202931" lat="14.333223">
                <ele>92.900000</ele>
                <time>2018-10-21T04:07:12Z</time>
            </trkpt>
            <trkpt lon="101.202924" lat="14.333260">
                <ele>92.900000</ele>
                <time>2018-10-21T04:07:13Z</time>
            </trkpt>
            <trkpt lon="101.202917" lat="14.333299">
                <ele>93.000000</ele>
                <time>2018-10-21T04:07:14Z</time>
            </trkpt>
            <trkpt lon="101.202909" lat="14.333336">
                <ele>93.000000</ele>
                <time>2018-10-21T04:07:15Z</time>
            </trkpt>
            <trkpt lon="101.202902" lat="14.333373">
                <ele>93.100000</ele>
                <time>2018-10-21T04:07:16Z</time>
            </trkpt>
            <trkpt lon="101.202896" lat="14.333407">
                <ele>93.100000</ele>
                <time>2018-10-21T04:07:17Z</time>
            </trkpt>
            <trkpt lon="101.202887" lat="14.333440">
                <ele>93.100000</ele>
                <time>2018-10-21T04:07:18Z</time>
            </trkpt>
            <trkpt lon="101.202878" lat="14.333474">
                <ele>93.200000</ele>
                <time>2018-10-21T04:07:19Z</time>
            </trkpt>
            <trkpt lon="101.202869" lat="14.333511">
                <ele>93.200000</ele>
                <time>2018-10-21T04:07:20Z</time>
            </trkpt>
            <trkpt lon="101.202863" lat="14.333549">
                <ele>93.300000</ele>
                <time>2018-10-21T04:07:21Z</time>
            </trkpt>
            <trkpt lon="101.202852" lat="14.333586">
                <ele>93.300000</ele>
                <time>2018-10-21T04:07:22Z</time>
            </trkpt>
            <trkpt lon="101.202838" lat="14.333620">
                <ele>93.400000</ele>
                <time>2018-10-21T04:07:23Z</time>
            </trkpt>
            <trkpt lon="101.202826" lat="14.333658">
                <ele>93.400000</ele>
                <time>2018-10-21T04:07:24Z</time>
            </trkpt>
            <trkpt lon="101.202818" lat="14.333696">
                <ele>93.500000</ele>
                <time>2018-10-21T04:07:25Z</time>
            </trkpt>
            <trkpt lon="101.202812" lat="14.333731">
                <ele>93.500000</ele>
                <time>2018-10-21T04:07:26Z</time>
            </trkpt>
            <trkpt lon="101.202804" lat="14.333768">
                <ele>93.500000</ele>
                <time>2018-10-21T04:07:27Z</time>
            </trkpt>
            <trkpt lon="101.202797" lat="14.333803">
                <ele>93.600000</ele>
                <time>2018-10-21T04:07:28Z</time>
            </trkpt>
            <trkpt lon="101.202784" lat="14.333842">
                <ele>93.600000</ele>
                <time>2018-10-21T04:07:29Z</time>
            </trkpt>
            <trkpt lon="101.202772" lat="14.333882">
                <ele>93.600000</ele>
                <time>2018-10-21T04:07:30Z</time>
            </trkpt>
            <trkpt lon="101.202760" lat="14.333915">
                <ele>93.700000</ele>
                <time>2018-10-21T04:07:31Z</time>
            </trkpt>
            <trkpt lon="101.202748" lat="14.333954">
                <ele>93.700000</ele>
                <time>2018-10-21T04:07:32Z</time>
            </trkpt>
            <trkpt lon="101.202737" lat="14.333989">
                <ele>93.700000</ele>
                <time>2018-10-21T04:07:33Z</time>
            </trkpt>
            <trkpt lon="101.202729" lat="14.334031">
                <ele>93.700000</ele>
                <time>2018-10-21T04:07:34Z</time>
            </trkpt>
            <trkpt lon="101.202724" lat="14.334070">
                <ele>93.800000</ele>
                <time>2018-10-21T04:07:35Z</time>
            </trkpt>
            <trkpt lon="101.202720" lat="14.334108">
                <ele>93.800000</ele>
                <time>2018-10-21T04:07:36Z</time>
            </trkpt>
            <trkpt lon="101.202713" lat="14.334146">
                <ele>93.900000</ele>
                <time>2018-10-21T04:07:37Z</time>
            </trkpt>
            <trkpt lon="101.202709" lat="14.334184">
                <ele>93.900000</ele>
                <time>2018-10-21T04:07:38Z</time>
            </trkpt>
            <trkpt lon="101.202704" lat="14.334222">
                <ele>93.900000</ele>
                <time>2018-10-21T04:07:39Z</time>
            </trkpt>
            <trkpt lon="101.202694" lat="14.334262">
                <ele>94.000000</ele>
                <time>2018-10-21T04:07:40Z</time>
            </trkpt>
            <trkpt lon="101.202687" lat="14.334300">
                <ele>94.000000</ele>
                <time>2018-10-21T04:07:41Z</time>
            </trkpt>
            <trkpt lon="101.202679" lat="14.334334">
                <ele>94.100000</ele>
                <time>2018-10-21T04:07:42Z</time>
            </trkpt>
            <trkpt lon="101.202669" lat="14.334370">
                <ele>94.100000</ele>
                <time>2018-10-21T04:07:43Z</time>
            </trkpt>
            <trkpt lon="101.202661" lat="14.334407">
                <ele>94.200000</ele>
                <time>2018-10-21T04:07:44Z</time>
            </trkpt>
            <trkpt lon="101.202654" lat="14.334442">
                <ele>94.200000</ele>
                <time>2018-10-21T04:07:45Z</time>
            </trkpt>
            <trkpt lon="101.202649" lat="14.334477">
                <ele>94.300000</ele>
                <time>2018-10-21T04:07:46Z</time>
            </trkpt>
            <trkpt lon="101.202652" lat="14.334516">
                <ele>94.300000</ele>
                <time>2018-10-21T04:07:47Z</time>
            </trkpt>
            <trkpt lon="101.202665" lat="14.334551">
                <ele>94.300000</ele>
                <time>2018-10-21T04:07:48Z</time>
            </trkpt>
            <trkpt lon="101.202679" lat="14.334582">
                <ele>94.300000</ele>
                <time>2018-10-21T04:07:49Z</time>
            </trkpt>
            <trkpt lon="101.202704" lat="14.334600">
                <ele>94.400000</ele>
                <time>2018-10-21T04:07:50Z</time>
            </trkpt>
            <trkpt lon="101.202736" lat="14.334611">
                <ele>94.400000</ele>
                <time>2018-10-21T04:07:51Z</time>
            </trkpt>
            <trkpt lon="101.202766" lat="14.334617">
                <ele>94.400000</ele>
                <time>2018-10-21T04:07:52Z</time>
            </trkpt>
            <trkpt lon="101.202795" lat="14.334619">
                <ele>94.500000</ele>
                <time>2018-10-21T04:07:53Z</time>
            </trkpt>
            <trkpt lon="101.202828" lat="14.334625">
                <ele>94.500000</ele>
                <time>2018-10-21T04:07:54Z</time>
            </trkpt>
            <trkpt lon="101.202857" lat="14.334625">
                <ele>94.500000</ele>
                <time>2018-10-21T04:07:55Z</time>
            </trkpt>
            <trkpt lon="101.202892" lat="14.334624">
                <ele>94.500000</ele>
                <time>2018-10-21T04:07:56Z</time>
            </trkpt>
            <trkpt lon="101.202927" lat="14.334619">
                <ele>94.600000</ele>
                <time>2018-10-21T04:07:57Z</time>
            </trkpt>
            <trkpt lon="101.202959" lat="14.334617">
                <ele>94.600000</ele>
                <time>2018-10-21T04:07:58Z</time>
            </trkpt>
            <trkpt lon="101.202991" lat="14.334624">
                <ele>94.600000</ele>
                <time>2018-10-21T04:07:59Z</time>
            </trkpt>
            <trkpt lon="101.203020" lat="14.334644">
                <ele>94.600000</ele>
                <time>2018-10-21T04:08:00Z</time>
            </trkpt>
            <trkpt lon="101.203043" lat="14.334663">
                <ele>94.600000</ele>
                <time>2018-10-21T04:08:01Z</time>
            </trkpt>
            <trkpt lon="101.203067" lat="14.334685">
                <ele>94.600000</ele>
                <time>2018-10-21T04:08:02Z</time>
            </trkpt>
            <trkpt lon="101.203088" lat="14.334713">
                <ele>94.600000</ele>
                <time>2018-10-21T04:08:03Z</time>
            </trkpt>
            <trkpt lon="101.203109" lat="14.334748">
                <ele>94.700000</ele>
                <time>2018-10-21T04:08:04Z</time>
            </trkpt>
            <trkpt lon="101.203129" lat="14.334779">
                <ele>94.700000</ele>
                <time>2018-10-21T04:08:05Z</time>
            </trkpt>
            <trkpt lon="101.203151" lat="14.334808">
                <ele>94.700000</ele>
                <time>2018-10-21T04:08:06Z</time>
            </trkpt>
            <trkpt lon="101.203171" lat="14.334839">
                <ele>94.700000</ele>
                <time>2018-10-21T04:08:07Z</time>
            </trkpt>
            <trkpt lon="101.203180" lat="14.334872">
                <ele>94.700000</ele>
                <time>2018-10-21T04:08:08Z</time>
            </trkpt>
            <trkpt lon="101.203189" lat="14.334901">
                <ele>94.700000</ele>
                <time>2018-10-21T04:08:09Z</time>
            </trkpt>
            <trkpt lon="101.203193" lat="14.334933">
                <ele>94.700000</ele>
                <time>2018-10-21T04:08:10Z</time>
            </trkpt>
            <trkpt lon="101.203195" lat="14.334967">
                <ele>94.700000</ele>
                <time>2018-10-21T04:08:11Z</time>
            </trkpt>
            <trkpt lon="101.203203" lat="14.334996">
                <ele>94.700000</ele>
                <time>2018-10-21T04:08:12Z</time>
            </trkpt>
            <trkpt lon="101.203216" lat="14.335023">
                <ele>94.700000</ele>
                <time>2018-10-21T04:08:13Z</time>
            </trkpt>
            <trkpt lon="101.203227" lat="14.335053">
                <ele>94.600000</ele>
                <time>2018-10-21T04:08:14Z</time>
            </trkpt>
            <trkpt lon="101.203230" lat="14.335090">
                <ele>94.600000</ele>
                <time>2018-10-21T04:08:15Z</time>
            </trkpt>
            <trkpt lon="101.203226" lat="14.335128">
                <ele>94.600000</ele>
                <time>2018-10-21T04:08:16Z</time>
            </trkpt>
            <trkpt lon="101.203229" lat="14.335163">
                <ele>94.600000</ele>
                <time>2018-10-21T04:08:17Z</time>
            </trkpt>
            <trkpt lon="101.203251" lat="14.335220">
                <ele>94.600000</ele>
                <time>2018-10-21T04:08:19Z</time>
            </trkpt>
            <trkpt lon="101.203264" lat="14.335252">
                <ele>94.600000</ele>
                <time>2018-10-21T04:08:20Z</time>
            </trkpt>
            <trkpt lon="101.203273" lat="14.335293">
                <ele>94.600000</ele>
                <time>2018-10-21T04:08:21Z</time>
            </trkpt>
            <trkpt lon="101.203268" lat="14.335360">
                <ele>94.600000</ele>
                <time>2018-10-21T04:08:22Z</time>
            </trkpt>
            <trkpt lon="101.203268" lat="14.335410">
                <ele>94.600000</ele>
                <time>2018-10-21T04:08:23Z</time>
            </trkpt>
            <trkpt lon="101.203265" lat="14.335463">
                <ele>94.700000</ele>
                <time>2018-10-21T04:08:24Z</time>
            </trkpt>
            <trkpt lon="101.203260" lat="14.335512">
                <ele>94.700000</ele>
                <time>2018-10-21T04:08:25Z</time>
            </trkpt>
            <trkpt lon="101.203245" lat="14.335562">
                <ele>94.800000</ele>
                <time>2018-10-21T04:08:26Z</time>
            </trkpt>
            <trkpt lon="101.203233" lat="14.335613">
                <ele>94.800000</ele>
                <time>2018-10-21T04:08:27Z</time>
            </trkpt>
            <trkpt lon="101.203230" lat="14.335662">
                <ele>94.900000</ele>
                <time>2018-10-21T04:08:28Z</time>
            </trkpt>
            <trkpt lon="101.203228" lat="14.335692">
                <ele>95.000000</ele>
                <time>2018-10-21T04:08:29Z</time>
            </trkpt>
            <trkpt lon="101.203224" lat="14.335722">
                <ele>95.000000</ele>
                <time>2018-10-21T04:08:30Z</time>
            </trkpt>
            <trkpt lon="101.203221" lat="14.335753">
                <ele>95.100000</ele>
                <time>2018-10-21T04:08:31Z</time>
            </trkpt>
            <trkpt lon="101.203213" lat="14.335786">
                <ele>95.100000</ele>
                <time>2018-10-21T04:08:32Z</time>
            </trkpt>
            <trkpt lon="101.203206" lat="14.335822">
                <ele>95.200000</ele>
                <time>2018-10-21T04:08:33Z</time>
            </trkpt>
            <trkpt lon="101.203200" lat="14.335856">
                <ele>95.300000</ele>
                <time>2018-10-21T04:08:34Z</time>
            </trkpt>
            <trkpt lon="101.203192" lat="14.335891">
                <ele>95.400000</ele>
                <time>2018-10-21T04:08:35Z</time>
            </trkpt>
            <trkpt lon="101.203191" lat="14.335928">
                <ele>95.400000</ele>
                <time>2018-10-21T04:08:36Z</time>
            </trkpt>
            <trkpt lon="101.203178" lat="14.335967">
                <ele>95.500000</ele>
                <time>2018-10-21T04:08:37Z</time>
            </trkpt>
            <trkpt lon="101.203166" lat="14.336008">
                <ele>95.600000</ele>
                <time>2018-10-21T04:08:38Z</time>
            </trkpt>
            <trkpt lon="101.203163" lat="14.336045">
                <ele>95.600000</ele>
                <time>2018-10-21T04:08:39Z</time>
            </trkpt>
            <trkpt lon="101.203155" lat="14.336083">
                <ele>95.700000</ele>
                <time>2018-10-21T04:08:40Z</time>
            </trkpt>
            <trkpt lon="101.203152" lat="14.336120">
                <ele>95.700000</ele>
                <time>2018-10-21T04:08:41Z</time>
            </trkpt>
            <trkpt lon="101.203149" lat="14.336161">
                <ele>95.800000</ele>
                <time>2018-10-21T04:08:42Z</time>
            </trkpt>
            <trkpt lon="101.203148" lat="14.336200">
                <ele>95.800000</ele>
                <time>2018-10-21T04:08:43Z</time>
            </trkpt>
            <trkpt lon="101.203148" lat="14.336239">
                <ele>95.900000</ele>
                <time>2018-10-21T04:08:44Z</time>
            </trkpt>
            <trkpt lon="101.203140" lat="14.336279">
                <ele>95.900000</ele>
                <time>2018-10-21T04:08:45Z</time>
            </trkpt>
            <trkpt lon="101.203141" lat="14.336309">
                <ele>95.900000</ele>
                <time>2018-10-21T04:08:46Z</time>
            </trkpt>
            <trkpt lon="101.203144" lat="14.336341">
                <ele>95.900000</ele>
                <time>2018-10-21T04:08:47Z</time>
            </trkpt>
            <trkpt lon="101.203145" lat="14.336379">
                <ele>96.000000</ele>
                <time>2018-10-21T04:08:48Z</time>
            </trkpt>
            <trkpt lon="101.203126" lat="14.336421">
                <ele>96.000000</ele>
                <time>2018-10-21T04:08:49Z</time>
            </trkpt>
            <trkpt lon="101.203119" lat="14.336455">
                <ele>96.000000</ele>
                <time>2018-10-21T04:08:50Z</time>
            </trkpt>
            <trkpt lon="101.203122" lat="14.336489">
                <ele>95.900000</ele>
                <time>2018-10-21T04:08:51Z</time>
            </trkpt>
            <trkpt lon="101.203123" lat="14.336524">
                <ele>95.900000</ele>
                <time>2018-10-21T04:08:52Z</time>
            </trkpt>
            <trkpt lon="101.203115" lat="14.336579">
                <ele>95.900000</ele>
                <time>2018-10-21T04:08:53Z</time>
            </trkpt>
            <trkpt lon="101.203107" lat="14.336627">
                <ele>95.900000</ele>
                <time>2018-10-21T04:08:54Z</time>
            </trkpt>
            <trkpt lon="101.203101" lat="14.336667">
                <ele>95.800000</ele>
                <time>2018-10-21T04:08:55Z</time>
            </trkpt>
            <trkpt lon="101.203110" lat="14.336702">
                <ele>95.800000</ele>
                <time>2018-10-21T04:08:56Z</time>
            </trkpt>
            <trkpt lon="101.203116" lat="14.336740">
                <ele>95.700000</ele>
                <time>2018-10-21T04:08:57Z</time>
            </trkpt>
            <trkpt lon="101.203109" lat="14.336780">
                <ele>95.700000</ele>
                <time>2018-10-21T04:08:58Z</time>
            </trkpt>
            <trkpt lon="101.203109" lat="14.336812">
                <ele>95.600000</ele>
                <time>2018-10-21T04:08:59Z</time>
            </trkpt>
            <trkpt lon="101.203119" lat="14.336846">
                <ele>95.600000</ele>
                <time>2018-10-21T04:09:00Z</time>
            </trkpt>
            <trkpt lon="101.203121" lat="14.336888">
                <ele>95.500000</ele>
                <time>2018-10-21T04:09:01Z</time>
            </trkpt>
            <trkpt lon="101.203117" lat="14.336936">
                <ele>95.500000</ele>
                <time>2018-10-21T04:09:02Z</time>
            </trkpt>
            <trkpt lon="101.203101" lat="14.336978">
                <ele>95.400000</ele>
                <time>2018-10-21T04:09:03Z</time>
            </trkpt>
            <trkpt lon="101.203101" lat="14.337019">
                <ele>95.300000</ele>
                <time>2018-10-21T04:09:04Z</time>
            </trkpt>
            <trkpt lon="101.203095" lat="14.337058">
                <ele>95.100000</ele>
                <time>2018-10-21T04:09:05Z</time>
            </trkpt>
            <trkpt lon="101.203084" lat="14.337093">
                <ele>94.900000</ele>
                <time>2018-10-21T04:09:06Z</time>
            </trkpt>
            <trkpt lon="101.203075" lat="14.337128">
                <ele>94.700000</ele>
                <time>2018-10-21T04:09:07Z</time>
            </trkpt>
            <trkpt lon="101.203073" lat="14.337164">
                <ele>94.500000</ele>
                <time>2018-10-21T04:09:08Z</time>
            </trkpt>
            <trkpt lon="101.203064" lat="14.337219">
                <ele>94.100000</ele>
                <time>2018-10-21T04:09:09Z</time>
            </trkpt>
            <trkpt lon="101.203067" lat="14.337276">
                <ele>93.900000</ele>
                <time>2018-10-21T04:09:10Z</time>
            </trkpt>
            <trkpt lon="101.203067" lat="14.337347">
                <ele>93.700000</ele>
                <time>2018-10-21T04:09:11Z</time>
            </trkpt>
            <trkpt lon="101.203063" lat="14.337416">
                <ele>93.600000</ele>
                <time>2018-10-21T04:09:12Z</time>
            </trkpt>
            <trkpt lon="101.203066" lat="14.337481">
                <ele>93.500000</ele>
                <time>2018-10-21T04:09:13Z</time>
            </trkpt>
            <trkpt lon="101.203058" lat="14.337553">
                <ele>93.600000</ele>
                <time>2018-10-21T04:09:14Z</time>
            </trkpt>
            <trkpt lon="101.203060" lat="14.337621">
                <ele>93.700000</ele>
                <time>2018-10-21T04:09:15Z</time>
            </trkpt>
            <trkpt lon="101.203053" lat="14.337689">
                <ele>93.800000</ele>
                <time>2018-10-21T04:09:16Z</time>
            </trkpt>
            <trkpt lon="101.203044" lat="14.337744">
                <ele>94.000000</ele>
                <time>2018-10-21T04:09:17Z</time>
            </trkpt>
            <trkpt lon="101.203039" lat="14.337792">
                <ele>94.200000</ele>
                <time>2018-10-21T04:09:18Z</time>
            </trkpt>
            <trkpt lon="101.203038" lat="14.337838">
                <ele>94.400000</ele>
                <time>2018-10-21T04:09:19Z</time>
            </trkpt>
            <trkpt lon="101.203036" lat="14.337879">
                <ele>94.600000</ele>
                <time>2018-10-21T04:09:20Z</time>
            </trkpt>
            <trkpt lon="101.203031" lat="14.337916">
                <ele>94.800000</ele>
                <time>2018-10-21T04:09:21Z</time>
            </trkpt>
            <trkpt lon="101.203026" lat="14.337950">
                <ele>95.000000</ele>
                <time>2018-10-21T04:09:22Z</time>
            </trkpt>
            <trkpt lon="101.203022" lat="14.337989">
                <ele>95.300000</ele>
                <time>2018-10-21T04:09:24Z</time>
            </trkpt>
            <trkpt lon="101.203025" lat="14.338018">
                <ele>95.500000</ele>
                <time>2018-10-21T04:09:26Z</time>
            </trkpt>
            <trkpt lon="101.203028" lat="14.338050">
                <ele>95.700000</ele>
                <time>2018-10-21T04:09:28Z</time>
            </trkpt>
            <trkpt lon="101.203040" lat="14.338082">
                <ele>96.000000</ele>
                <time>2018-10-21T04:09:30Z</time>
            </trkpt>
            <trkpt lon="101.203052" lat="14.338116">
                <ele>96.200000</ele>
                <time>2018-10-21T04:09:32Z</time>
            </trkpt>
            <trkpt lon="101.203049" lat="14.338161">
                <ele>96.400000</ele>
                <time>2018-10-21T04:09:34Z</time>
            </trkpt>
            <trkpt lon="101.203040" lat="14.338215">
                <ele>96.700000</ele>
                <time>2018-10-21T04:09:36Z</time>
            </trkpt>
            <trkpt lon="101.203040" lat="14.338269">
                <ele>96.800000</ele>
                <time>2018-10-21T04:09:38Z</time>
            </trkpt>
            <trkpt lon="101.203037" lat="14.338315">
                <ele>97.000000</ele>
                <time>2018-10-21T04:09:40Z</time>
            </trkpt>
            <trkpt lon="101.203038" lat="14.338356">
                <ele>97.100000</ele>
                <time>2018-10-21T04:09:42Z</time>
            </trkpt>
            <trkpt lon="101.203036" lat="14.338398">
                <ele>97.200000</ele>
                <time>2018-10-21T04:09:44Z</time>
            </trkpt>
            <trkpt lon="101.203039" lat="14.338443">
                <ele>97.300000</ele>
                <time>2018-10-21T04:09:46Z</time>
            </trkpt>
            <trkpt lon="101.203046" lat="14.338500">
                <ele>97.400000</ele>
                <time>2018-10-21T04:09:48Z</time>
            </trkpt>
            <trkpt lon="101.203055" lat="14.338531">
                <ele>97.500000</ele>
                <time>2018-10-21T04:09:49Z</time>
            </trkpt>
            <trkpt lon="101.203049" lat="14.338574">
                <ele>97.600000</ele>
                <time>2018-10-21T04:09:51Z</time>
            </trkpt>
            <trkpt lon="101.203038" lat="14.338615">
                <ele>97.700000</ele>
                <time>2018-10-21T04:09:53Z</time>
            </trkpt>
            <trkpt lon="101.203022" lat="14.338655">
                <ele>97.900000</ele>
                <time>2018-10-21T04:09:55Z</time>
            </trkpt>
            <trkpt lon="101.203001" lat="14.338707">
                <ele>98.000000</ele>
                <time>2018-10-21T04:09:57Z</time>
            </trkpt>
            <trkpt lon="101.202997" lat="14.338758">
                <ele>98.200000</ele>
                <time>2018-10-21T04:09:59Z</time>
            </trkpt>
            <trkpt lon="101.202989" lat="14.338787">
                <ele>98.300000</ele>
                <time>2018-10-21T04:10:00Z</time>
            </trkpt>
            <trkpt lon="101.202980" lat="14.338840">
                <ele>98.500000</ele>
                <time>2018-10-21T04:10:02Z</time>
            </trkpt>
            <trkpt lon="101.202988" lat="14.338888">
                <ele>98.700000</ele>
                <time>2018-10-21T04:10:04Z</time>
            </trkpt>
            <trkpt lon="101.202986" lat="14.338917">
                <ele>98.800000</ele>
                <time>2018-10-21T04:10:05Z</time>
            </trkpt>
            <trkpt lon="101.202983" lat="14.338968">
                <ele>99.000000</ele>
                <time>2018-10-21T04:10:07Z</time>
            </trkpt>
            <trkpt lon="101.202971" lat="14.338993">
                <ele>99.200000</ele>
                <time>2018-10-21T04:10:08Z</time>
            </trkpt>
            <trkpt lon="101.202957" lat="14.339018">
                <ele>99.300000</ele>
                <time>2018-10-21T04:10:09Z</time>
            </trkpt>
            <trkpt lon="101.202950" lat="14.339059">
                <ele>99.600000</ele>
                <time>2018-10-21T04:10:11Z</time>
            </trkpt>
            <trkpt lon="101.202943" lat="14.339094">
                <ele>99.800000</ele>
                <time>2018-10-21T04:10:13Z</time>
            </trkpt>
            <trkpt lon="101.202933" lat="14.339125">
                <ele>100.000000</ele>
                <time>2018-10-21T04:10:15Z</time>
            </trkpt>
            <trkpt lon="101.202933" lat="14.339166">
                <ele>100.400000</ele>
                <time>2018-10-21T04:10:18Z</time>
            </trkpt>
            <trkpt lon="101.202942" lat="14.339203">
                <ele>100.800000</ele>
                <time>2018-10-21T04:10:21Z</time>
            </trkpt>
            <trkpt lon="101.202962" lat="14.339235">
                <ele>101.300000</ele>
                <time>2018-10-21T04:10:23Z</time>
            </trkpt>
            <trkpt lon="101.202970" lat="14.339274">
                <ele>101.600000</ele>
                <time>2018-10-21T04:10:25Z</time>
            </trkpt>
            <trkpt lon="101.202972" lat="14.339311">
                <ele>101.900000</ele>
                <time>2018-10-21T04:10:27Z</time>
            </trkpt>
            <trkpt lon="101.202951" lat="14.339360">
                <ele>102.300000</ele>
                <time>2018-10-21T04:10:29Z</time>
            </trkpt>
            <trkpt lon="101.202945" lat="14.339394">
                <ele>102.600000</ele>
                <time>2018-10-21T04:10:31Z</time>
            </trkpt>
            <trkpt lon="101.202936" lat="14.339428">
                <ele>102.900000</ele>
                <time>2018-10-21T04:10:33Z</time>
            </trkpt>
            <trkpt lon="101.202937" lat="14.339456">
                <ele>103.100000</ele>
                <time>2018-10-21T04:10:35Z</time>
            </trkpt>
            <trkpt lon="101.202937" lat="14.339501">
                <ele>103.300000</ele>
                <time>2018-10-21T04:10:38Z</time>
            </trkpt>
            <trkpt lon="101.202933" lat="14.339543">
                <ele>103.400000</ele>
                <time>2018-10-21T04:10:40Z</time>
            </trkpt>
            <trkpt lon="101.202930" lat="14.339577">
                <ele>103.500000</ele>
                <time>2018-10-21T04:10:42Z</time>
            </trkpt>
            <trkpt lon="101.202932" lat="14.339621">
                <ele>103.500000</ele>
                <time>2018-10-21T04:10:44Z</time>
            </trkpt>
            <trkpt lon="101.202926" lat="14.339666">
                <ele>103.500000</ele>
                <time>2018-10-21T04:10:46Z</time>
            </trkpt>
            <trkpt lon="101.202918" lat="14.339710">
                <ele>103.500000</ele>
                <time>2018-10-21T04:10:48Z</time>
            </trkpt>
            <trkpt lon="101.202916" lat="14.339741">
                <ele>103.300000</ele>
                <time>2018-10-21T04:10:50Z</time>
            </trkpt>
            <trkpt lon="101.202905" lat="14.339782">
                <ele>103.200000</ele>
                <time>2018-10-21T04:10:52Z</time>
            </trkpt>
            <trkpt lon="101.202893" lat="14.339824">
                <ele>102.900000</ele>
                <time>2018-10-21T04:10:54Z</time>
            </trkpt>
            <trkpt lon="101.202887" lat="14.339855">
                <ele>102.600000</ele>
                <time>2018-10-21T04:10:55Z</time>
            </trkpt>
            <trkpt lon="101.202887" lat="14.339884">
                <ele>102.400000</ele>
                <time>2018-10-21T04:10:56Z</time>
            </trkpt>
            <trkpt lon="101.202886" lat="14.339941">
                <ele>101.900000</ele>
                <time>2018-10-21T04:10:58Z</time>
            </trkpt>
            <trkpt lon="101.202889" lat="14.339969">
                <ele>101.700000</ele>
                <time>2018-10-21T04:10:59Z</time>
            </trkpt>
            <trkpt lon="101.202895" lat="14.340002">
                <ele>101.300000</ele>
                <time>2018-10-21T04:11:00Z</time>
            </trkpt>
            <trkpt lon="101.202899" lat="14.340037">
                <ele>100.900000</ele>
                <time>2018-10-21T04:11:01Z</time>
            </trkpt>
            <trkpt lon="101.202907" lat="14.340082">
                <ele>100.500000</ele>
                <time>2018-10-21T04:11:02Z</time>
            </trkpt>
            <trkpt lon="101.202896" lat="14.340141">
                <ele>99.900000</ele>
                <time>2018-10-21T04:11:03Z</time>
            </trkpt>
            <trkpt lon="101.202890" lat="14.340184">
                <ele>99.600000</ele>
                <time>2018-10-21T04:11:04Z</time>
            </trkpt>
            <trkpt lon="101.202911" lat="14.340217">
                <ele>99.200000</ele>
                <time>2018-10-21T04:11:05Z</time>
            </trkpt>
            <trkpt lon="101.202926" lat="14.340256">
                <ele>98.800000</ele>
                <time>2018-10-21T04:11:06Z</time>
            </trkpt>
            <trkpt lon="101.202968" lat="14.340290">
                <ele>98.400000</ele>
                <time>2018-10-21T04:11:07Z</time>
            </trkpt>
            <trkpt lon="101.203029" lat="14.340300">
                <ele>98.000000</ele>
                <time>2018-10-21T04:11:08Z</time>
            </trkpt>
            <trkpt lon="101.203096" lat="14.340292">
                <ele>97.500000</ele>
                <time>2018-10-21T04:11:09Z</time>
            </trkpt>
            <trkpt lon="101.203163" lat="14.340283">
                <ele>97.300000</ele>
                <time>2018-10-21T04:11:10Z</time>
            </trkpt>
            <trkpt lon="101.203229" lat="14.340275">
                <ele>97.100000</ele>
                <time>2018-10-21T04:11:11Z</time>
            </trkpt>
            <trkpt lon="101.203292" lat="14.340271">
                <ele>97.000000</ele>
                <time>2018-10-21T04:11:12Z</time>
            </trkpt>
            <trkpt lon="101.203358" lat="14.340262">
                <ele>96.900000</ele>
                <time>2018-10-21T04:11:13Z</time>
            </trkpt>
            <trkpt lon="101.203423" lat="14.340253">
                <ele>96.800000</ele>
                <time>2018-10-21T04:11:14Z</time>
            </trkpt>
            <trkpt lon="101.203484" lat="14.340243">
                <ele>96.800000</ele>
                <time>2018-10-21T04:11:15Z</time>
            </trkpt>
            <trkpt lon="101.203563" lat="14.340232">
                <ele>96.700000</ele>
                <time>2018-10-21T04:11:16Z</time>
            </trkpt>
            <trkpt lon="101.203628" lat="14.340218">
                <ele>96.600000</ele>
                <time>2018-10-21T04:11:17Z</time>
            </trkpt>
            <trkpt lon="101.203698" lat="14.340204">
                <ele>96.500000</ele>
                <time>2018-10-21T04:11:18Z</time>
            </trkpt>
            <trkpt lon="101.203761" lat="14.340191">
                <ele>96.500000</ele>
                <time>2018-10-21T04:11:19Z</time>
            </trkpt>
            <trkpt lon="101.203808" lat="14.340179">
                <ele>96.400000</ele>
                <time>2018-10-21T04:11:20Z</time>
            </trkpt>
            <trkpt lon="101.203861" lat="14.340166">
                <ele>96.300000</ele>
                <time>2018-10-21T04:11:21Z</time>
            </trkpt>
            <trkpt lon="101.203913" lat="14.340152">
                <ele>96.200000</ele>
                <time>2018-10-21T04:11:22Z</time>
            </trkpt>
            <trkpt lon="101.203965" lat="14.340137">
                <ele>96.100000</ele>
                <time>2018-10-21T04:11:23Z</time>
            </trkpt>
            <trkpt lon="101.204007" lat="14.340117">
                <ele>96.000000</ele>
                <time>2018-10-21T04:11:24Z</time>
            </trkpt>
            <trkpt lon="101.204059" lat="14.340101">
                <ele>95.900000</ele>
                <time>2018-10-21T04:11:25Z</time>
            </trkpt>
            <trkpt lon="101.204102" lat="14.340085">
                <ele>95.800000</ele>
                <time>2018-10-21T04:11:26Z</time>
            </trkpt>
            <trkpt lon="101.204165" lat="14.340076">
                <ele>95.700000</ele>
                <time>2018-10-21T04:11:27Z</time>
            </trkpt>
            <trkpt lon="101.204213" lat="14.340072">
                <ele>95.600000</ele>
                <time>2018-10-21T04:11:28Z</time>
            </trkpt>
            <trkpt lon="101.204277" lat="14.340071">
                <ele>95.500000</ele>
                <time>2018-10-21T04:11:29Z</time>
            </trkpt>
            <trkpt lon="101.204334" lat="14.340058">
                <ele>95.500000</ele>
                <time>2018-10-21T04:11:30Z</time>
            </trkpt>
            <trkpt lon="101.204393" lat="14.340057">
                <ele>95.400000</ele>
                <time>2018-10-21T04:11:31Z</time>
            </trkpt>
            <trkpt lon="101.204438" lat="14.340065">
                <ele>95.400000</ele>
                <time>2018-10-21T04:11:32Z</time>
            </trkpt>
            <trkpt lon="101.204483" lat="14.340069">
                <ele>95.400000</ele>
                <time>2018-10-21T04:11:33Z</time>
            </trkpt>
            <trkpt lon="101.204522" lat="14.340088">
                <ele>95.400000</ele>
                <time>2018-10-21T04:11:34Z</time>
            </trkpt>
            <trkpt lon="101.204562" lat="14.340099">
                <ele>95.400000</ele>
                <time>2018-10-21T04:11:35Z</time>
            </trkpt>
            <trkpt lon="101.204600" lat="14.340111">
                <ele>95.400000</ele>
                <time>2018-10-21T04:11:36Z</time>
            </trkpt>
            <trkpt lon="101.204633" lat="14.340112">
                <ele>95.400000</ele>
                <time>2018-10-21T04:11:37Z</time>
            </trkpt>
            <trkpt lon="101.204672" lat="14.340126">
                <ele>95.400000</ele>
                <time>2018-10-21T04:11:38Z</time>
            </trkpt>
            <trkpt lon="101.204710" lat="14.340153">
                <ele>95.400000</ele>
                <time>2018-10-21T04:11:39Z</time>
            </trkpt>
            <trkpt lon="101.204746" lat="14.340180">
                <ele>95.400000</ele>
                <time>2018-10-21T04:11:40Z</time>
            </trkpt>
            <trkpt lon="101.204784" lat="14.340205">
                <ele>95.400000</ele>
                <time>2018-10-21T04:11:41Z</time>
            </trkpt>
            <trkpt lon="101.204817" lat="14.340232">
                <ele>95.400000</ele>
                <time>2018-10-21T04:11:42Z</time>
            </trkpt>
            <trkpt lon="101.204848" lat="14.340258">
                <ele>95.300000</ele>
                <time>2018-10-21T04:11:43Z</time>
            </trkpt>
            <trkpt lon="101.204873" lat="14.340281">
                <ele>95.300000</ele>
                <time>2018-10-21T04:11:44Z</time>
            </trkpt>
            <trkpt lon="101.204897" lat="14.340307">
                <ele>95.300000</ele>
                <time>2018-10-21T04:11:45Z</time>
            </trkpt>
            <trkpt lon="101.204924" lat="14.340329">
                <ele>95.300000</ele>
                <time>2018-10-21T04:11:46Z</time>
            </trkpt>
            <trkpt lon="101.204951" lat="14.340349">
                <ele>95.300000</ele>
                <time>2018-10-21T04:11:47Z</time>
            </trkpt>
            <trkpt lon="101.204975" lat="14.340371">
                <ele>95.300000</ele>
                <time>2018-10-21T04:11:48Z</time>
            </trkpt>
            <trkpt lon="101.204993" lat="14.340401">
                <ele>95.300000</ele>
                <time>2018-10-21T04:11:49Z</time>
            </trkpt>
            <trkpt lon="101.205016" lat="14.340429">
                <ele>95.300000</ele>
                <time>2018-10-21T04:11:50Z</time>
            </trkpt>
            <trkpt lon="101.205040" lat="14.340453">
                <ele>95.300000</ele>
                <time>2018-10-21T04:11:51Z</time>
            </trkpt>
            <trkpt lon="101.205065" lat="14.340472">
                <ele>95.200000</ele>
                <time>2018-10-21T04:11:52Z</time>
            </trkpt>
            <trkpt lon="101.205089" lat="14.340489">
                <ele>95.200000</ele>
                <time>2018-10-21T04:11:53Z</time>
            </trkpt>
            <trkpt lon="101.205104" lat="14.340512">
                <ele>95.200000</ele>
                <time>2018-10-21T04:11:54Z</time>
            </trkpt>
            <trkpt lon="101.205122" lat="14.340535">
                <ele>95.200000</ele>
                <time>2018-10-21T04:11:55Z</time>
            </trkpt>
            <trkpt lon="101.205140" lat="14.340556">
                <ele>95.200000</ele>
                <time>2018-10-21T04:11:56Z</time>
            </trkpt>
            <trkpt lon="101.205179" lat="14.340595">
                <ele>95.200000</ele>
                <time>2018-10-21T04:11:58Z</time>
            </trkpt>
            <trkpt lon="101.205200" lat="14.340614">
                <ele>95.300000</ele>
                <time>2018-10-21T04:11:59Z</time>
            </trkpt>
            <trkpt lon="101.205227" lat="14.340634">
                <ele>95.300000</ele>
                <time>2018-10-21T04:12:00Z</time>
            </trkpt>
            <trkpt lon="101.205250" lat="14.340654">
                <ele>95.300000</ele>
                <time>2018-10-21T04:12:01Z</time>
            </trkpt>
            <trkpt lon="101.205275" lat="14.340677">
                <ele>95.300000</ele>
                <time>2018-10-21T04:12:02Z</time>
            </trkpt>
            <trkpt lon="101.205303" lat="14.340692">
                <ele>95.300000</ele>
                <time>2018-10-21T04:12:03Z</time>
            </trkpt>
            <trkpt lon="101.205331" lat="14.340708">
                <ele>95.300000</ele>
                <time>2018-10-21T04:12:04Z</time>
            </trkpt>
            <trkpt lon="101.205355" lat="14.340728">
                <ele>95.300000</ele>
                <time>2018-10-21T04:12:05Z</time>
            </trkpt>
            <trkpt lon="101.205398" lat="14.340757">
                <ele>95.300000</ele>
                <time>2018-10-21T04:12:07Z</time>
            </trkpt>
            <trkpt lon="101.205423" lat="14.340770">
                <ele>95.300000</ele>
                <time>2018-10-21T04:12:08Z</time>
            </trkpt>
            <trkpt lon="101.205448" lat="14.340783">
                <ele>95.300000</ele>
                <time>2018-10-21T04:12:09Z</time>
            </trkpt>
            <trkpt lon="101.205488" lat="14.340810">
                <ele>95.400000</ele>
                <time>2018-10-21T04:12:11Z</time>
            </trkpt>
            <trkpt lon="101.205526" lat="14.340819">
                <ele>95.400000</ele>
                <time>2018-10-21T04:12:13Z</time>
            </trkpt>
            <trkpt lon="101.205553" lat="14.340838">
                <ele>95.400000</ele>
                <time>2018-10-21T04:12:15Z</time>
            </trkpt>
            <trkpt lon="101.205588" lat="14.340857">
                <ele>95.400000</ele>
                <time>2018-10-21T04:12:17Z</time>
            </trkpt>
            <trkpt lon="101.205620" lat="14.340887">
                <ele>95.400000</ele>
                <time>2018-10-21T04:12:19Z</time>
            </trkpt>
            <trkpt lon="101.205653" lat="14.340907">
                <ele>95.500000</ele>
                <time>2018-10-21T04:12:21Z</time>
            </trkpt>
            <trkpt lon="101.205683" lat="14.340926">
                <ele>95.500000</ele>
                <time>2018-10-21T04:12:23Z</time>
            </trkpt>
            <trkpt lon="101.205699" lat="14.340958">
                <ele>95.500000</ele>
                <time>2018-10-21T04:12:26Z</time>
            </trkpt>
            <trkpt lon="101.205686" lat="14.340994">
                <ele>95.500000</ele>
                <time>2018-10-21T04:12:32Z</time>
            </trkpt>
            <trkpt lon="101.205708" lat="14.341022">
                <ele>95.600000</ele>
                <time>2018-10-21T04:13:48Z</time>
            </trkpt>
            <trkpt lon="101.205729" lat="14.341047">
                <ele>95.600000</ele>
                <time>2018-10-21T04:14:27Z</time>
            </trkpt>
            <trkpt lon="101.205699" lat="14.341053">
                <ele>95.600000</ele>
                <time>2018-10-21T04:16:26Z</time>
            </trkpt>
            <trkpt lon="101.205730" lat="14.341060">
                <ele>95.700000</ele>
                <time>2018-10-21T04:16:51Z</time>
            </trkpt>
            <trkpt lon="101.205692" lat="14.341048">
                <ele>95.700000</ele>
                <time>2018-10-21T04:16:57Z</time>
            </trkpt>
            <trkpt lon="101.205666" lat="14.341032">
                <ele>95.800000</ele>
                <time>2018-10-21T04:17:00Z</time>
            </trkpt>
            <trkpt lon="101.205637" lat="14.341024">
                <ele>95.800000</ele>
                <time>2018-10-21T04:17:04Z</time>
            </trkpt>
            <trkpt lon="101.205616" lat="14.341043">
                <ele>95.800000</ele>
                <time>2018-10-21T04:17:28Z</time>
            </trkpt>
            <trkpt lon="101.205605" lat="14.341075">
                <ele>95.900000</ele>
                <time>2018-10-21T04:17:36Z</time>
            </trkpt>
            <trkpt lon="101.205594" lat="14.341043">
                <ele>95.900000</ele>
                <time>2018-10-21T04:17:44Z</time>
            </trkpt>
            <trkpt lon="101.205553" lat="14.341038">
                <ele>96.000000</ele>
                <time>2018-10-21T04:17:54Z</time>
            </trkpt>
            <trkpt lon="101.205539" lat="14.341066">
                <ele>96.000000</ele>
                <time>2018-10-21T04:17:57Z</time>
            </trkpt>
        </trkseg>
    </trk>
</gpx>